<?xml version="1.0" encoding="UTF-8"?>
<gpx xmlns:gpxdata="http://www.cluetrust.com/XML/GPXDATA/1/0" xmlns:xsi="http://www.w3.org/2001/XMLSchema-instance" xmlns="http://www.topografix.com/GPX/1/1" version="1.1" creator="http://ridewithgps.com/" xsi:schemaLocation="http://www.topografix.com/GPX/1/1 http://www.topografix.com/GPX/1/1/gpx.xsd http://www.cluetrust.com/XML/GPXDATA/1/0 http://www.cluetrust.com/Schemas/gpxdata10.xsd">
  <metadata>
    <name>09/07/20</name>
    <link href="https://ridewithgps.com/trips/52175342">
      <text>09/07/20</text>
    </link>
    <time>2020-07-09T08:02:47Z</time>
  </metadata>
  <trk>
    <name>09/07/20</name>
    <trkseg>
      <trkpt lat="49.715637" lon="6.50579">
        <ele>185.0</ele>
        <time>2020-07-09T06:02:47Z</time>
      </trkpt>
      <trkpt lat="49.715637" lon="6.50579">
        <ele>185.0</ele>
        <time>2020-07-09T06:02:49Z</time>
      </trkpt>
      <trkpt lat="49.715637" lon="6.50579">
        <ele>185.0</ele>
        <time>2020-07-09T06:02:51Z</time>
      </trkpt>
      <trkpt lat="49.715637" lon="6.50579">
        <ele>185.0</ele>
        <time>2020-07-09T06:02:53Z</time>
      </trkpt>
      <trkpt lat="49.715637" lon="6.50579">
        <ele>185.0</ele>
        <time>2020-07-09T06:02:55Z</time>
      </trkpt>
      <trkpt lat="49.715637" lon="6.50579">
        <ele>185.0</ele>
        <time>2020-07-09T06:02:57Z</time>
      </trkpt>
      <trkpt lat="49.715637" lon="6.50579">
        <ele>185.0</ele>
        <time>2020-07-09T06:02:59Z</time>
      </trkpt>
      <trkpt lat="49.715637" lon="6.50579">
        <ele>185.0</ele>
        <time>2020-07-09T06:03:01Z</time>
      </trkpt>
      <trkpt lat="49.715637" lon="6.50579">
        <ele>185.0</ele>
        <time>2020-07-09T06:03:03Z</time>
      </trkpt>
      <trkpt lat="49.715637" lon="6.50579">
        <ele>185.0</ele>
        <time>2020-07-09T06:03:05Z</time>
      </trkpt>
      <trkpt lat="49.715637" lon="6.50579">
        <ele>185.0</ele>
        <time>2020-07-09T06:03:07Z</time>
      </trkpt>
      <trkpt lat="49.715637" lon="6.50579">
        <ele>185.0</ele>
        <time>2020-07-09T06:03:09Z</time>
      </trkpt>
      <trkpt lat="49.715621" lon="6.505785">
        <ele>184.0</ele>
        <time>2020-07-09T06:03:11Z</time>
      </trkpt>
      <trkpt lat="49.715604" lon="6.505807">
        <ele>183.0</ele>
        <time>2020-07-09T06:03:13Z</time>
      </trkpt>
      <trkpt lat="49.715586" lon="6.505839">
        <ele>184.0</ele>
        <time>2020-07-09T06:03:15Z</time>
      </trkpt>
      <trkpt lat="49.715571" lon="6.505905">
        <ele>183.0</ele>
        <time>2020-07-09T06:03:17Z</time>
      </trkpt>
      <trkpt lat="49.715574" lon="6.505997">
        <ele>183.0</ele>
        <time>2020-07-09T06:03:19Z</time>
      </trkpt>
      <trkpt lat="49.71558" lon="6.5061">
        <ele>183.0</ele>
        <time>2020-07-09T06:03:21Z</time>
      </trkpt>
      <trkpt lat="49.715565" lon="6.50621">
        <ele>182.0</ele>
        <time>2020-07-09T06:03:23Z</time>
      </trkpt>
      <trkpt lat="49.715478" lon="6.506281">
        <ele>181.0</ele>
        <time>2020-07-09T06:03:25Z</time>
      </trkpt>
      <trkpt lat="49.715373" lon="6.506299">
        <ele>180.0</ele>
        <time>2020-07-09T06:03:27Z</time>
      </trkpt>
      <trkpt lat="49.715287" lon="6.506293">
        <ele>180.0</ele>
        <time>2020-07-09T06:03:29Z</time>
      </trkpt>
      <trkpt lat="49.715204" lon="6.506267">
        <ele>180.0</ele>
        <time>2020-07-09T06:03:31Z</time>
      </trkpt>
      <trkpt lat="49.715132" lon="6.506253">
        <ele>180.0</ele>
        <time>2020-07-09T06:03:33Z</time>
      </trkpt>
      <trkpt lat="49.71505" lon="6.506245">
        <ele>181.0</ele>
        <time>2020-07-09T06:03:35Z</time>
      </trkpt>
      <trkpt lat="49.714957" lon="6.506245">
        <ele>182.0</ele>
        <time>2020-07-09T06:03:37Z</time>
      </trkpt>
      <trkpt lat="49.714874" lon="6.506235">
        <ele>181.0</ele>
        <time>2020-07-09T06:03:39Z</time>
      </trkpt>
      <trkpt lat="49.714799" lon="6.506216">
        <ele>181.0</ele>
        <time>2020-07-09T06:03:41Z</time>
      </trkpt>
      <trkpt lat="49.714727" lon="6.50618">
        <ele>181.0</ele>
        <time>2020-07-09T06:03:43Z</time>
      </trkpt>
      <trkpt lat="49.714667" lon="6.50611">
        <ele>182.0</ele>
        <time>2020-07-09T06:03:45Z</time>
      </trkpt>
      <trkpt lat="49.714605" lon="6.506077">
        <ele>182.0</ele>
        <time>2020-07-09T06:03:47Z</time>
      </trkpt>
      <trkpt lat="49.714557" lon="6.506012">
        <ele>182.0</ele>
        <time>2020-07-09T06:03:49Z</time>
      </trkpt>
      <trkpt lat="49.714521" lon="6.505911">
        <ele>182.0</ele>
        <time>2020-07-09T06:03:51Z</time>
      </trkpt>
      <trkpt lat="49.714509" lon="6.505808">
        <ele>182.0</ele>
        <time>2020-07-09T06:03:53Z</time>
      </trkpt>
      <trkpt lat="49.714509" lon="6.505707">
        <ele>182.0</ele>
        <time>2020-07-09T06:03:55Z</time>
      </trkpt>
      <trkpt lat="49.714498" lon="6.505561">
        <ele>183.0</ele>
        <time>2020-07-09T06:03:58Z</time>
      </trkpt>
      <trkpt lat="49.714493" lon="6.505472">
        <ele>184.0</ele>
        <time>2020-07-09T06:04:00Z</time>
      </trkpt>
      <trkpt lat="49.714476" lon="6.50544">
        <ele>184.0</ele>
        <time>2020-07-09T06:04:02Z</time>
      </trkpt>
      <trkpt lat="49.714464" lon="6.505428">
        <ele>185.0</ele>
        <time>2020-07-09T06:04:04Z</time>
      </trkpt>
      <trkpt lat="49.714464" lon="6.505428">
        <ele>185.0</ele>
        <time>2020-07-09T06:04:06Z</time>
      </trkpt>
      <trkpt lat="49.714464" lon="6.505428">
        <ele>185.0</ele>
        <time>2020-07-09T06:04:08Z</time>
      </trkpt>
      <trkpt lat="49.714464" lon="6.505428">
        <ele>185.0</ele>
        <time>2020-07-09T06:04:10Z</time>
      </trkpt>
      <trkpt lat="49.714464" lon="6.505428">
        <ele>185.0</ele>
        <time>2020-07-09T06:04:14Z</time>
      </trkpt>
      <trkpt lat="49.714464" lon="6.505428">
        <ele>185.0</ele>
        <time>2020-07-09T06:04:16Z</time>
      </trkpt>
      <trkpt lat="49.714464" lon="6.505428">
        <ele>185.0</ele>
        <time>2020-07-09T06:04:18Z</time>
      </trkpt>
      <trkpt lat="49.714464" lon="6.505428">
        <ele>185.0</ele>
        <time>2020-07-09T06:04:20Z</time>
      </trkpt>
      <trkpt lat="49.714464" lon="6.505428">
        <ele>185.0</ele>
        <time>2020-07-09T06:04:22Z</time>
      </trkpt>
      <trkpt lat="49.714464" lon="6.505428">
        <ele>185.0</ele>
        <time>2020-07-09T06:04:24Z</time>
      </trkpt>
      <trkpt lat="49.714464" lon="6.505428">
        <ele>185.0</ele>
        <time>2020-07-09T06:04:26Z</time>
      </trkpt>
      <trkpt lat="49.714464" lon="6.505428">
        <ele>185.0</ele>
        <time>2020-07-09T06:04:28Z</time>
      </trkpt>
      <trkpt lat="49.714464" lon="6.505428">
        <ele>185.0</ele>
        <time>2020-07-09T06:04:30Z</time>
      </trkpt>
      <trkpt lat="49.714464" lon="6.505428">
        <ele>185.0</ele>
        <time>2020-07-09T06:04:32Z</time>
      </trkpt>
      <trkpt lat="49.714464" lon="6.505428">
        <ele>185.0</ele>
        <time>2020-07-09T06:04:34Z</time>
      </trkpt>
      <trkpt lat="49.714464" lon="6.505428">
        <ele>185.0</ele>
        <time>2020-07-09T06:04:36Z</time>
      </trkpt>
      <trkpt lat="49.714462" lon="6.505434">
        <ele>185.0</ele>
        <time>2020-07-09T06:04:38Z</time>
      </trkpt>
      <trkpt lat="49.714443" lon="6.505451">
        <ele>185.0</ele>
        <time>2020-07-09T06:04:40Z</time>
      </trkpt>
      <trkpt lat="49.714403" lon="6.505457">
        <ele>185.0</ele>
        <time>2020-07-09T06:04:42Z</time>
      </trkpt>
      <trkpt lat="49.714368" lon="6.505489">
        <ele>185.0</ele>
        <time>2020-07-09T06:04:44Z</time>
      </trkpt>
      <trkpt lat="49.71436" lon="6.50558">
        <ele>186.0</ele>
        <time>2020-07-09T06:04:46Z</time>
      </trkpt>
      <trkpt lat="49.714371" lon="6.505678">
        <ele>186.0</ele>
        <time>2020-07-09T06:04:48Z</time>
      </trkpt>
      <trkpt lat="49.714377" lon="6.505788">
        <ele>186.0</ele>
        <time>2020-07-09T06:04:50Z</time>
      </trkpt>
      <trkpt lat="49.714382" lon="6.505894">
        <ele>187.0</ele>
        <time>2020-07-09T06:04:52Z</time>
      </trkpt>
      <trkpt lat="49.714379" lon="6.506006">
        <ele>187.0</ele>
        <time>2020-07-09T06:04:54Z</time>
      </trkpt>
      <trkpt lat="49.714368" lon="6.506117">
        <ele>187.0</ele>
        <time>2020-07-09T06:04:56Z</time>
      </trkpt>
      <trkpt lat="49.714357" lon="6.506224">
        <ele>188.0</ele>
        <time>2020-07-09T06:04:58Z</time>
      </trkpt>
      <trkpt lat="49.714348" lon="6.506321">
        <ele>188.0</ele>
        <time>2020-07-09T06:05:00Z</time>
      </trkpt>
      <trkpt lat="49.71434" lon="6.506421">
        <ele>188.0</ele>
        <time>2020-07-09T06:05:02Z</time>
      </trkpt>
      <trkpt lat="49.714332" lon="6.506525">
        <ele>187.0</ele>
        <time>2020-07-09T06:05:04Z</time>
      </trkpt>
      <trkpt lat="49.714322" lon="6.506623">
        <ele>188.0</ele>
        <time>2020-07-09T06:05:06Z</time>
      </trkpt>
      <trkpt lat="49.714328" lon="6.50672">
        <ele>188.0</ele>
        <time>2020-07-09T06:05:08Z</time>
      </trkpt>
      <trkpt lat="49.71433" lon="6.506817">
        <ele>188.0</ele>
        <time>2020-07-09T06:05:10Z</time>
      </trkpt>
      <trkpt lat="49.714323" lon="6.506913">
        <ele>188.0</ele>
        <time>2020-07-09T06:05:12Z</time>
      </trkpt>
      <trkpt lat="49.714313" lon="6.507009">
        <ele>189.0</ele>
        <time>2020-07-09T06:05:14Z</time>
      </trkpt>
      <trkpt lat="49.714299" lon="6.507093">
        <ele>190.0</ele>
        <time>2020-07-09T06:05:16Z</time>
      </trkpt>
      <trkpt lat="49.714282" lon="6.5071">
        <ele>189.0</ele>
        <time>2020-07-09T06:05:18Z</time>
      </trkpt>
      <trkpt lat="49.714287" lon="6.507115">
        <ele>190.0</ele>
        <time>2020-07-09T06:05:20Z</time>
      </trkpt>
      <trkpt lat="49.714287" lon="6.507115">
        <ele>190.0</ele>
        <time>2020-07-09T06:05:22Z</time>
      </trkpt>
      <trkpt lat="49.714287" lon="6.507115">
        <ele>190.0</ele>
        <time>2020-07-09T06:05:24Z</time>
      </trkpt>
      <trkpt lat="49.714341" lon="6.507162">
        <ele>191.0</ele>
        <time>2020-07-09T06:08:36Z</time>
      </trkpt>
      <trkpt lat="49.714341" lon="6.507162">
        <ele>191.0</ele>
        <time>2020-07-09T06:08:38Z</time>
      </trkpt>
      <trkpt lat="49.714341" lon="6.507162">
        <ele>191.0</ele>
        <time>2020-07-09T06:08:40Z</time>
      </trkpt>
      <trkpt lat="49.714341" lon="6.507162">
        <ele>191.0</ele>
        <time>2020-07-09T06:08:42Z</time>
      </trkpt>
      <trkpt lat="49.714341" lon="6.507162">
        <ele>191.0</ele>
        <time>2020-07-09T06:08:44Z</time>
      </trkpt>
      <trkpt lat="49.714341" lon="6.507162">
        <ele>191.0</ele>
        <time>2020-07-09T06:08:46Z</time>
      </trkpt>
      <trkpt lat="49.714341" lon="6.507162">
        <ele>191.0</ele>
        <time>2020-07-09T06:08:48Z</time>
      </trkpt>
      <trkpt lat="49.714341" lon="6.507162">
        <ele>191.0</ele>
        <time>2020-07-09T06:08:50Z</time>
      </trkpt>
      <trkpt lat="49.714341" lon="6.507162">
        <ele>191.0</ele>
        <time>2020-07-09T06:08:52Z</time>
      </trkpt>
      <trkpt lat="49.714341" lon="6.507162">
        <ele>191.0</ele>
        <time>2020-07-09T06:08:54Z</time>
      </trkpt>
      <trkpt lat="49.714331" lon="6.507171">
        <ele>191.0</ele>
        <time>2020-07-09T06:08:56Z</time>
      </trkpt>
      <trkpt lat="49.71433" lon="6.507186">
        <ele>191.0</ele>
        <time>2020-07-09T06:08:58Z</time>
      </trkpt>
      <trkpt lat="49.714323" lon="6.50721">
        <ele>190.0</ele>
        <time>2020-07-09T06:09:00Z</time>
      </trkpt>
      <trkpt lat="49.714301" lon="6.507232">
        <ele>190.0</ele>
        <time>2020-07-09T06:09:02Z</time>
      </trkpt>
      <trkpt lat="49.714248" lon="6.507232">
        <ele>190.0</ele>
        <time>2020-07-09T06:09:04Z</time>
      </trkpt>
      <trkpt lat="49.714175" lon="6.507226">
        <ele>190.0</ele>
        <time>2020-07-09T06:09:06Z</time>
      </trkpt>
      <trkpt lat="49.714103" lon="6.507235">
        <ele>189.0</ele>
        <time>2020-07-09T06:09:08Z</time>
      </trkpt>
      <trkpt lat="49.71403" lon="6.507254">
        <ele>189.0</ele>
        <time>2020-07-09T06:09:10Z</time>
      </trkpt>
      <trkpt lat="49.713968" lon="6.507268">
        <ele>189.0</ele>
        <time>2020-07-09T06:09:12Z</time>
      </trkpt>
      <trkpt lat="49.713895" lon="6.507291">
        <ele>189.0</ele>
        <time>2020-07-09T06:09:14Z</time>
      </trkpt>
      <trkpt lat="49.713836" lon="6.507305">
        <ele>189.0</ele>
        <time>2020-07-09T06:09:16Z</time>
      </trkpt>
      <trkpt lat="49.713779" lon="6.507334">
        <ele>189.0</ele>
        <time>2020-07-09T06:09:18Z</time>
      </trkpt>
      <trkpt lat="49.713725" lon="6.507359">
        <ele>188.0</ele>
        <time>2020-07-09T06:09:20Z</time>
      </trkpt>
      <trkpt lat="49.713662" lon="6.507372">
        <ele>187.0</ele>
        <time>2020-07-09T06:09:22Z</time>
      </trkpt>
      <trkpt lat="49.713602" lon="6.507386">
        <ele>186.0</ele>
        <time>2020-07-09T06:09:24Z</time>
      </trkpt>
      <trkpt lat="49.71356" lon="6.507401">
        <ele>185.0</ele>
        <time>2020-07-09T06:09:26Z</time>
      </trkpt>
      <trkpt lat="49.713516" lon="6.507427">
        <ele>184.0</ele>
        <time>2020-07-09T06:09:28Z</time>
      </trkpt>
      <trkpt lat="49.713479" lon="6.507455">
        <ele>184.0</ele>
        <time>2020-07-09T06:09:30Z</time>
      </trkpt>
      <trkpt lat="49.713433" lon="6.507491">
        <ele>183.0</ele>
        <time>2020-07-09T06:09:32Z</time>
      </trkpt>
      <trkpt lat="49.713389" lon="6.507519">
        <ele>182.0</ele>
        <time>2020-07-09T06:09:34Z</time>
      </trkpt>
      <trkpt lat="49.713356" lon="6.507546">
        <ele>182.0</ele>
        <time>2020-07-09T06:09:36Z</time>
      </trkpt>
      <trkpt lat="49.713327" lon="6.50756">
        <ele>183.0</ele>
        <time>2020-07-09T06:09:38Z</time>
      </trkpt>
      <trkpt lat="49.713294" lon="6.507573">
        <ele>183.0</ele>
        <time>2020-07-09T06:09:40Z</time>
      </trkpt>
      <trkpt lat="49.713276" lon="6.5076">
        <ele>182.0</ele>
        <time>2020-07-09T06:09:42Z</time>
      </trkpt>
      <trkpt lat="49.713266" lon="6.507611">
        <ele>183.0</ele>
        <time>2020-07-09T06:09:44Z</time>
      </trkpt>
      <trkpt lat="49.713259" lon="6.507611">
        <ele>182.0</ele>
        <time>2020-07-09T06:09:46Z</time>
      </trkpt>
      <trkpt lat="49.713262" lon="6.50762">
        <ele>183.0</ele>
        <time>2020-07-09T06:09:48Z</time>
      </trkpt>
      <trkpt lat="49.713262" lon="6.50762">
        <ele>183.0</ele>
        <time>2020-07-09T06:10:53Z</time>
      </trkpt>
      <trkpt lat="49.713262" lon="6.50762">
        <ele>183.0</ele>
        <time>2020-07-09T06:10:55Z</time>
      </trkpt>
      <trkpt lat="49.713262" lon="6.50762">
        <ele>183.0</ele>
        <time>2020-07-09T06:10:57Z</time>
      </trkpt>
      <trkpt lat="49.713262" lon="6.50762">
        <ele>183.0</ele>
        <time>2020-07-09T06:10:59Z</time>
      </trkpt>
      <trkpt lat="49.713262" lon="6.50762">
        <ele>183.0</ele>
        <time>2020-07-09T06:11:01Z</time>
      </trkpt>
      <trkpt lat="49.713262" lon="6.50762">
        <ele>183.0</ele>
        <time>2020-07-09T06:11:03Z</time>
      </trkpt>
      <trkpt lat="49.713262" lon="6.50762">
        <ele>183.0</ele>
        <time>2020-07-09T06:11:05Z</time>
      </trkpt>
      <trkpt lat="49.713262" lon="6.50762">
        <ele>183.0</ele>
        <time>2020-07-09T06:11:07Z</time>
      </trkpt>
      <trkpt lat="49.713262" lon="6.50762">
        <ele>183.0</ele>
        <time>2020-07-09T06:11:09Z</time>
      </trkpt>
      <trkpt lat="49.713262" lon="6.50762">
        <ele>183.0</ele>
        <time>2020-07-09T06:11:11Z</time>
      </trkpt>
      <trkpt lat="49.713262" lon="6.50762">
        <ele>183.0</ele>
        <time>2020-07-09T06:11:13Z</time>
      </trkpt>
      <trkpt lat="49.713262" lon="6.50762">
        <ele>183.0</ele>
        <time>2020-07-09T06:11:15Z</time>
      </trkpt>
      <trkpt lat="49.713249" lon="6.507632">
        <ele>183.0</ele>
        <time>2020-07-09T06:11:17Z</time>
      </trkpt>
      <trkpt lat="49.713227" lon="6.507661">
        <ele>184.0</ele>
        <time>2020-07-09T06:11:19Z</time>
      </trkpt>
      <trkpt lat="49.713197" lon="6.50772">
        <ele>184.0</ele>
        <time>2020-07-09T06:11:21Z</time>
      </trkpt>
      <trkpt lat="49.713157" lon="6.507787">
        <ele>184.0</ele>
        <time>2020-07-09T06:11:23Z</time>
      </trkpt>
      <trkpt lat="49.713132" lon="6.507888">
        <ele>183.0</ele>
        <time>2020-07-09T06:11:25Z</time>
      </trkpt>
      <trkpt lat="49.713118" lon="6.508009">
        <ele>183.0</ele>
        <time>2020-07-09T06:11:27Z</time>
      </trkpt>
      <trkpt lat="49.713105" lon="6.508152">
        <ele>184.0</ele>
        <time>2020-07-09T06:11:29Z</time>
      </trkpt>
      <trkpt lat="49.713079" lon="6.50829">
        <ele>184.0</ele>
        <time>2020-07-09T06:11:31Z</time>
      </trkpt>
      <trkpt lat="49.713047" lon="6.508431">
        <ele>184.0</ele>
        <time>2020-07-09T06:11:33Z</time>
      </trkpt>
      <trkpt lat="49.712996" lon="6.508572">
        <ele>184.0</ele>
        <time>2020-07-09T06:11:35Z</time>
      </trkpt>
      <trkpt lat="49.712949" lon="6.508725">
        <ele>185.0</ele>
        <time>2020-07-09T06:11:37Z</time>
      </trkpt>
      <trkpt lat="49.712895" lon="6.508884">
        <ele>184.0</ele>
        <time>2020-07-09T06:11:39Z</time>
      </trkpt>
      <trkpt lat="49.712848" lon="6.509045">
        <ele>183.0</ele>
        <time>2020-07-09T06:11:41Z</time>
      </trkpt>
      <trkpt lat="49.712796" lon="6.509203">
        <ele>183.0</ele>
        <time>2020-07-09T06:11:43Z</time>
      </trkpt>
      <trkpt lat="49.712744" lon="6.509361">
        <ele>184.0</ele>
        <time>2020-07-09T06:11:45Z</time>
      </trkpt>
      <trkpt lat="49.712677" lon="6.509499">
        <ele>184.0</ele>
        <time>2020-07-09T06:11:47Z</time>
      </trkpt>
      <trkpt lat="49.712623" lon="6.509643">
        <ele>184.0</ele>
        <time>2020-07-09T06:11:49Z</time>
      </trkpt>
      <trkpt lat="49.712574" lon="6.509782">
        <ele>185.0</ele>
        <time>2020-07-09T06:11:51Z</time>
      </trkpt>
      <trkpt lat="49.712536" lon="6.509938">
        <ele>185.0</ele>
        <time>2020-07-09T06:11:53Z</time>
      </trkpt>
      <trkpt lat="49.712485" lon="6.510093">
        <ele>185.0</ele>
        <time>2020-07-09T06:11:55Z</time>
      </trkpt>
      <trkpt lat="49.712441" lon="6.510245">
        <ele>185.0</ele>
        <time>2020-07-09T06:11:57Z</time>
      </trkpt>
      <trkpt lat="49.712394" lon="6.510394">
        <ele>185.0</ele>
        <time>2020-07-09T06:11:59Z</time>
      </trkpt>
      <trkpt lat="49.712358" lon="6.510548">
        <ele>185.0</ele>
        <time>2020-07-09T06:12:01Z</time>
      </trkpt>
      <trkpt lat="49.712325" lon="6.510699">
        <ele>185.0</ele>
        <time>2020-07-09T06:12:03Z</time>
      </trkpt>
      <trkpt lat="49.712306" lon="6.510849">
        <ele>184.0</ele>
        <time>2020-07-09T06:12:05Z</time>
      </trkpt>
      <trkpt lat="49.712296" lon="6.51101">
        <ele>184.0</ele>
        <time>2020-07-09T06:12:07Z</time>
      </trkpt>
      <trkpt lat="49.712294" lon="6.511174">
        <ele>184.0</ele>
        <time>2020-07-09T06:12:09Z</time>
      </trkpt>
      <trkpt lat="49.71228" lon="6.511324">
        <ele>184.0</ele>
        <time>2020-07-09T06:12:11Z</time>
      </trkpt>
      <trkpt lat="49.712275" lon="6.511486">
        <ele>184.0</ele>
        <time>2020-07-09T06:12:13Z</time>
      </trkpt>
      <trkpt lat="49.712278" lon="6.51164">
        <ele>184.0</ele>
        <time>2020-07-09T06:12:15Z</time>
      </trkpt>
      <trkpt lat="49.712282" lon="6.511801">
        <ele>183.0</ele>
        <time>2020-07-09T06:12:17Z</time>
      </trkpt>
      <trkpt lat="49.712272" lon="6.511956">
        <ele>183.0</ele>
        <time>2020-07-09T06:12:19Z</time>
      </trkpt>
      <trkpt lat="49.712258" lon="6.512115">
        <ele>183.0</ele>
        <time>2020-07-09T06:12:21Z</time>
      </trkpt>
      <trkpt lat="49.712263" lon="6.512289">
        <ele>183.0</ele>
        <time>2020-07-09T06:12:23Z</time>
      </trkpt>
      <trkpt lat="49.712268" lon="6.512466">
        <ele>183.0</ele>
        <time>2020-07-09T06:12:25Z</time>
      </trkpt>
      <trkpt lat="49.712273" lon="6.512645">
        <ele>183.0</ele>
        <time>2020-07-09T06:12:27Z</time>
      </trkpt>
      <trkpt lat="49.712277" lon="6.512839">
        <ele>183.0</ele>
        <time>2020-07-09T06:12:29Z</time>
      </trkpt>
      <trkpt lat="49.712277" lon="6.513027">
        <ele>183.0</ele>
        <time>2020-07-09T06:12:31Z</time>
      </trkpt>
      <trkpt lat="49.712245" lon="6.513177">
        <ele>182.0</ele>
        <time>2020-07-09T06:12:33Z</time>
      </trkpt>
      <trkpt lat="49.712149" lon="6.513262">
        <ele>182.0</ele>
        <time>2020-07-09T06:12:35Z</time>
      </trkpt>
      <trkpt lat="49.71203" lon="6.513282">
        <ele>181.0</ele>
        <time>2020-07-09T06:12:37Z</time>
      </trkpt>
      <trkpt lat="49.711906" lon="6.513322">
        <ele>181.0</ele>
        <time>2020-07-09T06:12:39Z</time>
      </trkpt>
      <trkpt lat="49.711788" lon="6.513358">
        <ele>181.0</ele>
        <time>2020-07-09T06:12:41Z</time>
      </trkpt>
      <trkpt lat="49.711691" lon="6.513395">
        <ele>182.0</ele>
        <time>2020-07-09T06:12:43Z</time>
      </trkpt>
      <trkpt lat="49.711628" lon="6.513479">
        <ele>181.0</ele>
        <time>2020-07-09T06:12:45Z</time>
      </trkpt>
      <trkpt lat="49.711627" lon="6.513622">
        <ele>181.0</ele>
        <time>2020-07-09T06:12:47Z</time>
      </trkpt>
      <trkpt lat="49.711645" lon="6.513773">
        <ele>180.0</ele>
        <time>2020-07-09T06:12:49Z</time>
      </trkpt>
      <trkpt lat="49.711658" lon="6.513927">
        <ele>180.0</ele>
        <time>2020-07-09T06:12:51Z</time>
      </trkpt>
      <trkpt lat="49.711677" lon="6.514088">
        <ele>180.0</ele>
        <time>2020-07-09T06:12:53Z</time>
      </trkpt>
      <trkpt lat="49.711697" lon="6.514251">
        <ele>180.0</ele>
        <time>2020-07-09T06:12:55Z</time>
      </trkpt>
      <trkpt lat="49.711713" lon="6.514417">
        <ele>180.0</ele>
        <time>2020-07-09T06:12:57Z</time>
      </trkpt>
      <trkpt lat="49.711733" lon="6.514592">
        <ele>180.0</ele>
        <time>2020-07-09T06:12:59Z</time>
      </trkpt>
      <trkpt lat="49.711765" lon="6.514767">
        <ele>179.0</ele>
        <time>2020-07-09T06:13:01Z</time>
      </trkpt>
      <trkpt lat="49.711793" lon="6.514928">
        <ele>178.0</ele>
        <time>2020-07-09T06:13:03Z</time>
      </trkpt>
      <trkpt lat="49.711824" lon="6.515092">
        <ele>178.0</ele>
        <time>2020-07-09T06:13:05Z</time>
      </trkpt>
      <trkpt lat="49.711854" lon="6.515255">
        <ele>178.0</ele>
        <time>2020-07-09T06:13:07Z</time>
      </trkpt>
      <trkpt lat="49.711883" lon="6.515413">
        <ele>178.0</ele>
        <time>2020-07-09T06:13:09Z</time>
      </trkpt>
      <trkpt lat="49.711918" lon="6.515565">
        <ele>178.0</ele>
        <time>2020-07-09T06:13:11Z</time>
      </trkpt>
      <trkpt lat="49.711948" lon="6.515724">
        <ele>178.0</ele>
        <time>2020-07-09T06:13:13Z</time>
      </trkpt>
      <trkpt lat="49.711978" lon="6.515893">
        <ele>178.0</ele>
        <time>2020-07-09T06:13:15Z</time>
      </trkpt>
      <trkpt lat="49.712015" lon="6.51606">
        <ele>177.0</ele>
        <time>2020-07-09T06:13:17Z</time>
      </trkpt>
      <trkpt lat="49.712053" lon="6.516237">
        <ele>177.0</ele>
        <time>2020-07-09T06:13:19Z</time>
      </trkpt>
      <trkpt lat="49.712094" lon="6.516422">
        <ele>177.0</ele>
        <time>2020-07-09T06:13:21Z</time>
      </trkpt>
      <trkpt lat="49.712148" lon="6.516671">
        <ele>177.0</ele>
        <time>2020-07-09T06:13:24Z</time>
      </trkpt>
      <trkpt lat="49.712191" lon="6.516836">
        <ele>178.0</ele>
        <time>2020-07-09T06:13:26Z</time>
      </trkpt>
      <trkpt lat="49.712229" lon="6.516999">
        <ele>178.0</ele>
        <time>2020-07-09T06:13:28Z</time>
      </trkpt>
      <trkpt lat="49.712267" lon="6.517169">
        <ele>178.0</ele>
        <time>2020-07-09T06:13:30Z</time>
      </trkpt>
      <trkpt lat="49.712303" lon="6.51733">
        <ele>178.0</ele>
        <time>2020-07-09T06:13:32Z</time>
      </trkpt>
      <trkpt lat="49.712337" lon="6.517488">
        <ele>177.0</ele>
        <time>2020-07-09T06:13:34Z</time>
      </trkpt>
      <trkpt lat="49.712375" lon="6.517647">
        <ele>177.0</ele>
        <time>2020-07-09T06:13:36Z</time>
      </trkpt>
      <trkpt lat="49.712405" lon="6.51781">
        <ele>177.0</ele>
        <time>2020-07-09T06:13:38Z</time>
      </trkpt>
      <trkpt lat="49.712449" lon="6.517974">
        <ele>178.0</ele>
        <time>2020-07-09T06:13:40Z</time>
      </trkpt>
      <trkpt lat="49.712491" lon="6.518137">
        <ele>178.0</ele>
        <time>2020-07-09T06:13:42Z</time>
      </trkpt>
      <trkpt lat="49.71253" lon="6.518298">
        <ele>178.0</ele>
        <time>2020-07-09T06:13:44Z</time>
      </trkpt>
      <trkpt lat="49.712567" lon="6.518466">
        <ele>179.0</ele>
        <time>2020-07-09T06:13:46Z</time>
      </trkpt>
      <trkpt lat="49.712605" lon="6.518637">
        <ele>178.0</ele>
        <time>2020-07-09T06:13:48Z</time>
      </trkpt>
      <trkpt lat="49.71265" lon="6.518807">
        <ele>178.0</ele>
        <time>2020-07-09T06:13:50Z</time>
      </trkpt>
      <trkpt lat="49.712683" lon="6.518979">
        <ele>178.0</ele>
        <time>2020-07-09T06:13:52Z</time>
      </trkpt>
      <trkpt lat="49.712713" lon="6.51915">
        <ele>178.0</ele>
        <time>2020-07-09T06:13:54Z</time>
      </trkpt>
      <trkpt lat="49.712751" lon="6.519318">
        <ele>178.0</ele>
        <time>2020-07-09T06:13:56Z</time>
      </trkpt>
      <trkpt lat="49.71279" lon="6.519486">
        <ele>178.0</ele>
        <time>2020-07-09T06:13:58Z</time>
      </trkpt>
      <trkpt lat="49.712831" lon="6.519656">
        <ele>178.0</ele>
        <time>2020-07-09T06:14:00Z</time>
      </trkpt>
      <trkpt lat="49.712871" lon="6.519826">
        <ele>178.0</ele>
        <time>2020-07-09T06:14:02Z</time>
      </trkpt>
      <trkpt lat="49.712907" lon="6.519993">
        <ele>178.0</ele>
        <time>2020-07-09T06:14:04Z</time>
      </trkpt>
      <trkpt lat="49.712948" lon="6.52017">
        <ele>178.0</ele>
        <time>2020-07-09T06:14:06Z</time>
      </trkpt>
      <trkpt lat="49.712989" lon="6.520339">
        <ele>178.0</ele>
        <time>2020-07-09T06:14:08Z</time>
      </trkpt>
      <trkpt lat="49.713028" lon="6.520507">
        <ele>177.0</ele>
        <time>2020-07-09T06:14:10Z</time>
      </trkpt>
      <trkpt lat="49.713065" lon="6.52068">
        <ele>177.0</ele>
        <time>2020-07-09T06:14:12Z</time>
      </trkpt>
      <trkpt lat="49.713103" lon="6.520845">
        <ele>178.0</ele>
        <time>2020-07-09T06:14:14Z</time>
      </trkpt>
      <trkpt lat="49.713144" lon="6.521013">
        <ele>177.0</ele>
        <time>2020-07-09T06:14:16Z</time>
      </trkpt>
      <trkpt lat="49.713183" lon="6.521179">
        <ele>177.0</ele>
        <time>2020-07-09T06:14:18Z</time>
      </trkpt>
      <trkpt lat="49.713223" lon="6.521343">
        <ele>177.0</ele>
        <time>2020-07-09T06:14:20Z</time>
      </trkpt>
      <trkpt lat="49.713258" lon="6.521504">
        <ele>177.0</ele>
        <time>2020-07-09T06:14:22Z</time>
      </trkpt>
      <trkpt lat="49.713296" lon="6.521673">
        <ele>177.0</ele>
        <time>2020-07-09T06:14:24Z</time>
      </trkpt>
      <trkpt lat="49.713338" lon="6.521841">
        <ele>177.0</ele>
        <time>2020-07-09T06:14:26Z</time>
      </trkpt>
      <trkpt lat="49.713368" lon="6.522009">
        <ele>176.0</ele>
        <time>2020-07-09T06:14:28Z</time>
      </trkpt>
      <trkpt lat="49.713407" lon="6.522175">
        <ele>176.0</ele>
        <time>2020-07-09T06:14:30Z</time>
      </trkpt>
      <trkpt lat="49.71345" lon="6.522331">
        <ele>177.0</ele>
        <time>2020-07-09T06:14:32Z</time>
      </trkpt>
      <trkpt lat="49.713506" lon="6.522475">
        <ele>177.0</ele>
        <time>2020-07-09T06:14:34Z</time>
      </trkpt>
      <trkpt lat="49.713582" lon="6.522588">
        <ele>178.0</ele>
        <time>2020-07-09T06:14:36Z</time>
      </trkpt>
      <trkpt lat="49.713654" lon="6.522683">
        <ele>178.0</ele>
        <time>2020-07-09T06:14:38Z</time>
      </trkpt>
      <trkpt lat="49.713718" lon="6.522779">
        <ele>178.0</ele>
        <time>2020-07-09T06:14:40Z</time>
      </trkpt>
      <trkpt lat="49.713754" lon="6.522894">
        <ele>178.0</ele>
        <time>2020-07-09T06:14:42Z</time>
      </trkpt>
      <trkpt lat="49.713782" lon="6.523013">
        <ele>178.0</ele>
        <time>2020-07-09T06:14:44Z</time>
      </trkpt>
      <trkpt lat="49.713788" lon="6.523155">
        <ele>178.0</ele>
        <time>2020-07-09T06:14:46Z</time>
      </trkpt>
      <trkpt lat="49.713767" lon="6.523317">
        <ele>178.0</ele>
        <time>2020-07-09T06:14:48Z</time>
      </trkpt>
      <trkpt lat="49.71376" lon="6.5235">
        <ele>178.0</ele>
        <time>2020-07-09T06:14:50Z</time>
      </trkpt>
      <trkpt lat="49.713795" lon="6.523673">
        <ele>178.0</ele>
        <time>2020-07-09T06:14:52Z</time>
      </trkpt>
      <trkpt lat="49.713849" lon="6.523852">
        <ele>177.0</ele>
        <time>2020-07-09T06:14:54Z</time>
      </trkpt>
      <trkpt lat="49.713903" lon="6.524029">
        <ele>178.0</ele>
        <time>2020-07-09T06:14:56Z</time>
      </trkpt>
      <trkpt lat="49.71394" lon="6.524204">
        <ele>178.0</ele>
        <time>2020-07-09T06:14:58Z</time>
      </trkpt>
      <trkpt lat="49.713968" lon="6.524383">
        <ele>178.0</ele>
        <time>2020-07-09T06:15:00Z</time>
      </trkpt>
      <trkpt lat="49.713998" lon="6.524551">
        <ele>178.0</ele>
        <time>2020-07-09T06:15:02Z</time>
      </trkpt>
      <trkpt lat="49.714027" lon="6.524716">
        <ele>178.0</ele>
        <time>2020-07-09T06:15:04Z</time>
      </trkpt>
      <trkpt lat="49.714049" lon="6.524883">
        <ele>178.0</ele>
        <time>2020-07-09T06:15:06Z</time>
      </trkpt>
      <trkpt lat="49.71406" lon="6.525053">
        <ele>178.0</ele>
        <time>2020-07-09T06:15:08Z</time>
      </trkpt>
      <trkpt lat="49.714072" lon="6.525221">
        <ele>178.0</ele>
        <time>2020-07-09T06:15:10Z</time>
      </trkpt>
      <trkpt lat="49.714091" lon="6.525396">
        <ele>177.0</ele>
        <time>2020-07-09T06:15:12Z</time>
      </trkpt>
      <trkpt lat="49.714121" lon="6.525562">
        <ele>177.0</ele>
        <time>2020-07-09T06:15:14Z</time>
      </trkpt>
      <trkpt lat="49.714149" lon="6.525731">
        <ele>176.0</ele>
        <time>2020-07-09T06:15:16Z</time>
      </trkpt>
      <trkpt lat="49.714168" lon="6.525897">
        <ele>177.0</ele>
        <time>2020-07-09T06:15:18Z</time>
      </trkpt>
      <trkpt lat="49.714182" lon="6.526067">
        <ele>177.0</ele>
        <time>2020-07-09T06:15:20Z</time>
      </trkpt>
      <trkpt lat="49.714203" lon="6.526233">
        <ele>177.0</ele>
        <time>2020-07-09T06:15:22Z</time>
      </trkpt>
      <trkpt lat="49.714226" lon="6.526398">
        <ele>177.0</ele>
        <time>2020-07-09T06:15:24Z</time>
      </trkpt>
      <trkpt lat="49.714248" lon="6.52657">
        <ele>177.0</ele>
        <time>2020-07-09T06:15:26Z</time>
      </trkpt>
      <trkpt lat="49.714266" lon="6.526744">
        <ele>177.0</ele>
        <time>2020-07-09T06:15:28Z</time>
      </trkpt>
      <trkpt lat="49.714287" lon="6.526912">
        <ele>177.0</ele>
        <time>2020-07-09T06:15:30Z</time>
      </trkpt>
      <trkpt lat="49.714308" lon="6.527083">
        <ele>176.0</ele>
        <time>2020-07-09T06:15:32Z</time>
      </trkpt>
      <trkpt lat="49.714327" lon="6.527258">
        <ele>176.0</ele>
        <time>2020-07-09T06:15:34Z</time>
      </trkpt>
      <trkpt lat="49.714346" lon="6.527426">
        <ele>177.0</ele>
        <time>2020-07-09T06:15:36Z</time>
      </trkpt>
      <trkpt lat="49.714364" lon="6.527582">
        <ele>177.0</ele>
        <time>2020-07-09T06:15:38Z</time>
      </trkpt>
      <trkpt lat="49.714383" lon="6.527737">
        <ele>177.0</ele>
        <time>2020-07-09T06:15:40Z</time>
      </trkpt>
      <trkpt lat="49.714405" lon="6.527901">
        <ele>177.0</ele>
        <time>2020-07-09T06:15:42Z</time>
      </trkpt>
      <trkpt lat="49.714416" lon="6.528073">
        <ele>177.0</ele>
        <time>2020-07-09T06:15:44Z</time>
      </trkpt>
      <trkpt lat="49.714431" lon="6.528226">
        <ele>177.0</ele>
        <time>2020-07-09T06:15:46Z</time>
      </trkpt>
      <trkpt lat="49.714447" lon="6.528385">
        <ele>177.0</ele>
        <time>2020-07-09T06:15:48Z</time>
      </trkpt>
      <trkpt lat="49.714458" lon="6.528553">
        <ele>177.0</ele>
        <time>2020-07-09T06:15:50Z</time>
      </trkpt>
      <trkpt lat="49.71447" lon="6.528725">
        <ele>178.0</ele>
        <time>2020-07-09T06:15:52Z</time>
      </trkpt>
      <trkpt lat="49.714477" lon="6.528903">
        <ele>178.0</ele>
        <time>2020-07-09T06:15:54Z</time>
      </trkpt>
      <trkpt lat="49.714489" lon="6.52907">
        <ele>178.0</ele>
        <time>2020-07-09T06:15:56Z</time>
      </trkpt>
      <trkpt lat="49.714496" lon="6.529233">
        <ele>177.0</ele>
        <time>2020-07-09T06:15:58Z</time>
      </trkpt>
      <trkpt lat="49.714508" lon="6.529398">
        <ele>177.0</ele>
        <time>2020-07-09T06:16:00Z</time>
      </trkpt>
      <trkpt lat="49.714521" lon="6.529568">
        <ele>177.0</ele>
        <time>2020-07-09T06:16:02Z</time>
      </trkpt>
      <trkpt lat="49.714536" lon="6.529739">
        <ele>177.0</ele>
        <time>2020-07-09T06:16:04Z</time>
      </trkpt>
      <trkpt lat="49.71455" lon="6.529901">
        <ele>177.0</ele>
        <time>2020-07-09T06:16:06Z</time>
      </trkpt>
      <trkpt lat="49.714557" lon="6.530073">
        <ele>177.0</ele>
        <time>2020-07-09T06:16:08Z</time>
      </trkpt>
      <trkpt lat="49.714577" lon="6.530232">
        <ele>177.0</ele>
        <time>2020-07-09T06:16:10Z</time>
      </trkpt>
      <trkpt lat="49.714589" lon="6.530388">
        <ele>177.0</ele>
        <time>2020-07-09T06:16:12Z</time>
      </trkpt>
      <trkpt lat="49.714602" lon="6.530554">
        <ele>177.0</ele>
        <time>2020-07-09T06:16:14Z</time>
      </trkpt>
      <trkpt lat="49.714606" lon="6.530773">
        <ele>178.0</ele>
        <time>2020-07-09T06:16:17Z</time>
      </trkpt>
      <trkpt lat="49.714599" lon="6.530926">
        <ele>178.0</ele>
        <time>2020-07-09T06:16:19Z</time>
      </trkpt>
      <trkpt lat="49.714578" lon="6.531087">
        <ele>178.0</ele>
        <time>2020-07-09T06:16:21Z</time>
      </trkpt>
      <trkpt lat="49.714555" lon="6.531259">
        <ele>178.0</ele>
        <time>2020-07-09T06:16:23Z</time>
      </trkpt>
      <trkpt lat="49.714525" lon="6.531444">
        <ele>178.0</ele>
        <time>2020-07-09T06:16:25Z</time>
      </trkpt>
      <trkpt lat="49.714497" lon="6.531629">
        <ele>178.0</ele>
        <time>2020-07-09T06:16:27Z</time>
      </trkpt>
      <trkpt lat="49.714459" lon="6.531814">
        <ele>178.0</ele>
        <time>2020-07-09T06:16:29Z</time>
      </trkpt>
      <trkpt lat="49.71442" lon="6.531984">
        <ele>179.0</ele>
        <time>2020-07-09T06:16:31Z</time>
      </trkpt>
      <trkpt lat="49.714362" lon="6.532146">
        <ele>179.0</ele>
        <time>2020-07-09T06:16:33Z</time>
      </trkpt>
      <trkpt lat="49.714297" lon="6.532302">
        <ele>178.0</ele>
        <time>2020-07-09T06:16:35Z</time>
      </trkpt>
      <trkpt lat="49.714217" lon="6.532448">
        <ele>177.0</ele>
        <time>2020-07-09T06:16:37Z</time>
      </trkpt>
      <trkpt lat="49.714139" lon="6.532585">
        <ele>177.0</ele>
        <time>2020-07-09T06:16:39Z</time>
      </trkpt>
      <trkpt lat="49.714063" lon="6.532732">
        <ele>177.0</ele>
        <time>2020-07-09T06:16:41Z</time>
      </trkpt>
      <trkpt lat="49.713987" lon="6.53288">
        <ele>177.0</ele>
        <time>2020-07-09T06:16:43Z</time>
      </trkpt>
      <trkpt lat="49.713925" lon="6.533029">
        <ele>177.0</ele>
        <time>2020-07-09T06:16:45Z</time>
      </trkpt>
      <trkpt lat="49.713861" lon="6.53318">
        <ele>178.0</ele>
        <time>2020-07-09T06:16:47Z</time>
      </trkpt>
      <trkpt lat="49.713797" lon="6.533327">
        <ele>177.0</ele>
        <time>2020-07-09T06:16:49Z</time>
      </trkpt>
      <trkpt lat="49.71374" lon="6.533473">
        <ele>177.0</ele>
        <time>2020-07-09T06:16:51Z</time>
      </trkpt>
      <trkpt lat="49.713696" lon="6.533634">
        <ele>177.0</ele>
        <time>2020-07-09T06:16:53Z</time>
      </trkpt>
      <trkpt lat="49.713649" lon="6.533797">
        <ele>178.0</ele>
        <time>2020-07-09T06:16:55Z</time>
      </trkpt>
      <trkpt lat="49.713603" lon="6.533958">
        <ele>178.0</ele>
        <time>2020-07-09T06:16:57Z</time>
      </trkpt>
      <trkpt lat="49.713583" lon="6.534044">
        <ele>177.0</ele>
        <time>2020-07-09T06:16:59Z</time>
      </trkpt>
      <trkpt lat="49.713545" lon="6.534158">
        <ele>176.0</ele>
        <time>2020-07-09T06:17:01Z</time>
      </trkpt>
      <trkpt lat="49.71348" lon="6.534379">
        <ele>176.0</ele>
        <time>2020-07-09T06:17:03Z</time>
      </trkpt>
      <trkpt lat="49.713433" lon="6.53458">
        <ele>176.0</ele>
        <time>2020-07-09T06:17:05Z</time>
      </trkpt>
      <trkpt lat="49.713386" lon="6.534767">
        <ele>176.0</ele>
        <time>2020-07-09T06:17:07Z</time>
      </trkpt>
      <trkpt lat="49.713339" lon="6.534947">
        <ele>177.0</ele>
        <time>2020-07-09T06:17:09Z</time>
      </trkpt>
      <trkpt lat="49.713305" lon="6.535106">
        <ele>177.0</ele>
        <time>2020-07-09T06:17:11Z</time>
      </trkpt>
      <trkpt lat="49.713261" lon="6.535272">
        <ele>177.0</ele>
        <time>2020-07-09T06:17:13Z</time>
      </trkpt>
      <trkpt lat="49.713219" lon="6.535424">
        <ele>177.0</ele>
        <time>2020-07-09T06:17:15Z</time>
      </trkpt>
      <trkpt lat="49.713179" lon="6.535586">
        <ele>176.0</ele>
        <time>2020-07-09T06:17:17Z</time>
      </trkpt>
      <trkpt lat="49.713138" lon="6.535747">
        <ele>176.0</ele>
        <time>2020-07-09T06:17:19Z</time>
      </trkpt>
      <trkpt lat="49.713089" lon="6.535908">
        <ele>176.0</ele>
        <time>2020-07-09T06:17:21Z</time>
      </trkpt>
      <trkpt lat="49.71304" lon="6.536073">
        <ele>176.0</ele>
        <time>2020-07-09T06:17:23Z</time>
      </trkpt>
      <trkpt lat="49.712988" lon="6.536237">
        <ele>176.0</ele>
        <time>2020-07-09T06:17:25Z</time>
      </trkpt>
      <trkpt lat="49.712932" lon="6.536398">
        <ele>176.0</ele>
        <time>2020-07-09T06:17:27Z</time>
      </trkpt>
      <trkpt lat="49.712873" lon="6.536547">
        <ele>176.0</ele>
        <time>2020-07-09T06:17:29Z</time>
      </trkpt>
      <trkpt lat="49.712811" lon="6.536703">
        <ele>176.0</ele>
        <time>2020-07-09T06:17:31Z</time>
      </trkpt>
      <trkpt lat="49.712754" lon="6.536849">
        <ele>177.0</ele>
        <time>2020-07-09T06:17:33Z</time>
      </trkpt>
      <trkpt lat="49.712698" lon="6.536987">
        <ele>177.0</ele>
        <time>2020-07-09T06:17:35Z</time>
      </trkpt>
      <trkpt lat="49.712641" lon="6.537141">
        <ele>176.0</ele>
        <time>2020-07-09T06:17:37Z</time>
      </trkpt>
      <trkpt lat="49.71258" lon="6.537288">
        <ele>176.0</ele>
        <time>2020-07-09T06:17:39Z</time>
      </trkpt>
      <trkpt lat="49.712517" lon="6.537432">
        <ele>177.0</ele>
        <time>2020-07-09T06:17:41Z</time>
      </trkpt>
      <trkpt lat="49.71245" lon="6.537573">
        <ele>177.0</ele>
        <time>2020-07-09T06:17:43Z</time>
      </trkpt>
      <trkpt lat="49.712385" lon="6.537716">
        <ele>178.0</ele>
        <time>2020-07-09T06:17:45Z</time>
      </trkpt>
      <trkpt lat="49.712318" lon="6.537867">
        <ele>179.0</ele>
        <time>2020-07-09T06:17:47Z</time>
      </trkpt>
      <trkpt lat="49.712253" lon="6.538012">
        <ele>179.0</ele>
        <time>2020-07-09T06:17:49Z</time>
      </trkpt>
      <trkpt lat="49.712178" lon="6.538165">
        <ele>179.0</ele>
        <time>2020-07-09T06:17:51Z</time>
      </trkpt>
      <trkpt lat="49.712107" lon="6.538308">
        <ele>179.0</ele>
        <time>2020-07-09T06:17:53Z</time>
      </trkpt>
      <trkpt lat="49.712044" lon="6.538446">
        <ele>179.0</ele>
        <time>2020-07-09T06:17:55Z</time>
      </trkpt>
      <trkpt lat="49.711978" lon="6.53858">
        <ele>180.0</ele>
        <time>2020-07-09T06:17:57Z</time>
      </trkpt>
      <trkpt lat="49.711909" lon="6.538721">
        <ele>180.0</ele>
        <time>2020-07-09T06:17:59Z</time>
      </trkpt>
      <trkpt lat="49.711837" lon="6.538855">
        <ele>180.0</ele>
        <time>2020-07-09T06:18:01Z</time>
      </trkpt>
      <trkpt lat="49.711764" lon="6.538998">
        <ele>180.0</ele>
        <time>2020-07-09T06:18:03Z</time>
      </trkpt>
      <trkpt lat="49.7117" lon="6.539131">
        <ele>180.0</ele>
        <time>2020-07-09T06:18:05Z</time>
      </trkpt>
      <trkpt lat="49.711626" lon="6.539264">
        <ele>179.0</ele>
        <time>2020-07-09T06:18:07Z</time>
      </trkpt>
      <trkpt lat="49.711548" lon="6.539402">
        <ele>179.0</ele>
        <time>2020-07-09T06:18:09Z</time>
      </trkpt>
      <trkpt lat="49.71147" lon="6.539544">
        <ele>179.0</ele>
        <time>2020-07-09T06:18:11Z</time>
      </trkpt>
      <trkpt lat="49.711393" lon="6.539672">
        <ele>179.0</ele>
        <time>2020-07-09T06:18:13Z</time>
      </trkpt>
      <trkpt lat="49.711318" lon="6.539804">
        <ele>179.0</ele>
        <time>2020-07-09T06:18:15Z</time>
      </trkpt>
      <trkpt lat="49.711251" lon="6.539938">
        <ele>180.0</ele>
        <time>2020-07-09T06:18:17Z</time>
      </trkpt>
      <trkpt lat="49.711184" lon="6.540077">
        <ele>180.0</ele>
        <time>2020-07-09T06:18:19Z</time>
      </trkpt>
      <trkpt lat="49.711121" lon="6.540228">
        <ele>181.0</ele>
        <time>2020-07-09T06:18:21Z</time>
      </trkpt>
      <trkpt lat="49.711058" lon="6.54038">
        <ele>180.0</ele>
        <time>2020-07-09T06:18:23Z</time>
      </trkpt>
      <trkpt lat="49.710995" lon="6.540526">
        <ele>180.0</ele>
        <time>2020-07-09T06:18:25Z</time>
      </trkpt>
      <trkpt lat="49.710934" lon="6.540669">
        <ele>180.0</ele>
        <time>2020-07-09T06:18:27Z</time>
      </trkpt>
      <trkpt lat="49.710879" lon="6.540815">
        <ele>179.0</ele>
        <time>2020-07-09T06:18:29Z</time>
      </trkpt>
      <trkpt lat="49.710824" lon="6.540955">
        <ele>179.0</ele>
        <time>2020-07-09T06:18:31Z</time>
      </trkpt>
      <trkpt lat="49.710765" lon="6.541104">
        <ele>179.0</ele>
        <time>2020-07-09T06:18:33Z</time>
      </trkpt>
      <trkpt lat="49.7107" lon="6.541244">
        <ele>179.0</ele>
        <time>2020-07-09T06:18:35Z</time>
      </trkpt>
      <trkpt lat="49.710634" lon="6.5414">
        <ele>178.0</ele>
        <time>2020-07-09T06:18:37Z</time>
      </trkpt>
      <trkpt lat="49.710575" lon="6.541543">
        <ele>179.0</ele>
        <time>2020-07-09T06:18:39Z</time>
      </trkpt>
      <trkpt lat="49.710524" lon="6.541678">
        <ele>178.0</ele>
        <time>2020-07-09T06:18:41Z</time>
      </trkpt>
      <trkpt lat="49.710462" lon="6.541818">
        <ele>178.0</ele>
        <time>2020-07-09T06:18:43Z</time>
      </trkpt>
      <trkpt lat="49.7104" lon="6.541975">
        <ele>178.0</ele>
        <time>2020-07-09T06:18:45Z</time>
      </trkpt>
      <trkpt lat="49.710339" lon="6.542126">
        <ele>178.0</ele>
        <time>2020-07-09T06:18:47Z</time>
      </trkpt>
      <trkpt lat="49.710278" lon="6.542271">
        <ele>178.0</ele>
        <time>2020-07-09T06:18:49Z</time>
      </trkpt>
      <trkpt lat="49.710217" lon="6.542418">
        <ele>177.0</ele>
        <time>2020-07-09T06:18:51Z</time>
      </trkpt>
      <trkpt lat="49.710159" lon="6.542576">
        <ele>177.0</ele>
        <time>2020-07-09T06:18:53Z</time>
      </trkpt>
      <trkpt lat="49.710094" lon="6.542708">
        <ele>178.0</ele>
        <time>2020-07-09T06:18:55Z</time>
      </trkpt>
      <trkpt lat="49.710028" lon="6.542854">
        <ele>178.0</ele>
        <time>2020-07-09T06:18:57Z</time>
      </trkpt>
      <trkpt lat="49.709962" lon="6.543002">
        <ele>178.0</ele>
        <time>2020-07-09T06:18:59Z</time>
      </trkpt>
      <trkpt lat="49.709891" lon="6.543144">
        <ele>179.0</ele>
        <time>2020-07-09T06:19:01Z</time>
      </trkpt>
      <trkpt lat="49.709826" lon="6.543297">
        <ele>179.0</ele>
        <time>2020-07-09T06:19:03Z</time>
      </trkpt>
      <trkpt lat="49.709766" lon="6.543454">
        <ele>179.0</ele>
        <time>2020-07-09T06:19:05Z</time>
      </trkpt>
      <trkpt lat="49.709698" lon="6.543606">
        <ele>178.0</ele>
        <time>2020-07-09T06:19:07Z</time>
      </trkpt>
      <trkpt lat="49.709641" lon="6.543755">
        <ele>178.0</ele>
        <time>2020-07-09T06:19:09Z</time>
      </trkpt>
      <trkpt lat="49.709582" lon="6.543909">
        <ele>178.0</ele>
        <time>2020-07-09T06:19:11Z</time>
      </trkpt>
      <trkpt lat="49.709536" lon="6.54406">
        <ele>178.0</ele>
        <time>2020-07-09T06:19:13Z</time>
      </trkpt>
      <trkpt lat="49.709477" lon="6.544208">
        <ele>179.0</ele>
        <time>2020-07-09T06:19:15Z</time>
      </trkpt>
      <trkpt lat="49.709418" lon="6.544361">
        <ele>177.0</ele>
        <time>2020-07-09T06:19:17Z</time>
      </trkpt>
      <trkpt lat="49.709359" lon="6.544507">
        <ele>177.0</ele>
        <time>2020-07-09T06:19:19Z</time>
      </trkpt>
      <trkpt lat="49.709284" lon="6.544713">
        <ele>177.0</ele>
        <time>2020-07-09T06:19:22Z</time>
      </trkpt>
      <trkpt lat="49.709239" lon="6.544859">
        <ele>177.0</ele>
        <time>2020-07-09T06:19:24Z</time>
      </trkpt>
      <trkpt lat="49.7092" lon="6.545006">
        <ele>177.0</ele>
        <time>2020-07-09T06:19:26Z</time>
      </trkpt>
      <trkpt lat="49.709142" lon="6.545144">
        <ele>177.0</ele>
        <time>2020-07-09T06:19:28Z</time>
      </trkpt>
      <trkpt lat="49.709077" lon="6.54528">
        <ele>178.0</ele>
        <time>2020-07-09T06:19:30Z</time>
      </trkpt>
      <trkpt lat="49.709008" lon="6.545425">
        <ele>179.0</ele>
        <time>2020-07-09T06:19:32Z</time>
      </trkpt>
      <trkpt lat="49.708946" lon="6.545566">
        <ele>179.0</ele>
        <time>2020-07-09T06:19:34Z</time>
      </trkpt>
      <trkpt lat="49.708875" lon="6.545719">
        <ele>179.0</ele>
        <time>2020-07-09T06:19:36Z</time>
      </trkpt>
      <trkpt lat="49.708803" lon="6.545869">
        <ele>178.0</ele>
        <time>2020-07-09T06:19:38Z</time>
      </trkpt>
      <trkpt lat="49.708725" lon="6.546014">
        <ele>179.0</ele>
        <time>2020-07-09T06:19:40Z</time>
      </trkpt>
      <trkpt lat="49.708656" lon="6.54616">
        <ele>179.0</ele>
        <time>2020-07-09T06:19:42Z</time>
      </trkpt>
      <trkpt lat="49.708591" lon="6.546307">
        <ele>179.0</ele>
        <time>2020-07-09T06:19:44Z</time>
      </trkpt>
      <trkpt lat="49.708522" lon="6.546457">
        <ele>179.0</ele>
        <time>2020-07-09T06:19:46Z</time>
      </trkpt>
      <trkpt lat="49.708454" lon="6.546606">
        <ele>180.0</ele>
        <time>2020-07-09T06:19:48Z</time>
      </trkpt>
      <trkpt lat="49.708385" lon="6.546745">
        <ele>180.0</ele>
        <time>2020-07-09T06:19:50Z</time>
      </trkpt>
      <trkpt lat="49.708312" lon="6.546884">
        <ele>180.0</ele>
        <time>2020-07-09T06:19:52Z</time>
      </trkpt>
      <trkpt lat="49.708236" lon="6.547018">
        <ele>180.0</ele>
        <time>2020-07-09T06:19:54Z</time>
      </trkpt>
      <trkpt lat="49.708164" lon="6.547151">
        <ele>180.0</ele>
        <time>2020-07-09T06:19:56Z</time>
      </trkpt>
      <trkpt lat="49.708091" lon="6.547292">
        <ele>180.0</ele>
        <time>2020-07-09T06:19:58Z</time>
      </trkpt>
      <trkpt lat="49.70802" lon="6.547438">
        <ele>180.0</ele>
        <time>2020-07-09T06:20:00Z</time>
      </trkpt>
      <trkpt lat="49.707957" lon="6.547579">
        <ele>180.0</ele>
        <time>2020-07-09T06:20:02Z</time>
      </trkpt>
      <trkpt lat="49.707885" lon="6.547712">
        <ele>180.0</ele>
        <time>2020-07-09T06:20:04Z</time>
      </trkpt>
      <trkpt lat="49.707825" lon="6.54785">
        <ele>180.0</ele>
        <time>2020-07-09T06:20:06Z</time>
      </trkpt>
      <trkpt lat="49.707765" lon="6.547993">
        <ele>180.0</ele>
        <time>2020-07-09T06:20:08Z</time>
      </trkpt>
      <trkpt lat="49.707712" lon="6.548135">
        <ele>180.0</ele>
        <time>2020-07-09T06:20:10Z</time>
      </trkpt>
      <trkpt lat="49.707645" lon="6.548288">
        <ele>180.0</ele>
        <time>2020-07-09T06:20:12Z</time>
      </trkpt>
      <trkpt lat="49.707581" lon="6.548429">
        <ele>179.0</ele>
        <time>2020-07-09T06:20:14Z</time>
      </trkpt>
      <trkpt lat="49.707512" lon="6.54857">
        <ele>179.0</ele>
        <time>2020-07-09T06:20:16Z</time>
      </trkpt>
      <trkpt lat="49.70745" lon="6.548721">
        <ele>179.0</ele>
        <time>2020-07-09T06:20:18Z</time>
      </trkpt>
      <trkpt lat="49.707388" lon="6.548872">
        <ele>179.0</ele>
        <time>2020-07-09T06:20:20Z</time>
      </trkpt>
      <trkpt lat="49.707314" lon="6.549003">
        <ele>178.0</ele>
        <time>2020-07-09T06:20:22Z</time>
      </trkpt>
      <trkpt lat="49.707244" lon="6.549143">
        <ele>178.0</ele>
        <time>2020-07-09T06:20:24Z</time>
      </trkpt>
      <trkpt lat="49.707176" lon="6.549284">
        <ele>178.0</ele>
        <time>2020-07-09T06:20:26Z</time>
      </trkpt>
      <trkpt lat="49.707116" lon="6.54942">
        <ele>179.0</ele>
        <time>2020-07-09T06:20:28Z</time>
      </trkpt>
      <trkpt lat="49.707053" lon="6.549556">
        <ele>179.0</ele>
        <time>2020-07-09T06:20:30Z</time>
      </trkpt>
      <trkpt lat="49.706992" lon="6.549696">
        <ele>179.0</ele>
        <time>2020-07-09T06:20:32Z</time>
      </trkpt>
      <trkpt lat="49.706931" lon="6.549833">
        <ele>179.0</ele>
        <time>2020-07-09T06:20:34Z</time>
      </trkpt>
      <trkpt lat="49.706865" lon="6.549974">
        <ele>179.0</ele>
        <time>2020-07-09T06:20:36Z</time>
      </trkpt>
      <trkpt lat="49.706795" lon="6.550113">
        <ele>179.0</ele>
        <time>2020-07-09T06:20:38Z</time>
      </trkpt>
      <trkpt lat="49.706729" lon="6.550249">
        <ele>178.0</ele>
        <time>2020-07-09T06:20:40Z</time>
      </trkpt>
      <trkpt lat="49.70666" lon="6.550373">
        <ele>178.0</ele>
        <time>2020-07-09T06:20:42Z</time>
      </trkpt>
      <trkpt lat="49.706585" lon="6.550499">
        <ele>178.0</ele>
        <time>2020-07-09T06:20:44Z</time>
      </trkpt>
      <trkpt lat="49.706512" lon="6.550636">
        <ele>178.0</ele>
        <time>2020-07-09T06:20:46Z</time>
      </trkpt>
      <trkpt lat="49.706443" lon="6.55077">
        <ele>178.0</ele>
        <time>2020-07-09T06:20:48Z</time>
      </trkpt>
      <trkpt lat="49.706367" lon="6.550905">
        <ele>178.0</ele>
        <time>2020-07-09T06:20:50Z</time>
      </trkpt>
      <trkpt lat="49.706295" lon="6.551028">
        <ele>178.0</ele>
        <time>2020-07-09T06:20:52Z</time>
      </trkpt>
      <trkpt lat="49.706218" lon="6.551158">
        <ele>178.0</ele>
        <time>2020-07-09T06:20:54Z</time>
      </trkpt>
      <trkpt lat="49.706144" lon="6.55129">
        <ele>178.0</ele>
        <time>2020-07-09T06:20:56Z</time>
      </trkpt>
      <trkpt lat="49.706072" lon="6.551416">
        <ele>178.0</ele>
        <time>2020-07-09T06:20:58Z</time>
      </trkpt>
      <trkpt lat="49.705998" lon="6.55154">
        <ele>178.0</ele>
        <time>2020-07-09T06:21:00Z</time>
      </trkpt>
      <trkpt lat="49.70593" lon="6.55167">
        <ele>178.0</ele>
        <time>2020-07-09T06:21:02Z</time>
      </trkpt>
      <trkpt lat="49.705861" lon="6.55179">
        <ele>178.0</ele>
        <time>2020-07-09T06:21:04Z</time>
      </trkpt>
      <trkpt lat="49.705788" lon="6.551922">
        <ele>178.0</ele>
        <time>2020-07-09T06:21:06Z</time>
      </trkpt>
      <trkpt lat="49.705707" lon="6.552044">
        <ele>178.0</ele>
        <time>2020-07-09T06:21:08Z</time>
      </trkpt>
      <trkpt lat="49.705634" lon="6.552175">
        <ele>178.0</ele>
        <time>2020-07-09T06:21:10Z</time>
      </trkpt>
      <trkpt lat="49.70556" lon="6.552302">
        <ele>178.0</ele>
        <time>2020-07-09T06:21:12Z</time>
      </trkpt>
      <trkpt lat="49.705486" lon="6.55243">
        <ele>178.0</ele>
        <time>2020-07-09T06:21:14Z</time>
      </trkpt>
      <trkpt lat="49.705414" lon="6.552562">
        <ele>178.0</ele>
        <time>2020-07-09T06:21:16Z</time>
      </trkpt>
      <trkpt lat="49.705336" lon="6.552687">
        <ele>178.0</ele>
        <time>2020-07-09T06:21:18Z</time>
      </trkpt>
      <trkpt lat="49.705262" lon="6.552824">
        <ele>178.0</ele>
        <time>2020-07-09T06:21:20Z</time>
      </trkpt>
      <trkpt lat="49.705194" lon="6.552955">
        <ele>178.0</ele>
        <time>2020-07-09T06:21:22Z</time>
      </trkpt>
      <trkpt lat="49.705122" lon="6.553087">
        <ele>178.0</ele>
        <time>2020-07-09T06:21:24Z</time>
      </trkpt>
      <trkpt lat="49.705054" lon="6.553224">
        <ele>178.0</ele>
        <time>2020-07-09T06:21:26Z</time>
      </trkpt>
      <trkpt lat="49.704983" lon="6.553353">
        <ele>179.0</ele>
        <time>2020-07-09T06:21:28Z</time>
      </trkpt>
      <trkpt lat="49.704914" lon="6.553468">
        <ele>179.0</ele>
        <time>2020-07-09T06:21:30Z</time>
      </trkpt>
      <trkpt lat="49.704834" lon="6.553599">
        <ele>179.0</ele>
        <time>2020-07-09T06:21:32Z</time>
      </trkpt>
      <trkpt lat="49.704758" lon="6.553729">
        <ele>178.0</ele>
        <time>2020-07-09T06:21:34Z</time>
      </trkpt>
      <trkpt lat="49.704683" lon="6.553851">
        <ele>178.0</ele>
        <time>2020-07-09T06:21:36Z</time>
      </trkpt>
      <trkpt lat="49.704606" lon="6.55398">
        <ele>179.0</ele>
        <time>2020-07-09T06:21:38Z</time>
      </trkpt>
      <trkpt lat="49.704535" lon="6.554094">
        <ele>178.0</ele>
        <time>2020-07-09T06:21:40Z</time>
      </trkpt>
      <trkpt lat="49.704467" lon="6.554222">
        <ele>178.0</ele>
        <time>2020-07-09T06:21:42Z</time>
      </trkpt>
      <trkpt lat="49.704397" lon="6.55435">
        <ele>178.0</ele>
        <time>2020-07-09T06:21:44Z</time>
      </trkpt>
      <trkpt lat="49.704326" lon="6.554488">
        <ele>178.0</ele>
        <time>2020-07-09T06:21:46Z</time>
      </trkpt>
      <trkpt lat="49.704249" lon="6.554627">
        <ele>178.0</ele>
        <time>2020-07-09T06:21:48Z</time>
      </trkpt>
      <trkpt lat="49.704173" lon="6.554767">
        <ele>178.0</ele>
        <time>2020-07-09T06:21:50Z</time>
      </trkpt>
      <trkpt lat="49.704098" lon="6.554893">
        <ele>178.0</ele>
        <time>2020-07-09T06:21:52Z</time>
      </trkpt>
      <trkpt lat="49.704031" lon="6.555024">
        <ele>178.0</ele>
        <time>2020-07-09T06:21:54Z</time>
      </trkpt>
      <trkpt lat="49.703967" lon="6.55516">
        <ele>177.0</ele>
        <time>2020-07-09T06:21:56Z</time>
      </trkpt>
      <trkpt lat="49.703898" lon="6.555284">
        <ele>178.0</ele>
        <time>2020-07-09T06:21:58Z</time>
      </trkpt>
      <trkpt lat="49.703825" lon="6.555415">
        <ele>178.0</ele>
        <time>2020-07-09T06:22:00Z</time>
      </trkpt>
      <trkpt lat="49.703761" lon="6.555554">
        <ele>178.0</ele>
        <time>2020-07-09T06:22:02Z</time>
      </trkpt>
      <trkpt lat="49.703692" lon="6.555689">
        <ele>178.0</ele>
        <time>2020-07-09T06:22:04Z</time>
      </trkpt>
      <trkpt lat="49.703631" lon="6.555834">
        <ele>178.0</ele>
        <time>2020-07-09T06:22:06Z</time>
      </trkpt>
      <trkpt lat="49.703575" lon="6.555983">
        <ele>178.0</ele>
        <time>2020-07-09T06:22:08Z</time>
      </trkpt>
      <trkpt lat="49.70352" lon="6.556131">
        <ele>178.0</ele>
        <time>2020-07-09T06:22:10Z</time>
      </trkpt>
      <trkpt lat="49.703464" lon="6.556281">
        <ele>177.0</ele>
        <time>2020-07-09T06:22:12Z</time>
      </trkpt>
      <trkpt lat="49.703408" lon="6.556434">
        <ele>178.0</ele>
        <time>2020-07-09T06:22:14Z</time>
      </trkpt>
      <trkpt lat="49.703323" lon="6.556665">
        <ele>178.0</ele>
        <time>2020-07-09T06:22:17Z</time>
      </trkpt>
      <trkpt lat="49.703288" lon="6.556734">
        <ele>178.0</ele>
        <time>2020-07-09T06:22:18Z</time>
      </trkpt>
      <trkpt lat="49.7032" lon="6.556947">
        <ele>177.0</ele>
        <time>2020-07-09T06:22:21Z</time>
      </trkpt>
      <trkpt lat="49.703148" lon="6.557086">
        <ele>177.0</ele>
        <time>2020-07-09T06:22:23Z</time>
      </trkpt>
      <trkpt lat="49.703084" lon="6.557234">
        <ele>176.0</ele>
        <time>2020-07-09T06:22:25Z</time>
      </trkpt>
      <trkpt lat="49.703023" lon="6.557388">
        <ele>176.0</ele>
        <time>2020-07-09T06:22:27Z</time>
      </trkpt>
      <trkpt lat="49.702963" lon="6.557533">
        <ele>177.0</ele>
        <time>2020-07-09T06:22:29Z</time>
      </trkpt>
      <trkpt lat="49.702905" lon="6.557683">
        <ele>177.0</ele>
        <time>2020-07-09T06:22:31Z</time>
      </trkpt>
      <trkpt lat="49.702847" lon="6.557842">
        <ele>176.0</ele>
        <time>2020-07-09T06:22:33Z</time>
      </trkpt>
      <trkpt lat="49.702781" lon="6.558001">
        <ele>177.0</ele>
        <time>2020-07-09T06:22:35Z</time>
      </trkpt>
      <trkpt lat="49.702729" lon="6.558154">
        <ele>177.0</ele>
        <time>2020-07-09T06:22:37Z</time>
      </trkpt>
      <trkpt lat="49.702675" lon="6.558305">
        <ele>177.0</ele>
        <time>2020-07-09T06:22:39Z</time>
      </trkpt>
      <trkpt lat="49.702622" lon="6.558454">
        <ele>178.0</ele>
        <time>2020-07-09T06:22:41Z</time>
      </trkpt>
      <trkpt lat="49.702574" lon="6.558609">
        <ele>178.0</ele>
        <time>2020-07-09T06:22:43Z</time>
      </trkpt>
      <trkpt lat="49.70253" lon="6.558763">
        <ele>178.0</ele>
        <time>2020-07-09T06:22:45Z</time>
      </trkpt>
      <trkpt lat="49.702485" lon="6.558907">
        <ele>178.0</ele>
        <time>2020-07-09T06:22:47Z</time>
      </trkpt>
      <trkpt lat="49.702437" lon="6.559063">
        <ele>177.0</ele>
        <time>2020-07-09T06:22:49Z</time>
      </trkpt>
      <trkpt lat="49.702402" lon="6.559219">
        <ele>178.0</ele>
        <time>2020-07-09T06:22:51Z</time>
      </trkpt>
      <trkpt lat="49.702361" lon="6.559373">
        <ele>178.0</ele>
        <time>2020-07-09T06:22:53Z</time>
      </trkpt>
      <trkpt lat="49.702324" lon="6.559524">
        <ele>177.0</ele>
        <time>2020-07-09T06:22:55Z</time>
      </trkpt>
      <trkpt lat="49.702289" lon="6.559673">
        <ele>178.0</ele>
        <time>2020-07-09T06:22:57Z</time>
      </trkpt>
      <trkpt lat="49.702254" lon="6.559832">
        <ele>178.0</ele>
        <time>2020-07-09T06:22:59Z</time>
      </trkpt>
      <trkpt lat="49.702213" lon="6.559994">
        <ele>178.0</ele>
        <time>2020-07-09T06:23:01Z</time>
      </trkpt>
      <trkpt lat="49.702171" lon="6.560145">
        <ele>178.0</ele>
        <time>2020-07-09T06:23:03Z</time>
      </trkpt>
      <trkpt lat="49.702129" lon="6.560302">
        <ele>178.0</ele>
        <time>2020-07-09T06:23:05Z</time>
      </trkpt>
      <trkpt lat="49.702084" lon="6.560462">
        <ele>178.0</ele>
        <time>2020-07-09T06:23:07Z</time>
      </trkpt>
      <trkpt lat="49.702043" lon="6.560615">
        <ele>179.0</ele>
        <time>2020-07-09T06:23:09Z</time>
      </trkpt>
      <trkpt lat="49.701998" lon="6.560788">
        <ele>179.0</ele>
        <time>2020-07-09T06:23:11Z</time>
      </trkpt>
      <trkpt lat="49.701966" lon="6.560943">
        <ele>179.0</ele>
        <time>2020-07-09T06:23:13Z</time>
      </trkpt>
      <trkpt lat="49.701933" lon="6.56111">
        <ele>179.0</ele>
        <time>2020-07-09T06:23:15Z</time>
      </trkpt>
      <trkpt lat="49.701903" lon="6.561273">
        <ele>179.0</ele>
        <time>2020-07-09T06:23:17Z</time>
      </trkpt>
      <trkpt lat="49.701867" lon="6.561447">
        <ele>179.0</ele>
        <time>2020-07-09T06:23:19Z</time>
      </trkpt>
      <trkpt lat="49.701839" lon="6.56163">
        <ele>181.0</ele>
        <time>2020-07-09T06:23:21Z</time>
      </trkpt>
      <trkpt lat="49.701814" lon="6.561807">
        <ele>181.0</ele>
        <time>2020-07-09T06:23:23Z</time>
      </trkpt>
      <trkpt lat="49.701786" lon="6.561974">
        <ele>180.0</ele>
        <time>2020-07-09T06:23:25Z</time>
      </trkpt>
      <trkpt lat="49.701767" lon="6.562129">
        <ele>180.0</ele>
        <time>2020-07-09T06:23:27Z</time>
      </trkpt>
      <trkpt lat="49.701744" lon="6.562304">
        <ele>179.0</ele>
        <time>2020-07-09T06:23:29Z</time>
      </trkpt>
      <trkpt lat="49.701722" lon="6.562492">
        <ele>178.0</ele>
        <time>2020-07-09T06:23:31Z</time>
      </trkpt>
      <trkpt lat="49.701709" lon="6.56267">
        <ele>178.0</ele>
        <time>2020-07-09T06:23:33Z</time>
      </trkpt>
      <trkpt lat="49.701697" lon="6.562845">
        <ele>177.0</ele>
        <time>2020-07-09T06:23:35Z</time>
      </trkpt>
      <trkpt lat="49.701686" lon="6.563021">
        <ele>177.0</ele>
        <time>2020-07-09T06:23:37Z</time>
      </trkpt>
      <trkpt lat="49.701691" lon="6.563188">
        <ele>177.0</ele>
        <time>2020-07-09T06:23:39Z</time>
      </trkpt>
      <trkpt lat="49.701693" lon="6.563366">
        <ele>177.0</ele>
        <time>2020-07-09T06:23:41Z</time>
      </trkpt>
      <trkpt lat="49.701694" lon="6.563546">
        <ele>177.0</ele>
        <time>2020-07-09T06:23:43Z</time>
      </trkpt>
      <trkpt lat="49.701699" lon="6.563727">
        <ele>177.0</ele>
        <time>2020-07-09T06:23:45Z</time>
      </trkpt>
      <trkpt lat="49.701708" lon="6.563899">
        <ele>177.0</ele>
        <time>2020-07-09T06:23:47Z</time>
      </trkpt>
      <trkpt lat="49.701711" lon="6.56407">
        <ele>178.0</ele>
        <time>2020-07-09T06:23:49Z</time>
      </trkpt>
      <trkpt lat="49.701713" lon="6.564238">
        <ele>178.0</ele>
        <time>2020-07-09T06:23:51Z</time>
      </trkpt>
      <trkpt lat="49.70172" lon="6.564408">
        <ele>177.0</ele>
        <time>2020-07-09T06:23:53Z</time>
      </trkpt>
      <trkpt lat="49.701731" lon="6.564562">
        <ele>177.0</ele>
        <time>2020-07-09T06:23:55Z</time>
      </trkpt>
      <trkpt lat="49.701751" lon="6.564731">
        <ele>177.0</ele>
        <time>2020-07-09T06:23:57Z</time>
      </trkpt>
      <trkpt lat="49.701771" lon="6.564897">
        <ele>177.0</ele>
        <time>2020-07-09T06:23:59Z</time>
      </trkpt>
      <trkpt lat="49.701793" lon="6.565066">
        <ele>177.0</ele>
        <time>2020-07-09T06:24:01Z</time>
      </trkpt>
      <trkpt lat="49.701823" lon="6.565224">
        <ele>177.0</ele>
        <time>2020-07-09T06:24:03Z</time>
      </trkpt>
      <trkpt lat="49.701854" lon="6.565386">
        <ele>177.0</ele>
        <time>2020-07-09T06:24:05Z</time>
      </trkpt>
      <trkpt lat="49.701889" lon="6.565547">
        <ele>176.0</ele>
        <time>2020-07-09T06:24:07Z</time>
      </trkpt>
      <trkpt lat="49.701924" lon="6.5657">
        <ele>176.0</ele>
        <time>2020-07-09T06:24:09Z</time>
      </trkpt>
      <trkpt lat="49.701965" lon="6.565846">
        <ele>175.0</ele>
        <time>2020-07-09T06:24:11Z</time>
      </trkpt>
      <trkpt lat="49.702002" lon="6.566003">
        <ele>176.0</ele>
        <time>2020-07-09T06:24:13Z</time>
      </trkpt>
      <trkpt lat="49.702047" lon="6.566165">
        <ele>176.0</ele>
        <time>2020-07-09T06:24:15Z</time>
      </trkpt>
      <trkpt lat="49.702087" lon="6.56633">
        <ele>176.0</ele>
        <time>2020-07-09T06:24:17Z</time>
      </trkpt>
      <trkpt lat="49.702128" lon="6.566489">
        <ele>176.0</ele>
        <time>2020-07-09T06:24:19Z</time>
      </trkpt>
      <trkpt lat="49.702176" lon="6.566632">
        <ele>177.0</ele>
        <time>2020-07-09T06:24:21Z</time>
      </trkpt>
      <trkpt lat="49.702223" lon="6.566771">
        <ele>177.0</ele>
        <time>2020-07-09T06:24:23Z</time>
      </trkpt>
      <trkpt lat="49.702287" lon="6.566904">
        <ele>177.0</ele>
        <time>2020-07-09T06:24:25Z</time>
      </trkpt>
      <trkpt lat="49.702343" lon="6.567036">
        <ele>177.0</ele>
        <time>2020-07-09T06:24:27Z</time>
      </trkpt>
      <trkpt lat="49.702401" lon="6.567171">
        <ele>178.0</ele>
        <time>2020-07-09T06:24:29Z</time>
      </trkpt>
      <trkpt lat="49.702464" lon="6.567298">
        <ele>178.0</ele>
        <time>2020-07-09T06:24:31Z</time>
      </trkpt>
      <trkpt lat="49.702527" lon="6.567433">
        <ele>178.0</ele>
        <time>2020-07-09T06:24:33Z</time>
      </trkpt>
      <trkpt lat="49.702597" lon="6.56756">
        <ele>178.0</ele>
        <time>2020-07-09T06:24:35Z</time>
      </trkpt>
      <trkpt lat="49.702669" lon="6.567683">
        <ele>178.0</ele>
        <time>2020-07-09T06:24:37Z</time>
      </trkpt>
      <trkpt lat="49.702744" lon="6.567798">
        <ele>178.0</ele>
        <time>2020-07-09T06:24:39Z</time>
      </trkpt>
      <trkpt lat="49.702821" lon="6.567915">
        <ele>178.0</ele>
        <time>2020-07-09T06:24:41Z</time>
      </trkpt>
      <trkpt lat="49.702899" lon="6.568035">
        <ele>178.0</ele>
        <time>2020-07-09T06:24:43Z</time>
      </trkpt>
      <trkpt lat="49.702979" lon="6.568154">
        <ele>178.0</ele>
        <time>2020-07-09T06:24:45Z</time>
      </trkpt>
      <trkpt lat="49.703065" lon="6.568273">
        <ele>178.0</ele>
        <time>2020-07-09T06:24:47Z</time>
      </trkpt>
      <trkpt lat="49.703148" lon="6.568386">
        <ele>178.0</ele>
        <time>2020-07-09T06:24:49Z</time>
      </trkpt>
      <trkpt lat="49.703229" lon="6.568485">
        <ele>178.0</ele>
        <time>2020-07-09T06:24:51Z</time>
      </trkpt>
      <trkpt lat="49.703314" lon="6.568586">
        <ele>178.0</ele>
        <time>2020-07-09T06:24:53Z</time>
      </trkpt>
      <trkpt lat="49.703402" lon="6.568688">
        <ele>178.0</ele>
        <time>2020-07-09T06:24:55Z</time>
      </trkpt>
      <trkpt lat="49.703489" lon="6.568786">
        <ele>178.0</ele>
        <time>2020-07-09T06:24:57Z</time>
      </trkpt>
      <trkpt lat="49.703576" lon="6.568888">
        <ele>178.0</ele>
        <time>2020-07-09T06:24:59Z</time>
      </trkpt>
      <trkpt lat="49.703665" lon="6.568972">
        <ele>178.0</ele>
        <time>2020-07-09T06:25:01Z</time>
      </trkpt>
      <trkpt lat="49.703761" lon="6.569069">
        <ele>178.0</ele>
        <time>2020-07-09T06:25:03Z</time>
      </trkpt>
      <trkpt lat="49.703851" lon="6.569168">
        <ele>178.0</ele>
        <time>2020-07-09T06:25:05Z</time>
      </trkpt>
      <trkpt lat="49.703949" lon="6.569265">
        <ele>178.0</ele>
        <time>2020-07-09T06:25:07Z</time>
      </trkpt>
      <trkpt lat="49.704044" lon="6.56936">
        <ele>178.0</ele>
        <time>2020-07-09T06:25:09Z</time>
      </trkpt>
      <trkpt lat="49.704138" lon="6.569463">
        <ele>178.0</ele>
        <time>2020-07-09T06:25:11Z</time>
      </trkpt>
      <trkpt lat="49.704232" lon="6.569561">
        <ele>178.0</ele>
        <time>2020-07-09T06:25:13Z</time>
      </trkpt>
      <trkpt lat="49.704325" lon="6.569642">
        <ele>178.0</ele>
        <time>2020-07-09T06:25:15Z</time>
      </trkpt>
      <trkpt lat="49.704421" lon="6.569729">
        <ele>178.0</ele>
        <time>2020-07-09T06:25:17Z</time>
      </trkpt>
      <trkpt lat="49.704517" lon="6.569816">
        <ele>177.0</ele>
        <time>2020-07-09T06:25:19Z</time>
      </trkpt>
      <trkpt lat="49.704607" lon="6.569908">
        <ele>178.0</ele>
        <time>2020-07-09T06:25:21Z</time>
      </trkpt>
      <trkpt lat="49.704698" lon="6.57">
        <ele>177.0</ele>
        <time>2020-07-09T06:25:23Z</time>
      </trkpt>
      <trkpt lat="49.704827" lon="6.570138">
        <ele>178.0</ele>
        <time>2020-07-09T06:25:26Z</time>
      </trkpt>
      <trkpt lat="49.704913" lon="6.57024">
        <ele>178.0</ele>
        <time>2020-07-09T06:25:28Z</time>
      </trkpt>
      <trkpt lat="49.704995" lon="6.57034">
        <ele>178.0</ele>
        <time>2020-07-09T06:25:30Z</time>
      </trkpt>
      <trkpt lat="49.705077" lon="6.57044">
        <ele>178.0</ele>
        <time>2020-07-09T06:25:32Z</time>
      </trkpt>
      <trkpt lat="49.705156" lon="6.570546">
        <ele>178.0</ele>
        <time>2020-07-09T06:25:34Z</time>
      </trkpt>
      <trkpt lat="49.705234" lon="6.570651">
        <ele>178.0</ele>
        <time>2020-07-09T06:25:36Z</time>
      </trkpt>
      <trkpt lat="49.705315" lon="6.570754">
        <ele>178.0</ele>
        <time>2020-07-09T06:25:38Z</time>
      </trkpt>
      <trkpt lat="49.70539" lon="6.570852">
        <ele>178.0</ele>
        <time>2020-07-09T06:25:40Z</time>
      </trkpt>
      <trkpt lat="49.705464" lon="6.570959">
        <ele>178.0</ele>
        <time>2020-07-09T06:25:42Z</time>
      </trkpt>
      <trkpt lat="49.705538" lon="6.571072">
        <ele>178.0</ele>
        <time>2020-07-09T06:25:44Z</time>
      </trkpt>
      <trkpt lat="49.705614" lon="6.571183">
        <ele>178.0</ele>
        <time>2020-07-09T06:25:46Z</time>
      </trkpt>
      <trkpt lat="49.705686" lon="6.571293">
        <ele>178.0</ele>
        <time>2020-07-09T06:25:48Z</time>
      </trkpt>
      <trkpt lat="49.705751" lon="6.571407">
        <ele>178.0</ele>
        <time>2020-07-09T06:25:50Z</time>
      </trkpt>
      <trkpt lat="49.705815" lon="6.571535">
        <ele>178.0</ele>
        <time>2020-07-09T06:25:52Z</time>
      </trkpt>
      <trkpt lat="49.705873" lon="6.571664">
        <ele>177.0</ele>
        <time>2020-07-09T06:25:54Z</time>
      </trkpt>
      <trkpt lat="49.705934" lon="6.571794">
        <ele>177.0</ele>
        <time>2020-07-09T06:25:56Z</time>
      </trkpt>
      <trkpt lat="49.705991" lon="6.571928">
        <ele>177.0</ele>
        <time>2020-07-09T06:25:58Z</time>
      </trkpt>
      <trkpt lat="49.706068" lon="6.572024">
        <ele>177.0</ele>
        <time>2020-07-09T06:26:00Z</time>
      </trkpt>
      <trkpt lat="49.706161" lon="6.572078">
        <ele>176.0</ele>
        <time>2020-07-09T06:26:02Z</time>
      </trkpt>
      <trkpt lat="49.706252" lon="6.572075">
        <ele>176.0</ele>
        <time>2020-07-09T06:26:04Z</time>
      </trkpt>
      <trkpt lat="49.706324" lon="6.571996">
        <ele>176.0</ele>
        <time>2020-07-09T06:26:06Z</time>
      </trkpt>
      <trkpt lat="49.70639" lon="6.571882">
        <ele>176.0</ele>
        <time>2020-07-09T06:26:08Z</time>
      </trkpt>
      <trkpt lat="49.706447" lon="6.571764">
        <ele>176.0</ele>
        <time>2020-07-09T06:26:10Z</time>
      </trkpt>
      <trkpt lat="49.706503" lon="6.571656">
        <ele>176.0</ele>
        <time>2020-07-09T06:26:12Z</time>
      </trkpt>
      <trkpt lat="49.706557" lon="6.571557">
        <ele>177.0</ele>
        <time>2020-07-09T06:26:14Z</time>
      </trkpt>
      <trkpt lat="49.706608" lon="6.571486">
        <ele>177.0</ele>
        <time>2020-07-09T06:26:16Z</time>
      </trkpt>
      <trkpt lat="49.70665" lon="6.57142">
        <ele>178.0</ele>
        <time>2020-07-09T06:26:18Z</time>
      </trkpt>
      <trkpt lat="49.706696" lon="6.571363">
        <ele>178.0</ele>
        <time>2020-07-09T06:26:20Z</time>
      </trkpt>
      <trkpt lat="49.706733" lon="6.571314">
        <ele>178.0</ele>
        <time>2020-07-09T06:26:22Z</time>
      </trkpt>
      <trkpt lat="49.706716" lon="6.571293">
        <ele>178.0</ele>
        <time>2020-07-09T06:26:24Z</time>
      </trkpt>
      <trkpt lat="49.70668" lon="6.57131">
        <ele>178.0</ele>
        <time>2020-07-09T06:26:26Z</time>
      </trkpt>
      <trkpt lat="49.706643" lon="6.571331">
        <ele>178.0</ele>
        <time>2020-07-09T06:26:28Z</time>
      </trkpt>
      <trkpt lat="49.706606" lon="6.571362">
        <ele>178.0</ele>
        <time>2020-07-09T06:26:30Z</time>
      </trkpt>
      <trkpt lat="49.706566" lon="6.571401">
        <ele>178.0</ele>
        <time>2020-07-09T06:26:32Z</time>
      </trkpt>
      <trkpt lat="49.706526" lon="6.571431">
        <ele>178.0</ele>
        <time>2020-07-09T06:26:34Z</time>
      </trkpt>
      <trkpt lat="49.706489" lon="6.571464">
        <ele>177.0</ele>
        <time>2020-07-09T06:26:36Z</time>
      </trkpt>
      <trkpt lat="49.70645" lon="6.571497">
        <ele>177.0</ele>
        <time>2020-07-09T06:26:38Z</time>
      </trkpt>
      <trkpt lat="49.706414" lon="6.571533">
        <ele>177.0</ele>
        <time>2020-07-09T06:26:40Z</time>
      </trkpt>
      <trkpt lat="49.706377" lon="6.571569">
        <ele>177.0</ele>
        <time>2020-07-09T06:26:42Z</time>
      </trkpt>
      <trkpt lat="49.70634" lon="6.571614">
        <ele>177.0</ele>
        <time>2020-07-09T06:26:44Z</time>
      </trkpt>
      <trkpt lat="49.706299" lon="6.571668">
        <ele>177.0</ele>
        <time>2020-07-09T06:26:46Z</time>
      </trkpt>
      <trkpt lat="49.706264" lon="6.571721">
        <ele>177.0</ele>
        <time>2020-07-09T06:26:48Z</time>
      </trkpt>
      <trkpt lat="49.706231" lon="6.571771">
        <ele>178.0</ele>
        <time>2020-07-09T06:26:50Z</time>
      </trkpt>
      <trkpt lat="49.706207" lon="6.571816">
        <ele>178.0</ele>
        <time>2020-07-09T06:26:52Z</time>
      </trkpt>
      <trkpt lat="49.706183" lon="6.571866">
        <ele>178.0</ele>
        <time>2020-07-09T06:26:54Z</time>
      </trkpt>
      <trkpt lat="49.706153" lon="6.571931">
        <ele>179.0</ele>
        <time>2020-07-09T06:26:56Z</time>
      </trkpt>
      <trkpt lat="49.706127" lon="6.571993">
        <ele>180.0</ele>
        <time>2020-07-09T06:26:58Z</time>
      </trkpt>
      <trkpt lat="49.706101" lon="6.572055">
        <ele>180.0</ele>
        <time>2020-07-09T06:27:00Z</time>
      </trkpt>
      <trkpt lat="49.70607" lon="6.572063">
        <ele>182.0</ele>
        <time>2020-07-09T06:27:02Z</time>
      </trkpt>
      <trkpt lat="49.706065" lon="6.572046">
        <ele>183.0</ele>
        <time>2020-07-09T06:27:04Z</time>
      </trkpt>
      <trkpt lat="49.706057" lon="6.572047">
        <ele>183.0</ele>
        <time>2020-07-09T06:27:06Z</time>
      </trkpt>
      <trkpt lat="49.706041" lon="6.572074">
        <ele>184.0</ele>
        <time>2020-07-09T06:27:41Z</time>
      </trkpt>
      <trkpt lat="49.706041" lon="6.572074">
        <ele>184.0</ele>
        <time>2020-07-09T06:27:43Z</time>
      </trkpt>
      <trkpt lat="49.706041" lon="6.572074">
        <ele>184.0</ele>
        <time>2020-07-09T06:27:45Z</time>
      </trkpt>
      <trkpt lat="49.706041" lon="6.572074">
        <ele>184.0</ele>
        <time>2020-07-09T06:27:47Z</time>
      </trkpt>
      <trkpt lat="49.706041" lon="6.572074">
        <ele>184.0</ele>
        <time>2020-07-09T06:27:49Z</time>
      </trkpt>
      <trkpt lat="49.706041" lon="6.572074">
        <ele>184.0</ele>
        <time>2020-07-09T06:27:51Z</time>
      </trkpt>
      <trkpt lat="49.706041" lon="6.572074">
        <ele>184.0</ele>
        <time>2020-07-09T06:27:53Z</time>
      </trkpt>
      <trkpt lat="49.706041" lon="6.572074">
        <ele>184.0</ele>
        <time>2020-07-09T06:27:55Z</time>
      </trkpt>
      <trkpt lat="49.706041" lon="6.572074">
        <ele>184.0</ele>
        <time>2020-07-09T06:27:57Z</time>
      </trkpt>
      <trkpt lat="49.706041" lon="6.572074">
        <ele>184.0</ele>
        <time>2020-07-09T06:28:00Z</time>
      </trkpt>
      <trkpt lat="49.706041" lon="6.572074">
        <ele>184.0</ele>
        <time>2020-07-09T06:28:02Z</time>
      </trkpt>
      <trkpt lat="49.706041" lon="6.572074">
        <ele>184.0</ele>
        <time>2020-07-09T06:28:04Z</time>
      </trkpt>
      <trkpt lat="49.70604" lon="6.572077">
        <ele>185.0</ele>
        <time>2020-07-09T06:28:05Z</time>
      </trkpt>
      <trkpt lat="49.706023" lon="6.572102">
        <ele>185.0</ele>
        <time>2020-07-09T06:28:07Z</time>
      </trkpt>
      <trkpt lat="49.705999" lon="6.572144">
        <ele>184.0</ele>
        <time>2020-07-09T06:28:09Z</time>
      </trkpt>
      <trkpt lat="49.705951" lon="6.572246">
        <ele>185.0</ele>
        <time>2020-07-09T06:28:12Z</time>
      </trkpt>
      <trkpt lat="49.705916" lon="6.572334">
        <ele>185.0</ele>
        <time>2020-07-09T06:28:14Z</time>
      </trkpt>
      <trkpt lat="49.705878" lon="6.572409">
        <ele>185.0</ele>
        <time>2020-07-09T06:28:16Z</time>
      </trkpt>
      <trkpt lat="49.705844" lon="6.572461">
        <ele>185.0</ele>
        <time>2020-07-09T06:28:18Z</time>
      </trkpt>
      <trkpt lat="49.705839" lon="6.572478">
        <ele>185.0</ele>
        <time>2020-07-09T06:28:20Z</time>
      </trkpt>
      <trkpt lat="49.705835" lon="6.572474">
        <ele>185.0</ele>
        <time>2020-07-09T06:28:22Z</time>
      </trkpt>
      <trkpt lat="49.705835" lon="6.572474">
        <ele>185.0</ele>
        <time>2020-07-09T06:28:24Z</time>
      </trkpt>
      <trkpt lat="49.705835" lon="6.572474">
        <ele>185.0</ele>
        <time>2020-07-09T06:28:26Z</time>
      </trkpt>
      <trkpt lat="49.705835" lon="6.572474">
        <ele>185.0</ele>
        <time>2020-07-09T06:32:23Z</time>
      </trkpt>
      <trkpt lat="49.705835" lon="6.572474">
        <ele>185.0</ele>
        <time>2020-07-09T06:32:25Z</time>
      </trkpt>
      <trkpt lat="49.705835" lon="6.572474">
        <ele>185.0</ele>
        <time>2020-07-09T06:32:27Z</time>
      </trkpt>
      <trkpt lat="49.705835" lon="6.572474">
        <ele>185.0</ele>
        <time>2020-07-09T06:32:29Z</time>
      </trkpt>
      <trkpt lat="49.705835" lon="6.572474">
        <ele>185.0</ele>
        <time>2020-07-09T06:32:31Z</time>
      </trkpt>
      <trkpt lat="49.705835" lon="6.572474">
        <ele>185.0</ele>
        <time>2020-07-09T06:32:33Z</time>
      </trkpt>
      <trkpt lat="49.705835" lon="6.572474">
        <ele>185.0</ele>
        <time>2020-07-09T06:32:35Z</time>
      </trkpt>
      <trkpt lat="49.705835" lon="6.572474">
        <ele>185.0</ele>
        <time>2020-07-09T06:32:37Z</time>
      </trkpt>
      <trkpt lat="49.705835" lon="6.572474">
        <ele>185.0</ele>
        <time>2020-07-09T06:32:39Z</time>
      </trkpt>
      <trkpt lat="49.705835" lon="6.572474">
        <ele>185.0</ele>
        <time>2020-07-09T06:32:41Z</time>
      </trkpt>
      <trkpt lat="49.705835" lon="6.572474">
        <ele>185.0</ele>
        <time>2020-07-09T06:32:43Z</time>
      </trkpt>
      <trkpt lat="49.705835" lon="6.572474">
        <ele>185.0</ele>
        <time>2020-07-09T06:32:45Z</time>
      </trkpt>
      <trkpt lat="49.705835" lon="6.572474">
        <ele>185.0</ele>
        <time>2020-07-09T06:32:47Z</time>
      </trkpt>
      <trkpt lat="49.705823" lon="6.572521">
        <ele>185.0</ele>
        <time>2020-07-09T06:32:49Z</time>
      </trkpt>
      <trkpt lat="49.705798" lon="6.572575">
        <ele>186.0</ele>
        <time>2020-07-09T06:32:51Z</time>
      </trkpt>
      <trkpt lat="49.705762" lon="6.572651">
        <ele>187.0</ele>
        <time>2020-07-09T06:32:53Z</time>
      </trkpt>
      <trkpt lat="49.705721" lon="6.572735">
        <ele>187.0</ele>
        <time>2020-07-09T06:32:55Z</time>
      </trkpt>
      <trkpt lat="49.705654" lon="6.572871">
        <ele>188.0</ele>
        <time>2020-07-09T06:32:58Z</time>
      </trkpt>
      <trkpt lat="49.705629" lon="6.572925">
        <ele>188.0</ele>
        <time>2020-07-09T06:32:59Z</time>
      </trkpt>
      <trkpt lat="49.705551" lon="6.573065">
        <ele>189.0</ele>
        <time>2020-07-09T06:33:02Z</time>
      </trkpt>
      <trkpt lat="49.705521" lon="6.573115">
        <ele>189.0</ele>
        <time>2020-07-09T06:33:03Z</time>
      </trkpt>
      <trkpt lat="49.705444" lon="6.573281">
        <ele>189.0</ele>
        <time>2020-07-09T06:33:06Z</time>
      </trkpt>
      <trkpt lat="49.705389" lon="6.573396">
        <ele>189.0</ele>
        <time>2020-07-09T06:33:08Z</time>
      </trkpt>
      <trkpt lat="49.705335" lon="6.573513">
        <ele>189.0</ele>
        <time>2020-07-09T06:33:10Z</time>
      </trkpt>
      <trkpt lat="49.705279" lon="6.573629">
        <ele>189.0</ele>
        <time>2020-07-09T06:33:12Z</time>
      </trkpt>
      <trkpt lat="49.705219" lon="6.57374">
        <ele>188.0</ele>
        <time>2020-07-09T06:33:14Z</time>
      </trkpt>
      <trkpt lat="49.705162" lon="6.573844">
        <ele>188.0</ele>
        <time>2020-07-09T06:33:16Z</time>
      </trkpt>
      <trkpt lat="49.705103" lon="6.573951">
        <ele>188.0</ele>
        <time>2020-07-09T06:33:18Z</time>
      </trkpt>
      <trkpt lat="49.705047" lon="6.574065">
        <ele>188.0</ele>
        <time>2020-07-09T06:33:20Z</time>
      </trkpt>
      <trkpt lat="49.704993" lon="6.574182">
        <ele>188.0</ele>
        <time>2020-07-09T06:33:22Z</time>
      </trkpt>
      <trkpt lat="49.704937" lon="6.574307">
        <ele>188.0</ele>
        <time>2020-07-09T06:33:24Z</time>
      </trkpt>
      <trkpt lat="49.704879" lon="6.574422">
        <ele>188.0</ele>
        <time>2020-07-09T06:33:26Z</time>
      </trkpt>
      <trkpt lat="49.704817" lon="6.574532">
        <ele>187.0</ele>
        <time>2020-07-09T06:33:28Z</time>
      </trkpt>
      <trkpt lat="49.704763" lon="6.574639">
        <ele>186.0</ele>
        <time>2020-07-09T06:33:30Z</time>
      </trkpt>
      <trkpt lat="49.704708" lon="6.574745">
        <ele>187.0</ele>
        <time>2020-07-09T06:33:32Z</time>
      </trkpt>
      <trkpt lat="49.704665" lon="6.574846">
        <ele>186.0</ele>
        <time>2020-07-09T06:33:34Z</time>
      </trkpt>
      <trkpt lat="49.704653" lon="6.574919">
        <ele>186.0</ele>
        <time>2020-07-09T06:33:36Z</time>
      </trkpt>
      <trkpt lat="49.704675" lon="6.574914">
        <ele>186.0</ele>
        <time>2020-07-09T06:33:38Z</time>
      </trkpt>
      <trkpt lat="49.70469" lon="6.574898">
        <ele>186.0</ele>
        <time>2020-07-09T06:33:40Z</time>
      </trkpt>
      <trkpt lat="49.704704" lon="6.574879">
        <ele>186.0</ele>
        <time>2020-07-09T06:33:42Z</time>
      </trkpt>
      <trkpt lat="49.704732" lon="6.574847">
        <ele>186.0</ele>
        <time>2020-07-09T06:33:44Z</time>
      </trkpt>
      <trkpt lat="49.704792" lon="6.574791">
        <ele>186.0</ele>
        <time>2020-07-09T06:33:46Z</time>
      </trkpt>
      <trkpt lat="49.704862" lon="6.574742">
        <ele>186.0</ele>
        <time>2020-07-09T06:33:48Z</time>
      </trkpt>
      <trkpt lat="49.704925" lon="6.57472">
        <ele>185.0</ele>
        <time>2020-07-09T06:33:50Z</time>
      </trkpt>
      <trkpt lat="49.704989" lon="6.574714">
        <ele>185.0</ele>
        <time>2020-07-09T06:33:52Z</time>
      </trkpt>
      <trkpt lat="49.705054" lon="6.574692">
        <ele>184.0</ele>
        <time>2020-07-09T06:33:54Z</time>
      </trkpt>
      <trkpt lat="49.70514" lon="6.574614">
        <ele>184.0</ele>
        <time>2020-07-09T06:33:56Z</time>
      </trkpt>
      <trkpt lat="49.705153" lon="6.574479">
        <ele>182.0</ele>
        <time>2020-07-09T06:33:58Z</time>
      </trkpt>
      <trkpt lat="49.7051" lon="6.574384">
        <ele>183.0</ele>
        <time>2020-07-09T06:34:00Z</time>
      </trkpt>
      <trkpt lat="49.705031" lon="6.57428">
        <ele>183.0</ele>
        <time>2020-07-09T06:34:02Z</time>
      </trkpt>
      <trkpt lat="49.704953" lon="6.574194">
        <ele>184.0</ele>
        <time>2020-07-09T06:34:04Z</time>
      </trkpt>
      <trkpt lat="49.704884" lon="6.57412">
        <ele>183.0</ele>
        <time>2020-07-09T06:34:06Z</time>
      </trkpt>
      <trkpt lat="49.70484" lon="6.574034">
        <ele>183.0</ele>
        <time>2020-07-09T06:34:08Z</time>
      </trkpt>
      <trkpt lat="49.704756" lon="6.573929">
        <ele>183.0</ele>
        <time>2020-07-09T06:34:10Z</time>
      </trkpt>
      <trkpt lat="49.704679" lon="6.573839">
        <ele>182.0</ele>
        <time>2020-07-09T06:34:12Z</time>
      </trkpt>
      <trkpt lat="49.704592" lon="6.573742">
        <ele>181.0</ele>
        <time>2020-07-09T06:34:14Z</time>
      </trkpt>
      <trkpt lat="49.704511" lon="6.573645">
        <ele>181.0</ele>
        <time>2020-07-09T06:34:16Z</time>
      </trkpt>
      <trkpt lat="49.704429" lon="6.573533">
        <ele>181.0</ele>
        <time>2020-07-09T06:34:18Z</time>
      </trkpt>
      <trkpt lat="49.704341" lon="6.57343">
        <ele>181.0</ele>
        <time>2020-07-09T06:34:20Z</time>
      </trkpt>
      <trkpt lat="49.704247" lon="6.573326">
        <ele>180.0</ele>
        <time>2020-07-09T06:34:22Z</time>
      </trkpt>
      <trkpt lat="49.704163" lon="6.573225">
        <ele>181.0</ele>
        <time>2020-07-09T06:34:24Z</time>
      </trkpt>
      <trkpt lat="49.704079" lon="6.57313">
        <ele>180.0</ele>
        <time>2020-07-09T06:34:26Z</time>
      </trkpt>
      <trkpt lat="49.703994" lon="6.573034">
        <ele>181.0</ele>
        <time>2020-07-09T06:34:28Z</time>
      </trkpt>
      <trkpt lat="49.703902" lon="6.572939">
        <ele>181.0</ele>
        <time>2020-07-09T06:34:30Z</time>
      </trkpt>
      <trkpt lat="49.703819" lon="6.572839">
        <ele>181.0</ele>
        <time>2020-07-09T06:34:32Z</time>
      </trkpt>
      <trkpt lat="49.70374" lon="6.572748">
        <ele>181.0</ele>
        <time>2020-07-09T06:34:34Z</time>
      </trkpt>
      <trkpt lat="49.703653" lon="6.572658">
        <ele>181.0</ele>
        <time>2020-07-09T06:34:36Z</time>
      </trkpt>
      <trkpt lat="49.703561" lon="6.572566">
        <ele>181.0</ele>
        <time>2020-07-09T06:34:38Z</time>
      </trkpt>
      <trkpt lat="49.703476" lon="6.572478">
        <ele>181.0</ele>
        <time>2020-07-09T06:34:40Z</time>
      </trkpt>
      <trkpt lat="49.703393" lon="6.572379">
        <ele>180.0</ele>
        <time>2020-07-09T06:34:42Z</time>
      </trkpt>
      <trkpt lat="49.703313" lon="6.572289">
        <ele>180.0</ele>
        <time>2020-07-09T06:34:44Z</time>
      </trkpt>
      <trkpt lat="49.703221" lon="6.572204">
        <ele>180.0</ele>
        <time>2020-07-09T06:34:46Z</time>
      </trkpt>
      <trkpt lat="49.703128" lon="6.572121">
        <ele>181.0</ele>
        <time>2020-07-09T06:34:48Z</time>
      </trkpt>
      <trkpt lat="49.703031" lon="6.572034">
        <ele>181.0</ele>
        <time>2020-07-09T06:34:50Z</time>
      </trkpt>
      <trkpt lat="49.702935" lon="6.571945">
        <ele>181.0</ele>
        <time>2020-07-09T06:34:52Z</time>
      </trkpt>
      <trkpt lat="49.702841" lon="6.571868">
        <ele>181.0</ele>
        <time>2020-07-09T06:34:54Z</time>
      </trkpt>
      <trkpt lat="49.702746" lon="6.571783">
        <ele>180.0</ele>
        <time>2020-07-09T06:34:56Z</time>
      </trkpt>
      <trkpt lat="49.702649" lon="6.571699">
        <ele>180.0</ele>
        <time>2020-07-09T06:34:58Z</time>
      </trkpt>
      <trkpt lat="49.702546" lon="6.571625">
        <ele>180.0</ele>
        <time>2020-07-09T06:35:00Z</time>
      </trkpt>
      <trkpt lat="49.702449" lon="6.571543">
        <ele>180.0</ele>
        <time>2020-07-09T06:35:02Z</time>
      </trkpt>
      <trkpt lat="49.702357" lon="6.571461">
        <ele>180.0</ele>
        <time>2020-07-09T06:35:04Z</time>
      </trkpt>
      <trkpt lat="49.702264" lon="6.571381">
        <ele>179.0</ele>
        <time>2020-07-09T06:35:06Z</time>
      </trkpt>
      <trkpt lat="49.702169" lon="6.571295">
        <ele>179.0</ele>
        <time>2020-07-09T06:35:08Z</time>
      </trkpt>
      <trkpt lat="49.702078" lon="6.571235">
        <ele>177.0</ele>
        <time>2020-07-09T06:35:10Z</time>
      </trkpt>
      <trkpt lat="49.701982" lon="6.571174">
        <ele>178.0</ele>
        <time>2020-07-09T06:35:12Z</time>
      </trkpt>
      <trkpt lat="49.701884" lon="6.571109">
        <ele>178.0</ele>
        <time>2020-07-09T06:35:14Z</time>
      </trkpt>
      <trkpt lat="49.701781" lon="6.571042">
        <ele>178.0</ele>
        <time>2020-07-09T06:35:16Z</time>
      </trkpt>
      <trkpt lat="49.701684" lon="6.570989">
        <ele>178.0</ele>
        <time>2020-07-09T06:35:18Z</time>
      </trkpt>
      <trkpt lat="49.70159" lon="6.570942">
        <ele>178.0</ele>
        <time>2020-07-09T06:35:20Z</time>
      </trkpt>
      <trkpt lat="49.701488" lon="6.570893">
        <ele>178.0</ele>
        <time>2020-07-09T06:35:22Z</time>
      </trkpt>
      <trkpt lat="49.701375" lon="6.570833">
        <ele>179.0</ele>
        <time>2020-07-09T06:35:24Z</time>
      </trkpt>
      <trkpt lat="49.701277" lon="6.570775">
        <ele>179.0</ele>
        <time>2020-07-09T06:35:26Z</time>
      </trkpt>
      <trkpt lat="49.701181" lon="6.570735">
        <ele>179.0</ele>
        <time>2020-07-09T06:35:28Z</time>
      </trkpt>
      <trkpt lat="49.70108" lon="6.570675">
        <ele>180.0</ele>
        <time>2020-07-09T06:35:30Z</time>
      </trkpt>
      <trkpt lat="49.700974" lon="6.570631">
        <ele>179.0</ele>
        <time>2020-07-09T06:35:32Z</time>
      </trkpt>
      <trkpt lat="49.700873" lon="6.570597">
        <ele>179.0</ele>
        <time>2020-07-09T06:35:34Z</time>
      </trkpt>
      <trkpt lat="49.700768" lon="6.57056">
        <ele>179.0</ele>
        <time>2020-07-09T06:35:36Z</time>
      </trkpt>
      <trkpt lat="49.70066" lon="6.570529">
        <ele>178.0</ele>
        <time>2020-07-09T06:35:38Z</time>
      </trkpt>
      <trkpt lat="49.700552" lon="6.57051">
        <ele>179.0</ele>
        <time>2020-07-09T06:35:40Z</time>
      </trkpt>
      <trkpt lat="49.700444" lon="6.570494">
        <ele>179.0</ele>
        <time>2020-07-09T06:35:42Z</time>
      </trkpt>
      <trkpt lat="49.700337" lon="6.570476">
        <ele>179.0</ele>
        <time>2020-07-09T06:35:44Z</time>
      </trkpt>
      <trkpt lat="49.700174" lon="6.570449">
        <ele>178.0</ele>
        <time>2020-07-09T06:35:47Z</time>
      </trkpt>
      <trkpt lat="49.70007" lon="6.570428">
        <ele>178.0</ele>
        <time>2020-07-09T06:35:49Z</time>
      </trkpt>
      <trkpt lat="49.699968" lon="6.570407">
        <ele>178.0</ele>
        <time>2020-07-09T06:35:51Z</time>
      </trkpt>
      <trkpt lat="49.699858" lon="6.570402">
        <ele>178.0</ele>
        <time>2020-07-09T06:35:53Z</time>
      </trkpt>
      <trkpt lat="49.699746" lon="6.570392">
        <ele>178.0</ele>
        <time>2020-07-09T06:35:55Z</time>
      </trkpt>
      <trkpt lat="49.69964" lon="6.570384">
        <ele>179.0</ele>
        <time>2020-07-09T06:35:57Z</time>
      </trkpt>
      <trkpt lat="49.699536" lon="6.570379">
        <ele>179.0</ele>
        <time>2020-07-09T06:35:59Z</time>
      </trkpt>
      <trkpt lat="49.699426" lon="6.57037">
        <ele>179.0</ele>
        <time>2020-07-09T06:36:01Z</time>
      </trkpt>
      <trkpt lat="49.699326" lon="6.570367">
        <ele>179.0</ele>
        <time>2020-07-09T06:36:03Z</time>
      </trkpt>
      <trkpt lat="49.699223" lon="6.570366">
        <ele>179.0</ele>
        <time>2020-07-09T06:36:05Z</time>
      </trkpt>
      <trkpt lat="49.699114" lon="6.570368">
        <ele>179.0</ele>
        <time>2020-07-09T06:36:07Z</time>
      </trkpt>
      <trkpt lat="49.699008" lon="6.570361">
        <ele>179.0</ele>
        <time>2020-07-09T06:36:09Z</time>
      </trkpt>
      <trkpt lat="49.698905" lon="6.570366">
        <ele>179.0</ele>
        <time>2020-07-09T06:36:11Z</time>
      </trkpt>
      <trkpt lat="49.698804" lon="6.570383">
        <ele>179.0</ele>
        <time>2020-07-09T06:36:13Z</time>
      </trkpt>
      <trkpt lat="49.698701" lon="6.570412">
        <ele>179.0</ele>
        <time>2020-07-09T06:36:15Z</time>
      </trkpt>
      <trkpt lat="49.698617" lon="6.570441">
        <ele>180.0</ele>
        <time>2020-07-09T06:36:17Z</time>
      </trkpt>
      <trkpt lat="49.698563" lon="6.570451">
        <ele>181.0</ele>
        <time>2020-07-09T06:36:19Z</time>
      </trkpt>
      <trkpt lat="49.698516" lon="6.570462">
        <ele>181.0</ele>
        <time>2020-07-09T06:36:21Z</time>
      </trkpt>
      <trkpt lat="49.698473" lon="6.57048">
        <ele>182.0</ele>
        <time>2020-07-09T06:36:23Z</time>
      </trkpt>
      <trkpt lat="49.698428" lon="6.570515">
        <ele>182.0</ele>
        <time>2020-07-09T06:36:25Z</time>
      </trkpt>
      <trkpt lat="49.698385" lon="6.570551">
        <ele>182.0</ele>
        <time>2020-07-09T06:36:27Z</time>
      </trkpt>
      <trkpt lat="49.698341" lon="6.570591">
        <ele>182.0</ele>
        <time>2020-07-09T06:36:29Z</time>
      </trkpt>
      <trkpt lat="49.698293" lon="6.570625">
        <ele>182.0</ele>
        <time>2020-07-09T06:36:31Z</time>
      </trkpt>
      <trkpt lat="49.698239" lon="6.570618">
        <ele>182.0</ele>
        <time>2020-07-09T06:36:33Z</time>
      </trkpt>
      <trkpt lat="49.698197" lon="6.570572">
        <ele>182.0</ele>
        <time>2020-07-09T06:36:35Z</time>
      </trkpt>
      <trkpt lat="49.698171" lon="6.570511">
        <ele>182.0</ele>
        <time>2020-07-09T06:36:37Z</time>
      </trkpt>
      <trkpt lat="49.698164" lon="6.570433">
        <ele>182.0</ele>
        <time>2020-07-09T06:36:39Z</time>
      </trkpt>
      <trkpt lat="49.698158" lon="6.570349">
        <ele>182.0</ele>
        <time>2020-07-09T06:36:41Z</time>
      </trkpt>
      <trkpt lat="49.698152" lon="6.570268">
        <ele>182.0</ele>
        <time>2020-07-09T06:36:43Z</time>
      </trkpt>
      <trkpt lat="49.698144" lon="6.570178">
        <ele>183.0</ele>
        <time>2020-07-09T06:36:45Z</time>
      </trkpt>
      <trkpt lat="49.698144" lon="6.57009">
        <ele>182.0</ele>
        <time>2020-07-09T06:36:47Z</time>
      </trkpt>
      <trkpt lat="49.698142" lon="6.569997">
        <ele>183.0</ele>
        <time>2020-07-09T06:36:49Z</time>
      </trkpt>
      <trkpt lat="49.69814" lon="6.569913">
        <ele>183.0</ele>
        <time>2020-07-09T06:36:51Z</time>
      </trkpt>
      <trkpt lat="49.698137" lon="6.569814">
        <ele>184.0</ele>
        <time>2020-07-09T06:36:53Z</time>
      </trkpt>
      <trkpt lat="49.698135" lon="6.569712">
        <ele>184.0</ele>
        <time>2020-07-09T06:36:55Z</time>
      </trkpt>
      <trkpt lat="49.698141" lon="6.569599">
        <ele>184.0</ele>
        <time>2020-07-09T06:36:57Z</time>
      </trkpt>
      <trkpt lat="49.698136" lon="6.56947">
        <ele>185.0</ele>
        <time>2020-07-09T06:36:59Z</time>
      </trkpt>
      <trkpt lat="49.698131" lon="6.569346">
        <ele>185.0</ele>
        <time>2020-07-09T06:37:01Z</time>
      </trkpt>
      <trkpt lat="49.698125" lon="6.569206">
        <ele>185.0</ele>
        <time>2020-07-09T06:37:03Z</time>
      </trkpt>
      <trkpt lat="49.698132" lon="6.569072">
        <ele>185.0</ele>
        <time>2020-07-09T06:37:05Z</time>
      </trkpt>
      <trkpt lat="49.698132" lon="6.568925">
        <ele>184.0</ele>
        <time>2020-07-09T06:37:07Z</time>
      </trkpt>
      <trkpt lat="49.698125" lon="6.568772">
        <ele>184.0</ele>
        <time>2020-07-09T06:37:09Z</time>
      </trkpt>
      <trkpt lat="49.698124" lon="6.568606">
        <ele>183.0</ele>
        <time>2020-07-09T06:37:11Z</time>
      </trkpt>
      <trkpt lat="49.698108" lon="6.568422">
        <ele>183.0</ele>
        <time>2020-07-09T06:37:13Z</time>
      </trkpt>
      <trkpt lat="49.698073" lon="6.568247">
        <ele>183.0</ele>
        <time>2020-07-09T06:37:15Z</time>
      </trkpt>
      <trkpt lat="49.698042" lon="6.568105">
        <ele>183.0</ele>
        <time>2020-07-09T06:37:17Z</time>
      </trkpt>
      <trkpt lat="49.69802" lon="6.568014">
        <ele>183.0</ele>
        <time>2020-07-09T06:37:19Z</time>
      </trkpt>
      <trkpt lat="49.69801" lon="6.567958">
        <ele>183.0</ele>
        <time>2020-07-09T06:37:21Z</time>
      </trkpt>
      <trkpt lat="49.698003" lon="6.567912">
        <ele>183.0</ele>
        <time>2020-07-09T06:37:23Z</time>
      </trkpt>
      <trkpt lat="49.697985" lon="6.567875">
        <ele>183.0</ele>
        <time>2020-07-09T06:37:25Z</time>
      </trkpt>
      <trkpt lat="49.697959" lon="6.567843">
        <ele>183.0</ele>
        <time>2020-07-09T06:37:27Z</time>
      </trkpt>
      <trkpt lat="49.697914" lon="6.567868">
        <ele>183.0</ele>
        <time>2020-07-09T06:37:29Z</time>
      </trkpt>
      <trkpt lat="49.697872" lon="6.567942">
        <ele>182.0</ele>
        <time>2020-07-09T06:37:31Z</time>
      </trkpt>
      <trkpt lat="49.697835" lon="6.568063">
        <ele>182.0</ele>
        <time>2020-07-09T06:37:33Z</time>
      </trkpt>
      <trkpt lat="49.697847" lon="6.568194">
        <ele>183.0</ele>
        <time>2020-07-09T06:37:35Z</time>
      </trkpt>
      <trkpt lat="49.697881" lon="6.568346">
        <ele>183.0</ele>
        <time>2020-07-09T06:37:37Z</time>
      </trkpt>
      <trkpt lat="49.697915" lon="6.568504">
        <ele>183.0</ele>
        <time>2020-07-09T06:37:39Z</time>
      </trkpt>
      <trkpt lat="49.697936" lon="6.568689">
        <ele>182.0</ele>
        <time>2020-07-09T06:37:41Z</time>
      </trkpt>
      <trkpt lat="49.697889" lon="6.568814">
        <ele>182.0</ele>
        <time>2020-07-09T06:37:43Z</time>
      </trkpt>
      <trkpt lat="49.69779" lon="6.568839">
        <ele>181.0</ele>
        <time>2020-07-09T06:37:45Z</time>
      </trkpt>
      <trkpt lat="49.697686" lon="6.568814">
        <ele>180.0</ele>
        <time>2020-07-09T06:37:47Z</time>
      </trkpt>
      <trkpt lat="49.697578" lon="6.568803">
        <ele>179.0</ele>
        <time>2020-07-09T06:37:49Z</time>
      </trkpt>
      <trkpt lat="49.69748" lon="6.56879">
        <ele>180.0</ele>
        <time>2020-07-09T06:37:51Z</time>
      </trkpt>
      <trkpt lat="49.697378" lon="6.56878">
        <ele>179.0</ele>
        <time>2020-07-09T06:37:53Z</time>
      </trkpt>
      <trkpt lat="49.697273" lon="6.568775">
        <ele>179.0</ele>
        <time>2020-07-09T06:37:55Z</time>
      </trkpt>
      <trkpt lat="49.697166" lon="6.568772">
        <ele>179.0</ele>
        <time>2020-07-09T06:37:57Z</time>
      </trkpt>
      <trkpt lat="49.697061" lon="6.568752">
        <ele>179.0</ele>
        <time>2020-07-09T06:37:59Z</time>
      </trkpt>
      <trkpt lat="49.696957" lon="6.568734">
        <ele>179.0</ele>
        <time>2020-07-09T06:38:01Z</time>
      </trkpt>
      <trkpt lat="49.696851" lon="6.568713">
        <ele>179.0</ele>
        <time>2020-07-09T06:38:03Z</time>
      </trkpt>
      <trkpt lat="49.696744" lon="6.568709">
        <ele>179.0</ele>
        <time>2020-07-09T06:38:05Z</time>
      </trkpt>
      <trkpt lat="49.696638" lon="6.568693">
        <ele>178.0</ele>
        <time>2020-07-09T06:38:07Z</time>
      </trkpt>
      <trkpt lat="49.696536" lon="6.568671">
        <ele>178.0</ele>
        <time>2020-07-09T06:38:09Z</time>
      </trkpt>
      <trkpt lat="49.696425" lon="6.568657">
        <ele>178.0</ele>
        <time>2020-07-09T06:38:11Z</time>
      </trkpt>
      <trkpt lat="49.696311" lon="6.568639">
        <ele>178.0</ele>
        <time>2020-07-09T06:38:13Z</time>
      </trkpt>
      <trkpt lat="49.696203" lon="6.568613">
        <ele>178.0</ele>
        <time>2020-07-09T06:38:15Z</time>
      </trkpt>
      <trkpt lat="49.696095" lon="6.568576">
        <ele>179.0</ele>
        <time>2020-07-09T06:38:17Z</time>
      </trkpt>
      <trkpt lat="49.695984" lon="6.568542">
        <ele>179.0</ele>
        <time>2020-07-09T06:38:19Z</time>
      </trkpt>
      <trkpt lat="49.695872" lon="6.568503">
        <ele>179.0</ele>
        <time>2020-07-09T06:38:21Z</time>
      </trkpt>
      <trkpt lat="49.69576" lon="6.568478">
        <ele>179.0</ele>
        <time>2020-07-09T06:38:23Z</time>
      </trkpt>
      <trkpt lat="49.695649" lon="6.568446">
        <ele>179.0</ele>
        <time>2020-07-09T06:38:25Z</time>
      </trkpt>
      <trkpt lat="49.695545" lon="6.568418">
        <ele>179.0</ele>
        <time>2020-07-09T06:38:27Z</time>
      </trkpt>
      <trkpt lat="49.695467" lon="6.568347">
        <ele>179.0</ele>
        <time>2020-07-09T06:38:29Z</time>
      </trkpt>
      <trkpt lat="49.695455" lon="6.568206">
        <ele>179.0</ele>
        <time>2020-07-09T06:38:31Z</time>
      </trkpt>
      <trkpt lat="49.695448" lon="6.568083">
        <ele>180.0</ele>
        <time>2020-07-09T06:38:33Z</time>
      </trkpt>
      <trkpt lat="49.69543" lon="6.567969">
        <ele>180.0</ele>
        <time>2020-07-09T06:38:35Z</time>
      </trkpt>
      <trkpt lat="49.695386" lon="6.567884">
        <ele>180.0</ele>
        <time>2020-07-09T06:38:37Z</time>
      </trkpt>
      <trkpt lat="49.695314" lon="6.56784">
        <ele>180.0</ele>
        <time>2020-07-09T06:38:39Z</time>
      </trkpt>
      <trkpt lat="49.695229" lon="6.567794">
        <ele>180.0</ele>
        <time>2020-07-09T06:38:41Z</time>
      </trkpt>
      <trkpt lat="49.695129" lon="6.567731">
        <ele>180.0</ele>
        <time>2020-07-09T06:38:43Z</time>
      </trkpt>
      <trkpt lat="49.695036" lon="6.567686">
        <ele>179.0</ele>
        <time>2020-07-09T06:38:45Z</time>
      </trkpt>
      <trkpt lat="49.694956" lon="6.567626">
        <ele>179.0</ele>
        <time>2020-07-09T06:38:47Z</time>
      </trkpt>
      <trkpt lat="49.694859" lon="6.567559">
        <ele>179.0</ele>
        <time>2020-07-09T06:38:49Z</time>
      </trkpt>
      <trkpt lat="49.694703" lon="6.567469">
        <ele>179.0</ele>
        <time>2020-07-09T06:38:52Z</time>
      </trkpt>
      <trkpt lat="49.694597" lon="6.567413">
        <ele>179.0</ele>
        <time>2020-07-09T06:38:54Z</time>
      </trkpt>
      <trkpt lat="49.694491" lon="6.567354">
        <ele>178.0</ele>
        <time>2020-07-09T06:38:56Z</time>
      </trkpt>
      <trkpt lat="49.694389" lon="6.567294">
        <ele>178.0</ele>
        <time>2020-07-09T06:38:58Z</time>
      </trkpt>
      <trkpt lat="49.694296" lon="6.567241">
        <ele>179.0</ele>
        <time>2020-07-09T06:39:00Z</time>
      </trkpt>
      <trkpt lat="49.694197" lon="6.567195">
        <ele>179.0</ele>
        <time>2020-07-09T06:39:02Z</time>
      </trkpt>
      <trkpt lat="49.694097" lon="6.567152">
        <ele>179.0</ele>
        <time>2020-07-09T06:39:04Z</time>
      </trkpt>
      <trkpt lat="49.694001" lon="6.567096">
        <ele>179.0</ele>
        <time>2020-07-09T06:39:06Z</time>
      </trkpt>
      <trkpt lat="49.693909" lon="6.567036">
        <ele>179.0</ele>
        <time>2020-07-09T06:39:08Z</time>
      </trkpt>
      <trkpt lat="49.693814" lon="6.566971">
        <ele>178.0</ele>
        <time>2020-07-09T06:39:10Z</time>
      </trkpt>
      <trkpt lat="49.693718" lon="6.566905">
        <ele>178.0</ele>
        <time>2020-07-09T06:39:12Z</time>
      </trkpt>
      <trkpt lat="49.693621" lon="6.566845">
        <ele>178.0</ele>
        <time>2020-07-09T06:39:14Z</time>
      </trkpt>
      <trkpt lat="49.693524" lon="6.566783">
        <ele>178.0</ele>
        <time>2020-07-09T06:39:16Z</time>
      </trkpt>
      <trkpt lat="49.69341" lon="6.566707">
        <ele>179.0</ele>
        <time>2020-07-09T06:39:18Z</time>
      </trkpt>
      <trkpt lat="49.693313" lon="6.566641">
        <ele>178.0</ele>
        <time>2020-07-09T06:39:20Z</time>
      </trkpt>
      <trkpt lat="49.693219" lon="6.566573">
        <ele>178.0</ele>
        <time>2020-07-09T06:39:22Z</time>
      </trkpt>
      <trkpt lat="49.693128" lon="6.566509">
        <ele>179.0</ele>
        <time>2020-07-09T06:39:24Z</time>
      </trkpt>
      <trkpt lat="49.693033" lon="6.566457">
        <ele>179.0</ele>
        <time>2020-07-09T06:39:26Z</time>
      </trkpt>
      <trkpt lat="49.692936" lon="6.566408">
        <ele>178.0</ele>
        <time>2020-07-09T06:39:28Z</time>
      </trkpt>
      <trkpt lat="49.692847" lon="6.566371">
        <ele>177.0</ele>
        <time>2020-07-09T06:39:30Z</time>
      </trkpt>
      <trkpt lat="49.69274" lon="6.566313">
        <ele>177.0</ele>
        <time>2020-07-09T06:39:32Z</time>
      </trkpt>
      <trkpt lat="49.692626" lon="6.566258">
        <ele>176.0</ele>
        <time>2020-07-09T06:39:34Z</time>
      </trkpt>
      <trkpt lat="49.692515" lon="6.566206">
        <ele>177.0</ele>
        <time>2020-07-09T06:39:36Z</time>
      </trkpt>
      <trkpt lat="49.692407" lon="6.566145">
        <ele>178.0</ele>
        <time>2020-07-09T06:39:38Z</time>
      </trkpt>
      <trkpt lat="49.692311" lon="6.566081">
        <ele>178.0</ele>
        <time>2020-07-09T06:39:40Z</time>
      </trkpt>
      <trkpt lat="49.692215" lon="6.566028">
        <ele>178.0</ele>
        <time>2020-07-09T06:39:42Z</time>
      </trkpt>
      <trkpt lat="49.692128" lon="6.565959">
        <ele>178.0</ele>
        <time>2020-07-09T06:39:44Z</time>
      </trkpt>
      <trkpt lat="49.692038" lon="6.565894">
        <ele>178.0</ele>
        <time>2020-07-09T06:39:46Z</time>
      </trkpt>
      <trkpt lat="49.691938" lon="6.565845">
        <ele>178.0</ele>
        <time>2020-07-09T06:39:48Z</time>
      </trkpt>
      <trkpt lat="49.691839" lon="6.565783">
        <ele>178.0</ele>
        <time>2020-07-09T06:39:50Z</time>
      </trkpt>
      <trkpt lat="49.691764" lon="6.565692">
        <ele>177.0</ele>
        <time>2020-07-09T06:39:52Z</time>
      </trkpt>
      <trkpt lat="49.691725" lon="6.565552">
        <ele>177.0</ele>
        <time>2020-07-09T06:39:54Z</time>
      </trkpt>
      <trkpt lat="49.6917" lon="6.565401">
        <ele>177.0</ele>
        <time>2020-07-09T06:39:56Z</time>
      </trkpt>
      <trkpt lat="49.69164" lon="6.565289">
        <ele>177.0</ele>
        <time>2020-07-09T06:39:58Z</time>
      </trkpt>
      <trkpt lat="49.691534" lon="6.565235">
        <ele>177.0</ele>
        <time>2020-07-09T06:40:00Z</time>
      </trkpt>
      <trkpt lat="49.691435" lon="6.565202">
        <ele>177.0</ele>
        <time>2020-07-09T06:40:02Z</time>
      </trkpt>
      <trkpt lat="49.691336" lon="6.56518">
        <ele>177.0</ele>
        <time>2020-07-09T06:40:04Z</time>
      </trkpt>
      <trkpt lat="49.69125" lon="6.565152">
        <ele>177.0</ele>
        <time>2020-07-09T06:40:06Z</time>
      </trkpt>
      <trkpt lat="49.691152" lon="6.565126">
        <ele>177.0</ele>
        <time>2020-07-09T06:40:08Z</time>
      </trkpt>
      <trkpt lat="49.691041" lon="6.565088">
        <ele>177.0</ele>
        <time>2020-07-09T06:40:10Z</time>
      </trkpt>
      <trkpt lat="49.690943" lon="6.565064">
        <ele>177.0</ele>
        <time>2020-07-09T06:40:12Z</time>
      </trkpt>
      <trkpt lat="49.690844" lon="6.565032">
        <ele>177.0</ele>
        <time>2020-07-09T06:40:14Z</time>
      </trkpt>
      <trkpt lat="49.690746" lon="6.565006">
        <ele>177.0</ele>
        <time>2020-07-09T06:40:16Z</time>
      </trkpt>
      <trkpt lat="49.69064" lon="6.564979">
        <ele>177.0</ele>
        <time>2020-07-09T06:40:18Z</time>
      </trkpt>
      <trkpt lat="49.690532" lon="6.56495">
        <ele>177.0</ele>
        <time>2020-07-09T06:40:20Z</time>
      </trkpt>
      <trkpt lat="49.690433" lon="6.564913">
        <ele>177.0</ele>
        <time>2020-07-09T06:40:22Z</time>
      </trkpt>
      <trkpt lat="49.690344" lon="6.564889">
        <ele>178.0</ele>
        <time>2020-07-09T06:40:24Z</time>
      </trkpt>
      <trkpt lat="49.69025" lon="6.564863">
        <ele>178.0</ele>
        <time>2020-07-09T06:40:26Z</time>
      </trkpt>
      <trkpt lat="49.690149" lon="6.564836">
        <ele>178.0</ele>
        <time>2020-07-09T06:40:28Z</time>
      </trkpt>
      <trkpt lat="49.690052" lon="6.564809">
        <ele>179.0</ele>
        <time>2020-07-09T06:40:30Z</time>
      </trkpt>
      <trkpt lat="49.689951" lon="6.56478">
        <ele>178.0</ele>
        <time>2020-07-09T06:40:32Z</time>
      </trkpt>
      <trkpt lat="49.689848" lon="6.564755">
        <ele>178.0</ele>
        <time>2020-07-09T06:40:34Z</time>
      </trkpt>
      <trkpt lat="49.689744" lon="6.564727">
        <ele>179.0</ele>
        <time>2020-07-09T06:40:36Z</time>
      </trkpt>
      <trkpt lat="49.689645" lon="6.564703">
        <ele>179.0</ele>
        <time>2020-07-09T06:40:38Z</time>
      </trkpt>
      <trkpt lat="49.689544" lon="6.56468">
        <ele>179.0</ele>
        <time>2020-07-09T06:40:40Z</time>
      </trkpt>
      <trkpt lat="49.689444" lon="6.56465">
        <ele>179.0</ele>
        <time>2020-07-09T06:40:42Z</time>
      </trkpt>
      <trkpt lat="49.689347" lon="6.564623">
        <ele>179.0</ele>
        <time>2020-07-09T06:40:44Z</time>
      </trkpt>
      <trkpt lat="49.689248" lon="6.564592">
        <ele>179.0</ele>
        <time>2020-07-09T06:40:46Z</time>
      </trkpt>
      <trkpt lat="49.689148" lon="6.564573">
        <ele>179.0</ele>
        <time>2020-07-09T06:40:48Z</time>
      </trkpt>
      <trkpt lat="49.689045" lon="6.564551">
        <ele>180.0</ele>
        <time>2020-07-09T06:40:50Z</time>
      </trkpt>
      <trkpt lat="49.688944" lon="6.564538">
        <ele>180.0</ele>
        <time>2020-07-09T06:40:52Z</time>
      </trkpt>
      <trkpt lat="49.688852" lon="6.564512">
        <ele>180.0</ele>
        <time>2020-07-09T06:40:54Z</time>
      </trkpt>
      <trkpt lat="49.688761" lon="6.564508">
        <ele>181.0</ele>
        <time>2020-07-09T06:40:56Z</time>
      </trkpt>
      <trkpt lat="49.688669" lon="6.564543">
        <ele>180.0</ele>
        <time>2020-07-09T06:40:58Z</time>
      </trkpt>
      <trkpt lat="49.688585" lon="6.564611">
        <ele>180.0</ele>
        <time>2020-07-09T06:41:00Z</time>
      </trkpt>
      <trkpt lat="49.688511" lon="6.56466">
        <ele>180.0</ele>
        <time>2020-07-09T06:41:02Z</time>
      </trkpt>
      <trkpt lat="49.688456" lon="6.564748">
        <ele>180.0</ele>
        <time>2020-07-09T06:41:04Z</time>
      </trkpt>
      <trkpt lat="49.688434" lon="6.564875">
        <ele>180.0</ele>
        <time>2020-07-09T06:41:06Z</time>
      </trkpt>
      <trkpt lat="49.688434" lon="6.565036">
        <ele>180.0</ele>
        <time>2020-07-09T06:41:08Z</time>
      </trkpt>
      <trkpt lat="49.688473" lon="6.565193">
        <ele>180.0</ele>
        <time>2020-07-09T06:41:10Z</time>
      </trkpt>
      <trkpt lat="49.688514" lon="6.565354">
        <ele>179.0</ele>
        <time>2020-07-09T06:41:12Z</time>
      </trkpt>
      <trkpt lat="49.688452" lon="6.565509">
        <ele>178.0</ele>
        <time>2020-07-09T06:41:14Z</time>
      </trkpt>
      <trkpt lat="49.688334" lon="6.565576">
        <ele>178.0</ele>
        <time>2020-07-09T06:41:16Z</time>
      </trkpt>
      <trkpt lat="49.688223" lon="6.56556">
        <ele>178.0</ele>
        <time>2020-07-09T06:41:18Z</time>
      </trkpt>
      <trkpt lat="49.688112" lon="6.565557">
        <ele>179.0</ele>
        <time>2020-07-09T06:41:20Z</time>
      </trkpt>
      <trkpt lat="49.687998" lon="6.56556">
        <ele>178.0</ele>
        <time>2020-07-09T06:41:22Z</time>
      </trkpt>
      <trkpt lat="49.687888" lon="6.565558">
        <ele>178.0</ele>
        <time>2020-07-09T06:41:24Z</time>
      </trkpt>
      <trkpt lat="49.687781" lon="6.565562">
        <ele>178.0</ele>
        <time>2020-07-09T06:41:26Z</time>
      </trkpt>
      <trkpt lat="49.687609" lon="6.56558">
        <ele>178.0</ele>
        <time>2020-07-09T06:41:29Z</time>
      </trkpt>
      <trkpt lat="49.687493" lon="6.565587">
        <ele>177.0</ele>
        <time>2020-07-09T06:41:31Z</time>
      </trkpt>
      <trkpt lat="49.687378" lon="6.565595">
        <ele>178.0</ele>
        <time>2020-07-09T06:41:33Z</time>
      </trkpt>
      <trkpt lat="49.687269" lon="6.565608">
        <ele>178.0</ele>
        <time>2020-07-09T06:41:35Z</time>
      </trkpt>
      <trkpt lat="49.687161" lon="6.565619">
        <ele>177.0</ele>
        <time>2020-07-09T06:41:37Z</time>
      </trkpt>
      <trkpt lat="49.687054" lon="6.565627">
        <ele>177.0</ele>
        <time>2020-07-09T06:41:39Z</time>
      </trkpt>
      <trkpt lat="49.686939" lon="6.565637">
        <ele>178.0</ele>
        <time>2020-07-09T06:41:41Z</time>
      </trkpt>
      <trkpt lat="49.686829" lon="6.565651">
        <ele>178.0</ele>
        <time>2020-07-09T06:41:43Z</time>
      </trkpt>
      <trkpt lat="49.686722" lon="6.565659">
        <ele>178.0</ele>
        <time>2020-07-09T06:41:45Z</time>
      </trkpt>
      <trkpt lat="49.686615" lon="6.565666">
        <ele>178.0</ele>
        <time>2020-07-09T06:41:47Z</time>
      </trkpt>
      <trkpt lat="49.686498" lon="6.565665">
        <ele>179.0</ele>
        <time>2020-07-09T06:41:49Z</time>
      </trkpt>
      <trkpt lat="49.686396" lon="6.565679">
        <ele>178.0</ele>
        <time>2020-07-09T06:41:51Z</time>
      </trkpt>
      <trkpt lat="49.686293" lon="6.56569">
        <ele>178.0</ele>
        <time>2020-07-09T06:41:53Z</time>
      </trkpt>
      <trkpt lat="49.686189" lon="6.565704">
        <ele>178.0</ele>
        <time>2020-07-09T06:41:55Z</time>
      </trkpt>
      <trkpt lat="49.686085" lon="6.565706">
        <ele>178.0</ele>
        <time>2020-07-09T06:41:57Z</time>
      </trkpt>
      <trkpt lat="49.685987" lon="6.565699">
        <ele>179.0</ele>
        <time>2020-07-09T06:41:59Z</time>
      </trkpt>
      <trkpt lat="49.685887" lon="6.565699">
        <ele>178.0</ele>
        <time>2020-07-09T06:42:01Z</time>
      </trkpt>
      <trkpt lat="49.685783" lon="6.565711">
        <ele>178.0</ele>
        <time>2020-07-09T06:42:03Z</time>
      </trkpt>
      <trkpt lat="49.68568" lon="6.565723">
        <ele>179.0</ele>
        <time>2020-07-09T06:42:05Z</time>
      </trkpt>
      <trkpt lat="49.685579" lon="6.565723">
        <ele>179.0</ele>
        <time>2020-07-09T06:42:07Z</time>
      </trkpt>
      <trkpt lat="49.685469" lon="6.565735">
        <ele>178.0</ele>
        <time>2020-07-09T06:42:09Z</time>
      </trkpt>
      <trkpt lat="49.685362" lon="6.565739">
        <ele>178.0</ele>
        <time>2020-07-09T06:42:11Z</time>
      </trkpt>
      <trkpt lat="49.685254" lon="6.565753">
        <ele>178.0</ele>
        <time>2020-07-09T06:42:13Z</time>
      </trkpt>
      <trkpt lat="49.685155" lon="6.565764">
        <ele>177.0</ele>
        <time>2020-07-09T06:42:15Z</time>
      </trkpt>
      <trkpt lat="49.68506" lon="6.565761">
        <ele>177.0</ele>
        <time>2020-07-09T06:42:17Z</time>
      </trkpt>
      <trkpt lat="49.68496" lon="6.565749">
        <ele>177.0</ele>
        <time>2020-07-09T06:42:19Z</time>
      </trkpt>
      <trkpt lat="49.68486" lon="6.565749">
        <ele>177.0</ele>
        <time>2020-07-09T06:42:21Z</time>
      </trkpt>
      <trkpt lat="49.684757" lon="6.565757">
        <ele>178.0</ele>
        <time>2020-07-09T06:42:23Z</time>
      </trkpt>
      <trkpt lat="49.684658" lon="6.565759">
        <ele>178.0</ele>
        <time>2020-07-09T06:42:25Z</time>
      </trkpt>
      <trkpt lat="49.684552" lon="6.565756">
        <ele>178.0</ele>
        <time>2020-07-09T06:42:27Z</time>
      </trkpt>
      <trkpt lat="49.684443" lon="6.565759">
        <ele>178.0</ele>
        <time>2020-07-09T06:42:29Z</time>
      </trkpt>
      <trkpt lat="49.684337" lon="6.565764">
        <ele>178.0</ele>
        <time>2020-07-09T06:42:31Z</time>
      </trkpt>
      <trkpt lat="49.684234" lon="6.56576">
        <ele>178.0</ele>
        <time>2020-07-09T06:42:33Z</time>
      </trkpt>
      <trkpt lat="49.684127" lon="6.565746">
        <ele>178.0</ele>
        <time>2020-07-09T06:42:35Z</time>
      </trkpt>
      <trkpt lat="49.684017" lon="6.565734">
        <ele>178.0</ele>
        <time>2020-07-09T06:42:37Z</time>
      </trkpt>
      <trkpt lat="49.683908" lon="6.565725">
        <ele>178.0</ele>
        <time>2020-07-09T06:42:39Z</time>
      </trkpt>
      <trkpt lat="49.683803" lon="6.56572">
        <ele>178.0</ele>
        <time>2020-07-09T06:42:41Z</time>
      </trkpt>
      <trkpt lat="49.683703" lon="6.565721">
        <ele>178.0</ele>
        <time>2020-07-09T06:42:43Z</time>
      </trkpt>
      <trkpt lat="49.683598" lon="6.565716">
        <ele>178.0</ele>
        <time>2020-07-09T06:42:45Z</time>
      </trkpt>
      <trkpt lat="49.683492" lon="6.565696">
        <ele>179.0</ele>
        <time>2020-07-09T06:42:47Z</time>
      </trkpt>
      <trkpt lat="49.683387" lon="6.565683">
        <ele>178.0</ele>
        <time>2020-07-09T06:42:49Z</time>
      </trkpt>
      <trkpt lat="49.683286" lon="6.565663">
        <ele>179.0</ele>
        <time>2020-07-09T06:42:51Z</time>
      </trkpt>
      <trkpt lat="49.68318" lon="6.565651">
        <ele>179.0</ele>
        <time>2020-07-09T06:42:53Z</time>
      </trkpt>
      <trkpt lat="49.68308" lon="6.565623">
        <ele>179.0</ele>
        <time>2020-07-09T06:42:55Z</time>
      </trkpt>
      <trkpt lat="49.682973" lon="6.565604">
        <ele>179.0</ele>
        <time>2020-07-09T06:42:57Z</time>
      </trkpt>
      <trkpt lat="49.682863" lon="6.565578">
        <ele>179.0</ele>
        <time>2020-07-09T06:42:59Z</time>
      </trkpt>
      <trkpt lat="49.68276" lon="6.565563">
        <ele>179.0</ele>
        <time>2020-07-09T06:43:01Z</time>
      </trkpt>
      <trkpt lat="49.682656" lon="6.565535">
        <ele>179.0</ele>
        <time>2020-07-09T06:43:03Z</time>
      </trkpt>
      <trkpt lat="49.682552" lon="6.565504">
        <ele>178.0</ele>
        <time>2020-07-09T06:43:05Z</time>
      </trkpt>
      <trkpt lat="49.682443" lon="6.565476">
        <ele>178.0</ele>
        <time>2020-07-09T06:43:07Z</time>
      </trkpt>
      <trkpt lat="49.682338" lon="6.565452">
        <ele>178.0</ele>
        <time>2020-07-09T06:43:09Z</time>
      </trkpt>
      <trkpt lat="49.682231" lon="6.565426">
        <ele>179.0</ele>
        <time>2020-07-09T06:43:11Z</time>
      </trkpt>
      <trkpt lat="49.682129" lon="6.565407">
        <ele>179.0</ele>
        <time>2020-07-09T06:43:13Z</time>
      </trkpt>
      <trkpt lat="49.682035" lon="6.565384">
        <ele>179.0</ele>
        <time>2020-07-09T06:43:15Z</time>
      </trkpt>
      <trkpt lat="49.681932" lon="6.565347">
        <ele>180.0</ele>
        <time>2020-07-09T06:43:17Z</time>
      </trkpt>
      <trkpt lat="49.681828" lon="6.565311">
        <ele>180.0</ele>
        <time>2020-07-09T06:43:19Z</time>
      </trkpt>
      <trkpt lat="49.681727" lon="6.565273">
        <ele>180.0</ele>
        <time>2020-07-09T06:43:21Z</time>
      </trkpt>
      <trkpt lat="49.681624" lon="6.565235">
        <ele>180.0</ele>
        <time>2020-07-09T06:43:23Z</time>
      </trkpt>
      <trkpt lat="49.681521" lon="6.56519">
        <ele>179.0</ele>
        <time>2020-07-09T06:43:25Z</time>
      </trkpt>
      <trkpt lat="49.68141" lon="6.565151">
        <ele>179.0</ele>
        <time>2020-07-09T06:43:27Z</time>
      </trkpt>
      <trkpt lat="49.681303" lon="6.565108">
        <ele>179.0</ele>
        <time>2020-07-09T06:43:29Z</time>
      </trkpt>
      <trkpt lat="49.681202" lon="6.565066">
        <ele>179.0</ele>
        <time>2020-07-09T06:43:31Z</time>
      </trkpt>
      <trkpt lat="49.681105" lon="6.56502">
        <ele>179.0</ele>
        <time>2020-07-09T06:43:33Z</time>
      </trkpt>
      <trkpt lat="49.681002" lon="6.564974">
        <ele>178.0</ele>
        <time>2020-07-09T06:43:35Z</time>
      </trkpt>
      <trkpt lat="49.680902" lon="6.564924">
        <ele>178.0</ele>
        <time>2020-07-09T06:43:37Z</time>
      </trkpt>
      <trkpt lat="49.680803" lon="6.564874">
        <ele>178.0</ele>
        <time>2020-07-09T06:43:39Z</time>
      </trkpt>
      <trkpt lat="49.680707" lon="6.564826">
        <ele>178.0</ele>
        <time>2020-07-09T06:43:41Z</time>
      </trkpt>
      <trkpt lat="49.680612" lon="6.564781">
        <ele>179.0</ele>
        <time>2020-07-09T06:43:43Z</time>
      </trkpt>
      <trkpt lat="49.680518" lon="6.564738">
        <ele>179.0</ele>
        <time>2020-07-09T06:43:45Z</time>
      </trkpt>
      <trkpt lat="49.680419" lon="6.564688">
        <ele>179.0</ele>
        <time>2020-07-09T06:43:47Z</time>
      </trkpt>
      <trkpt lat="49.680319" lon="6.564634">
        <ele>179.0</ele>
        <time>2020-07-09T06:43:49Z</time>
      </trkpt>
      <trkpt lat="49.680224" lon="6.564577">
        <ele>178.0</ele>
        <time>2020-07-09T06:43:51Z</time>
      </trkpt>
      <trkpt lat="49.680127" lon="6.564524">
        <ele>178.0</ele>
        <time>2020-07-09T06:43:53Z</time>
      </trkpt>
      <trkpt lat="49.680033" lon="6.564489">
        <ele>178.0</ele>
        <time>2020-07-09T06:43:55Z</time>
      </trkpt>
      <trkpt lat="49.679942" lon="6.564444">
        <ele>177.0</ele>
        <time>2020-07-09T06:43:57Z</time>
      </trkpt>
      <trkpt lat="49.67984" lon="6.564387">
        <ele>176.0</ele>
        <time>2020-07-09T06:43:59Z</time>
      </trkpt>
      <trkpt lat="49.679742" lon="6.564331">
        <ele>176.0</ele>
        <time>2020-07-09T06:44:01Z</time>
      </trkpt>
      <trkpt lat="49.679646" lon="6.564275">
        <ele>177.0</ele>
        <time>2020-07-09T06:44:03Z</time>
      </trkpt>
      <trkpt lat="49.679548" lon="6.564225">
        <ele>176.0</ele>
        <time>2020-07-09T06:44:05Z</time>
      </trkpt>
      <trkpt lat="49.679451" lon="6.564169">
        <ele>177.0</ele>
        <time>2020-07-09T06:44:07Z</time>
      </trkpt>
      <trkpt lat="49.679356" lon="6.564115">
        <ele>176.0</ele>
        <time>2020-07-09T06:44:09Z</time>
      </trkpt>
      <trkpt lat="49.679263" lon="6.564068">
        <ele>176.0</ele>
        <time>2020-07-09T06:44:11Z</time>
      </trkpt>
      <trkpt lat="49.679172" lon="6.564014">
        <ele>177.0</ele>
        <time>2020-07-09T06:44:13Z</time>
      </trkpt>
      <trkpt lat="49.679069" lon="6.563962">
        <ele>177.0</ele>
        <time>2020-07-09T06:44:15Z</time>
      </trkpt>
      <trkpt lat="49.678967" lon="6.563909">
        <ele>177.0</ele>
        <time>2020-07-09T06:44:17Z</time>
      </trkpt>
      <trkpt lat="49.678821" lon="6.563848">
        <ele>178.0</ele>
        <time>2020-07-09T06:44:20Z</time>
      </trkpt>
      <trkpt lat="49.678741" lon="6.563795">
        <ele>178.0</ele>
        <time>2020-07-09T06:44:22Z</time>
      </trkpt>
      <trkpt lat="49.67866" lon="6.563729">
        <ele>177.0</ele>
        <time>2020-07-09T06:44:24Z</time>
      </trkpt>
      <trkpt lat="49.67857" lon="6.563671">
        <ele>177.0</ele>
        <time>2020-07-09T06:44:26Z</time>
      </trkpt>
      <trkpt lat="49.678475" lon="6.563607">
        <ele>177.0</ele>
        <time>2020-07-09T06:44:28Z</time>
      </trkpt>
      <trkpt lat="49.678373" lon="6.563546">
        <ele>177.0</ele>
        <time>2020-07-09T06:44:30Z</time>
      </trkpt>
      <trkpt lat="49.678276" lon="6.563475">
        <ele>177.0</ele>
        <time>2020-07-09T06:44:32Z</time>
      </trkpt>
      <trkpt lat="49.678172" lon="6.563411">
        <ele>177.0</ele>
        <time>2020-07-09T06:44:34Z</time>
      </trkpt>
      <trkpt lat="49.678078" lon="6.563357">
        <ele>177.0</ele>
        <time>2020-07-09T06:44:36Z</time>
      </trkpt>
      <trkpt lat="49.677985" lon="6.563301">
        <ele>177.0</ele>
        <time>2020-07-09T06:44:38Z</time>
      </trkpt>
      <trkpt lat="49.677895" lon="6.563232">
        <ele>178.0</ele>
        <time>2020-07-09T06:44:40Z</time>
      </trkpt>
      <trkpt lat="49.677796" lon="6.563168">
        <ele>178.0</ele>
        <time>2020-07-09T06:44:42Z</time>
      </trkpt>
      <trkpt lat="49.677699" lon="6.563104">
        <ele>178.0</ele>
        <time>2020-07-09T06:44:44Z</time>
      </trkpt>
      <trkpt lat="49.677603" lon="6.563037">
        <ele>178.0</ele>
        <time>2020-07-09T06:44:46Z</time>
      </trkpt>
      <trkpt lat="49.677507" lon="6.562976">
        <ele>178.0</ele>
        <time>2020-07-09T06:44:48Z</time>
      </trkpt>
      <trkpt lat="49.677411" lon="6.562912">
        <ele>178.0</ele>
        <time>2020-07-09T06:44:50Z</time>
      </trkpt>
      <trkpt lat="49.677315" lon="6.562842">
        <ele>178.0</ele>
        <time>2020-07-09T06:44:52Z</time>
      </trkpt>
      <trkpt lat="49.677217" lon="6.562772">
        <ele>178.0</ele>
        <time>2020-07-09T06:44:54Z</time>
      </trkpt>
      <trkpt lat="49.677121" lon="6.562709">
        <ele>179.0</ele>
        <time>2020-07-09T06:44:56Z</time>
      </trkpt>
      <trkpt lat="49.677026" lon="6.562639">
        <ele>179.0</ele>
        <time>2020-07-09T06:44:58Z</time>
      </trkpt>
      <trkpt lat="49.676927" lon="6.562571">
        <ele>179.0</ele>
        <time>2020-07-09T06:45:00Z</time>
      </trkpt>
      <trkpt lat="49.676833" lon="6.562499">
        <ele>179.0</ele>
        <time>2020-07-09T06:45:02Z</time>
      </trkpt>
      <trkpt lat="49.676736" lon="6.562431">
        <ele>179.0</ele>
        <time>2020-07-09T06:45:04Z</time>
      </trkpt>
      <trkpt lat="49.676645" lon="6.562361">
        <ele>179.0</ele>
        <time>2020-07-09T06:45:06Z</time>
      </trkpt>
      <trkpt lat="49.676552" lon="6.562294">
        <ele>179.0</ele>
        <time>2020-07-09T06:45:08Z</time>
      </trkpt>
      <trkpt lat="49.676464" lon="6.562225">
        <ele>178.0</ele>
        <time>2020-07-09T06:45:10Z</time>
      </trkpt>
      <trkpt lat="49.676371" lon="6.562159">
        <ele>178.0</ele>
        <time>2020-07-09T06:45:12Z</time>
      </trkpt>
      <trkpt lat="49.676278" lon="6.562085">
        <ele>178.0</ele>
        <time>2020-07-09T06:45:14Z</time>
      </trkpt>
      <trkpt lat="49.676186" lon="6.562014">
        <ele>178.0</ele>
        <time>2020-07-09T06:45:16Z</time>
      </trkpt>
      <trkpt lat="49.676096" lon="6.561937">
        <ele>178.0</ele>
        <time>2020-07-09T06:45:18Z</time>
      </trkpt>
      <trkpt lat="49.676008" lon="6.56184">
        <ele>179.0</ele>
        <time>2020-07-09T06:45:20Z</time>
      </trkpt>
      <trkpt lat="49.675934" lon="6.561736">
        <ele>179.0</ele>
        <time>2020-07-09T06:45:22Z</time>
      </trkpt>
      <trkpt lat="49.675863" lon="6.561624">
        <ele>179.0</ele>
        <time>2020-07-09T06:45:24Z</time>
      </trkpt>
      <trkpt lat="49.675791" lon="6.561514">
        <ele>178.0</ele>
        <time>2020-07-09T06:45:26Z</time>
      </trkpt>
      <trkpt lat="49.675721" lon="6.56141">
        <ele>178.0</ele>
        <time>2020-07-09T06:45:28Z</time>
      </trkpt>
      <trkpt lat="49.675636" lon="6.561308">
        <ele>178.0</ele>
        <time>2020-07-09T06:45:30Z</time>
      </trkpt>
      <trkpt lat="49.675554" lon="6.561218">
        <ele>177.0</ele>
        <time>2020-07-09T06:45:32Z</time>
      </trkpt>
      <trkpt lat="49.675466" lon="6.561129">
        <ele>177.0</ele>
        <time>2020-07-09T06:45:34Z</time>
      </trkpt>
      <trkpt lat="49.675382" lon="6.561046">
        <ele>177.0</ele>
        <time>2020-07-09T06:45:36Z</time>
      </trkpt>
      <trkpt lat="49.675299" lon="6.560972">
        <ele>178.0</ele>
        <time>2020-07-09T06:45:38Z</time>
      </trkpt>
      <trkpt lat="49.675208" lon="6.560889">
        <ele>178.0</ele>
        <time>2020-07-09T06:45:40Z</time>
      </trkpt>
      <trkpt lat="49.675117" lon="6.56081">
        <ele>178.0</ele>
        <time>2020-07-09T06:45:42Z</time>
      </trkpt>
      <trkpt lat="49.675025" lon="6.560733">
        <ele>179.0</ele>
        <time>2020-07-09T06:45:44Z</time>
      </trkpt>
      <trkpt lat="49.674931" lon="6.560661">
        <ele>179.0</ele>
        <time>2020-07-09T06:45:46Z</time>
      </trkpt>
      <trkpt lat="49.674844" lon="6.560588">
        <ele>179.0</ele>
        <time>2020-07-09T06:45:48Z</time>
      </trkpt>
      <trkpt lat="49.674758" lon="6.560512">
        <ele>179.0</ele>
        <time>2020-07-09T06:45:50Z</time>
      </trkpt>
      <trkpt lat="49.674672" lon="6.560433">
        <ele>179.0</ele>
        <time>2020-07-09T06:45:52Z</time>
      </trkpt>
      <trkpt lat="49.674588" lon="6.560356">
        <ele>178.0</ele>
        <time>2020-07-09T06:45:54Z</time>
      </trkpt>
      <trkpt lat="49.674499" lon="6.560275">
        <ele>178.0</ele>
        <time>2020-07-09T06:45:56Z</time>
      </trkpt>
      <trkpt lat="49.674413" lon="6.560201">
        <ele>178.0</ele>
        <time>2020-07-09T06:45:58Z</time>
      </trkpt>
      <trkpt lat="49.674325" lon="6.560126">
        <ele>177.0</ele>
        <time>2020-07-09T06:46:00Z</time>
      </trkpt>
      <trkpt lat="49.674234" lon="6.56005">
        <ele>177.0</ele>
        <time>2020-07-09T06:46:02Z</time>
      </trkpt>
      <trkpt lat="49.674137" lon="6.559967">
        <ele>177.0</ele>
        <time>2020-07-09T06:46:04Z</time>
      </trkpt>
      <trkpt lat="49.674035" lon="6.55988">
        <ele>178.0</ele>
        <time>2020-07-09T06:46:06Z</time>
      </trkpt>
      <trkpt lat="49.673933" lon="6.559797">
        <ele>178.0</ele>
        <time>2020-07-09T06:46:08Z</time>
      </trkpt>
      <trkpt lat="49.673838" lon="6.55972">
        <ele>178.0</ele>
        <time>2020-07-09T06:46:10Z</time>
      </trkpt>
      <trkpt lat="49.67374" lon="6.559635">
        <ele>178.0</ele>
        <time>2020-07-09T06:46:12Z</time>
      </trkpt>
      <trkpt lat="49.673657" lon="6.559558">
        <ele>178.0</ele>
        <time>2020-07-09T06:46:14Z</time>
      </trkpt>
      <trkpt lat="49.673572" lon="6.559487">
        <ele>178.0</ele>
        <time>2020-07-09T06:46:16Z</time>
      </trkpt>
      <trkpt lat="49.673483" lon="6.559412">
        <ele>178.0</ele>
        <time>2020-07-09T06:46:18Z</time>
      </trkpt>
      <trkpt lat="49.67339" lon="6.559334">
        <ele>178.0</ele>
        <time>2020-07-09T06:46:20Z</time>
      </trkpt>
      <trkpt lat="49.6733" lon="6.559262">
        <ele>178.0</ele>
        <time>2020-07-09T06:46:22Z</time>
      </trkpt>
      <trkpt lat="49.6732" lon="6.559193">
        <ele>177.0</ele>
        <time>2020-07-09T06:46:24Z</time>
      </trkpt>
      <trkpt lat="49.673089" lon="6.559125">
        <ele>178.0</ele>
        <time>2020-07-09T06:46:26Z</time>
      </trkpt>
      <trkpt lat="49.672983" lon="6.559056">
        <ele>178.0</ele>
        <time>2020-07-09T06:46:28Z</time>
      </trkpt>
      <trkpt lat="49.672898" lon="6.558954">
        <ele>179.0</ele>
        <time>2020-07-09T06:46:30Z</time>
      </trkpt>
      <trkpt lat="49.672874" lon="6.558819">
        <ele>180.0</ele>
        <time>2020-07-09T06:46:32Z</time>
      </trkpt>
      <trkpt lat="49.672875" lon="6.558709">
        <ele>181.0</ele>
        <time>2020-07-09T06:46:34Z</time>
      </trkpt>
      <trkpt lat="49.672862" lon="6.558629">
        <ele>181.0</ele>
        <time>2020-07-09T06:46:36Z</time>
      </trkpt>
      <trkpt lat="49.672811" lon="6.55857">
        <ele>180.0</ele>
        <time>2020-07-09T06:46:38Z</time>
      </trkpt>
      <trkpt lat="49.672737" lon="6.558527">
        <ele>180.0</ele>
        <time>2020-07-09T06:46:40Z</time>
      </trkpt>
      <trkpt lat="49.672646" lon="6.558482">
        <ele>179.0</ele>
        <time>2020-07-09T06:46:42Z</time>
      </trkpt>
      <trkpt lat="49.672555" lon="6.558424">
        <ele>179.0</ele>
        <time>2020-07-09T06:46:44Z</time>
      </trkpt>
      <trkpt lat="49.672462" lon="6.558352">
        <ele>179.0</ele>
        <time>2020-07-09T06:46:46Z</time>
      </trkpt>
      <trkpt lat="49.672362" lon="6.55828">
        <ele>179.0</ele>
        <time>2020-07-09T06:46:48Z</time>
      </trkpt>
      <trkpt lat="49.672264" lon="6.558212">
        <ele>180.0</ele>
        <time>2020-07-09T06:46:50Z</time>
      </trkpt>
      <trkpt lat="49.672169" lon="6.558144">
        <ele>180.0</ele>
        <time>2020-07-09T06:46:52Z</time>
      </trkpt>
      <trkpt lat="49.672071" lon="6.558079">
        <ele>181.0</ele>
        <time>2020-07-09T06:46:54Z</time>
      </trkpt>
      <trkpt lat="49.671975" lon="6.558008">
        <ele>181.0</ele>
        <time>2020-07-09T06:46:56Z</time>
      </trkpt>
      <trkpt lat="49.671881" lon="6.557922">
        <ele>181.0</ele>
        <time>2020-07-09T06:46:58Z</time>
      </trkpt>
      <trkpt lat="49.671788" lon="6.557844">
        <ele>181.0</ele>
        <time>2020-07-09T06:47:00Z</time>
      </trkpt>
      <trkpt lat="49.671701" lon="6.557776">
        <ele>181.0</ele>
        <time>2020-07-09T06:47:02Z</time>
      </trkpt>
      <trkpt lat="49.671609" lon="6.557697">
        <ele>181.0</ele>
        <time>2020-07-09T06:47:04Z</time>
      </trkpt>
      <trkpt lat="49.671514" lon="6.557617">
        <ele>180.0</ele>
        <time>2020-07-09T06:47:06Z</time>
      </trkpt>
      <trkpt lat="49.67142" lon="6.557538">
        <ele>180.0</ele>
        <time>2020-07-09T06:47:08Z</time>
      </trkpt>
      <trkpt lat="49.671325" lon="6.557458">
        <ele>180.0</ele>
        <time>2020-07-09T06:47:10Z</time>
      </trkpt>
      <trkpt lat="49.671234" lon="6.557388">
        <ele>180.0</ele>
        <time>2020-07-09T06:47:12Z</time>
      </trkpt>
      <trkpt lat="49.671141" lon="6.55731">
        <ele>179.0</ele>
        <time>2020-07-09T06:47:14Z</time>
      </trkpt>
      <trkpt lat="49.671002" lon="6.557193">
        <ele>179.0</ele>
        <time>2020-07-09T06:47:17Z</time>
      </trkpt>
      <trkpt lat="49.670915" lon="6.557108">
        <ele>179.0</ele>
        <time>2020-07-09T06:47:19Z</time>
      </trkpt>
      <trkpt lat="49.670821" lon="6.557027">
        <ele>179.0</ele>
        <time>2020-07-09T06:47:21Z</time>
      </trkpt>
      <trkpt lat="49.67073" lon="6.556949">
        <ele>179.0</ele>
        <time>2020-07-09T06:47:23Z</time>
      </trkpt>
      <trkpt lat="49.670638" lon="6.556875">
        <ele>179.0</ele>
        <time>2020-07-09T06:47:25Z</time>
      </trkpt>
      <trkpt lat="49.670542" lon="6.556804">
        <ele>179.0</ele>
        <time>2020-07-09T06:47:27Z</time>
      </trkpt>
      <trkpt lat="49.670449" lon="6.556727">
        <ele>179.0</ele>
        <time>2020-07-09T06:47:29Z</time>
      </trkpt>
      <trkpt lat="49.670357" lon="6.55665">
        <ele>179.0</ele>
        <time>2020-07-09T06:47:31Z</time>
      </trkpt>
      <trkpt lat="49.670261" lon="6.556569">
        <ele>179.0</ele>
        <time>2020-07-09T06:47:33Z</time>
      </trkpt>
      <trkpt lat="49.670171" lon="6.556509">
        <ele>179.0</ele>
        <time>2020-07-09T06:47:35Z</time>
      </trkpt>
      <trkpt lat="49.670079" lon="6.556439">
        <ele>179.0</ele>
        <time>2020-07-09T06:47:37Z</time>
      </trkpt>
      <trkpt lat="49.669988" lon="6.556366">
        <ele>179.0</ele>
        <time>2020-07-09T06:47:39Z</time>
      </trkpt>
      <trkpt lat="49.669902" lon="6.556289">
        <ele>179.0</ele>
        <time>2020-07-09T06:47:41Z</time>
      </trkpt>
      <trkpt lat="49.669807" lon="6.556217">
        <ele>179.0</ele>
        <time>2020-07-09T06:47:43Z</time>
      </trkpt>
      <trkpt lat="49.669715" lon="6.556143">
        <ele>179.0</ele>
        <time>2020-07-09T06:47:45Z</time>
      </trkpt>
      <trkpt lat="49.669629" lon="6.556073">
        <ele>179.0</ele>
        <time>2020-07-09T06:47:47Z</time>
      </trkpt>
      <trkpt lat="49.669546" lon="6.556007">
        <ele>179.0</ele>
        <time>2020-07-09T06:47:49Z</time>
      </trkpt>
      <trkpt lat="49.669456" lon="6.555937">
        <ele>180.0</ele>
        <time>2020-07-09T06:47:51Z</time>
      </trkpt>
      <trkpt lat="49.669367" lon="6.555886">
        <ele>180.0</ele>
        <time>2020-07-09T06:47:53Z</time>
      </trkpt>
      <trkpt lat="49.669278" lon="6.55583">
        <ele>180.0</ele>
        <time>2020-07-09T06:47:55Z</time>
      </trkpt>
      <trkpt lat="49.669191" lon="6.555768">
        <ele>181.0</ele>
        <time>2020-07-09T06:47:57Z</time>
      </trkpt>
      <trkpt lat="49.6691" lon="6.555713">
        <ele>181.0</ele>
        <time>2020-07-09T06:47:59Z</time>
      </trkpt>
      <trkpt lat="49.669004" lon="6.555661">
        <ele>181.0</ele>
        <time>2020-07-09T06:48:01Z</time>
      </trkpt>
      <trkpt lat="49.668907" lon="6.555622">
        <ele>181.0</ele>
        <time>2020-07-09T06:48:03Z</time>
      </trkpt>
      <trkpt lat="49.668813" lon="6.555581">
        <ele>181.0</ele>
        <time>2020-07-09T06:48:05Z</time>
      </trkpt>
      <trkpt lat="49.668708" lon="6.55553">
        <ele>181.0</ele>
        <time>2020-07-09T06:48:07Z</time>
      </trkpt>
      <trkpt lat="49.668603" lon="6.555488">
        <ele>181.0</ele>
        <time>2020-07-09T06:48:09Z</time>
      </trkpt>
      <trkpt lat="49.668497" lon="6.555452">
        <ele>181.0</ele>
        <time>2020-07-09T06:48:11Z</time>
      </trkpt>
      <trkpt lat="49.668393" lon="6.555415">
        <ele>181.0</ele>
        <time>2020-07-09T06:48:13Z</time>
      </trkpt>
      <trkpt lat="49.668291" lon="6.555371">
        <ele>181.0</ele>
        <time>2020-07-09T06:48:15Z</time>
      </trkpt>
      <trkpt lat="49.668188" lon="6.555334">
        <ele>181.0</ele>
        <time>2020-07-09T06:48:17Z</time>
      </trkpt>
      <trkpt lat="49.668087" lon="6.555315">
        <ele>181.0</ele>
        <time>2020-07-09T06:48:19Z</time>
      </trkpt>
      <trkpt lat="49.667977" lon="6.555293">
        <ele>181.0</ele>
        <time>2020-07-09T06:48:21Z</time>
      </trkpt>
      <trkpt lat="49.667867" lon="6.555259">
        <ele>181.0</ele>
        <time>2020-07-09T06:48:23Z</time>
      </trkpt>
      <trkpt lat="49.667754" lon="6.555229">
        <ele>181.0</ele>
        <time>2020-07-09T06:48:25Z</time>
      </trkpt>
      <trkpt lat="49.667644" lon="6.555193">
        <ele>181.0</ele>
        <time>2020-07-09T06:48:27Z</time>
      </trkpt>
      <trkpt lat="49.667536" lon="6.555164">
        <ele>181.0</ele>
        <time>2020-07-09T06:48:29Z</time>
      </trkpt>
      <trkpt lat="49.667429" lon="6.555135">
        <ele>182.0</ele>
        <time>2020-07-09T06:48:31Z</time>
      </trkpt>
      <trkpt lat="49.667331" lon="6.555109">
        <ele>182.0</ele>
        <time>2020-07-09T06:48:33Z</time>
      </trkpt>
      <trkpt lat="49.667225" lon="6.55507">
        <ele>182.0</ele>
        <time>2020-07-09T06:48:35Z</time>
      </trkpt>
      <trkpt lat="49.667113" lon="6.555045">
        <ele>182.0</ele>
        <time>2020-07-09T06:48:37Z</time>
      </trkpt>
      <trkpt lat="49.667006" lon="6.555025">
        <ele>182.0</ele>
        <time>2020-07-09T06:48:39Z</time>
      </trkpt>
      <trkpt lat="49.666913" lon="6.555005">
        <ele>182.0</ele>
        <time>2020-07-09T06:48:41Z</time>
      </trkpt>
      <trkpt lat="49.666811" lon="6.554962">
        <ele>182.0</ele>
        <time>2020-07-09T06:48:43Z</time>
      </trkpt>
      <trkpt lat="49.666706" lon="6.554918">
        <ele>182.0</ele>
        <time>2020-07-09T06:48:45Z</time>
      </trkpt>
      <trkpt lat="49.666607" lon="6.554887">
        <ele>181.0</ele>
        <time>2020-07-09T06:48:47Z</time>
      </trkpt>
      <trkpt lat="49.666518" lon="6.554861">
        <ele>181.0</ele>
        <time>2020-07-09T06:48:49Z</time>
      </trkpt>
      <trkpt lat="49.666419" lon="6.554837">
        <ele>181.0</ele>
        <time>2020-07-09T06:48:51Z</time>
      </trkpt>
      <trkpt lat="49.666319" lon="6.554807">
        <ele>181.0</ele>
        <time>2020-07-09T06:48:53Z</time>
      </trkpt>
      <trkpt lat="49.666218" lon="6.554767">
        <ele>180.0</ele>
        <time>2020-07-09T06:48:55Z</time>
      </trkpt>
      <trkpt lat="49.666113" lon="6.554747">
        <ele>180.0</ele>
        <time>2020-07-09T06:48:57Z</time>
      </trkpt>
      <trkpt lat="49.666" lon="6.554735">
        <ele>180.0</ele>
        <time>2020-07-09T06:48:59Z</time>
      </trkpt>
      <trkpt lat="49.665892" lon="6.554727">
        <ele>180.0</ele>
        <time>2020-07-09T06:49:01Z</time>
      </trkpt>
      <trkpt lat="49.665782" lon="6.554718">
        <ele>179.0</ele>
        <time>2020-07-09T06:49:03Z</time>
      </trkpt>
      <trkpt lat="49.665662" lon="6.554708">
        <ele>179.0</ele>
        <time>2020-07-09T06:49:05Z</time>
      </trkpt>
      <trkpt lat="49.665542" lon="6.554702">
        <ele>180.0</ele>
        <time>2020-07-09T06:49:07Z</time>
      </trkpt>
      <trkpt lat="49.665431" lon="6.554705">
        <ele>180.0</ele>
        <time>2020-07-09T06:49:09Z</time>
      </trkpt>
      <trkpt lat="49.665318" lon="6.554696">
        <ele>180.0</ele>
        <time>2020-07-09T06:49:11Z</time>
      </trkpt>
      <trkpt lat="49.665208" lon="6.554697">
        <ele>181.0</ele>
        <time>2020-07-09T06:49:13Z</time>
      </trkpt>
      <trkpt lat="49.665099" lon="6.554698">
        <ele>181.0</ele>
        <time>2020-07-09T06:49:15Z</time>
      </trkpt>
      <trkpt lat="49.664999" lon="6.554692">
        <ele>181.0</ele>
        <time>2020-07-09T06:49:17Z</time>
      </trkpt>
      <trkpt lat="49.664897" lon="6.554693">
        <ele>182.0</ele>
        <time>2020-07-09T06:49:19Z</time>
      </trkpt>
      <trkpt lat="49.664799" lon="6.554697">
        <ele>182.0</ele>
        <time>2020-07-09T06:49:21Z</time>
      </trkpt>
      <trkpt lat="49.664704" lon="6.554694">
        <ele>182.0</ele>
        <time>2020-07-09T06:49:23Z</time>
      </trkpt>
      <trkpt lat="49.664611" lon="6.554688">
        <ele>182.0</ele>
        <time>2020-07-09T06:49:25Z</time>
      </trkpt>
      <trkpt lat="49.66453" lon="6.554691">
        <ele>182.0</ele>
        <time>2020-07-09T06:49:27Z</time>
      </trkpt>
      <trkpt lat="49.664456" lon="6.554706">
        <ele>181.0</ele>
        <time>2020-07-09T06:49:29Z</time>
      </trkpt>
      <trkpt lat="49.664372" lon="6.554718">
        <ele>181.0</ele>
        <time>2020-07-09T06:49:31Z</time>
      </trkpt>
      <trkpt lat="49.664285" lon="6.554732">
        <ele>182.0</ele>
        <time>2020-07-09T06:49:33Z</time>
      </trkpt>
      <trkpt lat="49.664186" lon="6.554747">
        <ele>181.0</ele>
        <time>2020-07-09T06:49:35Z</time>
      </trkpt>
      <trkpt lat="49.664086" lon="6.554764">
        <ele>182.0</ele>
        <time>2020-07-09T06:49:37Z</time>
      </trkpt>
      <trkpt lat="49.663976" lon="6.554791">
        <ele>182.0</ele>
        <time>2020-07-09T06:49:39Z</time>
      </trkpt>
      <trkpt lat="49.663856" lon="6.55481">
        <ele>182.0</ele>
        <time>2020-07-09T06:49:41Z</time>
      </trkpt>
      <trkpt lat="49.66374" lon="6.554827">
        <ele>182.0</ele>
        <time>2020-07-09T06:49:43Z</time>
      </trkpt>
      <trkpt lat="49.663626" lon="6.554842">
        <ele>181.0</ele>
        <time>2020-07-09T06:49:45Z</time>
      </trkpt>
      <trkpt lat="49.663508" lon="6.554857">
        <ele>181.0</ele>
        <time>2020-07-09T06:49:47Z</time>
      </trkpt>
      <trkpt lat="49.663392" lon="6.55488">
        <ele>182.0</ele>
        <time>2020-07-09T06:49:49Z</time>
      </trkpt>
      <trkpt lat="49.663279" lon="6.554915">
        <ele>182.0</ele>
        <time>2020-07-09T06:49:51Z</time>
      </trkpt>
      <trkpt lat="49.663169" lon="6.554954">
        <ele>182.0</ele>
        <time>2020-07-09T06:49:53Z</time>
      </trkpt>
      <trkpt lat="49.66306" lon="6.554994">
        <ele>182.0</ele>
        <time>2020-07-09T06:49:55Z</time>
      </trkpt>
      <trkpt lat="49.662958" lon="6.555032">
        <ele>182.0</ele>
        <time>2020-07-09T06:49:57Z</time>
      </trkpt>
      <trkpt lat="49.662843" lon="6.55507">
        <ele>182.0</ele>
        <time>2020-07-09T06:49:59Z</time>
      </trkpt>
      <trkpt lat="49.662736" lon="6.555106">
        <ele>183.0</ele>
        <time>2020-07-09T06:50:01Z</time>
      </trkpt>
      <trkpt lat="49.662631" lon="6.555145">
        <ele>183.0</ele>
        <time>2020-07-09T06:50:03Z</time>
      </trkpt>
      <trkpt lat="49.662536" lon="6.555177">
        <ele>183.0</ele>
        <time>2020-07-09T06:50:05Z</time>
      </trkpt>
      <trkpt lat="49.662387" lon="6.555229">
        <ele>184.0</ele>
        <time>2020-07-09T06:50:08Z</time>
      </trkpt>
      <trkpt lat="49.66228" lon="6.55527">
        <ele>183.0</ele>
        <time>2020-07-09T06:50:10Z</time>
      </trkpt>
      <trkpt lat="49.662177" lon="6.555309">
        <ele>183.0</ele>
        <time>2020-07-09T06:50:12Z</time>
      </trkpt>
      <trkpt lat="49.662073" lon="6.555355">
        <ele>184.0</ele>
        <time>2020-07-09T06:50:14Z</time>
      </trkpt>
      <trkpt lat="49.661977" lon="6.555411">
        <ele>183.0</ele>
        <time>2020-07-09T06:50:16Z</time>
      </trkpt>
      <trkpt lat="49.661879" lon="6.555472">
        <ele>183.0</ele>
        <time>2020-07-09T06:50:18Z</time>
      </trkpt>
      <trkpt lat="49.661785" lon="6.555548">
        <ele>183.0</ele>
        <time>2020-07-09T06:50:20Z</time>
      </trkpt>
      <trkpt lat="49.661685" lon="6.555625">
        <ele>183.0</ele>
        <time>2020-07-09T06:50:22Z</time>
      </trkpt>
      <trkpt lat="49.661597" lon="6.555703">
        <ele>183.0</ele>
        <time>2020-07-09T06:50:24Z</time>
      </trkpt>
      <trkpt lat="49.66151" lon="6.555795">
        <ele>183.0</ele>
        <time>2020-07-09T06:50:26Z</time>
      </trkpt>
      <trkpt lat="49.661417" lon="6.555867">
        <ele>183.0</ele>
        <time>2020-07-09T06:50:28Z</time>
      </trkpt>
      <trkpt lat="49.661334" lon="6.555957">
        <ele>182.0</ele>
        <time>2020-07-09T06:50:30Z</time>
      </trkpt>
      <trkpt lat="49.661256" lon="6.556055">
        <ele>182.0</ele>
        <time>2020-07-09T06:50:32Z</time>
      </trkpt>
      <trkpt lat="49.66118" lon="6.556154">
        <ele>182.0</ele>
        <time>2020-07-09T06:50:34Z</time>
      </trkpt>
      <trkpt lat="49.661106" lon="6.556251">
        <ele>182.0</ele>
        <time>2020-07-09T06:50:36Z</time>
      </trkpt>
      <trkpt lat="49.661042" lon="6.556353">
        <ele>181.0</ele>
        <time>2020-07-09T06:50:38Z</time>
      </trkpt>
      <trkpt lat="49.660985" lon="6.556457">
        <ele>181.0</ele>
        <time>2020-07-09T06:50:40Z</time>
      </trkpt>
      <trkpt lat="49.660926" lon="6.556549">
        <ele>181.0</ele>
        <time>2020-07-09T06:50:42Z</time>
      </trkpt>
      <trkpt lat="49.66088" lon="6.556645">
        <ele>182.0</ele>
        <time>2020-07-09T06:50:44Z</time>
      </trkpt>
      <trkpt lat="49.660859" lon="6.556743">
        <ele>182.0</ele>
        <time>2020-07-09T06:50:46Z</time>
      </trkpt>
      <trkpt lat="49.660875" lon="6.556833">
        <ele>182.0</ele>
        <time>2020-07-09T06:50:48Z</time>
      </trkpt>
      <trkpt lat="49.660898" lon="6.556909">
        <ele>181.0</ele>
        <time>2020-07-09T06:50:50Z</time>
      </trkpt>
      <trkpt lat="49.660904" lon="6.556975">
        <ele>181.0</ele>
        <time>2020-07-09T06:50:52Z</time>
      </trkpt>
      <trkpt lat="49.660901" lon="6.556994">
        <ele>181.0</ele>
        <time>2020-07-09T06:50:54Z</time>
      </trkpt>
      <trkpt lat="49.660899" lon="6.557001">
        <ele>181.0</ele>
        <time>2020-07-09T06:50:56Z</time>
      </trkpt>
      <trkpt lat="49.660899" lon="6.557001">
        <ele>181.0</ele>
        <time>2020-07-09T06:50:58Z</time>
      </trkpt>
      <trkpt lat="49.660899" lon="6.557001">
        <ele>181.0</ele>
        <time>2020-07-09T06:51:00Z</time>
      </trkpt>
      <trkpt lat="49.660902" lon="6.556986">
        <ele>180.0</ele>
        <time>2020-07-09T06:53:43Z</time>
      </trkpt>
      <trkpt lat="49.660902" lon="6.556986">
        <ele>180.0</ele>
        <time>2020-07-09T06:53:44Z</time>
      </trkpt>
      <trkpt lat="49.660902" lon="6.556983">
        <ele>181.0</ele>
        <time>2020-07-09T06:53:47Z</time>
      </trkpt>
      <trkpt lat="49.660908" lon="6.556986">
        <ele>179.0</ele>
        <time>2020-07-09T06:53:49Z</time>
      </trkpt>
      <trkpt lat="49.66091" lon="6.556985">
        <ele>179.0</ele>
        <time>2020-07-09T06:53:51Z</time>
      </trkpt>
      <trkpt lat="49.660912" lon="6.556981">
        <ele>179.0</ele>
        <time>2020-07-09T06:53:53Z</time>
      </trkpt>
      <trkpt lat="49.660912" lon="6.556981">
        <ele>179.0</ele>
        <time>2020-07-09T06:53:55Z</time>
      </trkpt>
      <trkpt lat="49.660912" lon="6.556981">
        <ele>179.0</ele>
        <time>2020-07-09T06:53:57Z</time>
      </trkpt>
      <trkpt lat="49.660912" lon="6.556981">
        <ele>179.0</ele>
        <time>2020-07-09T06:53:59Z</time>
      </trkpt>
      <trkpt lat="49.660912" lon="6.556981">
        <ele>179.0</ele>
        <time>2020-07-09T06:54:01Z</time>
      </trkpt>
      <trkpt lat="49.660912" lon="6.556981">
        <ele>179.0</ele>
        <time>2020-07-09T06:54:03Z</time>
      </trkpt>
      <trkpt lat="49.660912" lon="6.556981">
        <ele>179.0</ele>
        <time>2020-07-09T06:54:05Z</time>
      </trkpt>
      <trkpt lat="49.660907" lon="6.556997">
        <ele>178.0</ele>
        <time>2020-07-09T06:54:07Z</time>
      </trkpt>
      <trkpt lat="49.660878" lon="6.557002">
        <ele>178.0</ele>
        <time>2020-07-09T06:54:09Z</time>
      </trkpt>
      <trkpt lat="49.660848" lon="6.556941">
        <ele>178.0</ele>
        <time>2020-07-09T06:54:11Z</time>
      </trkpt>
      <trkpt lat="49.660812" lon="6.556891">
        <ele>178.0</ele>
        <time>2020-07-09T06:54:13Z</time>
      </trkpt>
      <trkpt lat="49.660763" lon="6.556875">
        <ele>179.0</ele>
        <time>2020-07-09T06:54:15Z</time>
      </trkpt>
      <trkpt lat="49.66071" lon="6.556906">
        <ele>178.0</ele>
        <time>2020-07-09T06:54:17Z</time>
      </trkpt>
      <trkpt lat="49.660661" lon="6.556958">
        <ele>179.0</ele>
        <time>2020-07-09T06:54:19Z</time>
      </trkpt>
      <trkpt lat="49.660611" lon="6.557018">
        <ele>179.0</ele>
        <time>2020-07-09T06:54:21Z</time>
      </trkpt>
      <trkpt lat="49.660551" lon="6.55709">
        <ele>180.0</ele>
        <time>2020-07-09T06:54:23Z</time>
      </trkpt>
      <trkpt lat="49.660492" lon="6.557161">
        <ele>179.0</ele>
        <time>2020-07-09T06:54:25Z</time>
      </trkpt>
      <trkpt lat="49.660431" lon="6.557234">
        <ele>179.0</ele>
        <time>2020-07-09T06:54:27Z</time>
      </trkpt>
      <trkpt lat="49.660371" lon="6.557317">
        <ele>178.0</ele>
        <time>2020-07-09T06:54:29Z</time>
      </trkpt>
      <trkpt lat="49.660305" lon="6.557408">
        <ele>178.0</ele>
        <time>2020-07-09T06:54:31Z</time>
      </trkpt>
      <trkpt lat="49.660236" lon="6.557497">
        <ele>178.0</ele>
        <time>2020-07-09T06:54:33Z</time>
      </trkpt>
      <trkpt lat="49.66017" lon="6.557587">
        <ele>178.0</ele>
        <time>2020-07-09T06:54:35Z</time>
      </trkpt>
      <trkpt lat="49.660104" lon="6.557667">
        <ele>178.0</ele>
        <time>2020-07-09T06:54:37Z</time>
      </trkpt>
      <trkpt lat="49.660035" lon="6.557758">
        <ele>178.0</ele>
        <time>2020-07-09T06:54:39Z</time>
      </trkpt>
      <trkpt lat="49.659966" lon="6.557845">
        <ele>178.0</ele>
        <time>2020-07-09T06:54:41Z</time>
      </trkpt>
      <trkpt lat="49.659894" lon="6.557937">
        <ele>178.0</ele>
        <time>2020-07-09T06:54:43Z</time>
      </trkpt>
      <trkpt lat="49.659828" lon="6.558021">
        <ele>178.0</ele>
        <time>2020-07-09T06:54:45Z</time>
      </trkpt>
      <trkpt lat="49.659766" lon="6.558112">
        <ele>178.0</ele>
        <time>2020-07-09T06:54:47Z</time>
      </trkpt>
      <trkpt lat="49.659696" lon="6.558204">
        <ele>179.0</ele>
        <time>2020-07-09T06:54:49Z</time>
      </trkpt>
      <trkpt lat="49.659631" lon="6.558295">
        <ele>179.0</ele>
        <time>2020-07-09T06:54:51Z</time>
      </trkpt>
      <trkpt lat="49.659561" lon="6.558364">
        <ele>178.0</ele>
        <time>2020-07-09T06:54:53Z</time>
      </trkpt>
      <trkpt lat="49.659492" lon="6.558453">
        <ele>178.0</ele>
        <time>2020-07-09T06:54:55Z</time>
      </trkpt>
      <trkpt lat="49.659423" lon="6.558545">
        <ele>178.0</ele>
        <time>2020-07-09T06:54:57Z</time>
      </trkpt>
      <trkpt lat="49.659358" lon="6.558639">
        <ele>179.0</ele>
        <time>2020-07-09T06:54:59Z</time>
      </trkpt>
      <trkpt lat="49.659295" lon="6.558732">
        <ele>179.0</ele>
        <time>2020-07-09T06:55:01Z</time>
      </trkpt>
      <trkpt lat="49.659249" lon="6.558791">
        <ele>180.0</ele>
        <time>2020-07-09T06:55:03Z</time>
      </trkpt>
      <trkpt lat="49.659211" lon="6.558844">
        <ele>180.0</ele>
        <time>2020-07-09T06:55:05Z</time>
      </trkpt>
      <trkpt lat="49.659175" lon="6.558895">
        <ele>179.0</ele>
        <time>2020-07-09T06:55:07Z</time>
      </trkpt>
      <trkpt lat="49.659146" lon="6.558939">
        <ele>179.0</ele>
        <time>2020-07-09T06:55:09Z</time>
      </trkpt>
      <trkpt lat="49.659123" lon="6.558975">
        <ele>179.0</ele>
        <time>2020-07-09T06:55:11Z</time>
      </trkpt>
      <trkpt lat="49.659098" lon="6.559014">
        <ele>179.0</ele>
        <time>2020-07-09T06:55:13Z</time>
      </trkpt>
      <trkpt lat="49.659065" lon="6.55907">
        <ele>179.0</ele>
        <time>2020-07-09T06:55:15Z</time>
      </trkpt>
      <trkpt lat="49.659038" lon="6.559116">
        <ele>179.0</ele>
        <time>2020-07-09T06:55:17Z</time>
      </trkpt>
      <trkpt lat="49.659011" lon="6.55917">
        <ele>180.0</ele>
        <time>2020-07-09T06:55:19Z</time>
      </trkpt>
      <trkpt lat="49.658977" lon="6.559232">
        <ele>180.0</ele>
        <time>2020-07-09T06:55:21Z</time>
      </trkpt>
      <trkpt lat="49.658949" lon="6.559277">
        <ele>181.0</ele>
        <time>2020-07-09T06:55:23Z</time>
      </trkpt>
      <trkpt lat="49.658921" lon="6.559328">
        <ele>181.0</ele>
        <time>2020-07-09T06:55:25Z</time>
      </trkpt>
      <trkpt lat="49.658893" lon="6.559375">
        <ele>181.0</ele>
        <time>2020-07-09T06:55:27Z</time>
      </trkpt>
      <trkpt lat="49.658868" lon="6.559419">
        <ele>181.0</ele>
        <time>2020-07-09T06:55:29Z</time>
      </trkpt>
      <trkpt lat="49.658837" lon="6.559474">
        <ele>181.0</ele>
        <time>2020-07-09T06:55:31Z</time>
      </trkpt>
      <trkpt lat="49.658808" lon="6.55952">
        <ele>181.0</ele>
        <time>2020-07-09T06:55:33Z</time>
      </trkpt>
      <trkpt lat="49.658779" lon="6.559567">
        <ele>182.0</ele>
        <time>2020-07-09T06:55:35Z</time>
      </trkpt>
      <trkpt lat="49.658754" lon="6.559613">
        <ele>181.0</ele>
        <time>2020-07-09T06:55:37Z</time>
      </trkpt>
      <trkpt lat="49.658732" lon="6.559644">
        <ele>182.0</ele>
        <time>2020-07-09T06:55:39Z</time>
      </trkpt>
      <trkpt lat="49.658692" lon="6.559681">
        <ele>183.0</ele>
        <time>2020-07-09T06:55:41Z</time>
      </trkpt>
      <trkpt lat="49.658647" lon="6.559739">
        <ele>183.0</ele>
        <time>2020-07-09T06:55:43Z</time>
      </trkpt>
      <trkpt lat="49.658595" lon="6.559795">
        <ele>183.0</ele>
        <time>2020-07-09T06:55:45Z</time>
      </trkpt>
      <trkpt lat="49.658525" lon="6.559883">
        <ele>184.0</ele>
        <time>2020-07-09T06:55:47Z</time>
      </trkpt>
      <trkpt lat="49.65846" lon="6.559973">
        <ele>185.0</ele>
        <time>2020-07-09T06:55:49Z</time>
      </trkpt>
      <trkpt lat="49.658405" lon="6.56006">
        <ele>185.0</ele>
        <time>2020-07-09T06:55:51Z</time>
      </trkpt>
      <trkpt lat="49.658344" lon="6.56015">
        <ele>186.0</ele>
        <time>2020-07-09T06:55:53Z</time>
      </trkpt>
      <trkpt lat="49.658279" lon="6.560231">
        <ele>186.0</ele>
        <time>2020-07-09T06:55:55Z</time>
      </trkpt>
      <trkpt lat="49.658217" lon="6.560323">
        <ele>187.0</ele>
        <time>2020-07-09T06:55:57Z</time>
      </trkpt>
      <trkpt lat="49.658148" lon="6.560401">
        <ele>188.0</ele>
        <time>2020-07-09T06:55:59Z</time>
      </trkpt>
      <trkpt lat="49.658087" lon="6.560494">
        <ele>188.0</ele>
        <time>2020-07-09T06:56:01Z</time>
      </trkpt>
      <trkpt lat="49.658028" lon="6.560576">
        <ele>188.0</ele>
        <time>2020-07-09T06:56:03Z</time>
      </trkpt>
      <trkpt lat="49.657965" lon="6.560669">
        <ele>188.0</ele>
        <time>2020-07-09T06:56:05Z</time>
      </trkpt>
      <trkpt lat="49.6579" lon="6.560753">
        <ele>188.0</ele>
        <time>2020-07-09T06:56:07Z</time>
      </trkpt>
      <trkpt lat="49.657836" lon="6.560832">
        <ele>188.0</ele>
        <time>2020-07-09T06:56:09Z</time>
      </trkpt>
      <trkpt lat="49.657771" lon="6.560912">
        <ele>188.0</ele>
        <time>2020-07-09T06:56:11Z</time>
      </trkpt>
      <trkpt lat="49.657708" lon="6.560998">
        <ele>188.0</ele>
        <time>2020-07-09T06:56:13Z</time>
      </trkpt>
      <trkpt lat="49.657646" lon="6.561093">
        <ele>188.0</ele>
        <time>2020-07-09T06:56:15Z</time>
      </trkpt>
      <trkpt lat="49.657583" lon="6.561181">
        <ele>188.0</ele>
        <time>2020-07-09T06:56:17Z</time>
      </trkpt>
      <trkpt lat="49.65752" lon="6.561264">
        <ele>188.0</ele>
        <time>2020-07-09T06:56:19Z</time>
      </trkpt>
      <trkpt lat="49.657453" lon="6.561351">
        <ele>188.0</ele>
        <time>2020-07-09T06:56:21Z</time>
      </trkpt>
      <trkpt lat="49.65739" lon="6.561434">
        <ele>188.0</ele>
        <time>2020-07-09T06:56:23Z</time>
      </trkpt>
      <trkpt lat="49.657326" lon="6.56153">
        <ele>188.0</ele>
        <time>2020-07-09T06:56:25Z</time>
      </trkpt>
      <trkpt lat="49.657257" lon="6.561616">
        <ele>188.0</ele>
        <time>2020-07-09T06:56:27Z</time>
      </trkpt>
      <trkpt lat="49.657186" lon="6.5617">
        <ele>187.0</ele>
        <time>2020-07-09T06:56:29Z</time>
      </trkpt>
      <trkpt lat="49.65712" lon="6.561787">
        <ele>187.0</ele>
        <time>2020-07-09T06:56:31Z</time>
      </trkpt>
      <trkpt lat="49.657054" lon="6.561869">
        <ele>187.0</ele>
        <time>2020-07-09T06:56:33Z</time>
      </trkpt>
      <trkpt lat="49.65698" lon="6.561949">
        <ele>187.0</ele>
        <time>2020-07-09T06:56:35Z</time>
      </trkpt>
      <trkpt lat="49.656915" lon="6.562036">
        <ele>187.0</ele>
        <time>2020-07-09T06:56:37Z</time>
      </trkpt>
      <trkpt lat="49.65684" lon="6.562127">
        <ele>187.0</ele>
        <time>2020-07-09T06:56:39Z</time>
      </trkpt>
      <trkpt lat="49.656766" lon="6.562217">
        <ele>188.0</ele>
        <time>2020-07-09T06:56:41Z</time>
      </trkpt>
      <trkpt lat="49.656696" lon="6.562294">
        <ele>188.0</ele>
        <time>2020-07-09T06:56:43Z</time>
      </trkpt>
      <trkpt lat="49.656625" lon="6.562376">
        <ele>188.0</ele>
        <time>2020-07-09T06:56:45Z</time>
      </trkpt>
      <trkpt lat="49.656553" lon="6.56246">
        <ele>188.0</ele>
        <time>2020-07-09T06:56:47Z</time>
      </trkpt>
      <trkpt lat="49.656444" lon="6.562593">
        <ele>187.0</ele>
        <time>2020-07-09T06:56:50Z</time>
      </trkpt>
      <trkpt lat="49.656377" lon="6.562676">
        <ele>187.0</ele>
        <time>2020-07-09T06:56:52Z</time>
      </trkpt>
      <trkpt lat="49.656307" lon="6.56277">
        <ele>187.0</ele>
        <time>2020-07-09T06:56:54Z</time>
      </trkpt>
      <trkpt lat="49.656229" lon="6.562862">
        <ele>187.0</ele>
        <time>2020-07-09T06:56:56Z</time>
      </trkpt>
      <trkpt lat="49.656159" lon="6.562958">
        <ele>187.0</ele>
        <time>2020-07-09T06:56:58Z</time>
      </trkpt>
      <trkpt lat="49.656088" lon="6.563059">
        <ele>187.0</ele>
        <time>2020-07-09T06:57:00Z</time>
      </trkpt>
      <trkpt lat="49.656017" lon="6.563143">
        <ele>186.0</ele>
        <time>2020-07-09T06:57:02Z</time>
      </trkpt>
      <trkpt lat="49.655943" lon="6.56324">
        <ele>186.0</ele>
        <time>2020-07-09T06:57:04Z</time>
      </trkpt>
      <trkpt lat="49.655869" lon="6.563335">
        <ele>187.0</ele>
        <time>2020-07-09T06:57:06Z</time>
      </trkpt>
      <trkpt lat="49.655797" lon="6.563425">
        <ele>187.0</ele>
        <time>2020-07-09T06:57:08Z</time>
      </trkpt>
      <trkpt lat="49.655727" lon="6.563523">
        <ele>186.0</ele>
        <time>2020-07-09T06:57:10Z</time>
      </trkpt>
      <trkpt lat="49.655659" lon="6.563618">
        <ele>186.0</ele>
        <time>2020-07-09T06:57:12Z</time>
      </trkpt>
      <trkpt lat="49.655591" lon="6.563713">
        <ele>186.0</ele>
        <time>2020-07-09T06:57:14Z</time>
      </trkpt>
      <trkpt lat="49.655518" lon="6.563799">
        <ele>186.0</ele>
        <time>2020-07-09T06:57:16Z</time>
      </trkpt>
      <trkpt lat="49.655446" lon="6.563894">
        <ele>187.0</ele>
        <time>2020-07-09T06:57:18Z</time>
      </trkpt>
      <trkpt lat="49.655377" lon="6.563988">
        <ele>187.0</ele>
        <time>2020-07-09T06:57:20Z</time>
      </trkpt>
      <trkpt lat="49.655308" lon="6.564085">
        <ele>187.0</ele>
        <time>2020-07-09T06:57:22Z</time>
      </trkpt>
      <trkpt lat="49.655236" lon="6.564192">
        <ele>188.0</ele>
        <time>2020-07-09T06:57:24Z</time>
      </trkpt>
      <trkpt lat="49.655162" lon="6.564291">
        <ele>188.0</ele>
        <time>2020-07-09T06:57:26Z</time>
      </trkpt>
      <trkpt lat="49.655087" lon="6.564385">
        <ele>188.0</ele>
        <time>2020-07-09T06:57:28Z</time>
      </trkpt>
      <trkpt lat="49.655017" lon="6.564483">
        <ele>188.0</ele>
        <time>2020-07-09T06:57:30Z</time>
      </trkpt>
      <trkpt lat="49.654946" lon="6.564584">
        <ele>188.0</ele>
        <time>2020-07-09T06:57:32Z</time>
      </trkpt>
      <trkpt lat="49.654872" lon="6.564673">
        <ele>188.0</ele>
        <time>2020-07-09T06:57:34Z</time>
      </trkpt>
      <trkpt lat="49.6548" lon="6.564769">
        <ele>188.0</ele>
        <time>2020-07-09T06:57:36Z</time>
      </trkpt>
      <trkpt lat="49.654765" lon="6.564817">
        <ele>188.0</ele>
        <time>2020-07-09T06:57:37Z</time>
      </trkpt>
      <trkpt lat="49.654624" lon="6.565002">
        <ele>187.0</ele>
        <time>2020-07-09T06:57:41Z</time>
      </trkpt>
      <trkpt lat="49.654549" lon="6.565097">
        <ele>188.0</ele>
        <time>2020-07-09T06:57:43Z</time>
      </trkpt>
      <trkpt lat="49.654512" lon="6.565149">
        <ele>188.0</ele>
        <time>2020-07-09T06:57:44Z</time>
      </trkpt>
      <trkpt lat="49.654404" lon="6.565295">
        <ele>188.0</ele>
        <time>2020-07-09T06:57:47Z</time>
      </trkpt>
      <trkpt lat="49.654332" lon="6.565386">
        <ele>188.0</ele>
        <time>2020-07-09T06:57:49Z</time>
      </trkpt>
      <trkpt lat="49.654254" lon="6.565486">
        <ele>188.0</ele>
        <time>2020-07-09T06:57:51Z</time>
      </trkpt>
      <trkpt lat="49.654176" lon="6.565579">
        <ele>188.0</ele>
        <time>2020-07-09T06:57:53Z</time>
      </trkpt>
      <trkpt lat="49.654057" lon="6.565721">
        <ele>188.0</ele>
        <time>2020-07-09T06:57:56Z</time>
      </trkpt>
      <trkpt lat="49.653984" lon="6.565818">
        <ele>187.0</ele>
        <time>2020-07-09T06:57:58Z</time>
      </trkpt>
      <trkpt lat="49.6539" lon="6.565909">
        <ele>187.0</ele>
        <time>2020-07-09T06:58:00Z</time>
      </trkpt>
      <trkpt lat="49.653818" lon="6.565997">
        <ele>187.0</ele>
        <time>2020-07-09T06:58:02Z</time>
      </trkpt>
      <trkpt lat="49.653734" lon="6.566081">
        <ele>187.0</ele>
        <time>2020-07-09T06:58:04Z</time>
      </trkpt>
      <trkpt lat="49.653648" lon="6.566165">
        <ele>187.0</ele>
        <time>2020-07-09T06:58:06Z</time>
      </trkpt>
      <trkpt lat="49.653565" lon="6.566251">
        <ele>187.0</ele>
        <time>2020-07-09T06:58:08Z</time>
      </trkpt>
      <trkpt lat="49.653481" lon="6.566341">
        <ele>187.0</ele>
        <time>2020-07-09T06:58:10Z</time>
      </trkpt>
      <trkpt lat="49.653402" lon="6.566429">
        <ele>187.0</ele>
        <time>2020-07-09T06:58:12Z</time>
      </trkpt>
      <trkpt lat="49.65332" lon="6.566517">
        <ele>187.0</ele>
        <time>2020-07-09T06:58:14Z</time>
      </trkpt>
      <trkpt lat="49.653232" lon="6.5666">
        <ele>187.0</ele>
        <time>2020-07-09T06:58:16Z</time>
      </trkpt>
      <trkpt lat="49.65314" lon="6.566688">
        <ele>186.0</ele>
        <time>2020-07-09T06:58:18Z</time>
      </trkpt>
      <trkpt lat="49.653051" lon="6.566778">
        <ele>186.0</ele>
        <time>2020-07-09T06:58:20Z</time>
      </trkpt>
      <trkpt lat="49.652957" lon="6.566854">
        <ele>186.0</ele>
        <time>2020-07-09T06:58:22Z</time>
      </trkpt>
      <trkpt lat="49.652857" lon="6.566934">
        <ele>186.0</ele>
        <time>2020-07-09T06:58:24Z</time>
      </trkpt>
      <trkpt lat="49.652768" lon="6.567022">
        <ele>186.0</ele>
        <time>2020-07-09T06:58:26Z</time>
      </trkpt>
      <trkpt lat="49.652676" lon="6.567107">
        <ele>186.0</ele>
        <time>2020-07-09T06:58:28Z</time>
      </trkpt>
      <trkpt lat="49.652585" lon="6.567192">
        <ele>186.0</ele>
        <time>2020-07-09T06:58:30Z</time>
      </trkpt>
      <trkpt lat="49.652491" lon="6.567272">
        <ele>185.0</ele>
        <time>2020-07-09T06:58:32Z</time>
      </trkpt>
      <trkpt lat="49.652392" lon="6.567345">
        <ele>185.0</ele>
        <time>2020-07-09T06:58:34Z</time>
      </trkpt>
      <trkpt lat="49.652297" lon="6.567423">
        <ele>185.0</ele>
        <time>2020-07-09T06:58:36Z</time>
      </trkpt>
      <trkpt lat="49.652201" lon="6.567493">
        <ele>185.0</ele>
        <time>2020-07-09T06:58:38Z</time>
      </trkpt>
      <trkpt lat="49.652109" lon="6.567565">
        <ele>184.0</ele>
        <time>2020-07-09T06:58:40Z</time>
      </trkpt>
      <trkpt lat="49.651972" lon="6.567674">
        <ele>184.0</ele>
        <time>2020-07-09T06:58:43Z</time>
      </trkpt>
      <trkpt lat="49.651885" lon="6.567748">
        <ele>184.0</ele>
        <time>2020-07-09T06:58:45Z</time>
      </trkpt>
      <trkpt lat="49.65184" lon="6.567787">
        <ele>184.0</ele>
        <time>2020-07-09T06:58:46Z</time>
      </trkpt>
      <trkpt lat="49.651696" lon="6.567909">
        <ele>184.0</ele>
        <time>2020-07-09T06:58:49Z</time>
      </trkpt>
      <trkpt lat="49.651552" lon="6.568014">
        <ele>184.0</ele>
        <time>2020-07-09T06:58:52Z</time>
      </trkpt>
      <trkpt lat="49.651404" lon="6.568112">
        <ele>185.0</ele>
        <time>2020-07-09T06:58:55Z</time>
      </trkpt>
      <trkpt lat="49.651253" lon="6.568227">
        <ele>186.0</ele>
        <time>2020-07-09T06:58:58Z</time>
      </trkpt>
      <trkpt lat="49.651154" lon="6.568298">
        <ele>186.0</ele>
        <time>2020-07-09T06:59:00Z</time>
      </trkpt>
      <trkpt lat="49.651011" lon="6.568398">
        <ele>187.0</ele>
        <time>2020-07-09T06:59:03Z</time>
      </trkpt>
      <trkpt lat="49.650965" lon="6.568428">
        <ele>187.0</ele>
        <time>2020-07-09T06:59:04Z</time>
      </trkpt>
      <trkpt lat="49.650774" lon="6.568577">
        <ele>188.0</ele>
        <time>2020-07-09T06:59:08Z</time>
      </trkpt>
      <trkpt lat="49.650678" lon="6.568642">
        <ele>188.0</ele>
        <time>2020-07-09T06:59:10Z</time>
      </trkpt>
      <trkpt lat="49.650587" lon="6.568698">
        <ele>188.0</ele>
        <time>2020-07-09T06:59:12Z</time>
      </trkpt>
      <trkpt lat="49.650491" lon="6.568745">
        <ele>187.0</ele>
        <time>2020-07-09T06:59:14Z</time>
      </trkpt>
      <trkpt lat="49.650398" lon="6.568805">
        <ele>187.0</ele>
        <time>2020-07-09T06:59:16Z</time>
      </trkpt>
      <trkpt lat="49.65031" lon="6.568872">
        <ele>187.0</ele>
        <time>2020-07-09T06:59:18Z</time>
      </trkpt>
      <trkpt lat="49.650174" lon="6.568947">
        <ele>186.0</ele>
        <time>2020-07-09T06:59:21Z</time>
      </trkpt>
      <trkpt lat="49.650086" lon="6.569002">
        <ele>186.0</ele>
        <time>2020-07-09T06:59:23Z</time>
      </trkpt>
      <trkpt lat="49.649999" lon="6.569051">
        <ele>186.0</ele>
        <time>2020-07-09T06:59:25Z</time>
      </trkpt>
      <trkpt lat="49.64987" lon="6.569131">
        <ele>186.0</ele>
        <time>2020-07-09T06:59:28Z</time>
      </trkpt>
      <trkpt lat="49.649783" lon="6.569181">
        <ele>186.0</ele>
        <time>2020-07-09T06:59:30Z</time>
      </trkpt>
      <trkpt lat="49.649693" lon="6.569237">
        <ele>186.0</ele>
        <time>2020-07-09T06:59:32Z</time>
      </trkpt>
      <trkpt lat="49.649603" lon="6.569296">
        <ele>186.0</ele>
        <time>2020-07-09T06:59:34Z</time>
      </trkpt>
      <trkpt lat="49.649518" lon="6.569352">
        <ele>186.0</ele>
        <time>2020-07-09T06:59:36Z</time>
      </trkpt>
      <trkpt lat="49.649431" lon="6.5694">
        <ele>186.0</ele>
        <time>2020-07-09T06:59:38Z</time>
      </trkpt>
      <trkpt lat="49.649343" lon="6.569448">
        <ele>187.0</ele>
        <time>2020-07-09T06:59:40Z</time>
      </trkpt>
      <trkpt lat="49.649207" lon="6.569509">
        <ele>187.0</ele>
        <time>2020-07-09T06:59:43Z</time>
      </trkpt>
      <trkpt lat="49.64907" lon="6.569541">
        <ele>187.0</ele>
        <time>2020-07-09T06:59:46Z</time>
      </trkpt>
      <trkpt lat="49.648976" lon="6.569542">
        <ele>187.0</ele>
        <time>2020-07-09T06:59:48Z</time>
      </trkpt>
      <trkpt lat="49.648899" lon="6.569531">
        <ele>187.0</ele>
        <time>2020-07-09T06:59:50Z</time>
      </trkpt>
      <trkpt lat="49.648837" lon="6.569537">
        <ele>187.0</ele>
        <time>2020-07-09T06:59:52Z</time>
      </trkpt>
      <trkpt lat="49.648786" lon="6.569537">
        <ele>187.0</ele>
        <time>2020-07-09T06:59:54Z</time>
      </trkpt>
      <trkpt lat="49.648718" lon="6.56954">
        <ele>187.0</ele>
        <time>2020-07-09T06:59:57Z</time>
      </trkpt>
      <trkpt lat="49.6487" lon="6.56954">
        <ele>187.0</ele>
        <time>2020-07-09T06:59:58Z</time>
      </trkpt>
      <trkpt lat="49.648657" lon="6.56954">
        <ele>187.0</ele>
        <time>2020-07-09T07:00:01Z</time>
      </trkpt>
      <trkpt lat="49.648644" lon="6.569538">
        <ele>187.0</ele>
        <time>2020-07-09T07:00:03Z</time>
      </trkpt>
      <trkpt lat="49.648619" lon="6.569545">
        <ele>188.0</ele>
        <time>2020-07-09T07:00:05Z</time>
      </trkpt>
      <trkpt lat="49.648591" lon="6.569552">
        <ele>189.0</ele>
        <time>2020-07-09T07:00:07Z</time>
      </trkpt>
      <trkpt lat="49.64856" lon="6.569569">
        <ele>190.0</ele>
        <time>2020-07-09T07:00:09Z</time>
      </trkpt>
      <trkpt lat="49.648525" lon="6.56958">
        <ele>190.0</ele>
        <time>2020-07-09T07:00:11Z</time>
      </trkpt>
      <trkpt lat="49.648497" lon="6.569592">
        <ele>191.0</ele>
        <time>2020-07-09T07:00:13Z</time>
      </trkpt>
      <trkpt lat="49.648471" lon="6.56961">
        <ele>191.0</ele>
        <time>2020-07-09T07:00:15Z</time>
      </trkpt>
      <trkpt lat="49.648444" lon="6.569615">
        <ele>192.0</ele>
        <time>2020-07-09T07:00:17Z</time>
      </trkpt>
      <trkpt lat="49.648418" lon="6.569615">
        <ele>192.0</ele>
        <time>2020-07-09T07:00:19Z</time>
      </trkpt>
      <trkpt lat="49.648392" lon="6.569617">
        <ele>192.0</ele>
        <time>2020-07-09T07:00:21Z</time>
      </trkpt>
      <trkpt lat="49.648365" lon="6.569627">
        <ele>193.0</ele>
        <time>2020-07-09T07:00:23Z</time>
      </trkpt>
      <trkpt lat="49.648323" lon="6.569662">
        <ele>193.0</ele>
        <time>2020-07-09T07:00:26Z</time>
      </trkpt>
      <trkpt lat="49.648274" lon="6.569693">
        <ele>194.0</ele>
        <time>2020-07-09T07:00:28Z</time>
      </trkpt>
      <trkpt lat="49.648214" lon="6.569722">
        <ele>194.0</ele>
        <time>2020-07-09T07:00:30Z</time>
      </trkpt>
      <trkpt lat="49.648144" lon="6.569749">
        <ele>194.0</ele>
        <time>2020-07-09T07:00:32Z</time>
      </trkpt>
      <trkpt lat="49.648059" lon="6.569778">
        <ele>195.0</ele>
        <time>2020-07-09T07:00:34Z</time>
      </trkpt>
      <trkpt lat="49.647939" lon="6.569831">
        <ele>197.0</ele>
        <time>2020-07-09T07:00:37Z</time>
      </trkpt>
      <trkpt lat="49.647855" lon="6.569857">
        <ele>197.0</ele>
        <time>2020-07-09T07:00:39Z</time>
      </trkpt>
      <trkpt lat="49.647771" lon="6.569902">
        <ele>197.0</ele>
        <time>2020-07-09T07:00:41Z</time>
      </trkpt>
      <trkpt lat="49.647735" lon="6.569918">
        <ele>197.0</ele>
        <time>2020-07-09T07:00:42Z</time>
      </trkpt>
      <trkpt lat="49.647613" lon="6.569964">
        <ele>197.0</ele>
        <time>2020-07-09T07:00:45Z</time>
      </trkpt>
      <trkpt lat="49.647539" lon="6.569989">
        <ele>197.0</ele>
        <time>2020-07-09T07:00:47Z</time>
      </trkpt>
      <trkpt lat="49.647465" lon="6.570009">
        <ele>197.0</ele>
        <time>2020-07-09T07:00:49Z</time>
      </trkpt>
      <trkpt lat="49.647345" lon="6.570042">
        <ele>197.0</ele>
        <time>2020-07-09T07:00:52Z</time>
      </trkpt>
      <trkpt lat="49.647268" lon="6.570071">
        <ele>197.0</ele>
        <time>2020-07-09T07:00:54Z</time>
      </trkpt>
      <trkpt lat="49.647193" lon="6.570105">
        <ele>197.0</ele>
        <time>2020-07-09T07:00:56Z</time>
      </trkpt>
      <trkpt lat="49.647152" lon="6.570113">
        <ele>198.0</ele>
        <time>2020-07-09T07:00:57Z</time>
      </trkpt>
      <trkpt lat="49.646998" lon="6.570169">
        <ele>198.0</ele>
        <time>2020-07-09T07:01:01Z</time>
      </trkpt>
      <trkpt lat="49.646933" lon="6.570185">
        <ele>198.0</ele>
        <time>2020-07-09T07:01:03Z</time>
      </trkpt>
      <trkpt lat="49.646855" lon="6.570207">
        <ele>197.0</ele>
        <time>2020-07-09T07:01:06Z</time>
      </trkpt>
      <trkpt lat="49.646802" lon="6.570225">
        <ele>197.0</ele>
        <time>2020-07-09T07:01:08Z</time>
      </trkpt>
      <trkpt lat="49.646729" lon="6.570256">
        <ele>197.0</ele>
        <time>2020-07-09T07:01:11Z</time>
      </trkpt>
      <trkpt lat="49.646692" lon="6.570271">
        <ele>197.0</ele>
        <time>2020-07-09T07:01:13Z</time>
      </trkpt>
      <trkpt lat="49.646655" lon="6.570292">
        <ele>197.0</ele>
        <time>2020-07-09T07:01:15Z</time>
      </trkpt>
      <trkpt lat="49.646608" lon="6.570312">
        <ele>197.0</ele>
        <time>2020-07-09T07:01:17Z</time>
      </trkpt>
      <trkpt lat="49.646546" lon="6.570344">
        <ele>196.0</ele>
        <time>2020-07-09T07:01:19Z</time>
      </trkpt>
      <trkpt lat="49.646459" lon="6.570401">
        <ele>196.0</ele>
        <time>2020-07-09T07:01:21Z</time>
      </trkpt>
      <trkpt lat="49.646349" lon="6.570473">
        <ele>195.0</ele>
        <time>2020-07-09T07:01:23Z</time>
      </trkpt>
      <trkpt lat="49.646215" lon="6.570557">
        <ele>194.0</ele>
        <time>2020-07-09T07:01:25Z</time>
      </trkpt>
      <trkpt lat="49.646058" lon="6.570663">
        <ele>193.0</ele>
        <time>2020-07-09T07:01:27Z</time>
      </trkpt>
      <trkpt lat="49.645876" lon="6.570763">
        <ele>192.0</ele>
        <time>2020-07-09T07:01:29Z</time>
      </trkpt>
      <trkpt lat="49.645696" lon="6.570798">
        <ele>190.0</ele>
        <time>2020-07-09T07:01:31Z</time>
      </trkpt>
      <trkpt lat="49.645525" lon="6.570802">
        <ele>190.0</ele>
        <time>2020-07-09T07:01:33Z</time>
      </trkpt>
      <trkpt lat="49.64537" lon="6.57081">
        <ele>190.0</ele>
        <time>2020-07-09T07:01:35Z</time>
      </trkpt>
      <trkpt lat="49.645156" lon="6.570829">
        <ele>189.0</ele>
        <time>2020-07-09T07:01:38Z</time>
      </trkpt>
      <trkpt lat="49.645086" lon="6.570832">
        <ele>189.0</ele>
        <time>2020-07-09T07:01:39Z</time>
      </trkpt>
      <trkpt lat="49.644886" lon="6.570831">
        <ele>188.0</ele>
        <time>2020-07-09T07:01:42Z</time>
      </trkpt>
      <trkpt lat="49.64476" lon="6.570829">
        <ele>188.0</ele>
        <time>2020-07-09T07:01:44Z</time>
      </trkpt>
      <trkpt lat="49.644635" lon="6.57083">
        <ele>188.0</ele>
        <time>2020-07-09T07:01:46Z</time>
      </trkpt>
      <trkpt lat="49.644513" lon="6.57082">
        <ele>188.0</ele>
        <time>2020-07-09T07:01:48Z</time>
      </trkpt>
      <trkpt lat="49.644278" lon="6.570804">
        <ele>188.0</ele>
        <time>2020-07-09T07:01:52Z</time>
      </trkpt>
      <trkpt lat="49.64416" lon="6.570798">
        <ele>188.0</ele>
        <time>2020-07-09T07:01:54Z</time>
      </trkpt>
      <trkpt lat="49.644103" lon="6.570795">
        <ele>187.0</ele>
        <time>2020-07-09T07:01:55Z</time>
      </trkpt>
      <trkpt lat="49.64393" lon="6.570781">
        <ele>188.0</ele>
        <time>2020-07-09T07:01:58Z</time>
      </trkpt>
      <trkpt lat="49.643767" lon="6.570779">
        <ele>188.0</ele>
        <time>2020-07-09T07:02:01Z</time>
      </trkpt>
      <trkpt lat="49.643659" lon="6.57077">
        <ele>188.0</ele>
        <time>2020-07-09T07:02:03Z</time>
      </trkpt>
      <trkpt lat="49.643547" lon="6.570765">
        <ele>188.0</ele>
        <time>2020-07-09T07:02:05Z</time>
      </trkpt>
      <trkpt lat="49.643382" lon="6.570767">
        <ele>188.0</ele>
        <time>2020-07-09T07:02:08Z</time>
      </trkpt>
      <trkpt lat="49.643274" lon="6.570768">
        <ele>188.0</ele>
        <time>2020-07-09T07:02:10Z</time>
      </trkpt>
      <trkpt lat="49.643169" lon="6.570764">
        <ele>188.0</ele>
        <time>2020-07-09T07:02:12Z</time>
      </trkpt>
      <trkpt lat="49.643115" lon="6.570762">
        <ele>188.0</ele>
        <time>2020-07-09T07:02:13Z</time>
      </trkpt>
      <trkpt lat="49.643011" lon="6.570775">
        <ele>188.0</ele>
        <time>2020-07-09T07:02:15Z</time>
      </trkpt>
      <trkpt lat="49.64291" lon="6.570779">
        <ele>189.0</ele>
        <time>2020-07-09T07:02:17Z</time>
      </trkpt>
      <trkpt lat="49.642748" lon="6.570771">
        <ele>189.0</ele>
        <time>2020-07-09T07:02:20Z</time>
      </trkpt>
      <trkpt lat="49.642641" lon="6.570781">
        <ele>189.0</ele>
        <time>2020-07-09T07:02:22Z</time>
      </trkpt>
      <trkpt lat="49.642532" lon="6.570798">
        <ele>189.0</ele>
        <time>2020-07-09T07:02:24Z</time>
      </trkpt>
      <trkpt lat="49.642379" lon="6.570822">
        <ele>188.0</ele>
        <time>2020-07-09T07:02:27Z</time>
      </trkpt>
      <trkpt lat="49.642224" lon="6.570847">
        <ele>189.0</ele>
        <time>2020-07-09T07:02:30Z</time>
      </trkpt>
      <trkpt lat="49.642066" lon="6.570863">
        <ele>189.0</ele>
        <time>2020-07-09T07:02:33Z</time>
      </trkpt>
      <trkpt lat="49.641959" lon="6.570881">
        <ele>189.0</ele>
        <time>2020-07-09T07:02:35Z</time>
      </trkpt>
      <trkpt lat="49.641859" lon="6.570903">
        <ele>188.0</ele>
        <time>2020-07-09T07:02:37Z</time>
      </trkpt>
      <trkpt lat="49.641758" lon="6.57093">
        <ele>188.0</ele>
        <time>2020-07-09T07:02:39Z</time>
      </trkpt>
      <trkpt lat="49.641597" lon="6.570966">
        <ele>189.0</ele>
        <time>2020-07-09T07:02:42Z</time>
      </trkpt>
      <trkpt lat="49.641501" lon="6.570996">
        <ele>189.0</ele>
        <time>2020-07-09T07:02:44Z</time>
      </trkpt>
      <trkpt lat="49.641403" lon="6.571039">
        <ele>189.0</ele>
        <time>2020-07-09T07:02:46Z</time>
      </trkpt>
      <trkpt lat="49.641302" lon="6.571074">
        <ele>189.0</ele>
        <time>2020-07-09T07:02:48Z</time>
      </trkpt>
      <trkpt lat="49.641253" lon="6.571088">
        <ele>189.0</ele>
        <time>2020-07-09T07:02:49Z</time>
      </trkpt>
      <trkpt lat="49.64115" lon="6.571123">
        <ele>189.0</ele>
        <time>2020-07-09T07:02:51Z</time>
      </trkpt>
      <trkpt lat="49.641005" lon="6.571165">
        <ele>189.0</ele>
        <time>2020-07-09T07:02:54Z</time>
      </trkpt>
      <trkpt lat="49.640909" lon="6.571195">
        <ele>189.0</ele>
        <time>2020-07-09T07:02:56Z</time>
      </trkpt>
      <trkpt lat="49.640808" lon="6.571243">
        <ele>189.0</ele>
        <time>2020-07-09T07:02:58Z</time>
      </trkpt>
      <trkpt lat="49.640711" lon="6.571293">
        <ele>189.0</ele>
        <time>2020-07-09T07:03:00Z</time>
      </trkpt>
      <trkpt lat="49.640614" lon="6.57135">
        <ele>189.0</ele>
        <time>2020-07-09T07:03:02Z</time>
      </trkpt>
      <trkpt lat="49.640516" lon="6.571429">
        <ele>190.0</ele>
        <time>2020-07-09T07:03:04Z</time>
      </trkpt>
      <trkpt lat="49.640422" lon="6.571507">
        <ele>189.0</ele>
        <time>2020-07-09T07:03:06Z</time>
      </trkpt>
      <trkpt lat="49.64028" lon="6.571624">
        <ele>189.0</ele>
        <time>2020-07-09T07:03:09Z</time>
      </trkpt>
      <trkpt lat="49.640234" lon="6.571663">
        <ele>189.0</ele>
        <time>2020-07-09T07:03:10Z</time>
      </trkpt>
      <trkpt lat="49.640089" lon="6.571757">
        <ele>189.0</ele>
        <time>2020-07-09T07:03:13Z</time>
      </trkpt>
      <trkpt lat="49.639989" lon="6.571795">
        <ele>189.0</ele>
        <time>2020-07-09T07:03:15Z</time>
      </trkpt>
      <trkpt lat="49.639884" lon="6.571844">
        <ele>188.0</ele>
        <time>2020-07-09T07:03:17Z</time>
      </trkpt>
      <trkpt lat="49.639789" lon="6.571892">
        <ele>188.0</ele>
        <time>2020-07-09T07:03:19Z</time>
      </trkpt>
      <trkpt lat="49.639704" lon="6.571939">
        <ele>188.0</ele>
        <time>2020-07-09T07:03:21Z</time>
      </trkpt>
      <trkpt lat="49.639612" lon="6.571983">
        <ele>188.0</ele>
        <time>2020-07-09T07:03:23Z</time>
      </trkpt>
      <trkpt lat="49.639517" lon="6.57203">
        <ele>188.0</ele>
        <time>2020-07-09T07:03:25Z</time>
      </trkpt>
      <trkpt lat="49.639422" lon="6.572079">
        <ele>188.0</ele>
        <time>2020-07-09T07:03:27Z</time>
      </trkpt>
      <trkpt lat="49.639327" lon="6.572122">
        <ele>188.0</ele>
        <time>2020-07-09T07:03:29Z</time>
      </trkpt>
      <trkpt lat="49.639233" lon="6.572171">
        <ele>187.0</ele>
        <time>2020-07-09T07:03:31Z</time>
      </trkpt>
      <trkpt lat="49.639132" lon="6.572206">
        <ele>187.0</ele>
        <time>2020-07-09T07:03:33Z</time>
      </trkpt>
      <trkpt lat="49.639038" lon="6.572243">
        <ele>186.0</ele>
        <time>2020-07-09T07:03:35Z</time>
      </trkpt>
      <trkpt lat="49.638948" lon="6.572277">
        <ele>187.0</ele>
        <time>2020-07-09T07:03:37Z</time>
      </trkpt>
      <trkpt lat="49.638849" lon="6.572312">
        <ele>187.0</ele>
        <time>2020-07-09T07:03:39Z</time>
      </trkpt>
      <trkpt lat="49.638749" lon="6.572351">
        <ele>187.0</ele>
        <time>2020-07-09T07:03:41Z</time>
      </trkpt>
      <trkpt lat="49.638655" lon="6.572391">
        <ele>187.0</ele>
        <time>2020-07-09T07:03:43Z</time>
      </trkpt>
      <trkpt lat="49.638562" lon="6.572424">
        <ele>187.0</ele>
        <time>2020-07-09T07:03:45Z</time>
      </trkpt>
      <trkpt lat="49.63847" lon="6.572452">
        <ele>186.0</ele>
        <time>2020-07-09T07:03:47Z</time>
      </trkpt>
      <trkpt lat="49.638369" lon="6.572465">
        <ele>187.0</ele>
        <time>2020-07-09T07:03:49Z</time>
      </trkpt>
      <trkpt lat="49.638272" lon="6.572483">
        <ele>187.0</ele>
        <time>2020-07-09T07:03:51Z</time>
      </trkpt>
      <trkpt lat="49.638182" lon="6.572508">
        <ele>187.0</ele>
        <time>2020-07-09T07:03:53Z</time>
      </trkpt>
      <trkpt lat="49.638091" lon="6.572539">
        <ele>188.0</ele>
        <time>2020-07-09T07:03:55Z</time>
      </trkpt>
      <trkpt lat="49.637954" lon="6.572574">
        <ele>189.0</ele>
        <time>2020-07-09T07:03:58Z</time>
      </trkpt>
      <trkpt lat="49.637861" lon="6.572585">
        <ele>188.0</ele>
        <time>2020-07-09T07:04:00Z</time>
      </trkpt>
      <trkpt lat="49.637769" lon="6.572606">
        <ele>188.0</ele>
        <time>2020-07-09T07:04:02Z</time>
      </trkpt>
      <trkpt lat="49.637721" lon="6.572615">
        <ele>188.0</ele>
        <time>2020-07-09T07:04:03Z</time>
      </trkpt>
      <trkpt lat="49.637578" lon="6.572641">
        <ele>188.0</ele>
        <time>2020-07-09T07:04:06Z</time>
      </trkpt>
      <trkpt lat="49.637494" lon="6.572651">
        <ele>188.0</ele>
        <time>2020-07-09T07:04:08Z</time>
      </trkpt>
      <trkpt lat="49.637411" lon="6.572662">
        <ele>188.0</ele>
        <time>2020-07-09T07:04:10Z</time>
      </trkpt>
      <trkpt lat="49.637328" lon="6.572687">
        <ele>188.0</ele>
        <time>2020-07-09T07:04:12Z</time>
      </trkpt>
      <trkpt lat="49.637248" lon="6.572707">
        <ele>188.0</ele>
        <time>2020-07-09T07:04:14Z</time>
      </trkpt>
      <trkpt lat="49.63716" lon="6.572713">
        <ele>189.0</ele>
        <time>2020-07-09T07:04:16Z</time>
      </trkpt>
      <trkpt lat="49.637064" lon="6.572729">
        <ele>189.0</ele>
        <time>2020-07-09T07:04:18Z</time>
      </trkpt>
      <trkpt lat="49.636976" lon="6.572743">
        <ele>188.0</ele>
        <time>2020-07-09T07:04:20Z</time>
      </trkpt>
      <trkpt lat="49.636886" lon="6.572762">
        <ele>188.0</ele>
        <time>2020-07-09T07:04:22Z</time>
      </trkpt>
      <trkpt lat="49.636797" lon="6.572772">
        <ele>188.0</ele>
        <time>2020-07-09T07:04:24Z</time>
      </trkpt>
      <trkpt lat="49.636711" lon="6.572791">
        <ele>188.0</ele>
        <time>2020-07-09T07:04:26Z</time>
      </trkpt>
      <trkpt lat="49.636622" lon="6.572808">
        <ele>189.0</ele>
        <time>2020-07-09T07:04:28Z</time>
      </trkpt>
      <trkpt lat="49.636534" lon="6.572821">
        <ele>189.0</ele>
        <time>2020-07-09T07:04:30Z</time>
      </trkpt>
      <trkpt lat="49.636443" lon="6.572831">
        <ele>189.0</ele>
        <time>2020-07-09T07:04:32Z</time>
      </trkpt>
      <trkpt lat="49.636306" lon="6.572855">
        <ele>188.0</ele>
        <time>2020-07-09T07:04:35Z</time>
      </trkpt>
      <trkpt lat="49.636216" lon="6.572869">
        <ele>188.0</ele>
        <time>2020-07-09T07:04:37Z</time>
      </trkpt>
      <trkpt lat="49.636124" lon="6.572888">
        <ele>188.0</ele>
        <time>2020-07-09T07:04:39Z</time>
      </trkpt>
      <trkpt lat="49.635986" lon="6.572911">
        <ele>188.0</ele>
        <time>2020-07-09T07:04:42Z</time>
      </trkpt>
      <trkpt lat="49.635852" lon="6.572933">
        <ele>188.0</ele>
        <time>2020-07-09T07:04:45Z</time>
      </trkpt>
      <trkpt lat="49.635761" lon="6.572949">
        <ele>188.0</ele>
        <time>2020-07-09T07:04:47Z</time>
      </trkpt>
      <trkpt lat="49.635673" lon="6.572968">
        <ele>189.0</ele>
        <time>2020-07-09T07:04:49Z</time>
      </trkpt>
      <trkpt lat="49.63559" lon="6.572962">
        <ele>188.0</ele>
        <time>2020-07-09T07:04:51Z</time>
      </trkpt>
      <trkpt lat="49.635503" lon="6.572952">
        <ele>189.0</ele>
        <time>2020-07-09T07:04:53Z</time>
      </trkpt>
      <trkpt lat="49.635417" lon="6.572946">
        <ele>189.0</ele>
        <time>2020-07-09T07:04:55Z</time>
      </trkpt>
      <trkpt lat="49.635297" lon="6.572934">
        <ele>190.0</ele>
        <time>2020-07-09T07:04:58Z</time>
      </trkpt>
      <trkpt lat="49.635218" lon="6.572942">
        <ele>190.0</ele>
        <time>2020-07-09T07:05:00Z</time>
      </trkpt>
      <trkpt lat="49.635137" lon="6.572955">
        <ele>190.0</ele>
        <time>2020-07-09T07:05:02Z</time>
      </trkpt>
      <trkpt lat="49.635053" lon="6.572973">
        <ele>190.0</ele>
        <time>2020-07-09T07:05:04Z</time>
      </trkpt>
      <trkpt lat="49.634967" lon="6.572985">
        <ele>190.0</ele>
        <time>2020-07-09T07:05:06Z</time>
      </trkpt>
      <trkpt lat="49.634836" lon="6.573006">
        <ele>190.0</ele>
        <time>2020-07-09T07:05:09Z</time>
      </trkpt>
      <trkpt lat="49.634749" lon="6.573032">
        <ele>190.0</ele>
        <time>2020-07-09T07:05:11Z</time>
      </trkpt>
      <trkpt lat="49.634662" lon="6.57305">
        <ele>190.0</ele>
        <time>2020-07-09T07:05:13Z</time>
      </trkpt>
      <trkpt lat="49.634576" lon="6.573071">
        <ele>190.0</ele>
        <time>2020-07-09T07:05:15Z</time>
      </trkpt>
      <trkpt lat="49.634489" lon="6.573085">
        <ele>190.0</ele>
        <time>2020-07-09T07:05:17Z</time>
      </trkpt>
      <trkpt lat="49.634403" lon="6.57311">
        <ele>190.0</ele>
        <time>2020-07-09T07:05:19Z</time>
      </trkpt>
      <trkpt lat="49.634267" lon="6.573147">
        <ele>190.0</ele>
        <time>2020-07-09T07:05:22Z</time>
      </trkpt>
      <trkpt lat="49.634178" lon="6.573166">
        <ele>190.0</ele>
        <time>2020-07-09T07:05:24Z</time>
      </trkpt>
      <trkpt lat="49.634049" lon="6.57321">
        <ele>190.0</ele>
        <time>2020-07-09T07:05:27Z</time>
      </trkpt>
      <trkpt lat="49.633958" lon="6.573236">
        <ele>190.0</ele>
        <time>2020-07-09T07:05:29Z</time>
      </trkpt>
      <trkpt lat="49.633873" lon="6.573257">
        <ele>190.0</ele>
        <time>2020-07-09T07:05:31Z</time>
      </trkpt>
      <trkpt lat="49.633831" lon="6.57325">
        <ele>190.0</ele>
        <time>2020-07-09T07:05:32Z</time>
      </trkpt>
      <trkpt lat="49.633716" lon="6.573152">
        <ele>190.0</ele>
        <time>2020-07-09T07:05:35Z</time>
      </trkpt>
      <trkpt lat="49.63363" lon="6.57312">
        <ele>191.0</ele>
        <time>2020-07-09T07:05:37Z</time>
      </trkpt>
      <trkpt lat="49.633541" lon="6.57314">
        <ele>191.0</ele>
        <time>2020-07-09T07:05:39Z</time>
      </trkpt>
      <trkpt lat="49.633431" lon="6.573182">
        <ele>191.0</ele>
        <time>2020-07-09T07:05:42Z</time>
      </trkpt>
      <trkpt lat="49.63331" lon="6.573194">
        <ele>191.0</ele>
        <time>2020-07-09T07:05:45Z</time>
      </trkpt>
      <trkpt lat="49.633224" lon="6.573206">
        <ele>191.0</ele>
        <time>2020-07-09T07:05:47Z</time>
      </trkpt>
      <trkpt lat="49.633135" lon="6.573226">
        <ele>191.0</ele>
        <time>2020-07-09T07:05:49Z</time>
      </trkpt>
      <trkpt lat="49.63295" lon="6.573298">
        <ele>192.0</ele>
        <time>2020-07-09T07:05:53Z</time>
      </trkpt>
      <trkpt lat="49.632857" lon="6.573379">
        <ele>192.0</ele>
        <time>2020-07-09T07:05:55Z</time>
      </trkpt>
      <trkpt lat="49.632772" lon="6.573477">
        <ele>192.0</ele>
        <time>2020-07-09T07:05:57Z</time>
      </trkpt>
      <trkpt lat="49.632737" lon="6.573533">
        <ele>192.0</ele>
        <time>2020-07-09T07:05:58Z</time>
      </trkpt>
      <trkpt lat="49.632656" lon="6.573622">
        <ele>192.0</ele>
        <time>2020-07-09T07:06:00Z</time>
      </trkpt>
      <trkpt lat="49.632467" lon="6.573693">
        <ele>191.0</ele>
        <time>2020-07-09T07:06:04Z</time>
      </trkpt>
      <trkpt lat="49.632374" lon="6.573724">
        <ele>191.0</ele>
        <time>2020-07-09T07:06:06Z</time>
      </trkpt>
      <trkpt lat="49.632326" lon="6.573733">
        <ele>191.0</ele>
        <time>2020-07-09T07:06:07Z</time>
      </trkpt>
      <trkpt lat="49.632187" lon="6.573775">
        <ele>190.0</ele>
        <time>2020-07-09T07:06:10Z</time>
      </trkpt>
      <trkpt lat="49.63209" lon="6.573802">
        <ele>190.0</ele>
        <time>2020-07-09T07:06:12Z</time>
      </trkpt>
      <trkpt lat="49.631997" lon="6.573813">
        <ele>190.0</ele>
        <time>2020-07-09T07:06:14Z</time>
      </trkpt>
      <trkpt lat="49.631852" lon="6.573832">
        <ele>190.0</ele>
        <time>2020-07-09T07:06:17Z</time>
      </trkpt>
      <trkpt lat="49.63181" lon="6.573847">
        <ele>190.0</ele>
        <time>2020-07-09T07:06:18Z</time>
      </trkpt>
      <trkpt lat="49.63167" lon="6.573891">
        <ele>191.0</ele>
        <time>2020-07-09T07:06:21Z</time>
      </trkpt>
      <trkpt lat="49.631538" lon="6.573941">
        <ele>191.0</ele>
        <time>2020-07-09T07:06:24Z</time>
      </trkpt>
      <trkpt lat="49.631493" lon="6.573951">
        <ele>190.0</ele>
        <time>2020-07-09T07:06:25Z</time>
      </trkpt>
      <trkpt lat="49.631364" lon="6.573984">
        <ele>190.0</ele>
        <time>2020-07-09T07:06:28Z</time>
      </trkpt>
      <trkpt lat="49.631241" lon="6.574029">
        <ele>189.0</ele>
        <time>2020-07-09T07:06:31Z</time>
      </trkpt>
      <trkpt lat="49.631162" lon="6.574055">
        <ele>189.0</ele>
        <time>2020-07-09T07:06:33Z</time>
      </trkpt>
      <trkpt lat="49.631074" lon="6.57407">
        <ele>188.0</ele>
        <time>2020-07-09T07:06:35Z</time>
      </trkpt>
      <trkpt lat="49.630984" lon="6.574088">
        <ele>188.0</ele>
        <time>2020-07-09T07:06:37Z</time>
      </trkpt>
      <trkpt lat="49.630943" lon="6.5741">
        <ele>188.0</ele>
        <time>2020-07-09T07:06:38Z</time>
      </trkpt>
      <trkpt lat="49.63081" lon="6.574149">
        <ele>188.0</ele>
        <time>2020-07-09T07:06:41Z</time>
      </trkpt>
      <trkpt lat="49.630721" lon="6.574169">
        <ele>189.0</ele>
        <time>2020-07-09T07:06:43Z</time>
      </trkpt>
      <trkpt lat="49.630632" lon="6.57419">
        <ele>188.0</ele>
        <time>2020-07-09T07:06:45Z</time>
      </trkpt>
      <trkpt lat="49.630541" lon="6.57422">
        <ele>188.0</ele>
        <time>2020-07-09T07:06:47Z</time>
      </trkpt>
      <trkpt lat="49.630399" lon="6.574268">
        <ele>189.0</ele>
        <time>2020-07-09T07:06:50Z</time>
      </trkpt>
      <trkpt lat="49.630304" lon="6.57431">
        <ele>189.0</ele>
        <time>2020-07-09T07:06:52Z</time>
      </trkpt>
      <trkpt lat="49.630211" lon="6.574357">
        <ele>188.0</ele>
        <time>2020-07-09T07:06:54Z</time>
      </trkpt>
      <trkpt lat="49.630119" lon="6.574405">
        <ele>189.0</ele>
        <time>2020-07-09T07:06:56Z</time>
      </trkpt>
      <trkpt lat="49.630024" lon="6.574447">
        <ele>188.0</ele>
        <time>2020-07-09T07:06:58Z</time>
      </trkpt>
      <trkpt lat="49.629928" lon="6.574473">
        <ele>188.0</ele>
        <time>2020-07-09T07:07:00Z</time>
      </trkpt>
      <trkpt lat="49.629831" lon="6.574505">
        <ele>188.0</ele>
        <time>2020-07-09T07:07:02Z</time>
      </trkpt>
      <trkpt lat="49.629732" lon="6.574527">
        <ele>188.0</ele>
        <time>2020-07-09T07:07:04Z</time>
      </trkpt>
      <trkpt lat="49.629635" lon="6.574541">
        <ele>188.0</ele>
        <time>2020-07-09T07:07:06Z</time>
      </trkpt>
      <trkpt lat="49.629487" lon="6.574575">
        <ele>187.0</ele>
        <time>2020-07-09T07:07:09Z</time>
      </trkpt>
      <trkpt lat="49.629388" lon="6.574598">
        <ele>187.0</ele>
        <time>2020-07-09T07:07:11Z</time>
      </trkpt>
      <trkpt lat="49.629293" lon="6.574626">
        <ele>187.0</ele>
        <time>2020-07-09T07:07:13Z</time>
      </trkpt>
      <trkpt lat="49.629153" lon="6.574668">
        <ele>187.0</ele>
        <time>2020-07-09T07:07:16Z</time>
      </trkpt>
      <trkpt lat="49.629061" lon="6.574686">
        <ele>187.0</ele>
        <time>2020-07-09T07:07:18Z</time>
      </trkpt>
      <trkpt lat="49.628963" lon="6.574715">
        <ele>188.0</ele>
        <time>2020-07-09T07:07:20Z</time>
      </trkpt>
      <trkpt lat="49.628866" lon="6.574728">
        <ele>188.0</ele>
        <time>2020-07-09T07:07:22Z</time>
      </trkpt>
      <trkpt lat="49.628771" lon="6.574752">
        <ele>188.0</ele>
        <time>2020-07-09T07:07:24Z</time>
      </trkpt>
      <trkpt lat="49.628635" lon="6.574793">
        <ele>188.0</ele>
        <time>2020-07-09T07:07:27Z</time>
      </trkpt>
      <trkpt lat="49.628539" lon="6.574822">
        <ele>188.0</ele>
        <time>2020-07-09T07:07:29Z</time>
      </trkpt>
      <trkpt lat="49.628449" lon="6.574835">
        <ele>188.0</ele>
        <time>2020-07-09T07:07:31Z</time>
      </trkpt>
      <trkpt lat="49.628359" lon="6.574853">
        <ele>188.0</ele>
        <time>2020-07-09T07:07:33Z</time>
      </trkpt>
      <trkpt lat="49.628268" lon="6.574873">
        <ele>188.0</ele>
        <time>2020-07-09T07:07:35Z</time>
      </trkpt>
      <trkpt lat="49.628177" lon="6.574883">
        <ele>188.0</ele>
        <time>2020-07-09T07:07:37Z</time>
      </trkpt>
      <trkpt lat="49.628082" lon="6.574892">
        <ele>188.0</ele>
        <time>2020-07-09T07:07:39Z</time>
      </trkpt>
      <trkpt lat="49.627989" lon="6.574915">
        <ele>188.0</ele>
        <time>2020-07-09T07:07:41Z</time>
      </trkpt>
      <trkpt lat="49.627849" lon="6.57493">
        <ele>188.0</ele>
        <time>2020-07-09T07:07:44Z</time>
      </trkpt>
      <trkpt lat="49.627754" lon="6.574931">
        <ele>188.0</ele>
        <time>2020-07-09T07:07:46Z</time>
      </trkpt>
      <trkpt lat="49.627658" lon="6.574929">
        <ele>188.0</ele>
        <time>2020-07-09T07:07:48Z</time>
      </trkpt>
      <trkpt lat="49.627521" lon="6.574919">
        <ele>188.0</ele>
        <time>2020-07-09T07:07:51Z</time>
      </trkpt>
      <trkpt lat="49.627476" lon="6.574917">
        <ele>189.0</ele>
        <time>2020-07-09T07:07:52Z</time>
      </trkpt>
      <trkpt lat="49.627338" lon="6.574893">
        <ele>189.0</ele>
        <time>2020-07-09T07:07:55Z</time>
      </trkpt>
      <trkpt lat="49.627238" lon="6.574886">
        <ele>189.0</ele>
        <time>2020-07-09T07:07:57Z</time>
      </trkpt>
      <trkpt lat="49.627087" lon="6.574864">
        <ele>189.0</ele>
        <time>2020-07-09T07:08:00Z</time>
      </trkpt>
      <trkpt lat="49.626992" lon="6.574854">
        <ele>189.0</ele>
        <time>2020-07-09T07:08:02Z</time>
      </trkpt>
      <trkpt lat="49.626898" lon="6.574822">
        <ele>190.0</ele>
        <time>2020-07-09T07:08:04Z</time>
      </trkpt>
      <trkpt lat="49.626754" lon="6.574782">
        <ele>190.0</ele>
        <time>2020-07-09T07:08:07Z</time>
      </trkpt>
      <trkpt lat="49.626665" lon="6.574765">
        <ele>190.0</ele>
        <time>2020-07-09T07:08:09Z</time>
      </trkpt>
      <trkpt lat="49.626574" lon="6.574738">
        <ele>190.0</ele>
        <time>2020-07-09T07:08:11Z</time>
      </trkpt>
      <trkpt lat="49.62653" lon="6.57472">
        <ele>190.0</ele>
        <time>2020-07-09T07:08:12Z</time>
      </trkpt>
      <trkpt lat="49.626389" lon="6.574649">
        <ele>191.0</ele>
        <time>2020-07-09T07:08:15Z</time>
      </trkpt>
      <trkpt lat="49.626302" lon="6.574608">
        <ele>191.0</ele>
        <time>2020-07-09T07:08:17Z</time>
      </trkpt>
      <trkpt lat="49.626208" lon="6.574569">
        <ele>191.0</ele>
        <time>2020-07-09T07:08:19Z</time>
      </trkpt>
      <trkpt lat="49.626165" lon="6.574547">
        <ele>191.0</ele>
        <time>2020-07-09T07:08:20Z</time>
      </trkpt>
      <trkpt lat="49.626072" lon="6.574496">
        <ele>190.0</ele>
        <time>2020-07-09T07:08:22Z</time>
      </trkpt>
      <trkpt lat="49.625942" lon="6.574417">
        <ele>190.0</ele>
        <time>2020-07-09T07:08:25Z</time>
      </trkpt>
      <trkpt lat="49.625851" lon="6.574364">
        <ele>190.0</ele>
        <time>2020-07-09T07:08:27Z</time>
      </trkpt>
      <trkpt lat="49.625763" lon="6.574307">
        <ele>191.0</ele>
        <time>2020-07-09T07:08:29Z</time>
      </trkpt>
      <trkpt lat="49.625718" lon="6.57428">
        <ele>191.0</ele>
        <time>2020-07-09T07:08:30Z</time>
      </trkpt>
      <trkpt lat="49.62559" lon="6.574172">
        <ele>191.0</ele>
        <time>2020-07-09T07:08:33Z</time>
      </trkpt>
      <trkpt lat="49.625549" lon="6.574144">
        <ele>191.0</ele>
        <time>2020-07-09T07:08:34Z</time>
      </trkpt>
      <trkpt lat="49.625426" lon="6.574038">
        <ele>191.0</ele>
        <time>2020-07-09T07:08:37Z</time>
      </trkpt>
      <trkpt lat="49.625297" lon="6.573935">
        <ele>191.0</ele>
        <time>2020-07-09T07:08:40Z</time>
      </trkpt>
      <trkpt lat="49.625179" lon="6.573832">
        <ele>191.0</ele>
        <time>2020-07-09T07:08:43Z</time>
      </trkpt>
      <trkpt lat="49.62514" lon="6.573795">
        <ele>191.0</ele>
        <time>2020-07-09T07:08:44Z</time>
      </trkpt>
      <trkpt lat="49.625016" lon="6.573676">
        <ele>192.0</ele>
        <time>2020-07-09T07:08:47Z</time>
      </trkpt>
      <trkpt lat="49.624931" lon="6.573599">
        <ele>192.0</ele>
        <time>2020-07-09T07:08:49Z</time>
      </trkpt>
      <trkpt lat="49.624815" lon="6.573478">
        <ele>192.0</ele>
        <time>2020-07-09T07:08:52Z</time>
      </trkpt>
      <trkpt lat="49.624743" lon="6.57339">
        <ele>192.0</ele>
        <time>2020-07-09T07:08:54Z</time>
      </trkpt>
      <trkpt lat="49.624668" lon="6.573299">
        <ele>192.0</ele>
        <time>2020-07-09T07:08:56Z</time>
      </trkpt>
      <trkpt lat="49.624595" lon="6.573203">
        <ele>192.0</ele>
        <time>2020-07-09T07:08:58Z</time>
      </trkpt>
      <trkpt lat="49.624494" lon="6.573061">
        <ele>191.0</ele>
        <time>2020-07-09T07:09:01Z</time>
      </trkpt>
      <trkpt lat="49.624427" lon="6.572964">
        <ele>191.0</ele>
        <time>2020-07-09T07:09:03Z</time>
      </trkpt>
      <trkpt lat="49.624356" lon="6.572866">
        <ele>191.0</ele>
        <time>2020-07-09T07:09:05Z</time>
      </trkpt>
      <trkpt lat="49.624288" lon="6.572759">
        <ele>191.0</ele>
        <time>2020-07-09T07:09:07Z</time>
      </trkpt>
      <trkpt lat="49.624179" lon="6.57259">
        <ele>191.0</ele>
        <time>2020-07-09T07:09:10Z</time>
      </trkpt>
      <trkpt lat="49.624113" lon="6.572467">
        <ele>191.0</ele>
        <time>2020-07-09T07:09:12Z</time>
      </trkpt>
      <trkpt lat="49.62405" lon="6.57235">
        <ele>191.0</ele>
        <time>2020-07-09T07:09:14Z</time>
      </trkpt>
      <trkpt lat="49.623991" lon="6.572236">
        <ele>192.0</ele>
        <time>2020-07-09T07:09:16Z</time>
      </trkpt>
      <trkpt lat="49.623932" lon="6.572109">
        <ele>191.0</ele>
        <time>2020-07-09T07:09:18Z</time>
      </trkpt>
      <trkpt lat="49.623887" lon="6.571989">
        <ele>191.0</ele>
        <time>2020-07-09T07:09:20Z</time>
      </trkpt>
      <trkpt lat="49.623843" lon="6.571861">
        <ele>191.0</ele>
        <time>2020-07-09T07:09:22Z</time>
      </trkpt>
      <trkpt lat="49.623793" lon="6.571735">
        <ele>191.0</ele>
        <time>2020-07-09T07:09:24Z</time>
      </trkpt>
      <trkpt lat="49.623722" lon="6.571564">
        <ele>191.0</ele>
        <time>2020-07-09T07:09:27Z</time>
      </trkpt>
      <trkpt lat="49.623668" lon="6.571349">
        <ele>191.0</ele>
        <time>2020-07-09T07:09:30Z</time>
      </trkpt>
      <trkpt lat="49.623649" lon="6.57128">
        <ele>192.0</ele>
        <time>2020-07-09T07:09:31Z</time>
      </trkpt>
      <trkpt lat="49.623599" lon="6.571064">
        <ele>191.0</ele>
        <time>2020-07-09T07:09:34Z</time>
      </trkpt>
      <trkpt lat="49.623551" lon="6.570934">
        <ele>191.0</ele>
        <time>2020-07-09T07:09:36Z</time>
      </trkpt>
      <trkpt lat="49.623495" lon="6.570717">
        <ele>191.0</ele>
        <time>2020-07-09T07:09:39Z</time>
      </trkpt>
      <trkpt lat="49.623483" lon="6.570644">
        <ele>191.0</ele>
        <time>2020-07-09T07:09:40Z</time>
      </trkpt>
      <trkpt lat="49.623442" lon="6.570448">
        <ele>190.0</ele>
        <time>2020-07-09T07:09:43Z</time>
      </trkpt>
      <trkpt lat="49.623411" lon="6.570322">
        <ele>190.0</ele>
        <time>2020-07-09T07:09:45Z</time>
      </trkpt>
      <trkpt lat="49.623378" lon="6.570209">
        <ele>191.0</ele>
        <time>2020-07-09T07:09:47Z</time>
      </trkpt>
      <trkpt lat="49.623356" lon="6.570099">
        <ele>190.0</ele>
        <time>2020-07-09T07:09:49Z</time>
      </trkpt>
      <trkpt lat="49.623334" lon="6.569975">
        <ele>190.0</ele>
        <time>2020-07-09T07:09:51Z</time>
      </trkpt>
      <trkpt lat="49.623306" lon="6.569841">
        <ele>191.0</ele>
        <time>2020-07-09T07:09:53Z</time>
      </trkpt>
      <trkpt lat="49.623272" lon="6.569631">
        <ele>190.0</ele>
        <time>2020-07-09T07:09:56Z</time>
      </trkpt>
      <trkpt lat="49.623236" lon="6.569507">
        <ele>190.0</ele>
        <time>2020-07-09T07:09:58Z</time>
      </trkpt>
      <trkpt lat="49.623209" lon="6.569377">
        <ele>190.0</ele>
        <time>2020-07-09T07:10:00Z</time>
      </trkpt>
      <trkpt lat="49.62318" lon="6.569237">
        <ele>190.0</ele>
        <time>2020-07-09T07:10:02Z</time>
      </trkpt>
      <trkpt lat="49.623155" lon="6.569168">
        <ele>190.0</ele>
        <time>2020-07-09T07:10:03Z</time>
      </trkpt>
      <trkpt lat="49.623009" lon="6.568682">
        <ele>190.0</ele>
        <time>2020-07-09T07:10:10Z</time>
      </trkpt>
      <trkpt lat="49.622964" lon="6.568554">
        <ele>190.0</ele>
        <time>2020-07-09T07:10:12Z</time>
      </trkpt>
      <trkpt lat="49.622928" lon="6.568418">
        <ele>190.0</ele>
        <time>2020-07-09T07:10:14Z</time>
      </trkpt>
      <trkpt lat="49.622883" lon="6.568278">
        <ele>190.0</ele>
        <time>2020-07-09T07:10:16Z</time>
      </trkpt>
      <trkpt lat="49.622851" lon="6.568142">
        <ele>191.0</ele>
        <time>2020-07-09T07:10:18Z</time>
      </trkpt>
      <trkpt lat="49.622802" lon="6.568005">
        <ele>191.0</ele>
        <time>2020-07-09T07:10:20Z</time>
      </trkpt>
      <trkpt lat="49.622754" lon="6.567868">
        <ele>191.0</ele>
        <time>2020-07-09T07:10:22Z</time>
      </trkpt>
      <trkpt lat="49.62271" lon="6.567728">
        <ele>191.0</ele>
        <time>2020-07-09T07:10:24Z</time>
      </trkpt>
      <trkpt lat="49.622668" lon="6.567575">
        <ele>191.0</ele>
        <time>2020-07-09T07:10:26Z</time>
      </trkpt>
      <trkpt lat="49.622626" lon="6.567431">
        <ele>191.0</ele>
        <time>2020-07-09T07:10:28Z</time>
      </trkpt>
      <trkpt lat="49.622581" lon="6.567295">
        <ele>192.0</ele>
        <time>2020-07-09T07:10:30Z</time>
      </trkpt>
      <trkpt lat="49.622532" lon="6.567152">
        <ele>192.0</ele>
        <time>2020-07-09T07:10:32Z</time>
      </trkpt>
      <trkpt lat="49.622482" lon="6.567012">
        <ele>192.0</ele>
        <time>2020-07-09T07:10:34Z</time>
      </trkpt>
      <trkpt lat="49.622359" lon="6.566578">
        <ele>192.0</ele>
        <time>2020-07-09T07:10:40Z</time>
      </trkpt>
      <trkpt lat="49.622327" lon="6.566432">
        <ele>192.0</ele>
        <time>2020-07-09T07:10:42Z</time>
      </trkpt>
      <trkpt lat="49.622297" lon="6.566282">
        <ele>192.0</ele>
        <time>2020-07-09T07:10:44Z</time>
      </trkpt>
      <trkpt lat="49.622255" lon="6.56614">
        <ele>191.0</ele>
        <time>2020-07-09T07:10:46Z</time>
      </trkpt>
      <trkpt lat="49.622212" lon="6.565993">
        <ele>190.0</ele>
        <time>2020-07-09T07:10:48Z</time>
      </trkpt>
      <trkpt lat="49.622168" lon="6.565846">
        <ele>190.0</ele>
        <time>2020-07-09T07:10:50Z</time>
      </trkpt>
      <trkpt lat="49.622149" lon="6.565775">
        <ele>190.0</ele>
        <time>2020-07-09T07:10:51Z</time>
      </trkpt>
      <trkpt lat="49.622017" lon="6.565291">
        <ele>190.0</ele>
        <time>2020-07-09T07:10:58Z</time>
      </trkpt>
      <trkpt lat="49.621946" lon="6.565097">
        <ele>191.0</ele>
        <time>2020-07-09T07:11:01Z</time>
      </trkpt>
      <trkpt lat="49.621908" lon="6.56496">
        <ele>191.0</ele>
        <time>2020-07-09T07:11:03Z</time>
      </trkpt>
      <trkpt lat="49.62187" lon="6.56483">
        <ele>191.0</ele>
        <time>2020-07-09T07:11:05Z</time>
      </trkpt>
      <trkpt lat="49.621831" lon="6.564708">
        <ele>191.0</ele>
        <time>2020-07-09T07:11:07Z</time>
      </trkpt>
      <trkpt lat="49.621786" lon="6.564575">
        <ele>192.0</ele>
        <time>2020-07-09T07:11:09Z</time>
      </trkpt>
      <trkpt lat="49.621744" lon="6.564447">
        <ele>191.0</ele>
        <time>2020-07-09T07:11:11Z</time>
      </trkpt>
      <trkpt lat="49.621704" lon="6.564313">
        <ele>191.0</ele>
        <time>2020-07-09T07:11:13Z</time>
      </trkpt>
      <trkpt lat="49.621651" lon="6.564181">
        <ele>191.0</ele>
        <time>2020-07-09T07:11:15Z</time>
      </trkpt>
      <trkpt lat="49.621606" lon="6.564066">
        <ele>191.0</ele>
        <time>2020-07-09T07:11:17Z</time>
      </trkpt>
      <trkpt lat="49.621567" lon="6.563964">
        <ele>191.0</ele>
        <time>2020-07-09T07:11:19Z</time>
      </trkpt>
      <trkpt lat="49.62153" lon="6.563873">
        <ele>191.0</ele>
        <time>2020-07-09T07:11:21Z</time>
      </trkpt>
      <trkpt lat="49.621479" lon="6.56378">
        <ele>191.0</ele>
        <time>2020-07-09T07:11:23Z</time>
      </trkpt>
      <trkpt lat="49.621411" lon="6.563715">
        <ele>191.0</ele>
        <time>2020-07-09T07:11:25Z</time>
      </trkpt>
      <trkpt lat="49.62122" lon="6.563586">
        <ele>190.0</ele>
        <time>2020-07-09T07:11:31Z</time>
      </trkpt>
      <trkpt lat="49.621172" lon="6.563511">
        <ele>190.0</ele>
        <time>2020-07-09T07:11:33Z</time>
      </trkpt>
      <trkpt lat="49.621122" lon="6.563447">
        <ele>190.0</ele>
        <time>2020-07-09T07:11:35Z</time>
      </trkpt>
      <trkpt lat="49.621083" lon="6.563385">
        <ele>190.0</ele>
        <time>2020-07-09T07:11:37Z</time>
      </trkpt>
      <trkpt lat="49.621082" lon="6.563366">
        <ele>191.0</ele>
        <time>2020-07-09T07:11:39Z</time>
      </trkpt>
      <trkpt lat="49.621087" lon="6.56337">
        <ele>191.0</ele>
        <time>2020-07-09T07:11:41Z</time>
      </trkpt>
      <trkpt lat="49.621087" lon="6.563366">
        <ele>190.0</ele>
        <time>2020-07-09T07:11:43Z</time>
      </trkpt>
      <trkpt lat="49.621087" lon="6.563365">
        <ele>190.0</ele>
        <time>2020-07-09T07:11:45Z</time>
      </trkpt>
      <trkpt lat="49.621087" lon="6.563365">
        <ele>190.0</ele>
        <time>2020-07-09T07:12:20Z</time>
      </trkpt>
      <trkpt lat="49.621087" lon="6.563365">
        <ele>190.0</ele>
        <time>2020-07-09T07:12:22Z</time>
      </trkpt>
      <trkpt lat="49.621087" lon="6.563365">
        <ele>190.0</ele>
        <time>2020-07-09T07:12:24Z</time>
      </trkpt>
      <trkpt lat="49.621087" lon="6.563365">
        <ele>190.0</ele>
        <time>2020-07-09T07:12:26Z</time>
      </trkpt>
      <trkpt lat="49.621087" lon="6.563365">
        <ele>190.0</ele>
        <time>2020-07-09T07:12:28Z</time>
      </trkpt>
      <trkpt lat="49.621087" lon="6.563365">
        <ele>190.0</ele>
        <time>2020-07-09T07:12:30Z</time>
      </trkpt>
      <trkpt lat="49.621087" lon="6.563365">
        <ele>190.0</ele>
        <time>2020-07-09T07:12:32Z</time>
      </trkpt>
      <trkpt lat="49.621087" lon="6.563365">
        <ele>190.0</ele>
        <time>2020-07-09T07:12:34Z</time>
      </trkpt>
      <trkpt lat="49.621087" lon="6.563365">
        <ele>190.0</ele>
        <time>2020-07-09T07:12:36Z</time>
      </trkpt>
      <trkpt lat="49.621087" lon="6.563365">
        <ele>190.0</ele>
        <time>2020-07-09T07:12:37Z</time>
      </trkpt>
      <trkpt lat="49.621087" lon="6.563365">
        <ele>190.0</ele>
        <time>2020-07-09T07:12:40Z</time>
      </trkpt>
      <trkpt lat="49.62108" lon="6.56337">
        <ele>190.0</ele>
        <time>2020-07-09T07:12:42Z</time>
      </trkpt>
      <trkpt lat="49.621077" lon="6.563345">
        <ele>188.0</ele>
        <time>2020-07-09T07:12:44Z</time>
      </trkpt>
      <trkpt lat="49.621055" lon="6.563314">
        <ele>187.0</ele>
        <time>2020-07-09T07:12:46Z</time>
      </trkpt>
      <trkpt lat="49.621019" lon="6.56327">
        <ele>187.0</ele>
        <time>2020-07-09T07:12:48Z</time>
      </trkpt>
      <trkpt lat="49.620987" lon="6.563216">
        <ele>187.0</ele>
        <time>2020-07-09T07:12:50Z</time>
      </trkpt>
      <trkpt lat="49.620979" lon="6.563196">
        <ele>187.0</ele>
        <time>2020-07-09T07:12:52Z</time>
      </trkpt>
      <trkpt lat="49.620979" lon="6.563196">
        <ele>187.0</ele>
        <time>2020-07-09T07:12:54Z</time>
      </trkpt>
      <trkpt lat="49.62098" lon="6.563197">
        <ele>187.0</ele>
        <time>2020-07-09T07:12:56Z</time>
      </trkpt>
      <trkpt lat="49.62098" lon="6.563197">
        <ele>187.0</ele>
        <time>2020-07-09T07:12:58Z</time>
      </trkpt>
      <trkpt lat="49.620982" lon="6.563215">
        <ele>185.0</ele>
        <time>2020-07-09T07:14:05Z</time>
      </trkpt>
      <trkpt lat="49.620982" lon="6.563215">
        <ele>185.0</ele>
        <time>2020-07-09T07:14:07Z</time>
      </trkpt>
      <trkpt lat="49.620982" lon="6.563215">
        <ele>185.0</ele>
        <time>2020-07-09T07:14:09Z</time>
      </trkpt>
      <trkpt lat="49.620982" lon="6.563215">
        <ele>185.0</ele>
        <time>2020-07-09T07:14:11Z</time>
      </trkpt>
      <trkpt lat="49.620982" lon="6.563215">
        <ele>185.0</ele>
        <time>2020-07-09T07:14:13Z</time>
      </trkpt>
      <trkpt lat="49.620982" lon="6.563215">
        <ele>185.0</ele>
        <time>2020-07-09T07:14:15Z</time>
      </trkpt>
      <trkpt lat="49.620982" lon="6.563215">
        <ele>185.0</ele>
        <time>2020-07-09T07:14:17Z</time>
      </trkpt>
      <trkpt lat="49.620982" lon="6.563215">
        <ele>185.0</ele>
        <time>2020-07-09T07:14:19Z</time>
      </trkpt>
      <trkpt lat="49.620982" lon="6.563215">
        <ele>185.0</ele>
        <time>2020-07-09T07:14:21Z</time>
      </trkpt>
      <trkpt lat="49.620982" lon="6.563215">
        <ele>185.0</ele>
        <time>2020-07-09T07:14:23Z</time>
      </trkpt>
      <trkpt lat="49.620982" lon="6.563215">
        <ele>185.0</ele>
        <time>2020-07-09T07:14:25Z</time>
      </trkpt>
      <trkpt lat="49.620982" lon="6.563215">
        <ele>185.0</ele>
        <time>2020-07-09T07:14:27Z</time>
      </trkpt>
      <trkpt lat="49.620973" lon="6.563198">
        <ele>186.0</ele>
        <time>2020-07-09T07:14:29Z</time>
      </trkpt>
      <trkpt lat="49.62095" lon="6.563154">
        <ele>187.0</ele>
        <time>2020-07-09T07:14:31Z</time>
      </trkpt>
      <trkpt lat="49.620907" lon="6.563096">
        <ele>187.0</ele>
        <time>2020-07-09T07:14:33Z</time>
      </trkpt>
      <trkpt lat="49.620857" lon="6.563033">
        <ele>188.0</ele>
        <time>2020-07-09T07:14:35Z</time>
      </trkpt>
      <trkpt lat="49.620801" lon="6.562951">
        <ele>188.0</ele>
        <time>2020-07-09T07:14:37Z</time>
      </trkpt>
      <trkpt lat="49.620737" lon="6.562868">
        <ele>189.0</ele>
        <time>2020-07-09T07:14:39Z</time>
      </trkpt>
      <trkpt lat="49.620708" lon="6.56283">
        <ele>189.0</ele>
        <time>2020-07-09T07:14:40Z</time>
      </trkpt>
      <trkpt lat="49.620617" lon="6.5627">
        <ele>190.0</ele>
        <time>2020-07-09T07:14:43Z</time>
      </trkpt>
      <trkpt lat="49.620576" lon="6.562598">
        <ele>191.0</ele>
        <time>2020-07-09T07:14:45Z</time>
      </trkpt>
      <trkpt lat="49.620533" lon="6.562416">
        <ele>191.0</ele>
        <time>2020-07-09T07:14:48Z</time>
      </trkpt>
      <trkpt lat="49.620482" lon="6.562331">
        <ele>191.0</ele>
        <time>2020-07-09T07:14:50Z</time>
      </trkpt>
      <trkpt lat="49.620419" lon="6.562247">
        <ele>192.0</ele>
        <time>2020-07-09T07:14:52Z</time>
      </trkpt>
      <trkpt lat="49.620356" lon="6.562165">
        <ele>191.0</ele>
        <time>2020-07-09T07:14:54Z</time>
      </trkpt>
      <trkpt lat="49.620281" lon="6.562079">
        <ele>192.0</ele>
        <time>2020-07-09T07:14:56Z</time>
      </trkpt>
      <trkpt lat="49.620207" lon="6.561984">
        <ele>192.0</ele>
        <time>2020-07-09T07:14:58Z</time>
      </trkpt>
      <trkpt lat="49.620147" lon="6.561874">
        <ele>192.0</ele>
        <time>2020-07-09T07:15:00Z</time>
      </trkpt>
      <trkpt lat="49.620082" lon="6.56177">
        <ele>192.0</ele>
        <time>2020-07-09T07:15:02Z</time>
      </trkpt>
      <trkpt lat="49.620022" lon="6.561678">
        <ele>192.0</ele>
        <time>2020-07-09T07:15:04Z</time>
      </trkpt>
      <trkpt lat="49.619946" lon="6.561571">
        <ele>192.0</ele>
        <time>2020-07-09T07:15:06Z</time>
      </trkpt>
      <trkpt lat="49.619829" lon="6.561427">
        <ele>193.0</ele>
        <time>2020-07-09T07:15:09Z</time>
      </trkpt>
      <trkpt lat="49.619793" lon="6.561368">
        <ele>193.0</ele>
        <time>2020-07-09T07:15:10Z</time>
      </trkpt>
      <trkpt lat="49.619679" lon="6.561222">
        <ele>192.0</ele>
        <time>2020-07-09T07:15:13Z</time>
      </trkpt>
      <trkpt lat="49.619567" lon="6.561059">
        <ele>192.0</ele>
        <time>2020-07-09T07:15:16Z</time>
      </trkpt>
      <trkpt lat="49.619493" lon="6.560955">
        <ele>191.0</ele>
        <time>2020-07-09T07:15:18Z</time>
      </trkpt>
      <trkpt lat="49.619368" lon="6.560824">
        <ele>191.0</ele>
        <time>2020-07-09T07:15:21Z</time>
      </trkpt>
      <trkpt lat="49.619278" lon="6.56075">
        <ele>191.0</ele>
        <time>2020-07-09T07:15:23Z</time>
      </trkpt>
      <trkpt lat="49.61919" lon="6.560672">
        <ele>191.0</ele>
        <time>2020-07-09T07:15:25Z</time>
      </trkpt>
      <trkpt lat="49.619102" lon="6.560605">
        <ele>192.0</ele>
        <time>2020-07-09T07:15:27Z</time>
      </trkpt>
      <trkpt lat="49.619008" lon="6.560537">
        <ele>191.0</ele>
        <time>2020-07-09T07:15:29Z</time>
      </trkpt>
      <trkpt lat="49.618913" lon="6.560466">
        <ele>191.0</ele>
        <time>2020-07-09T07:15:31Z</time>
      </trkpt>
      <trkpt lat="49.618768" lon="6.560384">
        <ele>190.0</ele>
        <time>2020-07-09T07:15:34Z</time>
      </trkpt>
      <trkpt lat="49.618673" lon="6.56034">
        <ele>190.0</ele>
        <time>2020-07-09T07:15:36Z</time>
      </trkpt>
      <trkpt lat="49.618566" lon="6.560313">
        <ele>189.0</ele>
        <time>2020-07-09T07:15:38Z</time>
      </trkpt>
      <trkpt lat="49.618453" lon="6.560308">
        <ele>190.0</ele>
        <time>2020-07-09T07:15:40Z</time>
      </trkpt>
      <trkpt lat="49.618363" lon="6.560354">
        <ele>189.0</ele>
        <time>2020-07-09T07:15:42Z</time>
      </trkpt>
      <trkpt lat="49.618284" lon="6.560462">
        <ele>189.0</ele>
        <time>2020-07-09T07:15:44Z</time>
      </trkpt>
      <trkpt lat="49.618189" lon="6.560516">
        <ele>188.0</ele>
        <time>2020-07-09T07:15:46Z</time>
      </trkpt>
      <trkpt lat="49.618101" lon="6.560554">
        <ele>189.0</ele>
        <time>2020-07-09T07:15:48Z</time>
      </trkpt>
      <trkpt lat="49.617979" lon="6.560647">
        <ele>188.0</ele>
        <time>2020-07-09T07:15:51Z</time>
      </trkpt>
      <trkpt lat="49.617899" lon="6.560718">
        <ele>188.0</ele>
        <time>2020-07-09T07:15:53Z</time>
      </trkpt>
      <trkpt lat="49.617821" lon="6.560779">
        <ele>188.0</ele>
        <time>2020-07-09T07:15:55Z</time>
      </trkpt>
      <trkpt lat="49.617756" lon="6.560825">
        <ele>188.0</ele>
        <time>2020-07-09T07:15:57Z</time>
      </trkpt>
      <trkpt lat="49.617707" lon="6.560857">
        <ele>188.0</ele>
        <time>2020-07-09T07:15:59Z</time>
      </trkpt>
      <trkpt lat="49.617697" lon="6.560885">
        <ele>188.0</ele>
        <time>2020-07-09T07:16:01Z</time>
      </trkpt>
      <trkpt lat="49.617674" lon="6.560899">
        <ele>188.0</ele>
        <time>2020-07-09T07:16:04Z</time>
      </trkpt>
      <trkpt lat="49.617641" lon="6.560922">
        <ele>187.0</ele>
        <time>2020-07-09T07:16:06Z</time>
      </trkpt>
      <trkpt lat="49.61756" lon="6.560976">
        <ele>187.0</ele>
        <time>2020-07-09T07:16:09Z</time>
      </trkpt>
      <trkpt lat="49.617485" lon="6.561022">
        <ele>188.0</ele>
        <time>2020-07-09T07:16:11Z</time>
      </trkpt>
      <trkpt lat="49.617408" lon="6.561068">
        <ele>188.0</ele>
        <time>2020-07-09T07:16:13Z</time>
      </trkpt>
      <trkpt lat="49.617341" lon="6.561129">
        <ele>188.0</ele>
        <time>2020-07-09T07:16:15Z</time>
      </trkpt>
      <trkpt lat="49.617291" lon="6.561199">
        <ele>188.0</ele>
        <time>2020-07-09T07:16:17Z</time>
      </trkpt>
      <trkpt lat="49.617249" lon="6.561262">
        <ele>189.0</ele>
        <time>2020-07-09T07:16:19Z</time>
      </trkpt>
      <trkpt lat="49.617188" lon="6.561317">
        <ele>189.0</ele>
        <time>2020-07-09T07:16:22Z</time>
      </trkpt>
      <trkpt lat="49.617137" lon="6.561344">
        <ele>188.0</ele>
        <time>2020-07-09T07:16:24Z</time>
      </trkpt>
      <trkpt lat="49.61708" lon="6.561356">
        <ele>188.0</ele>
        <time>2020-07-09T07:16:26Z</time>
      </trkpt>
      <trkpt lat="49.617012" lon="6.561355">
        <ele>188.0</ele>
        <time>2020-07-09T07:16:28Z</time>
      </trkpt>
      <trkpt lat="49.616934" lon="6.561369">
        <ele>188.0</ele>
        <time>2020-07-09T07:16:30Z</time>
      </trkpt>
      <trkpt lat="49.61685" lon="6.561382">
        <ele>189.0</ele>
        <time>2020-07-09T07:16:32Z</time>
      </trkpt>
      <trkpt lat="49.61677" lon="6.561387">
        <ele>189.0</ele>
        <time>2020-07-09T07:16:34Z</time>
      </trkpt>
      <trkpt lat="49.616687" lon="6.561389">
        <ele>189.0</ele>
        <time>2020-07-09T07:16:36Z</time>
      </trkpt>
      <trkpt lat="49.616556" lon="6.561403">
        <ele>190.0</ele>
        <time>2020-07-09T07:16:39Z</time>
      </trkpt>
      <trkpt lat="49.616468" lon="6.561415">
        <ele>190.0</ele>
        <time>2020-07-09T07:16:41Z</time>
      </trkpt>
      <trkpt lat="49.616384" lon="6.561438">
        <ele>190.0</ele>
        <time>2020-07-09T07:16:43Z</time>
      </trkpt>
      <trkpt lat="49.616251" lon="6.56144">
        <ele>190.0</ele>
        <time>2020-07-09T07:16:46Z</time>
      </trkpt>
      <trkpt lat="49.61615" lon="6.561452">
        <ele>190.0</ele>
        <time>2020-07-09T07:16:48Z</time>
      </trkpt>
      <trkpt lat="49.616057" lon="6.561467">
        <ele>190.0</ele>
        <time>2020-07-09T07:16:50Z</time>
      </trkpt>
      <trkpt lat="49.615914" lon="6.561493">
        <ele>191.0</ele>
        <time>2020-07-09T07:16:53Z</time>
      </trkpt>
      <trkpt lat="49.615817" lon="6.561493">
        <ele>191.0</ele>
        <time>2020-07-09T07:16:55Z</time>
      </trkpt>
      <trkpt lat="49.615722" lon="6.561489">
        <ele>190.0</ele>
        <time>2020-07-09T07:16:57Z</time>
      </trkpt>
      <trkpt lat="49.615583" lon="6.561515">
        <ele>189.0</ele>
        <time>2020-07-09T07:17:00Z</time>
      </trkpt>
      <trkpt lat="49.615537" lon="6.561519">
        <ele>189.0</ele>
        <time>2020-07-09T07:17:01Z</time>
      </trkpt>
      <trkpt lat="49.61539" lon="6.561511">
        <ele>190.0</ele>
        <time>2020-07-09T07:17:04Z</time>
      </trkpt>
      <trkpt lat="49.615301" lon="6.56152">
        <ele>190.0</ele>
        <time>2020-07-09T07:17:06Z</time>
      </trkpt>
      <trkpt lat="49.615207" lon="6.561533">
        <ele>190.0</ele>
        <time>2020-07-09T07:17:08Z</time>
      </trkpt>
      <trkpt lat="49.615066" lon="6.56154">
        <ele>191.0</ele>
        <time>2020-07-09T07:17:11Z</time>
      </trkpt>
      <trkpt lat="49.614966" lon="6.561525">
        <ele>191.0</ele>
        <time>2020-07-09T07:17:13Z</time>
      </trkpt>
      <trkpt lat="49.614866" lon="6.561515">
        <ele>191.0</ele>
        <time>2020-07-09T07:17:15Z</time>
      </trkpt>
      <trkpt lat="49.614774" lon="6.561507">
        <ele>191.0</ele>
        <time>2020-07-09T07:17:17Z</time>
      </trkpt>
      <trkpt lat="49.61468" lon="6.561491">
        <ele>191.0</ele>
        <time>2020-07-09T07:17:19Z</time>
      </trkpt>
      <trkpt lat="49.614582" lon="6.561478">
        <ele>191.0</ele>
        <time>2020-07-09T07:17:21Z</time>
      </trkpt>
      <trkpt lat="49.614488" lon="6.561473">
        <ele>191.0</ele>
        <time>2020-07-09T07:17:23Z</time>
      </trkpt>
      <trkpt lat="49.614347" lon="6.561448">
        <ele>192.0</ele>
        <time>2020-07-09T07:17:26Z</time>
      </trkpt>
      <trkpt lat="49.614251" lon="6.561433">
        <ele>193.0</ele>
        <time>2020-07-09T07:17:28Z</time>
      </trkpt>
      <trkpt lat="49.614152" lon="6.561414">
        <ele>193.0</ele>
        <time>2020-07-09T07:17:30Z</time>
      </trkpt>
      <trkpt lat="49.614011" lon="6.561374">
        <ele>193.0</ele>
        <time>2020-07-09T07:17:33Z</time>
      </trkpt>
      <trkpt lat="49.613918" lon="6.56136">
        <ele>193.0</ele>
        <time>2020-07-09T07:17:35Z</time>
      </trkpt>
      <trkpt lat="49.613869" lon="6.561347">
        <ele>193.0</ele>
        <time>2020-07-09T07:17:36Z</time>
      </trkpt>
      <trkpt lat="49.613674" lon="6.561289">
        <ele>193.0</ele>
        <time>2020-07-09T07:17:40Z</time>
      </trkpt>
      <trkpt lat="49.613583" lon="6.561258">
        <ele>194.0</ele>
        <time>2020-07-09T07:17:42Z</time>
      </trkpt>
      <trkpt lat="49.613483" lon="6.561208">
        <ele>193.0</ele>
        <time>2020-07-09T07:17:44Z</time>
      </trkpt>
      <trkpt lat="49.613389" lon="6.561169">
        <ele>193.0</ele>
        <time>2020-07-09T07:17:46Z</time>
      </trkpt>
      <trkpt lat="49.6133" lon="6.561141">
        <ele>194.0</ele>
        <time>2020-07-09T07:17:48Z</time>
      </trkpt>
      <trkpt lat="49.613168" lon="6.561073">
        <ele>193.0</ele>
        <time>2020-07-09T07:17:51Z</time>
      </trkpt>
      <trkpt lat="49.613079" lon="6.561037">
        <ele>193.0</ele>
        <time>2020-07-09T07:17:53Z</time>
      </trkpt>
      <trkpt lat="49.612988" lon="6.560994">
        <ele>193.0</ele>
        <time>2020-07-09T07:17:55Z</time>
      </trkpt>
      <trkpt lat="49.612895" lon="6.560949">
        <ele>193.0</ele>
        <time>2020-07-09T07:17:57Z</time>
      </trkpt>
      <trkpt lat="49.6128" lon="6.560899">
        <ele>192.0</ele>
        <time>2020-07-09T07:17:59Z</time>
      </trkpt>
      <trkpt lat="49.612702" lon="6.560854">
        <ele>193.0</ele>
        <time>2020-07-09T07:18:01Z</time>
      </trkpt>
      <trkpt lat="49.612606" lon="6.560798">
        <ele>193.0</ele>
        <time>2020-07-09T07:18:03Z</time>
      </trkpt>
      <trkpt lat="49.612471" lon="6.560704">
        <ele>194.0</ele>
        <time>2020-07-09T07:18:06Z</time>
      </trkpt>
      <trkpt lat="49.612384" lon="6.560649">
        <ele>194.0</ele>
        <time>2020-07-09T07:18:08Z</time>
      </trkpt>
      <trkpt lat="49.612339" lon="6.560622">
        <ele>194.0</ele>
        <time>2020-07-09T07:18:09Z</time>
      </trkpt>
      <trkpt lat="49.612212" lon="6.560527">
        <ele>193.0</ele>
        <time>2020-07-09T07:18:12Z</time>
      </trkpt>
      <trkpt lat="49.612123" lon="6.56046">
        <ele>194.0</ele>
        <time>2020-07-09T07:18:14Z</time>
      </trkpt>
      <trkpt lat="49.612028" lon="6.560396">
        <ele>194.0</ele>
        <time>2020-07-09T07:18:16Z</time>
      </trkpt>
      <trkpt lat="49.611938" lon="6.560329">
        <ele>194.0</ele>
        <time>2020-07-09T07:18:18Z</time>
      </trkpt>
      <trkpt lat="49.611848" lon="6.560259">
        <ele>194.0</ele>
        <time>2020-07-09T07:18:20Z</time>
      </trkpt>
      <trkpt lat="49.61176" lon="6.560191">
        <ele>194.0</ele>
        <time>2020-07-09T07:18:22Z</time>
      </trkpt>
      <trkpt lat="49.611674" lon="6.560133">
        <ele>194.0</ele>
        <time>2020-07-09T07:18:24Z</time>
      </trkpt>
      <trkpt lat="49.611587" lon="6.560068">
        <ele>194.0</ele>
        <time>2020-07-09T07:18:26Z</time>
      </trkpt>
      <trkpt lat="49.611481" lon="6.560005">
        <ele>193.0</ele>
        <time>2020-07-09T07:18:28Z</time>
      </trkpt>
      <trkpt lat="49.611377" lon="6.55992">
        <ele>193.0</ele>
        <time>2020-07-09T07:18:30Z</time>
      </trkpt>
      <trkpt lat="49.61128" lon="6.559824">
        <ele>193.0</ele>
        <time>2020-07-09T07:18:32Z</time>
      </trkpt>
      <trkpt lat="49.611189" lon="6.559722">
        <ele>194.0</ele>
        <time>2020-07-09T07:18:34Z</time>
      </trkpt>
      <trkpt lat="49.611053" lon="6.559573">
        <ele>193.0</ele>
        <time>2020-07-09T07:18:37Z</time>
      </trkpt>
      <trkpt lat="49.610961" lon="6.559469">
        <ele>193.0</ele>
        <time>2020-07-09T07:18:39Z</time>
      </trkpt>
      <trkpt lat="49.610828" lon="6.559313">
        <ele>193.0</ele>
        <time>2020-07-09T07:18:42Z</time>
      </trkpt>
      <trkpt lat="49.61074" lon="6.559207">
        <ele>193.0</ele>
        <time>2020-07-09T07:18:44Z</time>
      </trkpt>
      <trkpt lat="49.610652" lon="6.559108">
        <ele>192.0</ele>
        <time>2020-07-09T07:18:46Z</time>
      </trkpt>
      <trkpt lat="49.610567" lon="6.558999">
        <ele>192.0</ele>
        <time>2020-07-09T07:18:48Z</time>
      </trkpt>
      <trkpt lat="49.610485" lon="6.558887">
        <ele>192.0</ele>
        <time>2020-07-09T07:18:50Z</time>
      </trkpt>
      <trkpt lat="49.610407" lon="6.558775">
        <ele>192.0</ele>
        <time>2020-07-09T07:18:52Z</time>
      </trkpt>
      <trkpt lat="49.61033" lon="6.558666">
        <ele>192.0</ele>
        <time>2020-07-09T07:18:54Z</time>
      </trkpt>
      <trkpt lat="49.610251" lon="6.558557">
        <ele>192.0</ele>
        <time>2020-07-09T07:18:56Z</time>
      </trkpt>
      <trkpt lat="49.61017" lon="6.558448">
        <ele>192.0</ele>
        <time>2020-07-09T07:18:58Z</time>
      </trkpt>
      <trkpt lat="49.610093" lon="6.55833">
        <ele>191.0</ele>
        <time>2020-07-09T07:19:00Z</time>
      </trkpt>
      <trkpt lat="49.610023" lon="6.558216">
        <ele>191.0</ele>
        <time>2020-07-09T07:19:02Z</time>
      </trkpt>
      <trkpt lat="49.609922" lon="6.558039">
        <ele>192.0</ele>
        <time>2020-07-09T07:19:05Z</time>
      </trkpt>
      <trkpt lat="49.609854" lon="6.557931">
        <ele>192.0</ele>
        <time>2020-07-09T07:19:07Z</time>
      </trkpt>
      <trkpt lat="49.609772" lon="6.557851">
        <ele>192.0</ele>
        <time>2020-07-09T07:19:09Z</time>
      </trkpt>
      <trkpt lat="49.609696" lon="6.557767">
        <ele>192.0</ele>
        <time>2020-07-09T07:19:11Z</time>
      </trkpt>
      <trkpt lat="49.609622" lon="6.55768">
        <ele>192.0</ele>
        <time>2020-07-09T07:19:13Z</time>
      </trkpt>
      <trkpt lat="49.609506" lon="6.557546">
        <ele>192.0</ele>
        <time>2020-07-09T07:19:16Z</time>
      </trkpt>
      <trkpt lat="49.609446" lon="6.557434">
        <ele>192.0</ele>
        <time>2020-07-09T07:19:18Z</time>
      </trkpt>
      <trkpt lat="49.609386" lon="6.557316">
        <ele>192.0</ele>
        <time>2020-07-09T07:19:20Z</time>
      </trkpt>
      <trkpt lat="49.609351" lon="6.55723">
        <ele>192.0</ele>
        <time>2020-07-09T07:19:22Z</time>
      </trkpt>
      <trkpt lat="49.609319" lon="6.557194">
        <ele>192.0</ele>
        <time>2020-07-09T07:19:25Z</time>
      </trkpt>
      <trkpt lat="49.609319" lon="6.557199">
        <ele>192.0</ele>
        <time>2020-07-09T07:19:27Z</time>
      </trkpt>
      <trkpt lat="49.609318" lon="6.557198">
        <ele>192.0</ele>
        <time>2020-07-09T07:19:29Z</time>
      </trkpt>
      <trkpt lat="49.609318" lon="6.557198">
        <ele>192.0</ele>
        <time>2020-07-09T07:19:31Z</time>
      </trkpt>
      <trkpt lat="49.609318" lon="6.557198">
        <ele>192.0</ele>
        <time>2020-07-09T07:19:33Z</time>
      </trkpt>
      <trkpt lat="49.609318" lon="6.557198">
        <ele>192.0</ele>
        <time>2020-07-09T07:19:55Z</time>
      </trkpt>
      <trkpt lat="49.609318" lon="6.557198">
        <ele>192.0</ele>
        <time>2020-07-09T07:19:57Z</time>
      </trkpt>
      <trkpt lat="49.609318" lon="6.557198">
        <ele>192.0</ele>
        <time>2020-07-09T07:19:59Z</time>
      </trkpt>
      <trkpt lat="49.609318" lon="6.557198">
        <ele>192.0</ele>
        <time>2020-07-09T07:20:01Z</time>
      </trkpt>
      <trkpt lat="49.609318" lon="6.557198">
        <ele>192.0</ele>
        <time>2020-07-09T07:20:03Z</time>
      </trkpt>
      <trkpt lat="49.609318" lon="6.557198">
        <ele>192.0</ele>
        <time>2020-07-09T07:20:05Z</time>
      </trkpt>
      <trkpt lat="49.609318" lon="6.557198">
        <ele>192.0</ele>
        <time>2020-07-09T07:20:07Z</time>
      </trkpt>
      <trkpt lat="49.609318" lon="6.557198">
        <ele>192.0</ele>
        <time>2020-07-09T07:20:09Z</time>
      </trkpt>
      <trkpt lat="49.609318" lon="6.557198">
        <ele>192.0</ele>
        <time>2020-07-09T07:20:11Z</time>
      </trkpt>
      <trkpt lat="49.609318" lon="6.557198">
        <ele>192.0</ele>
        <time>2020-07-09T07:20:13Z</time>
      </trkpt>
      <trkpt lat="49.609318" lon="6.557198">
        <ele>192.0</ele>
        <time>2020-07-09T07:20:15Z</time>
      </trkpt>
      <trkpt lat="49.609318" lon="6.557198">
        <ele>192.0</ele>
        <time>2020-07-09T07:20:17Z</time>
      </trkpt>
      <trkpt lat="49.609318" lon="6.557198">
        <ele>192.0</ele>
        <time>2020-07-09T07:20:19Z</time>
      </trkpt>
      <trkpt lat="49.609303" lon="6.557165">
        <ele>191.0</ele>
        <time>2020-07-09T07:20:21Z</time>
      </trkpt>
      <trkpt lat="49.609279" lon="6.557109">
        <ele>191.0</ele>
        <time>2020-07-09T07:20:23Z</time>
      </trkpt>
      <trkpt lat="49.609264" lon="6.557073">
        <ele>190.0</ele>
        <time>2020-07-09T07:20:24Z</time>
      </trkpt>
      <trkpt lat="49.609197" lon="6.55692">
        <ele>190.0</ele>
        <time>2020-07-09T07:20:28Z</time>
      </trkpt>
      <trkpt lat="49.609179" lon="6.556879">
        <ele>190.0</ele>
        <time>2020-07-09T07:20:29Z</time>
      </trkpt>
      <trkpt lat="49.609145" lon="6.556789">
        <ele>190.0</ele>
        <time>2020-07-09T07:20:31Z</time>
      </trkpt>
      <trkpt lat="49.609103" lon="6.556695">
        <ele>189.0</ele>
        <time>2020-07-09T07:20:33Z</time>
      </trkpt>
      <trkpt lat="49.609036" lon="6.556533">
        <ele>190.0</ele>
        <time>2020-07-09T07:20:36Z</time>
      </trkpt>
      <trkpt lat="49.608985" lon="6.556416">
        <ele>190.0</ele>
        <time>2020-07-09T07:20:38Z</time>
      </trkpt>
      <trkpt lat="49.608936" lon="6.556293">
        <ele>189.0</ele>
        <time>2020-07-09T07:20:40Z</time>
      </trkpt>
      <trkpt lat="49.608879" lon="6.556178">
        <ele>190.0</ele>
        <time>2020-07-09T07:20:42Z</time>
      </trkpt>
      <trkpt lat="49.608798" lon="6.556008">
        <ele>189.0</ele>
        <time>2020-07-09T07:20:45Z</time>
      </trkpt>
      <trkpt lat="49.608757" lon="6.555881">
        <ele>189.0</ele>
        <time>2020-07-09T07:20:47Z</time>
      </trkpt>
      <trkpt lat="49.608722" lon="6.55576">
        <ele>189.0</ele>
        <time>2020-07-09T07:20:49Z</time>
      </trkpt>
      <trkpt lat="49.608663" lon="6.555564">
        <ele>189.0</ele>
        <time>2020-07-09T07:20:52Z</time>
      </trkpt>
      <trkpt lat="49.608621" lon="6.555422">
        <ele>190.0</ele>
        <time>2020-07-09T07:20:54Z</time>
      </trkpt>
      <trkpt lat="49.608578" lon="6.555293">
        <ele>190.0</ele>
        <time>2020-07-09T07:20:56Z</time>
      </trkpt>
      <trkpt lat="49.608528" lon="6.555165">
        <ele>190.0</ele>
        <time>2020-07-09T07:20:58Z</time>
      </trkpt>
      <trkpt lat="49.608456" lon="6.554982">
        <ele>190.0</ele>
        <time>2020-07-09T07:21:01Z</time>
      </trkpt>
      <trkpt lat="49.608399" lon="6.554848">
        <ele>189.0</ele>
        <time>2020-07-09T07:21:03Z</time>
      </trkpt>
      <trkpt lat="49.608373" lon="6.554789">
        <ele>189.0</ele>
        <time>2020-07-09T07:21:04Z</time>
      </trkpt>
      <trkpt lat="49.608302" lon="6.554592">
        <ele>188.0</ele>
        <time>2020-07-09T07:21:07Z</time>
      </trkpt>
      <trkpt lat="49.608237" lon="6.554457">
        <ele>188.0</ele>
        <time>2020-07-09T07:21:09Z</time>
      </trkpt>
      <trkpt lat="49.608182" lon="6.554328">
        <ele>188.0</ele>
        <time>2020-07-09T07:21:11Z</time>
      </trkpt>
      <trkpt lat="49.60812" lon="6.554202">
        <ele>187.0</ele>
        <time>2020-07-09T07:21:13Z</time>
      </trkpt>
      <trkpt lat="49.608062" lon="6.554069">
        <ele>188.0</ele>
        <time>2020-07-09T07:21:15Z</time>
      </trkpt>
      <trkpt lat="49.608036" lon="6.553952">
        <ele>188.0</ele>
        <time>2020-07-09T07:21:17Z</time>
      </trkpt>
      <trkpt lat="49.608028" lon="6.553883">
        <ele>188.0</ele>
        <time>2020-07-09T07:21:19Z</time>
      </trkpt>
      <trkpt lat="49.608037" lon="6.55387">
        <ele>188.0</ele>
        <time>2020-07-09T07:21:21Z</time>
      </trkpt>
      <trkpt lat="49.608043" lon="6.553881">
        <ele>188.0</ele>
        <time>2020-07-09T07:21:23Z</time>
      </trkpt>
      <trkpt lat="49.608047" lon="6.553887">
        <ele>188.0</ele>
        <time>2020-07-09T07:21:30Z</time>
      </trkpt>
      <trkpt lat="49.608047" lon="6.553887">
        <ele>188.0</ele>
        <time>2020-07-09T07:21:32Z</time>
      </trkpt>
      <trkpt lat="49.608047" lon="6.553887">
        <ele>188.0</ele>
        <time>2020-07-09T07:21:34Z</time>
      </trkpt>
      <trkpt lat="49.608047" lon="6.553887">
        <ele>188.0</ele>
        <time>2020-07-09T07:21:36Z</time>
      </trkpt>
      <trkpt lat="49.608047" lon="6.553887">
        <ele>188.0</ele>
        <time>2020-07-09T07:21:37Z</time>
      </trkpt>
      <trkpt lat="49.608047" lon="6.553887">
        <ele>188.0</ele>
        <time>2020-07-09T07:21:40Z</time>
      </trkpt>
      <trkpt lat="49.608047" lon="6.553887">
        <ele>188.0</ele>
        <time>2020-07-09T07:21:42Z</time>
      </trkpt>
      <trkpt lat="49.608047" lon="6.553887">
        <ele>188.0</ele>
        <time>2020-07-09T07:21:44Z</time>
      </trkpt>
      <trkpt lat="49.608029" lon="6.553848">
        <ele>188.0</ele>
        <time>2020-07-09T07:21:46Z</time>
      </trkpt>
      <trkpt lat="49.608008" lon="6.553794">
        <ele>189.0</ele>
        <time>2020-07-09T07:21:48Z</time>
      </trkpt>
      <trkpt lat="49.607992" lon="6.55365">
        <ele>190.0</ele>
        <time>2020-07-09T07:21:51Z</time>
      </trkpt>
      <trkpt lat="49.607992" lon="6.55359">
        <ele>190.0</ele>
        <time>2020-07-09T07:21:52Z</time>
      </trkpt>
      <trkpt lat="49.60798" lon="6.553417">
        <ele>190.0</ele>
        <time>2020-07-09T07:21:55Z</time>
      </trkpt>
      <trkpt lat="49.60798" lon="6.553286">
        <ele>190.0</ele>
        <time>2020-07-09T07:21:57Z</time>
      </trkpt>
      <trkpt lat="49.607965" lon="6.553163">
        <ele>191.0</ele>
        <time>2020-07-09T07:21:59Z</time>
      </trkpt>
      <trkpt lat="49.607911" lon="6.553079">
        <ele>191.0</ele>
        <time>2020-07-09T07:22:01Z</time>
      </trkpt>
      <trkpt lat="49.607835" lon="6.553063">
        <ele>191.0</ele>
        <time>2020-07-09T07:22:03Z</time>
      </trkpt>
      <trkpt lat="49.607758" lon="6.553056">
        <ele>191.0</ele>
        <time>2020-07-09T07:22:05Z</time>
      </trkpt>
      <trkpt lat="49.607692" lon="6.552967">
        <ele>191.0</ele>
        <time>2020-07-09T07:22:07Z</time>
      </trkpt>
      <trkpt lat="49.607656" lon="6.552833">
        <ele>191.0</ele>
        <time>2020-07-09T07:22:09Z</time>
      </trkpt>
      <trkpt lat="49.60763" lon="6.5527">
        <ele>190.0</ele>
        <time>2020-07-09T07:22:11Z</time>
      </trkpt>
      <trkpt lat="49.607572" lon="6.552514">
        <ele>191.0</ele>
        <time>2020-07-09T07:22:14Z</time>
      </trkpt>
      <trkpt lat="49.607544" lon="6.55246">
        <ele>191.0</ele>
        <time>2020-07-09T07:22:15Z</time>
      </trkpt>
      <trkpt lat="49.607455" lon="6.552309">
        <ele>191.0</ele>
        <time>2020-07-09T07:22:18Z</time>
      </trkpt>
      <trkpt lat="49.607385" lon="6.552215">
        <ele>191.0</ele>
        <time>2020-07-09T07:22:20Z</time>
      </trkpt>
      <trkpt lat="49.607321" lon="6.552116">
        <ele>190.0</ele>
        <time>2020-07-09T07:22:22Z</time>
      </trkpt>
      <trkpt lat="49.607253" lon="6.552017">
        <ele>190.0</ele>
        <time>2020-07-09T07:22:24Z</time>
      </trkpt>
      <trkpt lat="49.60715" lon="6.551869">
        <ele>190.0</ele>
        <time>2020-07-09T07:22:27Z</time>
      </trkpt>
      <trkpt lat="49.607109" lon="6.551821">
        <ele>190.0</ele>
        <time>2020-07-09T07:22:28Z</time>
      </trkpt>
      <trkpt lat="49.606958" lon="6.551665">
        <ele>190.0</ele>
        <time>2020-07-09T07:22:32Z</time>
      </trkpt>
      <trkpt lat="49.606922" lon="6.551626">
        <ele>189.0</ele>
        <time>2020-07-09T07:22:33Z</time>
      </trkpt>
      <trkpt lat="49.606794" lon="6.551451">
        <ele>189.0</ele>
        <time>2020-07-09T07:22:37Z</time>
      </trkpt>
      <trkpt lat="49.606725" lon="6.551364">
        <ele>189.0</ele>
        <time>2020-07-09T07:22:39Z</time>
      </trkpt>
      <trkpt lat="49.606656" lon="6.551274">
        <ele>189.0</ele>
        <time>2020-07-09T07:22:41Z</time>
      </trkpt>
      <trkpt lat="49.606583" lon="6.551185">
        <ele>189.0</ele>
        <time>2020-07-09T07:22:43Z</time>
      </trkpt>
      <trkpt lat="49.606478" lon="6.551039">
        <ele>189.0</ele>
        <time>2020-07-09T07:22:46Z</time>
      </trkpt>
      <trkpt lat="49.606403" lon="6.550958">
        <ele>189.0</ele>
        <time>2020-07-09T07:22:48Z</time>
      </trkpt>
      <trkpt lat="49.606321" lon="6.550886">
        <ele>189.0</ele>
        <time>2020-07-09T07:22:50Z</time>
      </trkpt>
      <trkpt lat="49.606238" lon="6.550824">
        <ele>190.0</ele>
        <time>2020-07-09T07:22:52Z</time>
      </trkpt>
      <trkpt lat="49.606152" lon="6.550756">
        <ele>190.0</ele>
        <time>2020-07-09T07:22:54Z</time>
      </trkpt>
      <trkpt lat="49.606071" lon="6.55069">
        <ele>190.0</ele>
        <time>2020-07-09T07:22:56Z</time>
      </trkpt>
      <trkpt lat="49.605987" lon="6.550626">
        <ele>190.0</ele>
        <time>2020-07-09T07:22:58Z</time>
      </trkpt>
      <trkpt lat="49.605902" lon="6.550568">
        <ele>190.0</ele>
        <time>2020-07-09T07:23:00Z</time>
      </trkpt>
      <trkpt lat="49.605817" lon="6.550497">
        <ele>189.0</ele>
        <time>2020-07-09T07:23:02Z</time>
      </trkpt>
      <trkpt lat="49.605736" lon="6.550421">
        <ele>189.0</ele>
        <time>2020-07-09T07:23:04Z</time>
      </trkpt>
      <trkpt lat="49.605654" lon="6.550353">
        <ele>188.0</ele>
        <time>2020-07-09T07:23:06Z</time>
      </trkpt>
      <trkpt lat="49.605565" lon="6.550296">
        <ele>188.0</ele>
        <time>2020-07-09T07:23:08Z</time>
      </trkpt>
      <trkpt lat="49.605474" lon="6.550239">
        <ele>188.0</ele>
        <time>2020-07-09T07:23:10Z</time>
      </trkpt>
      <trkpt lat="49.605337" lon="6.550154">
        <ele>189.0</ele>
        <time>2020-07-09T07:23:13Z</time>
      </trkpt>
      <trkpt lat="49.605241" lon="6.550102">
        <ele>189.0</ele>
        <time>2020-07-09T07:23:15Z</time>
      </trkpt>
      <trkpt lat="49.605101" lon="6.550039">
        <ele>189.0</ele>
        <time>2020-07-09T07:23:18Z</time>
      </trkpt>
      <trkpt lat="49.605007" lon="6.550012">
        <ele>189.0</ele>
        <time>2020-07-09T07:23:20Z</time>
      </trkpt>
      <trkpt lat="49.604912" lon="6.549975">
        <ele>190.0</ele>
        <time>2020-07-09T07:23:22Z</time>
      </trkpt>
      <trkpt lat="49.604817" lon="6.549947">
        <ele>190.0</ele>
        <time>2020-07-09T07:23:24Z</time>
      </trkpt>
      <trkpt lat="49.604687" lon="6.549905">
        <ele>190.0</ele>
        <time>2020-07-09T07:23:27Z</time>
      </trkpt>
      <trkpt lat="49.604642" lon="6.549897">
        <ele>190.0</ele>
        <time>2020-07-09T07:23:28Z</time>
      </trkpt>
      <trkpt lat="49.604505" lon="6.549885">
        <ele>189.0</ele>
        <time>2020-07-09T07:23:31Z</time>
      </trkpt>
      <trkpt lat="49.604402" lon="6.549875">
        <ele>190.0</ele>
        <time>2020-07-09T07:23:33Z</time>
      </trkpt>
      <trkpt lat="49.60425" lon="6.549859">
        <ele>190.0</ele>
        <time>2020-07-09T07:23:36Z</time>
      </trkpt>
      <trkpt lat="49.604143" lon="6.549854">
        <ele>191.0</ele>
        <time>2020-07-09T07:23:38Z</time>
      </trkpt>
      <trkpt lat="49.604037" lon="6.549858">
        <ele>191.0</ele>
        <time>2020-07-09T07:23:40Z</time>
      </trkpt>
      <trkpt lat="49.603934" lon="6.549864">
        <ele>190.0</ele>
        <time>2020-07-09T07:23:42Z</time>
      </trkpt>
      <trkpt lat="49.60383" lon="6.549886">
        <ele>190.0</ele>
        <time>2020-07-09T07:23:44Z</time>
      </trkpt>
      <trkpt lat="49.60373" lon="6.549908">
        <ele>189.0</ele>
        <time>2020-07-09T07:23:46Z</time>
      </trkpt>
      <trkpt lat="49.603629" lon="6.549933">
        <ele>189.0</ele>
        <time>2020-07-09T07:23:48Z</time>
      </trkpt>
      <trkpt lat="49.603534" lon="6.549961">
        <ele>189.0</ele>
        <time>2020-07-09T07:23:50Z</time>
      </trkpt>
      <trkpt lat="49.603432" lon="6.549999">
        <ele>189.0</ele>
        <time>2020-07-09T07:23:52Z</time>
      </trkpt>
      <trkpt lat="49.60333" lon="6.550033">
        <ele>189.0</ele>
        <time>2020-07-09T07:23:54Z</time>
      </trkpt>
      <trkpt lat="49.603234" lon="6.550056">
        <ele>190.0</ele>
        <time>2020-07-09T07:23:56Z</time>
      </trkpt>
      <trkpt lat="49.603151" lon="6.550079">
        <ele>190.0</ele>
        <time>2020-07-09T07:23:58Z</time>
      </trkpt>
      <trkpt lat="49.603073" lon="6.550107">
        <ele>190.0</ele>
        <time>2020-07-09T07:24:00Z</time>
      </trkpt>
      <trkpt lat="49.602995" lon="6.550134">
        <ele>190.0</ele>
        <time>2020-07-09T07:24:02Z</time>
      </trkpt>
      <trkpt lat="49.602925" lon="6.550151">
        <ele>191.0</ele>
        <time>2020-07-09T07:24:04Z</time>
      </trkpt>
      <trkpt lat="49.602861" lon="6.550163">
        <ele>191.0</ele>
        <time>2020-07-09T07:24:06Z</time>
      </trkpt>
      <trkpt lat="49.602812" lon="6.550137">
        <ele>191.0</ele>
        <time>2020-07-09T07:24:08Z</time>
      </trkpt>
      <trkpt lat="49.602788" lon="6.550138">
        <ele>191.0</ele>
        <time>2020-07-09T07:24:10Z</time>
      </trkpt>
      <trkpt lat="49.602762" lon="6.550136">
        <ele>191.0</ele>
        <time>2020-07-09T07:24:12Z</time>
      </trkpt>
      <trkpt lat="49.602718" lon="6.550125">
        <ele>191.0</ele>
        <time>2020-07-09T07:24:14Z</time>
      </trkpt>
      <trkpt lat="49.602637" lon="6.550184">
        <ele>191.0</ele>
        <time>2020-07-09T07:24:17Z</time>
      </trkpt>
      <trkpt lat="49.602565" lon="6.550244">
        <ele>192.0</ele>
        <time>2020-07-09T07:24:19Z</time>
      </trkpt>
      <trkpt lat="49.602482" lon="6.550289">
        <ele>193.0</ele>
        <time>2020-07-09T07:24:21Z</time>
      </trkpt>
      <trkpt lat="49.602398" lon="6.550355">
        <ele>193.0</ele>
        <time>2020-07-09T07:24:23Z</time>
      </trkpt>
      <trkpt lat="49.602311" lon="6.550435">
        <ele>194.0</ele>
        <time>2020-07-09T07:24:25Z</time>
      </trkpt>
      <trkpt lat="49.602174" lon="6.550568">
        <ele>195.0</ele>
        <time>2020-07-09T07:24:28Z</time>
      </trkpt>
      <trkpt lat="49.602089" lon="6.550654">
        <ele>195.0</ele>
        <time>2020-07-09T07:24:30Z</time>
      </trkpt>
      <trkpt lat="49.602002" lon="6.550747">
        <ele>195.0</ele>
        <time>2020-07-09T07:24:32Z</time>
      </trkpt>
      <trkpt lat="49.601911" lon="6.55084">
        <ele>196.0</ele>
        <time>2020-07-09T07:24:34Z</time>
      </trkpt>
      <trkpt lat="49.601814" lon="6.550922">
        <ele>196.0</ele>
        <time>2020-07-09T07:24:36Z</time>
      </trkpt>
      <trkpt lat="49.601712" lon="6.550995">
        <ele>195.0</ele>
        <time>2020-07-09T07:24:38Z</time>
      </trkpt>
      <trkpt lat="49.601606" lon="6.551061">
        <ele>195.0</ele>
        <time>2020-07-09T07:24:40Z</time>
      </trkpt>
      <trkpt lat="49.601504" lon="6.551121">
        <ele>194.0</ele>
        <time>2020-07-09T07:24:42Z</time>
      </trkpt>
      <trkpt lat="49.601348" lon="6.551214">
        <ele>193.0</ele>
        <time>2020-07-09T07:24:45Z</time>
      </trkpt>
      <trkpt lat="49.601251" lon="6.551281">
        <ele>193.0</ele>
        <time>2020-07-09T07:24:47Z</time>
      </trkpt>
      <trkpt lat="49.601152" lon="6.551343">
        <ele>193.0</ele>
        <time>2020-07-09T07:24:49Z</time>
      </trkpt>
      <trkpt lat="49.601046" lon="6.551402">
        <ele>193.0</ele>
        <time>2020-07-09T07:24:51Z</time>
      </trkpt>
      <trkpt lat="49.600938" lon="6.551475">
        <ele>192.0</ele>
        <time>2020-07-09T07:24:53Z</time>
      </trkpt>
      <trkpt lat="49.600843" lon="6.551536">
        <ele>192.0</ele>
        <time>2020-07-09T07:24:55Z</time>
      </trkpt>
      <trkpt lat="49.600701" lon="6.551638">
        <ele>192.0</ele>
        <time>2020-07-09T07:24:58Z</time>
      </trkpt>
      <trkpt lat="49.600602" lon="6.551709">
        <ele>192.0</ele>
        <time>2020-07-09T07:25:00Z</time>
      </trkpt>
      <trkpt lat="49.60051" lon="6.551782">
        <ele>192.0</ele>
        <time>2020-07-09T07:25:02Z</time>
      </trkpt>
      <trkpt lat="49.600422" lon="6.551851">
        <ele>192.0</ele>
        <time>2020-07-09T07:25:04Z</time>
      </trkpt>
      <trkpt lat="49.600323" lon="6.551922">
        <ele>192.0</ele>
        <time>2020-07-09T07:25:06Z</time>
      </trkpt>
      <trkpt lat="49.600231" lon="6.551997">
        <ele>192.0</ele>
        <time>2020-07-09T07:25:08Z</time>
      </trkpt>
      <trkpt lat="49.600099" lon="6.552109">
        <ele>192.0</ele>
        <time>2020-07-09T07:25:11Z</time>
      </trkpt>
      <trkpt lat="49.600004" lon="6.552179">
        <ele>192.0</ele>
        <time>2020-07-09T07:25:13Z</time>
      </trkpt>
      <trkpt lat="49.599913" lon="6.552264">
        <ele>192.0</ele>
        <time>2020-07-09T07:25:15Z</time>
      </trkpt>
      <trkpt lat="49.59982" lon="6.552339">
        <ele>193.0</ele>
        <time>2020-07-09T07:25:17Z</time>
      </trkpt>
      <trkpt lat="49.599725" lon="6.552402">
        <ele>193.0</ele>
        <time>2020-07-09T07:25:19Z</time>
      </trkpt>
      <trkpt lat="49.599636" lon="6.552473">
        <ele>193.0</ele>
        <time>2020-07-09T07:25:21Z</time>
      </trkpt>
      <trkpt lat="49.599502" lon="6.552587">
        <ele>192.0</ele>
        <time>2020-07-09T07:25:24Z</time>
      </trkpt>
      <trkpt lat="49.59941" lon="6.552661">
        <ele>192.0</ele>
        <time>2020-07-09T07:25:26Z</time>
      </trkpt>
      <trkpt lat="49.599317" lon="6.552745">
        <ele>192.0</ele>
        <time>2020-07-09T07:25:28Z</time>
      </trkpt>
      <trkpt lat="49.599229" lon="6.552829">
        <ele>192.0</ele>
        <time>2020-07-09T07:25:30Z</time>
      </trkpt>
      <trkpt lat="49.599141" lon="6.552916">
        <ele>192.0</ele>
        <time>2020-07-09T07:25:32Z</time>
      </trkpt>
      <trkpt lat="49.599056" lon="6.552999">
        <ele>193.0</ele>
        <time>2020-07-09T07:25:34Z</time>
      </trkpt>
      <trkpt lat="49.598968" lon="6.553084">
        <ele>193.0</ele>
        <time>2020-07-09T07:25:36Z</time>
      </trkpt>
      <trkpt lat="49.598878" lon="6.553176">
        <ele>193.0</ele>
        <time>2020-07-09T07:25:38Z</time>
      </trkpt>
      <trkpt lat="49.598742" lon="6.553315">
        <ele>193.0</ele>
        <time>2020-07-09T07:25:41Z</time>
      </trkpt>
      <trkpt lat="49.598654" lon="6.553407">
        <ele>193.0</ele>
        <time>2020-07-09T07:25:43Z</time>
      </trkpt>
      <trkpt lat="49.59861" lon="6.553456">
        <ele>193.0</ele>
        <time>2020-07-09T07:25:44Z</time>
      </trkpt>
      <trkpt lat="49.598484" lon="6.5536">
        <ele>193.0</ele>
        <time>2020-07-09T07:25:47Z</time>
      </trkpt>
      <trkpt lat="49.598353" lon="6.553752">
        <ele>193.0</ele>
        <time>2020-07-09T07:25:50Z</time>
      </trkpt>
      <trkpt lat="49.59831" lon="6.553803">
        <ele>193.0</ele>
        <time>2020-07-09T07:25:51Z</time>
      </trkpt>
      <trkpt lat="49.598185" lon="6.553956">
        <ele>194.0</ele>
        <time>2020-07-09T07:25:54Z</time>
      </trkpt>
      <trkpt lat="49.598099" lon="6.554063">
        <ele>193.0</ele>
        <time>2020-07-09T07:25:56Z</time>
      </trkpt>
      <trkpt lat="49.598017" lon="6.554173">
        <ele>193.0</ele>
        <time>2020-07-09T07:25:58Z</time>
      </trkpt>
      <trkpt lat="49.597886" lon="6.554343">
        <ele>193.0</ele>
        <time>2020-07-09T07:26:01Z</time>
      </trkpt>
      <trkpt lat="49.597809" lon="6.554454">
        <ele>193.0</ele>
        <time>2020-07-09T07:26:03Z</time>
      </trkpt>
      <trkpt lat="49.597732" lon="6.554567">
        <ele>193.0</ele>
        <time>2020-07-09T07:26:05Z</time>
      </trkpt>
      <trkpt lat="49.597657" lon="6.554673">
        <ele>193.0</ele>
        <time>2020-07-09T07:26:07Z</time>
      </trkpt>
      <trkpt lat="49.597619" lon="6.554721">
        <ele>193.0</ele>
        <time>2020-07-09T07:26:08Z</time>
      </trkpt>
      <trkpt lat="49.597509" lon="6.554875">
        <ele>193.0</ele>
        <time>2020-07-09T07:26:11Z</time>
      </trkpt>
      <trkpt lat="49.597433" lon="6.554974">
        <ele>192.0</ele>
        <time>2020-07-09T07:26:13Z</time>
      </trkpt>
      <trkpt lat="49.597335" lon="6.555123">
        <ele>192.0</ele>
        <time>2020-07-09T07:26:16Z</time>
      </trkpt>
      <trkpt lat="49.597266" lon="6.55522">
        <ele>192.0</ele>
        <time>2020-07-09T07:26:18Z</time>
      </trkpt>
      <trkpt lat="49.597163" lon="6.555366">
        <ele>193.0</ele>
        <time>2020-07-09T07:26:21Z</time>
      </trkpt>
      <trkpt lat="49.597094" lon="6.55547">
        <ele>193.0</ele>
        <time>2020-07-09T07:26:23Z</time>
      </trkpt>
      <trkpt lat="49.597018" lon="6.555572">
        <ele>193.0</ele>
        <time>2020-07-09T07:26:25Z</time>
      </trkpt>
      <trkpt lat="49.596978" lon="6.555626">
        <ele>193.0</ele>
        <time>2020-07-09T07:26:26Z</time>
      </trkpt>
      <trkpt lat="49.596868" lon="6.555785">
        <ele>193.0</ele>
        <time>2020-07-09T07:26:29Z</time>
      </trkpt>
      <trkpt lat="49.596764" lon="6.555939">
        <ele>193.0</ele>
        <time>2020-07-09T07:26:32Z</time>
      </trkpt>
      <trkpt lat="49.59669" lon="6.556038">
        <ele>193.0</ele>
        <time>2020-07-09T07:26:34Z</time>
      </trkpt>
      <trkpt lat="49.596652" lon="6.556092">
        <ele>193.0</ele>
        <time>2020-07-09T07:26:35Z</time>
      </trkpt>
      <trkpt lat="49.596508" lon="6.556303">
        <ele>193.0</ele>
        <time>2020-07-09T07:26:39Z</time>
      </trkpt>
      <trkpt lat="49.596437" lon="6.556407">
        <ele>193.0</ele>
        <time>2020-07-09T07:26:41Z</time>
      </trkpt>
      <trkpt lat="49.596361" lon="6.556514">
        <ele>193.0</ele>
        <time>2020-07-09T07:26:43Z</time>
      </trkpt>
      <trkpt lat="49.596292" lon="6.556612">
        <ele>193.0</ele>
        <time>2020-07-09T07:26:45Z</time>
      </trkpt>
      <trkpt lat="49.596221" lon="6.556713">
        <ele>192.0</ele>
        <time>2020-07-09T07:26:47Z</time>
      </trkpt>
      <trkpt lat="49.596153" lon="6.556814">
        <ele>193.0</ele>
        <time>2020-07-09T07:26:49Z</time>
      </trkpt>
      <trkpt lat="49.596091" lon="6.556918">
        <ele>193.0</ele>
        <time>2020-07-09T07:26:51Z</time>
      </trkpt>
      <trkpt lat="49.596055" lon="6.556975">
        <ele>193.0</ele>
        <time>2020-07-09T07:26:52Z</time>
      </trkpt>
      <trkpt lat="49.595919" lon="6.557182">
        <ele>193.0</ele>
        <time>2020-07-09T07:26:56Z</time>
      </trkpt>
      <trkpt lat="49.595871" lon="6.557282">
        <ele>193.0</ele>
        <time>2020-07-09T07:26:58Z</time>
      </trkpt>
      <trkpt lat="49.595874" lon="6.557341">
        <ele>193.0</ele>
        <time>2020-07-09T07:26:59Z</time>
      </trkpt>
      <trkpt lat="49.59588" lon="6.557469">
        <ele>192.0</ele>
        <time>2020-07-09T07:27:01Z</time>
      </trkpt>
      <trkpt lat="49.595814" lon="6.557669">
        <ele>192.0</ele>
        <time>2020-07-09T07:27:04Z</time>
      </trkpt>
      <trkpt lat="49.595747" lon="6.557807">
        <ele>192.0</ele>
        <time>2020-07-09T07:27:06Z</time>
      </trkpt>
      <trkpt lat="49.595662" lon="6.557945">
        <ele>191.0</ele>
        <time>2020-07-09T07:27:08Z</time>
      </trkpt>
      <trkpt lat="49.59557" lon="6.558073">
        <ele>192.0</ele>
        <time>2020-07-09T07:27:10Z</time>
      </trkpt>
      <trkpt lat="49.595486" lon="6.558202">
        <ele>191.0</ele>
        <time>2020-07-09T07:27:12Z</time>
      </trkpt>
      <trkpt lat="49.595406" lon="6.558323">
        <ele>191.0</ele>
        <time>2020-07-09T07:27:14Z</time>
      </trkpt>
      <trkpt lat="49.595367" lon="6.558387">
        <ele>192.0</ele>
        <time>2020-07-09T07:27:15Z</time>
      </trkpt>
      <trkpt lat="49.59521" lon="6.558639">
        <ele>192.0</ele>
        <time>2020-07-09T07:27:19Z</time>
      </trkpt>
      <trkpt lat="49.59513" lon="6.558752">
        <ele>192.0</ele>
        <time>2020-07-09T07:27:21Z</time>
      </trkpt>
      <trkpt lat="49.595089" lon="6.558813">
        <ele>192.0</ele>
        <time>2020-07-09T07:27:22Z</time>
      </trkpt>
      <trkpt lat="49.594981" lon="6.559009">
        <ele>192.0</ele>
        <time>2020-07-09T07:27:25Z</time>
      </trkpt>
      <trkpt lat="49.594828" lon="6.559247">
        <ele>191.0</ele>
        <time>2020-07-09T07:27:29Z</time>
      </trkpt>
      <trkpt lat="49.594752" lon="6.559363">
        <ele>192.0</ele>
        <time>2020-07-09T07:27:31Z</time>
      </trkpt>
      <trkpt lat="49.594712" lon="6.559423">
        <ele>192.0</ele>
        <time>2020-07-09T07:27:32Z</time>
      </trkpt>
      <trkpt lat="49.594601" lon="6.559597">
        <ele>192.0</ele>
        <time>2020-07-09T07:27:35Z</time>
      </trkpt>
      <trkpt lat="49.594521" lon="6.559715">
        <ele>192.0</ele>
        <time>2020-07-09T07:27:37Z</time>
      </trkpt>
      <trkpt lat="49.594442" lon="6.559833">
        <ele>192.0</ele>
        <time>2020-07-09T07:27:39Z</time>
      </trkpt>
      <trkpt lat="49.594326" lon="6.559987">
        <ele>192.0</ele>
        <time>2020-07-09T07:27:42Z</time>
      </trkpt>
      <trkpt lat="49.594247" lon="6.560084">
        <ele>193.0</ele>
        <time>2020-07-09T07:27:44Z</time>
      </trkpt>
      <trkpt lat="49.59417" lon="6.560173">
        <ele>193.0</ele>
        <time>2020-07-09T07:27:46Z</time>
      </trkpt>
      <trkpt lat="49.594088" lon="6.560267">
        <ele>193.0</ele>
        <time>2020-07-09T07:27:48Z</time>
      </trkpt>
      <trkpt lat="49.594008" lon="6.560364">
        <ele>193.0</ele>
        <time>2020-07-09T07:27:50Z</time>
      </trkpt>
      <trkpt lat="49.593929" lon="6.560464">
        <ele>193.0</ele>
        <time>2020-07-09T07:27:52Z</time>
      </trkpt>
      <trkpt lat="49.593849" lon="6.56056">
        <ele>193.0</ele>
        <time>2020-07-09T07:27:54Z</time>
      </trkpt>
      <trkpt lat="49.59377" lon="6.560666">
        <ele>193.0</ele>
        <time>2020-07-09T07:27:56Z</time>
      </trkpt>
      <trkpt lat="49.593702" lon="6.560779">
        <ele>193.0</ele>
        <time>2020-07-09T07:27:58Z</time>
      </trkpt>
      <trkpt lat="49.593592" lon="6.560948">
        <ele>193.0</ele>
        <time>2020-07-09T07:28:01Z</time>
      </trkpt>
      <trkpt lat="49.593514" lon="6.561055">
        <ele>193.0</ele>
        <time>2020-07-09T07:28:03Z</time>
      </trkpt>
      <trkpt lat="49.593444" lon="6.561161">
        <ele>193.0</ele>
        <time>2020-07-09T07:28:05Z</time>
      </trkpt>
      <trkpt lat="49.593367" lon="6.561268">
        <ele>193.0</ele>
        <time>2020-07-09T07:28:07Z</time>
      </trkpt>
      <trkpt lat="49.593291" lon="6.561376">
        <ele>193.0</ele>
        <time>2020-07-09T07:28:09Z</time>
      </trkpt>
      <trkpt lat="49.59322" lon="6.561488">
        <ele>193.0</ele>
        <time>2020-07-09T07:28:11Z</time>
      </trkpt>
      <trkpt lat="49.593154" lon="6.561591">
        <ele>193.0</ele>
        <time>2020-07-09T07:28:13Z</time>
      </trkpt>
      <trkpt lat="49.593087" lon="6.561692">
        <ele>194.0</ele>
        <time>2020-07-09T07:28:15Z</time>
      </trkpt>
      <trkpt lat="49.593018" lon="6.5618">
        <ele>193.0</ele>
        <time>2020-07-09T07:28:17Z</time>
      </trkpt>
      <trkpt lat="49.592948" lon="6.561901">
        <ele>193.0</ele>
        <time>2020-07-09T07:28:19Z</time>
      </trkpt>
      <trkpt lat="49.592875" lon="6.561999">
        <ele>193.0</ele>
        <time>2020-07-09T07:28:21Z</time>
      </trkpt>
      <trkpt lat="49.59281" lon="6.562103">
        <ele>193.0</ele>
        <time>2020-07-09T07:28:23Z</time>
      </trkpt>
      <trkpt lat="49.59275" lon="6.562211">
        <ele>193.0</ele>
        <time>2020-07-09T07:28:25Z</time>
      </trkpt>
      <trkpt lat="49.592682" lon="6.562325">
        <ele>192.0</ele>
        <time>2020-07-09T07:28:27Z</time>
      </trkpt>
      <trkpt lat="49.592622" lon="6.562426">
        <ele>192.0</ele>
        <time>2020-07-09T07:28:29Z</time>
      </trkpt>
      <trkpt lat="49.59256" lon="6.562525">
        <ele>192.0</ele>
        <time>2020-07-09T07:28:31Z</time>
      </trkpt>
      <trkpt lat="49.592506" lon="6.56262">
        <ele>191.0</ele>
        <time>2020-07-09T07:28:33Z</time>
      </trkpt>
      <trkpt lat="49.592452" lon="6.562718">
        <ele>191.0</ele>
        <time>2020-07-09T07:28:35Z</time>
      </trkpt>
      <trkpt lat="49.592394" lon="6.562823">
        <ele>191.0</ele>
        <time>2020-07-09T07:28:37Z</time>
      </trkpt>
      <trkpt lat="49.592335" lon="6.562929">
        <ele>192.0</ele>
        <time>2020-07-09T07:28:39Z</time>
      </trkpt>
      <trkpt lat="49.592305" lon="6.56298">
        <ele>191.0</ele>
        <time>2020-07-09T07:28:40Z</time>
      </trkpt>
      <trkpt lat="49.592215" lon="6.563127">
        <ele>191.0</ele>
        <time>2020-07-09T07:28:43Z</time>
      </trkpt>
      <trkpt lat="49.592118" lon="6.563261">
        <ele>191.0</ele>
        <time>2020-07-09T07:28:46Z</time>
      </trkpt>
      <trkpt lat="49.592063" lon="6.563352">
        <ele>191.0</ele>
        <time>2020-07-09T07:28:48Z</time>
      </trkpt>
      <trkpt lat="49.591979" lon="6.563498">
        <ele>191.0</ele>
        <time>2020-07-09T07:28:51Z</time>
      </trkpt>
      <trkpt lat="49.59192" lon="6.563593">
        <ele>191.0</ele>
        <time>2020-07-09T07:28:53Z</time>
      </trkpt>
      <trkpt lat="49.591892" lon="6.563642">
        <ele>192.0</ele>
        <time>2020-07-09T07:28:54Z</time>
      </trkpt>
      <trkpt lat="49.59178" lon="6.56382">
        <ele>192.0</ele>
        <time>2020-07-09T07:28:58Z</time>
      </trkpt>
      <trkpt lat="49.591726" lon="6.563912">
        <ele>192.0</ele>
        <time>2020-07-09T07:29:00Z</time>
      </trkpt>
      <trkpt lat="49.591632" lon="6.564055">
        <ele>192.0</ele>
        <time>2020-07-09T07:29:03Z</time>
      </trkpt>
      <trkpt lat="49.591571" lon="6.564137">
        <ele>192.0</ele>
        <time>2020-07-09T07:29:05Z</time>
      </trkpt>
      <trkpt lat="49.591512" lon="6.564229">
        <ele>192.0</ele>
        <time>2020-07-09T07:29:07Z</time>
      </trkpt>
      <trkpt lat="49.591484" lon="6.564268">
        <ele>193.0</ele>
        <time>2020-07-09T07:29:08Z</time>
      </trkpt>
      <trkpt lat="49.591401" lon="6.564405">
        <ele>193.0</ele>
        <time>2020-07-09T07:29:11Z</time>
      </trkpt>
      <trkpt lat="49.59134" lon="6.564499">
        <ele>194.0</ele>
        <time>2020-07-09T07:29:13Z</time>
      </trkpt>
      <trkpt lat="49.591281" lon="6.564601">
        <ele>194.0</ele>
        <time>2020-07-09T07:29:15Z</time>
      </trkpt>
      <trkpt lat="49.59122" lon="6.564699">
        <ele>194.0</ele>
        <time>2020-07-09T07:29:17Z</time>
      </trkpt>
      <trkpt lat="49.591163" lon="6.56479">
        <ele>194.0</ele>
        <time>2020-07-09T07:29:19Z</time>
      </trkpt>
      <trkpt lat="49.591103" lon="6.564874">
        <ele>194.0</ele>
        <time>2020-07-09T07:29:21Z</time>
      </trkpt>
      <trkpt lat="49.591041" lon="6.564958">
        <ele>194.0</ele>
        <time>2020-07-09T07:29:23Z</time>
      </trkpt>
      <trkpt lat="49.590978" lon="6.565051">
        <ele>195.0</ele>
        <time>2020-07-09T07:29:25Z</time>
      </trkpt>
      <trkpt lat="49.59089" lon="6.565187">
        <ele>195.0</ele>
        <time>2020-07-09T07:29:28Z</time>
      </trkpt>
      <trkpt lat="49.590827" lon="6.565276">
        <ele>194.0</ele>
        <time>2020-07-09T07:29:30Z</time>
      </trkpt>
      <trkpt lat="49.590741" lon="6.5654">
        <ele>194.0</ele>
        <time>2020-07-09T07:29:33Z</time>
      </trkpt>
      <trkpt lat="49.590683" lon="6.565478">
        <ele>194.0</ele>
        <time>2020-07-09T07:29:35Z</time>
      </trkpt>
      <trkpt lat="49.590592" lon="6.565601">
        <ele>194.0</ele>
        <time>2020-07-09T07:29:38Z</time>
      </trkpt>
      <trkpt lat="49.590533" lon="6.565677">
        <ele>194.0</ele>
        <time>2020-07-09T07:29:40Z</time>
      </trkpt>
      <trkpt lat="49.590469" lon="6.565769">
        <ele>194.0</ele>
        <time>2020-07-09T07:29:42Z</time>
      </trkpt>
      <trkpt lat="49.590407" lon="6.565851">
        <ele>194.0</ele>
        <time>2020-07-09T07:29:44Z</time>
      </trkpt>
      <trkpt lat="49.590313" lon="6.565964">
        <ele>194.0</ele>
        <time>2020-07-09T07:29:47Z</time>
      </trkpt>
      <trkpt lat="49.590279" lon="6.566006">
        <ele>194.0</ele>
        <time>2020-07-09T07:29:48Z</time>
      </trkpt>
      <trkpt lat="49.590171" lon="6.566133">
        <ele>193.0</ele>
        <time>2020-07-09T07:29:51Z</time>
      </trkpt>
      <trkpt lat="49.590095" lon="6.566203">
        <ele>193.0</ele>
        <time>2020-07-09T07:29:53Z</time>
      </trkpt>
      <trkpt lat="49.590027" lon="6.566278">
        <ele>192.0</ele>
        <time>2020-07-09T07:29:55Z</time>
      </trkpt>
      <trkpt lat="49.58999" lon="6.566317">
        <ele>192.0</ele>
        <time>2020-07-09T07:29:56Z</time>
      </trkpt>
      <trkpt lat="49.589875" lon="6.566441">
        <ele>192.0</ele>
        <time>2020-07-09T07:29:59Z</time>
      </trkpt>
      <trkpt lat="49.589797" lon="6.566512">
        <ele>192.0</ele>
        <time>2020-07-09T07:30:01Z</time>
      </trkpt>
      <trkpt lat="49.589682" lon="6.566626">
        <ele>192.0</ele>
        <time>2020-07-09T07:30:04Z</time>
      </trkpt>
      <trkpt lat="49.589641" lon="6.566662">
        <ele>192.0</ele>
        <time>2020-07-09T07:30:05Z</time>
      </trkpt>
      <trkpt lat="49.589526" lon="6.566768">
        <ele>192.0</ele>
        <time>2020-07-09T07:30:08Z</time>
      </trkpt>
      <trkpt lat="49.589448" lon="6.566831">
        <ele>193.0</ele>
        <time>2020-07-09T07:30:10Z</time>
      </trkpt>
      <trkpt lat="49.589369" lon="6.5669">
        <ele>192.0</ele>
        <time>2020-07-09T07:30:12Z</time>
      </trkpt>
      <trkpt lat="49.589295" lon="6.56696">
        <ele>192.0</ele>
        <time>2020-07-09T07:30:14Z</time>
      </trkpt>
      <trkpt lat="49.589178" lon="6.56706">
        <ele>192.0</ele>
        <time>2020-07-09T07:30:17Z</time>
      </trkpt>
      <trkpt lat="49.589092" lon="6.567124">
        <ele>192.0</ele>
        <time>2020-07-09T07:30:19Z</time>
      </trkpt>
      <trkpt lat="49.589051" lon="6.567162">
        <ele>192.0</ele>
        <time>2020-07-09T07:30:20Z</time>
      </trkpt>
      <trkpt lat="49.588924" lon="6.567259">
        <ele>192.0</ele>
        <time>2020-07-09T07:30:23Z</time>
      </trkpt>
      <trkpt lat="49.588835" lon="6.567322">
        <ele>192.0</ele>
        <time>2020-07-09T07:30:25Z</time>
      </trkpt>
      <trkpt lat="49.588747" lon="6.56738">
        <ele>192.0</ele>
        <time>2020-07-09T07:30:27Z</time>
      </trkpt>
      <trkpt lat="49.588663" lon="6.567434">
        <ele>192.0</ele>
        <time>2020-07-09T07:30:29Z</time>
      </trkpt>
      <trkpt lat="49.588528" lon="6.567516">
        <ele>192.0</ele>
        <time>2020-07-09T07:30:32Z</time>
      </trkpt>
      <trkpt lat="49.588439" lon="6.567564">
        <ele>192.0</ele>
        <time>2020-07-09T07:30:34Z</time>
      </trkpt>
      <trkpt lat="49.588352" lon="6.567606">
        <ele>192.0</ele>
        <time>2020-07-09T07:30:36Z</time>
      </trkpt>
      <trkpt lat="49.588309" lon="6.567628">
        <ele>192.0</ele>
        <time>2020-07-09T07:30:37Z</time>
      </trkpt>
      <trkpt lat="49.588174" lon="6.567702">
        <ele>192.0</ele>
        <time>2020-07-09T07:30:40Z</time>
      </trkpt>
      <trkpt lat="49.588077" lon="6.567747">
        <ele>192.0</ele>
        <time>2020-07-09T07:30:42Z</time>
      </trkpt>
      <trkpt lat="49.587985" lon="6.567786">
        <ele>191.0</ele>
        <time>2020-07-09T07:30:44Z</time>
      </trkpt>
      <trkpt lat="49.587844" lon="6.567852">
        <ele>191.0</ele>
        <time>2020-07-09T07:30:47Z</time>
      </trkpt>
      <trkpt lat="49.587794" lon="6.567873">
        <ele>191.0</ele>
        <time>2020-07-09T07:30:48Z</time>
      </trkpt>
      <trkpt lat="49.587653" lon="6.567937">
        <ele>191.0</ele>
        <time>2020-07-09T07:30:51Z</time>
      </trkpt>
      <trkpt lat="49.587557" lon="6.567976">
        <ele>191.0</ele>
        <time>2020-07-09T07:30:53Z</time>
      </trkpt>
      <trkpt lat="49.587459" lon="6.568008">
        <ele>191.0</ele>
        <time>2020-07-09T07:30:55Z</time>
      </trkpt>
      <trkpt lat="49.58732" lon="6.568037">
        <ele>191.0</ele>
        <time>2020-07-09T07:30:58Z</time>
      </trkpt>
      <trkpt lat="49.587226" lon="6.568054">
        <ele>191.0</ele>
        <time>2020-07-09T07:31:00Z</time>
      </trkpt>
      <trkpt lat="49.587132" lon="6.56807">
        <ele>191.0</ele>
        <time>2020-07-09T07:31:02Z</time>
      </trkpt>
      <trkpt lat="49.587038" lon="6.568089">
        <ele>191.0</ele>
        <time>2020-07-09T07:31:04Z</time>
      </trkpt>
      <trkpt lat="49.586948" lon="6.568102">
        <ele>192.0</ele>
        <time>2020-07-09T07:31:06Z</time>
      </trkpt>
      <trkpt lat="49.5869" lon="6.56811">
        <ele>192.0</ele>
        <time>2020-07-09T07:31:07Z</time>
      </trkpt>
      <trkpt lat="49.586765" lon="6.568135">
        <ele>192.0</ele>
        <time>2020-07-09T07:31:10Z</time>
      </trkpt>
      <trkpt lat="49.586671" lon="6.568147">
        <ele>192.0</ele>
        <time>2020-07-09T07:31:12Z</time>
      </trkpt>
      <trkpt lat="49.586572" lon="6.568157">
        <ele>192.0</ele>
        <time>2020-07-09T07:31:14Z</time>
      </trkpt>
      <trkpt lat="49.586483" lon="6.56816">
        <ele>192.0</ele>
        <time>2020-07-09T07:31:16Z</time>
      </trkpt>
      <trkpt lat="49.58639" lon="6.568171">
        <ele>192.0</ele>
        <time>2020-07-09T07:31:18Z</time>
      </trkpt>
      <trkpt lat="49.586301" lon="6.568177">
        <ele>193.0</ele>
        <time>2020-07-09T07:31:20Z</time>
      </trkpt>
      <trkpt lat="49.586169" lon="6.568178">
        <ele>193.0</ele>
        <time>2020-07-09T07:31:23Z</time>
      </trkpt>
      <trkpt lat="49.586084" lon="6.568177">
        <ele>193.0</ele>
        <time>2020-07-09T07:31:25Z</time>
      </trkpt>
      <trkpt lat="49.585999" lon="6.568172">
        <ele>193.0</ele>
        <time>2020-07-09T07:31:27Z</time>
      </trkpt>
      <trkpt lat="49.58591" lon="6.568162">
        <ele>193.0</ele>
        <time>2020-07-09T07:31:29Z</time>
      </trkpt>
      <trkpt lat="49.585817" lon="6.568155">
        <ele>193.0</ele>
        <time>2020-07-09T07:31:31Z</time>
      </trkpt>
      <trkpt lat="49.58568" lon="6.568152">
        <ele>193.0</ele>
        <time>2020-07-09T07:31:34Z</time>
      </trkpt>
      <trkpt lat="49.585632" lon="6.568146">
        <ele>193.0</ele>
        <time>2020-07-09T07:31:35Z</time>
      </trkpt>
      <trkpt lat="49.585496" lon="6.568121">
        <ele>193.0</ele>
        <time>2020-07-09T07:31:38Z</time>
      </trkpt>
      <trkpt lat="49.5854" lon="6.568109">
        <ele>193.0</ele>
        <time>2020-07-09T07:31:40Z</time>
      </trkpt>
      <trkpt lat="49.58526" lon="6.568087">
        <ele>192.0</ele>
        <time>2020-07-09T07:31:43Z</time>
      </trkpt>
      <trkpt lat="49.585172" lon="6.568078">
        <ele>193.0</ele>
        <time>2020-07-09T07:31:45Z</time>
      </trkpt>
      <trkpt lat="49.585082" lon="6.568055">
        <ele>193.0</ele>
        <time>2020-07-09T07:31:47Z</time>
      </trkpt>
      <trkpt lat="49.584991" lon="6.568035">
        <ele>193.0</ele>
        <time>2020-07-09T07:31:49Z</time>
      </trkpt>
      <trkpt lat="49.584899" lon="6.56801">
        <ele>192.0</ele>
        <time>2020-07-09T07:31:51Z</time>
      </trkpt>
      <trkpt lat="49.584805" lon="6.56799">
        <ele>193.0</ele>
        <time>2020-07-09T07:31:53Z</time>
      </trkpt>
      <trkpt lat="49.584673" lon="6.567953">
        <ele>192.0</ele>
        <time>2020-07-09T07:31:56Z</time>
      </trkpt>
      <trkpt lat="49.584582" lon="6.567922">
        <ele>192.0</ele>
        <time>2020-07-09T07:31:58Z</time>
      </trkpt>
      <trkpt lat="49.58449" lon="6.567891">
        <ele>192.0</ele>
        <time>2020-07-09T07:32:00Z</time>
      </trkpt>
      <trkpt lat="49.584399" lon="6.567848">
        <ele>192.0</ele>
        <time>2020-07-09T07:32:02Z</time>
      </trkpt>
      <trkpt lat="49.58431" lon="6.567814">
        <ele>192.0</ele>
        <time>2020-07-09T07:32:04Z</time>
      </trkpt>
      <trkpt lat="49.584224" lon="6.56778">
        <ele>192.0</ele>
        <time>2020-07-09T07:32:06Z</time>
      </trkpt>
      <trkpt lat="49.584139" lon="6.567746">
        <ele>192.0</ele>
        <time>2020-07-09T07:32:08Z</time>
      </trkpt>
      <trkpt lat="49.58401" lon="6.567684">
        <ele>192.0</ele>
        <time>2020-07-09T07:32:11Z</time>
      </trkpt>
      <trkpt lat="49.583918" lon="6.567644">
        <ele>192.0</ele>
        <time>2020-07-09T07:32:13Z</time>
      </trkpt>
      <trkpt lat="49.583874" lon="6.567623">
        <ele>192.0</ele>
        <time>2020-07-09T07:32:14Z</time>
      </trkpt>
      <trkpt lat="49.583705" lon="6.567531">
        <ele>192.0</ele>
        <time>2020-07-09T07:32:18Z</time>
      </trkpt>
      <trkpt lat="49.583622" lon="6.567474">
        <ele>192.0</ele>
        <time>2020-07-09T07:32:20Z</time>
      </trkpt>
      <trkpt lat="49.583537" lon="6.567413">
        <ele>192.0</ele>
        <time>2020-07-09T07:32:22Z</time>
      </trkpt>
      <trkpt lat="49.583414" lon="6.567321">
        <ele>191.0</ele>
        <time>2020-07-09T07:32:25Z</time>
      </trkpt>
      <trkpt lat="49.583329" lon="6.567266">
        <ele>191.0</ele>
        <time>2020-07-09T07:32:27Z</time>
      </trkpt>
      <trkpt lat="49.583287" lon="6.567237">
        <ele>191.0</ele>
        <time>2020-07-09T07:32:28Z</time>
      </trkpt>
      <trkpt lat="49.583171" lon="6.56715">
        <ele>191.0</ele>
        <time>2020-07-09T07:32:31Z</time>
      </trkpt>
      <trkpt lat="49.583104" lon="6.567086">
        <ele>191.0</ele>
        <time>2020-07-09T07:32:33Z</time>
      </trkpt>
      <trkpt lat="49.583052" lon="6.567047">
        <ele>191.0</ele>
        <time>2020-07-09T07:32:35Z</time>
      </trkpt>
      <trkpt lat="49.58302" lon="6.567039">
        <ele>191.0</ele>
        <time>2020-07-09T07:32:37Z</time>
      </trkpt>
      <trkpt lat="49.583017" lon="6.567035">
        <ele>191.0</ele>
        <time>2020-07-09T07:32:39Z</time>
      </trkpt>
      <trkpt lat="49.583016" lon="6.567021">
        <ele>192.0</ele>
        <time>2020-07-09T07:32:42Z</time>
      </trkpt>
      <trkpt lat="49.583009" lon="6.567021">
        <ele>192.0</ele>
        <time>2020-07-09T07:32:44Z</time>
      </trkpt>
      <trkpt lat="49.583002" lon="6.567028">
        <ele>192.0</ele>
        <time>2020-07-09T08:12:18Z</time>
      </trkpt>
      <trkpt lat="49.582994" lon="6.567012">
        <ele>193.0</ele>
        <time>2020-07-09T08:12:20Z</time>
      </trkpt>
      <trkpt lat="49.582987" lon="6.567005">
        <ele>194.0</ele>
        <time>2020-07-09T08:12:22Z</time>
      </trkpt>
      <trkpt lat="49.582981" lon="6.567">
        <ele>194.0</ele>
        <time>2020-07-09T08:12:24Z</time>
      </trkpt>
      <trkpt lat="49.582975" lon="6.566987">
        <ele>194.0</ele>
        <time>2020-07-09T08:12:26Z</time>
      </trkpt>
      <trkpt lat="49.582965" lon="6.566972">
        <ele>194.0</ele>
        <time>2020-07-09T08:12:28Z</time>
      </trkpt>
      <trkpt lat="49.582958" lon="6.566946">
        <ele>194.0</ele>
        <time>2020-07-09T08:12:30Z</time>
      </trkpt>
      <trkpt lat="49.582949" lon="6.566943">
        <ele>194.0</ele>
        <time>2020-07-09T08:12:32Z</time>
      </trkpt>
      <trkpt lat="49.582941" lon="6.566926">
        <ele>194.0</ele>
        <time>2020-07-09T08:12:34Z</time>
      </trkpt>
      <trkpt lat="49.582939" lon="6.566924">
        <ele>194.0</ele>
        <time>2020-07-09T08:12:36Z</time>
      </trkpt>
      <trkpt lat="49.582943" lon="6.56694">
        <ele>194.0</ele>
        <time>2020-07-09T08:12:38Z</time>
      </trkpt>
      <trkpt lat="49.58293" lon="6.566936">
        <ele>193.0</ele>
        <time>2020-07-09T08:12:41Z</time>
      </trkpt>
      <trkpt lat="49.58291" lon="6.566911">
        <ele>193.0</ele>
        <time>2020-07-09T08:12:43Z</time>
      </trkpt>
      <trkpt lat="49.582885" lon="6.566877">
        <ele>193.0</ele>
        <time>2020-07-09T08:12:45Z</time>
      </trkpt>
      <trkpt lat="49.582858" lon="6.566851">
        <ele>194.0</ele>
        <time>2020-07-09T08:12:47Z</time>
      </trkpt>
      <trkpt lat="49.58282" lon="6.566813">
        <ele>194.0</ele>
        <time>2020-07-09T08:12:49Z</time>
      </trkpt>
      <trkpt lat="49.582789" lon="6.566764">
        <ele>193.0</ele>
        <time>2020-07-09T08:12:51Z</time>
      </trkpt>
      <trkpt lat="49.582747" lon="6.566711">
        <ele>193.0</ele>
        <time>2020-07-09T08:12:53Z</time>
      </trkpt>
      <trkpt lat="49.58271" lon="6.566665">
        <ele>193.0</ele>
        <time>2020-07-09T08:12:55Z</time>
      </trkpt>
      <trkpt lat="49.582678" lon="6.566619">
        <ele>193.0</ele>
        <time>2020-07-09T08:12:57Z</time>
      </trkpt>
      <trkpt lat="49.582644" lon="6.566561">
        <ele>192.0</ele>
        <time>2020-07-09T08:12:59Z</time>
      </trkpt>
      <trkpt lat="49.582609" lon="6.566518">
        <ele>192.0</ele>
        <time>2020-07-09T08:13:01Z</time>
      </trkpt>
      <trkpt lat="49.582573" lon="6.566465">
        <ele>192.0</ele>
        <time>2020-07-09T08:13:03Z</time>
      </trkpt>
      <trkpt lat="49.582535" lon="6.566404">
        <ele>192.0</ele>
        <time>2020-07-09T08:13:05Z</time>
      </trkpt>
      <trkpt lat="49.5825" lon="6.56634">
        <ele>193.0</ele>
        <time>2020-07-09T08:13:07Z</time>
      </trkpt>
      <trkpt lat="49.582469" lon="6.566271">
        <ele>193.0</ele>
        <time>2020-07-09T08:13:09Z</time>
      </trkpt>
      <trkpt lat="49.582442" lon="6.566207">
        <ele>192.0</ele>
        <time>2020-07-09T08:13:11Z</time>
      </trkpt>
      <trkpt lat="49.582415" lon="6.566146">
        <ele>193.0</ele>
        <time>2020-07-09T08:13:13Z</time>
      </trkpt>
      <trkpt lat="49.582378" lon="6.566087">
        <ele>192.0</ele>
        <time>2020-07-09T08:13:15Z</time>
      </trkpt>
      <trkpt lat="49.582335" lon="6.566031">
        <ele>193.0</ele>
        <time>2020-07-09T08:13:17Z</time>
      </trkpt>
      <trkpt lat="49.582274" lon="6.565995">
        <ele>193.0</ele>
        <time>2020-07-09T08:13:19Z</time>
      </trkpt>
      <trkpt lat="49.582207" lon="6.565947">
        <ele>193.0</ele>
        <time>2020-07-09T08:13:21Z</time>
      </trkpt>
      <trkpt lat="49.582126" lon="6.565898">
        <ele>193.0</ele>
        <time>2020-07-09T08:13:23Z</time>
      </trkpt>
      <trkpt lat="49.582053" lon="6.565843">
        <ele>193.0</ele>
        <time>2020-07-09T08:13:25Z</time>
      </trkpt>
      <trkpt lat="49.581969" lon="6.565775">
        <ele>192.0</ele>
        <time>2020-07-09T08:13:27Z</time>
      </trkpt>
      <trkpt lat="49.581874" lon="6.565694">
        <ele>191.0</ele>
        <time>2020-07-09T08:13:29Z</time>
      </trkpt>
      <trkpt lat="49.58176" lon="6.565606">
        <ele>190.0</ele>
        <time>2020-07-09T08:13:31Z</time>
      </trkpt>
      <trkpt lat="49.581585" lon="6.565463">
        <ele>190.0</ele>
        <time>2020-07-09T08:13:34Z</time>
      </trkpt>
      <trkpt lat="49.581467" lon="6.565359">
        <ele>190.0</ele>
        <time>2020-07-09T08:13:36Z</time>
      </trkpt>
      <trkpt lat="49.581349" lon="6.565246">
        <ele>190.0</ele>
        <time>2020-07-09T08:13:38Z</time>
      </trkpt>
      <trkpt lat="49.581225" lon="6.565133">
        <ele>190.0</ele>
        <time>2020-07-09T08:13:40Z</time>
      </trkpt>
      <trkpt lat="49.581101" lon="6.565024">
        <ele>190.0</ele>
        <time>2020-07-09T08:13:42Z</time>
      </trkpt>
      <trkpt lat="49.580967" lon="6.564927">
        <ele>190.0</ele>
        <time>2020-07-09T08:13:44Z</time>
      </trkpt>
      <trkpt lat="49.580844" lon="6.564825">
        <ele>190.0</ele>
        <time>2020-07-09T08:13:46Z</time>
      </trkpt>
      <trkpt lat="49.580721" lon="6.564729">
        <ele>190.0</ele>
        <time>2020-07-09T08:13:48Z</time>
      </trkpt>
      <trkpt lat="49.580534" lon="6.564592">
        <ele>189.0</ele>
        <time>2020-07-09T08:13:51Z</time>
      </trkpt>
      <trkpt lat="49.580477" lon="6.564548">
        <ele>190.0</ele>
        <time>2020-07-09T08:13:52Z</time>
      </trkpt>
      <trkpt lat="49.580357" lon="6.564453">
        <ele>190.0</ele>
        <time>2020-07-09T08:13:54Z</time>
      </trkpt>
      <trkpt lat="49.580177" lon="6.564321">
        <ele>189.0</ele>
        <time>2020-07-09T08:13:57Z</time>
      </trkpt>
      <trkpt lat="49.580118" lon="6.564285">
        <ele>189.0</ele>
        <time>2020-07-09T08:13:58Z</time>
      </trkpt>
      <trkpt lat="49.57993" lon="6.564189">
        <ele>190.0</ele>
        <time>2020-07-09T08:14:01Z</time>
      </trkpt>
      <trkpt lat="49.579745" lon="6.564094">
        <ele>190.0</ele>
        <time>2020-07-09T08:14:04Z</time>
      </trkpt>
      <trkpt lat="49.579562" lon="6.564014">
        <ele>191.0</ele>
        <time>2020-07-09T08:14:07Z</time>
      </trkpt>
      <trkpt lat="49.579442" lon="6.563972">
        <ele>191.0</ele>
        <time>2020-07-09T08:14:09Z</time>
      </trkpt>
      <trkpt lat="49.579265" lon="6.563909">
        <ele>191.0</ele>
        <time>2020-07-09T08:14:12Z</time>
      </trkpt>
      <trkpt lat="49.579083" lon="6.563854">
        <ele>191.0</ele>
        <time>2020-07-09T08:14:15Z</time>
      </trkpt>
      <trkpt lat="49.578967" lon="6.56383">
        <ele>191.0</ele>
        <time>2020-07-09T08:14:17Z</time>
      </trkpt>
      <trkpt lat="49.578847" lon="6.563801">
        <ele>191.0</ele>
        <time>2020-07-09T08:14:19Z</time>
      </trkpt>
      <trkpt lat="49.578729" lon="6.563773">
        <ele>191.0</ele>
        <time>2020-07-09T08:14:21Z</time>
      </trkpt>
      <trkpt lat="49.578608" lon="6.563757">
        <ele>190.0</ele>
        <time>2020-07-09T08:14:23Z</time>
      </trkpt>
      <trkpt lat="49.578429" lon="6.56374">
        <ele>191.0</ele>
        <time>2020-07-09T08:14:26Z</time>
      </trkpt>
      <trkpt lat="49.578367" lon="6.56373">
        <ele>191.0</ele>
        <time>2020-07-09T08:14:27Z</time>
      </trkpt>
      <trkpt lat="49.578192" lon="6.56372">
        <ele>191.0</ele>
        <time>2020-07-09T08:14:30Z</time>
      </trkpt>
      <trkpt lat="49.578071" lon="6.563714">
        <ele>191.0</ele>
        <time>2020-07-09T08:14:32Z</time>
      </trkpt>
      <trkpt lat="49.577952" lon="6.563715">
        <ele>191.0</ele>
        <time>2020-07-09T08:14:34Z</time>
      </trkpt>
      <trkpt lat="49.577784" lon="6.563741">
        <ele>192.0</ele>
        <time>2020-07-09T08:14:37Z</time>
      </trkpt>
      <trkpt lat="49.577665" lon="6.563759">
        <ele>193.0</ele>
        <time>2020-07-09T08:14:39Z</time>
      </trkpt>
      <trkpt lat="49.577557" lon="6.563774">
        <ele>193.0</ele>
        <time>2020-07-09T08:14:41Z</time>
      </trkpt>
      <trkpt lat="49.577448" lon="6.563795">
        <ele>192.0</ele>
        <time>2020-07-09T08:14:43Z</time>
      </trkpt>
      <trkpt lat="49.577346" lon="6.563805">
        <ele>192.0</ele>
        <time>2020-07-09T08:14:45Z</time>
      </trkpt>
      <trkpt lat="49.577196" lon="6.563835">
        <ele>192.0</ele>
        <time>2020-07-09T08:14:48Z</time>
      </trkpt>
      <trkpt lat="49.577094" lon="6.563861">
        <ele>192.0</ele>
        <time>2020-07-09T08:14:50Z</time>
      </trkpt>
      <trkpt lat="49.57704" lon="6.563873">
        <ele>193.0</ele>
        <time>2020-07-09T08:14:51Z</time>
      </trkpt>
      <trkpt lat="49.576885" lon="6.563928">
        <ele>193.0</ele>
        <time>2020-07-09T08:14:54Z</time>
      </trkpt>
      <trkpt lat="49.576783" lon="6.563974">
        <ele>193.0</ele>
        <time>2020-07-09T08:14:56Z</time>
      </trkpt>
      <trkpt lat="49.576686" lon="6.56402">
        <ele>194.0</ele>
        <time>2020-07-09T08:14:58Z</time>
      </trkpt>
      <trkpt lat="49.576541" lon="6.564102">
        <ele>194.0</ele>
        <time>2020-07-09T08:15:01Z</time>
      </trkpt>
      <trkpt lat="49.576442" lon="6.564164">
        <ele>194.0</ele>
        <time>2020-07-09T08:15:03Z</time>
      </trkpt>
      <trkpt lat="49.57634" lon="6.564225">
        <ele>195.0</ele>
        <time>2020-07-09T08:15:05Z</time>
      </trkpt>
      <trkpt lat="49.57624" lon="6.564289">
        <ele>195.0</ele>
        <time>2020-07-09T08:15:07Z</time>
      </trkpt>
      <trkpt lat="49.576141" lon="6.564353">
        <ele>195.0</ele>
        <time>2020-07-09T08:15:09Z</time>
      </trkpt>
      <trkpt lat="49.576052" lon="6.564412">
        <ele>196.0</ele>
        <time>2020-07-09T08:15:11Z</time>
      </trkpt>
      <trkpt lat="49.57596" lon="6.564467">
        <ele>195.0</ele>
        <time>2020-07-09T08:15:13Z</time>
      </trkpt>
      <trkpt lat="49.575866" lon="6.564537">
        <ele>196.0</ele>
        <time>2020-07-09T08:15:15Z</time>
      </trkpt>
      <trkpt lat="49.575767" lon="6.564603">
        <ele>195.0</ele>
        <time>2020-07-09T08:15:17Z</time>
      </trkpt>
      <trkpt lat="49.575682" lon="6.56466">
        <ele>196.0</ele>
        <time>2020-07-09T08:15:19Z</time>
      </trkpt>
      <trkpt lat="49.575596" lon="6.564725">
        <ele>196.0</ele>
        <time>2020-07-09T08:15:21Z</time>
      </trkpt>
      <trkpt lat="49.575501" lon="6.564795">
        <ele>195.0</ele>
        <time>2020-07-09T08:15:23Z</time>
      </trkpt>
      <trkpt lat="49.57541" lon="6.564854">
        <ele>195.0</ele>
        <time>2020-07-09T08:15:25Z</time>
      </trkpt>
      <trkpt lat="49.575319" lon="6.564918">
        <ele>195.0</ele>
        <time>2020-07-09T08:15:27Z</time>
      </trkpt>
      <trkpt lat="49.575225" lon="6.564979">
        <ele>195.0</ele>
        <time>2020-07-09T08:15:29Z</time>
      </trkpt>
      <trkpt lat="49.575143" lon="6.565042">
        <ele>195.0</ele>
        <time>2020-07-09T08:15:31Z</time>
      </trkpt>
      <trkpt lat="49.575005" lon="6.565135">
        <ele>195.0</ele>
        <time>2020-07-09T08:15:34Z</time>
      </trkpt>
      <trkpt lat="49.574913" lon="6.565191">
        <ele>195.0</ele>
        <time>2020-07-09T08:15:36Z</time>
      </trkpt>
      <trkpt lat="49.574829" lon="6.565244">
        <ele>194.0</ele>
        <time>2020-07-09T08:15:38Z</time>
      </trkpt>
      <trkpt lat="49.574791" lon="6.565276">
        <ele>195.0</ele>
        <time>2020-07-09T08:15:39Z</time>
      </trkpt>
      <trkpt lat="49.574671" lon="6.565413">
        <ele>195.0</ele>
        <time>2020-07-09T08:15:43Z</time>
      </trkpt>
      <trkpt lat="49.574645" lon="6.56545">
        <ele>195.0</ele>
        <time>2020-07-09T08:15:44Z</time>
      </trkpt>
      <trkpt lat="49.57459" lon="6.565587">
        <ele>194.0</ele>
        <time>2020-07-09T08:15:47Z</time>
      </trkpt>
      <trkpt lat="49.574548" lon="6.565692">
        <ele>194.0</ele>
        <time>2020-07-09T08:15:49Z</time>
      </trkpt>
      <trkpt lat="49.574476" lon="6.565822">
        <ele>194.0</ele>
        <time>2020-07-09T08:15:51Z</time>
      </trkpt>
      <trkpt lat="49.574389" lon="6.565955">
        <ele>194.0</ele>
        <time>2020-07-09T08:15:53Z</time>
      </trkpt>
      <trkpt lat="49.574297" lon="6.566098">
        <ele>194.0</ele>
        <time>2020-07-09T08:15:55Z</time>
      </trkpt>
      <trkpt lat="49.574203" lon="6.566234">
        <ele>195.0</ele>
        <time>2020-07-09T08:15:57Z</time>
      </trkpt>
      <trkpt lat="49.574115" lon="6.566356">
        <ele>194.0</ele>
        <time>2020-07-09T08:15:59Z</time>
      </trkpt>
      <trkpt lat="49.573992" lon="6.566533">
        <ele>194.0</ele>
        <time>2020-07-09T08:16:02Z</time>
      </trkpt>
      <trkpt lat="49.573949" lon="6.566598">
        <ele>194.0</ele>
        <time>2020-07-09T08:16:03Z</time>
      </trkpt>
      <trkpt lat="49.573826" lon="6.566765">
        <ele>194.0</ele>
        <time>2020-07-09T08:16:06Z</time>
      </trkpt>
      <trkpt lat="49.573709" lon="6.566922">
        <ele>193.0</ele>
        <time>2020-07-09T08:16:09Z</time>
      </trkpt>
      <trkpt lat="49.573668" lon="6.566973">
        <ele>193.0</ele>
        <time>2020-07-09T08:16:10Z</time>
      </trkpt>
      <trkpt lat="49.573502" lon="6.567199">
        <ele>194.0</ele>
        <time>2020-07-09T08:16:14Z</time>
      </trkpt>
      <trkpt lat="49.573418" lon="6.567316">
        <ele>194.0</ele>
        <time>2020-07-09T08:16:16Z</time>
      </trkpt>
      <trkpt lat="49.573332" lon="6.567437">
        <ele>194.0</ele>
        <time>2020-07-09T08:16:18Z</time>
      </trkpt>
      <trkpt lat="49.573246" lon="6.567544">
        <ele>194.0</ele>
        <time>2020-07-09T08:16:20Z</time>
      </trkpt>
      <trkpt lat="49.573131" lon="6.567722">
        <ele>194.0</ele>
        <time>2020-07-09T08:16:23Z</time>
      </trkpt>
      <trkpt lat="49.57305" lon="6.567846">
        <ele>195.0</ele>
        <time>2020-07-09T08:16:25Z</time>
      </trkpt>
      <trkpt lat="49.572973" lon="6.567963">
        <ele>195.0</ele>
        <time>2020-07-09T08:16:27Z</time>
      </trkpt>
      <trkpt lat="49.572888" lon="6.568083">
        <ele>194.0</ele>
        <time>2020-07-09T08:16:29Z</time>
      </trkpt>
      <trkpt lat="49.57285" lon="6.568143">
        <ele>194.0</ele>
        <time>2020-07-09T08:16:30Z</time>
      </trkpt>
      <trkpt lat="49.572734" lon="6.568328">
        <ele>195.0</ele>
        <time>2020-07-09T08:16:33Z</time>
      </trkpt>
      <trkpt lat="49.572661" lon="6.56844">
        <ele>195.0</ele>
        <time>2020-07-09T08:16:35Z</time>
      </trkpt>
      <trkpt lat="49.572582" lon="6.568553">
        <ele>195.0</ele>
        <time>2020-07-09T08:16:37Z</time>
      </trkpt>
      <trkpt lat="49.572502" lon="6.568665">
        <ele>196.0</ele>
        <time>2020-07-09T08:16:39Z</time>
      </trkpt>
      <trkpt lat="49.572385" lon="6.568837">
        <ele>196.0</ele>
        <time>2020-07-09T08:16:42Z</time>
      </trkpt>
      <trkpt lat="49.572306" lon="6.568952">
        <ele>196.0</ele>
        <time>2020-07-09T08:16:44Z</time>
      </trkpt>
      <trkpt lat="49.572234" lon="6.569058">
        <ele>195.0</ele>
        <time>2020-07-09T08:16:46Z</time>
      </trkpt>
      <trkpt lat="49.572196" lon="6.569112">
        <ele>195.0</ele>
        <time>2020-07-09T08:16:47Z</time>
      </trkpt>
      <trkpt lat="49.572122" lon="6.569223">
        <ele>195.0</ele>
        <time>2020-07-09T08:16:49Z</time>
      </trkpt>
      <trkpt lat="49.571967" lon="6.569431">
        <ele>195.0</ele>
        <time>2020-07-09T08:16:53Z</time>
      </trkpt>
      <trkpt lat="49.57189" lon="6.569548">
        <ele>195.0</ele>
        <time>2020-07-09T08:16:55Z</time>
      </trkpt>
      <trkpt lat="49.571808" lon="6.569666">
        <ele>196.0</ele>
        <time>2020-07-09T08:16:57Z</time>
      </trkpt>
      <trkpt lat="49.571688" lon="6.569833">
        <ele>195.0</ele>
        <time>2020-07-09T08:17:00Z</time>
      </trkpt>
      <trkpt lat="49.571613" lon="6.569933">
        <ele>195.0</ele>
        <time>2020-07-09T08:17:02Z</time>
      </trkpt>
      <trkpt lat="49.571537" lon="6.570034">
        <ele>194.0</ele>
        <time>2020-07-09T08:17:04Z</time>
      </trkpt>
      <trkpt lat="49.57143" lon="6.570195">
        <ele>194.0</ele>
        <time>2020-07-09T08:17:07Z</time>
      </trkpt>
      <trkpt lat="49.571389" lon="6.570246">
        <ele>194.0</ele>
        <time>2020-07-09T08:17:08Z</time>
      </trkpt>
      <trkpt lat="49.571266" lon="6.570397">
        <ele>194.0</ele>
        <time>2020-07-09T08:17:11Z</time>
      </trkpt>
      <trkpt lat="49.571191" lon="6.5705">
        <ele>194.0</ele>
        <time>2020-07-09T08:17:13Z</time>
      </trkpt>
      <trkpt lat="49.57115" lon="6.570554">
        <ele>194.0</ele>
        <time>2020-07-09T08:17:14Z</time>
      </trkpt>
      <trkpt lat="49.571071" lon="6.570662">
        <ele>194.0</ele>
        <time>2020-07-09T08:17:16Z</time>
      </trkpt>
      <trkpt lat="49.570954" lon="6.57082">
        <ele>194.0</ele>
        <time>2020-07-09T08:17:19Z</time>
      </trkpt>
      <trkpt lat="49.570876" lon="6.570919">
        <ele>194.0</ele>
        <time>2020-07-09T08:17:21Z</time>
      </trkpt>
      <trkpt lat="49.570799" lon="6.571019">
        <ele>195.0</ele>
        <time>2020-07-09T08:17:23Z</time>
      </trkpt>
      <trkpt lat="49.570719" lon="6.571114">
        <ele>194.0</ele>
        <time>2020-07-09T08:17:25Z</time>
      </trkpt>
      <trkpt lat="49.570652" lon="6.571209">
        <ele>194.0</ele>
        <time>2020-07-09T08:17:27Z</time>
      </trkpt>
      <trkpt lat="49.570581" lon="6.571311">
        <ele>194.0</ele>
        <time>2020-07-09T08:17:29Z</time>
      </trkpt>
      <trkpt lat="49.570487" lon="6.571452">
        <ele>194.0</ele>
        <time>2020-07-09T08:17:32Z</time>
      </trkpt>
      <trkpt lat="49.570417" lon="6.571555">
        <ele>194.0</ele>
        <time>2020-07-09T08:17:34Z</time>
      </trkpt>
      <trkpt lat="49.57038" lon="6.571602">
        <ele>194.0</ele>
        <time>2020-07-09T08:17:35Z</time>
      </trkpt>
      <trkpt lat="49.570275" lon="6.571769">
        <ele>194.0</ele>
        <time>2020-07-09T08:17:38Z</time>
      </trkpt>
      <trkpt lat="49.570146" lon="6.571968">
        <ele>194.0</ele>
        <time>2020-07-09T08:17:41Z</time>
      </trkpt>
      <trkpt lat="49.570052" lon="6.572095">
        <ele>194.0</ele>
        <time>2020-07-09T08:17:43Z</time>
      </trkpt>
      <trkpt lat="49.570007" lon="6.572157">
        <ele>194.0</ele>
        <time>2020-07-09T08:17:44Z</time>
      </trkpt>
      <trkpt lat="49.569858" lon="6.572347">
        <ele>194.0</ele>
        <time>2020-07-09T08:17:47Z</time>
      </trkpt>
      <trkpt lat="49.569721" lon="6.572535">
        <ele>194.0</ele>
        <time>2020-07-09T08:17:50Z</time>
      </trkpt>
      <trkpt lat="49.569629" lon="6.572664">
        <ele>194.0</ele>
        <time>2020-07-09T08:17:52Z</time>
      </trkpt>
      <trkpt lat="49.569471" lon="6.572868">
        <ele>193.0</ele>
        <time>2020-07-09T08:17:55Z</time>
      </trkpt>
      <trkpt lat="49.569376" lon="6.572997">
        <ele>193.0</ele>
        <time>2020-07-09T08:17:57Z</time>
      </trkpt>
      <trkpt lat="49.569236" lon="6.573172">
        <ele>193.0</ele>
        <time>2020-07-09T08:18:00Z</time>
      </trkpt>
      <trkpt lat="49.569146" lon="6.573278">
        <ele>194.0</ele>
        <time>2020-07-09T08:18:02Z</time>
      </trkpt>
      <trkpt lat="49.569065" lon="6.573384">
        <ele>193.0</ele>
        <time>2020-07-09T08:18:04Z</time>
      </trkpt>
      <trkpt lat="49.568979" lon="6.573495">
        <ele>193.0</ele>
        <time>2020-07-09T08:18:06Z</time>
      </trkpt>
      <trkpt lat="49.568892" lon="6.573602">
        <ele>193.0</ele>
        <time>2020-07-09T08:18:08Z</time>
      </trkpt>
      <trkpt lat="49.568813" lon="6.573707">
        <ele>193.0</ele>
        <time>2020-07-09T08:18:10Z</time>
      </trkpt>
      <trkpt lat="49.568737" lon="6.573821">
        <ele>193.0</ele>
        <time>2020-07-09T08:18:12Z</time>
      </trkpt>
      <trkpt lat="49.568665" lon="6.573925">
        <ele>193.0</ele>
        <time>2020-07-09T08:18:14Z</time>
      </trkpt>
      <trkpt lat="49.568594" lon="6.574041">
        <ele>194.0</ele>
        <time>2020-07-09T08:18:16Z</time>
      </trkpt>
      <trkpt lat="49.568512" lon="6.574188">
        <ele>195.0</ele>
        <time>2020-07-09T08:18:18Z</time>
      </trkpt>
      <trkpt lat="49.568419" lon="6.574319">
        <ele>197.0</ele>
        <time>2020-07-09T08:18:20Z</time>
      </trkpt>
      <trkpt lat="49.568334" lon="6.574409">
        <ele>196.0</ele>
        <time>2020-07-09T08:18:22Z</time>
      </trkpt>
      <trkpt lat="49.568253" lon="6.574501">
        <ele>195.0</ele>
        <time>2020-07-09T08:18:24Z</time>
      </trkpt>
      <trkpt lat="49.568168" lon="6.574605">
        <ele>195.0</ele>
        <time>2020-07-09T08:18:26Z</time>
      </trkpt>
      <trkpt lat="49.568088" lon="6.574711">
        <ele>194.0</ele>
        <time>2020-07-09T08:18:28Z</time>
      </trkpt>
      <trkpt lat="49.56801" lon="6.574828">
        <ele>194.0</ele>
        <time>2020-07-09T08:18:30Z</time>
      </trkpt>
      <trkpt lat="49.567924" lon="6.574959">
        <ele>195.0</ele>
        <time>2020-07-09T08:18:32Z</time>
      </trkpt>
      <trkpt lat="49.567804" lon="6.575113">
        <ele>196.0</ele>
        <time>2020-07-09T08:18:35Z</time>
      </trkpt>
      <trkpt lat="49.567764" lon="6.575163">
        <ele>195.0</ele>
        <time>2020-07-09T08:18:36Z</time>
      </trkpt>
      <trkpt lat="49.567589" lon="6.575393">
        <ele>196.0</ele>
        <time>2020-07-09T08:18:40Z</time>
      </trkpt>
      <trkpt lat="49.567513" lon="6.575494">
        <ele>195.0</ele>
        <time>2020-07-09T08:18:42Z</time>
      </trkpt>
      <trkpt lat="49.567452" lon="6.575591">
        <ele>194.0</ele>
        <time>2020-07-09T08:18:44Z</time>
      </trkpt>
      <trkpt lat="49.567379" lon="6.575688">
        <ele>194.0</ele>
        <time>2020-07-09T08:18:47Z</time>
      </trkpt>
      <trkpt lat="49.567337" lon="6.575728">
        <ele>194.0</ele>
        <time>2020-07-09T08:18:49Z</time>
      </trkpt>
      <trkpt lat="49.567333" lon="6.57579">
        <ele>194.0</ele>
        <time>2020-07-09T08:18:51Z</time>
      </trkpt>
      <trkpt lat="49.567292" lon="6.575863">
        <ele>195.0</ele>
        <time>2020-07-09T08:18:53Z</time>
      </trkpt>
      <trkpt lat="49.567242" lon="6.575919">
        <ele>195.0</ele>
        <time>2020-07-09T08:18:55Z</time>
      </trkpt>
      <trkpt lat="49.567195" lon="6.575964">
        <ele>195.0</ele>
        <time>2020-07-09T08:18:57Z</time>
      </trkpt>
      <trkpt lat="49.567132" lon="6.576019">
        <ele>195.0</ele>
        <time>2020-07-09T08:18:59Z</time>
      </trkpt>
      <trkpt lat="49.56707" lon="6.576053">
        <ele>195.0</ele>
        <time>2020-07-09T08:19:01Z</time>
      </trkpt>
      <trkpt lat="49.567005" lon="6.576097">
        <ele>195.0</ele>
        <time>2020-07-09T08:19:03Z</time>
      </trkpt>
      <trkpt lat="49.56692" lon="6.576152">
        <ele>195.0</ele>
        <time>2020-07-09T08:19:05Z</time>
      </trkpt>
      <trkpt lat="49.566851" lon="6.576207">
        <ele>194.0</ele>
        <time>2020-07-09T08:19:07Z</time>
      </trkpt>
      <trkpt lat="49.566785" lon="6.576281">
        <ele>194.0</ele>
        <time>2020-07-09T08:19:09Z</time>
      </trkpt>
      <trkpt lat="49.566726" lon="6.576326">
        <ele>194.0</ele>
        <time>2020-07-09T08:19:11Z</time>
      </trkpt>
      <trkpt lat="49.566673" lon="6.576344">
        <ele>194.0</ele>
        <time>2020-07-09T08:19:13Z</time>
      </trkpt>
      <trkpt lat="49.566622" lon="6.576367">
        <ele>194.0</ele>
        <time>2020-07-09T08:19:15Z</time>
      </trkpt>
      <trkpt lat="49.566578" lon="6.576368">
        <ele>193.0</ele>
        <time>2020-07-09T08:19:17Z</time>
      </trkpt>
      <trkpt lat="49.566553" lon="6.57637">
        <ele>193.0</ele>
        <time>2020-07-09T08:19:19Z</time>
      </trkpt>
      <trkpt lat="49.566543" lon="6.576368">
        <ele>192.0</ele>
        <time>2020-07-09T08:19:21Z</time>
      </trkpt>
      <trkpt lat="49.566539" lon="6.576378">
        <ele>192.0</ele>
        <time>2020-07-09T08:19:24Z</time>
      </trkpt>
      <trkpt lat="49.566534" lon="6.576388">
        <ele>192.0</ele>
        <time>2020-07-09T08:19:26Z</time>
      </trkpt>
      <trkpt lat="49.566544" lon="6.576477">
        <ele>191.0</ele>
        <time>2020-07-09T08:25:19Z</time>
      </trkpt>
      <trkpt lat="49.566518" lon="6.57646">
        <ele>192.0</ele>
        <time>2020-07-09T08:25:21Z</time>
      </trkpt>
      <trkpt lat="49.566493" lon="6.576454">
        <ele>193.0</ele>
        <time>2020-07-09T08:25:24Z</time>
      </trkpt>
      <trkpt lat="49.566491" lon="6.576445">
        <ele>193.0</ele>
        <time>2020-07-09T08:25:26Z</time>
      </trkpt>
      <trkpt lat="49.566493" lon="6.576437">
        <ele>193.0</ele>
        <time>2020-07-09T08:25:28Z</time>
      </trkpt>
      <trkpt lat="49.566493" lon="6.576437">
        <ele>193.0</ele>
        <time>2020-07-09T08:25:30Z</time>
      </trkpt>
      <trkpt lat="49.566482" lon="6.576458">
        <ele>194.0</ele>
        <time>2020-07-09T08:25:32Z</time>
      </trkpt>
      <trkpt lat="49.56649" lon="6.576486">
        <ele>194.0</ele>
        <time>2020-07-09T08:25:34Z</time>
      </trkpt>
      <trkpt lat="49.566494" lon="6.576528">
        <ele>195.0</ele>
        <time>2020-07-09T08:25:36Z</time>
      </trkpt>
      <trkpt lat="49.566494" lon="6.576552">
        <ele>195.0</ele>
        <time>2020-07-09T08:25:38Z</time>
      </trkpt>
      <trkpt lat="49.566487" lon="6.576595">
        <ele>195.0</ele>
        <time>2020-07-09T08:25:40Z</time>
      </trkpt>
      <trkpt lat="49.566479" lon="6.576628">
        <ele>194.0</ele>
        <time>2020-07-09T08:25:42Z</time>
      </trkpt>
      <trkpt lat="49.566474" lon="6.576708">
        <ele>194.0</ele>
        <time>2020-07-09T08:25:45Z</time>
      </trkpt>
      <trkpt lat="49.566458" lon="6.576824">
        <ele>194.0</ele>
        <time>2020-07-09T08:25:47Z</time>
      </trkpt>
      <trkpt lat="49.566445" lon="6.576877">
        <ele>194.0</ele>
        <time>2020-07-09T08:25:48Z</time>
      </trkpt>
      <trkpt lat="49.566377" lon="6.577087">
        <ele>195.0</ele>
        <time>2020-07-09T08:25:52Z</time>
      </trkpt>
      <trkpt lat="49.566362" lon="6.577126">
        <ele>195.0</ele>
        <time>2020-07-09T08:25:53Z</time>
      </trkpt>
      <trkpt lat="49.566324" lon="6.57726">
        <ele>193.0</ele>
        <time>2020-07-09T08:25:56Z</time>
      </trkpt>
      <trkpt lat="49.566313" lon="6.57733">
        <ele>193.0</ele>
        <time>2020-07-09T08:25:58Z</time>
      </trkpt>
      <trkpt lat="49.566298" lon="6.577434">
        <ele>192.0</ele>
        <time>2020-07-09T08:26:00Z</time>
      </trkpt>
      <trkpt lat="49.566284" lon="6.577479">
        <ele>192.0</ele>
        <time>2020-07-09T08:26:01Z</time>
      </trkpt>
      <trkpt lat="49.566236" lon="6.577568">
        <ele>191.0</ele>
        <time>2020-07-09T08:26:04Z</time>
      </trkpt>
      <trkpt lat="49.566209" lon="6.577629">
        <ele>191.0</ele>
        <time>2020-07-09T08:26:06Z</time>
      </trkpt>
      <trkpt lat="49.566184" lon="6.577703">
        <ele>190.0</ele>
        <time>2020-07-09T08:26:08Z</time>
      </trkpt>
      <trkpt lat="49.566155" lon="6.577783">
        <ele>191.0</ele>
        <time>2020-07-09T08:26:10Z</time>
      </trkpt>
      <trkpt lat="49.566096" lon="6.577898">
        <ele>190.0</ele>
        <time>2020-07-09T08:26:13Z</time>
      </trkpt>
      <trkpt lat="49.56606" lon="6.577974">
        <ele>189.0</ele>
        <time>2020-07-09T08:26:15Z</time>
      </trkpt>
      <trkpt lat="49.566014" lon="6.578061">
        <ele>190.0</ele>
        <time>2020-07-09T08:26:17Z</time>
      </trkpt>
      <trkpt lat="49.565977" lon="6.578148">
        <ele>190.0</ele>
        <time>2020-07-09T08:26:19Z</time>
      </trkpt>
      <trkpt lat="49.565911" lon="6.578284">
        <ele>190.0</ele>
        <time>2020-07-09T08:26:22Z</time>
      </trkpt>
      <trkpt lat="49.565876" lon="6.578382">
        <ele>189.0</ele>
        <time>2020-07-09T08:26:24Z</time>
      </trkpt>
      <trkpt lat="49.565825" lon="6.578482">
        <ele>189.0</ele>
        <time>2020-07-09T08:26:26Z</time>
      </trkpt>
      <trkpt lat="49.565765" lon="6.578605">
        <ele>190.0</ele>
        <time>2020-07-09T08:26:28Z</time>
      </trkpt>
      <trkpt lat="49.565699" lon="6.578779">
        <ele>192.0</ele>
        <time>2020-07-09T08:26:31Z</time>
      </trkpt>
      <trkpt lat="49.565671" lon="6.5789">
        <ele>192.0</ele>
        <time>2020-07-09T08:26:33Z</time>
      </trkpt>
      <trkpt lat="49.565644" lon="6.579003">
        <ele>192.0</ele>
        <time>2020-07-09T08:26:35Z</time>
      </trkpt>
      <trkpt lat="49.565614" lon="6.579121">
        <ele>192.0</ele>
        <time>2020-07-09T08:26:37Z</time>
      </trkpt>
      <trkpt lat="49.565593" lon="6.579222">
        <ele>192.0</ele>
        <time>2020-07-09T08:26:39Z</time>
      </trkpt>
      <trkpt lat="49.565567" lon="6.579367">
        <ele>191.0</ele>
        <time>2020-07-09T08:26:42Z</time>
      </trkpt>
      <trkpt lat="49.56553" lon="6.579471">
        <ele>191.0</ele>
        <time>2020-07-09T08:26:44Z</time>
      </trkpt>
      <trkpt lat="49.565474" lon="6.579565">
        <ele>189.0</ele>
        <time>2020-07-09T08:26:46Z</time>
      </trkpt>
      <trkpt lat="49.565448" lon="6.579619">
        <ele>189.0</ele>
        <time>2020-07-09T08:26:47Z</time>
      </trkpt>
      <trkpt lat="49.565363" lon="6.579827">
        <ele>190.0</ele>
        <time>2020-07-09T08:26:50Z</time>
      </trkpt>
      <trkpt lat="49.565316" lon="6.579949">
        <ele>190.0</ele>
        <time>2020-07-09T08:26:52Z</time>
      </trkpt>
      <trkpt lat="49.565287" lon="6.580053">
        <ele>190.0</ele>
        <time>2020-07-09T08:26:54Z</time>
      </trkpt>
      <trkpt lat="49.565236" lon="6.580244">
        <ele>190.0</ele>
        <time>2020-07-09T08:26:57Z</time>
      </trkpt>
      <trkpt lat="49.565214" lon="6.580351">
        <ele>189.0</ele>
        <time>2020-07-09T08:26:59Z</time>
      </trkpt>
      <trkpt lat="49.565182" lon="6.580465">
        <ele>190.0</ele>
        <time>2020-07-09T08:27:01Z</time>
      </trkpt>
      <trkpt lat="49.565146" lon="6.58058">
        <ele>189.0</ele>
        <time>2020-07-09T08:27:03Z</time>
      </trkpt>
      <trkpt lat="49.565118" lon="6.580711">
        <ele>189.0</ele>
        <time>2020-07-09T08:27:05Z</time>
      </trkpt>
      <trkpt lat="49.565056" lon="6.580844">
        <ele>189.0</ele>
        <time>2020-07-09T08:27:07Z</time>
      </trkpt>
      <trkpt lat="49.564953" lon="6.581025">
        <ele>190.0</ele>
        <time>2020-07-09T08:27:10Z</time>
      </trkpt>
      <trkpt lat="49.564906" lon="6.581111">
        <ele>190.0</ele>
        <time>2020-07-09T08:27:12Z</time>
      </trkpt>
      <trkpt lat="49.564839" lon="6.581273">
        <ele>189.0</ele>
        <time>2020-07-09T08:27:15Z</time>
      </trkpt>
      <trkpt lat="49.564813" lon="6.581382">
        <ele>188.0</ele>
        <time>2020-07-09T08:27:17Z</time>
      </trkpt>
      <trkpt lat="49.564793" lon="6.581473">
        <ele>188.0</ele>
        <time>2020-07-09T08:27:19Z</time>
      </trkpt>
      <trkpt lat="49.564767" lon="6.58166">
        <ele>189.0</ele>
        <time>2020-07-09T08:27:22Z</time>
      </trkpt>
      <trkpt lat="49.564728" lon="6.581842">
        <ele>189.0</ele>
        <time>2020-07-09T08:27:24Z</time>
      </trkpt>
      <trkpt lat="49.564704" lon="6.582019">
        <ele>190.0</ele>
        <time>2020-07-09T08:27:26Z</time>
      </trkpt>
      <trkpt lat="49.564646" lon="6.582272">
        <ele>190.0</ele>
        <time>2020-07-09T08:27:29Z</time>
      </trkpt>
      <trkpt lat="49.564605" lon="6.582469">
        <ele>191.0</ele>
        <time>2020-07-09T08:27:31Z</time>
      </trkpt>
      <trkpt lat="49.564593" lon="6.582629">
        <ele>190.0</ele>
        <time>2020-07-09T08:27:33Z</time>
      </trkpt>
      <trkpt lat="49.564626" lon="6.582878">
        <ele>191.0</ele>
        <time>2020-07-09T08:27:36Z</time>
      </trkpt>
      <trkpt lat="49.564669" lon="6.583041">
        <ele>191.0</ele>
        <time>2020-07-09T08:27:38Z</time>
      </trkpt>
      <trkpt lat="49.564695" lon="6.583207">
        <ele>192.0</ele>
        <time>2020-07-09T08:27:40Z</time>
      </trkpt>
      <trkpt lat="49.564709" lon="6.583362">
        <ele>192.0</ele>
        <time>2020-07-09T08:27:42Z</time>
      </trkpt>
      <trkpt lat="49.564726" lon="6.583517">
        <ele>192.0</ele>
        <time>2020-07-09T08:27:44Z</time>
      </trkpt>
      <trkpt lat="49.564722" lon="6.583667">
        <ele>192.0</ele>
        <time>2020-07-09T08:27:46Z</time>
      </trkpt>
      <trkpt lat="49.564715" lon="6.583826">
        <ele>192.0</ele>
        <time>2020-07-09T08:27:48Z</time>
      </trkpt>
      <trkpt lat="49.564706" lon="6.583986">
        <ele>193.0</ele>
        <time>2020-07-09T08:27:50Z</time>
      </trkpt>
      <trkpt lat="49.564697" lon="6.584143">
        <ele>193.0</ele>
        <time>2020-07-09T08:27:52Z</time>
      </trkpt>
      <trkpt lat="49.564696" lon="6.584306">
        <ele>193.0</ele>
        <time>2020-07-09T08:27:54Z</time>
      </trkpt>
      <trkpt lat="49.564701" lon="6.584462">
        <ele>194.0</ele>
        <time>2020-07-09T08:27:56Z</time>
      </trkpt>
      <trkpt lat="49.5647" lon="6.584624">
        <ele>194.0</ele>
        <time>2020-07-09T08:27:58Z</time>
      </trkpt>
      <trkpt lat="49.56472" lon="6.584845">
        <ele>194.0</ele>
        <time>2020-07-09T08:28:01Z</time>
      </trkpt>
      <trkpt lat="49.564724" lon="6.584926">
        <ele>194.0</ele>
        <time>2020-07-09T08:28:02Z</time>
      </trkpt>
      <trkpt lat="49.564737" lon="6.585239">
        <ele>194.0</ele>
        <time>2020-07-09T08:28:06Z</time>
      </trkpt>
      <trkpt lat="49.564749" lon="6.585401">
        <ele>194.0</ele>
        <time>2020-07-09T08:28:08Z</time>
      </trkpt>
      <trkpt lat="49.564766" lon="6.585631">
        <ele>195.0</ele>
        <time>2020-07-09T08:28:11Z</time>
      </trkpt>
      <trkpt lat="49.564774" lon="6.585785">
        <ele>194.0</ele>
        <time>2020-07-09T08:28:13Z</time>
      </trkpt>
      <trkpt lat="49.564786" lon="6.585932">
        <ele>194.0</ele>
        <time>2020-07-09T08:28:15Z</time>
      </trkpt>
      <trkpt lat="49.564805" lon="6.586161">
        <ele>194.0</ele>
        <time>2020-07-09T08:28:18Z</time>
      </trkpt>
      <trkpt lat="49.564821" lon="6.586321">
        <ele>193.0</ele>
        <time>2020-07-09T08:28:20Z</time>
      </trkpt>
      <trkpt lat="49.564835" lon="6.58648">
        <ele>194.0</ele>
        <time>2020-07-09T08:28:22Z</time>
      </trkpt>
      <trkpt lat="49.564844" lon="6.586628">
        <ele>193.0</ele>
        <time>2020-07-09T08:28:24Z</time>
      </trkpt>
      <trkpt lat="49.564861" lon="6.586785">
        <ele>194.0</ele>
        <time>2020-07-09T08:28:26Z</time>
      </trkpt>
      <trkpt lat="49.564874" lon="6.586938">
        <ele>194.0</ele>
        <time>2020-07-09T08:28:28Z</time>
      </trkpt>
      <trkpt lat="49.564883" lon="6.587105">
        <ele>194.0</ele>
        <time>2020-07-09T08:28:30Z</time>
      </trkpt>
      <trkpt lat="49.564898" lon="6.587275">
        <ele>193.0</ele>
        <time>2020-07-09T08:28:32Z</time>
      </trkpt>
      <trkpt lat="49.564917" lon="6.587435">
        <ele>194.0</ele>
        <time>2020-07-09T08:28:34Z</time>
      </trkpt>
      <trkpt lat="49.564929" lon="6.58759">
        <ele>194.0</ele>
        <time>2020-07-09T08:28:36Z</time>
      </trkpt>
      <trkpt lat="49.564955" lon="6.587743">
        <ele>193.0</ele>
        <time>2020-07-09T08:28:38Z</time>
      </trkpt>
      <trkpt lat="49.564978" lon="6.587887">
        <ele>193.0</ele>
        <time>2020-07-09T08:28:40Z</time>
      </trkpt>
      <trkpt lat="49.564995" lon="6.588044">
        <ele>193.0</ele>
        <time>2020-07-09T08:28:42Z</time>
      </trkpt>
      <trkpt lat="49.565006" lon="6.588197">
        <ele>193.0</ele>
        <time>2020-07-09T08:28:44Z</time>
      </trkpt>
      <trkpt lat="49.565023" lon="6.588344">
        <ele>192.0</ele>
        <time>2020-07-09T08:28:46Z</time>
      </trkpt>
      <trkpt lat="49.565038" lon="6.588498">
        <ele>192.0</ele>
        <time>2020-07-09T08:28:48Z</time>
      </trkpt>
      <trkpt lat="49.56505" lon="6.588655">
        <ele>192.0</ele>
        <time>2020-07-09T08:28:50Z</time>
      </trkpt>
      <trkpt lat="49.565059" lon="6.588806">
        <ele>192.0</ele>
        <time>2020-07-09T08:28:52Z</time>
      </trkpt>
      <trkpt lat="49.565082" lon="6.589027">
        <ele>192.0</ele>
        <time>2020-07-09T08:28:55Z</time>
      </trkpt>
      <trkpt lat="49.565113" lon="6.589165">
        <ele>191.0</ele>
        <time>2020-07-09T08:28:57Z</time>
      </trkpt>
      <trkpt lat="49.565148" lon="6.5893">
        <ele>191.0</ele>
        <time>2020-07-09T08:28:59Z</time>
      </trkpt>
      <trkpt lat="49.565163" lon="6.589366">
        <ele>191.0</ele>
        <time>2020-07-09T08:29:00Z</time>
      </trkpt>
      <trkpt lat="49.56523" lon="6.589554">
        <ele>191.0</ele>
        <time>2020-07-09T08:29:04Z</time>
      </trkpt>
      <trkpt lat="49.565245" lon="6.589588">
        <ele>191.0</ele>
        <time>2020-07-09T08:29:05Z</time>
      </trkpt>
      <trkpt lat="49.565293" lon="6.589703">
        <ele>192.0</ele>
        <time>2020-07-09T08:29:09Z</time>
      </trkpt>
      <trkpt lat="49.565296" lon="6.589737">
        <ele>192.0</ele>
        <time>2020-07-09T08:29:11Z</time>
      </trkpt>
      <trkpt lat="49.565298" lon="6.58975">
        <ele>191.0</ele>
        <time>2020-07-09T08:29:12Z</time>
      </trkpt>
      <trkpt lat="49.565304" lon="6.589755">
        <ele>191.0</ele>
        <time>2020-07-09T08:29:14Z</time>
      </trkpt>
      <trkpt lat="49.565306" lon="6.589756">
        <ele>191.0</ele>
        <time>2020-07-09T08:29:18Z</time>
      </trkpt>
      <trkpt lat="49.565306" lon="6.589756">
        <ele>191.0</ele>
        <time>2020-07-09T08:29:19Z</time>
      </trkpt>
      <trkpt lat="49.565306" lon="6.589756">
        <ele>191.0</ele>
        <time>2020-07-09T08:29:34Z</time>
      </trkpt>
      <trkpt lat="49.565306" lon="6.589756">
        <ele>191.0</ele>
        <time>2020-07-09T08:29:36Z</time>
      </trkpt>
      <trkpt lat="49.565306" lon="6.589756">
        <ele>191.0</ele>
        <time>2020-07-09T08:29:38Z</time>
      </trkpt>
      <trkpt lat="49.565306" lon="6.589756">
        <ele>191.0</ele>
        <time>2020-07-09T08:29:40Z</time>
      </trkpt>
      <trkpt lat="49.565306" lon="6.589756">
        <ele>191.0</ele>
        <time>2020-07-09T08:29:42Z</time>
      </trkpt>
      <trkpt lat="49.565306" lon="6.589756">
        <ele>191.0</ele>
        <time>2020-07-09T08:29:44Z</time>
      </trkpt>
      <trkpt lat="49.565306" lon="6.589756">
        <ele>191.0</ele>
        <time>2020-07-09T08:29:46Z</time>
      </trkpt>
      <trkpt lat="49.565306" lon="6.589756">
        <ele>191.0</ele>
        <time>2020-07-09T08:29:48Z</time>
      </trkpt>
      <trkpt lat="49.565306" lon="6.589756">
        <ele>191.0</ele>
        <time>2020-07-09T08:29:50Z</time>
      </trkpt>
      <trkpt lat="49.565306" lon="6.589756">
        <ele>191.0</ele>
        <time>2020-07-09T08:29:52Z</time>
      </trkpt>
      <trkpt lat="49.565306" lon="6.589756">
        <ele>191.0</ele>
        <time>2020-07-09T08:29:54Z</time>
      </trkpt>
      <trkpt lat="49.565305" lon="6.589757">
        <ele>191.0</ele>
        <time>2020-07-09T08:29:56Z</time>
      </trkpt>
      <trkpt lat="49.56531" lon="6.589769">
        <ele>192.0</ele>
        <time>2020-07-09T08:29:58Z</time>
      </trkpt>
      <trkpt lat="49.565325" lon="6.589818">
        <ele>192.0</ele>
        <time>2020-07-09T08:30:00Z</time>
      </trkpt>
      <trkpt lat="49.56534" lon="6.589891">
        <ele>192.0</ele>
        <time>2020-07-09T08:30:02Z</time>
      </trkpt>
      <trkpt lat="49.565369" lon="6.589978">
        <ele>192.0</ele>
        <time>2020-07-09T08:30:04Z</time>
      </trkpt>
      <trkpt lat="49.565384" lon="6.590064">
        <ele>192.0</ele>
        <time>2020-07-09T08:30:06Z</time>
      </trkpt>
      <trkpt lat="49.565393" lon="6.590148">
        <ele>192.0</ele>
        <time>2020-07-09T08:30:08Z</time>
      </trkpt>
      <trkpt lat="49.5654" lon="6.590231">
        <ele>192.0</ele>
        <time>2020-07-09T08:30:10Z</time>
      </trkpt>
      <trkpt lat="49.565407" lon="6.590303">
        <ele>192.0</ele>
        <time>2020-07-09T08:30:12Z</time>
      </trkpt>
      <trkpt lat="49.565421" lon="6.590383">
        <ele>192.0</ele>
        <time>2020-07-09T08:30:14Z</time>
      </trkpt>
      <trkpt lat="49.565429" lon="6.590461">
        <ele>192.0</ele>
        <time>2020-07-09T08:30:16Z</time>
      </trkpt>
      <trkpt lat="49.565434" lon="6.590535">
        <ele>192.0</ele>
        <time>2020-07-09T08:30:18Z</time>
      </trkpt>
      <trkpt lat="49.565439" lon="6.59061">
        <ele>192.0</ele>
        <time>2020-07-09T08:30:20Z</time>
      </trkpt>
      <trkpt lat="49.565449" lon="6.590689">
        <ele>192.0</ele>
        <time>2020-07-09T08:30:22Z</time>
      </trkpt>
      <trkpt lat="49.56546" lon="6.590767">
        <ele>192.0</ele>
        <time>2020-07-09T08:30:24Z</time>
      </trkpt>
      <trkpt lat="49.565472" lon="6.590847">
        <ele>193.0</ele>
        <time>2020-07-09T08:30:26Z</time>
      </trkpt>
      <trkpt lat="49.565487" lon="6.590917">
        <ele>193.0</ele>
        <time>2020-07-09T08:30:28Z</time>
      </trkpt>
      <trkpt lat="49.565499" lon="6.590985">
        <ele>193.0</ele>
        <time>2020-07-09T08:30:30Z</time>
      </trkpt>
      <trkpt lat="49.565504" lon="6.591055">
        <ele>193.0</ele>
        <time>2020-07-09T08:30:32Z</time>
      </trkpt>
      <trkpt lat="49.565512" lon="6.591121">
        <ele>193.0</ele>
        <time>2020-07-09T08:30:34Z</time>
      </trkpt>
      <trkpt lat="49.565522" lon="6.591188">
        <ele>194.0</ele>
        <time>2020-07-09T08:30:36Z</time>
      </trkpt>
      <trkpt lat="49.565529" lon="6.591254">
        <ele>193.0</ele>
        <time>2020-07-09T08:30:38Z</time>
      </trkpt>
      <trkpt lat="49.565535" lon="6.591319">
        <ele>194.0</ele>
        <time>2020-07-09T08:30:40Z</time>
      </trkpt>
      <trkpt lat="49.565544" lon="6.591383">
        <ele>194.0</ele>
        <time>2020-07-09T08:30:42Z</time>
      </trkpt>
      <trkpt lat="49.565563" lon="6.591447">
        <ele>195.0</ele>
        <time>2020-07-09T08:30:44Z</time>
      </trkpt>
      <trkpt lat="49.565576" lon="6.591507">
        <ele>196.0</ele>
        <time>2020-07-09T08:30:46Z</time>
      </trkpt>
      <trkpt lat="49.565588" lon="6.59157">
        <ele>196.0</ele>
        <time>2020-07-09T08:30:48Z</time>
      </trkpt>
      <trkpt lat="49.565597" lon="6.591633">
        <ele>197.0</ele>
        <time>2020-07-09T08:30:50Z</time>
      </trkpt>
      <trkpt lat="49.5656" lon="6.591696">
        <ele>197.0</ele>
        <time>2020-07-09T08:30:52Z</time>
      </trkpt>
      <trkpt lat="49.565609" lon="6.591762">
        <ele>197.0</ele>
        <time>2020-07-09T08:30:54Z</time>
      </trkpt>
      <trkpt lat="49.565622" lon="6.591825">
        <ele>198.0</ele>
        <time>2020-07-09T08:30:56Z</time>
      </trkpt>
      <trkpt lat="49.565643" lon="6.591919">
        <ele>199.0</ele>
        <time>2020-07-09T08:30:59Z</time>
      </trkpt>
      <trkpt lat="49.565654" lon="6.591984">
        <ele>199.0</ele>
        <time>2020-07-09T08:31:01Z</time>
      </trkpt>
      <trkpt lat="49.565667" lon="6.592049">
        <ele>199.0</ele>
        <time>2020-07-09T08:31:03Z</time>
      </trkpt>
      <trkpt lat="49.565676" lon="6.592113">
        <ele>200.0</ele>
        <time>2020-07-09T08:31:05Z</time>
      </trkpt>
      <trkpt lat="49.565686" lon="6.592176">
        <ele>200.0</ele>
        <time>2020-07-09T08:31:07Z</time>
      </trkpt>
      <trkpt lat="49.565697" lon="6.592247">
        <ele>201.0</ele>
        <time>2020-07-09T08:31:09Z</time>
      </trkpt>
      <trkpt lat="49.56572" lon="6.592353">
        <ele>201.0</ele>
        <time>2020-07-09T08:31:12Z</time>
      </trkpt>
      <trkpt lat="49.565737" lon="6.592419">
        <ele>201.0</ele>
        <time>2020-07-09T08:31:14Z</time>
      </trkpt>
      <trkpt lat="49.565756" lon="6.592514">
        <ele>202.0</ele>
        <time>2020-07-09T08:31:17Z</time>
      </trkpt>
      <trkpt lat="49.565769" lon="6.592572">
        <ele>203.0</ele>
        <time>2020-07-09T08:31:19Z</time>
      </trkpt>
      <trkpt lat="49.565782" lon="6.592635">
        <ele>203.0</ele>
        <time>2020-07-09T08:31:21Z</time>
      </trkpt>
      <trkpt lat="49.565795" lon="6.592692">
        <ele>203.0</ele>
        <time>2020-07-09T08:31:23Z</time>
      </trkpt>
      <trkpt lat="49.565818" lon="6.592773">
        <ele>203.0</ele>
        <time>2020-07-09T08:31:26Z</time>
      </trkpt>
      <trkpt lat="49.565838" lon="6.592832">
        <ele>204.0</ele>
        <time>2020-07-09T08:31:28Z</time>
      </trkpt>
      <trkpt lat="49.565865" lon="6.592872">
        <ele>204.0</ele>
        <time>2020-07-09T08:31:30Z</time>
      </trkpt>
      <trkpt lat="49.565889" lon="6.592873">
        <ele>205.0</ele>
        <time>2020-07-09T08:31:32Z</time>
      </trkpt>
      <trkpt lat="49.565894" lon="6.592876">
        <ele>205.0</ele>
        <time>2020-07-09T08:31:33Z</time>
      </trkpt>
      <trkpt lat="49.56591" lon="6.592895">
        <ele>206.0</ele>
        <time>2020-07-09T08:31:36Z</time>
      </trkpt>
      <trkpt lat="49.565928" lon="6.592927">
        <ele>205.0</ele>
        <time>2020-07-09T08:31:38Z</time>
      </trkpt>
      <trkpt lat="49.565957" lon="6.592981">
        <ele>206.0</ele>
        <time>2020-07-09T08:31:40Z</time>
      </trkpt>
      <trkpt lat="49.565991" lon="6.593041">
        <ele>206.0</ele>
        <time>2020-07-09T08:31:42Z</time>
      </trkpt>
      <trkpt lat="49.566058" lon="6.593133">
        <ele>206.0</ele>
        <time>2020-07-09T08:31:45Z</time>
      </trkpt>
      <trkpt lat="49.566097" lon="6.593194">
        <ele>206.0</ele>
        <time>2020-07-09T08:31:47Z</time>
      </trkpt>
      <trkpt lat="49.566143" lon="6.593257">
        <ele>206.0</ele>
        <time>2020-07-09T08:31:49Z</time>
      </trkpt>
      <trkpt lat="49.566179" lon="6.593322">
        <ele>206.0</ele>
        <time>2020-07-09T08:31:51Z</time>
      </trkpt>
      <trkpt lat="49.566208" lon="6.593389">
        <ele>206.0</ele>
        <time>2020-07-09T08:31:53Z</time>
      </trkpt>
      <trkpt lat="49.56625" lon="6.593459">
        <ele>206.0</ele>
        <time>2020-07-09T08:31:56Z</time>
      </trkpt>
      <trkpt lat="49.566261" lon="6.593505">
        <ele>207.0</ele>
        <time>2020-07-09T08:31:58Z</time>
      </trkpt>
      <trkpt lat="49.566265" lon="6.593553">
        <ele>207.0</ele>
        <time>2020-07-09T08:32:01Z</time>
      </trkpt>
      <trkpt lat="49.566255" lon="6.593602">
        <ele>207.0</ele>
        <time>2020-07-09T08:32:03Z</time>
      </trkpt>
      <trkpt lat="49.566233" lon="6.593622">
        <ele>207.0</ele>
        <time>2020-07-09T08:32:05Z</time>
      </trkpt>
      <trkpt lat="49.566208" lon="6.593608">
        <ele>206.0</ele>
        <time>2020-07-09T08:32:07Z</time>
      </trkpt>
      <trkpt lat="49.56618" lon="6.593512">
        <ele>206.0</ele>
        <time>2020-07-09T08:32:10Z</time>
      </trkpt>
      <trkpt lat="49.566166" lon="6.593479">
        <ele>206.0</ele>
        <time>2020-07-09T08:32:11Z</time>
      </trkpt>
      <trkpt lat="49.566116" lon="6.593353">
        <ele>207.0</ele>
        <time>2020-07-09T08:32:14Z</time>
      </trkpt>
      <trkpt lat="49.566084" lon="6.59326">
        <ele>207.0</ele>
        <time>2020-07-09T08:32:16Z</time>
      </trkpt>
      <trkpt lat="49.566047" lon="6.593162">
        <ele>207.0</ele>
        <time>2020-07-09T08:32:18Z</time>
      </trkpt>
      <trkpt lat="49.566012" lon="6.593086">
        <ele>207.0</ele>
        <time>2020-07-09T08:32:20Z</time>
      </trkpt>
      <trkpt lat="49.565982" lon="6.593062">
        <ele>207.0</ele>
        <time>2020-07-09T08:32:23Z</time>
      </trkpt>
      <trkpt lat="49.565975" lon="6.593056">
        <ele>207.0</ele>
        <time>2020-07-09T08:32:25Z</time>
      </trkpt>
      <trkpt lat="49.565975" lon="6.593056">
        <ele>207.0</ele>
        <time>2020-07-09T08:32:26Z</time>
      </trkpt>
      <trkpt lat="49.565996" lon="6.593011">
        <ele>208.0</ele>
        <time>2020-07-09T08:32:29Z</time>
      </trkpt>
      <trkpt lat="49.566013" lon="6.592981">
        <ele>208.0</ele>
        <time>2020-07-09T08:32:31Z</time>
      </trkpt>
      <trkpt lat="49.56606" lon="6.59295">
        <ele>208.0</ele>
        <time>2020-07-09T08:32:33Z</time>
      </trkpt>
      <trkpt lat="49.566119" lon="6.592917">
        <ele>208.0</ele>
        <time>2020-07-09T08:32:35Z</time>
      </trkpt>
      <trkpt lat="49.56615" lon="6.592899">
        <ele>208.0</ele>
        <time>2020-07-09T08:32:36Z</time>
      </trkpt>
      <trkpt lat="49.566246" lon="6.592831">
        <ele>208.0</ele>
        <time>2020-07-09T08:32:39Z</time>
      </trkpt>
      <trkpt lat="49.56631" lon="6.592793">
        <ele>208.0</ele>
        <time>2020-07-09T08:32:41Z</time>
      </trkpt>
      <trkpt lat="49.566379" lon="6.592745">
        <ele>208.0</ele>
        <time>2020-07-09T08:32:43Z</time>
      </trkpt>
      <trkpt lat="49.566454" lon="6.592704">
        <ele>208.0</ele>
        <time>2020-07-09T08:32:45Z</time>
      </trkpt>
      <trkpt lat="49.566519" lon="6.592662">
        <ele>208.0</ele>
        <time>2020-07-09T08:32:47Z</time>
      </trkpt>
      <trkpt lat="49.566581" lon="6.592615">
        <ele>208.0</ele>
        <time>2020-07-09T08:32:49Z</time>
      </trkpt>
      <trkpt lat="49.566647" lon="6.592568">
        <ele>208.0</ele>
        <time>2020-07-09T08:32:51Z</time>
      </trkpt>
      <trkpt lat="49.566746" lon="6.592507">
        <ele>208.0</ele>
        <time>2020-07-09T08:32:54Z</time>
      </trkpt>
      <trkpt lat="49.56682" lon="6.592459">
        <ele>206.0</ele>
        <time>2020-07-09T08:32:56Z</time>
      </trkpt>
      <trkpt lat="49.566935" lon="6.5924">
        <ele>206.0</ele>
        <time>2020-07-09T08:32:59Z</time>
      </trkpt>
      <trkpt lat="49.567002" lon="6.592365">
        <ele>206.0</ele>
        <time>2020-07-09T08:33:01Z</time>
      </trkpt>
      <trkpt lat="49.567079" lon="6.592328">
        <ele>206.0</ele>
        <time>2020-07-09T08:33:03Z</time>
      </trkpt>
      <trkpt lat="49.567158" lon="6.592286">
        <ele>205.0</ele>
        <time>2020-07-09T08:33:05Z</time>
      </trkpt>
      <trkpt lat="49.567237" lon="6.592232">
        <ele>205.0</ele>
        <time>2020-07-09T08:33:07Z</time>
      </trkpt>
      <trkpt lat="49.567313" lon="6.592189">
        <ele>205.0</ele>
        <time>2020-07-09T08:33:09Z</time>
      </trkpt>
      <trkpt lat="49.567384" lon="6.592189">
        <ele>205.0</ele>
        <time>2020-07-09T08:33:11Z</time>
      </trkpt>
      <trkpt lat="49.567436" lon="6.592266">
        <ele>206.0</ele>
        <time>2020-07-09T08:33:13Z</time>
      </trkpt>
      <trkpt lat="49.56747" lon="6.592378">
        <ele>206.0</ele>
        <time>2020-07-09T08:33:15Z</time>
      </trkpt>
      <trkpt lat="49.567505" lon="6.592505">
        <ele>207.0</ele>
        <time>2020-07-09T08:33:17Z</time>
      </trkpt>
      <trkpt lat="49.567537" lon="6.592635">
        <ele>207.0</ele>
        <time>2020-07-09T08:33:19Z</time>
      </trkpt>
      <trkpt lat="49.56757" lon="6.592766">
        <ele>207.0</ele>
        <time>2020-07-09T08:33:21Z</time>
      </trkpt>
      <trkpt lat="49.56761" lon="6.592902">
        <ele>207.0</ele>
        <time>2020-07-09T08:33:23Z</time>
      </trkpt>
      <trkpt lat="49.567671" lon="6.59311">
        <ele>207.0</ele>
        <time>2020-07-09T08:33:26Z</time>
      </trkpt>
      <trkpt lat="49.567709" lon="6.593257">
        <ele>207.0</ele>
        <time>2020-07-09T08:33:28Z</time>
      </trkpt>
      <trkpt lat="49.567745" lon="6.593409">
        <ele>207.0</ele>
        <time>2020-07-09T08:33:30Z</time>
      </trkpt>
      <trkpt lat="49.567788" lon="6.593562">
        <ele>208.0</ele>
        <time>2020-07-09T08:33:32Z</time>
      </trkpt>
      <trkpt lat="49.567829" lon="6.593716">
        <ele>207.0</ele>
        <time>2020-07-09T08:33:34Z</time>
      </trkpt>
      <trkpt lat="49.567847" lon="6.593796">
        <ele>207.0</ele>
        <time>2020-07-09T08:33:35Z</time>
      </trkpt>
      <trkpt lat="49.567906" lon="6.594038">
        <ele>207.0</ele>
        <time>2020-07-09T08:33:38Z</time>
      </trkpt>
      <trkpt lat="49.567937" lon="6.594194">
        <ele>206.0</ele>
        <time>2020-07-09T08:33:40Z</time>
      </trkpt>
      <trkpt lat="49.567958" lon="6.594269">
        <ele>207.0</ele>
        <time>2020-07-09T08:33:41Z</time>
      </trkpt>
      <trkpt lat="49.568016" lon="6.594501">
        <ele>207.0</ele>
        <time>2020-07-09T08:33:44Z</time>
      </trkpt>
      <trkpt lat="49.568055" lon="6.594648">
        <ele>207.0</ele>
        <time>2020-07-09T08:33:46Z</time>
      </trkpt>
      <trkpt lat="49.5681" lon="6.594796">
        <ele>207.0</ele>
        <time>2020-07-09T08:33:48Z</time>
      </trkpt>
      <trkpt lat="49.568171" lon="6.595015">
        <ele>206.0</ele>
        <time>2020-07-09T08:33:51Z</time>
      </trkpt>
      <trkpt lat="49.568209" lon="6.595165">
        <ele>206.0</ele>
        <time>2020-07-09T08:33:53Z</time>
      </trkpt>
      <trkpt lat="49.568239" lon="6.59531">
        <ele>206.0</ele>
        <time>2020-07-09T08:33:55Z</time>
      </trkpt>
      <trkpt lat="49.56828" lon="6.59546">
        <ele>206.0</ele>
        <time>2020-07-09T08:33:57Z</time>
      </trkpt>
      <trkpt lat="49.568319" lon="6.595601">
        <ele>205.0</ele>
        <time>2020-07-09T08:33:59Z</time>
      </trkpt>
      <trkpt lat="49.568357" lon="6.595756">
        <ele>205.0</ele>
        <time>2020-07-09T08:34:01Z</time>
      </trkpt>
      <trkpt lat="49.568401" lon="6.595922">
        <ele>205.0</ele>
        <time>2020-07-09T08:34:03Z</time>
      </trkpt>
      <trkpt lat="49.568419" lon="6.596085">
        <ele>205.0</ele>
        <time>2020-07-09T08:34:05Z</time>
      </trkpt>
      <trkpt lat="49.568384" lon="6.596227">
        <ele>206.0</ele>
        <time>2020-07-09T08:34:07Z</time>
      </trkpt>
      <trkpt lat="49.568368" lon="6.596375">
        <ele>206.0</ele>
        <time>2020-07-09T08:34:09Z</time>
      </trkpt>
      <trkpt lat="49.568405" lon="6.596526">
        <ele>206.0</ele>
        <time>2020-07-09T08:34:11Z</time>
      </trkpt>
      <trkpt lat="49.568444" lon="6.596682">
        <ele>206.0</ele>
        <time>2020-07-09T08:34:13Z</time>
      </trkpt>
      <trkpt lat="49.568511" lon="6.596923">
        <ele>207.0</ele>
        <time>2020-07-09T08:34:16Z</time>
      </trkpt>
      <trkpt lat="49.568558" lon="6.597093">
        <ele>207.0</ele>
        <time>2020-07-09T08:34:18Z</time>
      </trkpt>
      <trkpt lat="49.568598" lon="6.597253">
        <ele>207.0</ele>
        <time>2020-07-09T08:34:20Z</time>
      </trkpt>
      <trkpt lat="49.568638" lon="6.597437">
        <ele>208.0</ele>
        <time>2020-07-09T08:34:22Z</time>
      </trkpt>
      <trkpt lat="49.568684" lon="6.597597">
        <ele>208.0</ele>
        <time>2020-07-09T08:34:24Z</time>
      </trkpt>
      <trkpt lat="49.568728" lon="6.597761">
        <ele>209.0</ele>
        <time>2020-07-09T08:34:26Z</time>
      </trkpt>
      <trkpt lat="49.568788" lon="6.597989">
        <ele>208.0</ele>
        <time>2020-07-09T08:34:29Z</time>
      </trkpt>
      <trkpt lat="49.568823" lon="6.598132">
        <ele>208.0</ele>
        <time>2020-07-09T08:34:31Z</time>
      </trkpt>
      <trkpt lat="49.56888" lon="6.598368">
        <ele>208.0</ele>
        <time>2020-07-09T08:34:34Z</time>
      </trkpt>
      <trkpt lat="49.56892" lon="6.598521">
        <ele>208.0</ele>
        <time>2020-07-09T08:34:36Z</time>
      </trkpt>
      <trkpt lat="49.568958" lon="6.59866">
        <ele>208.0</ele>
        <time>2020-07-09T08:34:38Z</time>
      </trkpt>
      <trkpt lat="49.569026" lon="6.598742">
        <ele>208.0</ele>
        <time>2020-07-09T08:34:40Z</time>
      </trkpt>
      <trkpt lat="49.569093" lon="6.598761">
        <ele>208.0</ele>
        <time>2020-07-09T08:34:42Z</time>
      </trkpt>
      <trkpt lat="49.569148" lon="6.598744">
        <ele>208.0</ele>
        <time>2020-07-09T08:34:44Z</time>
      </trkpt>
      <trkpt lat="49.569204" lon="6.598751">
        <ele>208.0</ele>
        <time>2020-07-09T08:34:46Z</time>
      </trkpt>
      <trkpt lat="49.569265" lon="6.59878">
        <ele>208.0</ele>
        <time>2020-07-09T08:34:48Z</time>
      </trkpt>
      <trkpt lat="49.569316" lon="6.598795">
        <ele>208.0</ele>
        <time>2020-07-09T08:34:50Z</time>
      </trkpt>
      <trkpt lat="49.569371" lon="6.598796">
        <ele>208.0</ele>
        <time>2020-07-09T08:34:52Z</time>
      </trkpt>
      <trkpt lat="49.569423" lon="6.598799">
        <ele>208.0</ele>
        <time>2020-07-09T08:34:54Z</time>
      </trkpt>
      <trkpt lat="49.56947" lon="6.598829">
        <ele>208.0</ele>
        <time>2020-07-09T08:34:56Z</time>
      </trkpt>
      <trkpt lat="49.569501" lon="6.598875">
        <ele>209.0</ele>
        <time>2020-07-09T08:34:58Z</time>
      </trkpt>
      <trkpt lat="49.5695" lon="6.598985">
        <ele>209.0</ele>
        <time>2020-07-09T08:35:01Z</time>
      </trkpt>
      <trkpt lat="49.569505" lon="6.599093">
        <ele>209.0</ele>
        <time>2020-07-09T08:35:03Z</time>
      </trkpt>
      <trkpt lat="49.569514" lon="6.599222">
        <ele>210.0</ele>
        <time>2020-07-09T08:35:05Z</time>
      </trkpt>
      <trkpt lat="49.569542" lon="6.599434">
        <ele>209.0</ele>
        <time>2020-07-09T08:35:08Z</time>
      </trkpt>
      <trkpt lat="49.569563" lon="6.5996">
        <ele>209.0</ele>
        <time>2020-07-09T08:35:10Z</time>
      </trkpt>
      <trkpt lat="49.569575" lon="6.599772">
        <ele>208.0</ele>
        <time>2020-07-09T08:35:12Z</time>
      </trkpt>
      <trkpt lat="49.569603" lon="6.60002">
        <ele>208.0</ele>
        <time>2020-07-09T08:35:15Z</time>
      </trkpt>
      <trkpt lat="49.569611" lon="6.600194">
        <ele>208.0</ele>
        <time>2020-07-09T08:35:17Z</time>
      </trkpt>
      <trkpt lat="49.569621" lon="6.600359">
        <ele>208.0</ele>
        <time>2020-07-09T08:35:19Z</time>
      </trkpt>
      <trkpt lat="49.569643" lon="6.600609">
        <ele>208.0</ele>
        <time>2020-07-09T08:35:22Z</time>
      </trkpt>
      <trkpt lat="49.569663" lon="6.600773">
        <ele>207.0</ele>
        <time>2020-07-09T08:35:24Z</time>
      </trkpt>
      <trkpt lat="49.569679" lon="6.600929">
        <ele>207.0</ele>
        <time>2020-07-09T08:35:26Z</time>
      </trkpt>
      <trkpt lat="49.569699" lon="6.601102">
        <ele>207.0</ele>
        <time>2020-07-09T08:35:28Z</time>
      </trkpt>
      <trkpt lat="49.56972" lon="6.601275">
        <ele>207.0</ele>
        <time>2020-07-09T08:35:30Z</time>
      </trkpt>
      <trkpt lat="49.56974" lon="6.601446">
        <ele>207.0</ele>
        <time>2020-07-09T08:35:32Z</time>
      </trkpt>
      <trkpt lat="49.569758" lon="6.601615">
        <ele>207.0</ele>
        <time>2020-07-09T08:35:34Z</time>
      </trkpt>
      <trkpt lat="49.569777" lon="6.60179">
        <ele>207.0</ele>
        <time>2020-07-09T08:35:36Z</time>
      </trkpt>
      <trkpt lat="49.569792" lon="6.601962">
        <ele>207.0</ele>
        <time>2020-07-09T08:35:38Z</time>
      </trkpt>
      <trkpt lat="49.56981" lon="6.602136">
        <ele>208.0</ele>
        <time>2020-07-09T08:35:40Z</time>
      </trkpt>
      <trkpt lat="49.569833" lon="6.602318">
        <ele>208.0</ele>
        <time>2020-07-09T08:35:42Z</time>
      </trkpt>
      <trkpt lat="49.569852" lon="6.602499">
        <ele>208.0</ele>
        <time>2020-07-09T08:35:44Z</time>
      </trkpt>
      <trkpt lat="49.569865" lon="6.60277">
        <ele>207.0</ele>
        <time>2020-07-09T08:35:47Z</time>
      </trkpt>
      <trkpt lat="49.569873" lon="6.602958">
        <ele>207.0</ele>
        <time>2020-07-09T08:35:49Z</time>
      </trkpt>
      <trkpt lat="49.569884" lon="6.603055">
        <ele>207.0</ele>
        <time>2020-07-09T08:35:50Z</time>
      </trkpt>
      <trkpt lat="49.569921" lon="6.603406">
        <ele>207.0</ele>
        <time>2020-07-09T08:35:54Z</time>
      </trkpt>
      <trkpt lat="49.569941" lon="6.603586">
        <ele>207.0</ele>
        <time>2020-07-09T08:35:56Z</time>
      </trkpt>
      <trkpt lat="49.569971" lon="6.603846">
        <ele>206.0</ele>
        <time>2020-07-09T08:35:59Z</time>
      </trkpt>
      <trkpt lat="49.569985" lon="6.604016">
        <ele>206.0</ele>
        <time>2020-07-09T08:36:01Z</time>
      </trkpt>
      <trkpt lat="49.570005" lon="6.604206">
        <ele>206.0</ele>
        <time>2020-07-09T08:36:03Z</time>
      </trkpt>
      <trkpt lat="49.57002" lon="6.604396">
        <ele>207.0</ele>
        <time>2020-07-09T08:36:05Z</time>
      </trkpt>
      <trkpt lat="49.57003" lon="6.604674">
        <ele>208.0</ele>
        <time>2020-07-09T08:36:08Z</time>
      </trkpt>
      <trkpt lat="49.570036" lon="6.604765">
        <ele>208.0</ele>
        <time>2020-07-09T08:36:09Z</time>
      </trkpt>
      <trkpt lat="49.570051" lon="6.605022">
        <ele>208.0</ele>
        <time>2020-07-09T08:36:12Z</time>
      </trkpt>
      <trkpt lat="49.570055" lon="6.605202">
        <ele>209.0</ele>
        <time>2020-07-09T08:36:14Z</time>
      </trkpt>
      <trkpt lat="49.570061" lon="6.605377">
        <ele>209.0</ele>
        <time>2020-07-09T08:36:16Z</time>
      </trkpt>
      <trkpt lat="49.570073" lon="6.605653">
        <ele>209.0</ele>
        <time>2020-07-09T08:36:19Z</time>
      </trkpt>
      <trkpt lat="49.570076" lon="6.605837">
        <ele>209.0</ele>
        <time>2020-07-09T08:36:21Z</time>
      </trkpt>
      <trkpt lat="49.570072" lon="6.606024">
        <ele>209.0</ele>
        <time>2020-07-09T08:36:23Z</time>
      </trkpt>
      <trkpt lat="49.570062" lon="6.606214">
        <ele>209.0</ele>
        <time>2020-07-09T08:36:25Z</time>
      </trkpt>
      <trkpt lat="49.570055" lon="6.606405">
        <ele>209.0</ele>
        <time>2020-07-09T08:36:27Z</time>
      </trkpt>
      <trkpt lat="49.57004" lon="6.606591">
        <ele>209.0</ele>
        <time>2020-07-09T08:36:29Z</time>
      </trkpt>
      <trkpt lat="49.570024" lon="6.606773">
        <ele>210.0</ele>
        <time>2020-07-09T08:36:31Z</time>
      </trkpt>
      <trkpt lat="49.570007" lon="6.606958">
        <ele>210.0</ele>
        <time>2020-07-09T08:36:33Z</time>
      </trkpt>
      <trkpt lat="49.569965" lon="6.60723">
        <ele>210.0</ele>
        <time>2020-07-09T08:36:36Z</time>
      </trkpt>
      <trkpt lat="49.569948" lon="6.607414">
        <ele>210.0</ele>
        <time>2020-07-09T08:36:38Z</time>
      </trkpt>
      <trkpt lat="49.569927" lon="6.607597">
        <ele>210.0</ele>
        <time>2020-07-09T08:36:40Z</time>
      </trkpt>
      <trkpt lat="49.569901" lon="6.607787">
        <ele>210.0</ele>
        <time>2020-07-09T08:36:42Z</time>
      </trkpt>
      <trkpt lat="49.569849" lon="6.608048">
        <ele>210.0</ele>
        <time>2020-07-09T08:36:45Z</time>
      </trkpt>
      <trkpt lat="49.569813" lon="6.608224">
        <ele>210.0</ele>
        <time>2020-07-09T08:36:47Z</time>
      </trkpt>
      <trkpt lat="49.569792" lon="6.608311">
        <ele>210.0</ele>
        <time>2020-07-09T08:36:48Z</time>
      </trkpt>
      <trkpt lat="49.569722" lon="6.608578">
        <ele>210.0</ele>
        <time>2020-07-09T08:36:51Z</time>
      </trkpt>
      <trkpt lat="49.569657" lon="6.608844">
        <ele>210.0</ele>
        <time>2020-07-09T08:36:54Z</time>
      </trkpt>
      <trkpt lat="49.569607" lon="6.609025">
        <ele>210.0</ele>
        <time>2020-07-09T08:36:56Z</time>
      </trkpt>
      <trkpt lat="49.569548" lon="6.609193">
        <ele>210.0</ele>
        <time>2020-07-09T08:36:58Z</time>
      </trkpt>
      <trkpt lat="49.569486" lon="6.609366">
        <ele>210.0</ele>
        <time>2020-07-09T08:37:00Z</time>
      </trkpt>
      <trkpt lat="49.569426" lon="6.609527">
        <ele>209.0</ele>
        <time>2020-07-09T08:37:02Z</time>
      </trkpt>
      <trkpt lat="49.569361" lon="6.60969">
        <ele>209.0</ele>
        <time>2020-07-09T08:37:04Z</time>
      </trkpt>
      <trkpt lat="49.569291" lon="6.609836">
        <ele>209.0</ele>
        <time>2020-07-09T08:37:06Z</time>
      </trkpt>
      <trkpt lat="49.569189" lon="6.61007">
        <ele>208.0</ele>
        <time>2020-07-09T08:37:09Z</time>
      </trkpt>
      <trkpt lat="49.569113" lon="6.610224">
        <ele>207.0</ele>
        <time>2020-07-09T08:37:11Z</time>
      </trkpt>
      <trkpt lat="49.569042" lon="6.610367">
        <ele>207.0</ele>
        <time>2020-07-09T08:37:13Z</time>
      </trkpt>
      <trkpt lat="49.568965" lon="6.610515">
        <ele>207.0</ele>
        <time>2020-07-09T08:37:15Z</time>
      </trkpt>
      <trkpt lat="49.568844" lon="6.610732">
        <ele>207.0</ele>
        <time>2020-07-09T08:37:18Z</time>
      </trkpt>
      <trkpt lat="49.568768" lon="6.610864">
        <ele>207.0</ele>
        <time>2020-07-09T08:37:20Z</time>
      </trkpt>
      <trkpt lat="49.568694" lon="6.611004">
        <ele>207.0</ele>
        <time>2020-07-09T08:37:22Z</time>
      </trkpt>
      <trkpt lat="49.568621" lon="6.611135">
        <ele>208.0</ele>
        <time>2020-07-09T08:37:24Z</time>
      </trkpt>
      <trkpt lat="49.568548" lon="6.611264">
        <ele>208.0</ele>
        <time>2020-07-09T08:37:26Z</time>
      </trkpt>
      <trkpt lat="49.568429" lon="6.611463">
        <ele>207.0</ele>
        <time>2020-07-09T08:37:29Z</time>
      </trkpt>
      <trkpt lat="49.568349" lon="6.611592">
        <ele>207.0</ele>
        <time>2020-07-09T08:37:31Z</time>
      </trkpt>
      <trkpt lat="49.568269" lon="6.611724">
        <ele>207.0</ele>
        <time>2020-07-09T08:37:33Z</time>
      </trkpt>
      <trkpt lat="49.568192" lon="6.611849">
        <ele>207.0</ele>
        <time>2020-07-09T08:37:35Z</time>
      </trkpt>
      <trkpt lat="49.568063" lon="6.612037">
        <ele>207.0</ele>
        <time>2020-07-09T08:37:38Z</time>
      </trkpt>
      <trkpt lat="49.567978" lon="6.612156">
        <ele>207.0</ele>
        <time>2020-07-09T08:37:40Z</time>
      </trkpt>
      <trkpt lat="49.567836" lon="6.612308">
        <ele>207.0</ele>
        <time>2020-07-09T08:37:43Z</time>
      </trkpt>
      <trkpt lat="49.567742" lon="6.612403">
        <ele>207.0</ele>
        <time>2020-07-09T08:37:45Z</time>
      </trkpt>
      <trkpt lat="49.567649" lon="6.612501">
        <ele>207.0</ele>
        <time>2020-07-09T08:37:47Z</time>
      </trkpt>
      <trkpt lat="49.567552" lon="6.612593">
        <ele>207.0</ele>
        <time>2020-07-09T08:37:49Z</time>
      </trkpt>
      <trkpt lat="49.567451" lon="6.612681">
        <ele>207.0</ele>
        <time>2020-07-09T08:37:51Z</time>
      </trkpt>
      <trkpt lat="49.567405" lon="6.612719">
        <ele>207.0</ele>
        <time>2020-07-09T08:37:52Z</time>
      </trkpt>
      <trkpt lat="49.567253" lon="6.612826">
        <ele>208.0</ele>
        <time>2020-07-09T08:37:55Z</time>
      </trkpt>
      <trkpt lat="49.567152" lon="6.612895">
        <ele>208.0</ele>
        <time>2020-07-09T08:37:57Z</time>
      </trkpt>
      <trkpt lat="49.567051" lon="6.612952">
        <ele>208.0</ele>
        <time>2020-07-09T08:37:59Z</time>
      </trkpt>
      <trkpt lat="49.56689" lon="6.613027">
        <ele>207.0</ele>
        <time>2020-07-09T08:38:02Z</time>
      </trkpt>
      <trkpt lat="49.566787" lon="6.613072">
        <ele>207.0</ele>
        <time>2020-07-09T08:38:04Z</time>
      </trkpt>
      <trkpt lat="49.566682" lon="6.613113">
        <ele>207.0</ele>
        <time>2020-07-09T08:38:06Z</time>
      </trkpt>
      <trkpt lat="49.566628" lon="6.613135">
        <ele>208.0</ele>
        <time>2020-07-09T08:38:07Z</time>
      </trkpt>
      <trkpt lat="49.566469" lon="6.613191">
        <ele>208.0</ele>
        <time>2020-07-09T08:38:10Z</time>
      </trkpt>
      <trkpt lat="49.56636" lon="6.613218">
        <ele>209.0</ele>
        <time>2020-07-09T08:38:12Z</time>
      </trkpt>
      <trkpt lat="49.566249" lon="6.613235">
        <ele>209.0</ele>
        <time>2020-07-09T08:38:14Z</time>
      </trkpt>
      <trkpt lat="49.566139" lon="6.613246">
        <ele>210.0</ele>
        <time>2020-07-09T08:38:16Z</time>
      </trkpt>
      <trkpt lat="49.566028" lon="6.613255">
        <ele>210.0</ele>
        <time>2020-07-09T08:38:18Z</time>
      </trkpt>
      <trkpt lat="49.565916" lon="6.613255">
        <ele>210.0</ele>
        <time>2020-07-09T08:38:20Z</time>
      </trkpt>
      <trkpt lat="49.565802" lon="6.613251">
        <ele>210.0</ele>
        <time>2020-07-09T08:38:22Z</time>
      </trkpt>
      <trkpt lat="49.565695" lon="6.613243">
        <ele>209.0</ele>
        <time>2020-07-09T08:38:24Z</time>
      </trkpt>
      <trkpt lat="49.565589" lon="6.613223">
        <ele>209.0</ele>
        <time>2020-07-09T08:38:26Z</time>
      </trkpt>
      <trkpt lat="49.565486" lon="6.613195">
        <ele>209.0</ele>
        <time>2020-07-09T08:38:28Z</time>
      </trkpt>
      <trkpt lat="49.565379" lon="6.613169">
        <ele>209.0</ele>
        <time>2020-07-09T08:38:30Z</time>
      </trkpt>
      <trkpt lat="49.565273" lon="6.613136">
        <ele>209.0</ele>
        <time>2020-07-09T08:38:32Z</time>
      </trkpt>
      <trkpt lat="49.565156" lon="6.613103">
        <ele>209.0</ele>
        <time>2020-07-09T08:38:34Z</time>
      </trkpt>
      <trkpt lat="49.565046" lon="6.613061">
        <ele>209.0</ele>
        <time>2020-07-09T08:38:36Z</time>
      </trkpt>
      <trkpt lat="49.564942" lon="6.613004">
        <ele>209.0</ele>
        <time>2020-07-09T08:38:38Z</time>
      </trkpt>
      <trkpt lat="49.564845" lon="6.612936">
        <ele>209.0</ele>
        <time>2020-07-09T08:38:40Z</time>
      </trkpt>
      <trkpt lat="49.564744" lon="6.612879">
        <ele>208.0</ele>
        <time>2020-07-09T08:38:42Z</time>
      </trkpt>
      <trkpt lat="49.564646" lon="6.612814">
        <ele>208.0</ele>
        <time>2020-07-09T08:38:44Z</time>
      </trkpt>
      <trkpt lat="49.564551" lon="6.612733">
        <ele>208.0</ele>
        <time>2020-07-09T08:38:46Z</time>
      </trkpt>
      <trkpt lat="49.564452" lon="6.612656">
        <ele>208.0</ele>
        <time>2020-07-09T08:38:48Z</time>
      </trkpt>
      <trkpt lat="49.564357" lon="6.612572">
        <ele>208.0</ele>
        <time>2020-07-09T08:38:50Z</time>
      </trkpt>
      <trkpt lat="49.564223" lon="6.612456">
        <ele>208.0</ele>
        <time>2020-07-09T08:38:53Z</time>
      </trkpt>
      <trkpt lat="49.56413" lon="6.612366">
        <ele>207.0</ele>
        <time>2020-07-09T08:38:55Z</time>
      </trkpt>
      <trkpt lat="49.564042" lon="6.612268">
        <ele>207.0</ele>
        <time>2020-07-09T08:38:57Z</time>
      </trkpt>
      <trkpt lat="49.564002" lon="6.612218">
        <ele>207.0</ele>
        <time>2020-07-09T08:38:58Z</time>
      </trkpt>
      <trkpt lat="49.563879" lon="6.612067">
        <ele>207.0</ele>
        <time>2020-07-09T08:39:01Z</time>
      </trkpt>
      <trkpt lat="49.563757" lon="6.611913">
        <ele>207.0</ele>
        <time>2020-07-09T08:39:04Z</time>
      </trkpt>
      <trkpt lat="49.56372" lon="6.611857">
        <ele>207.0</ele>
        <time>2020-07-09T08:39:05Z</time>
      </trkpt>
      <trkpt lat="49.563611" lon="6.611673">
        <ele>207.0</ele>
        <time>2020-07-09T08:39:08Z</time>
      </trkpt>
      <trkpt lat="49.56354" lon="6.611554">
        <ele>207.0</ele>
        <time>2020-07-09T08:39:10Z</time>
      </trkpt>
      <trkpt lat="49.563436" lon="6.611375">
        <ele>207.0</ele>
        <time>2020-07-09T08:39:13Z</time>
      </trkpt>
      <trkpt lat="49.563373" lon="6.611251">
        <ele>208.0</ele>
        <time>2020-07-09T08:39:15Z</time>
      </trkpt>
      <trkpt lat="49.563311" lon="6.61112">
        <ele>208.0</ele>
        <time>2020-07-09T08:39:17Z</time>
      </trkpt>
      <trkpt lat="49.563247" lon="6.610993">
        <ele>208.0</ele>
        <time>2020-07-09T08:39:19Z</time>
      </trkpt>
      <trkpt lat="49.563216" lon="6.610926">
        <ele>208.0</ele>
        <time>2020-07-09T08:39:20Z</time>
      </trkpt>
      <trkpt lat="49.563119" lon="6.610738">
        <ele>208.0</ele>
        <time>2020-07-09T08:39:23Z</time>
      </trkpt>
      <trkpt lat="49.56305" lon="6.610613">
        <ele>208.0</ele>
        <time>2020-07-09T08:39:25Z</time>
      </trkpt>
      <trkpt lat="49.562988" lon="6.610494">
        <ele>208.0</ele>
        <time>2020-07-09T08:39:27Z</time>
      </trkpt>
      <trkpt lat="49.562891" lon="6.61031">
        <ele>209.0</ele>
        <time>2020-07-09T08:39:30Z</time>
      </trkpt>
      <trkpt lat="49.562829" lon="6.61019">
        <ele>210.0</ele>
        <time>2020-07-09T08:39:32Z</time>
      </trkpt>
      <trkpt lat="49.562772" lon="6.61007">
        <ele>210.0</ele>
        <time>2020-07-09T08:39:34Z</time>
      </trkpt>
      <trkpt lat="49.562706" lon="6.609946">
        <ele>210.0</ele>
        <time>2020-07-09T08:39:36Z</time>
      </trkpt>
      <trkpt lat="49.562675" lon="6.609887">
        <ele>210.0</ele>
        <time>2020-07-09T08:39:37Z</time>
      </trkpt>
      <trkpt lat="49.562589" lon="6.60971">
        <ele>211.0</ele>
        <time>2020-07-09T08:39:40Z</time>
      </trkpt>
      <trkpt lat="49.56253" lon="6.609595">
        <ele>210.0</ele>
        <time>2020-07-09T08:39:42Z</time>
      </trkpt>
      <trkpt lat="49.5625" lon="6.609536">
        <ele>210.0</ele>
        <time>2020-07-09T08:39:43Z</time>
      </trkpt>
      <trkpt lat="49.562412" lon="6.609365">
        <ele>210.0</ele>
        <time>2020-07-09T08:39:46Z</time>
      </trkpt>
      <trkpt lat="49.562314" lon="6.609189">
        <ele>211.0</ele>
        <time>2020-07-09T08:39:49Z</time>
      </trkpt>
      <trkpt lat="49.562256" lon="6.609068">
        <ele>211.0</ele>
        <time>2020-07-09T08:39:51Z</time>
      </trkpt>
      <trkpt lat="49.562168" lon="6.608894">
        <ele>210.0</ele>
        <time>2020-07-09T08:39:54Z</time>
      </trkpt>
      <trkpt lat="49.562136" lon="6.608834">
        <ele>210.0</ele>
        <time>2020-07-09T08:39:55Z</time>
      </trkpt>
      <trkpt lat="49.562047" lon="6.608659">
        <ele>210.0</ele>
        <time>2020-07-09T08:39:58Z</time>
      </trkpt>
      <trkpt lat="49.561988" lon="6.608537">
        <ele>210.0</ele>
        <time>2020-07-09T08:40:00Z</time>
      </trkpt>
      <trkpt lat="49.561904" lon="6.608359">
        <ele>209.0</ele>
        <time>2020-07-09T08:40:03Z</time>
      </trkpt>
      <trkpt lat="49.561845" lon="6.608242">
        <ele>209.0</ele>
        <time>2020-07-09T08:40:05Z</time>
      </trkpt>
      <trkpt lat="49.561752" lon="6.608066">
        <ele>209.0</ele>
        <time>2020-07-09T08:40:08Z</time>
      </trkpt>
      <trkpt lat="49.561693" lon="6.607952">
        <ele>209.0</ele>
        <time>2020-07-09T08:40:10Z</time>
      </trkpt>
      <trkpt lat="49.561638" lon="6.607838">
        <ele>209.0</ele>
        <time>2020-07-09T08:40:12Z</time>
      </trkpt>
      <trkpt lat="49.561584" lon="6.607725">
        <ele>209.0</ele>
        <time>2020-07-09T08:40:14Z</time>
      </trkpt>
      <trkpt lat="49.561527" lon="6.607604">
        <ele>209.0</ele>
        <time>2020-07-09T08:40:16Z</time>
      </trkpt>
      <trkpt lat="49.561462" lon="6.607474">
        <ele>209.0</ele>
        <time>2020-07-09T08:40:18Z</time>
      </trkpt>
      <trkpt lat="49.561404" lon="6.607335">
        <ele>208.0</ele>
        <time>2020-07-09T08:40:20Z</time>
      </trkpt>
      <trkpt lat="49.561373" lon="6.607274">
        <ele>208.0</ele>
        <time>2020-07-09T08:40:21Z</time>
      </trkpt>
      <trkpt lat="49.561266" lon="6.607019">
        <ele>208.0</ele>
        <time>2020-07-09T08:40:25Z</time>
      </trkpt>
      <trkpt lat="49.561209" lon="6.606884">
        <ele>207.0</ele>
        <time>2020-07-09T08:40:27Z</time>
      </trkpt>
      <trkpt lat="49.561159" lon="6.606757">
        <ele>207.0</ele>
        <time>2020-07-09T08:40:29Z</time>
      </trkpt>
      <trkpt lat="49.561129" lon="6.60669">
        <ele>207.0</ele>
        <time>2020-07-09T08:40:30Z</time>
      </trkpt>
      <trkpt lat="49.561049" lon="6.606475">
        <ele>207.0</ele>
        <time>2020-07-09T08:40:33Z</time>
      </trkpt>
      <trkpt lat="49.561001" lon="6.606344">
        <ele>207.0</ele>
        <time>2020-07-09T08:40:35Z</time>
      </trkpt>
      <trkpt lat="49.560955" lon="6.606213">
        <ele>207.0</ele>
        <time>2020-07-09T08:40:37Z</time>
      </trkpt>
      <trkpt lat="49.560902" lon="6.606077">
        <ele>207.0</ele>
        <time>2020-07-09T08:40:39Z</time>
      </trkpt>
      <trkpt lat="49.560859" lon="6.605936">
        <ele>207.0</ele>
        <time>2020-07-09T08:40:41Z</time>
      </trkpt>
      <trkpt lat="49.56081" lon="6.605801">
        <ele>207.0</ele>
        <time>2020-07-09T08:40:43Z</time>
      </trkpt>
      <trkpt lat="49.560758" lon="6.60566">
        <ele>207.0</ele>
        <time>2020-07-09T08:40:45Z</time>
      </trkpt>
      <trkpt lat="49.560706" lon="6.605518">
        <ele>207.0</ele>
        <time>2020-07-09T08:40:47Z</time>
      </trkpt>
      <trkpt lat="49.56066" lon="6.605372">
        <ele>207.0</ele>
        <time>2020-07-09T08:40:49Z</time>
      </trkpt>
      <trkpt lat="49.560617" lon="6.605226">
        <ele>208.0</ele>
        <time>2020-07-09T08:40:51Z</time>
      </trkpt>
      <trkpt lat="49.560573" lon="6.605089">
        <ele>208.0</ele>
        <time>2020-07-09T08:40:53Z</time>
      </trkpt>
      <trkpt lat="49.560532" lon="6.604954">
        <ele>208.0</ele>
        <time>2020-07-09T08:40:55Z</time>
      </trkpt>
      <trkpt lat="49.560463" lon="6.604734">
        <ele>208.0</ele>
        <time>2020-07-09T08:40:58Z</time>
      </trkpt>
      <trkpt lat="49.560423" lon="6.604592">
        <ele>208.0</ele>
        <time>2020-07-09T08:41:00Z</time>
      </trkpt>
      <trkpt lat="49.560377" lon="6.604449">
        <ele>208.0</ele>
        <time>2020-07-09T08:41:02Z</time>
      </trkpt>
      <trkpt lat="49.560337" lon="6.604307">
        <ele>208.0</ele>
        <time>2020-07-09T08:41:04Z</time>
      </trkpt>
      <trkpt lat="49.560298" lon="6.604163">
        <ele>208.0</ele>
        <time>2020-07-09T08:41:06Z</time>
      </trkpt>
      <trkpt lat="49.560235" lon="6.603956">
        <ele>207.0</ele>
        <time>2020-07-09T08:41:09Z</time>
      </trkpt>
      <trkpt lat="49.560192" lon="6.603805">
        <ele>207.0</ele>
        <time>2020-07-09T08:41:11Z</time>
      </trkpt>
      <trkpt lat="49.560133" lon="6.603583">
        <ele>206.0</ele>
        <time>2020-07-09T08:41:14Z</time>
      </trkpt>
      <trkpt lat="49.560087" lon="6.603435">
        <ele>206.0</ele>
        <time>2020-07-09T08:41:16Z</time>
      </trkpt>
      <trkpt lat="49.560047" lon="6.603275">
        <ele>206.0</ele>
        <time>2020-07-09T08:41:18Z</time>
      </trkpt>
      <trkpt lat="49.559982" lon="6.603057">
        <ele>206.0</ele>
        <time>2020-07-09T08:41:21Z</time>
      </trkpt>
      <trkpt lat="49.559942" lon="6.602909">
        <ele>206.0</ele>
        <time>2020-07-09T08:41:23Z</time>
      </trkpt>
      <trkpt lat="49.559906" lon="6.602748">
        <ele>207.0</ele>
        <time>2020-07-09T08:41:25Z</time>
      </trkpt>
      <trkpt lat="49.559862" lon="6.602604">
        <ele>207.0</ele>
        <time>2020-07-09T08:41:27Z</time>
      </trkpt>
      <trkpt lat="49.559821" lon="6.602464">
        <ele>206.0</ele>
        <time>2020-07-09T08:41:29Z</time>
      </trkpt>
      <trkpt lat="49.559784" lon="6.602317">
        <ele>206.0</ele>
        <time>2020-07-09T08:41:31Z</time>
      </trkpt>
      <trkpt lat="49.559727" lon="6.602097">
        <ele>206.0</ele>
        <time>2020-07-09T08:41:34Z</time>
      </trkpt>
      <trkpt lat="49.55969" lon="6.601957">
        <ele>206.0</ele>
        <time>2020-07-09T08:41:36Z</time>
      </trkpt>
      <trkpt lat="49.559653" lon="6.601822">
        <ele>206.0</ele>
        <time>2020-07-09T08:41:38Z</time>
      </trkpt>
      <trkpt lat="49.559616" lon="6.601685">
        <ele>206.0</ele>
        <time>2020-07-09T08:41:40Z</time>
      </trkpt>
      <trkpt lat="49.559579" lon="6.601547">
        <ele>206.0</ele>
        <time>2020-07-09T08:41:42Z</time>
      </trkpt>
      <trkpt lat="49.559541" lon="6.60141">
        <ele>207.0</ele>
        <time>2020-07-09T08:41:44Z</time>
      </trkpt>
      <trkpt lat="49.559503" lon="6.601271">
        <ele>207.0</ele>
        <time>2020-07-09T08:41:46Z</time>
      </trkpt>
      <trkpt lat="49.559484" lon="6.601206">
        <ele>206.0</ele>
        <time>2020-07-09T08:41:47Z</time>
      </trkpt>
      <trkpt lat="49.559403" lon="6.600936">
        <ele>207.0</ele>
        <time>2020-07-09T08:41:51Z</time>
      </trkpt>
      <trkpt lat="49.559365" lon="6.600795">
        <ele>207.0</ele>
        <time>2020-07-09T08:41:53Z</time>
      </trkpt>
      <trkpt lat="49.559309" lon="6.600581">
        <ele>207.0</ele>
        <time>2020-07-09T08:41:56Z</time>
      </trkpt>
      <trkpt lat="49.559268" lon="6.600442">
        <ele>207.0</ele>
        <time>2020-07-09T08:41:58Z</time>
      </trkpt>
      <trkpt lat="49.559198" lon="6.600216">
        <ele>206.0</ele>
        <time>2020-07-09T08:42:01Z</time>
      </trkpt>
      <trkpt lat="49.559155" lon="6.600085">
        <ele>206.0</ele>
        <time>2020-07-09T08:42:03Z</time>
      </trkpt>
      <trkpt lat="49.559092" lon="6.599878">
        <ele>206.0</ele>
        <time>2020-07-09T08:42:06Z</time>
      </trkpt>
      <trkpt lat="49.559045" lon="6.599747">
        <ele>206.0</ele>
        <time>2020-07-09T08:42:08Z</time>
      </trkpt>
      <trkpt lat="49.558962" lon="6.599544">
        <ele>206.0</ele>
        <time>2020-07-09T08:42:11Z</time>
      </trkpt>
      <trkpt lat="49.558907" lon="6.599419">
        <ele>206.0</ele>
        <time>2020-07-09T08:42:13Z</time>
      </trkpt>
      <trkpt lat="49.558843" lon="6.599291">
        <ele>206.0</ele>
        <time>2020-07-09T08:42:15Z</time>
      </trkpt>
      <trkpt lat="49.558783" lon="6.599154">
        <ele>206.0</ele>
        <time>2020-07-09T08:42:17Z</time>
      </trkpt>
      <trkpt lat="49.558719" lon="6.599033">
        <ele>206.0</ele>
        <time>2020-07-09T08:42:19Z</time>
      </trkpt>
      <trkpt lat="49.558659" lon="6.598924">
        <ele>206.0</ele>
        <time>2020-07-09T08:42:21Z</time>
      </trkpt>
      <trkpt lat="49.558584" lon="6.598817">
        <ele>207.0</ele>
        <time>2020-07-09T08:42:23Z</time>
      </trkpt>
      <trkpt lat="49.558515" lon="6.598714">
        <ele>207.0</ele>
        <time>2020-07-09T08:42:25Z</time>
      </trkpt>
      <trkpt lat="49.55845" lon="6.598605">
        <ele>207.0</ele>
        <time>2020-07-09T08:42:27Z</time>
      </trkpt>
      <trkpt lat="49.558342" lon="6.598467">
        <ele>207.0</ele>
        <time>2020-07-09T08:42:30Z</time>
      </trkpt>
      <trkpt lat="49.558267" lon="6.598378">
        <ele>207.0</ele>
        <time>2020-07-09T08:42:32Z</time>
      </trkpt>
      <trkpt lat="49.55819" lon="6.598288">
        <ele>207.0</ele>
        <time>2020-07-09T08:42:34Z</time>
      </trkpt>
      <trkpt lat="49.558114" lon="6.598202">
        <ele>208.0</ele>
        <time>2020-07-09T08:42:36Z</time>
      </trkpt>
      <trkpt lat="49.558035" lon="6.59812">
        <ele>207.0</ele>
        <time>2020-07-09T08:42:38Z</time>
      </trkpt>
      <trkpt lat="49.557955" lon="6.598044">
        <ele>207.0</ele>
        <time>2020-07-09T08:42:40Z</time>
      </trkpt>
      <trkpt lat="49.557914" lon="6.598005">
        <ele>208.0</ele>
        <time>2020-07-09T08:42:41Z</time>
      </trkpt>
      <trkpt lat="49.557781" lon="6.597891">
        <ele>208.0</ele>
        <time>2020-07-09T08:42:44Z</time>
      </trkpt>
      <trkpt lat="49.557694" lon="6.597827">
        <ele>208.0</ele>
        <time>2020-07-09T08:42:46Z</time>
      </trkpt>
      <trkpt lat="49.557556" lon="6.597729">
        <ele>209.0</ele>
        <time>2020-07-09T08:42:49Z</time>
      </trkpt>
      <trkpt lat="49.557463" lon="6.597676">
        <ele>209.0</ele>
        <time>2020-07-09T08:42:51Z</time>
      </trkpt>
      <trkpt lat="49.557364" lon="6.597622">
        <ele>209.0</ele>
        <time>2020-07-09T08:42:53Z</time>
      </trkpt>
      <trkpt lat="49.557218" lon="6.597542">
        <ele>208.0</ele>
        <time>2020-07-09T08:42:56Z</time>
      </trkpt>
      <trkpt lat="49.557124" lon="6.597499">
        <ele>208.0</ele>
        <time>2020-07-09T08:42:58Z</time>
      </trkpt>
      <trkpt lat="49.557026" lon="6.597463">
        <ele>208.0</ele>
        <time>2020-07-09T08:43:00Z</time>
      </trkpt>
      <trkpt lat="49.556924" lon="6.597429">
        <ele>208.0</ele>
        <time>2020-07-09T08:43:02Z</time>
      </trkpt>
      <trkpt lat="49.556822" lon="6.597396">
        <ele>208.0</ele>
        <time>2020-07-09T08:43:04Z</time>
      </trkpt>
      <trkpt lat="49.55672" lon="6.597371">
        <ele>207.0</ele>
        <time>2020-07-09T08:43:06Z</time>
      </trkpt>
      <trkpt lat="49.556623" lon="6.597341">
        <ele>208.0</ele>
        <time>2020-07-09T08:43:08Z</time>
      </trkpt>
      <trkpt lat="49.55653" lon="6.597332">
        <ele>208.0</ele>
        <time>2020-07-09T08:43:10Z</time>
      </trkpt>
      <trkpt lat="49.556434" lon="6.597303">
        <ele>208.0</ele>
        <time>2020-07-09T08:43:12Z</time>
      </trkpt>
      <trkpt lat="49.55633" lon="6.597279">
        <ele>208.0</ele>
        <time>2020-07-09T08:43:14Z</time>
      </trkpt>
      <trkpt lat="49.55623" lon="6.597263">
        <ele>208.0</ele>
        <time>2020-07-09T08:43:16Z</time>
      </trkpt>
      <trkpt lat="49.556131" lon="6.597242">
        <ele>209.0</ele>
        <time>2020-07-09T08:43:18Z</time>
      </trkpt>
      <trkpt lat="49.55603" lon="6.597226">
        <ele>209.0</ele>
        <time>2020-07-09T08:43:20Z</time>
      </trkpt>
      <trkpt lat="49.555929" lon="6.597217">
        <ele>210.0</ele>
        <time>2020-07-09T08:43:22Z</time>
      </trkpt>
      <trkpt lat="49.555831" lon="6.597205">
        <ele>211.0</ele>
        <time>2020-07-09T08:43:24Z</time>
      </trkpt>
      <trkpt lat="49.555685" lon="6.5972">
        <ele>211.0</ele>
        <time>2020-07-09T08:43:27Z</time>
      </trkpt>
      <trkpt lat="49.555585" lon="6.597202">
        <ele>212.0</ele>
        <time>2020-07-09T08:43:29Z</time>
      </trkpt>
      <trkpt lat="49.555441" lon="6.597216">
        <ele>213.0</ele>
        <time>2020-07-09T08:43:32Z</time>
      </trkpt>
      <trkpt lat="49.555341" lon="6.597221">
        <ele>214.0</ele>
        <time>2020-07-09T08:43:34Z</time>
      </trkpt>
      <trkpt lat="49.555287" lon="6.597229">
        <ele>213.0</ele>
        <time>2020-07-09T08:43:35Z</time>
      </trkpt>
      <trkpt lat="49.555076" lon="6.597267">
        <ele>212.0</ele>
        <time>2020-07-09T08:43:39Z</time>
      </trkpt>
      <trkpt lat="49.554967" lon="6.597296">
        <ele>211.0</ele>
        <time>2020-07-09T08:43:41Z</time>
      </trkpt>
      <trkpt lat="49.554858" lon="6.597332">
        <ele>211.0</ele>
        <time>2020-07-09T08:43:43Z</time>
      </trkpt>
      <trkpt lat="49.554717" lon="6.597391">
        <ele>211.0</ele>
        <time>2020-07-09T08:43:46Z</time>
      </trkpt>
      <trkpt lat="49.554625" lon="6.597434">
        <ele>211.0</ele>
        <time>2020-07-09T08:43:48Z</time>
      </trkpt>
      <trkpt lat="49.554535" lon="6.597478">
        <ele>211.0</ele>
        <time>2020-07-09T08:43:50Z</time>
      </trkpt>
      <trkpt lat="49.554446" lon="6.597527">
        <ele>211.0</ele>
        <time>2020-07-09T08:43:52Z</time>
      </trkpt>
      <trkpt lat="49.554316" lon="6.597594">
        <ele>210.0</ele>
        <time>2020-07-09T08:43:55Z</time>
      </trkpt>
      <trkpt lat="49.554233" lon="6.597644">
        <ele>210.0</ele>
        <time>2020-07-09T08:43:57Z</time>
      </trkpt>
      <trkpt lat="49.554142" lon="6.597713">
        <ele>209.0</ele>
        <time>2020-07-09T08:43:59Z</time>
      </trkpt>
      <trkpt lat="49.554103" lon="6.597745">
        <ele>209.0</ele>
        <time>2020-07-09T08:44:00Z</time>
      </trkpt>
      <trkpt lat="49.553978" lon="6.597866">
        <ele>208.0</ele>
        <time>2020-07-09T08:44:03Z</time>
      </trkpt>
      <trkpt lat="49.553899" lon="6.597945">
        <ele>208.0</ele>
        <time>2020-07-09T08:44:05Z</time>
      </trkpt>
      <trkpt lat="49.553817" lon="6.598021">
        <ele>207.0</ele>
        <time>2020-07-09T08:44:07Z</time>
      </trkpt>
      <trkpt lat="49.55377" lon="6.598059">
        <ele>207.0</ele>
        <time>2020-07-09T08:44:08Z</time>
      </trkpt>
      <trkpt lat="49.553611" lon="6.598237">
        <ele>207.0</ele>
        <time>2020-07-09T08:44:12Z</time>
      </trkpt>
      <trkpt lat="49.553541" lon="6.598327">
        <ele>206.0</ele>
        <time>2020-07-09T08:44:14Z</time>
      </trkpt>
      <trkpt lat="49.553467" lon="6.598419">
        <ele>206.0</ele>
        <time>2020-07-09T08:44:16Z</time>
      </trkpt>
      <trkpt lat="49.553359" lon="6.598578">
        <ele>205.0</ele>
        <time>2020-07-09T08:44:19Z</time>
      </trkpt>
      <trkpt lat="49.553296" lon="6.598687">
        <ele>204.0</ele>
        <time>2020-07-09T08:44:21Z</time>
      </trkpt>
      <trkpt lat="49.553234" lon="6.598794">
        <ele>204.0</ele>
        <time>2020-07-09T08:44:23Z</time>
      </trkpt>
      <trkpt lat="49.553139" lon="6.598963">
        <ele>204.0</ele>
        <time>2020-07-09T08:44:26Z</time>
      </trkpt>
      <trkpt lat="49.553074" lon="6.599084">
        <ele>204.0</ele>
        <time>2020-07-09T08:44:28Z</time>
      </trkpt>
      <trkpt lat="49.552977" lon="6.599267">
        <ele>204.0</ele>
        <time>2020-07-09T08:44:31Z</time>
      </trkpt>
      <trkpt lat="49.552921" lon="6.599382">
        <ele>204.0</ele>
        <time>2020-07-09T08:44:33Z</time>
      </trkpt>
      <trkpt lat="49.552864" lon="6.599503">
        <ele>205.0</ele>
        <time>2020-07-09T08:44:35Z</time>
      </trkpt>
      <trkpt lat="49.552782" lon="6.599683">
        <ele>205.0</ele>
        <time>2020-07-09T08:44:38Z</time>
      </trkpt>
      <trkpt lat="49.552738" lon="6.599808">
        <ele>204.0</ele>
        <time>2020-07-09T08:44:40Z</time>
      </trkpt>
      <trkpt lat="49.55269" lon="6.599933">
        <ele>204.0</ele>
        <time>2020-07-09T08:44:42Z</time>
      </trkpt>
      <trkpt lat="49.552636" lon="6.600056">
        <ele>205.0</ele>
        <time>2020-07-09T08:44:44Z</time>
      </trkpt>
      <trkpt lat="49.552582" lon="6.600176">
        <ele>205.0</ele>
        <time>2020-07-09T08:44:46Z</time>
      </trkpt>
      <trkpt lat="49.552513" lon="6.600299">
        <ele>205.0</ele>
        <time>2020-07-09T08:44:48Z</time>
      </trkpt>
      <trkpt lat="49.55246" lon="6.600435">
        <ele>205.0</ele>
        <time>2020-07-09T08:44:50Z</time>
      </trkpt>
      <trkpt lat="49.552373" lon="6.600638">
        <ele>207.0</ele>
        <time>2020-07-09T08:44:53Z</time>
      </trkpt>
      <trkpt lat="49.552314" lon="6.600772">
        <ele>207.0</ele>
        <time>2020-07-09T08:44:55Z</time>
      </trkpt>
      <trkpt lat="49.552258" lon="6.600895">
        <ele>207.0</ele>
        <time>2020-07-09T08:44:57Z</time>
      </trkpt>
      <trkpt lat="49.552227" lon="6.600964">
        <ele>208.0</ele>
        <time>2020-07-09T08:44:58Z</time>
      </trkpt>
      <trkpt lat="49.552147" lon="6.601162">
        <ele>208.0</ele>
        <time>2020-07-09T08:45:01Z</time>
      </trkpt>
      <trkpt lat="49.552064" lon="6.601364">
        <ele>208.0</ele>
        <time>2020-07-09T08:45:04Z</time>
      </trkpt>
      <trkpt lat="49.552003" lon="6.601487">
        <ele>208.0</ele>
        <time>2020-07-09T08:45:06Z</time>
      </trkpt>
      <trkpt lat="49.551947" lon="6.601615">
        <ele>208.0</ele>
        <time>2020-07-09T08:45:08Z</time>
      </trkpt>
      <trkpt lat="49.551894" lon="6.601748">
        <ele>208.0</ele>
        <time>2020-07-09T08:45:10Z</time>
      </trkpt>
      <trkpt lat="49.551788" lon="6.602001">
        <ele>208.0</ele>
        <time>2020-07-09T08:45:14Z</time>
      </trkpt>
      <trkpt lat="49.551762" lon="6.602056">
        <ele>208.0</ele>
        <time>2020-07-09T08:45:15Z</time>
      </trkpt>
      <trkpt lat="49.55169" lon="6.602238">
        <ele>207.0</ele>
        <time>2020-07-09T08:45:18Z</time>
      </trkpt>
      <trkpt lat="49.55161" lon="6.602422">
        <ele>208.0</ele>
        <time>2020-07-09T08:45:21Z</time>
      </trkpt>
      <trkpt lat="49.551555" lon="6.602561">
        <ele>207.0</ele>
        <time>2020-07-09T08:45:23Z</time>
      </trkpt>
      <trkpt lat="49.5515" lon="6.602688">
        <ele>207.0</ele>
        <time>2020-07-09T08:45:25Z</time>
      </trkpt>
      <trkpt lat="49.551442" lon="6.60281">
        <ele>207.0</ele>
        <time>2020-07-09T08:45:27Z</time>
      </trkpt>
      <trkpt lat="49.551388" lon="6.602936">
        <ele>207.0</ele>
        <time>2020-07-09T08:45:29Z</time>
      </trkpt>
      <trkpt lat="49.551335" lon="6.603062">
        <ele>207.0</ele>
        <time>2020-07-09T08:45:31Z</time>
      </trkpt>
      <trkpt lat="49.551285" lon="6.603188">
        <ele>207.0</ele>
        <time>2020-07-09T08:45:33Z</time>
      </trkpt>
      <trkpt lat="49.551233" lon="6.603319">
        <ele>207.0</ele>
        <time>2020-07-09T08:45:35Z</time>
      </trkpt>
      <trkpt lat="49.551205" lon="6.603381">
        <ele>207.0</ele>
        <time>2020-07-09T08:45:36Z</time>
      </trkpt>
      <trkpt lat="49.551128" lon="6.603558">
        <ele>207.0</ele>
        <time>2020-07-09T08:45:39Z</time>
      </trkpt>
      <trkpt lat="49.551071" lon="6.603683">
        <ele>207.0</ele>
        <time>2020-07-09T08:45:41Z</time>
      </trkpt>
      <trkpt lat="49.551021" lon="6.60381">
        <ele>207.0</ele>
        <time>2020-07-09T08:45:43Z</time>
      </trkpt>
      <trkpt lat="49.550967" lon="6.603931">
        <ele>207.0</ele>
        <time>2020-07-09T08:45:45Z</time>
      </trkpt>
      <trkpt lat="49.550912" lon="6.604066">
        <ele>207.0</ele>
        <time>2020-07-09T08:45:47Z</time>
      </trkpt>
      <trkpt lat="49.550857" lon="6.6042">
        <ele>207.0</ele>
        <time>2020-07-09T08:45:49Z</time>
      </trkpt>
      <trkpt lat="49.550779" lon="6.604405">
        <ele>207.0</ele>
        <time>2020-07-09T08:45:52Z</time>
      </trkpt>
      <trkpt lat="49.550722" lon="6.604544">
        <ele>207.0</ele>
        <time>2020-07-09T08:45:54Z</time>
      </trkpt>
      <trkpt lat="49.550629" lon="6.604731">
        <ele>207.0</ele>
        <time>2020-07-09T08:45:57Z</time>
      </trkpt>
      <trkpt lat="49.55057" lon="6.604858">
        <ele>207.0</ele>
        <time>2020-07-09T08:45:59Z</time>
      </trkpt>
      <trkpt lat="49.550486" lon="6.605046">
        <ele>208.0</ele>
        <time>2020-07-09T08:46:02Z</time>
      </trkpt>
      <trkpt lat="49.550429" lon="6.605171">
        <ele>208.0</ele>
        <time>2020-07-09T08:46:04Z</time>
      </trkpt>
      <trkpt lat="49.550378" lon="6.605299">
        <ele>208.0</ele>
        <time>2020-07-09T08:46:06Z</time>
      </trkpt>
      <trkpt lat="49.5503" lon="6.605492">
        <ele>209.0</ele>
        <time>2020-07-09T08:46:09Z</time>
      </trkpt>
      <trkpt lat="49.550248" lon="6.605628">
        <ele>209.0</ele>
        <time>2020-07-09T08:46:11Z</time>
      </trkpt>
      <trkpt lat="49.55019" lon="6.605766">
        <ele>209.0</ele>
        <time>2020-07-09T08:46:13Z</time>
      </trkpt>
      <trkpt lat="49.550136" lon="6.605891">
        <ele>209.0</ele>
        <time>2020-07-09T08:46:15Z</time>
      </trkpt>
      <trkpt lat="49.550077" lon="6.60601">
        <ele>209.0</ele>
        <time>2020-07-09T08:46:17Z</time>
      </trkpt>
      <trkpt lat="49.550021" lon="6.606123">
        <ele>209.0</ele>
        <time>2020-07-09T08:46:19Z</time>
      </trkpt>
      <trkpt lat="49.549959" lon="6.606245">
        <ele>209.0</ele>
        <time>2020-07-09T08:46:21Z</time>
      </trkpt>
      <trkpt lat="49.549904" lon="6.606368">
        <ele>208.0</ele>
        <time>2020-07-09T08:46:23Z</time>
      </trkpt>
      <trkpt lat="49.549841" lon="6.60649">
        <ele>208.0</ele>
        <time>2020-07-09T08:46:25Z</time>
      </trkpt>
      <trkpt lat="49.549777" lon="6.606615">
        <ele>208.0</ele>
        <time>2020-07-09T08:46:27Z</time>
      </trkpt>
      <trkpt lat="49.549704" lon="6.606737">
        <ele>208.0</ele>
        <time>2020-07-09T08:46:29Z</time>
      </trkpt>
      <trkpt lat="49.549586" lon="6.606901">
        <ele>208.0</ele>
        <time>2020-07-09T08:46:32Z</time>
      </trkpt>
      <trkpt lat="49.54951" lon="6.607008">
        <ele>208.0</ele>
        <time>2020-07-09T08:46:34Z</time>
      </trkpt>
      <trkpt lat="49.54939" lon="6.607174">
        <ele>208.0</ele>
        <time>2020-07-09T08:46:37Z</time>
      </trkpt>
      <trkpt lat="49.549349" lon="6.607231">
        <ele>208.0</ele>
        <time>2020-07-09T08:46:38Z</time>
      </trkpt>
      <trkpt lat="49.549217" lon="6.607372">
        <ele>208.0</ele>
        <time>2020-07-09T08:46:41Z</time>
      </trkpt>
      <trkpt lat="49.549137" lon="6.607464">
        <ele>207.0</ele>
        <time>2020-07-09T08:46:43Z</time>
      </trkpt>
      <trkpt lat="49.549004" lon="6.607598">
        <ele>207.0</ele>
        <time>2020-07-09T08:46:46Z</time>
      </trkpt>
      <trkpt lat="49.54892" lon="6.607674">
        <ele>208.0</ele>
        <time>2020-07-09T08:46:48Z</time>
      </trkpt>
      <trkpt lat="49.548829" lon="6.607747">
        <ele>207.0</ele>
        <time>2020-07-09T08:46:50Z</time>
      </trkpt>
      <trkpt lat="49.548739" lon="6.607811">
        <ele>208.0</ele>
        <time>2020-07-09T08:46:52Z</time>
      </trkpt>
      <trkpt lat="49.548684" lon="6.607865">
        <ele>211.0</ele>
        <time>2020-07-09T08:46:54Z</time>
      </trkpt>
      <trkpt lat="49.548591" lon="6.607927">
        <ele>211.0</ele>
        <time>2020-07-09T08:46:56Z</time>
      </trkpt>
      <trkpt lat="49.548495" lon="6.607979">
        <ele>212.0</ele>
        <time>2020-07-09T08:46:58Z</time>
      </trkpt>
      <trkpt lat="49.548402" lon="6.608027">
        <ele>212.0</ele>
        <time>2020-07-09T08:47:00Z</time>
      </trkpt>
      <trkpt lat="49.548264" lon="6.608089">
        <ele>213.0</ele>
        <time>2020-07-09T08:47:03Z</time>
      </trkpt>
      <trkpt lat="49.548164" lon="6.608115">
        <ele>213.0</ele>
        <time>2020-07-09T08:47:05Z</time>
      </trkpt>
      <trkpt lat="49.548066" lon="6.608139">
        <ele>213.0</ele>
        <time>2020-07-09T08:47:07Z</time>
      </trkpt>
      <trkpt lat="49.547971" lon="6.608149">
        <ele>213.0</ele>
        <time>2020-07-09T08:47:09Z</time>
      </trkpt>
      <trkpt lat="49.547823" lon="6.608165">
        <ele>213.0</ele>
        <time>2020-07-09T08:47:12Z</time>
      </trkpt>
      <trkpt lat="49.547721" lon="6.608179">
        <ele>213.0</ele>
        <time>2020-07-09T08:47:14Z</time>
      </trkpt>
      <trkpt lat="49.547607" lon="6.608173">
        <ele>213.0</ele>
        <time>2020-07-09T08:47:16Z</time>
      </trkpt>
      <trkpt lat="49.547493" lon="6.608174">
        <ele>213.0</ele>
        <time>2020-07-09T08:47:18Z</time>
      </trkpt>
      <trkpt lat="49.547381" lon="6.608163">
        <ele>213.0</ele>
        <time>2020-07-09T08:47:20Z</time>
      </trkpt>
      <trkpt lat="49.547218" lon="6.608147">
        <ele>213.0</ele>
        <time>2020-07-09T08:47:23Z</time>
      </trkpt>
      <trkpt lat="49.54711" lon="6.608127">
        <ele>213.0</ele>
        <time>2020-07-09T08:47:25Z</time>
      </trkpt>
      <trkpt lat="49.547009" lon="6.608095">
        <ele>213.0</ele>
        <time>2020-07-09T08:47:27Z</time>
      </trkpt>
      <trkpt lat="49.546906" lon="6.60806">
        <ele>213.0</ele>
        <time>2020-07-09T08:47:29Z</time>
      </trkpt>
      <trkpt lat="49.546751" lon="6.607991">
        <ele>212.0</ele>
        <time>2020-07-09T08:47:32Z</time>
      </trkpt>
      <trkpt lat="49.54664" lon="6.607938">
        <ele>211.0</ele>
        <time>2020-07-09T08:47:34Z</time>
      </trkpt>
      <trkpt lat="49.546534" lon="6.607882">
        <ele>210.0</ele>
        <time>2020-07-09T08:47:36Z</time>
      </trkpt>
      <trkpt lat="49.546375" lon="6.607786">
        <ele>208.0</ele>
        <time>2020-07-09T08:47:39Z</time>
      </trkpt>
      <trkpt lat="49.546282" lon="6.607725">
        <ele>208.0</ele>
        <time>2020-07-09T08:47:41Z</time>
      </trkpt>
      <trkpt lat="49.546192" lon="6.607653">
        <ele>208.0</ele>
        <time>2020-07-09T08:47:43Z</time>
      </trkpt>
      <trkpt lat="49.546103" lon="6.607567">
        <ele>209.0</ele>
        <time>2020-07-09T08:47:45Z</time>
      </trkpt>
      <trkpt lat="49.546015" lon="6.607477">
        <ele>209.0</ele>
        <time>2020-07-09T08:47:47Z</time>
      </trkpt>
      <trkpt lat="49.545969" lon="6.607435">
        <ele>209.0</ele>
        <time>2020-07-09T08:47:48Z</time>
      </trkpt>
      <trkpt lat="49.545836" lon="6.607304">
        <ele>209.0</ele>
        <time>2020-07-09T08:47:51Z</time>
      </trkpt>
      <trkpt lat="49.545756" lon="6.607203">
        <ele>209.0</ele>
        <time>2020-07-09T08:47:53Z</time>
      </trkpt>
      <trkpt lat="49.545679" lon="6.607096">
        <ele>209.0</ele>
        <time>2020-07-09T08:47:55Z</time>
      </trkpt>
      <trkpt lat="49.545565" lon="6.606924">
        <ele>210.0</ele>
        <time>2020-07-09T08:47:58Z</time>
      </trkpt>
      <trkpt lat="49.545487" lon="6.606806">
        <ele>210.0</ele>
        <time>2020-07-09T08:48:00Z</time>
      </trkpt>
      <trkpt lat="49.545415" lon="6.606694">
        <ele>209.0</ele>
        <time>2020-07-09T08:48:02Z</time>
      </trkpt>
      <trkpt lat="49.545341" lon="6.606587">
        <ele>209.0</ele>
        <time>2020-07-09T08:48:04Z</time>
      </trkpt>
      <trkpt lat="49.545272" lon="6.606486">
        <ele>209.0</ele>
        <time>2020-07-09T08:48:06Z</time>
      </trkpt>
      <trkpt lat="49.545207" lon="6.606381">
        <ele>209.0</ele>
        <time>2020-07-09T08:48:08Z</time>
      </trkpt>
      <trkpt lat="49.545111" lon="6.606211">
        <ele>209.0</ele>
        <time>2020-07-09T08:48:11Z</time>
      </trkpt>
      <trkpt lat="49.545051" lon="6.606092">
        <ele>209.0</ele>
        <time>2020-07-09T08:48:13Z</time>
      </trkpt>
      <trkpt lat="49.544988" lon="6.605967">
        <ele>208.0</ele>
        <time>2020-07-09T08:48:15Z</time>
      </trkpt>
      <trkpt lat="49.544922" lon="6.605845">
        <ele>209.0</ele>
        <time>2020-07-09T08:48:17Z</time>
      </trkpt>
      <trkpt lat="49.544864" lon="6.605716">
        <ele>209.0</ele>
        <time>2020-07-09T08:48:19Z</time>
      </trkpt>
      <trkpt lat="49.544774" lon="6.605521">
        <ele>209.0</ele>
        <time>2020-07-09T08:48:22Z</time>
      </trkpt>
      <trkpt lat="49.544716" lon="6.605393">
        <ele>208.0</ele>
        <time>2020-07-09T08:48:24Z</time>
      </trkpt>
      <trkpt lat="49.544689" lon="6.605327">
        <ele>208.0</ele>
        <time>2020-07-09T08:48:25Z</time>
      </trkpt>
      <trkpt lat="49.544614" lon="6.605122">
        <ele>207.0</ele>
        <time>2020-07-09T08:48:28Z</time>
      </trkpt>
      <trkpt lat="49.544561" lon="6.604984">
        <ele>207.0</ele>
        <time>2020-07-09T08:48:30Z</time>
      </trkpt>
      <trkpt lat="49.54448" lon="6.604785">
        <ele>207.0</ele>
        <time>2020-07-09T08:48:33Z</time>
      </trkpt>
      <trkpt lat="49.544434" lon="6.60465">
        <ele>207.0</ele>
        <time>2020-07-09T08:48:35Z</time>
      </trkpt>
      <trkpt lat="49.544391" lon="6.604512">
        <ele>207.0</ele>
        <time>2020-07-09T08:48:37Z</time>
      </trkpt>
      <trkpt lat="49.544347" lon="6.604373">
        <ele>207.0</ele>
        <time>2020-07-09T08:48:39Z</time>
      </trkpt>
      <trkpt lat="49.544298" lon="6.604231">
        <ele>207.0</ele>
        <time>2020-07-09T08:48:41Z</time>
      </trkpt>
      <trkpt lat="49.544275" lon="6.60416">
        <ele>207.0</ele>
        <time>2020-07-09T08:48:42Z</time>
      </trkpt>
      <trkpt lat="49.54421" lon="6.603941">
        <ele>206.0</ele>
        <time>2020-07-09T08:48:45Z</time>
      </trkpt>
      <trkpt lat="49.544164" lon="6.6038">
        <ele>207.0</ele>
        <time>2020-07-09T08:48:47Z</time>
      </trkpt>
      <trkpt lat="49.54412" lon="6.603657">
        <ele>206.0</ele>
        <time>2020-07-09T08:48:49Z</time>
      </trkpt>
      <trkpt lat="49.544064" lon="6.603453">
        <ele>206.0</ele>
        <time>2020-07-09T08:48:52Z</time>
      </trkpt>
      <trkpt lat="49.544027" lon="6.603316">
        <ele>206.0</ele>
        <time>2020-07-09T08:48:54Z</time>
      </trkpt>
      <trkpt lat="49.543973" lon="6.603107">
        <ele>207.0</ele>
        <time>2020-07-09T08:48:57Z</time>
      </trkpt>
      <trkpt lat="49.543952" lon="6.603036">
        <ele>207.0</ele>
        <time>2020-07-09T08:48:58Z</time>
      </trkpt>
      <trkpt lat="49.543897" lon="6.602836">
        <ele>207.0</ele>
        <time>2020-07-09T08:49:01Z</time>
      </trkpt>
      <trkpt lat="49.543861" lon="6.60269">
        <ele>207.0</ele>
        <time>2020-07-09T08:49:03Z</time>
      </trkpt>
      <trkpt lat="49.543825" lon="6.602548">
        <ele>207.0</ele>
        <time>2020-07-09T08:49:05Z</time>
      </trkpt>
      <trkpt lat="49.543787" lon="6.602419">
        <ele>207.0</ele>
        <time>2020-07-09T08:49:07Z</time>
      </trkpt>
      <trkpt lat="49.543755" lon="6.60229">
        <ele>207.0</ele>
        <time>2020-07-09T08:49:09Z</time>
      </trkpt>
      <trkpt lat="49.543716" lon="6.602096">
        <ele>209.0</ele>
        <time>2020-07-09T08:49:12Z</time>
      </trkpt>
      <trkpt lat="49.54369" lon="6.601976">
        <ele>209.0</ele>
        <time>2020-07-09T08:49:14Z</time>
      </trkpt>
      <trkpt lat="49.543667" lon="6.601857">
        <ele>209.0</ele>
        <time>2020-07-09T08:49:16Z</time>
      </trkpt>
      <trkpt lat="49.543645" lon="6.60175">
        <ele>210.0</ele>
        <time>2020-07-09T08:49:18Z</time>
      </trkpt>
      <trkpt lat="49.543619" lon="6.601644">
        <ele>210.0</ele>
        <time>2020-07-09T08:49:20Z</time>
      </trkpt>
      <trkpt lat="49.543595" lon="6.601541">
        <ele>210.0</ele>
        <time>2020-07-09T08:49:22Z</time>
      </trkpt>
      <trkpt lat="49.543574" lon="6.601441">
        <ele>210.0</ele>
        <time>2020-07-09T08:49:24Z</time>
      </trkpt>
      <trkpt lat="49.543549" lon="6.601345">
        <ele>210.0</ele>
        <time>2020-07-09T08:49:26Z</time>
      </trkpt>
      <trkpt lat="49.543515" lon="6.601184">
        <ele>211.0</ele>
        <time>2020-07-09T08:49:29Z</time>
      </trkpt>
      <trkpt lat="49.543487" lon="6.601071">
        <ele>211.0</ele>
        <time>2020-07-09T08:49:31Z</time>
      </trkpt>
      <trkpt lat="49.543463" lon="6.600975">
        <ele>211.0</ele>
        <time>2020-07-09T08:49:33Z</time>
      </trkpt>
      <trkpt lat="49.54345" lon="6.600926">
        <ele>212.0</ele>
        <time>2020-07-09T08:49:34Z</time>
      </trkpt>
      <trkpt lat="49.543409" lon="6.600777">
        <ele>212.0</ele>
        <time>2020-07-09T08:49:37Z</time>
      </trkpt>
      <trkpt lat="49.54336" lon="6.600618">
        <ele>212.0</ele>
        <time>2020-07-09T08:49:40Z</time>
      </trkpt>
      <trkpt lat="49.543331" lon="6.600522">
        <ele>212.0</ele>
        <time>2020-07-09T08:49:42Z</time>
      </trkpt>
      <trkpt lat="49.543286" lon="6.600384">
        <ele>212.0</ele>
        <time>2020-07-09T08:49:45Z</time>
      </trkpt>
      <trkpt lat="49.543274" lon="6.600343">
        <ele>212.0</ele>
        <time>2020-07-09T08:49:46Z</time>
      </trkpt>
      <trkpt lat="49.543231" lon="6.600215">
        <ele>212.0</ele>
        <time>2020-07-09T08:49:49Z</time>
      </trkpt>
      <trkpt lat="49.543198" lon="6.600103">
        <ele>212.0</ele>
        <time>2020-07-09T08:49:52Z</time>
      </trkpt>
      <trkpt lat="49.54319" lon="6.600085">
        <ele>212.0</ele>
        <time>2020-07-09T08:49:53Z</time>
      </trkpt>
      <trkpt lat="49.543191" lon="6.600062">
        <ele>212.0</ele>
        <time>2020-07-09T08:49:56Z</time>
      </trkpt>
      <trkpt lat="49.54319" lon="6.600059">
        <ele>212.0</ele>
        <time>2020-07-09T08:49:58Z</time>
      </trkpt>
      <trkpt lat="49.54319" lon="6.600059">
        <ele>212.0</ele>
        <time>2020-07-09T08:50:00Z</time>
      </trkpt>
      <trkpt lat="49.54319" lon="6.600059">
        <ele>212.0</ele>
        <time>2020-07-09T08:50:02Z</time>
      </trkpt>
      <trkpt lat="49.543192" lon="6.60006">
        <ele>211.0</ele>
        <time>2020-07-09T08:50:26Z</time>
      </trkpt>
      <trkpt lat="49.543192" lon="6.60006">
        <ele>211.0</ele>
        <time>2020-07-09T08:50:28Z</time>
      </trkpt>
      <trkpt lat="49.543192" lon="6.60006">
        <ele>211.0</ele>
        <time>2020-07-09T08:50:30Z</time>
      </trkpt>
      <trkpt lat="49.543192" lon="6.60006">
        <ele>211.0</ele>
        <time>2020-07-09T08:50:32Z</time>
      </trkpt>
      <trkpt lat="49.543192" lon="6.60006">
        <ele>211.0</ele>
        <time>2020-07-09T08:50:34Z</time>
      </trkpt>
      <trkpt lat="49.543192" lon="6.60006">
        <ele>211.0</ele>
        <time>2020-07-09T08:50:36Z</time>
      </trkpt>
      <trkpt lat="49.543197" lon="6.600072">
        <ele>212.0</ele>
        <time>2020-07-09T08:50:38Z</time>
      </trkpt>
      <trkpt lat="49.543191" lon="6.60008">
        <ele>211.0</ele>
        <time>2020-07-09T08:50:40Z</time>
      </trkpt>
      <trkpt lat="49.54319" lon="6.600082">
        <ele>211.0</ele>
        <time>2020-07-09T08:50:42Z</time>
      </trkpt>
      <trkpt lat="49.54319" lon="6.600082">
        <ele>211.0</ele>
        <time>2020-07-09T08:50:44Z</time>
      </trkpt>
      <trkpt lat="49.543176" lon="6.600062">
        <ele>211.0</ele>
        <time>2020-07-09T08:50:50Z</time>
      </trkpt>
      <trkpt lat="49.543152" lon="6.599995">
        <ele>210.0</ele>
        <time>2020-07-09T08:50:53Z</time>
      </trkpt>
      <trkpt lat="49.543134" lon="6.599924">
        <ele>211.0</ele>
        <time>2020-07-09T08:50:55Z</time>
      </trkpt>
      <trkpt lat="49.543111" lon="6.599848">
        <ele>210.0</ele>
        <time>2020-07-09T08:50:57Z</time>
      </trkpt>
      <trkpt lat="49.543069" lon="6.599723">
        <ele>210.0</ele>
        <time>2020-07-09T08:51:00Z</time>
      </trkpt>
      <trkpt lat="49.543035" lon="6.599636">
        <ele>211.0</ele>
        <time>2020-07-09T08:51:02Z</time>
      </trkpt>
      <trkpt lat="49.542998" lon="6.599546">
        <ele>210.0</ele>
        <time>2020-07-09T08:51:04Z</time>
      </trkpt>
      <trkpt lat="49.54296" lon="6.59946">
        <ele>211.0</ele>
        <time>2020-07-09T08:51:06Z</time>
      </trkpt>
      <trkpt lat="49.542921" lon="6.599386">
        <ele>212.0</ele>
        <time>2020-07-09T08:51:08Z</time>
      </trkpt>
      <trkpt lat="49.542887" lon="6.59931">
        <ele>212.0</ele>
        <time>2020-07-09T08:51:10Z</time>
      </trkpt>
      <trkpt lat="49.542861" lon="6.599257">
        <ele>212.0</ele>
        <time>2020-07-09T08:51:12Z</time>
      </trkpt>
      <trkpt lat="49.542841" lon="6.599201">
        <ele>213.0</ele>
        <time>2020-07-09T08:51:15Z</time>
      </trkpt>
      <trkpt lat="49.542843" lon="6.599224">
        <ele>213.0</ele>
        <time>2020-07-09T08:51:17Z</time>
      </trkpt>
      <trkpt lat="49.542843" lon="6.599224">
        <ele>213.0</ele>
        <time>2020-07-09T08:51:19Z</time>
      </trkpt>
      <trkpt lat="49.542843" lon="6.599224">
        <ele>213.0</ele>
        <time>2020-07-09T08:51:21Z</time>
      </trkpt>
      <trkpt lat="49.542843" lon="6.599224">
        <ele>213.0</ele>
        <time>2020-07-09T08:51:23Z</time>
      </trkpt>
      <trkpt lat="49.542843" lon="6.599224">
        <ele>213.0</ele>
        <time>2020-07-09T08:51:35Z</time>
      </trkpt>
      <trkpt lat="49.542843" lon="6.599224">
        <ele>213.0</ele>
        <time>2020-07-09T08:51:38Z</time>
      </trkpt>
      <trkpt lat="49.542843" lon="6.599224">
        <ele>213.0</ele>
        <time>2020-07-09T08:51:41Z</time>
      </trkpt>
      <trkpt lat="49.542843" lon="6.599224">
        <ele>213.0</ele>
        <time>2020-07-09T08:51:43Z</time>
      </trkpt>
      <trkpt lat="49.542843" lon="6.599224">
        <ele>213.0</ele>
        <time>2020-07-09T08:51:45Z</time>
      </trkpt>
      <trkpt lat="49.542843" lon="6.599224">
        <ele>213.0</ele>
        <time>2020-07-09T08:51:47Z</time>
      </trkpt>
      <trkpt lat="49.542841" lon="6.599221">
        <ele>213.0</ele>
        <time>2020-07-09T08:51:49Z</time>
      </trkpt>
      <trkpt lat="49.542832" lon="6.599206">
        <ele>214.0</ele>
        <time>2020-07-09T08:51:51Z</time>
      </trkpt>
      <trkpt lat="49.542832" lon="6.599206">
        <ele>214.0</ele>
        <time>2020-07-09T08:51:53Z</time>
      </trkpt>
      <trkpt lat="49.542821" lon="6.599187">
        <ele>212.0</ele>
        <time>2020-07-09T08:51:55Z</time>
      </trkpt>
      <trkpt lat="49.542823" lon="6.599185">
        <ele>212.0</ele>
        <time>2020-07-09T08:51:57Z</time>
      </trkpt>
      <trkpt lat="49.542822" lon="6.599167">
        <ele>211.0</ele>
        <time>2020-07-09T08:51:59Z</time>
      </trkpt>
      <trkpt lat="49.542787" lon="6.599105">
        <ele>211.0</ele>
        <time>2020-07-09T08:52:02Z</time>
      </trkpt>
      <trkpt lat="49.54275" lon="6.599042">
        <ele>210.0</ele>
        <time>2020-07-09T08:52:04Z</time>
      </trkpt>
      <trkpt lat="49.542722" lon="6.598972">
        <ele>211.0</ele>
        <time>2020-07-09T08:52:06Z</time>
      </trkpt>
      <trkpt lat="49.542686" lon="6.598893">
        <ele>211.0</ele>
        <time>2020-07-09T08:52:08Z</time>
      </trkpt>
      <trkpt lat="49.542641" lon="6.598814">
        <ele>212.0</ele>
        <time>2020-07-09T08:52:10Z</time>
      </trkpt>
      <trkpt lat="49.542588" lon="6.598731">
        <ele>212.0</ele>
        <time>2020-07-09T08:52:12Z</time>
      </trkpt>
      <trkpt lat="49.542518" lon="6.598601">
        <ele>214.0</ele>
        <time>2020-07-09T08:52:15Z</time>
      </trkpt>
      <trkpt lat="49.542473" lon="6.598516">
        <ele>214.0</ele>
        <time>2020-07-09T08:52:17Z</time>
      </trkpt>
      <trkpt lat="49.54242" lon="6.598432">
        <ele>215.0</ele>
        <time>2020-07-09T08:52:19Z</time>
      </trkpt>
      <trkpt lat="49.542361" lon="6.598353">
        <ele>215.0</ele>
        <time>2020-07-09T08:52:21Z</time>
      </trkpt>
      <trkpt lat="49.542301" lon="6.598268">
        <ele>215.0</ele>
        <time>2020-07-09T08:52:23Z</time>
      </trkpt>
      <trkpt lat="49.542236" lon="6.598185">
        <ele>215.0</ele>
        <time>2020-07-09T08:52:25Z</time>
      </trkpt>
      <trkpt lat="49.542134" lon="6.598053">
        <ele>214.0</ele>
        <time>2020-07-09T08:52:28Z</time>
      </trkpt>
      <trkpt lat="49.542031" lon="6.597942">
        <ele>214.0</ele>
        <time>2020-07-09T08:52:31Z</time>
      </trkpt>
      <trkpt lat="49.541961" lon="6.597866">
        <ele>215.0</ele>
        <time>2020-07-09T08:52:33Z</time>
      </trkpt>
      <trkpt lat="49.541882" lon="6.597804">
        <ele>215.0</ele>
        <time>2020-07-09T08:52:35Z</time>
      </trkpt>
      <trkpt lat="49.541845" lon="6.597766">
        <ele>215.0</ele>
        <time>2020-07-09T08:52:36Z</time>
      </trkpt>
      <trkpt lat="49.541675" lon="6.597625">
        <ele>216.0</ele>
        <time>2020-07-09T08:52:40Z</time>
      </trkpt>
      <trkpt lat="49.541588" lon="6.597559">
        <ele>215.0</ele>
        <time>2020-07-09T08:52:42Z</time>
      </trkpt>
      <trkpt lat="49.541506" lon="6.597504">
        <ele>216.0</ele>
        <time>2020-07-09T08:52:44Z</time>
      </trkpt>
      <trkpt lat="49.541463" lon="6.597478">
        <ele>216.0</ele>
        <time>2020-07-09T08:52:45Z</time>
      </trkpt>
      <trkpt lat="49.541335" lon="6.597392">
        <ele>215.0</ele>
        <time>2020-07-09T08:52:48Z</time>
      </trkpt>
      <trkpt lat="49.541241" lon="6.597344">
        <ele>215.0</ele>
        <time>2020-07-09T08:52:50Z</time>
      </trkpt>
      <trkpt lat="49.541141" lon="6.5973">
        <ele>215.0</ele>
        <time>2020-07-09T08:52:52Z</time>
      </trkpt>
      <trkpt lat="49.54099" lon="6.597241">
        <ele>214.0</ele>
        <time>2020-07-09T08:52:55Z</time>
      </trkpt>
      <trkpt lat="49.540885" lon="6.597209">
        <ele>214.0</ele>
        <time>2020-07-09T08:52:57Z</time>
      </trkpt>
      <trkpt lat="49.540832" lon="6.597193">
        <ele>214.0</ele>
        <time>2020-07-09T08:52:58Z</time>
      </trkpt>
      <trkpt lat="49.540683" lon="6.597162">
        <ele>214.0</ele>
        <time>2020-07-09T08:53:01Z</time>
      </trkpt>
      <trkpt lat="49.540575" lon="6.597146">
        <ele>214.0</ele>
        <time>2020-07-09T08:53:03Z</time>
      </trkpt>
      <trkpt lat="49.540469" lon="6.597124">
        <ele>214.0</ele>
        <time>2020-07-09T08:53:05Z</time>
      </trkpt>
      <trkpt lat="49.540361" lon="6.5971">
        <ele>214.0</ele>
        <time>2020-07-09T08:53:07Z</time>
      </trkpt>
      <trkpt lat="49.540246" lon="6.597087">
        <ele>215.0</ele>
        <time>2020-07-09T08:53:09Z</time>
      </trkpt>
      <trkpt lat="49.540131" lon="6.597086">
        <ele>215.0</ele>
        <time>2020-07-09T08:53:11Z</time>
      </trkpt>
      <trkpt lat="49.540019" lon="6.597088">
        <ele>215.0</ele>
        <time>2020-07-09T08:53:13Z</time>
      </trkpt>
      <trkpt lat="49.539896" lon="6.597107">
        <ele>215.0</ele>
        <time>2020-07-09T08:53:15Z</time>
      </trkpt>
      <trkpt lat="49.539767" lon="6.597134">
        <ele>215.0</ele>
        <time>2020-07-09T08:53:17Z</time>
      </trkpt>
      <trkpt lat="49.539628" lon="6.597155">
        <ele>214.0</ele>
        <time>2020-07-09T08:53:19Z</time>
      </trkpt>
      <trkpt lat="49.539484" lon="6.597191">
        <ele>214.0</ele>
        <time>2020-07-09T08:53:21Z</time>
      </trkpt>
      <trkpt lat="49.53934" lon="6.597232">
        <ele>214.0</ele>
        <time>2020-07-09T08:53:23Z</time>
      </trkpt>
      <trkpt lat="49.539195" lon="6.597292">
        <ele>214.0</ele>
        <time>2020-07-09T08:53:25Z</time>
      </trkpt>
      <trkpt lat="49.539046" lon="6.597347">
        <ele>213.0</ele>
        <time>2020-07-09T08:53:27Z</time>
      </trkpt>
      <trkpt lat="49.538894" lon="6.597409">
        <ele>213.0</ele>
        <time>2020-07-09T08:53:29Z</time>
      </trkpt>
      <trkpt lat="49.538748" lon="6.597479">
        <ele>213.0</ele>
        <time>2020-07-09T08:53:31Z</time>
      </trkpt>
      <trkpt lat="49.538601" lon="6.597551">
        <ele>212.0</ele>
        <time>2020-07-09T08:53:33Z</time>
      </trkpt>
      <trkpt lat="49.538452" lon="6.597637">
        <ele>212.0</ele>
        <time>2020-07-09T08:53:35Z</time>
      </trkpt>
      <trkpt lat="49.538237" lon="6.597766">
        <ele>211.0</ele>
        <time>2020-07-09T08:53:38Z</time>
      </trkpt>
      <trkpt lat="49.538098" lon="6.597848">
        <ele>211.0</ele>
        <time>2020-07-09T08:53:40Z</time>
      </trkpt>
      <trkpt lat="49.537961" lon="6.597941">
        <ele>211.0</ele>
        <time>2020-07-09T08:53:42Z</time>
      </trkpt>
      <trkpt lat="49.537822" lon="6.598037">
        <ele>211.0</ele>
        <time>2020-07-09T08:53:44Z</time>
      </trkpt>
      <trkpt lat="49.537756" lon="6.598086">
        <ele>210.0</ele>
        <time>2020-07-09T08:53:45Z</time>
      </trkpt>
      <trkpt lat="49.537563" lon="6.598226">
        <ele>210.0</ele>
        <time>2020-07-09T08:53:48Z</time>
      </trkpt>
      <trkpt lat="49.537384" lon="6.598357">
        <ele>211.0</ele>
        <time>2020-07-09T08:53:51Z</time>
      </trkpt>
      <trkpt lat="49.53726" lon="6.598448">
        <ele>210.0</ele>
        <time>2020-07-09T08:53:53Z</time>
      </trkpt>
      <trkpt lat="49.537199" lon="6.598492">
        <ele>210.0</ele>
        <time>2020-07-09T08:53:54Z</time>
      </trkpt>
      <trkpt lat="49.536961" lon="6.598676">
        <ele>210.0</ele>
        <time>2020-07-09T08:53:58Z</time>
      </trkpt>
      <trkpt lat="49.536901" lon="6.598723">
        <ele>210.0</ele>
        <time>2020-07-09T08:53:59Z</time>
      </trkpt>
      <trkpt lat="49.536741" lon="6.598859">
        <ele>210.0</ele>
        <time>2020-07-09T08:54:02Z</time>
      </trkpt>
      <trkpt lat="49.536639" lon="6.598942">
        <ele>209.0</ele>
        <time>2020-07-09T08:54:04Z</time>
      </trkpt>
      <trkpt lat="49.53649" lon="6.599074">
        <ele>209.0</ele>
        <time>2020-07-09T08:54:07Z</time>
      </trkpt>
      <trkpt lat="49.536403" lon="6.599158">
        <ele>210.0</ele>
        <time>2020-07-09T08:54:09Z</time>
      </trkpt>
      <trkpt lat="49.536313" lon="6.599251">
        <ele>210.0</ele>
        <time>2020-07-09T08:54:11Z</time>
      </trkpt>
      <trkpt lat="49.53621" lon="6.599347">
        <ele>210.0</ele>
        <time>2020-07-09T08:54:13Z</time>
      </trkpt>
      <trkpt lat="49.536161" lon="6.599393">
        <ele>210.0</ele>
        <time>2020-07-09T08:54:14Z</time>
      </trkpt>
      <trkpt lat="49.535968" lon="6.599574">
        <ele>210.0</ele>
        <time>2020-07-09T08:54:18Z</time>
      </trkpt>
      <trkpt lat="49.535872" lon="6.599661">
        <ele>210.0</ele>
        <time>2020-07-09T08:54:20Z</time>
      </trkpt>
      <trkpt lat="49.535775" lon="6.599757">
        <ele>209.0</ele>
        <time>2020-07-09T08:54:22Z</time>
      </trkpt>
      <trkpt lat="49.535685" lon="6.599854">
        <ele>210.0</ele>
        <time>2020-07-09T08:54:24Z</time>
      </trkpt>
      <trkpt lat="49.535601" lon="6.599952">
        <ele>210.0</ele>
        <time>2020-07-09T08:54:26Z</time>
      </trkpt>
      <trkpt lat="49.535505" lon="6.600048">
        <ele>210.0</ele>
        <time>2020-07-09T08:54:28Z</time>
      </trkpt>
      <trkpt lat="49.535409" lon="6.600146">
        <ele>210.0</ele>
        <time>2020-07-09T08:54:30Z</time>
      </trkpt>
      <trkpt lat="49.53532" lon="6.600245">
        <ele>210.0</ele>
        <time>2020-07-09T08:54:32Z</time>
      </trkpt>
      <trkpt lat="49.535233" lon="6.600349">
        <ele>210.0</ele>
        <time>2020-07-09T08:54:34Z</time>
      </trkpt>
      <trkpt lat="49.535098" lon="6.600503">
        <ele>210.0</ele>
        <time>2020-07-09T08:54:37Z</time>
      </trkpt>
      <trkpt lat="49.535008" lon="6.600608">
        <ele>210.0</ele>
        <time>2020-07-09T08:54:39Z</time>
      </trkpt>
      <trkpt lat="49.534908" lon="6.600723">
        <ele>210.0</ele>
        <time>2020-07-09T08:54:41Z</time>
      </trkpt>
      <trkpt lat="49.534814" lon="6.600839">
        <ele>209.0</ele>
        <time>2020-07-09T08:54:43Z</time>
      </trkpt>
      <trkpt lat="49.53468" lon="6.601009">
        <ele>209.0</ele>
        <time>2020-07-09T08:54:46Z</time>
      </trkpt>
      <trkpt lat="49.53459" lon="6.601126">
        <ele>208.0</ele>
        <time>2020-07-09T08:54:48Z</time>
      </trkpt>
      <trkpt lat="49.534504" lon="6.601229">
        <ele>208.0</ele>
        <time>2020-07-09T08:54:50Z</time>
      </trkpt>
      <trkpt lat="49.534415" lon="6.601337">
        <ele>208.0</ele>
        <time>2020-07-09T08:54:52Z</time>
      </trkpt>
      <trkpt lat="49.534282" lon="6.601506">
        <ele>208.0</ele>
        <time>2020-07-09T08:54:55Z</time>
      </trkpt>
      <trkpt lat="49.53419" lon="6.601601">
        <ele>208.0</ele>
        <time>2020-07-09T08:54:57Z</time>
      </trkpt>
      <trkpt lat="49.534143" lon="6.601651">
        <ele>208.0</ele>
        <time>2020-07-09T08:54:58Z</time>
      </trkpt>
      <trkpt lat="49.534016" lon="6.601811">
        <ele>208.0</ele>
        <time>2020-07-09T08:55:01Z</time>
      </trkpt>
      <trkpt lat="49.533927" lon="6.601925">
        <ele>208.0</ele>
        <time>2020-07-09T08:55:03Z</time>
      </trkpt>
      <trkpt lat="49.533839" lon="6.60203">
        <ele>208.0</ele>
        <time>2020-07-09T08:55:05Z</time>
      </trkpt>
      <trkpt lat="49.533746" lon="6.602131">
        <ele>208.0</ele>
        <time>2020-07-09T08:55:07Z</time>
      </trkpt>
      <trkpt lat="49.533657" lon="6.602238">
        <ele>209.0</ele>
        <time>2020-07-09T08:55:09Z</time>
      </trkpt>
      <trkpt lat="49.533572" lon="6.602335">
        <ele>209.0</ele>
        <time>2020-07-09T08:55:11Z</time>
      </trkpt>
      <trkpt lat="49.533483" lon="6.602441">
        <ele>209.0</ele>
        <time>2020-07-09T08:55:13Z</time>
      </trkpt>
      <trkpt lat="49.53344" lon="6.602494">
        <ele>209.0</ele>
        <time>2020-07-09T08:55:14Z</time>
      </trkpt>
      <trkpt lat="49.533319" lon="6.602655">
        <ele>209.0</ele>
        <time>2020-07-09T08:55:17Z</time>
      </trkpt>
      <trkpt lat="49.53323" lon="6.602756">
        <ele>209.0</ele>
        <time>2020-07-09T08:55:19Z</time>
      </trkpt>
      <trkpt lat="49.533145" lon="6.602857">
        <ele>208.0</ele>
        <time>2020-07-09T08:55:21Z</time>
      </trkpt>
      <trkpt lat="49.533062" lon="6.602963">
        <ele>208.0</ele>
        <time>2020-07-09T08:55:23Z</time>
      </trkpt>
      <trkpt lat="49.532974" lon="6.60307">
        <ele>208.0</ele>
        <time>2020-07-09T08:55:25Z</time>
      </trkpt>
      <trkpt lat="49.532886" lon="6.603172">
        <ele>207.0</ele>
        <time>2020-07-09T08:55:27Z</time>
      </trkpt>
      <trkpt lat="49.532801" lon="6.60326">
        <ele>207.0</ele>
        <time>2020-07-09T08:55:29Z</time>
      </trkpt>
      <trkpt lat="49.53267" lon="6.603415">
        <ele>208.0</ele>
        <time>2020-07-09T08:55:32Z</time>
      </trkpt>
      <trkpt lat="49.532587" lon="6.603515">
        <ele>208.0</ele>
        <time>2020-07-09T08:55:34Z</time>
      </trkpt>
      <trkpt lat="49.532464" lon="6.603672">
        <ele>208.0</ele>
        <time>2020-07-09T08:55:37Z</time>
      </trkpt>
      <trkpt lat="49.532382" lon="6.603774">
        <ele>208.0</ele>
        <time>2020-07-09T08:55:39Z</time>
      </trkpt>
      <trkpt lat="49.532299" lon="6.603867">
        <ele>208.0</ele>
        <time>2020-07-09T08:55:41Z</time>
      </trkpt>
      <trkpt lat="49.532213" lon="6.603967">
        <ele>208.0</ele>
        <time>2020-07-09T08:55:43Z</time>
      </trkpt>
      <trkpt lat="49.532128" lon="6.604072">
        <ele>208.0</ele>
        <time>2020-07-09T08:55:45Z</time>
      </trkpt>
      <trkpt lat="49.532045" lon="6.604165">
        <ele>208.0</ele>
        <time>2020-07-09T08:55:47Z</time>
      </trkpt>
      <trkpt lat="49.531958" lon="6.604258">
        <ele>208.0</ele>
        <time>2020-07-09T08:55:49Z</time>
      </trkpt>
      <trkpt lat="49.53187" lon="6.604357">
        <ele>209.0</ele>
        <time>2020-07-09T08:55:51Z</time>
      </trkpt>
      <trkpt lat="49.531779" lon="6.604449">
        <ele>208.0</ele>
        <time>2020-07-09T08:55:53Z</time>
      </trkpt>
      <trkpt lat="49.531695" lon="6.604544">
        <ele>208.0</ele>
        <time>2020-07-09T08:55:55Z</time>
      </trkpt>
      <trkpt lat="49.531608" lon="6.604634">
        <ele>208.0</ele>
        <time>2020-07-09T08:55:57Z</time>
      </trkpt>
      <trkpt lat="49.531521" lon="6.604727">
        <ele>208.0</ele>
        <time>2020-07-09T08:55:59Z</time>
      </trkpt>
      <trkpt lat="49.531388" lon="6.604865">
        <ele>208.0</ele>
        <time>2020-07-09T08:56:02Z</time>
      </trkpt>
      <trkpt lat="49.5313" lon="6.604953">
        <ele>208.0</ele>
        <time>2020-07-09T08:56:04Z</time>
      </trkpt>
      <trkpt lat="49.531212" lon="6.605041">
        <ele>209.0</ele>
        <time>2020-07-09T08:56:06Z</time>
      </trkpt>
      <trkpt lat="49.531122" lon="6.605123">
        <ele>209.0</ele>
        <time>2020-07-09T08:56:08Z</time>
      </trkpt>
      <trkpt lat="49.53103" lon="6.605202">
        <ele>209.0</ele>
        <time>2020-07-09T08:56:10Z</time>
      </trkpt>
      <trkpt lat="49.530942" lon="6.605286">
        <ele>209.0</ele>
        <time>2020-07-09T08:56:12Z</time>
      </trkpt>
      <trkpt lat="49.530852" lon="6.605371">
        <ele>209.0</ele>
        <time>2020-07-09T08:56:14Z</time>
      </trkpt>
      <trkpt lat="49.5308" lon="6.605413">
        <ele>209.0</ele>
        <time>2020-07-09T08:56:15Z</time>
      </trkpt>
      <trkpt lat="49.530657" lon="6.605549">
        <ele>209.0</ele>
        <time>2020-07-09T08:56:18Z</time>
      </trkpt>
      <trkpt lat="49.530521" lon="6.605678">
        <ele>208.0</ele>
        <time>2020-07-09T08:56:21Z</time>
      </trkpt>
      <trkpt lat="49.530424" lon="6.605761">
        <ele>207.0</ele>
        <time>2020-07-09T08:56:23Z</time>
      </trkpt>
      <trkpt lat="49.530331" lon="6.605849">
        <ele>208.0</ele>
        <time>2020-07-09T08:56:25Z</time>
      </trkpt>
      <trkpt lat="49.530242" lon="6.605922">
        <ele>208.0</ele>
        <time>2020-07-09T08:56:27Z</time>
      </trkpt>
      <trkpt lat="49.530151" lon="6.605989">
        <ele>208.0</ele>
        <time>2020-07-09T08:56:29Z</time>
      </trkpt>
      <trkpt lat="49.530006" lon="6.606109">
        <ele>209.0</ele>
        <time>2020-07-09T08:56:32Z</time>
      </trkpt>
      <trkpt lat="49.529964" lon="6.606141">
        <ele>209.0</ele>
        <time>2020-07-09T08:56:33Z</time>
      </trkpt>
      <trkpt lat="49.529824" lon="6.606257">
        <ele>209.0</ele>
        <time>2020-07-09T08:56:36Z</time>
      </trkpt>
      <trkpt lat="49.52973" lon="6.606325">
        <ele>209.0</ele>
        <time>2020-07-09T08:56:38Z</time>
      </trkpt>
      <trkpt lat="49.529637" lon="6.606404">
        <ele>209.0</ele>
        <time>2020-07-09T08:56:40Z</time>
      </trkpt>
      <trkpt lat="49.529499" lon="6.606516">
        <ele>209.0</ele>
        <time>2020-07-09T08:56:43Z</time>
      </trkpt>
      <trkpt lat="49.529408" lon="6.606594">
        <ele>209.0</ele>
        <time>2020-07-09T08:56:45Z</time>
      </trkpt>
      <trkpt lat="49.52931" lon="6.606673">
        <ele>209.0</ele>
        <time>2020-07-09T08:56:47Z</time>
      </trkpt>
      <trkpt lat="49.529217" lon="6.606752">
        <ele>208.0</ele>
        <time>2020-07-09T08:56:49Z</time>
      </trkpt>
      <trkpt lat="49.529128" lon="6.606833">
        <ele>208.0</ele>
        <time>2020-07-09T08:56:51Z</time>
      </trkpt>
      <trkpt lat="49.529038" lon="6.606908">
        <ele>208.0</ele>
        <time>2020-07-09T08:56:53Z</time>
      </trkpt>
      <trkpt lat="49.528948" lon="6.606988">
        <ele>208.0</ele>
        <time>2020-07-09T08:56:55Z</time>
      </trkpt>
      <trkpt lat="49.528845" lon="6.607064">
        <ele>208.0</ele>
        <time>2020-07-09T08:56:57Z</time>
      </trkpt>
      <trkpt lat="49.528704" lon="6.607172">
        <ele>208.0</ele>
        <time>2020-07-09T08:57:00Z</time>
      </trkpt>
      <trkpt lat="49.528659" lon="6.60721">
        <ele>208.0</ele>
        <time>2020-07-09T08:57:01Z</time>
      </trkpt>
      <trkpt lat="49.52852" lon="6.607324">
        <ele>209.0</ele>
        <time>2020-07-09T08:57:04Z</time>
      </trkpt>
      <trkpt lat="49.528382" lon="6.60744">
        <ele>209.0</ele>
        <time>2020-07-09T08:57:07Z</time>
      </trkpt>
      <trkpt lat="49.528289" lon="6.607515">
        <ele>209.0</ele>
        <time>2020-07-09T08:57:09Z</time>
      </trkpt>
      <trkpt lat="49.528198" lon="6.607593">
        <ele>209.0</ele>
        <time>2020-07-09T08:57:11Z</time>
      </trkpt>
      <trkpt lat="49.528052" lon="6.607709">
        <ele>209.0</ele>
        <time>2020-07-09T08:57:14Z</time>
      </trkpt>
      <trkpt lat="49.528006" lon="6.607748">
        <ele>209.0</ele>
        <time>2020-07-09T08:57:15Z</time>
      </trkpt>
      <trkpt lat="49.527881" lon="6.607854">
        <ele>210.0</ele>
        <time>2020-07-09T08:57:18Z</time>
      </trkpt>
      <trkpt lat="49.527744" lon="6.607973">
        <ele>209.0</ele>
        <time>2020-07-09T08:57:21Z</time>
      </trkpt>
      <trkpt lat="49.52766" lon="6.608049">
        <ele>209.0</ele>
        <time>2020-07-09T08:57:23Z</time>
      </trkpt>
      <trkpt lat="49.527569" lon="6.60813">
        <ele>209.0</ele>
        <time>2020-07-09T08:57:25Z</time>
      </trkpt>
      <trkpt lat="49.527469" lon="6.608199">
        <ele>209.0</ele>
        <time>2020-07-09T08:57:27Z</time>
      </trkpt>
      <trkpt lat="49.52738" lon="6.608269">
        <ele>209.0</ele>
        <time>2020-07-09T08:57:29Z</time>
      </trkpt>
      <trkpt lat="49.52729" lon="6.608349">
        <ele>208.0</ele>
        <time>2020-07-09T08:57:31Z</time>
      </trkpt>
      <trkpt lat="49.527197" lon="6.608434">
        <ele>209.0</ele>
        <time>2020-07-09T08:57:33Z</time>
      </trkpt>
      <trkpt lat="49.527112" lon="6.608507">
        <ele>209.0</ele>
        <time>2020-07-09T08:57:35Z</time>
      </trkpt>
      <trkpt lat="49.527024" lon="6.608581">
        <ele>209.0</ele>
        <time>2020-07-09T08:57:37Z</time>
      </trkpt>
      <trkpt lat="49.526888" lon="6.608696">
        <ele>209.0</ele>
        <time>2020-07-09T08:57:40Z</time>
      </trkpt>
      <trkpt lat="49.526801" lon="6.608763">
        <ele>209.0</ele>
        <time>2020-07-09T08:57:42Z</time>
      </trkpt>
      <trkpt lat="49.526714" lon="6.608841">
        <ele>208.0</ele>
        <time>2020-07-09T08:57:44Z</time>
      </trkpt>
      <trkpt lat="49.526621" lon="6.608921">
        <ele>209.0</ele>
        <time>2020-07-09T08:57:46Z</time>
      </trkpt>
      <trkpt lat="49.526532" lon="6.608992">
        <ele>208.0</ele>
        <time>2020-07-09T08:57:48Z</time>
      </trkpt>
      <trkpt lat="49.526448" lon="6.609052">
        <ele>208.0</ele>
        <time>2020-07-09T08:57:50Z</time>
      </trkpt>
      <trkpt lat="49.526322" lon="6.609154">
        <ele>208.0</ele>
        <time>2020-07-09T08:57:53Z</time>
      </trkpt>
      <trkpt lat="49.526239" lon="6.609219">
        <ele>209.0</ele>
        <time>2020-07-09T08:57:55Z</time>
      </trkpt>
      <trkpt lat="49.526111" lon="6.609318">
        <ele>209.0</ele>
        <time>2020-07-09T08:57:58Z</time>
      </trkpt>
      <trkpt lat="49.526026" lon="6.609383">
        <ele>208.0</ele>
        <time>2020-07-09T08:58:00Z</time>
      </trkpt>
      <trkpt lat="49.525906" lon="6.609474">
        <ele>208.0</ele>
        <time>2020-07-09T08:58:03Z</time>
      </trkpt>
      <trkpt lat="49.525836" lon="6.609521">
        <ele>209.0</ele>
        <time>2020-07-09T08:58:05Z</time>
      </trkpt>
      <trkpt lat="49.525726" lon="6.609597">
        <ele>208.0</ele>
        <time>2020-07-09T08:58:08Z</time>
      </trkpt>
      <trkpt lat="49.525696" lon="6.60962">
        <ele>209.0</ele>
        <time>2020-07-09T08:58:09Z</time>
      </trkpt>
      <trkpt lat="49.525597" lon="6.609704">
        <ele>209.0</ele>
        <time>2020-07-09T08:58:12Z</time>
      </trkpt>
      <trkpt lat="49.525522" lon="6.609754">
        <ele>209.0</ele>
        <time>2020-07-09T08:58:14Z</time>
      </trkpt>
      <trkpt lat="49.525451" lon="6.609807">
        <ele>209.0</ele>
        <time>2020-07-09T08:58:16Z</time>
      </trkpt>
      <trkpt lat="49.52538" lon="6.609856">
        <ele>210.0</ele>
        <time>2020-07-09T08:58:18Z</time>
      </trkpt>
      <trkpt lat="49.525317" lon="6.60991">
        <ele>210.0</ele>
        <time>2020-07-09T08:58:20Z</time>
      </trkpt>
      <trkpt lat="49.52525" lon="6.609965">
        <ele>210.0</ele>
        <time>2020-07-09T08:58:22Z</time>
      </trkpt>
      <trkpt lat="49.52517" lon="6.610016">
        <ele>211.0</ele>
        <time>2020-07-09T08:58:24Z</time>
      </trkpt>
      <trkpt lat="49.525104" lon="6.610058">
        <ele>211.0</ele>
        <time>2020-07-09T08:58:26Z</time>
      </trkpt>
      <trkpt lat="49.525034" lon="6.610102">
        <ele>212.0</ele>
        <time>2020-07-09T08:58:28Z</time>
      </trkpt>
      <trkpt lat="49.524959" lon="6.610147">
        <ele>212.0</ele>
        <time>2020-07-09T08:58:30Z</time>
      </trkpt>
      <trkpt lat="49.524881" lon="6.610195">
        <ele>213.0</ele>
        <time>2020-07-09T08:58:32Z</time>
      </trkpt>
      <trkpt lat="49.524816" lon="6.610239">
        <ele>213.0</ele>
        <time>2020-07-09T08:58:34Z</time>
      </trkpt>
      <trkpt lat="49.524739" lon="6.610284">
        <ele>213.0</ele>
        <time>2020-07-09T08:58:36Z</time>
      </trkpt>
      <trkpt lat="49.524652" lon="6.61032">
        <ele>213.0</ele>
        <time>2020-07-09T08:58:38Z</time>
      </trkpt>
      <trkpt lat="49.524571" lon="6.610348">
        <ele>214.0</ele>
        <time>2020-07-09T08:58:40Z</time>
      </trkpt>
      <trkpt lat="49.524485" lon="6.610384">
        <ele>213.0</ele>
        <time>2020-07-09T08:58:42Z</time>
      </trkpt>
      <trkpt lat="49.524368" lon="6.610456">
        <ele>213.0</ele>
        <time>2020-07-09T08:58:45Z</time>
      </trkpt>
      <trkpt lat="49.524285" lon="6.610495">
        <ele>213.0</ele>
        <time>2020-07-09T08:58:47Z</time>
      </trkpt>
      <trkpt lat="49.52416" lon="6.610576">
        <ele>213.0</ele>
        <time>2020-07-09T08:58:50Z</time>
      </trkpt>
      <trkpt lat="49.524083" lon="6.610616">
        <ele>213.0</ele>
        <time>2020-07-09T08:58:52Z</time>
      </trkpt>
      <trkpt lat="49.523967" lon="6.610698">
        <ele>213.0</ele>
        <time>2020-07-09T08:58:55Z</time>
      </trkpt>
      <trkpt lat="49.523879" lon="6.61075">
        <ele>213.0</ele>
        <time>2020-07-09T08:58:57Z</time>
      </trkpt>
      <trkpt lat="49.523747" lon="6.610812">
        <ele>213.0</ele>
        <time>2020-07-09T08:59:00Z</time>
      </trkpt>
      <trkpt lat="49.523661" lon="6.610855">
        <ele>214.0</ele>
        <time>2020-07-09T08:59:02Z</time>
      </trkpt>
      <trkpt lat="49.523577" lon="6.6109">
        <ele>215.0</ele>
        <time>2020-07-09T08:59:04Z</time>
      </trkpt>
      <trkpt lat="49.523488" lon="6.610945">
        <ele>216.0</ele>
        <time>2020-07-09T08:59:06Z</time>
      </trkpt>
      <trkpt lat="49.52339" lon="6.611001">
        <ele>216.0</ele>
        <time>2020-07-09T08:59:08Z</time>
      </trkpt>
      <trkpt lat="49.523294" lon="6.611038">
        <ele>216.0</ele>
        <time>2020-07-09T08:59:10Z</time>
      </trkpt>
      <trkpt lat="49.523199" lon="6.611071">
        <ele>216.0</ele>
        <time>2020-07-09T08:59:12Z</time>
      </trkpt>
      <trkpt lat="49.523104" lon="6.611112">
        <ele>216.0</ele>
        <time>2020-07-09T08:59:14Z</time>
      </trkpt>
      <trkpt lat="49.522969" lon="6.611192">
        <ele>216.0</ele>
        <time>2020-07-09T08:59:17Z</time>
      </trkpt>
      <trkpt lat="49.522874" lon="6.611233">
        <ele>216.0</ele>
        <time>2020-07-09T08:59:19Z</time>
      </trkpt>
      <trkpt lat="49.522825" lon="6.61126">
        <ele>217.0</ele>
        <time>2020-07-09T08:59:20Z</time>
      </trkpt>
      <trkpt lat="49.522695" lon="6.611327">
        <ele>217.0</ele>
        <time>2020-07-09T08:59:23Z</time>
      </trkpt>
      <trkpt lat="49.522563" lon="6.611394">
        <ele>216.0</ele>
        <time>2020-07-09T08:59:26Z</time>
      </trkpt>
      <trkpt lat="49.522476" lon="6.611435">
        <ele>216.0</ele>
        <time>2020-07-09T08:59:28Z</time>
      </trkpt>
      <trkpt lat="49.522391" lon="6.611473">
        <ele>216.0</ele>
        <time>2020-07-09T08:59:30Z</time>
      </trkpt>
      <trkpt lat="49.522303" lon="6.611506">
        <ele>216.0</ele>
        <time>2020-07-09T08:59:32Z</time>
      </trkpt>
      <trkpt lat="49.522174" lon="6.61154">
        <ele>216.0</ele>
        <time>2020-07-09T08:59:35Z</time>
      </trkpt>
      <trkpt lat="49.522086" lon="6.61157">
        <ele>215.0</ele>
        <time>2020-07-09T08:59:37Z</time>
      </trkpt>
      <trkpt lat="49.521945" lon="6.611587">
        <ele>215.0</ele>
        <time>2020-07-09T08:59:40Z</time>
      </trkpt>
      <trkpt lat="49.521848" lon="6.611601">
        <ele>215.0</ele>
        <time>2020-07-09T08:59:42Z</time>
      </trkpt>
      <trkpt lat="49.52169" lon="6.611609">
        <ele>215.0</ele>
        <time>2020-07-09T08:59:45Z</time>
      </trkpt>
      <trkpt lat="49.521588" lon="6.61161">
        <ele>215.0</ele>
        <time>2020-07-09T08:59:47Z</time>
      </trkpt>
      <trkpt lat="49.521481" lon="6.611623">
        <ele>215.0</ele>
        <time>2020-07-09T08:59:49Z</time>
      </trkpt>
      <trkpt lat="49.521363" lon="6.611636">
        <ele>215.0</ele>
        <time>2020-07-09T08:59:51Z</time>
      </trkpt>
      <trkpt lat="49.521256" lon="6.611635">
        <ele>215.0</ele>
        <time>2020-07-09T08:59:53Z</time>
      </trkpt>
      <trkpt lat="49.521152" lon="6.611627">
        <ele>214.0</ele>
        <time>2020-07-09T08:59:55Z</time>
      </trkpt>
      <trkpt lat="49.521037" lon="6.611606">
        <ele>213.0</ele>
        <time>2020-07-09T08:59:57Z</time>
      </trkpt>
      <trkpt lat="49.520985" lon="6.611591">
        <ele>213.0</ele>
        <time>2020-07-09T08:59:58Z</time>
      </trkpt>
      <trkpt lat="49.520818" lon="6.611561">
        <ele>214.0</ele>
        <time>2020-07-09T09:00:01Z</time>
      </trkpt>
      <trkpt lat="49.520716" lon="6.611524">
        <ele>214.0</ele>
        <time>2020-07-09T09:00:03Z</time>
      </trkpt>
      <trkpt lat="49.520606" lon="6.611501">
        <ele>214.0</ele>
        <time>2020-07-09T09:00:05Z</time>
      </trkpt>
      <trkpt lat="49.520498" lon="6.61147">
        <ele>213.0</ele>
        <time>2020-07-09T09:00:07Z</time>
      </trkpt>
      <trkpt lat="49.52039" lon="6.611436">
        <ele>213.0</ele>
        <time>2020-07-09T09:00:09Z</time>
      </trkpt>
      <trkpt lat="49.520239" lon="6.611378">
        <ele>214.0</ele>
        <time>2020-07-09T09:00:12Z</time>
      </trkpt>
      <trkpt lat="49.520152" lon="6.611345">
        <ele>213.0</ele>
        <time>2020-07-09T09:00:14Z</time>
      </trkpt>
      <trkpt lat="49.520066" lon="6.611307">
        <ele>213.0</ele>
        <time>2020-07-09T09:00:16Z</time>
      </trkpt>
      <trkpt lat="49.519934" lon="6.611239">
        <ele>213.0</ele>
        <time>2020-07-09T09:00:19Z</time>
      </trkpt>
      <trkpt lat="49.519843" lon="6.611188">
        <ele>213.0</ele>
        <time>2020-07-09T09:00:21Z</time>
      </trkpt>
      <trkpt lat="49.519701" lon="6.611103">
        <ele>213.0</ele>
        <time>2020-07-09T09:00:24Z</time>
      </trkpt>
      <trkpt lat="49.519602" lon="6.611043">
        <ele>212.0</ele>
        <time>2020-07-09T09:00:26Z</time>
      </trkpt>
      <trkpt lat="49.519454" lon="6.610951">
        <ele>212.0</ele>
        <time>2020-07-09T09:00:29Z</time>
      </trkpt>
      <trkpt lat="49.51935" lon="6.610882">
        <ele>212.0</ele>
        <time>2020-07-09T09:00:31Z</time>
      </trkpt>
      <trkpt lat="49.519249" lon="6.610798">
        <ele>212.0</ele>
        <time>2020-07-09T09:00:33Z</time>
      </trkpt>
      <trkpt lat="49.519156" lon="6.610712">
        <ele>212.0</ele>
        <time>2020-07-09T09:00:35Z</time>
      </trkpt>
      <trkpt lat="49.519061" lon="6.610617">
        <ele>211.0</ele>
        <time>2020-07-09T09:00:37Z</time>
      </trkpt>
      <trkpt lat="49.518963" lon="6.610527">
        <ele>210.0</ele>
        <time>2020-07-09T09:00:39Z</time>
      </trkpt>
      <trkpt lat="49.518856" lon="6.61041">
        <ele>210.0</ele>
        <time>2020-07-09T09:00:41Z</time>
      </trkpt>
      <trkpt lat="49.51876" lon="6.610291">
        <ele>210.0</ele>
        <time>2020-07-09T09:00:43Z</time>
      </trkpt>
      <trkpt lat="49.518615" lon="6.610097">
        <ele>210.0</ele>
        <time>2020-07-09T09:00:46Z</time>
      </trkpt>
      <trkpt lat="49.518521" lon="6.609965">
        <ele>209.0</ele>
        <time>2020-07-09T09:00:48Z</time>
      </trkpt>
      <trkpt lat="49.518475" lon="6.609899">
        <ele>209.0</ele>
        <time>2020-07-09T09:00:49Z</time>
      </trkpt>
      <trkpt lat="49.518346" lon="6.609695">
        <ele>209.0</ele>
        <time>2020-07-09T09:00:52Z</time>
      </trkpt>
      <trkpt lat="49.518266" lon="6.609557">
        <ele>209.0</ele>
        <time>2020-07-09T09:00:54Z</time>
      </trkpt>
      <trkpt lat="49.518153" lon="6.609353">
        <ele>209.0</ele>
        <time>2020-07-09T09:00:57Z</time>
      </trkpt>
      <trkpt lat="49.518079" lon="6.609218">
        <ele>208.0</ele>
        <time>2020-07-09T09:00:59Z</time>
      </trkpt>
      <trkpt lat="49.518016" lon="6.60909">
        <ele>208.0</ele>
        <time>2020-07-09T09:01:01Z</time>
      </trkpt>
      <trkpt lat="49.51795" lon="6.608957">
        <ele>208.0</ele>
        <time>2020-07-09T09:01:03Z</time>
      </trkpt>
      <trkpt lat="49.517852" lon="6.608756">
        <ele>208.0</ele>
        <time>2020-07-09T09:01:06Z</time>
      </trkpt>
      <trkpt lat="49.517781" lon="6.608627">
        <ele>208.0</ele>
        <time>2020-07-09T09:01:08Z</time>
      </trkpt>
      <trkpt lat="49.517717" lon="6.60849">
        <ele>208.0</ele>
        <time>2020-07-09T09:01:10Z</time>
      </trkpt>
      <trkpt lat="49.517625" lon="6.608282">
        <ele>208.0</ele>
        <time>2020-07-09T09:01:13Z</time>
      </trkpt>
      <trkpt lat="49.517565" lon="6.608142">
        <ele>208.0</ele>
        <time>2020-07-09T09:01:15Z</time>
      </trkpt>
      <trkpt lat="49.517506" lon="6.607999">
        <ele>207.0</ele>
        <time>2020-07-09T09:01:17Z</time>
      </trkpt>
      <trkpt lat="49.517452" lon="6.607856">
        <ele>208.0</ele>
        <time>2020-07-09T09:01:19Z</time>
      </trkpt>
      <trkpt lat="49.517426" lon="6.607785">
        <ele>208.0</ele>
        <time>2020-07-09T09:01:20Z</time>
      </trkpt>
      <trkpt lat="49.517335" lon="6.60757">
        <ele>208.0</ele>
        <time>2020-07-09T09:01:23Z</time>
      </trkpt>
      <trkpt lat="49.51727" lon="6.607433">
        <ele>208.0</ele>
        <time>2020-07-09T09:01:25Z</time>
      </trkpt>
      <trkpt lat="49.517213" lon="6.607294">
        <ele>209.0</ele>
        <time>2020-07-09T09:01:27Z</time>
      </trkpt>
      <trkpt lat="49.517159" lon="6.607146">
        <ele>209.0</ele>
        <time>2020-07-09T09:01:29Z</time>
      </trkpt>
      <trkpt lat="49.5171" lon="6.607006">
        <ele>208.0</ele>
        <time>2020-07-09T09:01:31Z</time>
      </trkpt>
      <trkpt lat="49.517039" lon="6.606863">
        <ele>208.0</ele>
        <time>2020-07-09T09:01:33Z</time>
      </trkpt>
      <trkpt lat="49.516988" lon="6.606722">
        <ele>207.0</ele>
        <time>2020-07-09T09:01:35Z</time>
      </trkpt>
      <trkpt lat="49.516904" lon="6.606501">
        <ele>207.0</ele>
        <time>2020-07-09T09:01:38Z</time>
      </trkpt>
      <trkpt lat="49.516876" lon="6.606427">
        <ele>207.0</ele>
        <time>2020-07-09T09:01:39Z</time>
      </trkpt>
      <trkpt lat="49.516792" lon="6.606215">
        <ele>207.0</ele>
        <time>2020-07-09T09:01:42Z</time>
      </trkpt>
      <trkpt lat="49.516701" lon="6.606002">
        <ele>207.0</ele>
        <time>2020-07-09T09:01:45Z</time>
      </trkpt>
      <trkpt lat="49.516641" lon="6.605865">
        <ele>207.0</ele>
        <time>2020-07-09T09:01:47Z</time>
      </trkpt>
      <trkpt lat="49.516614" lon="6.605794">
        <ele>207.0</ele>
        <time>2020-07-09T09:01:48Z</time>
      </trkpt>
      <trkpt lat="49.516527" lon="6.605589">
        <ele>207.0</ele>
        <time>2020-07-09T09:01:51Z</time>
      </trkpt>
      <trkpt lat="49.51647" lon="6.605455">
        <ele>207.0</ele>
        <time>2020-07-09T09:01:53Z</time>
      </trkpt>
      <trkpt lat="49.516387" lon="6.605247">
        <ele>206.0</ele>
        <time>2020-07-09T09:01:56Z</time>
      </trkpt>
      <trkpt lat="49.516328" lon="6.605101">
        <ele>206.0</ele>
        <time>2020-07-09T09:01:58Z</time>
      </trkpt>
      <trkpt lat="49.516266" lon="6.604967">
        <ele>207.0</ele>
        <time>2020-07-09T09:02:00Z</time>
      </trkpt>
      <trkpt lat="49.51621" lon="6.604831">
        <ele>207.0</ele>
        <time>2020-07-09T09:02:02Z</time>
      </trkpt>
      <trkpt lat="49.516153" lon="6.604708">
        <ele>206.0</ele>
        <time>2020-07-09T09:02:04Z</time>
      </trkpt>
      <trkpt lat="49.516087" lon="6.6046">
        <ele>206.0</ele>
        <time>2020-07-09T09:02:06Z</time>
      </trkpt>
      <trkpt lat="49.516028" lon="6.604481">
        <ele>206.0</ele>
        <time>2020-07-09T09:02:08Z</time>
      </trkpt>
      <trkpt lat="49.515968" lon="6.604356">
        <ele>206.0</ele>
        <time>2020-07-09T09:02:10Z</time>
      </trkpt>
      <trkpt lat="49.51591" lon="6.604239">
        <ele>206.0</ele>
        <time>2020-07-09T09:02:12Z</time>
      </trkpt>
      <trkpt lat="49.515851" lon="6.604125">
        <ele>206.0</ele>
        <time>2020-07-09T09:02:14Z</time>
      </trkpt>
      <trkpt lat="49.51582" lon="6.604072">
        <ele>206.0</ele>
        <time>2020-07-09T09:02:15Z</time>
      </trkpt>
      <trkpt lat="49.515722" lon="6.603928">
        <ele>207.0</ele>
        <time>2020-07-09T09:02:18Z</time>
      </trkpt>
      <trkpt lat="49.515656" lon="6.603822">
        <ele>207.0</ele>
        <time>2020-07-09T09:02:20Z</time>
      </trkpt>
      <trkpt lat="49.51559" lon="6.603717">
        <ele>207.0</ele>
        <time>2020-07-09T09:02:22Z</time>
      </trkpt>
      <trkpt lat="49.515493" lon="6.603554">
        <ele>207.0</ele>
        <time>2020-07-09T09:02:25Z</time>
      </trkpt>
      <trkpt lat="49.51542" lon="6.603439">
        <ele>208.0</ele>
        <time>2020-07-09T09:02:27Z</time>
      </trkpt>
      <trkpt lat="49.51535" lon="6.603328">
        <ele>207.0</ele>
        <time>2020-07-09T09:02:29Z</time>
      </trkpt>
      <trkpt lat="49.515312" lon="6.603276">
        <ele>207.0</ele>
        <time>2020-07-09T09:02:30Z</time>
      </trkpt>
      <trkpt lat="49.515213" lon="6.603116">
        <ele>207.0</ele>
        <time>2020-07-09T09:02:33Z</time>
      </trkpt>
      <trkpt lat="49.515148" lon="6.603009">
        <ele>207.0</ele>
        <time>2020-07-09T09:02:35Z</time>
      </trkpt>
      <trkpt lat="49.515081" lon="6.602903">
        <ele>206.0</ele>
        <time>2020-07-09T09:02:37Z</time>
      </trkpt>
      <trkpt lat="49.515014" lon="6.60279">
        <ele>206.0</ele>
        <time>2020-07-09T09:02:39Z</time>
      </trkpt>
      <trkpt lat="49.514924" lon="6.602628">
        <ele>206.0</ele>
        <time>2020-07-09T09:02:42Z</time>
      </trkpt>
      <trkpt lat="49.514864" lon="6.602524">
        <ele>206.0</ele>
        <time>2020-07-09T09:02:44Z</time>
      </trkpt>
      <trkpt lat="49.514839" lon="6.602477">
        <ele>206.0</ele>
        <time>2020-07-09T09:02:45Z</time>
      </trkpt>
      <trkpt lat="49.514746" lon="6.602339">
        <ele>206.0</ele>
        <time>2020-07-09T09:02:48Z</time>
      </trkpt>
      <trkpt lat="49.514688" lon="6.602247">
        <ele>206.0</ele>
        <time>2020-07-09T09:02:50Z</time>
      </trkpt>
      <trkpt lat="49.514635" lon="6.602167">
        <ele>207.0</ele>
        <time>2020-07-09T09:02:52Z</time>
      </trkpt>
      <trkpt lat="49.514611" lon="6.60213">
        <ele>208.0</ele>
        <time>2020-07-09T09:02:53Z</time>
      </trkpt>
      <trkpt lat="49.514538" lon="6.602007">
        <ele>207.0</ele>
        <time>2020-07-09T09:02:56Z</time>
      </trkpt>
      <trkpt lat="49.514483" lon="6.601912">
        <ele>207.0</ele>
        <time>2020-07-09T09:02:58Z</time>
      </trkpt>
      <trkpt lat="49.514414" lon="6.601786">
        <ele>208.0</ele>
        <time>2020-07-09T09:03:01Z</time>
      </trkpt>
      <trkpt lat="49.514366" lon="6.601709">
        <ele>208.0</ele>
        <time>2020-07-09T09:03:03Z</time>
      </trkpt>
      <trkpt lat="49.514321" lon="6.601622">
        <ele>208.0</ele>
        <time>2020-07-09T09:03:05Z</time>
      </trkpt>
      <trkpt lat="49.514271" lon="6.601539">
        <ele>208.0</ele>
        <time>2020-07-09T09:03:07Z</time>
      </trkpt>
      <trkpt lat="49.5142" lon="6.60142">
        <ele>208.0</ele>
        <time>2020-07-09T09:03:10Z</time>
      </trkpt>
      <trkpt lat="49.51415" lon="6.601345">
        <ele>209.0</ele>
        <time>2020-07-09T09:03:12Z</time>
      </trkpt>
      <trkpt lat="49.514127" lon="6.601307">
        <ele>209.0</ele>
        <time>2020-07-09T09:03:13Z</time>
      </trkpt>
      <trkpt lat="49.514059" lon="6.601186">
        <ele>209.0</ele>
        <time>2020-07-09T09:03:16Z</time>
      </trkpt>
      <trkpt lat="49.514009" lon="6.601111">
        <ele>209.0</ele>
        <time>2020-07-09T09:03:18Z</time>
      </trkpt>
      <trkpt lat="49.513954" lon="6.60103">
        <ele>210.0</ele>
        <time>2020-07-09T09:03:20Z</time>
      </trkpt>
      <trkpt lat="49.513901" lon="6.600945">
        <ele>210.0</ele>
        <time>2020-07-09T09:03:22Z</time>
      </trkpt>
      <trkpt lat="49.513833" lon="6.600825">
        <ele>210.0</ele>
        <time>2020-07-09T09:03:25Z</time>
      </trkpt>
      <trkpt lat="49.513791" lon="6.600765">
        <ele>210.0</ele>
        <time>2020-07-09T09:03:27Z</time>
      </trkpt>
      <trkpt lat="49.513759" lon="6.600712">
        <ele>210.0</ele>
        <time>2020-07-09T09:03:29Z</time>
      </trkpt>
      <trkpt lat="49.513743" lon="6.600687">
        <ele>211.0</ele>
        <time>2020-07-09T09:03:31Z</time>
      </trkpt>
      <trkpt lat="49.513737" lon="6.600685">
        <ele>211.0</ele>
        <time>2020-07-09T09:03:33Z</time>
      </trkpt>
      <trkpt lat="49.513734" lon="6.600684">
        <ele>211.0</ele>
        <time>2020-07-09T09:03:36Z</time>
      </trkpt>
      <trkpt lat="49.513732" lon="6.600691">
        <ele>211.0</ele>
        <time>2020-07-09T09:03:38Z</time>
      </trkpt>
      <trkpt lat="49.51373" lon="6.600689">
        <ele>211.0</ele>
        <time>2020-07-09T09:05:28Z</time>
      </trkpt>
      <trkpt lat="49.51373" lon="6.600689">
        <ele>211.0</ele>
        <time>2020-07-09T09:05:30Z</time>
      </trkpt>
      <trkpt lat="49.513735" lon="6.600669">
        <ele>212.0</ele>
        <time>2020-07-09T09:05:32Z</time>
      </trkpt>
      <trkpt lat="49.513732" lon="6.600679">
        <ele>212.0</ele>
        <time>2020-07-09T09:05:34Z</time>
      </trkpt>
      <trkpt lat="49.513733" lon="6.600679">
        <ele>212.0</ele>
        <time>2020-07-09T09:05:36Z</time>
      </trkpt>
      <trkpt lat="49.513733" lon="6.600679">
        <ele>212.0</ele>
        <time>2020-07-09T09:05:38Z</time>
      </trkpt>
      <trkpt lat="49.513733" lon="6.600679">
        <ele>212.0</ele>
        <time>2020-07-09T09:05:41Z</time>
      </trkpt>
      <trkpt lat="49.513733" lon="6.600679">
        <ele>212.0</ele>
        <time>2020-07-09T09:05:43Z</time>
      </trkpt>
      <trkpt lat="49.513733" lon="6.600679">
        <ele>212.0</ele>
        <time>2020-07-09T09:05:45Z</time>
      </trkpt>
      <trkpt lat="49.513733" lon="6.600679">
        <ele>212.0</ele>
        <time>2020-07-09T09:05:47Z</time>
      </trkpt>
      <trkpt lat="49.513733" lon="6.600679">
        <ele>212.0</ele>
        <time>2020-07-09T09:05:49Z</time>
      </trkpt>
      <trkpt lat="49.513733" lon="6.600679">
        <ele>212.0</ele>
        <time>2020-07-09T09:05:51Z</time>
      </trkpt>
      <trkpt lat="49.513708" lon="6.600662">
        <ele>211.0</ele>
        <time>2020-07-09T09:05:53Z</time>
      </trkpt>
      <trkpt lat="49.513678" lon="6.600617">
        <ele>211.0</ele>
        <time>2020-07-09T09:05:55Z</time>
      </trkpt>
      <trkpt lat="49.513642" lon="6.600561">
        <ele>211.0</ele>
        <time>2020-07-09T09:05:57Z</time>
      </trkpt>
      <trkpt lat="49.513603" lon="6.600496">
        <ele>212.0</ele>
        <time>2020-07-09T09:05:59Z</time>
      </trkpt>
      <trkpt lat="49.513554" lon="6.600431">
        <ele>213.0</ele>
        <time>2020-07-09T09:06:01Z</time>
      </trkpt>
      <trkpt lat="49.5135" lon="6.600347">
        <ele>212.0</ele>
        <time>2020-07-09T09:06:03Z</time>
      </trkpt>
      <trkpt lat="49.513435" lon="6.600249">
        <ele>213.0</ele>
        <time>2020-07-09T09:06:05Z</time>
      </trkpt>
      <trkpt lat="49.513374" lon="6.600165">
        <ele>214.0</ele>
        <time>2020-07-09T09:06:07Z</time>
      </trkpt>
      <trkpt lat="49.513313" lon="6.600089">
        <ele>214.0</ele>
        <time>2020-07-09T09:06:09Z</time>
      </trkpt>
      <trkpt lat="49.513243" lon="6.599989">
        <ele>215.0</ele>
        <time>2020-07-09T09:06:11Z</time>
      </trkpt>
      <trkpt lat="49.513182" lon="6.59989">
        <ele>215.0</ele>
        <time>2020-07-09T09:06:13Z</time>
      </trkpt>
      <trkpt lat="49.513122" lon="6.59979">
        <ele>216.0</ele>
        <time>2020-07-09T09:06:15Z</time>
      </trkpt>
      <trkpt lat="49.513062" lon="6.599676">
        <ele>215.0</ele>
        <time>2020-07-09T09:06:17Z</time>
      </trkpt>
      <trkpt lat="49.512994" lon="6.59957">
        <ele>215.0</ele>
        <time>2020-07-09T09:06:19Z</time>
      </trkpt>
      <trkpt lat="49.512925" lon="6.599469">
        <ele>215.0</ele>
        <time>2020-07-09T09:06:21Z</time>
      </trkpt>
      <trkpt lat="49.51286" lon="6.599362">
        <ele>216.0</ele>
        <time>2020-07-09T09:06:23Z</time>
      </trkpt>
      <trkpt lat="49.512791" lon="6.599255">
        <ele>216.0</ele>
        <time>2020-07-09T09:06:25Z</time>
      </trkpt>
      <trkpt lat="49.51272" lon="6.599152">
        <ele>216.0</ele>
        <time>2020-07-09T09:06:27Z</time>
      </trkpt>
      <trkpt lat="49.512644" lon="6.599063">
        <ele>215.0</ele>
        <time>2020-07-09T09:06:29Z</time>
      </trkpt>
      <trkpt lat="49.51257" lon="6.598982">
        <ele>215.0</ele>
        <time>2020-07-09T09:06:31Z</time>
      </trkpt>
      <trkpt lat="49.512504" lon="6.598889">
        <ele>215.0</ele>
        <time>2020-07-09T09:06:33Z</time>
      </trkpt>
      <trkpt lat="49.512436" lon="6.598789">
        <ele>215.0</ele>
        <time>2020-07-09T09:06:35Z</time>
      </trkpt>
      <trkpt lat="49.512366" lon="6.598692">
        <ele>214.0</ele>
        <time>2020-07-09T09:06:37Z</time>
      </trkpt>
      <trkpt lat="49.512299" lon="6.598603">
        <ele>215.0</ele>
        <time>2020-07-09T09:06:39Z</time>
      </trkpt>
      <trkpt lat="49.512228" lon="6.598515">
        <ele>215.0</ele>
        <time>2020-07-09T09:06:41Z</time>
      </trkpt>
      <trkpt lat="49.512152" lon="6.598421">
        <ele>215.0</ele>
        <time>2020-07-09T09:06:43Z</time>
      </trkpt>
      <trkpt lat="49.512073" lon="6.598323">
        <ele>216.0</ele>
        <time>2020-07-09T09:06:45Z</time>
      </trkpt>
      <trkpt lat="49.511996" lon="6.59823">
        <ele>215.0</ele>
        <time>2020-07-09T09:06:47Z</time>
      </trkpt>
      <trkpt lat="49.51192" lon="6.598139">
        <ele>215.0</ele>
        <time>2020-07-09T09:06:49Z</time>
      </trkpt>
      <trkpt lat="49.511841" lon="6.59804">
        <ele>215.0</ele>
        <time>2020-07-09T09:06:51Z</time>
      </trkpt>
      <trkpt lat="49.511755" lon="6.597933">
        <ele>214.0</ele>
        <time>2020-07-09T09:06:53Z</time>
      </trkpt>
      <trkpt lat="49.511671" lon="6.597843">
        <ele>214.0</ele>
        <time>2020-07-09T09:06:55Z</time>
      </trkpt>
      <trkpt lat="49.511594" lon="6.597752">
        <ele>214.0</ele>
        <time>2020-07-09T09:06:57Z</time>
      </trkpt>
      <trkpt lat="49.51151" lon="6.597649">
        <ele>214.0</ele>
        <time>2020-07-09T09:06:59Z</time>
      </trkpt>
      <trkpt lat="49.511428" lon="6.597558">
        <ele>214.0</ele>
        <time>2020-07-09T09:07:01Z</time>
      </trkpt>
      <trkpt lat="49.511344" lon="6.597459">
        <ele>214.0</ele>
        <time>2020-07-09T09:07:03Z</time>
      </trkpt>
      <trkpt lat="49.511263" lon="6.597366">
        <ele>215.0</ele>
        <time>2020-07-09T09:07:05Z</time>
      </trkpt>
      <trkpt lat="49.511133" lon="6.597228">
        <ele>216.0</ele>
        <time>2020-07-09T09:07:08Z</time>
      </trkpt>
      <trkpt lat="49.511039" lon="6.597136">
        <ele>216.0</ele>
        <time>2020-07-09T09:07:10Z</time>
      </trkpt>
      <trkpt lat="49.510917" lon="6.597008">
        <ele>216.0</ele>
        <time>2020-07-09T09:07:13Z</time>
      </trkpt>
      <trkpt lat="49.510835" lon="6.596916">
        <ele>216.0</ele>
        <time>2020-07-09T09:07:15Z</time>
      </trkpt>
      <trkpt lat="49.510757" lon="6.596828">
        <ele>215.0</ele>
        <time>2020-07-09T09:07:17Z</time>
      </trkpt>
      <trkpt lat="49.51063" lon="6.596713">
        <ele>214.0</ele>
        <time>2020-07-09T09:07:20Z</time>
      </trkpt>
      <trkpt lat="49.510542" lon="6.596629">
        <ele>215.0</ele>
        <time>2020-07-09T09:07:22Z</time>
      </trkpt>
      <trkpt lat="49.510454" lon="6.596548">
        <ele>215.0</ele>
        <time>2020-07-09T09:07:24Z</time>
      </trkpt>
      <trkpt lat="49.510368" lon="6.596466">
        <ele>214.0</ele>
        <time>2020-07-09T09:07:26Z</time>
      </trkpt>
      <trkpt lat="49.510236" lon="6.596335">
        <ele>215.0</ele>
        <time>2020-07-09T09:07:29Z</time>
      </trkpt>
      <trkpt lat="49.510156" lon="6.596257">
        <ele>215.0</ele>
        <time>2020-07-09T09:07:31Z</time>
      </trkpt>
      <trkpt lat="49.510067" lon="6.596188">
        <ele>215.0</ele>
        <time>2020-07-09T09:07:33Z</time>
      </trkpt>
      <trkpt lat="49.509979" lon="6.596121">
        <ele>215.0</ele>
        <time>2020-07-09T09:07:35Z</time>
      </trkpt>
      <trkpt lat="49.509888" lon="6.596057">
        <ele>215.0</ele>
        <time>2020-07-09T09:07:37Z</time>
      </trkpt>
      <trkpt lat="49.509798" lon="6.59599">
        <ele>216.0</ele>
        <time>2020-07-09T09:07:39Z</time>
      </trkpt>
      <trkpt lat="49.509706" lon="6.595924">
        <ele>216.0</ele>
        <time>2020-07-09T09:07:41Z</time>
      </trkpt>
      <trkpt lat="49.50962" lon="6.595848">
        <ele>217.0</ele>
        <time>2020-07-09T09:07:43Z</time>
      </trkpt>
      <trkpt lat="49.509527" lon="6.595777">
        <ele>217.0</ele>
        <time>2020-07-09T09:07:45Z</time>
      </trkpt>
      <trkpt lat="49.509434" lon="6.595708">
        <ele>217.0</ele>
        <time>2020-07-09T09:07:47Z</time>
      </trkpt>
      <trkpt lat="49.50934" lon="6.595639">
        <ele>217.0</ele>
        <time>2020-07-09T09:07:49Z</time>
      </trkpt>
      <trkpt lat="49.509246" lon="6.595566">
        <ele>218.0</ele>
        <time>2020-07-09T09:07:51Z</time>
      </trkpt>
      <trkpt lat="49.509146" lon="6.595503">
        <ele>219.0</ele>
        <time>2020-07-09T09:07:53Z</time>
      </trkpt>
      <trkpt lat="49.509013" lon="6.595407">
        <ele>218.0</ele>
        <time>2020-07-09T09:07:56Z</time>
      </trkpt>
      <trkpt lat="49.508924" lon="6.595336">
        <ele>218.0</ele>
        <time>2020-07-09T09:07:58Z</time>
      </trkpt>
      <trkpt lat="49.508877" lon="6.5953">
        <ele>218.0</ele>
        <time>2020-07-09T09:07:59Z</time>
      </trkpt>
      <trkpt lat="49.508689" lon="6.595177">
        <ele>217.0</ele>
        <time>2020-07-09T09:08:03Z</time>
      </trkpt>
      <trkpt lat="49.508597" lon="6.595114">
        <ele>217.0</ele>
        <time>2020-07-09T09:08:05Z</time>
      </trkpt>
      <trkpt lat="49.508509" lon="6.595042">
        <ele>216.0</ele>
        <time>2020-07-09T09:08:07Z</time>
      </trkpt>
      <trkpt lat="49.508423" lon="6.594973">
        <ele>216.0</ele>
        <time>2020-07-09T09:08:09Z</time>
      </trkpt>
      <trkpt lat="49.508336" lon="6.594915">
        <ele>216.0</ele>
        <time>2020-07-09T09:08:11Z</time>
      </trkpt>
      <trkpt lat="49.508249" lon="6.594854">
        <ele>215.0</ele>
        <time>2020-07-09T09:08:13Z</time>
      </trkpt>
      <trkpt lat="49.508163" lon="6.594778">
        <ele>215.0</ele>
        <time>2020-07-09T09:08:15Z</time>
      </trkpt>
      <trkpt lat="49.508078" lon="6.594706">
        <ele>214.0</ele>
        <time>2020-07-09T09:08:17Z</time>
      </trkpt>
      <trkpt lat="49.507996" lon="6.59464">
        <ele>214.0</ele>
        <time>2020-07-09T09:08:19Z</time>
      </trkpt>
      <trkpt lat="49.507912" lon="6.594567">
        <ele>215.0</ele>
        <time>2020-07-09T09:08:21Z</time>
      </trkpt>
      <trkpt lat="49.507831" lon="6.594498">
        <ele>215.0</ele>
        <time>2020-07-09T09:08:23Z</time>
      </trkpt>
      <trkpt lat="49.507713" lon="6.594389">
        <ele>216.0</ele>
        <time>2020-07-09T09:08:26Z</time>
      </trkpt>
      <trkpt lat="49.507634" lon="6.594317">
        <ele>216.0</ele>
        <time>2020-07-09T09:08:28Z</time>
      </trkpt>
      <trkpt lat="49.507554" lon="6.594239">
        <ele>216.0</ele>
        <time>2020-07-09T09:08:30Z</time>
      </trkpt>
      <trkpt lat="49.507482" lon="6.594154">
        <ele>215.0</ele>
        <time>2020-07-09T09:08:32Z</time>
      </trkpt>
      <trkpt lat="49.507443" lon="6.594105">
        <ele>215.0</ele>
        <time>2020-07-09T09:08:33Z</time>
      </trkpt>
      <trkpt lat="49.507338" lon="6.593972">
        <ele>215.0</ele>
        <time>2020-07-09T09:08:36Z</time>
      </trkpt>
      <trkpt lat="49.507269" lon="6.593891">
        <ele>214.0</ele>
        <time>2020-07-09T09:08:38Z</time>
      </trkpt>
      <trkpt lat="49.507205" lon="6.5938">
        <ele>214.0</ele>
        <time>2020-07-09T09:08:40Z</time>
      </trkpt>
      <trkpt lat="49.507106" lon="6.593655">
        <ele>214.0</ele>
        <time>2020-07-09T09:08:43Z</time>
      </trkpt>
      <trkpt lat="49.507044" lon="6.593559">
        <ele>214.0</ele>
        <time>2020-07-09T09:08:45Z</time>
      </trkpt>
      <trkpt lat="49.506951" lon="6.593411">
        <ele>214.0</ele>
        <time>2020-07-09T09:08:48Z</time>
      </trkpt>
      <trkpt lat="49.506892" lon="6.593313">
        <ele>213.0</ele>
        <time>2020-07-09T09:08:50Z</time>
      </trkpt>
      <trkpt lat="49.506801" lon="6.593163">
        <ele>214.0</ele>
        <time>2020-07-09T09:08:53Z</time>
      </trkpt>
      <trkpt lat="49.506769" lon="6.593113">
        <ele>214.0</ele>
        <time>2020-07-09T09:08:54Z</time>
      </trkpt>
      <trkpt lat="49.506691" lon="6.592955">
        <ele>214.0</ele>
        <time>2020-07-09T09:08:57Z</time>
      </trkpt>
      <trkpt lat="49.506635" lon="6.592853">
        <ele>214.0</ele>
        <time>2020-07-09T09:08:59Z</time>
      </trkpt>
      <trkpt lat="49.506581" lon="6.592753">
        <ele>214.0</ele>
        <time>2020-07-09T09:09:01Z</time>
      </trkpt>
      <trkpt lat="49.506531" lon="6.592647">
        <ele>214.0</ele>
        <time>2020-07-09T09:09:03Z</time>
      </trkpt>
      <trkpt lat="49.506459" lon="6.59249">
        <ele>214.0</ele>
        <time>2020-07-09T09:09:06Z</time>
      </trkpt>
      <trkpt lat="49.506418" lon="6.59239">
        <ele>214.0</ele>
        <time>2020-07-09T09:09:08Z</time>
      </trkpt>
      <trkpt lat="49.506368" lon="6.592294">
        <ele>214.0</ele>
        <time>2020-07-09T09:09:10Z</time>
      </trkpt>
      <trkpt lat="49.506317" lon="6.592192">
        <ele>215.0</ele>
        <time>2020-07-09T09:09:12Z</time>
      </trkpt>
      <trkpt lat="49.506264" lon="6.592097">
        <ele>215.0</ele>
        <time>2020-07-09T09:09:14Z</time>
      </trkpt>
      <trkpt lat="49.506217" lon="6.591995">
        <ele>215.0</ele>
        <time>2020-07-09T09:09:16Z</time>
      </trkpt>
      <trkpt lat="49.50617" lon="6.59191">
        <ele>214.0</ele>
        <time>2020-07-09T09:09:18Z</time>
      </trkpt>
      <trkpt lat="49.506118" lon="6.591814">
        <ele>214.0</ele>
        <time>2020-07-09T09:09:20Z</time>
      </trkpt>
      <trkpt lat="49.50607" lon="6.591715">
        <ele>215.0</ele>
        <time>2020-07-09T09:09:22Z</time>
      </trkpt>
      <trkpt lat="49.506042" lon="6.591664">
        <ele>215.0</ele>
        <time>2020-07-09T09:09:23Z</time>
      </trkpt>
      <trkpt lat="49.50596" lon="6.591522">
        <ele>215.0</ele>
        <time>2020-07-09T09:09:26Z</time>
      </trkpt>
      <trkpt lat="49.505888" lon="6.591376">
        <ele>216.0</ele>
        <time>2020-07-09T09:09:29Z</time>
      </trkpt>
      <trkpt lat="49.505839" lon="6.591291">
        <ele>215.0</ele>
        <time>2020-07-09T09:09:31Z</time>
      </trkpt>
      <trkpt lat="49.505781" lon="6.59121">
        <ele>215.0</ele>
        <time>2020-07-09T09:09:33Z</time>
      </trkpt>
      <trkpt lat="49.505713" lon="6.591129">
        <ele>215.0</ele>
        <time>2020-07-09T09:09:35Z</time>
      </trkpt>
      <trkpt lat="49.505643" lon="6.591054">
        <ele>215.0</ele>
        <time>2020-07-09T09:09:37Z</time>
      </trkpt>
      <trkpt lat="49.505573" lon="6.59098">
        <ele>215.0</ele>
        <time>2020-07-09T09:09:39Z</time>
      </trkpt>
      <trkpt lat="49.505503" lon="6.590897">
        <ele>215.0</ele>
        <time>2020-07-09T09:09:41Z</time>
      </trkpt>
      <trkpt lat="49.505397" lon="6.590787">
        <ele>215.0</ele>
        <time>2020-07-09T09:09:44Z</time>
      </trkpt>
      <trkpt lat="49.505319" lon="6.590697">
        <ele>216.0</ele>
        <time>2020-07-09T09:09:46Z</time>
      </trkpt>
      <trkpt lat="49.50524" lon="6.590601">
        <ele>215.0</ele>
        <time>2020-07-09T09:09:48Z</time>
      </trkpt>
      <trkpt lat="49.505158" lon="6.590528">
        <ele>216.0</ele>
        <time>2020-07-09T09:09:50Z</time>
      </trkpt>
      <trkpt lat="49.505083" lon="6.590455">
        <ele>216.0</ele>
        <time>2020-07-09T09:09:52Z</time>
      </trkpt>
      <trkpt lat="49.505001" lon="6.590381">
        <ele>216.0</ele>
        <time>2020-07-09T09:09:54Z</time>
      </trkpt>
      <trkpt lat="49.504918" lon="6.590314">
        <ele>216.0</ele>
        <time>2020-07-09T09:09:56Z</time>
      </trkpt>
      <trkpt lat="49.504833" lon="6.590245">
        <ele>216.0</ele>
        <time>2020-07-09T09:09:58Z</time>
      </trkpt>
      <trkpt lat="49.504745" lon="6.590178">
        <ele>216.0</ele>
        <time>2020-07-09T09:10:00Z</time>
      </trkpt>
      <trkpt lat="49.504658" lon="6.590109">
        <ele>217.0</ele>
        <time>2020-07-09T09:10:02Z</time>
      </trkpt>
      <trkpt lat="49.504562" lon="6.590058">
        <ele>217.0</ele>
        <time>2020-07-09T09:10:04Z</time>
      </trkpt>
      <trkpt lat="49.50446" lon="6.590005">
        <ele>218.0</ele>
        <time>2020-07-09T09:10:06Z</time>
      </trkpt>
      <trkpt lat="49.504304" lon="6.589926">
        <ele>217.0</ele>
        <time>2020-07-09T09:10:09Z</time>
      </trkpt>
      <trkpt lat="49.504196" lon="6.589863">
        <ele>217.0</ele>
        <time>2020-07-09T09:10:11Z</time>
      </trkpt>
      <trkpt lat="49.504146" lon="6.589837">
        <ele>216.0</ele>
        <time>2020-07-09T09:10:12Z</time>
      </trkpt>
      <trkpt lat="49.503918" lon="6.589739">
        <ele>216.0</ele>
        <time>2020-07-09T09:10:16Z</time>
      </trkpt>
      <trkpt lat="49.503861" lon="6.589721">
        <ele>216.0</ele>
        <time>2020-07-09T09:10:17Z</time>
      </trkpt>
      <trkpt lat="49.503693" lon="6.589674">
        <ele>216.0</ele>
        <time>2020-07-09T09:10:20Z</time>
      </trkpt>
      <trkpt lat="49.503528" lon="6.589647">
        <ele>215.0</ele>
        <time>2020-07-09T09:10:23Z</time>
      </trkpt>
      <trkpt lat="49.503418" lon="6.58963">
        <ele>216.0</ele>
        <time>2020-07-09T09:10:25Z</time>
      </trkpt>
      <trkpt lat="49.503306" lon="6.589624">
        <ele>216.0</ele>
        <time>2020-07-09T09:10:27Z</time>
      </trkpt>
      <trkpt lat="49.5032" lon="6.589624">
        <ele>215.0</ele>
        <time>2020-07-09T09:10:29Z</time>
      </trkpt>
      <trkpt lat="49.503032" lon="6.589635">
        <ele>216.0</ele>
        <time>2020-07-09T09:10:32Z</time>
      </trkpt>
      <trkpt lat="49.502923" lon="6.589644">
        <ele>215.0</ele>
        <time>2020-07-09T09:10:34Z</time>
      </trkpt>
      <trkpt lat="49.502815" lon="6.589656">
        <ele>215.0</ele>
        <time>2020-07-09T09:10:36Z</time>
      </trkpt>
      <trkpt lat="49.502707" lon="6.58967">
        <ele>215.0</ele>
        <time>2020-07-09T09:10:38Z</time>
      </trkpt>
      <trkpt lat="49.502653" lon="6.589674">
        <ele>215.0</ele>
        <time>2020-07-09T09:10:39Z</time>
      </trkpt>
      <trkpt lat="49.502489" lon="6.589718">
        <ele>214.0</ele>
        <time>2020-07-09T09:10:42Z</time>
      </trkpt>
      <trkpt lat="49.502391" lon="6.589748">
        <ele>214.0</ele>
        <time>2020-07-09T09:10:44Z</time>
      </trkpt>
      <trkpt lat="49.502282" lon="6.589793">
        <ele>214.0</ele>
        <time>2020-07-09T09:10:46Z</time>
      </trkpt>
      <trkpt lat="49.502177" lon="6.589832">
        <ele>213.0</ele>
        <time>2020-07-09T09:10:48Z</time>
      </trkpt>
      <trkpt lat="49.502074" lon="6.589866">
        <ele>213.0</ele>
        <time>2020-07-09T09:10:50Z</time>
      </trkpt>
      <trkpt lat="49.501979" lon="6.589906">
        <ele>213.0</ele>
        <time>2020-07-09T09:10:52Z</time>
      </trkpt>
      <trkpt lat="49.501892" lon="6.589955">
        <ele>214.0</ele>
        <time>2020-07-09T09:10:54Z</time>
      </trkpt>
      <trkpt lat="49.501764" lon="6.590037">
        <ele>213.0</ele>
        <time>2020-07-09T09:10:57Z</time>
      </trkpt>
      <trkpt lat="49.50168" lon="6.5901">
        <ele>213.0</ele>
        <time>2020-07-09T09:10:59Z</time>
      </trkpt>
      <trkpt lat="49.5016" lon="6.590156">
        <ele>212.0</ele>
        <time>2020-07-09T09:11:01Z</time>
      </trkpt>
      <trkpt lat="49.501526" lon="6.590231">
        <ele>212.0</ele>
        <time>2020-07-09T09:11:03Z</time>
      </trkpt>
      <trkpt lat="49.501426" lon="6.590324">
        <ele>212.0</ele>
        <time>2020-07-09T09:11:06Z</time>
      </trkpt>
      <trkpt lat="49.501319" lon="6.590432">
        <ele>213.0</ele>
        <time>2020-07-09T09:11:09Z</time>
      </trkpt>
      <trkpt lat="49.501253" lon="6.590508">
        <ele>213.0</ele>
        <time>2020-07-09T09:11:11Z</time>
      </trkpt>
      <trkpt lat="49.501187" lon="6.590584">
        <ele>213.0</ele>
        <time>2020-07-09T09:11:13Z</time>
      </trkpt>
      <trkpt lat="49.501119" lon="6.590669">
        <ele>214.0</ele>
        <time>2020-07-09T09:11:15Z</time>
      </trkpt>
      <trkpt lat="49.501093" lon="6.590712">
        <ele>214.0</ele>
        <time>2020-07-09T09:11:16Z</time>
      </trkpt>
      <trkpt lat="49.501001" lon="6.590863">
        <ele>214.0</ele>
        <time>2020-07-09T09:11:19Z</time>
      </trkpt>
      <trkpt lat="49.500937" lon="6.590952">
        <ele>214.0</ele>
        <time>2020-07-09T09:11:21Z</time>
      </trkpt>
      <trkpt lat="49.500879" lon="6.591051">
        <ele>213.0</ele>
        <time>2020-07-09T09:11:23Z</time>
      </trkpt>
      <trkpt lat="49.500823" lon="6.591141">
        <ele>213.0</ele>
        <time>2020-07-09T09:11:25Z</time>
      </trkpt>
      <trkpt lat="49.500735" lon="6.591298">
        <ele>213.0</ele>
        <time>2020-07-09T09:11:28Z</time>
      </trkpt>
      <trkpt lat="49.500687" lon="6.591409">
        <ele>213.0</ele>
        <time>2020-07-09T09:11:30Z</time>
      </trkpt>
      <trkpt lat="49.50066" lon="6.591469">
        <ele>213.0</ele>
        <time>2020-07-09T09:11:31Z</time>
      </trkpt>
      <trkpt lat="49.500583" lon="6.591641">
        <ele>213.0</ele>
        <time>2020-07-09T09:11:34Z</time>
      </trkpt>
      <trkpt lat="49.500523" lon="6.591766">
        <ele>213.0</ele>
        <time>2020-07-09T09:11:36Z</time>
      </trkpt>
      <trkpt lat="49.500474" lon="6.59189">
        <ele>213.0</ele>
        <time>2020-07-09T09:11:38Z</time>
      </trkpt>
      <trkpt lat="49.500419" lon="6.592004">
        <ele>213.0</ele>
        <time>2020-07-09T09:11:40Z</time>
      </trkpt>
      <trkpt lat="49.500374" lon="6.592126">
        <ele>214.0</ele>
        <time>2020-07-09T09:11:42Z</time>
      </trkpt>
      <trkpt lat="49.500315" lon="6.592252">
        <ele>213.0</ele>
        <time>2020-07-09T09:11:44Z</time>
      </trkpt>
      <trkpt lat="49.500236" lon="6.59245">
        <ele>213.0</ele>
        <time>2020-07-09T09:11:47Z</time>
      </trkpt>
      <trkpt lat="49.50018" lon="6.592596">
        <ele>212.0</ele>
        <time>2020-07-09T09:11:49Z</time>
      </trkpt>
      <trkpt lat="49.500128" lon="6.592741">
        <ele>212.0</ele>
        <time>2020-07-09T09:11:51Z</time>
      </trkpt>
      <trkpt lat="49.500074" lon="6.592889">
        <ele>211.0</ele>
        <time>2020-07-09T09:11:53Z</time>
      </trkpt>
      <trkpt lat="49.50005" lon="6.592958">
        <ele>211.0</ele>
        <time>2020-07-09T09:11:54Z</time>
      </trkpt>
      <trkpt lat="49.499941" lon="6.59322">
        <ele>210.0</ele>
        <time>2020-07-09T09:11:58Z</time>
      </trkpt>
      <trkpt lat="49.49989" lon="6.59335">
        <ele>210.0</ele>
        <time>2020-07-09T09:12:00Z</time>
      </trkpt>
      <trkpt lat="49.499828" lon="6.593484">
        <ele>210.0</ele>
        <time>2020-07-09T09:12:02Z</time>
      </trkpt>
      <trkpt lat="49.499766" lon="6.593626">
        <ele>210.0</ele>
        <time>2020-07-09T09:12:04Z</time>
      </trkpt>
      <trkpt lat="49.499696" lon="6.593757">
        <ele>209.0</ele>
        <time>2020-07-09T09:12:06Z</time>
      </trkpt>
      <trkpt lat="49.499631" lon="6.59389">
        <ele>209.0</ele>
        <time>2020-07-09T09:12:08Z</time>
      </trkpt>
      <trkpt lat="49.499597" lon="6.593953">
        <ele>209.0</ele>
        <time>2020-07-09T09:12:09Z</time>
      </trkpt>
      <trkpt lat="49.499483" lon="6.594131">
        <ele>209.0</ele>
        <time>2020-07-09T09:12:12Z</time>
      </trkpt>
      <trkpt lat="49.499369" lon="6.594312">
        <ele>209.0</ele>
        <time>2020-07-09T09:12:15Z</time>
      </trkpt>
      <trkpt lat="49.499293" lon="6.594426">
        <ele>209.0</ele>
        <time>2020-07-09T09:12:17Z</time>
      </trkpt>
      <trkpt lat="49.499218" lon="6.594539">
        <ele>209.0</ele>
        <time>2020-07-09T09:12:19Z</time>
      </trkpt>
      <trkpt lat="49.499135" lon="6.594645">
        <ele>209.0</ele>
        <time>2020-07-09T09:12:21Z</time>
      </trkpt>
      <trkpt lat="49.499046" lon="6.594738">
        <ele>210.0</ele>
        <time>2020-07-09T09:12:23Z</time>
      </trkpt>
      <trkpt lat="49.498955" lon="6.59482">
        <ele>210.0</ele>
        <time>2020-07-09T09:12:25Z</time>
      </trkpt>
      <trkpt lat="49.498866" lon="6.594904">
        <ele>209.0</ele>
        <time>2020-07-09T09:12:27Z</time>
      </trkpt>
      <trkpt lat="49.498718" lon="6.595021">
        <ele>208.0</ele>
        <time>2020-07-09T09:12:30Z</time>
      </trkpt>
      <trkpt lat="49.498668" lon="6.595058">
        <ele>208.0</ele>
        <time>2020-07-09T09:12:31Z</time>
      </trkpt>
      <trkpt lat="49.498517" lon="6.595153">
        <ele>208.0</ele>
        <time>2020-07-09T09:12:34Z</time>
      </trkpt>
      <trkpt lat="49.498414" lon="6.595215">
        <ele>208.0</ele>
        <time>2020-07-09T09:12:36Z</time>
      </trkpt>
      <trkpt lat="49.498313" lon="6.595278">
        <ele>208.0</ele>
        <time>2020-07-09T09:12:38Z</time>
      </trkpt>
      <trkpt lat="49.498162" lon="6.595354">
        <ele>209.0</ele>
        <time>2020-07-09T09:12:41Z</time>
      </trkpt>
      <trkpt lat="49.498068" lon="6.5954">
        <ele>209.0</ele>
        <time>2020-07-09T09:12:43Z</time>
      </trkpt>
      <trkpt lat="49.497915" lon="6.595459">
        <ele>209.0</ele>
        <time>2020-07-09T09:12:46Z</time>
      </trkpt>
      <trkpt lat="49.497862" lon="6.59548">
        <ele>209.0</ele>
        <time>2020-07-09T09:12:47Z</time>
      </trkpt>
      <trkpt lat="49.497701" lon="6.595529">
        <ele>209.0</ele>
        <time>2020-07-09T09:12:50Z</time>
      </trkpt>
      <trkpt lat="49.497542" lon="6.595561">
        <ele>209.0</ele>
        <time>2020-07-09T09:12:53Z</time>
      </trkpt>
      <trkpt lat="49.497444" lon="6.595573">
        <ele>209.0</ele>
        <time>2020-07-09T09:12:55Z</time>
      </trkpt>
      <trkpt lat="49.497338" lon="6.595587">
        <ele>209.0</ele>
        <time>2020-07-09T09:12:57Z</time>
      </trkpt>
      <trkpt lat="49.497237" lon="6.595595">
        <ele>209.0</ele>
        <time>2020-07-09T09:12:59Z</time>
      </trkpt>
      <trkpt lat="49.497133" lon="6.595592">
        <ele>209.0</ele>
        <time>2020-07-09T09:13:01Z</time>
      </trkpt>
      <trkpt lat="49.49703" lon="6.595592">
        <ele>210.0</ele>
        <time>2020-07-09T09:13:03Z</time>
      </trkpt>
      <trkpt lat="49.496931" lon="6.595584">
        <ele>210.0</ele>
        <time>2020-07-09T09:13:05Z</time>
      </trkpt>
      <trkpt lat="49.496827" lon="6.595568">
        <ele>210.0</ele>
        <time>2020-07-09T09:13:07Z</time>
      </trkpt>
      <trkpt lat="49.496684" lon="6.595534">
        <ele>210.0</ele>
        <time>2020-07-09T09:13:10Z</time>
      </trkpt>
      <trkpt lat="49.496589" lon="6.595508">
        <ele>210.0</ele>
        <time>2020-07-09T09:13:12Z</time>
      </trkpt>
      <trkpt lat="49.496483" lon="6.595464">
        <ele>210.0</ele>
        <time>2020-07-09T09:13:14Z</time>
      </trkpt>
      <trkpt lat="49.496433" lon="6.59544">
        <ele>210.0</ele>
        <time>2020-07-09T09:13:15Z</time>
      </trkpt>
      <trkpt lat="49.496289" lon="6.595367">
        <ele>210.0</ele>
        <time>2020-07-09T09:13:18Z</time>
      </trkpt>
      <trkpt lat="49.496154" lon="6.595285">
        <ele>210.0</ele>
        <time>2020-07-09T09:13:21Z</time>
      </trkpt>
      <trkpt lat="49.496068" lon="6.595237">
        <ele>211.0</ele>
        <time>2020-07-09T09:13:23Z</time>
      </trkpt>
      <trkpt lat="49.495977" lon="6.595186">
        <ele>211.0</ele>
        <time>2020-07-09T09:13:25Z</time>
      </trkpt>
      <trkpt lat="49.495887" lon="6.595136">
        <ele>211.0</ele>
        <time>2020-07-09T09:13:27Z</time>
      </trkpt>
      <trkpt lat="49.495751" lon="6.595051">
        <ele>211.0</ele>
        <time>2020-07-09T09:13:30Z</time>
      </trkpt>
      <trkpt lat="49.495709" lon="6.595018">
        <ele>212.0</ele>
        <time>2020-07-09T09:13:31Z</time>
      </trkpt>
      <trkpt lat="49.495585" lon="6.594915">
        <ele>213.0</ele>
        <time>2020-07-09T09:13:34Z</time>
      </trkpt>
      <trkpt lat="49.495469" lon="6.594802">
        <ele>213.0</ele>
        <time>2020-07-09T09:13:37Z</time>
      </trkpt>
      <trkpt lat="49.495356" lon="6.594671">
        <ele>212.0</ele>
        <time>2020-07-09T09:13:40Z</time>
      </trkpt>
      <trkpt lat="49.495285" lon="6.59459">
        <ele>211.0</ele>
        <time>2020-07-09T09:13:42Z</time>
      </trkpt>
      <trkpt lat="49.495173" lon="6.594452">
        <ele>210.0</ele>
        <time>2020-07-09T09:13:45Z</time>
      </trkpt>
      <trkpt lat="49.495098" lon="6.59436">
        <ele>210.0</ele>
        <time>2020-07-09T09:13:47Z</time>
      </trkpt>
      <trkpt lat="49.495024" lon="6.594272">
        <ele>210.0</ele>
        <time>2020-07-09T09:13:49Z</time>
      </trkpt>
      <trkpt lat="49.494945" lon="6.594183">
        <ele>210.0</ele>
        <time>2020-07-09T09:13:51Z</time>
      </trkpt>
      <trkpt lat="49.494866" lon="6.594098">
        <ele>210.0</ele>
        <time>2020-07-09T09:13:53Z</time>
      </trkpt>
      <trkpt lat="49.494824" lon="6.594053">
        <ele>210.0</ele>
        <time>2020-07-09T09:13:54Z</time>
      </trkpt>
      <trkpt lat="49.494716" lon="6.593935">
        <ele>211.0</ele>
        <time>2020-07-09T09:13:57Z</time>
      </trkpt>
      <trkpt lat="49.494646" lon="6.593843">
        <ele>211.0</ele>
        <time>2020-07-09T09:13:59Z</time>
      </trkpt>
      <trkpt lat="49.494571" lon="6.593757">
        <ele>211.0</ele>
        <time>2020-07-09T09:14:01Z</time>
      </trkpt>
      <trkpt lat="49.494494" lon="6.593675">
        <ele>211.0</ele>
        <time>2020-07-09T09:14:03Z</time>
      </trkpt>
      <trkpt lat="49.494416" lon="6.593586">
        <ele>211.0</ele>
        <time>2020-07-09T09:14:05Z</time>
      </trkpt>
      <trkpt lat="49.494344" lon="6.593486">
        <ele>211.0</ele>
        <time>2020-07-09T09:14:07Z</time>
      </trkpt>
      <trkpt lat="49.494261" lon="6.593387">
        <ele>211.0</ele>
        <time>2020-07-09T09:14:09Z</time>
      </trkpt>
      <trkpt lat="49.494146" lon="6.593198">
        <ele>210.0</ele>
        <time>2020-07-09T09:14:12Z</time>
      </trkpt>
      <trkpt lat="49.494073" lon="6.593065">
        <ele>209.0</ele>
        <time>2020-07-09T09:14:14Z</time>
      </trkpt>
      <trkpt lat="49.494033" lon="6.592999">
        <ele>209.0</ele>
        <time>2020-07-09T09:14:15Z</time>
      </trkpt>
      <trkpt lat="49.493934" lon="6.592773">
        <ele>209.0</ele>
        <time>2020-07-09T09:14:18Z</time>
      </trkpt>
      <trkpt lat="49.493838" lon="6.592529">
        <ele>209.0</ele>
        <time>2020-07-09T09:14:21Z</time>
      </trkpt>
      <trkpt lat="49.493769" lon="6.592368">
        <ele>209.0</ele>
        <time>2020-07-09T09:14:23Z</time>
      </trkpt>
      <trkpt lat="49.493697" lon="6.592216">
        <ele>209.0</ele>
        <time>2020-07-09T09:14:25Z</time>
      </trkpt>
      <trkpt lat="49.493612" lon="6.592">
        <ele>209.0</ele>
        <time>2020-07-09T09:14:28Z</time>
      </trkpt>
      <trkpt lat="49.493589" lon="6.591932">
        <ele>209.0</ele>
        <time>2020-07-09T09:14:29Z</time>
      </trkpt>
      <trkpt lat="49.49352" lon="6.591775">
        <ele>208.0</ele>
        <time>2020-07-09T09:14:32Z</time>
      </trkpt>
      <trkpt lat="49.493476" lon="6.591674">
        <ele>209.0</ele>
        <time>2020-07-09T09:14:34Z</time>
      </trkpt>
      <trkpt lat="49.493431" lon="6.591574">
        <ele>209.0</ele>
        <time>2020-07-09T09:14:36Z</time>
      </trkpt>
      <trkpt lat="49.493414" lon="6.591526">
        <ele>208.0</ele>
        <time>2020-07-09T09:14:37Z</time>
      </trkpt>
      <trkpt lat="49.493374" lon="6.591416">
        <ele>209.0</ele>
        <time>2020-07-09T09:14:40Z</time>
      </trkpt>
      <trkpt lat="49.49336" lon="6.591339">
        <ele>209.0</ele>
        <time>2020-07-09T09:14:43Z</time>
      </trkpt>
      <trkpt lat="49.493362" lon="6.591328">
        <ele>209.0</ele>
        <time>2020-07-09T09:14:45Z</time>
      </trkpt>
      <trkpt lat="49.49336" lon="6.591337">
        <ele>209.0</ele>
        <time>2020-07-09T09:14:47Z</time>
      </trkpt>
      <trkpt lat="49.493357" lon="6.591338">
        <ele>209.0</ele>
        <time>2020-07-09T09:14:48Z</time>
      </trkpt>
      <trkpt lat="49.493357" lon="6.591338">
        <ele>209.0</ele>
        <time>2020-07-09T09:14:51Z</time>
      </trkpt>
      <trkpt lat="49.493362" lon="6.591337">
        <ele>210.0</ele>
        <time>2020-07-09T09:16:08Z</time>
      </trkpt>
      <trkpt lat="49.493362" lon="6.591337">
        <ele>210.0</ele>
        <time>2020-07-09T09:16:10Z</time>
      </trkpt>
      <trkpt lat="49.493362" lon="6.591337">
        <ele>210.0</ele>
        <time>2020-07-09T09:16:12Z</time>
      </trkpt>
      <trkpt lat="49.493362" lon="6.591337">
        <ele>210.0</ele>
        <time>2020-07-09T09:16:14Z</time>
      </trkpt>
      <trkpt lat="49.493362" lon="6.591337">
        <ele>210.0</ele>
        <time>2020-07-09T09:16:16Z</time>
      </trkpt>
      <trkpt lat="49.493362" lon="6.591337">
        <ele>210.0</ele>
        <time>2020-07-09T09:16:18Z</time>
      </trkpt>
      <trkpt lat="49.493362" lon="6.591337">
        <ele>210.0</ele>
        <time>2020-07-09T09:16:20Z</time>
      </trkpt>
      <trkpt lat="49.493362" lon="6.591337">
        <ele>210.0</ele>
        <time>2020-07-09T09:16:22Z</time>
      </trkpt>
      <trkpt lat="49.493362" lon="6.591337">
        <ele>210.0</ele>
        <time>2020-07-09T09:16:24Z</time>
      </trkpt>
      <trkpt lat="49.493362" lon="6.591332">
        <ele>210.0</ele>
        <time>2020-07-09T09:16:26Z</time>
      </trkpt>
      <trkpt lat="49.493362" lon="6.59133">
        <ele>211.0</ele>
        <time>2020-07-09T09:16:28Z</time>
      </trkpt>
      <trkpt lat="49.493362" lon="6.59133">
        <ele>211.0</ele>
        <time>2020-07-09T09:16:30Z</time>
      </trkpt>
      <trkpt lat="49.493362" lon="6.59133">
        <ele>211.0</ele>
        <time>2020-07-09T09:16:32Z</time>
      </trkpt>
      <trkpt lat="49.493364" lon="6.591393">
        <ele>211.0</ele>
        <time>2020-07-09T09:16:34Z</time>
      </trkpt>
      <trkpt lat="49.493381" lon="6.591466">
        <ele>210.0</ele>
        <time>2020-07-09T09:16:36Z</time>
      </trkpt>
      <trkpt lat="49.493407" lon="6.591528">
        <ele>211.0</ele>
        <time>2020-07-09T09:16:38Z</time>
      </trkpt>
      <trkpt lat="49.493429" lon="6.591565">
        <ele>211.0</ele>
        <time>2020-07-09T09:16:40Z</time>
      </trkpt>
      <trkpt lat="49.493449" lon="6.591601">
        <ele>210.0</ele>
        <time>2020-07-09T09:16:42Z</time>
      </trkpt>
      <trkpt lat="49.493475" lon="6.59157">
        <ele>210.0</ele>
        <time>2020-07-09T09:16:45Z</time>
      </trkpt>
      <trkpt lat="49.493468" lon="6.591551">
        <ele>210.0</ele>
        <time>2020-07-09T09:16:46Z</time>
      </trkpt>
      <trkpt lat="49.493431" lon="6.591454">
        <ele>209.0</ele>
        <time>2020-07-09T09:16:49Z</time>
      </trkpt>
      <trkpt lat="49.493404" lon="6.591372">
        <ele>209.0</ele>
        <time>2020-07-09T09:16:51Z</time>
      </trkpt>
      <trkpt lat="49.493369" lon="6.591212">
        <ele>209.0</ele>
        <time>2020-07-09T09:16:54Z</time>
      </trkpt>
      <trkpt lat="49.493346" lon="6.591087">
        <ele>208.0</ele>
        <time>2020-07-09T09:16:56Z</time>
      </trkpt>
      <trkpt lat="49.493318" lon="6.590972">
        <ele>208.0</ele>
        <time>2020-07-09T09:16:58Z</time>
      </trkpt>
      <trkpt lat="49.49329" lon="6.590848">
        <ele>208.0</ele>
        <time>2020-07-09T09:17:00Z</time>
      </trkpt>
      <trkpt lat="49.493267" lon="6.590715">
        <ele>208.0</ele>
        <time>2020-07-09T09:17:02Z</time>
      </trkpt>
      <trkpt lat="49.493237" lon="6.590595">
        <ele>208.0</ele>
        <time>2020-07-09T09:17:04Z</time>
      </trkpt>
      <trkpt lat="49.493187" lon="6.590429">
        <ele>208.0</ele>
        <time>2020-07-09T09:17:07Z</time>
      </trkpt>
      <trkpt lat="49.493152" lon="6.590314">
        <ele>209.0</ele>
        <time>2020-07-09T09:17:09Z</time>
      </trkpt>
      <trkpt lat="49.493111" lon="6.590199">
        <ele>209.0</ele>
        <time>2020-07-09T09:17:11Z</time>
      </trkpt>
      <trkpt lat="49.493067" lon="6.590092">
        <ele>208.0</ele>
        <time>2020-07-09T09:17:13Z</time>
      </trkpt>
      <trkpt lat="49.493027" lon="6.58999">
        <ele>208.0</ele>
        <time>2020-07-09T09:17:15Z</time>
      </trkpt>
      <trkpt lat="49.492989" lon="6.58992">
        <ele>207.0</ele>
        <time>2020-07-09T09:17:17Z</time>
      </trkpt>
      <trkpt lat="49.492956" lon="6.589841">
        <ele>207.0</ele>
        <time>2020-07-09T09:17:19Z</time>
      </trkpt>
      <trkpt lat="49.492924" lon="6.589749">
        <ele>207.0</ele>
        <time>2020-07-09T09:17:21Z</time>
      </trkpt>
      <trkpt lat="49.492892" lon="6.589654">
        <ele>208.0</ele>
        <time>2020-07-09T09:17:23Z</time>
      </trkpt>
      <trkpt lat="49.492844" lon="6.589526">
        <ele>208.0</ele>
        <time>2020-07-09T09:17:26Z</time>
      </trkpt>
      <trkpt lat="49.492815" lon="6.589458">
        <ele>207.0</ele>
        <time>2020-07-09T09:17:28Z</time>
      </trkpt>
      <trkpt lat="49.492796" lon="6.589422">
        <ele>208.0</ele>
        <time>2020-07-09T09:17:29Z</time>
      </trkpt>
      <trkpt lat="49.492753" lon="6.589331">
        <ele>208.0</ele>
        <time>2020-07-09T09:17:32Z</time>
      </trkpt>
      <trkpt lat="49.492731" lon="6.589261">
        <ele>208.0</ele>
        <time>2020-07-09T09:17:35Z</time>
      </trkpt>
      <trkpt lat="49.492716" lon="6.589218">
        <ele>208.0</ele>
        <time>2020-07-09T09:17:37Z</time>
      </trkpt>
      <trkpt lat="49.492706" lon="6.589189">
        <ele>208.0</ele>
        <time>2020-07-09T09:17:39Z</time>
      </trkpt>
      <trkpt lat="49.492679" lon="6.589166">
        <ele>208.0</ele>
        <time>2020-07-09T09:17:42Z</time>
      </trkpt>
      <trkpt lat="49.492677" lon="6.589147">
        <ele>208.0</ele>
        <time>2020-07-09T09:17:44Z</time>
      </trkpt>
      <trkpt lat="49.492699" lon="6.589171">
        <ele>207.0</ele>
        <time>2020-07-09T09:17:46Z</time>
      </trkpt>
      <trkpt lat="49.492723" lon="6.589214">
        <ele>208.0</ele>
        <time>2020-07-09T09:17:48Z</time>
      </trkpt>
      <trkpt lat="49.49274" lon="6.589279">
        <ele>208.0</ele>
        <time>2020-07-09T09:17:50Z</time>
      </trkpt>
      <trkpt lat="49.492766" lon="6.589385">
        <ele>208.0</ele>
        <time>2020-07-09T09:17:52Z</time>
      </trkpt>
      <trkpt lat="49.492814" lon="6.589535">
        <ele>207.0</ele>
        <time>2020-07-09T09:17:54Z</time>
      </trkpt>
      <trkpt lat="49.49287" lon="6.58964">
        <ele>208.0</ele>
        <time>2020-07-09T09:17:56Z</time>
      </trkpt>
      <trkpt lat="49.492922" lon="6.589747">
        <ele>208.0</ele>
        <time>2020-07-09T09:17:58Z</time>
      </trkpt>
      <trkpt lat="49.492971" lon="6.589868">
        <ele>208.0</ele>
        <time>2020-07-09T09:18:00Z</time>
      </trkpt>
      <trkpt lat="49.493036" lon="6.590054">
        <ele>208.0</ele>
        <time>2020-07-09T09:18:03Z</time>
      </trkpt>
      <trkpt lat="49.493063" lon="6.590111">
        <ele>208.0</ele>
        <time>2020-07-09T09:18:04Z</time>
      </trkpt>
      <trkpt lat="49.493115" lon="6.590231">
        <ele>208.0</ele>
        <time>2020-07-09T09:18:06Z</time>
      </trkpt>
      <trkpt lat="49.493165" lon="6.5904">
        <ele>208.0</ele>
        <time>2020-07-09T09:18:09Z</time>
      </trkpt>
      <trkpt lat="49.493214" lon="6.590597">
        <ele>208.0</ele>
        <time>2020-07-09T09:18:12Z</time>
      </trkpt>
      <trkpt lat="49.493246" lon="6.590727">
        <ele>208.0</ele>
        <time>2020-07-09T09:18:14Z</time>
      </trkpt>
      <trkpt lat="49.493284" lon="6.590855">
        <ele>208.0</ele>
        <time>2020-07-09T09:18:16Z</time>
      </trkpt>
      <trkpt lat="49.493314" lon="6.590982">
        <ele>208.0</ele>
        <time>2020-07-09T09:18:18Z</time>
      </trkpt>
      <trkpt lat="49.493343" lon="6.591106">
        <ele>207.0</ele>
        <time>2020-07-09T09:18:20Z</time>
      </trkpt>
      <trkpt lat="49.493371" lon="6.591239">
        <ele>207.0</ele>
        <time>2020-07-09T09:18:22Z</time>
      </trkpt>
      <trkpt lat="49.493411" lon="6.591414">
        <ele>207.0</ele>
        <time>2020-07-09T09:18:25Z</time>
      </trkpt>
      <trkpt lat="49.493443" lon="6.591527">
        <ele>207.0</ele>
        <time>2020-07-09T09:18:27Z</time>
      </trkpt>
      <trkpt lat="49.493463" lon="6.591595">
        <ele>207.0</ele>
        <time>2020-07-09T09:18:29Z</time>
      </trkpt>
      <trkpt lat="49.493443" lon="6.59162">
        <ele>208.0</ele>
        <time>2020-07-09T09:18:31Z</time>
      </trkpt>
      <trkpt lat="49.493416" lon="6.591577">
        <ele>208.0</ele>
        <time>2020-07-09T09:18:33Z</time>
      </trkpt>
      <trkpt lat="49.493396" lon="6.591514">
        <ele>208.0</ele>
        <time>2020-07-09T09:18:35Z</time>
      </trkpt>
      <trkpt lat="49.493374" lon="6.591428">
        <ele>207.0</ele>
        <time>2020-07-09T09:18:37Z</time>
      </trkpt>
      <trkpt lat="49.493352" lon="6.59133">
        <ele>207.0</ele>
        <time>2020-07-09T09:18:39Z</time>
      </trkpt>
      <trkpt lat="49.493325" lon="6.591241">
        <ele>208.0</ele>
        <time>2020-07-09T09:18:41Z</time>
      </trkpt>
      <trkpt lat="49.493295" lon="6.591141">
        <ele>208.0</ele>
        <time>2020-07-09T09:18:43Z</time>
      </trkpt>
      <trkpt lat="49.493269" lon="6.591048">
        <ele>208.0</ele>
        <time>2020-07-09T09:18:45Z</time>
      </trkpt>
      <trkpt lat="49.493254" lon="6.590944">
        <ele>208.0</ele>
        <time>2020-07-09T09:18:47Z</time>
      </trkpt>
      <trkpt lat="49.49323" lon="6.590847">
        <ele>209.0</ele>
        <time>2020-07-09T09:18:49Z</time>
      </trkpt>
      <trkpt lat="49.493205" lon="6.590751">
        <ele>209.0</ele>
        <time>2020-07-09T09:18:51Z</time>
      </trkpt>
      <trkpt lat="49.493173" lon="6.590663">
        <ele>209.0</ele>
        <time>2020-07-09T09:18:53Z</time>
      </trkpt>
      <trkpt lat="49.493141" lon="6.590575">
        <ele>209.0</ele>
        <time>2020-07-09T09:18:55Z</time>
      </trkpt>
      <trkpt lat="49.493108" lon="6.590485">
        <ele>209.0</ele>
        <time>2020-07-09T09:18:57Z</time>
      </trkpt>
      <trkpt lat="49.493074" lon="6.590397">
        <ele>209.0</ele>
        <time>2020-07-09T09:18:59Z</time>
      </trkpt>
      <trkpt lat="49.493005" lon="6.590274">
        <ele>210.0</ele>
        <time>2020-07-09T09:19:02Z</time>
      </trkpt>
      <trkpt lat="49.49296" lon="6.590197">
        <ele>210.0</ele>
        <time>2020-07-09T09:19:04Z</time>
      </trkpt>
      <trkpt lat="49.492937" lon="6.590167">
        <ele>211.0</ele>
        <time>2020-07-09T09:19:05Z</time>
      </trkpt>
      <trkpt lat="49.49289" lon="6.590121">
        <ele>210.0</ele>
        <time>2020-07-09T09:19:07Z</time>
      </trkpt>
      <trkpt lat="49.492845" lon="6.590068">
        <ele>211.0</ele>
        <time>2020-07-09T09:19:09Z</time>
      </trkpt>
      <trkpt lat="49.492783" lon="6.590008">
        <ele>212.0</ele>
        <time>2020-07-09T09:19:12Z</time>
      </trkpt>
      <trkpt lat="49.492766" lon="6.589978">
        <ele>212.0</ele>
        <time>2020-07-09T09:19:13Z</time>
      </trkpt>
      <trkpt lat="49.492731" lon="6.589891">
        <ele>212.0</ele>
        <time>2020-07-09T09:19:16Z</time>
      </trkpt>
      <trkpt lat="49.492706" lon="6.589821">
        <ele>212.0</ele>
        <time>2020-07-09T09:19:18Z</time>
      </trkpt>
      <trkpt lat="49.492688" lon="6.589743">
        <ele>213.0</ele>
        <time>2020-07-09T09:19:20Z</time>
      </trkpt>
      <trkpt lat="49.492669" lon="6.589669">
        <ele>213.0</ele>
        <time>2020-07-09T09:19:22Z</time>
      </trkpt>
      <trkpt lat="49.492657" lon="6.589599">
        <ele>213.0</ele>
        <time>2020-07-09T09:19:24Z</time>
      </trkpt>
      <trkpt lat="49.492663" lon="6.589535">
        <ele>213.0</ele>
        <time>2020-07-09T09:19:26Z</time>
      </trkpt>
      <trkpt lat="49.492662" lon="6.589484">
        <ele>214.0</ele>
        <time>2020-07-09T09:19:28Z</time>
      </trkpt>
      <trkpt lat="49.492661" lon="6.589443">
        <ele>214.0</ele>
        <time>2020-07-09T09:19:30Z</time>
      </trkpt>
      <trkpt lat="49.492654" lon="6.589415">
        <ele>213.0</ele>
        <time>2020-07-09T09:19:32Z</time>
      </trkpt>
      <trkpt lat="49.492659" lon="6.5894">
        <ele>214.0</ele>
        <time>2020-07-09T09:19:34Z</time>
      </trkpt>
      <trkpt lat="49.492661" lon="6.589373">
        <ele>215.0</ele>
        <time>2020-07-09T09:19:36Z</time>
      </trkpt>
      <trkpt lat="49.492658" lon="6.589361">
        <ele>215.0</ele>
        <time>2020-07-09T09:19:37Z</time>
      </trkpt>
      <trkpt lat="49.492679" lon="6.589349">
        <ele>215.0</ele>
        <time>2020-07-09T09:19:59Z</time>
      </trkpt>
      <trkpt lat="49.492679" lon="6.589349">
        <ele>215.0</ele>
        <time>2020-07-09T09:20:01Z</time>
      </trkpt>
      <trkpt lat="49.492679" lon="6.589349">
        <ele>215.0</ele>
        <time>2020-07-09T09:20:03Z</time>
      </trkpt>
      <trkpt lat="49.492679" lon="6.589349">
        <ele>215.0</ele>
        <time>2020-07-09T09:20:05Z</time>
      </trkpt>
      <trkpt lat="49.492679" lon="6.589349">
        <ele>215.0</ele>
        <time>2020-07-09T09:20:07Z</time>
      </trkpt>
      <trkpt lat="49.492679" lon="6.589349">
        <ele>215.0</ele>
        <time>2020-07-09T09:20:09Z</time>
      </trkpt>
      <trkpt lat="49.492679" lon="6.589349">
        <ele>215.0</ele>
        <time>2020-07-09T09:20:11Z</time>
      </trkpt>
      <trkpt lat="49.492679" lon="6.589349">
        <ele>215.0</ele>
        <time>2020-07-09T09:20:13Z</time>
      </trkpt>
      <trkpt lat="49.492672" lon="6.589326">
        <ele>215.0</ele>
        <time>2020-07-09T09:20:15Z</time>
      </trkpt>
      <trkpt lat="49.492672" lon="6.589326">
        <ele>215.0</ele>
        <time>2020-07-09T09:20:17Z</time>
      </trkpt>
      <trkpt lat="49.492672" lon="6.589326">
        <ele>215.0</ele>
        <time>2020-07-09T09:20:19Z</time>
      </trkpt>
      <trkpt lat="49.492672" lon="6.589326">
        <ele>215.0</ele>
        <time>2020-07-09T09:20:21Z</time>
      </trkpt>
      <trkpt lat="49.492682" lon="6.589294">
        <ele>214.0</ele>
        <time>2020-07-09T09:20:23Z</time>
      </trkpt>
      <trkpt lat="49.492696" lon="6.589251">
        <ele>214.0</ele>
        <time>2020-07-09T09:20:25Z</time>
      </trkpt>
      <trkpt lat="49.492711" lon="6.589162">
        <ele>215.0</ele>
        <time>2020-07-09T09:20:27Z</time>
      </trkpt>
      <trkpt lat="49.492724" lon="6.58906">
        <ele>215.0</ele>
        <time>2020-07-09T09:20:29Z</time>
      </trkpt>
      <trkpt lat="49.492732" lon="6.589008">
        <ele>214.0</ele>
        <time>2020-07-09T09:20:30Z</time>
      </trkpt>
      <trkpt lat="49.492757" lon="6.588845">
        <ele>216.0</ele>
        <time>2020-07-09T09:20:33Z</time>
      </trkpt>
      <trkpt lat="49.492765" lon="6.588793">
        <ele>216.0</ele>
        <time>2020-07-09T09:20:34Z</time>
      </trkpt>
      <trkpt lat="49.49279" lon="6.588624">
        <ele>217.0</ele>
        <time>2020-07-09T09:20:37Z</time>
      </trkpt>
      <trkpt lat="49.49281" lon="6.588516">
        <ele>217.0</ele>
        <time>2020-07-09T09:20:39Z</time>
      </trkpt>
      <trkpt lat="49.492835" lon="6.588407">
        <ele>216.0</ele>
        <time>2020-07-09T09:20:41Z</time>
      </trkpt>
      <trkpt lat="49.492846" lon="6.588344">
        <ele>217.0</ele>
        <time>2020-07-09T09:20:42Z</time>
      </trkpt>
      <trkpt lat="49.492875" lon="6.588163">
        <ele>216.0</ele>
        <time>2020-07-09T09:20:45Z</time>
      </trkpt>
      <trkpt lat="49.492902" lon="6.588032">
        <ele>216.0</ele>
        <time>2020-07-09T09:20:47Z</time>
      </trkpt>
      <trkpt lat="49.492925" lon="6.587917">
        <ele>216.0</ele>
        <time>2020-07-09T09:20:49Z</time>
      </trkpt>
      <trkpt lat="49.492949" lon="6.587806">
        <ele>216.0</ele>
        <time>2020-07-09T09:20:51Z</time>
      </trkpt>
      <trkpt lat="49.492956" lon="6.587691">
        <ele>216.0</ele>
        <time>2020-07-09T09:20:53Z</time>
      </trkpt>
      <trkpt lat="49.492968" lon="6.587573">
        <ele>216.0</ele>
        <time>2020-07-09T09:20:55Z</time>
      </trkpt>
      <trkpt lat="49.492996" lon="6.587465">
        <ele>215.0</ele>
        <time>2020-07-09T09:20:57Z</time>
      </trkpt>
      <trkpt lat="49.493022" lon="6.587343">
        <ele>216.0</ele>
        <time>2020-07-09T09:20:59Z</time>
      </trkpt>
      <trkpt lat="49.49305" lon="6.587297">
        <ele>215.0</ele>
        <time>2020-07-09T09:21:01Z</time>
      </trkpt>
      <trkpt lat="49.49306" lon="6.58731">
        <ele>215.0</ele>
        <time>2020-07-09T09:21:03Z</time>
      </trkpt>
      <trkpt lat="49.493057" lon="6.587312">
        <ele>215.0</ele>
        <time>2020-07-09T09:21:05Z</time>
      </trkpt>
      <trkpt lat="49.493058" lon="6.587312">
        <ele>215.0</ele>
        <time>2020-07-09T09:21:08Z</time>
      </trkpt>
      <trkpt lat="49.493058" lon="6.587312">
        <ele>215.0</ele>
        <time>2020-07-09T09:21:12Z</time>
      </trkpt>
      <trkpt lat="49.493058" lon="6.587312">
        <ele>215.0</ele>
        <time>2020-07-09T09:21:13Z</time>
      </trkpt>
      <trkpt lat="49.493058" lon="6.587312">
        <ele>215.0</ele>
        <time>2020-07-09T09:21:15Z</time>
      </trkpt>
      <trkpt lat="49.493058" lon="6.587312">
        <ele>215.0</ele>
        <time>2020-07-09T09:21:18Z</time>
      </trkpt>
      <trkpt lat="49.493058" lon="6.587312">
        <ele>215.0</ele>
        <time>2020-07-09T09:21:20Z</time>
      </trkpt>
      <trkpt lat="49.493073" lon="6.587317">
        <ele>215.0</ele>
        <time>2020-07-09T09:21:23Z</time>
      </trkpt>
      <trkpt lat="49.493073" lon="6.587317">
        <ele>215.0</ele>
        <time>2020-07-09T09:21:25Z</time>
      </trkpt>
      <trkpt lat="49.493073" lon="6.587317">
        <ele>215.0</ele>
        <time>2020-07-09T09:21:26Z</time>
      </trkpt>
      <trkpt lat="49.493073" lon="6.587317">
        <ele>215.0</ele>
        <time>2020-07-09T09:21:28Z</time>
      </trkpt>
      <trkpt lat="49.493073" lon="6.587317">
        <ele>215.0</ele>
        <time>2020-07-09T09:21:31Z</time>
      </trkpt>
      <trkpt lat="49.493073" lon="6.587317">
        <ele>215.0</ele>
        <time>2020-07-09T09:21:33Z</time>
      </trkpt>
      <trkpt lat="49.493074" lon="6.58731">
        <ele>215.0</ele>
        <time>2020-07-09T09:21:35Z</time>
      </trkpt>
      <trkpt lat="49.493078" lon="6.587295">
        <ele>215.0</ele>
        <time>2020-07-09T09:21:36Z</time>
      </trkpt>
      <trkpt lat="49.493101" lon="6.587208">
        <ele>214.0</ele>
        <time>2020-07-09T09:21:39Z</time>
      </trkpt>
      <trkpt lat="49.493119" lon="6.587127">
        <ele>215.0</ele>
        <time>2020-07-09T09:21:41Z</time>
      </trkpt>
      <trkpt lat="49.493122" lon="6.587052">
        <ele>214.0</ele>
        <time>2020-07-09T09:21:43Z</time>
      </trkpt>
      <trkpt lat="49.493087" lon="6.586993">
        <ele>215.0</ele>
        <time>2020-07-09T09:21:45Z</time>
      </trkpt>
      <trkpt lat="49.493004" lon="6.586953">
        <ele>215.0</ele>
        <time>2020-07-09T09:21:48Z</time>
      </trkpt>
      <trkpt lat="49.492939" lon="6.586923">
        <ele>215.0</ele>
        <time>2020-07-09T09:21:50Z</time>
      </trkpt>
      <trkpt lat="49.492784" lon="6.586902">
        <ele>215.0</ele>
        <time>2020-07-09T09:21:53Z</time>
      </trkpt>
      <trkpt lat="49.492638" lon="6.586861">
        <ele>215.0</ele>
        <time>2020-07-09T09:21:55Z</time>
      </trkpt>
      <trkpt lat="49.492525" lon="6.58674">
        <ele>214.0</ele>
        <time>2020-07-09T09:21:57Z</time>
      </trkpt>
      <trkpt lat="49.492415" lon="6.586515">
        <ele>214.0</ele>
        <time>2020-07-09T09:22:00Z</time>
      </trkpt>
      <trkpt lat="49.492349" lon="6.586362">
        <ele>214.0</ele>
        <time>2020-07-09T09:22:02Z</time>
      </trkpt>
      <trkpt lat="49.492319" lon="6.586293">
        <ele>213.0</ele>
        <time>2020-07-09T09:22:03Z</time>
      </trkpt>
      <trkpt lat="49.492214" lon="6.586017">
        <ele>213.0</ele>
        <time>2020-07-09T09:22:07Z</time>
      </trkpt>
      <trkpt lat="49.492156" lon="6.585885">
        <ele>213.0</ele>
        <time>2020-07-09T09:22:09Z</time>
      </trkpt>
      <trkpt lat="49.4921" lon="6.585748">
        <ele>213.0</ele>
        <time>2020-07-09T09:22:11Z</time>
      </trkpt>
      <trkpt lat="49.492047" lon="6.585624">
        <ele>213.0</ele>
        <time>2020-07-09T09:22:13Z</time>
      </trkpt>
      <trkpt lat="49.491997" lon="6.585486">
        <ele>213.0</ele>
        <time>2020-07-09T09:22:15Z</time>
      </trkpt>
      <trkpt lat="49.491952" lon="6.585349">
        <ele>213.0</ele>
        <time>2020-07-09T09:22:17Z</time>
      </trkpt>
      <trkpt lat="49.49193" lon="6.585273">
        <ele>212.0</ele>
        <time>2020-07-09T09:22:18Z</time>
      </trkpt>
      <trkpt lat="49.491858" lon="6.585078">
        <ele>213.0</ele>
        <time>2020-07-09T09:22:21Z</time>
      </trkpt>
      <trkpt lat="49.49182" lon="6.584942">
        <ele>212.0</ele>
        <time>2020-07-09T09:22:23Z</time>
      </trkpt>
      <trkpt lat="49.491781" lon="6.584807">
        <ele>212.0</ele>
        <time>2020-07-09T09:22:25Z</time>
      </trkpt>
      <trkpt lat="49.49173" lon="6.584626">
        <ele>213.0</ele>
        <time>2020-07-09T09:22:28Z</time>
      </trkpt>
      <trkpt lat="49.4917" lon="6.584504">
        <ele>213.0</ele>
        <time>2020-07-09T09:22:30Z</time>
      </trkpt>
      <trkpt lat="49.49166" lon="6.58439">
        <ele>213.0</ele>
        <time>2020-07-09T09:22:32Z</time>
      </trkpt>
      <trkpt lat="49.491622" lon="6.584271">
        <ele>213.0</ele>
        <time>2020-07-09T09:22:34Z</time>
      </trkpt>
      <trkpt lat="49.491584" lon="6.584146">
        <ele>212.0</ele>
        <time>2020-07-09T09:22:36Z</time>
      </trkpt>
      <trkpt lat="49.49154" lon="6.583956">
        <ele>211.0</ele>
        <time>2020-07-09T09:22:39Z</time>
      </trkpt>
      <trkpt lat="49.491515" lon="6.583838">
        <ele>212.0</ele>
        <time>2020-07-09T09:22:41Z</time>
      </trkpt>
      <trkpt lat="49.491494" lon="6.583713">
        <ele>212.0</ele>
        <time>2020-07-09T09:22:43Z</time>
      </trkpt>
      <trkpt lat="49.491473" lon="6.583601">
        <ele>212.0</ele>
        <time>2020-07-09T09:22:45Z</time>
      </trkpt>
      <trkpt lat="49.491457" lon="6.583486">
        <ele>212.0</ele>
        <time>2020-07-09T09:22:47Z</time>
      </trkpt>
      <trkpt lat="49.491441" lon="6.583361">
        <ele>212.0</ele>
        <time>2020-07-09T09:22:49Z</time>
      </trkpt>
      <trkpt lat="49.491428" lon="6.583238">
        <ele>212.0</ele>
        <time>2020-07-09T09:22:51Z</time>
      </trkpt>
      <trkpt lat="49.491414" lon="6.583055">
        <ele>211.0</ele>
        <time>2020-07-09T09:22:54Z</time>
      </trkpt>
      <trkpt lat="49.491415" lon="6.582931">
        <ele>212.0</ele>
        <time>2020-07-09T09:22:56Z</time>
      </trkpt>
      <trkpt lat="49.491424" lon="6.582806">
        <ele>212.0</ele>
        <time>2020-07-09T09:22:58Z</time>
      </trkpt>
      <trkpt lat="49.491429" lon="6.582683">
        <ele>212.0</ele>
        <time>2020-07-09T09:23:00Z</time>
      </trkpt>
      <trkpt lat="49.491428" lon="6.582563">
        <ele>213.0</ele>
        <time>2020-07-09T09:23:02Z</time>
      </trkpt>
      <trkpt lat="49.491434" lon="6.58245">
        <ele>213.0</ele>
        <time>2020-07-09T09:23:04Z</time>
      </trkpt>
      <trkpt lat="49.49144" lon="6.582344">
        <ele>213.0</ele>
        <time>2020-07-09T09:23:06Z</time>
      </trkpt>
      <trkpt lat="49.491444" lon="6.582242">
        <ele>213.0</ele>
        <time>2020-07-09T09:23:08Z</time>
      </trkpt>
      <trkpt lat="49.491455" lon="6.582143">
        <ele>213.0</ele>
        <time>2020-07-09T09:23:10Z</time>
      </trkpt>
      <trkpt lat="49.491467" lon="6.582044">
        <ele>213.0</ele>
        <time>2020-07-09T09:23:12Z</time>
      </trkpt>
      <trkpt lat="49.491471" lon="6.581943">
        <ele>213.0</ele>
        <time>2020-07-09T09:23:14Z</time>
      </trkpt>
      <trkpt lat="49.491471" lon="6.581847">
        <ele>213.0</ele>
        <time>2020-07-09T09:23:16Z</time>
      </trkpt>
      <trkpt lat="49.491474" lon="6.581744">
        <ele>214.0</ele>
        <time>2020-07-09T09:23:18Z</time>
      </trkpt>
      <trkpt lat="49.49148" lon="6.581642">
        <ele>214.0</ele>
        <time>2020-07-09T09:23:20Z</time>
      </trkpt>
      <trkpt lat="49.491483" lon="6.581542">
        <ele>214.0</ele>
        <time>2020-07-09T09:23:22Z</time>
      </trkpt>
      <trkpt lat="49.491482" lon="6.581443">
        <ele>215.0</ele>
        <time>2020-07-09T09:23:24Z</time>
      </trkpt>
      <trkpt lat="49.49148" lon="6.581344">
        <ele>215.0</ele>
        <time>2020-07-09T09:23:26Z</time>
      </trkpt>
      <trkpt lat="49.491483" lon="6.581251">
        <ele>215.0</ele>
        <time>2020-07-09T09:23:28Z</time>
      </trkpt>
      <trkpt lat="49.491488" lon="6.581148">
        <ele>216.0</ele>
        <time>2020-07-09T09:23:30Z</time>
      </trkpt>
      <trkpt lat="49.491488" lon="6.581061">
        <ele>216.0</ele>
        <time>2020-07-09T09:23:32Z</time>
      </trkpt>
      <trkpt lat="49.491474" lon="6.580997">
        <ele>216.0</ele>
        <time>2020-07-09T09:23:34Z</time>
      </trkpt>
      <trkpt lat="49.491432" lon="6.58094">
        <ele>216.0</ele>
        <time>2020-07-09T09:23:36Z</time>
      </trkpt>
      <trkpt lat="49.491385" lon="6.580891">
        <ele>217.0</ele>
        <time>2020-07-09T09:23:38Z</time>
      </trkpt>
      <trkpt lat="49.491336" lon="6.580862">
        <ele>217.0</ele>
        <time>2020-07-09T09:23:40Z</time>
      </trkpt>
      <trkpt lat="49.491316" lon="6.580861">
        <ele>217.0</ele>
        <time>2020-07-09T09:23:41Z</time>
      </trkpt>
      <trkpt lat="49.491262" lon="6.580868">
        <ele>217.0</ele>
        <time>2020-07-09T09:23:44Z</time>
      </trkpt>
      <trkpt lat="49.491211" lon="6.580858">
        <ele>217.0</ele>
        <time>2020-07-09T09:23:47Z</time>
      </trkpt>
      <trkpt lat="49.491181" lon="6.580851">
        <ele>217.0</ele>
        <time>2020-07-09T09:23:49Z</time>
      </trkpt>
      <trkpt lat="49.491155" lon="6.580849">
        <ele>217.0</ele>
        <time>2020-07-09T09:23:51Z</time>
      </trkpt>
      <trkpt lat="49.491128" lon="6.580851">
        <ele>218.0</ele>
        <time>2020-07-09T09:23:53Z</time>
      </trkpt>
      <trkpt lat="49.491105" lon="6.58084">
        <ele>218.0</ele>
        <time>2020-07-09T09:23:55Z</time>
      </trkpt>
      <trkpt lat="49.491073" lon="6.580831">
        <ele>217.0</ele>
        <time>2020-07-09T09:23:57Z</time>
      </trkpt>
      <trkpt lat="49.491044" lon="6.580835">
        <ele>218.0</ele>
        <time>2020-07-09T09:23:59Z</time>
      </trkpt>
      <trkpt lat="49.491034" lon="6.580836">
        <ele>217.0</ele>
        <time>2020-07-09T09:24:01Z</time>
      </trkpt>
      <trkpt lat="49.491033" lon="6.580836">
        <ele>217.0</ele>
        <time>2020-07-09T09:24:03Z</time>
      </trkpt>
      <trkpt lat="49.491033" lon="6.580836">
        <ele>217.0</ele>
        <time>2020-07-09T09:24:05Z</time>
      </trkpt>
      <trkpt lat="49.491033" lon="6.580836">
        <ele>217.0</ele>
        <time>2020-07-09T09:24:07Z</time>
      </trkpt>
      <trkpt lat="49.491041" lon="6.58083">
        <ele>217.0</ele>
        <time>2020-07-09T09:24:30Z</time>
      </trkpt>
      <trkpt lat="49.491041" lon="6.58083">
        <ele>217.0</ele>
        <time>2020-07-09T09:24:32Z</time>
      </trkpt>
      <trkpt lat="49.491028" lon="6.580838">
        <ele>217.0</ele>
        <time>2020-07-09T09:24:35Z</time>
      </trkpt>
      <trkpt lat="49.491026" lon="6.580847">
        <ele>215.0</ele>
        <time>2020-07-09T09:24:37Z</time>
      </trkpt>
      <trkpt lat="49.491026" lon="6.580826">
        <ele>216.0</ele>
        <time>2020-07-09T09:24:39Z</time>
      </trkpt>
      <trkpt lat="49.491024" lon="6.580821">
        <ele>214.0</ele>
        <time>2020-07-09T09:24:41Z</time>
      </trkpt>
      <trkpt lat="49.491025" lon="6.580821">
        <ele>214.0</ele>
        <time>2020-07-09T09:24:43Z</time>
      </trkpt>
      <trkpt lat="49.49102" lon="6.580827">
        <ele>216.0</ele>
        <time>2020-07-09T09:24:45Z</time>
      </trkpt>
      <trkpt lat="49.491026" lon="6.580824">
        <ele>216.0</ele>
        <time>2020-07-09T09:24:47Z</time>
      </trkpt>
      <trkpt lat="49.491026" lon="6.580824">
        <ele>216.0</ele>
        <time>2020-07-09T09:24:49Z</time>
      </trkpt>
      <trkpt lat="49.491042" lon="6.580829">
        <ele>216.0</ele>
        <time>2020-07-09T09:24:51Z</time>
      </trkpt>
      <trkpt lat="49.491048" lon="6.580857">
        <ele>217.0</ele>
        <time>2020-07-09T09:24:53Z</time>
      </trkpt>
      <trkpt lat="49.491069" lon="6.580862">
        <ele>218.0</ele>
        <time>2020-07-09T09:24:55Z</time>
      </trkpt>
      <trkpt lat="49.491113" lon="6.580872">
        <ele>218.0</ele>
        <time>2020-07-09T09:24:57Z</time>
      </trkpt>
      <trkpt lat="49.491166" lon="6.580866">
        <ele>218.0</ele>
        <time>2020-07-09T09:24:59Z</time>
      </trkpt>
      <trkpt lat="49.491226" lon="6.580864">
        <ele>219.0</ele>
        <time>2020-07-09T09:25:01Z</time>
      </trkpt>
      <trkpt lat="49.491298" lon="6.580868">
        <ele>219.0</ele>
        <time>2020-07-09T09:25:03Z</time>
      </trkpt>
      <trkpt lat="49.49137" lon="6.580851">
        <ele>219.0</ele>
        <time>2020-07-09T09:25:05Z</time>
      </trkpt>
      <trkpt lat="49.49144" lon="6.580832">
        <ele>220.0</ele>
        <time>2020-07-09T09:25:07Z</time>
      </trkpt>
      <trkpt lat="49.491473" lon="6.580803">
        <ele>220.0</ele>
        <time>2020-07-09T09:25:08Z</time>
      </trkpt>
      <trkpt lat="49.491516" lon="6.580556">
        <ele>219.0</ele>
        <time>2020-07-09T09:25:12Z</time>
      </trkpt>
      <trkpt lat="49.491527" lon="6.58043">
        <ele>219.0</ele>
        <time>2020-07-09T09:25:14Z</time>
      </trkpt>
      <trkpt lat="49.491526" lon="6.580299">
        <ele>218.0</ele>
        <time>2020-07-09T09:25:16Z</time>
      </trkpt>
      <trkpt lat="49.491528" lon="6.580159">
        <ele>218.0</ele>
        <time>2020-07-09T09:25:18Z</time>
      </trkpt>
      <trkpt lat="49.491533" lon="6.580025">
        <ele>218.0</ele>
        <time>2020-07-09T09:25:20Z</time>
      </trkpt>
      <trkpt lat="49.491543" lon="6.579884">
        <ele>218.0</ele>
        <time>2020-07-09T09:25:22Z</time>
      </trkpt>
      <trkpt lat="49.491539" lon="6.579753">
        <ele>218.0</ele>
        <time>2020-07-09T09:25:24Z</time>
      </trkpt>
      <trkpt lat="49.491543" lon="6.579617">
        <ele>217.0</ele>
        <time>2020-07-09T09:25:26Z</time>
      </trkpt>
      <trkpt lat="49.491548" lon="6.579484">
        <ele>217.0</ele>
        <time>2020-07-09T09:25:28Z</time>
      </trkpt>
      <trkpt lat="49.491555" lon="6.579346">
        <ele>217.0</ele>
        <time>2020-07-09T09:25:30Z</time>
      </trkpt>
      <trkpt lat="49.491559" lon="6.579276">
        <ele>216.0</ele>
        <time>2020-07-09T09:25:31Z</time>
      </trkpt>
      <trkpt lat="49.491559" lon="6.579061">
        <ele>216.0</ele>
        <time>2020-07-09T09:25:34Z</time>
      </trkpt>
      <trkpt lat="49.491556" lon="6.578925">
        <ele>216.0</ele>
        <time>2020-07-09T09:25:36Z</time>
      </trkpt>
      <trkpt lat="49.491546" lon="6.578798">
        <ele>216.0</ele>
        <time>2020-07-09T09:25:38Z</time>
      </trkpt>
      <trkpt lat="49.491563" lon="6.578599">
        <ele>216.0</ele>
        <time>2020-07-09T09:25:41Z</time>
      </trkpt>
      <trkpt lat="49.491566" lon="6.578458">
        <ele>216.0</ele>
        <time>2020-07-09T09:25:43Z</time>
      </trkpt>
      <trkpt lat="49.491579" lon="6.578321">
        <ele>216.0</ele>
        <time>2020-07-09T09:25:45Z</time>
      </trkpt>
      <trkpt lat="49.491588" lon="6.578183">
        <ele>215.0</ele>
        <time>2020-07-09T09:25:47Z</time>
      </trkpt>
      <trkpt lat="49.491605" lon="6.578032">
        <ele>215.0</ele>
        <time>2020-07-09T09:25:49Z</time>
      </trkpt>
      <trkpt lat="49.491618" lon="6.577884">
        <ele>215.0</ele>
        <time>2020-07-09T09:25:51Z</time>
      </trkpt>
      <trkpt lat="49.491626" lon="6.577741">
        <ele>215.0</ele>
        <time>2020-07-09T09:25:53Z</time>
      </trkpt>
      <trkpt lat="49.491631" lon="6.577596">
        <ele>215.0</ele>
        <time>2020-07-09T09:25:55Z</time>
      </trkpt>
      <trkpt lat="49.491634" lon="6.577443">
        <ele>215.0</ele>
        <time>2020-07-09T09:25:57Z</time>
      </trkpt>
      <trkpt lat="49.491637" lon="6.577299">
        <ele>215.0</ele>
        <time>2020-07-09T09:25:59Z</time>
      </trkpt>
      <trkpt lat="49.491651" lon="6.577163">
        <ele>214.0</ele>
        <time>2020-07-09T09:26:01Z</time>
      </trkpt>
      <trkpt lat="49.49166" lon="6.577031">
        <ele>214.0</ele>
        <time>2020-07-09T09:26:03Z</time>
      </trkpt>
      <trkpt lat="49.49165" lon="6.576891">
        <ele>214.0</ele>
        <time>2020-07-09T09:26:05Z</time>
      </trkpt>
      <trkpt lat="49.491641" lon="6.576753">
        <ele>214.0</ele>
        <time>2020-07-09T09:26:07Z</time>
      </trkpt>
      <trkpt lat="49.491639" lon="6.576611">
        <ele>215.0</ele>
        <time>2020-07-09T09:26:09Z</time>
      </trkpt>
      <trkpt lat="49.49164" lon="6.576458">
        <ele>215.0</ele>
        <time>2020-07-09T09:26:11Z</time>
      </trkpt>
      <trkpt lat="49.491664" lon="6.576246">
        <ele>215.0</ele>
        <time>2020-07-09T09:26:14Z</time>
      </trkpt>
      <trkpt lat="49.491696" lon="6.576108">
        <ele>215.0</ele>
        <time>2020-07-09T09:26:16Z</time>
      </trkpt>
      <trkpt lat="49.491743" lon="6.575896">
        <ele>215.0</ele>
        <time>2020-07-09T09:26:19Z</time>
      </trkpt>
      <trkpt lat="49.491774" lon="6.575753">
        <ele>215.0</ele>
        <time>2020-07-09T09:26:21Z</time>
      </trkpt>
      <trkpt lat="49.491815" lon="6.575601">
        <ele>215.0</ele>
        <time>2020-07-09T09:26:23Z</time>
      </trkpt>
      <trkpt lat="49.491862" lon="6.575367">
        <ele>216.0</ele>
        <time>2020-07-09T09:26:26Z</time>
      </trkpt>
      <trkpt lat="49.491895" lon="6.575213">
        <ele>216.0</ele>
        <time>2020-07-09T09:26:28Z</time>
      </trkpt>
      <trkpt lat="49.491919" lon="6.575057">
        <ele>216.0</ele>
        <time>2020-07-09T09:26:30Z</time>
      </trkpt>
      <trkpt lat="49.491949" lon="6.574903">
        <ele>216.0</ele>
        <time>2020-07-09T09:26:32Z</time>
      </trkpt>
      <trkpt lat="49.491981" lon="6.574754">
        <ele>216.0</ele>
        <time>2020-07-09T09:26:34Z</time>
      </trkpt>
      <trkpt lat="49.492025" lon="6.574522">
        <ele>217.0</ele>
        <time>2020-07-09T09:26:37Z</time>
      </trkpt>
      <trkpt lat="49.492049" lon="6.574364">
        <ele>217.0</ele>
        <time>2020-07-09T09:26:39Z</time>
      </trkpt>
      <trkpt lat="49.492077" lon="6.574208">
        <ele>217.0</ele>
        <time>2020-07-09T09:26:41Z</time>
      </trkpt>
      <trkpt lat="49.492105" lon="6.574051">
        <ele>217.0</ele>
        <time>2020-07-09T09:26:43Z</time>
      </trkpt>
      <trkpt lat="49.492145" lon="6.573891">
        <ele>217.0</ele>
        <time>2020-07-09T09:26:45Z</time>
      </trkpt>
      <trkpt lat="49.492187" lon="6.573742">
        <ele>217.0</ele>
        <time>2020-07-09T09:26:47Z</time>
      </trkpt>
      <trkpt lat="49.492239" lon="6.573604">
        <ele>217.0</ele>
        <time>2020-07-09T09:26:49Z</time>
      </trkpt>
      <trkpt lat="49.492289" lon="6.573475">
        <ele>218.0</ele>
        <time>2020-07-09T09:26:51Z</time>
      </trkpt>
      <trkpt lat="49.492346" lon="6.573339">
        <ele>218.0</ele>
        <time>2020-07-09T09:26:53Z</time>
      </trkpt>
      <trkpt lat="49.492407" lon="6.573212">
        <ele>218.0</ele>
        <time>2020-07-09T09:26:55Z</time>
      </trkpt>
      <trkpt lat="49.492463" lon="6.573098">
        <ele>218.0</ele>
        <time>2020-07-09T09:26:57Z</time>
      </trkpt>
      <trkpt lat="49.492523" lon="6.572976">
        <ele>218.0</ele>
        <time>2020-07-09T09:26:59Z</time>
      </trkpt>
      <trkpt lat="49.492582" lon="6.572847">
        <ele>218.0</ele>
        <time>2020-07-09T09:27:01Z</time>
      </trkpt>
      <trkpt lat="49.492612" lon="6.572777">
        <ele>219.0</ele>
        <time>2020-07-09T09:27:02Z</time>
      </trkpt>
      <trkpt lat="49.492702" lon="6.572581">
        <ele>219.0</ele>
        <time>2020-07-09T09:27:05Z</time>
      </trkpt>
      <trkpt lat="49.492764" lon="6.572449">
        <ele>219.0</ele>
        <time>2020-07-09T09:27:07Z</time>
      </trkpt>
      <trkpt lat="49.492831" lon="6.572323">
        <ele>219.0</ele>
        <time>2020-07-09T09:27:09Z</time>
      </trkpt>
      <trkpt lat="49.492933" lon="6.572127">
        <ele>218.0</ele>
        <time>2020-07-09T09:27:12Z</time>
      </trkpt>
      <trkpt lat="49.492999" lon="6.572017">
        <ele>219.0</ele>
        <time>2020-07-09T09:27:14Z</time>
      </trkpt>
      <trkpt lat="49.493063" lon="6.571909">
        <ele>219.0</ele>
        <time>2020-07-09T09:27:16Z</time>
      </trkpt>
      <trkpt lat="49.493134" lon="6.571791">
        <ele>219.0</ele>
        <time>2020-07-09T09:27:18Z</time>
      </trkpt>
      <trkpt lat="49.493206" lon="6.571678">
        <ele>219.0</ele>
        <time>2020-07-09T09:27:20Z</time>
      </trkpt>
      <trkpt lat="49.493273" lon="6.571569">
        <ele>219.0</ele>
        <time>2020-07-09T09:27:22Z</time>
      </trkpt>
      <trkpt lat="49.493378" lon="6.571409">
        <ele>219.0</ele>
        <time>2020-07-09T09:27:25Z</time>
      </trkpt>
      <trkpt lat="49.493411" lon="6.571361">
        <ele>219.0</ele>
        <time>2020-07-09T09:27:26Z</time>
      </trkpt>
      <trkpt lat="49.493518" lon="6.571202">
        <ele>219.0</ele>
        <time>2020-07-09T09:27:29Z</time>
      </trkpt>
      <trkpt lat="49.493591" lon="6.571089">
        <ele>219.0</ele>
        <time>2020-07-09T09:27:31Z</time>
      </trkpt>
      <trkpt lat="49.493667" lon="6.570991">
        <ele>219.0</ele>
        <time>2020-07-09T09:27:33Z</time>
      </trkpt>
      <trkpt lat="49.493737" lon="6.5709">
        <ele>218.0</ele>
        <time>2020-07-09T09:27:35Z</time>
      </trkpt>
      <trkpt lat="49.493808" lon="6.570814">
        <ele>218.0</ele>
        <time>2020-07-09T09:27:37Z</time>
      </trkpt>
      <trkpt lat="49.493881" lon="6.570722">
        <ele>217.0</ele>
        <time>2020-07-09T09:27:39Z</time>
      </trkpt>
      <trkpt lat="49.493987" lon="6.570565">
        <ele>217.0</ele>
        <time>2020-07-09T09:27:42Z</time>
      </trkpt>
      <trkpt lat="49.494061" lon="6.570457">
        <ele>217.0</ele>
        <time>2020-07-09T09:27:44Z</time>
      </trkpt>
      <trkpt lat="49.494137" lon="6.57035">
        <ele>218.0</ele>
        <time>2020-07-09T09:27:46Z</time>
      </trkpt>
      <trkpt lat="49.494211" lon="6.570247">
        <ele>218.0</ele>
        <time>2020-07-09T09:27:48Z</time>
      </trkpt>
      <trkpt lat="49.494283" lon="6.57015">
        <ele>218.0</ele>
        <time>2020-07-09T09:27:50Z</time>
      </trkpt>
      <trkpt lat="49.494355" lon="6.570048">
        <ele>217.0</ele>
        <time>2020-07-09T09:27:52Z</time>
      </trkpt>
      <trkpt lat="49.494432" lon="6.569936">
        <ele>217.0</ele>
        <time>2020-07-09T09:27:54Z</time>
      </trkpt>
      <trkpt lat="49.494501" lon="6.569838">
        <ele>217.0</ele>
        <time>2020-07-09T09:27:56Z</time>
      </trkpt>
      <trkpt lat="49.494576" lon="6.569736">
        <ele>216.0</ele>
        <time>2020-07-09T09:27:58Z</time>
      </trkpt>
      <trkpt lat="49.494648" lon="6.569631">
        <ele>216.0</ele>
        <time>2020-07-09T09:28:00Z</time>
      </trkpt>
      <trkpt lat="49.49472" lon="6.569524">
        <ele>216.0</ele>
        <time>2020-07-09T09:28:02Z</time>
      </trkpt>
      <trkpt lat="49.49479" lon="6.569418">
        <ele>216.0</ele>
        <time>2020-07-09T09:28:04Z</time>
      </trkpt>
      <trkpt lat="49.494854" lon="6.569305">
        <ele>216.0</ele>
        <time>2020-07-09T09:28:06Z</time>
      </trkpt>
      <trkpt lat="49.494922" lon="6.569206">
        <ele>215.0</ele>
        <time>2020-07-09T09:28:08Z</time>
      </trkpt>
      <trkpt lat="49.495039" lon="6.569086">
        <ele>215.0</ele>
        <time>2020-07-09T09:28:11Z</time>
      </trkpt>
      <trkpt lat="49.495117" lon="6.569004">
        <ele>215.0</ele>
        <time>2020-07-09T09:28:13Z</time>
      </trkpt>
      <trkpt lat="49.495158" lon="6.568957">
        <ele>215.0</ele>
        <time>2020-07-09T09:28:14Z</time>
      </trkpt>
      <trkpt lat="49.495269" lon="6.568823">
        <ele>215.0</ele>
        <time>2020-07-09T09:28:17Z</time>
      </trkpt>
      <trkpt lat="49.49539" lon="6.568696">
        <ele>215.0</ele>
        <time>2020-07-09T09:28:20Z</time>
      </trkpt>
      <trkpt lat="49.495465" lon="6.568617">
        <ele>215.0</ele>
        <time>2020-07-09T09:28:22Z</time>
      </trkpt>
      <trkpt lat="49.495543" lon="6.568533">
        <ele>215.0</ele>
        <time>2020-07-09T09:28:24Z</time>
      </trkpt>
      <trkpt lat="49.495614" lon="6.568462">
        <ele>214.0</ele>
        <time>2020-07-09T09:28:26Z</time>
      </trkpt>
      <trkpt lat="49.49569" lon="6.568392">
        <ele>214.0</ele>
        <time>2020-07-09T09:28:28Z</time>
      </trkpt>
      <trkpt lat="49.495768" lon="6.568316">
        <ele>213.0</ele>
        <time>2020-07-09T09:28:30Z</time>
      </trkpt>
      <trkpt lat="49.495845" lon="6.568229">
        <ele>214.0</ele>
        <time>2020-07-09T09:28:32Z</time>
      </trkpt>
      <trkpt lat="49.49592" lon="6.568154">
        <ele>214.0</ele>
        <time>2020-07-09T09:28:34Z</time>
      </trkpt>
      <trkpt lat="49.495986" lon="6.568088">
        <ele>214.0</ele>
        <time>2020-07-09T09:28:36Z</time>
      </trkpt>
      <trkpt lat="49.496064" lon="6.568009">
        <ele>213.0</ele>
        <time>2020-07-09T09:28:38Z</time>
      </trkpt>
      <trkpt lat="49.496138" lon="6.56793">
        <ele>214.0</ele>
        <time>2020-07-09T09:28:40Z</time>
      </trkpt>
      <trkpt lat="49.496209" lon="6.567846">
        <ele>214.0</ele>
        <time>2020-07-09T09:28:42Z</time>
      </trkpt>
      <trkpt lat="49.49628" lon="6.567754">
        <ele>214.0</ele>
        <time>2020-07-09T09:28:44Z</time>
      </trkpt>
      <trkpt lat="49.496353" lon="6.567673">
        <ele>214.0</ele>
        <time>2020-07-09T09:28:46Z</time>
      </trkpt>
      <trkpt lat="49.496427" lon="6.567593">
        <ele>214.0</ele>
        <time>2020-07-09T09:28:48Z</time>
      </trkpt>
      <trkpt lat="49.496505" lon="6.567517">
        <ele>213.0</ele>
        <time>2020-07-09T09:28:50Z</time>
      </trkpt>
      <trkpt lat="49.496583" lon="6.567432">
        <ele>214.0</ele>
        <time>2020-07-09T09:28:52Z</time>
      </trkpt>
      <trkpt lat="49.49666" lon="6.567359">
        <ele>214.0</ele>
        <time>2020-07-09T09:28:54Z</time>
      </trkpt>
      <trkpt lat="49.496743" lon="6.567283">
        <ele>214.0</ele>
        <time>2020-07-09T09:28:56Z</time>
      </trkpt>
      <trkpt lat="49.496861" lon="6.567133">
        <ele>213.0</ele>
        <time>2020-07-09T09:28:59Z</time>
      </trkpt>
      <trkpt lat="49.496947" lon="6.567052">
        <ele>213.0</ele>
        <time>2020-07-09T09:29:01Z</time>
      </trkpt>
      <trkpt lat="49.497026" lon="6.566967">
        <ele>213.0</ele>
        <time>2020-07-09T09:29:03Z</time>
      </trkpt>
      <trkpt lat="49.497145" lon="6.566859">
        <ele>212.0</ele>
        <time>2020-07-09T09:29:06Z</time>
      </trkpt>
      <trkpt lat="49.497228" lon="6.566785">
        <ele>212.0</ele>
        <time>2020-07-09T09:29:08Z</time>
      </trkpt>
      <trkpt lat="49.497317" lon="6.566723">
        <ele>211.0</ele>
        <time>2020-07-09T09:29:10Z</time>
      </trkpt>
      <trkpt lat="49.497407" lon="6.566679">
        <ele>211.0</ele>
        <time>2020-07-09T09:29:12Z</time>
      </trkpt>
      <trkpt lat="49.49749" lon="6.566633">
        <ele>211.0</ele>
        <time>2020-07-09T09:29:14Z</time>
      </trkpt>
      <trkpt lat="49.497568" lon="6.56659">
        <ele>211.0</ele>
        <time>2020-07-09T09:29:16Z</time>
      </trkpt>
      <trkpt lat="49.497647" lon="6.566531">
        <ele>211.0</ele>
        <time>2020-07-09T09:29:18Z</time>
      </trkpt>
      <trkpt lat="49.497719" lon="6.566477">
        <ele>211.0</ele>
        <time>2020-07-09T09:29:20Z</time>
      </trkpt>
      <trkpt lat="49.497787" lon="6.566428">
        <ele>211.0</ele>
        <time>2020-07-09T09:29:22Z</time>
      </trkpt>
      <trkpt lat="49.497837" lon="6.566359">
        <ele>211.0</ele>
        <time>2020-07-09T09:29:24Z</time>
      </trkpt>
      <trkpt lat="49.497854" lon="6.56631">
        <ele>212.0</ele>
        <time>2020-07-09T09:29:26Z</time>
      </trkpt>
      <trkpt lat="49.497857" lon="6.566311">
        <ele>212.0</ele>
        <time>2020-07-09T09:29:28Z</time>
      </trkpt>
      <trkpt lat="49.49786" lon="6.566305">
        <ele>212.0</ele>
        <time>2020-07-09T09:29:30Z</time>
      </trkpt>
      <trkpt lat="49.49786" lon="6.566305">
        <ele>212.0</ele>
        <time>2020-07-09T09:29:48Z</time>
      </trkpt>
      <trkpt lat="49.49786" lon="6.566305">
        <ele>212.0</ele>
        <time>2020-07-09T09:29:50Z</time>
      </trkpt>
      <trkpt lat="49.49786" lon="6.566305">
        <ele>212.0</ele>
        <time>2020-07-09T09:29:52Z</time>
      </trkpt>
      <trkpt lat="49.49786" lon="6.566305">
        <ele>212.0</ele>
        <time>2020-07-09T09:29:54Z</time>
      </trkpt>
      <trkpt lat="49.497863" lon="6.566315">
        <ele>212.0</ele>
        <time>2020-07-09T09:29:56Z</time>
      </trkpt>
      <trkpt lat="49.497865" lon="6.566317">
        <ele>211.0</ele>
        <time>2020-07-09T09:29:58Z</time>
      </trkpt>
      <trkpt lat="49.497865" lon="6.566317">
        <ele>211.0</ele>
        <time>2020-07-09T09:30:00Z</time>
      </trkpt>
      <trkpt lat="49.497865" lon="6.566317">
        <ele>211.0</ele>
        <time>2020-07-09T09:30:02Z</time>
      </trkpt>
      <trkpt lat="49.497865" lon="6.566317">
        <ele>211.0</ele>
        <time>2020-07-09T09:30:04Z</time>
      </trkpt>
      <trkpt lat="49.497865" lon="6.566317">
        <ele>211.0</ele>
        <time>2020-07-09T09:30:06Z</time>
      </trkpt>
      <trkpt lat="49.497865" lon="6.566317">
        <ele>211.0</ele>
        <time>2020-07-09T09:30:08Z</time>
      </trkpt>
      <trkpt lat="49.497872" lon="6.566314">
        <ele>211.0</ele>
        <time>2020-07-09T09:30:10Z</time>
      </trkpt>
      <trkpt lat="49.497887" lon="6.566298">
        <ele>210.0</ele>
        <time>2020-07-09T09:30:12Z</time>
      </trkpt>
      <trkpt lat="49.497924" lon="6.566268">
        <ele>211.0</ele>
        <time>2020-07-09T09:30:14Z</time>
      </trkpt>
      <trkpt lat="49.498005" lon="6.566193">
        <ele>211.0</ele>
        <time>2020-07-09T09:30:17Z</time>
      </trkpt>
      <trkpt lat="49.498064" lon="6.566106">
        <ele>211.0</ele>
        <time>2020-07-09T09:30:19Z</time>
      </trkpt>
      <trkpt lat="49.498116" lon="6.566002">
        <ele>210.0</ele>
        <time>2020-07-09T09:30:21Z</time>
      </trkpt>
      <trkpt lat="49.498142" lon="6.565947">
        <ele>210.0</ele>
        <time>2020-07-09T09:30:22Z</time>
      </trkpt>
      <trkpt lat="49.498215" lon="6.565781">
        <ele>211.0</ele>
        <time>2020-07-09T09:30:25Z</time>
      </trkpt>
      <trkpt lat="49.498255" lon="6.565652">
        <ele>213.0</ele>
        <time>2020-07-09T09:30:27Z</time>
      </trkpt>
      <trkpt lat="49.498285" lon="6.565515">
        <ele>213.0</ele>
        <time>2020-07-09T09:30:29Z</time>
      </trkpt>
      <trkpt lat="49.498314" lon="6.565386">
        <ele>213.0</ele>
        <time>2020-07-09T09:30:31Z</time>
      </trkpt>
      <trkpt lat="49.498336" lon="6.565252">
        <ele>214.0</ele>
        <time>2020-07-09T09:30:33Z</time>
      </trkpt>
      <trkpt lat="49.498356" lon="6.565107">
        <ele>214.0</ele>
        <time>2020-07-09T09:30:35Z</time>
      </trkpt>
      <trkpt lat="49.498365" lon="6.564964">
        <ele>215.0</ele>
        <time>2020-07-09T09:30:37Z</time>
      </trkpt>
      <trkpt lat="49.498383" lon="6.564763">
        <ele>214.0</ele>
        <time>2020-07-09T09:30:40Z</time>
      </trkpt>
      <trkpt lat="49.498387" lon="6.564608">
        <ele>215.0</ele>
        <time>2020-07-09T09:30:42Z</time>
      </trkpt>
      <trkpt lat="49.498385" lon="6.564458">
        <ele>214.0</ele>
        <time>2020-07-09T09:30:44Z</time>
      </trkpt>
      <trkpt lat="49.498378" lon="6.564316">
        <ele>215.0</ele>
        <time>2020-07-09T09:30:46Z</time>
      </trkpt>
      <trkpt lat="49.498367" lon="6.564178">
        <ele>215.0</ele>
        <time>2020-07-09T09:30:48Z</time>
      </trkpt>
      <trkpt lat="49.498355" lon="6.564028">
        <ele>215.0</ele>
        <time>2020-07-09T09:30:50Z</time>
      </trkpt>
      <trkpt lat="49.498354" lon="6.563872">
        <ele>215.0</ele>
        <time>2020-07-09T09:30:52Z</time>
      </trkpt>
      <trkpt lat="49.498347" lon="6.563723">
        <ele>215.0</ele>
        <time>2020-07-09T09:30:54Z</time>
      </trkpt>
      <trkpt lat="49.498344" lon="6.563569">
        <ele>215.0</ele>
        <time>2020-07-09T09:30:56Z</time>
      </trkpt>
      <trkpt lat="49.498343" lon="6.563418">
        <ele>215.0</ele>
        <time>2020-07-09T09:30:58Z</time>
      </trkpt>
      <trkpt lat="49.498347" lon="6.563273">
        <ele>215.0</ele>
        <time>2020-07-09T09:31:00Z</time>
      </trkpt>
      <trkpt lat="49.498364" lon="6.563134">
        <ele>215.0</ele>
        <time>2020-07-09T09:31:02Z</time>
      </trkpt>
      <trkpt lat="49.498386" lon="6.562994">
        <ele>216.0</ele>
        <time>2020-07-09T09:31:04Z</time>
      </trkpt>
      <trkpt lat="49.498401" lon="6.562853">
        <ele>216.0</ele>
        <time>2020-07-09T09:31:06Z</time>
      </trkpt>
      <trkpt lat="49.498413" lon="6.56271">
        <ele>216.0</ele>
        <time>2020-07-09T09:31:08Z</time>
      </trkpt>
      <trkpt lat="49.498427" lon="6.562501">
        <ele>217.0</ele>
        <time>2020-07-09T09:31:11Z</time>
      </trkpt>
      <trkpt lat="49.498439" lon="6.562376">
        <ele>217.0</ele>
        <time>2020-07-09T09:31:13Z</time>
      </trkpt>
      <trkpt lat="49.498452" lon="6.562263">
        <ele>217.0</ele>
        <time>2020-07-09T09:31:15Z</time>
      </trkpt>
      <trkpt lat="49.498455" lon="6.562133">
        <ele>217.0</ele>
        <time>2020-07-09T09:31:17Z</time>
      </trkpt>
      <trkpt lat="49.49845" lon="6.561978">
        <ele>216.0</ele>
        <time>2020-07-09T09:31:19Z</time>
      </trkpt>
      <trkpt lat="49.498452" lon="6.561817">
        <ele>216.0</ele>
        <time>2020-07-09T09:31:21Z</time>
      </trkpt>
      <trkpt lat="49.498449" lon="6.561584">
        <ele>215.0</ele>
        <time>2020-07-09T09:31:24Z</time>
      </trkpt>
      <trkpt lat="49.498437" lon="6.561433">
        <ele>215.0</ele>
        <time>2020-07-09T09:31:26Z</time>
      </trkpt>
      <trkpt lat="49.498425" lon="6.561297">
        <ele>215.0</ele>
        <time>2020-07-09T09:31:28Z</time>
      </trkpt>
      <trkpt lat="49.498425" lon="6.561159">
        <ele>215.0</ele>
        <time>2020-07-09T09:31:30Z</time>
      </trkpt>
      <trkpt lat="49.498402" lon="6.561034">
        <ele>215.0</ele>
        <time>2020-07-09T09:31:32Z</time>
      </trkpt>
      <trkpt lat="49.498387" lon="6.560888">
        <ele>215.0</ele>
        <time>2020-07-09T09:31:34Z</time>
      </trkpt>
      <trkpt lat="49.498384" lon="6.560748">
        <ele>215.0</ele>
        <time>2020-07-09T09:31:36Z</time>
      </trkpt>
      <trkpt lat="49.498384" lon="6.560597">
        <ele>214.0</ele>
        <time>2020-07-09T09:31:38Z</time>
      </trkpt>
      <trkpt lat="49.498385" lon="6.560443">
        <ele>213.0</ele>
        <time>2020-07-09T09:31:40Z</time>
      </trkpt>
      <trkpt lat="49.49838" lon="6.560304">
        <ele>213.0</ele>
        <time>2020-07-09T09:31:42Z</time>
      </trkpt>
      <trkpt lat="49.498382" lon="6.560155">
        <ele>212.0</ele>
        <time>2020-07-09T09:31:44Z</time>
      </trkpt>
      <trkpt lat="49.498385" lon="6.559929">
        <ele>213.0</ele>
        <time>2020-07-09T09:31:47Z</time>
      </trkpt>
      <trkpt lat="49.498385" lon="6.559784">
        <ele>213.0</ele>
        <time>2020-07-09T09:31:49Z</time>
      </trkpt>
      <trkpt lat="49.49839" lon="6.559634">
        <ele>213.0</ele>
        <time>2020-07-09T09:31:51Z</time>
      </trkpt>
      <trkpt lat="49.498393" lon="6.559487">
        <ele>213.0</ele>
        <time>2020-07-09T09:31:53Z</time>
      </trkpt>
      <trkpt lat="49.498408" lon="6.559341">
        <ele>213.0</ele>
        <time>2020-07-09T09:31:55Z</time>
      </trkpt>
      <trkpt lat="49.498428" lon="6.559196">
        <ele>213.0</ele>
        <time>2020-07-09T09:31:57Z</time>
      </trkpt>
      <trkpt lat="49.498449" lon="6.559053">
        <ele>213.0</ele>
        <time>2020-07-09T09:31:59Z</time>
      </trkpt>
      <trkpt lat="49.498477" lon="6.558914">
        <ele>213.0</ele>
        <time>2020-07-09T09:32:01Z</time>
      </trkpt>
      <trkpt lat="49.498516" lon="6.558732">
        <ele>214.0</ele>
        <time>2020-07-09T09:32:04Z</time>
      </trkpt>
      <trkpt lat="49.498541" lon="6.558627">
        <ele>214.0</ele>
        <time>2020-07-09T09:32:06Z</time>
      </trkpt>
      <trkpt lat="49.498554" lon="6.558517">
        <ele>214.0</ele>
        <time>2020-07-09T09:32:08Z</time>
      </trkpt>
      <trkpt lat="49.498567" lon="6.558374">
        <ele>214.0</ele>
        <time>2020-07-09T09:32:10Z</time>
      </trkpt>
      <trkpt lat="49.498594" lon="6.558235">
        <ele>214.0</ele>
        <time>2020-07-09T09:32:12Z</time>
      </trkpt>
      <trkpt lat="49.498617" lon="6.558103">
        <ele>214.0</ele>
        <time>2020-07-09T09:32:14Z</time>
      </trkpt>
      <trkpt lat="49.498649" lon="6.557961">
        <ele>214.0</ele>
        <time>2020-07-09T09:32:16Z</time>
      </trkpt>
      <trkpt lat="49.498673" lon="6.557832">
        <ele>214.0</ele>
        <time>2020-07-09T09:32:18Z</time>
      </trkpt>
      <trkpt lat="49.498722" lon="6.557645">
        <ele>214.0</ele>
        <time>2020-07-09T09:32:21Z</time>
      </trkpt>
      <trkpt lat="49.498734" lon="6.557584">
        <ele>214.0</ele>
        <time>2020-07-09T09:32:22Z</time>
      </trkpt>
      <trkpt lat="49.498763" lon="6.557362">
        <ele>214.0</ele>
        <time>2020-07-09T09:32:25Z</time>
      </trkpt>
      <trkpt lat="49.498802" lon="6.557209">
        <ele>214.0</ele>
        <time>2020-07-09T09:32:27Z</time>
      </trkpt>
      <trkpt lat="49.498861" lon="6.557075">
        <ele>214.0</ele>
        <time>2020-07-09T09:32:29Z</time>
      </trkpt>
      <trkpt lat="49.498934" lon="6.556943">
        <ele>213.0</ele>
        <time>2020-07-09T09:32:31Z</time>
      </trkpt>
      <trkpt lat="49.49901" lon="6.556831">
        <ele>213.0</ele>
        <time>2020-07-09T09:32:33Z</time>
      </trkpt>
      <trkpt lat="49.499093" lon="6.556726">
        <ele>212.0</ele>
        <time>2020-07-09T09:32:35Z</time>
      </trkpt>
      <trkpt lat="49.499177" lon="6.556619">
        <ele>213.0</ele>
        <time>2020-07-09T09:32:37Z</time>
      </trkpt>
      <trkpt lat="49.499253" lon="6.556512">
        <ele>213.0</ele>
        <time>2020-07-09T09:32:39Z</time>
      </trkpt>
      <trkpt lat="49.499322" lon="6.556422">
        <ele>213.0</ele>
        <time>2020-07-09T09:32:41Z</time>
      </trkpt>
      <trkpt lat="49.499379" lon="6.556307">
        <ele>213.0</ele>
        <time>2020-07-09T09:32:43Z</time>
      </trkpt>
      <trkpt lat="49.49942" lon="6.556186">
        <ele>213.0</ele>
        <time>2020-07-09T09:32:45Z</time>
      </trkpt>
      <trkpt lat="49.499458" lon="6.556064">
        <ele>213.0</ele>
        <time>2020-07-09T09:32:47Z</time>
      </trkpt>
      <trkpt lat="49.499501" lon="6.555937">
        <ele>214.0</ele>
        <time>2020-07-09T09:32:49Z</time>
      </trkpt>
      <trkpt lat="49.499582" lon="6.55573">
        <ele>214.0</ele>
        <time>2020-07-09T09:32:52Z</time>
      </trkpt>
      <trkpt lat="49.499658" lon="6.555611">
        <ele>214.0</ele>
        <time>2020-07-09T09:32:54Z</time>
      </trkpt>
      <trkpt lat="49.499745" lon="6.555482">
        <ele>213.0</ele>
        <time>2020-07-09T09:32:56Z</time>
      </trkpt>
      <trkpt lat="49.499826" lon="6.555369">
        <ele>212.0</ele>
        <time>2020-07-09T09:32:58Z</time>
      </trkpt>
      <trkpt lat="49.499938" lon="6.555222">
        <ele>213.0</ele>
        <time>2020-07-09T09:33:01Z</time>
      </trkpt>
      <trkpt lat="49.500011" lon="6.555126">
        <ele>213.0</ele>
        <time>2020-07-09T09:33:03Z</time>
      </trkpt>
      <trkpt lat="49.500077" lon="6.555036">
        <ele>213.0</ele>
        <time>2020-07-09T09:33:05Z</time>
      </trkpt>
      <trkpt lat="49.500144" lon="6.554958">
        <ele>213.0</ele>
        <time>2020-07-09T09:33:07Z</time>
      </trkpt>
      <trkpt lat="49.500227" lon="6.55488">
        <ele>213.0</ele>
        <time>2020-07-09T09:33:09Z</time>
      </trkpt>
      <trkpt lat="49.500299" lon="6.55481">
        <ele>213.0</ele>
        <time>2020-07-09T09:33:11Z</time>
      </trkpt>
      <trkpt lat="49.500367" lon="6.554728">
        <ele>213.0</ele>
        <time>2020-07-09T09:33:13Z</time>
      </trkpt>
      <trkpt lat="49.500431" lon="6.554647">
        <ele>214.0</ele>
        <time>2020-07-09T09:33:15Z</time>
      </trkpt>
      <trkpt lat="49.500481" lon="6.554558">
        <ele>213.0</ele>
        <time>2020-07-09T09:33:17Z</time>
      </trkpt>
      <trkpt lat="49.500533" lon="6.554444">
        <ele>213.0</ele>
        <time>2020-07-09T09:33:19Z</time>
      </trkpt>
      <trkpt lat="49.500593" lon="6.554325">
        <ele>213.0</ele>
        <time>2020-07-09T09:33:21Z</time>
      </trkpt>
      <trkpt lat="49.500651" lon="6.554216">
        <ele>213.0</ele>
        <time>2020-07-09T09:33:23Z</time>
      </trkpt>
      <trkpt lat="49.500726" lon="6.554108">
        <ele>212.0</ele>
        <time>2020-07-09T09:33:25Z</time>
      </trkpt>
      <trkpt lat="49.500816" lon="6.554021">
        <ele>212.0</ele>
        <time>2020-07-09T09:33:27Z</time>
      </trkpt>
      <trkpt lat="49.500907" lon="6.55395">
        <ele>212.0</ele>
        <time>2020-07-09T09:33:29Z</time>
      </trkpt>
      <trkpt lat="49.500991" lon="6.553882">
        <ele>213.0</ele>
        <time>2020-07-09T09:33:31Z</time>
      </trkpt>
      <trkpt lat="49.501073" lon="6.553828">
        <ele>213.0</ele>
        <time>2020-07-09T09:33:33Z</time>
      </trkpt>
      <trkpt lat="49.501157" lon="6.553786">
        <ele>213.0</ele>
        <time>2020-07-09T09:33:35Z</time>
      </trkpt>
      <trkpt lat="49.501248" lon="6.553747">
        <ele>213.0</ele>
        <time>2020-07-09T09:33:37Z</time>
      </trkpt>
      <trkpt lat="49.501336" lon="6.553714">
        <ele>213.0</ele>
        <time>2020-07-09T09:33:39Z</time>
      </trkpt>
      <trkpt lat="49.501421" lon="6.55368">
        <ele>213.0</ele>
        <time>2020-07-09T09:33:41Z</time>
      </trkpt>
      <trkpt lat="49.501552" lon="6.553617">
        <ele>213.0</ele>
        <time>2020-07-09T09:33:44Z</time>
      </trkpt>
      <trkpt lat="49.501593" lon="6.553579">
        <ele>213.0</ele>
        <time>2020-07-09T09:33:45Z</time>
      </trkpt>
      <trkpt lat="49.501708" lon="6.55345">
        <ele>213.0</ele>
        <time>2020-07-09T09:33:48Z</time>
      </trkpt>
      <trkpt lat="49.50174" lon="6.553408">
        <ele>213.0</ele>
        <time>2020-07-09T09:33:49Z</time>
      </trkpt>
      <trkpt lat="49.50184" lon="6.553266">
        <ele>215.0</ele>
        <time>2020-07-09T09:33:52Z</time>
      </trkpt>
      <trkpt lat="49.501914" lon="6.553171">
        <ele>215.0</ele>
        <time>2020-07-09T09:33:54Z</time>
      </trkpt>
      <trkpt lat="49.501987" lon="6.553069">
        <ele>215.0</ele>
        <time>2020-07-09T09:33:56Z</time>
      </trkpt>
      <trkpt lat="49.502062" lon="6.552971">
        <ele>215.0</ele>
        <time>2020-07-09T09:33:58Z</time>
      </trkpt>
      <trkpt lat="49.502128" lon="6.552875">
        <ele>215.0</ele>
        <time>2020-07-09T09:34:00Z</time>
      </trkpt>
      <trkpt lat="49.50219" lon="6.552768">
        <ele>215.0</ele>
        <time>2020-07-09T09:34:02Z</time>
      </trkpt>
      <trkpt lat="49.502249" lon="6.552671">
        <ele>215.0</ele>
        <time>2020-07-09T09:34:04Z</time>
      </trkpt>
      <trkpt lat="49.502279" lon="6.552613">
        <ele>215.0</ele>
        <time>2020-07-09T09:34:05Z</time>
      </trkpt>
      <trkpt lat="49.502372" lon="6.552432">
        <ele>215.0</ele>
        <time>2020-07-09T09:34:08Z</time>
      </trkpt>
      <trkpt lat="49.502432" lon="6.5523">
        <ele>215.0</ele>
        <time>2020-07-09T09:34:10Z</time>
      </trkpt>
      <trkpt lat="49.502484" lon="6.552176">
        <ele>216.0</ele>
        <time>2020-07-09T09:34:12Z</time>
      </trkpt>
      <trkpt lat="49.502509" lon="6.552116">
        <ele>216.0</ele>
        <time>2020-07-09T09:34:13Z</time>
      </trkpt>
      <trkpt lat="49.502559" lon="6.551978">
        <ele>217.0</ele>
        <time>2020-07-09T09:34:15Z</time>
      </trkpt>
      <trkpt lat="49.502655" lon="6.551719">
        <ele>217.0</ele>
        <time>2020-07-09T09:34:19Z</time>
      </trkpt>
      <trkpt lat="49.502701" lon="6.551586">
        <ele>218.0</ele>
        <time>2020-07-09T09:34:21Z</time>
      </trkpt>
      <trkpt lat="49.502745" lon="6.551452">
        <ele>217.0</ele>
        <time>2020-07-09T09:34:23Z</time>
      </trkpt>
      <trkpt lat="49.502767" lon="6.551387">
        <ele>217.0</ele>
        <time>2020-07-09T09:34:24Z</time>
      </trkpt>
      <trkpt lat="49.502821" lon="6.551175">
        <ele>217.0</ele>
        <time>2020-07-09T09:34:27Z</time>
      </trkpt>
      <trkpt lat="49.502871" lon="6.550964">
        <ele>218.0</ele>
        <time>2020-07-09T09:34:30Z</time>
      </trkpt>
      <trkpt lat="49.502907" lon="6.550829">
        <ele>218.0</ele>
        <time>2020-07-09T09:34:32Z</time>
      </trkpt>
      <trkpt lat="49.502924" lon="6.550756">
        <ele>219.0</ele>
        <time>2020-07-09T09:34:33Z</time>
      </trkpt>
      <trkpt lat="49.502975" lon="6.550559">
        <ele>219.0</ele>
        <time>2020-07-09T09:34:36Z</time>
      </trkpt>
      <trkpt lat="49.503008" lon="6.550432">
        <ele>219.0</ele>
        <time>2020-07-09T09:34:38Z</time>
      </trkpt>
      <trkpt lat="49.503041" lon="6.550295">
        <ele>219.0</ele>
        <time>2020-07-09T09:34:40Z</time>
      </trkpt>
      <trkpt lat="49.503079" lon="6.550158">
        <ele>218.0</ele>
        <time>2020-07-09T09:34:42Z</time>
      </trkpt>
      <trkpt lat="49.503113" lon="6.550026">
        <ele>218.0</ele>
        <time>2020-07-09T09:34:44Z</time>
      </trkpt>
      <trkpt lat="49.503137" lon="6.549813">
        <ele>218.0</ele>
        <time>2020-07-09T09:34:47Z</time>
      </trkpt>
      <trkpt lat="49.503151" lon="6.549681">
        <ele>217.0</ele>
        <time>2020-07-09T09:34:49Z</time>
      </trkpt>
      <trkpt lat="49.503153" lon="6.549615">
        <ele>217.0</ele>
        <time>2020-07-09T09:34:50Z</time>
      </trkpt>
      <trkpt lat="49.503157" lon="6.54947">
        <ele>217.0</ele>
        <time>2020-07-09T09:34:52Z</time>
      </trkpt>
      <trkpt lat="49.503162" lon="6.549254">
        <ele>217.0</ele>
        <time>2020-07-09T09:34:55Z</time>
      </trkpt>
      <trkpt lat="49.503152" lon="6.549118">
        <ele>218.0</ele>
        <time>2020-07-09T09:34:57Z</time>
      </trkpt>
      <trkpt lat="49.503144" lon="6.548981">
        <ele>219.0</ele>
        <time>2020-07-09T09:34:59Z</time>
      </trkpt>
      <trkpt lat="49.503127" lon="6.548766">
        <ele>218.0</ele>
        <time>2020-07-09T09:35:02Z</time>
      </trkpt>
      <trkpt lat="49.503114" lon="6.548617">
        <ele>218.0</ele>
        <time>2020-07-09T09:35:04Z</time>
      </trkpt>
      <trkpt lat="49.503097" lon="6.548467">
        <ele>218.0</ele>
        <time>2020-07-09T09:35:06Z</time>
      </trkpt>
      <trkpt lat="49.503083" lon="6.54832">
        <ele>219.0</ele>
        <time>2020-07-09T09:35:08Z</time>
      </trkpt>
      <trkpt lat="49.50306" lon="6.548182">
        <ele>219.0</ele>
        <time>2020-07-09T09:35:10Z</time>
      </trkpt>
      <trkpt lat="49.50303" lon="6.54798">
        <ele>219.0</ele>
        <time>2020-07-09T09:35:13Z</time>
      </trkpt>
      <trkpt lat="49.503004" lon="6.547844">
        <ele>219.0</ele>
        <time>2020-07-09T09:35:15Z</time>
      </trkpt>
      <trkpt lat="49.502978" lon="6.547704">
        <ele>219.0</ele>
        <time>2020-07-09T09:35:17Z</time>
      </trkpt>
      <trkpt lat="49.502961" lon="6.547549">
        <ele>219.0</ele>
        <time>2020-07-09T09:35:19Z</time>
      </trkpt>
      <trkpt lat="49.502946" lon="6.547415">
        <ele>219.0</ele>
        <time>2020-07-09T09:35:21Z</time>
      </trkpt>
      <trkpt lat="49.502922" lon="6.547289">
        <ele>219.0</ele>
        <time>2020-07-09T09:35:23Z</time>
      </trkpt>
      <trkpt lat="49.502908" lon="6.547226">
        <ele>219.0</ele>
        <time>2020-07-09T09:35:24Z</time>
      </trkpt>
      <trkpt lat="49.502857" lon="6.547005">
        <ele>219.0</ele>
        <time>2020-07-09T09:35:27Z</time>
      </trkpt>
      <trkpt lat="49.502826" lon="6.54684">
        <ele>219.0</ele>
        <time>2020-07-09T09:35:29Z</time>
      </trkpt>
      <trkpt lat="49.502782" lon="6.546703">
        <ele>219.0</ele>
        <time>2020-07-09T09:35:31Z</time>
      </trkpt>
      <trkpt lat="49.502729" lon="6.546562">
        <ele>219.0</ele>
        <time>2020-07-09T09:35:33Z</time>
      </trkpt>
      <trkpt lat="49.502671" lon="6.546421">
        <ele>220.0</ele>
        <time>2020-07-09T09:35:35Z</time>
      </trkpt>
      <trkpt lat="49.502611" lon="6.546272">
        <ele>219.0</ele>
        <time>2020-07-09T09:35:37Z</time>
      </trkpt>
      <trkpt lat="49.502516" lon="6.546054">
        <ele>219.0</ele>
        <time>2020-07-09T09:35:40Z</time>
      </trkpt>
      <trkpt lat="49.502458" lon="6.545918">
        <ele>219.0</ele>
        <time>2020-07-09T09:35:42Z</time>
      </trkpt>
      <trkpt lat="49.502404" lon="6.545789">
        <ele>220.0</ele>
        <time>2020-07-09T09:35:44Z</time>
      </trkpt>
      <trkpt lat="49.502349" lon="6.545654">
        <ele>220.0</ele>
        <time>2020-07-09T09:35:46Z</time>
      </trkpt>
      <trkpt lat="49.502292" lon="6.545529">
        <ele>220.0</ele>
        <time>2020-07-09T09:35:48Z</time>
      </trkpt>
      <trkpt lat="49.50223" lon="6.545404">
        <ele>220.0</ele>
        <time>2020-07-09T09:35:50Z</time>
      </trkpt>
      <trkpt lat="49.502116" lon="6.545213">
        <ele>219.0</ele>
        <time>2020-07-09T09:35:53Z</time>
      </trkpt>
      <trkpt lat="49.502044" lon="6.545091">
        <ele>218.0</ele>
        <time>2020-07-09T09:35:55Z</time>
      </trkpt>
      <trkpt lat="49.501952" lon="6.544917">
        <ele>218.0</ele>
        <time>2020-07-09T09:35:58Z</time>
      </trkpt>
      <trkpt lat="49.501896" lon="6.544798">
        <ele>218.0</ele>
        <time>2020-07-09T09:36:00Z</time>
      </trkpt>
      <trkpt lat="49.501804" lon="6.544633">
        <ele>216.0</ele>
        <time>2020-07-09T09:36:03Z</time>
      </trkpt>
      <trkpt lat="49.50173" lon="6.544532">
        <ele>215.0</ele>
        <time>2020-07-09T09:36:05Z</time>
      </trkpt>
      <trkpt lat="49.501662" lon="6.544444">
        <ele>215.0</ele>
        <time>2020-07-09T09:36:07Z</time>
      </trkpt>
      <trkpt lat="49.501609" lon="6.544368">
        <ele>215.0</ele>
        <time>2020-07-09T09:36:09Z</time>
      </trkpt>
      <trkpt lat="49.501552" lon="6.544308">
        <ele>215.0</ele>
        <time>2020-07-09T09:36:11Z</time>
      </trkpt>
      <trkpt lat="49.501487" lon="6.544248">
        <ele>215.0</ele>
        <time>2020-07-09T09:36:13Z</time>
      </trkpt>
      <trkpt lat="49.501418" lon="6.544203">
        <ele>216.0</ele>
        <time>2020-07-09T09:36:15Z</time>
      </trkpt>
      <trkpt lat="49.501387" lon="6.544185">
        <ele>216.0</ele>
        <time>2020-07-09T09:36:16Z</time>
      </trkpt>
      <trkpt lat="49.501287" lon="6.544126">
        <ele>217.0</ele>
        <time>2020-07-09T09:36:19Z</time>
      </trkpt>
      <trkpt lat="49.50121" lon="6.544068">
        <ele>217.0</ele>
        <time>2020-07-09T09:36:21Z</time>
      </trkpt>
      <trkpt lat="49.501132" lon="6.544011">
        <ele>218.0</ele>
        <time>2020-07-09T09:36:23Z</time>
      </trkpt>
      <trkpt lat="49.501084" lon="6.543935">
        <ele>219.0</ele>
        <time>2020-07-09T09:36:25Z</time>
      </trkpt>
      <trkpt lat="49.501007" lon="6.543773">
        <ele>217.0</ele>
        <time>2020-07-09T09:36:28Z</time>
      </trkpt>
      <trkpt lat="49.500957" lon="6.543672">
        <ele>217.0</ele>
        <time>2020-07-09T09:36:30Z</time>
      </trkpt>
      <trkpt lat="49.500848" lon="6.543521">
        <ele>217.0</ele>
        <time>2020-07-09T09:36:33Z</time>
      </trkpt>
      <trkpt lat="49.500775" lon="6.543437">
        <ele>217.0</ele>
        <time>2020-07-09T09:36:35Z</time>
      </trkpt>
      <trkpt lat="49.500697" lon="6.543352">
        <ele>217.0</ele>
        <time>2020-07-09T09:36:37Z</time>
      </trkpt>
      <trkpt lat="49.500574" lon="6.543227">
        <ele>217.0</ele>
        <time>2020-07-09T09:36:40Z</time>
      </trkpt>
      <trkpt lat="49.500492" lon="6.543145">
        <ele>218.0</ele>
        <time>2020-07-09T09:36:42Z</time>
      </trkpt>
      <trkpt lat="49.50041" lon="6.543082">
        <ele>218.0</ele>
        <time>2020-07-09T09:36:44Z</time>
      </trkpt>
      <trkpt lat="49.500327" lon="6.543046">
        <ele>218.0</ele>
        <time>2020-07-09T09:36:46Z</time>
      </trkpt>
      <trkpt lat="49.500251" lon="6.543024">
        <ele>218.0</ele>
        <time>2020-07-09T09:36:48Z</time>
      </trkpt>
      <trkpt lat="49.500094" lon="6.543015">
        <ele>218.0</ele>
        <time>2020-07-09T09:36:51Z</time>
      </trkpt>
      <trkpt lat="49.499975" lon="6.543035">
        <ele>218.0</ele>
        <time>2020-07-09T09:36:53Z</time>
      </trkpt>
      <trkpt lat="49.499869" lon="6.543056">
        <ele>218.0</ele>
        <time>2020-07-09T09:36:55Z</time>
      </trkpt>
      <trkpt lat="49.49976" lon="6.543074">
        <ele>218.0</ele>
        <time>2020-07-09T09:36:57Z</time>
      </trkpt>
      <trkpt lat="49.499668" lon="6.543078">
        <ele>218.0</ele>
        <time>2020-07-09T09:36:59Z</time>
      </trkpt>
      <trkpt lat="49.499563" lon="6.543098">
        <ele>218.0</ele>
        <time>2020-07-09T09:37:01Z</time>
      </trkpt>
      <trkpt lat="49.499449" lon="6.543117">
        <ele>217.0</ele>
        <time>2020-07-09T09:37:03Z</time>
      </trkpt>
      <trkpt lat="49.499397" lon="6.543129">
        <ele>217.0</ele>
        <time>2020-07-09T09:37:04Z</time>
      </trkpt>
      <trkpt lat="49.499243" lon="6.543168">
        <ele>217.0</ele>
        <time>2020-07-09T09:37:07Z</time>
      </trkpt>
      <trkpt lat="49.499143" lon="6.543212">
        <ele>216.0</ele>
        <time>2020-07-09T09:37:09Z</time>
      </trkpt>
      <trkpt lat="49.499037" lon="6.543269">
        <ele>216.0</ele>
        <time>2020-07-09T09:37:11Z</time>
      </trkpt>
      <trkpt lat="49.498946" lon="6.543342">
        <ele>217.0</ele>
        <time>2020-07-09T09:37:13Z</time>
      </trkpt>
      <trkpt lat="49.49891" lon="6.543379">
        <ele>217.0</ele>
        <time>2020-07-09T09:37:14Z</time>
      </trkpt>
      <trkpt lat="49.498809" lon="6.543502">
        <ele>217.0</ele>
        <time>2020-07-09T09:37:17Z</time>
      </trkpt>
      <trkpt lat="49.498766" lon="6.54359">
        <ele>217.0</ele>
        <time>2020-07-09T09:37:19Z</time>
      </trkpt>
      <trkpt lat="49.498693" lon="6.543761">
        <ele>217.0</ele>
        <time>2020-07-09T09:37:22Z</time>
      </trkpt>
      <trkpt lat="49.498632" lon="6.543884">
        <ele>218.0</ele>
        <time>2020-07-09T09:37:24Z</time>
      </trkpt>
      <trkpt lat="49.498567" lon="6.544007">
        <ele>218.0</ele>
        <time>2020-07-09T09:37:26Z</time>
      </trkpt>
      <trkpt lat="49.498462" lon="6.544173">
        <ele>217.0</ele>
        <time>2020-07-09T09:37:29Z</time>
      </trkpt>
      <trkpt lat="49.498384" lon="6.544274">
        <ele>217.0</ele>
        <time>2020-07-09T09:37:31Z</time>
      </trkpt>
      <trkpt lat="49.498311" lon="6.544371">
        <ele>217.0</ele>
        <time>2020-07-09T09:37:33Z</time>
      </trkpt>
      <trkpt lat="49.498241" lon="6.544461">
        <ele>217.0</ele>
        <time>2020-07-09T09:37:35Z</time>
      </trkpt>
      <trkpt lat="49.498174" lon="6.54454">
        <ele>217.0</ele>
        <time>2020-07-09T09:37:37Z</time>
      </trkpt>
      <trkpt lat="49.498107" lon="6.544623">
        <ele>217.0</ele>
        <time>2020-07-09T09:37:39Z</time>
      </trkpt>
      <trkpt lat="49.49804" lon="6.544703">
        <ele>216.0</ele>
        <time>2020-07-09T09:37:41Z</time>
      </trkpt>
      <trkpt lat="49.497948" lon="6.544844">
        <ele>216.0</ele>
        <time>2020-07-09T09:37:44Z</time>
      </trkpt>
      <trkpt lat="49.497887" lon="6.544919">
        <ele>216.0</ele>
        <time>2020-07-09T09:37:46Z</time>
      </trkpt>
      <trkpt lat="49.497822" lon="6.545009">
        <ele>217.0</ele>
        <time>2020-07-09T09:37:48Z</time>
      </trkpt>
      <trkpt lat="49.497752" lon="6.545103">
        <ele>217.0</ele>
        <time>2020-07-09T09:37:50Z</time>
      </trkpt>
      <trkpt lat="49.497679" lon="6.545199">
        <ele>216.0</ele>
        <time>2020-07-09T09:37:52Z</time>
      </trkpt>
      <trkpt lat="49.497604" lon="6.545291">
        <ele>216.0</ele>
        <time>2020-07-09T09:37:54Z</time>
      </trkpt>
      <trkpt lat="49.497528" lon="6.545383">
        <ele>217.0</ele>
        <time>2020-07-09T09:37:56Z</time>
      </trkpt>
      <trkpt lat="49.497453" lon="6.545483">
        <ele>217.0</ele>
        <time>2020-07-09T09:37:58Z</time>
      </trkpt>
      <trkpt lat="49.497377" lon="6.54558">
        <ele>217.0</ele>
        <time>2020-07-09T09:38:00Z</time>
      </trkpt>
      <trkpt lat="49.497301" lon="6.545671">
        <ele>217.0</ele>
        <time>2020-07-09T09:38:02Z</time>
      </trkpt>
      <trkpt lat="49.497266" lon="6.545723">
        <ele>217.0</ele>
        <time>2020-07-09T09:38:03Z</time>
      </trkpt>
      <trkpt lat="49.49716" lon="6.545889">
        <ele>216.0</ele>
        <time>2020-07-09T09:38:06Z</time>
      </trkpt>
      <trkpt lat="49.497091" lon="6.545998">
        <ele>216.0</ele>
        <time>2020-07-09T09:38:08Z</time>
      </trkpt>
      <trkpt lat="49.497055" lon="6.546049">
        <ele>216.0</ele>
        <time>2020-07-09T09:38:09Z</time>
      </trkpt>
      <trkpt lat="49.496952" lon="6.546226">
        <ele>216.0</ele>
        <time>2020-07-09T09:38:12Z</time>
      </trkpt>
      <trkpt lat="49.49692" lon="6.546284">
        <ele>216.0</ele>
        <time>2020-07-09T09:38:13Z</time>
      </trkpt>
      <trkpt lat="49.496821" lon="6.546463">
        <ele>216.0</ele>
        <time>2020-07-09T09:38:16Z</time>
      </trkpt>
      <trkpt lat="49.496766" lon="6.546591">
        <ele>216.0</ele>
        <time>2020-07-09T09:38:18Z</time>
      </trkpt>
      <trkpt lat="49.496712" lon="6.546722">
        <ele>217.0</ele>
        <time>2020-07-09T09:38:20Z</time>
      </trkpt>
      <trkpt lat="49.496665" lon="6.546857">
        <ele>217.0</ele>
        <time>2020-07-09T09:38:22Z</time>
      </trkpt>
      <trkpt lat="49.49663" lon="6.54699">
        <ele>218.0</ele>
        <time>2020-07-09T09:38:24Z</time>
      </trkpt>
      <trkpt lat="49.496589" lon="6.547127">
        <ele>218.0</ele>
        <time>2020-07-09T09:38:26Z</time>
      </trkpt>
      <trkpt lat="49.496528" lon="6.547331">
        <ele>218.0</ele>
        <time>2020-07-09T09:38:29Z</time>
      </trkpt>
      <trkpt lat="49.496489" lon="6.547467">
        <ele>218.0</ele>
        <time>2020-07-09T09:38:31Z</time>
      </trkpt>
      <trkpt lat="49.496451" lon="6.547607">
        <ele>218.0</ele>
        <time>2020-07-09T09:38:33Z</time>
      </trkpt>
      <trkpt lat="49.496394" lon="6.547822">
        <ele>218.0</ele>
        <time>2020-07-09T09:38:36Z</time>
      </trkpt>
      <trkpt lat="49.49635" lon="6.54797">
        <ele>218.0</ele>
        <time>2020-07-09T09:38:38Z</time>
      </trkpt>
      <trkpt lat="49.49633" lon="6.548044">
        <ele>218.0</ele>
        <time>2020-07-09T09:38:39Z</time>
      </trkpt>
      <trkpt lat="49.49627" lon="6.548241">
        <ele>218.0</ele>
        <time>2020-07-09T09:38:42Z</time>
      </trkpt>
      <trkpt lat="49.496237" lon="6.548371">
        <ele>218.0</ele>
        <time>2020-07-09T09:38:44Z</time>
      </trkpt>
      <trkpt lat="49.4962" lon="6.548512">
        <ele>218.0</ele>
        <time>2020-07-09T09:38:46Z</time>
      </trkpt>
      <trkpt lat="49.49617" lon="6.548663">
        <ele>218.0</ele>
        <time>2020-07-09T09:38:48Z</time>
      </trkpt>
      <trkpt lat="49.496139" lon="6.548808">
        <ele>218.0</ele>
        <time>2020-07-09T09:38:50Z</time>
      </trkpt>
      <trkpt lat="49.496089" lon="6.548942">
        <ele>218.0</ele>
        <time>2020-07-09T09:38:52Z</time>
      </trkpt>
      <trkpt lat="49.496027" lon="6.549071">
        <ele>218.0</ele>
        <time>2020-07-09T09:38:54Z</time>
      </trkpt>
      <trkpt lat="49.495968" lon="6.549199">
        <ele>218.0</ele>
        <time>2020-07-09T09:38:56Z</time>
      </trkpt>
      <trkpt lat="49.495911" lon="6.549337">
        <ele>218.0</ele>
        <time>2020-07-09T09:38:58Z</time>
      </trkpt>
      <trkpt lat="49.495852" lon="6.549487">
        <ele>219.0</ele>
        <time>2020-07-09T09:39:00Z</time>
      </trkpt>
      <trkpt lat="49.495796" lon="6.549635">
        <ele>219.0</ele>
        <time>2020-07-09T09:39:02Z</time>
      </trkpt>
      <trkpt lat="49.495751" lon="6.549779">
        <ele>219.0</ele>
        <time>2020-07-09T09:39:04Z</time>
      </trkpt>
      <trkpt lat="49.495696" lon="6.54991">
        <ele>219.0</ele>
        <time>2020-07-09T09:39:06Z</time>
      </trkpt>
      <trkpt lat="49.495629" lon="6.550038">
        <ele>219.0</ele>
        <time>2020-07-09T09:39:08Z</time>
      </trkpt>
      <trkpt lat="49.495559" lon="6.550168">
        <ele>220.0</ele>
        <time>2020-07-09T09:39:10Z</time>
      </trkpt>
      <trkpt lat="49.4955" lon="6.550283">
        <ele>219.0</ele>
        <time>2020-07-09T09:39:12Z</time>
      </trkpt>
      <trkpt lat="49.495427" lon="6.550469">
        <ele>220.0</ele>
        <time>2020-07-09T09:39:15Z</time>
      </trkpt>
      <trkpt lat="49.495374" lon="6.550602">
        <ele>220.0</ele>
        <time>2020-07-09T09:39:17Z</time>
      </trkpt>
      <trkpt lat="49.495322" lon="6.550724">
        <ele>219.0</ele>
        <time>2020-07-09T09:39:19Z</time>
      </trkpt>
      <trkpt lat="49.495267" lon="6.550848">
        <ele>219.0</ele>
        <time>2020-07-09T09:39:21Z</time>
      </trkpt>
      <trkpt lat="49.495203" lon="6.550985">
        <ele>220.0</ele>
        <time>2020-07-09T09:39:23Z</time>
      </trkpt>
      <trkpt lat="49.49514" lon="6.551117">
        <ele>220.0</ele>
        <time>2020-07-09T09:39:25Z</time>
      </trkpt>
      <trkpt lat="49.495082" lon="6.551244">
        <ele>219.0</ele>
        <time>2020-07-09T09:39:27Z</time>
      </trkpt>
      <trkpt lat="49.49502" lon="6.551385">
        <ele>218.0</ele>
        <time>2020-07-09T09:39:29Z</time>
      </trkpt>
      <trkpt lat="49.494959" lon="6.551511">
        <ele>218.0</ele>
        <time>2020-07-09T09:39:31Z</time>
      </trkpt>
      <trkpt lat="49.494868" lon="6.551708">
        <ele>218.0</ele>
        <time>2020-07-09T09:39:34Z</time>
      </trkpt>
      <trkpt lat="49.494812" lon="6.551843">
        <ele>219.0</ele>
        <time>2020-07-09T09:39:36Z</time>
      </trkpt>
      <trkpt lat="49.494747" lon="6.55197">
        <ele>219.0</ele>
        <time>2020-07-09T09:39:38Z</time>
      </trkpt>
      <trkpt lat="49.494683" lon="6.552101">
        <ele>219.0</ele>
        <time>2020-07-09T09:39:40Z</time>
      </trkpt>
      <trkpt lat="49.49458" lon="6.552299">
        <ele>218.0</ele>
        <time>2020-07-09T09:39:43Z</time>
      </trkpt>
      <trkpt lat="49.494512" lon="6.552431">
        <ele>218.0</ele>
        <time>2020-07-09T09:39:45Z</time>
      </trkpt>
      <trkpt lat="49.494445" lon="6.552561">
        <ele>218.0</ele>
        <time>2020-07-09T09:39:47Z</time>
      </trkpt>
      <trkpt lat="49.494413" lon="6.55263">
        <ele>218.0</ele>
        <time>2020-07-09T09:39:48Z</time>
      </trkpt>
      <trkpt lat="49.494309" lon="6.552817">
        <ele>217.0</ele>
        <time>2020-07-09T09:39:51Z</time>
      </trkpt>
      <trkpt lat="49.494244" lon="6.552942">
        <ele>217.0</ele>
        <time>2020-07-09T09:39:53Z</time>
      </trkpt>
      <trkpt lat="49.494173" lon="6.553071">
        <ele>217.0</ele>
        <time>2020-07-09T09:39:55Z</time>
      </trkpt>
      <trkpt lat="49.494103" lon="6.553203">
        <ele>218.0</ele>
        <time>2020-07-09T09:39:57Z</time>
      </trkpt>
      <trkpt lat="49.494039" lon="6.553335">
        <ele>217.0</ele>
        <time>2020-07-09T09:39:59Z</time>
      </trkpt>
      <trkpt lat="49.493969" lon="6.553454">
        <ele>217.0</ele>
        <time>2020-07-09T09:40:01Z</time>
      </trkpt>
      <trkpt lat="49.493859" lon="6.553653">
        <ele>218.0</ele>
        <time>2020-07-09T09:40:04Z</time>
      </trkpt>
      <trkpt lat="49.493823" lon="6.553716">
        <ele>217.0</ele>
        <time>2020-07-09T09:40:05Z</time>
      </trkpt>
      <trkpt lat="49.493716" lon="6.553909">
        <ele>218.0</ele>
        <time>2020-07-09T09:40:08Z</time>
      </trkpt>
      <trkpt lat="49.493649" lon="6.554033">
        <ele>218.0</ele>
        <time>2020-07-09T09:40:10Z</time>
      </trkpt>
      <trkpt lat="49.493614" lon="6.554097">
        <ele>218.0</ele>
        <time>2020-07-09T09:40:11Z</time>
      </trkpt>
      <trkpt lat="49.493543" lon="6.554225">
        <ele>218.0</ele>
        <time>2020-07-09T09:40:13Z</time>
      </trkpt>
      <trkpt lat="49.493443" lon="6.554415">
        <ele>218.0</ele>
        <time>2020-07-09T09:40:16Z</time>
      </trkpt>
      <trkpt lat="49.493378" lon="6.554533">
        <ele>218.0</ele>
        <time>2020-07-09T09:40:18Z</time>
      </trkpt>
      <trkpt lat="49.493315" lon="6.554666">
        <ele>218.0</ele>
        <time>2020-07-09T09:40:20Z</time>
      </trkpt>
      <trkpt lat="49.493256" lon="6.55479">
        <ele>219.0</ele>
        <time>2020-07-09T09:40:22Z</time>
      </trkpt>
      <trkpt lat="49.493227" lon="6.554855">
        <ele>219.0</ele>
        <time>2020-07-09T09:40:23Z</time>
      </trkpt>
      <trkpt lat="49.493106" lon="6.555132">
        <ele>219.0</ele>
        <time>2020-07-09T09:40:27Z</time>
      </trkpt>
      <trkpt lat="49.493077" lon="6.555198">
        <ele>219.0</ele>
        <time>2020-07-09T09:40:28Z</time>
      </trkpt>
      <trkpt lat="49.492996" lon="6.555412">
        <ele>218.0</ele>
        <time>2020-07-09T09:40:31Z</time>
      </trkpt>
      <trkpt lat="49.492919" lon="6.555627">
        <ele>219.0</ele>
        <time>2020-07-09T09:40:34Z</time>
      </trkpt>
      <trkpt lat="49.492868" lon="6.555764">
        <ele>218.0</ele>
        <time>2020-07-09T09:40:36Z</time>
      </trkpt>
      <trkpt lat="49.492841" lon="6.555835">
        <ele>218.0</ele>
        <time>2020-07-09T09:40:37Z</time>
      </trkpt>
      <trkpt lat="49.492749" lon="6.556123">
        <ele>217.0</ele>
        <time>2020-07-09T09:40:41Z</time>
      </trkpt>
      <trkpt lat="49.492698" lon="6.556263">
        <ele>217.0</ele>
        <time>2020-07-09T09:40:43Z</time>
      </trkpt>
      <trkpt lat="49.492643" lon="6.556399">
        <ele>218.0</ele>
        <time>2020-07-09T09:40:45Z</time>
      </trkpt>
      <trkpt lat="49.492562" lon="6.556596">
        <ele>218.0</ele>
        <time>2020-07-09T09:40:48Z</time>
      </trkpt>
      <trkpt lat="49.492505" lon="6.556742">
        <ele>218.0</ele>
        <time>2020-07-09T09:40:50Z</time>
      </trkpt>
      <trkpt lat="49.492451" lon="6.556877">
        <ele>218.0</ele>
        <time>2020-07-09T09:40:52Z</time>
      </trkpt>
      <trkpt lat="49.492394" lon="6.557007">
        <ele>218.0</ele>
        <time>2020-07-09T09:40:54Z</time>
      </trkpt>
      <trkpt lat="49.492326" lon="6.557141">
        <ele>218.0</ele>
        <time>2020-07-09T09:40:56Z</time>
      </trkpt>
      <trkpt lat="49.49226" lon="6.557262">
        <ele>218.0</ele>
        <time>2020-07-09T09:40:58Z</time>
      </trkpt>
      <trkpt lat="49.492189" lon="6.557377">
        <ele>219.0</ele>
        <time>2020-07-09T09:41:00Z</time>
      </trkpt>
      <trkpt lat="49.492077" lon="6.557546">
        <ele>219.0</ele>
        <time>2020-07-09T09:41:03Z</time>
      </trkpt>
      <trkpt lat="49.492004" lon="6.557642">
        <ele>219.0</ele>
        <time>2020-07-09T09:41:05Z</time>
      </trkpt>
      <trkpt lat="49.491932" lon="6.557743">
        <ele>219.0</ele>
        <time>2020-07-09T09:41:07Z</time>
      </trkpt>
      <trkpt lat="49.491862" lon="6.557856">
        <ele>219.0</ele>
        <time>2020-07-09T09:41:09Z</time>
      </trkpt>
      <trkpt lat="49.491824" lon="6.557905">
        <ele>219.0</ele>
        <time>2020-07-09T09:41:10Z</time>
      </trkpt>
      <trkpt lat="49.491709" lon="6.558053">
        <ele>220.0</ele>
        <time>2020-07-09T09:41:13Z</time>
      </trkpt>
      <trkpt lat="49.491577" lon="6.558201">
        <ele>219.0</ele>
        <time>2020-07-09T09:41:16Z</time>
      </trkpt>
      <trkpt lat="49.491493" lon="6.558288">
        <ele>219.0</ele>
        <time>2020-07-09T09:41:18Z</time>
      </trkpt>
      <trkpt lat="49.491412" lon="6.558372">
        <ele>218.0</ele>
        <time>2020-07-09T09:41:20Z</time>
      </trkpt>
      <trkpt lat="49.491279" lon="6.558512">
        <ele>219.0</ele>
        <time>2020-07-09T09:41:23Z</time>
      </trkpt>
      <trkpt lat="49.49119" lon="6.558592">
        <ele>218.0</ele>
        <time>2020-07-09T09:41:25Z</time>
      </trkpt>
      <trkpt lat="49.491098" lon="6.558697">
        <ele>217.0</ele>
        <time>2020-07-09T09:41:27Z</time>
      </trkpt>
      <trkpt lat="49.491005" lon="6.558789">
        <ele>217.0</ele>
        <time>2020-07-09T09:41:29Z</time>
      </trkpt>
      <trkpt lat="49.490911" lon="6.558892">
        <ele>217.0</ele>
        <time>2020-07-09T09:41:31Z</time>
      </trkpt>
      <trkpt lat="49.490868" lon="6.558937">
        <ele>217.0</ele>
        <time>2020-07-09T09:41:32Z</time>
      </trkpt>
      <trkpt lat="49.490739" lon="6.559088">
        <ele>216.0</ele>
        <time>2020-07-09T09:41:35Z</time>
      </trkpt>
      <trkpt lat="49.490646" lon="6.559187">
        <ele>216.0</ele>
        <time>2020-07-09T09:41:37Z</time>
      </trkpt>
      <trkpt lat="49.490557" lon="6.559291">
        <ele>217.0</ele>
        <time>2020-07-09T09:41:39Z</time>
      </trkpt>
      <trkpt lat="49.490416" lon="6.55942">
        <ele>217.0</ele>
        <time>2020-07-09T09:41:42Z</time>
      </trkpt>
      <trkpt lat="49.490326" lon="6.559498">
        <ele>217.0</ele>
        <time>2020-07-09T09:41:44Z</time>
      </trkpt>
      <trkpt lat="49.490236" lon="6.559563">
        <ele>217.0</ele>
        <time>2020-07-09T09:41:46Z</time>
      </trkpt>
      <trkpt lat="49.490154" lon="6.559632">
        <ele>216.0</ele>
        <time>2020-07-09T09:41:48Z</time>
      </trkpt>
      <trkpt lat="49.490064" lon="6.55972">
        <ele>216.0</ele>
        <time>2020-07-09T09:41:50Z</time>
      </trkpt>
      <trkpt lat="49.489975" lon="6.559808">
        <ele>217.0</ele>
        <time>2020-07-09T09:41:52Z</time>
      </trkpt>
      <trkpt lat="49.489846" lon="6.559943">
        <ele>216.0</ele>
        <time>2020-07-09T09:41:55Z</time>
      </trkpt>
      <trkpt lat="49.489765" lon="6.560049">
        <ele>217.0</ele>
        <time>2020-07-09T09:41:57Z</time>
      </trkpt>
      <trkpt lat="49.489686" lon="6.560145">
        <ele>216.0</ele>
        <time>2020-07-09T09:41:59Z</time>
      </trkpt>
      <trkpt lat="49.489601" lon="6.560245">
        <ele>216.0</ele>
        <time>2020-07-09T09:42:01Z</time>
      </trkpt>
      <trkpt lat="49.489522" lon="6.56035">
        <ele>216.0</ele>
        <time>2020-07-09T09:42:03Z</time>
      </trkpt>
      <trkpt lat="49.489404" lon="6.560518">
        <ele>216.0</ele>
        <time>2020-07-09T09:42:06Z</time>
      </trkpt>
      <trkpt lat="49.489327" lon="6.560643">
        <ele>216.0</ele>
        <time>2020-07-09T09:42:08Z</time>
      </trkpt>
      <trkpt lat="49.489291" lon="6.560703">
        <ele>216.0</ele>
        <time>2020-07-09T09:42:09Z</time>
      </trkpt>
      <trkpt lat="49.489177" lon="6.560889">
        <ele>216.0</ele>
        <time>2020-07-09T09:42:12Z</time>
      </trkpt>
      <trkpt lat="49.489103" lon="6.561023">
        <ele>216.0</ele>
        <time>2020-07-09T09:42:14Z</time>
      </trkpt>
      <trkpt lat="49.489031" lon="6.561151">
        <ele>216.0</ele>
        <time>2020-07-09T09:42:16Z</time>
      </trkpt>
      <trkpt lat="49.488934" lon="6.561351">
        <ele>217.0</ele>
        <time>2020-07-09T09:42:19Z</time>
      </trkpt>
      <trkpt lat="49.488871" lon="6.561482">
        <ele>217.0</ele>
        <time>2020-07-09T09:42:21Z</time>
      </trkpt>
      <trkpt lat="49.488813" lon="6.561615">
        <ele>217.0</ele>
        <time>2020-07-09T09:42:23Z</time>
      </trkpt>
      <trkpt lat="49.488751" lon="6.561753">
        <ele>217.0</ele>
        <time>2020-07-09T09:42:25Z</time>
      </trkpt>
      <trkpt lat="49.488723" lon="6.561827">
        <ele>218.0</ele>
        <time>2020-07-09T09:42:26Z</time>
      </trkpt>
      <trkpt lat="49.48864" lon="6.56204">
        <ele>218.0</ele>
        <time>2020-07-09T09:42:29Z</time>
      </trkpt>
      <trkpt lat="49.488584" lon="6.562178">
        <ele>218.0</ele>
        <time>2020-07-09T09:42:31Z</time>
      </trkpt>
      <trkpt lat="49.488537" lon="6.562321">
        <ele>217.0</ele>
        <time>2020-07-09T09:42:33Z</time>
      </trkpt>
      <trkpt lat="49.488463" lon="6.562526">
        <ele>218.0</ele>
        <time>2020-07-09T09:42:36Z</time>
      </trkpt>
      <trkpt lat="49.48841" lon="6.56267">
        <ele>217.0</ele>
        <time>2020-07-09T09:42:38Z</time>
      </trkpt>
      <trkpt lat="49.48834" lon="6.562898">
        <ele>217.0</ele>
        <time>2020-07-09T09:42:41Z</time>
      </trkpt>
      <trkpt lat="49.488295" lon="6.563046">
        <ele>217.0</ele>
        <time>2020-07-09T09:42:43Z</time>
      </trkpt>
      <trkpt lat="49.488243" lon="6.563192">
        <ele>217.0</ele>
        <time>2020-07-09T09:42:45Z</time>
      </trkpt>
      <trkpt lat="49.488196" lon="6.563332">
        <ele>217.0</ele>
        <time>2020-07-09T09:42:47Z</time>
      </trkpt>
      <trkpt lat="49.48813" lon="6.563544">
        <ele>216.0</ele>
        <time>2020-07-09T09:42:50Z</time>
      </trkpt>
      <trkpt lat="49.488083" lon="6.563689">
        <ele>217.0</ele>
        <time>2020-07-09T09:42:52Z</time>
      </trkpt>
      <trkpt lat="49.488008" lon="6.563893">
        <ele>217.0</ele>
        <time>2020-07-09T09:42:55Z</time>
      </trkpt>
      <trkpt lat="49.487959" lon="6.564036">
        <ele>216.0</ele>
        <time>2020-07-09T09:42:57Z</time>
      </trkpt>
      <trkpt lat="49.487909" lon="6.564177">
        <ele>216.0</ele>
        <time>2020-07-09T09:42:59Z</time>
      </trkpt>
      <trkpt lat="49.487857" lon="6.564316">
        <ele>216.0</ele>
        <time>2020-07-09T09:43:01Z</time>
      </trkpt>
      <trkpt lat="49.487806" lon="6.564455">
        <ele>216.0</ele>
        <time>2020-07-09T09:43:03Z</time>
      </trkpt>
      <trkpt lat="49.487755" lon="6.564595">
        <ele>217.0</ele>
        <time>2020-07-09T09:43:05Z</time>
      </trkpt>
      <trkpt lat="49.487684" lon="6.564791">
        <ele>217.0</ele>
        <time>2020-07-09T09:43:08Z</time>
      </trkpt>
      <trkpt lat="49.487638" lon="6.564926">
        <ele>217.0</ele>
        <time>2020-07-09T09:43:10Z</time>
      </trkpt>
      <trkpt lat="49.48761" lon="6.564992">
        <ele>217.0</ele>
        <time>2020-07-09T09:43:11Z</time>
      </trkpt>
      <trkpt lat="49.487526" lon="6.565196">
        <ele>218.0</ele>
        <time>2020-07-09T09:43:14Z</time>
      </trkpt>
      <trkpt lat="49.487469" lon="6.565322">
        <ele>218.0</ele>
        <time>2020-07-09T09:43:16Z</time>
      </trkpt>
      <trkpt lat="49.487409" lon="6.565455">
        <ele>218.0</ele>
        <time>2020-07-09T09:43:18Z</time>
      </trkpt>
      <trkpt lat="49.487346" lon="6.565598">
        <ele>218.0</ele>
        <time>2020-07-09T09:43:20Z</time>
      </trkpt>
      <trkpt lat="49.487282" lon="6.565738">
        <ele>218.0</ele>
        <time>2020-07-09T09:43:22Z</time>
      </trkpt>
      <trkpt lat="49.487223" lon="6.565864">
        <ele>218.0</ele>
        <time>2020-07-09T09:43:24Z</time>
      </trkpt>
      <trkpt lat="49.487159" lon="6.56598">
        <ele>218.0</ele>
        <time>2020-07-09T09:43:26Z</time>
      </trkpt>
      <trkpt lat="49.487095" lon="6.566094">
        <ele>218.0</ele>
        <time>2020-07-09T09:43:28Z</time>
      </trkpt>
      <trkpt lat="49.487027" lon="6.566218">
        <ele>218.0</ele>
        <time>2020-07-09T09:43:30Z</time>
      </trkpt>
      <trkpt lat="49.486993" lon="6.566278">
        <ele>218.0</ele>
        <time>2020-07-09T09:43:31Z</time>
      </trkpt>
      <trkpt lat="49.486889" lon="6.566438">
        <ele>219.0</ele>
        <time>2020-07-09T09:43:34Z</time>
      </trkpt>
      <trkpt lat="49.486822" lon="6.566537">
        <ele>219.0</ele>
        <time>2020-07-09T09:43:36Z</time>
      </trkpt>
      <trkpt lat="49.486718" lon="6.566689">
        <ele>219.0</ele>
        <time>2020-07-09T09:43:39Z</time>
      </trkpt>
      <trkpt lat="49.486651" lon="6.566788">
        <ele>219.0</ele>
        <time>2020-07-09T09:43:41Z</time>
      </trkpt>
      <trkpt lat="49.486578" lon="6.566888">
        <ele>219.0</ele>
        <time>2020-07-09T09:43:43Z</time>
      </trkpt>
      <trkpt lat="49.486505" lon="6.566989">
        <ele>219.0</ele>
        <time>2020-07-09T09:43:45Z</time>
      </trkpt>
      <trkpt lat="49.486427" lon="6.567086">
        <ele>218.0</ele>
        <time>2020-07-09T09:43:47Z</time>
      </trkpt>
      <trkpt lat="49.48635" lon="6.567167">
        <ele>218.0</ele>
        <time>2020-07-09T09:43:49Z</time>
      </trkpt>
      <trkpt lat="49.486229" lon="6.567287">
        <ele>217.0</ele>
        <time>2020-07-09T09:43:52Z</time>
      </trkpt>
      <trkpt lat="49.486153" lon="6.567388">
        <ele>217.0</ele>
        <time>2020-07-09T09:43:54Z</time>
      </trkpt>
      <trkpt lat="49.486115" lon="6.567537">
        <ele>216.0</ele>
        <time>2020-07-09T09:43:56Z</time>
      </trkpt>
      <trkpt lat="49.486098" lon="6.567677">
        <ele>216.0</ele>
        <time>2020-07-09T09:43:58Z</time>
      </trkpt>
      <trkpt lat="49.486054" lon="6.567805">
        <ele>216.0</ele>
        <time>2020-07-09T09:44:00Z</time>
      </trkpt>
      <trkpt lat="49.486005" lon="6.567937">
        <ele>216.0</ele>
        <time>2020-07-09T09:44:02Z</time>
      </trkpt>
      <trkpt lat="49.485953" lon="6.568055">
        <ele>217.0</ele>
        <time>2020-07-09T09:44:04Z</time>
      </trkpt>
      <trkpt lat="49.485899" lon="6.568173">
        <ele>218.0</ele>
        <time>2020-07-09T09:44:06Z</time>
      </trkpt>
      <trkpt lat="49.485839" lon="6.568294">
        <ele>217.0</ele>
        <time>2020-07-09T09:44:08Z</time>
      </trkpt>
      <trkpt lat="49.485783" lon="6.568425">
        <ele>217.0</ele>
        <time>2020-07-09T09:44:10Z</time>
      </trkpt>
      <trkpt lat="49.485697" lon="6.568612">
        <ele>217.0</ele>
        <time>2020-07-09T09:44:13Z</time>
      </trkpt>
      <trkpt lat="49.485639" lon="6.568741">
        <ele>217.0</ele>
        <time>2020-07-09T09:44:15Z</time>
      </trkpt>
      <trkpt lat="49.485543" lon="6.568927">
        <ele>217.0</ele>
        <time>2020-07-09T09:44:18Z</time>
      </trkpt>
      <trkpt lat="49.485516" lon="6.568991">
        <ele>217.0</ele>
        <time>2020-07-09T09:44:19Z</time>
      </trkpt>
      <trkpt lat="49.485427" lon="6.569181">
        <ele>217.0</ele>
        <time>2020-07-09T09:44:22Z</time>
      </trkpt>
      <trkpt lat="49.485369" lon="6.569309">
        <ele>217.0</ele>
        <time>2020-07-09T09:44:24Z</time>
      </trkpt>
      <trkpt lat="49.485305" lon="6.56944">
        <ele>217.0</ele>
        <time>2020-07-09T09:44:26Z</time>
      </trkpt>
      <trkpt lat="49.485242" lon="6.569571">
        <ele>216.0</ele>
        <time>2020-07-09T09:44:28Z</time>
      </trkpt>
      <trkpt lat="49.485157" lon="6.569773">
        <ele>216.0</ele>
        <time>2020-07-09T09:44:31Z</time>
      </trkpt>
      <trkpt lat="49.485097" lon="6.569895">
        <ele>216.0</ele>
        <time>2020-07-09T09:44:33Z</time>
      </trkpt>
      <trkpt lat="49.485037" lon="6.570024">
        <ele>215.0</ele>
        <time>2020-07-09T09:44:35Z</time>
      </trkpt>
      <trkpt lat="49.484983" lon="6.570168">
        <ele>215.0</ele>
        <time>2020-07-09T09:44:37Z</time>
      </trkpt>
      <trkpt lat="49.484954" lon="6.570234">
        <ele>216.0</ele>
        <time>2020-07-09T09:44:38Z</time>
      </trkpt>
      <trkpt lat="49.484881" lon="6.570435">
        <ele>216.0</ele>
        <time>2020-07-09T09:44:41Z</time>
      </trkpt>
      <trkpt lat="49.484833" lon="6.570569">
        <ele>216.0</ele>
        <time>2020-07-09T09:44:43Z</time>
      </trkpt>
      <trkpt lat="49.484782" lon="6.570704">
        <ele>216.0</ele>
        <time>2020-07-09T09:44:45Z</time>
      </trkpt>
      <trkpt lat="49.48474" lon="6.570827">
        <ele>215.0</ele>
        <time>2020-07-09T09:44:47Z</time>
      </trkpt>
      <trkpt lat="49.484695" lon="6.570949">
        <ele>215.0</ele>
        <time>2020-07-09T09:44:49Z</time>
      </trkpt>
      <trkpt lat="49.484644" lon="6.571057">
        <ele>215.0</ele>
        <time>2020-07-09T09:44:51Z</time>
      </trkpt>
      <trkpt lat="49.484594" lon="6.571169">
        <ele>215.0</ele>
        <time>2020-07-09T09:44:53Z</time>
      </trkpt>
      <trkpt lat="49.48454" lon="6.571298">
        <ele>216.0</ele>
        <time>2020-07-09T09:44:55Z</time>
      </trkpt>
      <trkpt lat="49.484458" lon="6.571476">
        <ele>216.0</ele>
        <time>2020-07-09T09:44:58Z</time>
      </trkpt>
      <trkpt lat="49.484397" lon="6.571605">
        <ele>216.0</ele>
        <time>2020-07-09T09:45:00Z</time>
      </trkpt>
      <trkpt lat="49.484367" lon="6.57167">
        <ele>216.0</ele>
        <time>2020-07-09T09:45:01Z</time>
      </trkpt>
      <trkpt lat="49.48427" lon="6.57187">
        <ele>216.0</ele>
        <time>2020-07-09T09:45:04Z</time>
      </trkpt>
      <trkpt lat="49.48417" lon="6.572076">
        <ele>217.0</ele>
        <time>2020-07-09T09:45:07Z</time>
      </trkpt>
      <trkpt lat="49.484106" lon="6.572212">
        <ele>217.0</ele>
        <time>2020-07-09T09:45:09Z</time>
      </trkpt>
      <trkpt lat="49.484" lon="6.572409">
        <ele>217.0</ele>
        <time>2020-07-09T09:45:12Z</time>
      </trkpt>
      <trkpt lat="49.483935" lon="6.572536">
        <ele>218.0</ele>
        <time>2020-07-09T09:45:14Z</time>
      </trkpt>
      <trkpt lat="49.483875" lon="6.572663">
        <ele>218.0</ele>
        <time>2020-07-09T09:45:16Z</time>
      </trkpt>
      <trkpt lat="49.483811" lon="6.572773">
        <ele>218.0</ele>
        <time>2020-07-09T09:45:18Z</time>
      </trkpt>
      <trkpt lat="49.483717" lon="6.572949">
        <ele>218.0</ele>
        <time>2020-07-09T09:45:21Z</time>
      </trkpt>
      <trkpt lat="49.48365" lon="6.573068">
        <ele>218.0</ele>
        <time>2020-07-09T09:45:23Z</time>
      </trkpt>
      <trkpt lat="49.483584" lon="6.573193">
        <ele>218.0</ele>
        <time>2020-07-09T09:45:25Z</time>
      </trkpt>
      <trkpt lat="49.483519" lon="6.573316">
        <ele>219.0</ele>
        <time>2020-07-09T09:45:27Z</time>
      </trkpt>
      <trkpt lat="49.483453" lon="6.573427">
        <ele>219.0</ele>
        <time>2020-07-09T09:45:29Z</time>
      </trkpt>
      <trkpt lat="49.483388" lon="6.573536">
        <ele>220.0</ele>
        <time>2020-07-09T09:45:31Z</time>
      </trkpt>
      <trkpt lat="49.483316" lon="6.573635">
        <ele>220.0</ele>
        <time>2020-07-09T09:45:33Z</time>
      </trkpt>
      <trkpt lat="49.483237" lon="6.57373">
        <ele>219.0</ele>
        <time>2020-07-09T09:45:35Z</time>
      </trkpt>
      <trkpt lat="49.483156" lon="6.573814">
        <ele>220.0</ele>
        <time>2020-07-09T09:45:37Z</time>
      </trkpt>
      <trkpt lat="49.483069" lon="6.573877">
        <ele>219.0</ele>
        <time>2020-07-09T09:45:39Z</time>
      </trkpt>
      <trkpt lat="49.482985" lon="6.573936">
        <ele>219.0</ele>
        <time>2020-07-09T09:45:41Z</time>
      </trkpt>
      <trkpt lat="49.482893" lon="6.573979">
        <ele>219.0</ele>
        <time>2020-07-09T09:45:43Z</time>
      </trkpt>
      <trkpt lat="49.482797" lon="6.57401">
        <ele>219.0</ele>
        <time>2020-07-09T09:45:45Z</time>
      </trkpt>
      <trkpt lat="49.482707" lon="6.574033">
        <ele>218.0</ele>
        <time>2020-07-09T09:45:47Z</time>
      </trkpt>
      <trkpt lat="49.482615" lon="6.574071">
        <ele>218.0</ele>
        <time>2020-07-09T09:45:49Z</time>
      </trkpt>
      <trkpt lat="49.482516" lon="6.574093">
        <ele>219.0</ele>
        <time>2020-07-09T09:45:51Z</time>
      </trkpt>
      <trkpt lat="49.482418" lon="6.574123">
        <ele>218.0</ele>
        <time>2020-07-09T09:45:53Z</time>
      </trkpt>
      <trkpt lat="49.482271" lon="6.574181">
        <ele>218.0</ele>
        <time>2020-07-09T09:45:56Z</time>
      </trkpt>
      <trkpt lat="49.482175" lon="6.574244">
        <ele>218.0</ele>
        <time>2020-07-09T09:45:58Z</time>
      </trkpt>
      <trkpt lat="49.482072" lon="6.574312">
        <ele>218.0</ele>
        <time>2020-07-09T09:46:00Z</time>
      </trkpt>
      <trkpt lat="49.481972" lon="6.574401">
        <ele>218.0</ele>
        <time>2020-07-09T09:46:02Z</time>
      </trkpt>
      <trkpt lat="49.481889" lon="6.574496">
        <ele>219.0</ele>
        <time>2020-07-09T09:46:04Z</time>
      </trkpt>
      <trkpt lat="49.48176" lon="6.574644">
        <ele>219.0</ele>
        <time>2020-07-09T09:46:07Z</time>
      </trkpt>
      <trkpt lat="49.481695" lon="6.574766">
        <ele>219.0</ele>
        <time>2020-07-09T09:46:09Z</time>
      </trkpt>
      <trkpt lat="49.481626" lon="6.574894">
        <ele>220.0</ele>
        <time>2020-07-09T09:46:11Z</time>
      </trkpt>
      <trkpt lat="49.481558" lon="6.575027">
        <ele>220.0</ele>
        <time>2020-07-09T09:46:13Z</time>
      </trkpt>
      <trkpt lat="49.481455" lon="6.575213">
        <ele>219.0</ele>
        <time>2020-07-09T09:46:16Z</time>
      </trkpt>
      <trkpt lat="49.481379" lon="6.575334">
        <ele>219.0</ele>
        <time>2020-07-09T09:46:18Z</time>
      </trkpt>
      <trkpt lat="49.481308" lon="6.575463">
        <ele>219.0</ele>
        <time>2020-07-09T09:46:20Z</time>
      </trkpt>
      <trkpt lat="49.48124" lon="6.575595">
        <ele>219.0</ele>
        <time>2020-07-09T09:46:22Z</time>
      </trkpt>
      <trkpt lat="49.48117" lon="6.575727">
        <ele>220.0</ele>
        <time>2020-07-09T09:46:24Z</time>
      </trkpt>
      <trkpt lat="49.481094" lon="6.575858">
        <ele>220.0</ele>
        <time>2020-07-09T09:46:26Z</time>
      </trkpt>
      <trkpt lat="49.481024" lon="6.575982">
        <ele>220.0</ele>
        <time>2020-07-09T09:46:28Z</time>
      </trkpt>
      <trkpt lat="49.480955" lon="6.576118">
        <ele>220.0</ele>
        <time>2020-07-09T09:46:30Z</time>
      </trkpt>
      <trkpt lat="49.480921" lon="6.576181">
        <ele>220.0</ele>
        <time>2020-07-09T09:46:31Z</time>
      </trkpt>
      <trkpt lat="49.480805" lon="6.576355">
        <ele>219.0</ele>
        <time>2020-07-09T09:46:34Z</time>
      </trkpt>
      <trkpt lat="49.480727" lon="6.576478">
        <ele>220.0</ele>
        <time>2020-07-09T09:46:36Z</time>
      </trkpt>
      <trkpt lat="49.480655" lon="6.576594">
        <ele>220.0</ele>
        <time>2020-07-09T09:46:38Z</time>
      </trkpt>
      <trkpt lat="49.480586" lon="6.576721">
        <ele>220.0</ele>
        <time>2020-07-09T09:46:40Z</time>
      </trkpt>
      <trkpt lat="49.480487" lon="6.576903">
        <ele>220.0</ele>
        <time>2020-07-09T09:46:43Z</time>
      </trkpt>
      <trkpt lat="49.480451" lon="6.57696">
        <ele>220.0</ele>
        <time>2020-07-09T09:46:44Z</time>
      </trkpt>
      <trkpt lat="49.48035" lon="6.577156">
        <ele>220.0</ele>
        <time>2020-07-09T09:46:47Z</time>
      </trkpt>
      <trkpt lat="49.48026" lon="6.577347">
        <ele>220.0</ele>
        <time>2020-07-09T09:46:50Z</time>
      </trkpt>
      <trkpt lat="49.480196" lon="6.577476">
        <ele>220.0</ele>
        <time>2020-07-09T09:46:52Z</time>
      </trkpt>
      <trkpt lat="49.480162" lon="6.577544">
        <ele>220.0</ele>
        <time>2020-07-09T09:46:53Z</time>
      </trkpt>
      <trkpt lat="49.480065" lon="6.577751">
        <ele>219.0</ele>
        <time>2020-07-09T09:46:56Z</time>
      </trkpt>
      <trkpt lat="49.480003" lon="6.577879">
        <ele>219.0</ele>
        <time>2020-07-09T09:46:58Z</time>
      </trkpt>
      <trkpt lat="49.479904" lon="6.578078">
        <ele>219.0</ele>
        <time>2020-07-09T09:47:01Z</time>
      </trkpt>
      <trkpt lat="49.479843" lon="6.578209">
        <ele>219.0</ele>
        <time>2020-07-09T09:47:03Z</time>
      </trkpt>
      <trkpt lat="49.479778" lon="6.578346">
        <ele>219.0</ele>
        <time>2020-07-09T09:47:05Z</time>
      </trkpt>
      <trkpt lat="49.479711" lon="6.578473">
        <ele>218.0</ele>
        <time>2020-07-09T09:47:07Z</time>
      </trkpt>
      <trkpt lat="49.479679" lon="6.578537">
        <ele>218.0</ele>
        <time>2020-07-09T09:47:08Z</time>
      </trkpt>
      <trkpt lat="49.479622" lon="6.578659">
        <ele>218.0</ele>
        <time>2020-07-09T09:47:10Z</time>
      </trkpt>
      <trkpt lat="49.479527" lon="6.578842">
        <ele>218.0</ele>
        <time>2020-07-09T09:47:13Z</time>
      </trkpt>
      <trkpt lat="49.479467" lon="6.578965">
        <ele>218.0</ele>
        <time>2020-07-09T09:47:15Z</time>
      </trkpt>
      <trkpt lat="49.479412" lon="6.579079">
        <ele>219.0</ele>
        <time>2020-07-09T09:47:17Z</time>
      </trkpt>
      <trkpt lat="49.479355" lon="6.579195">
        <ele>219.0</ele>
        <time>2020-07-09T09:47:19Z</time>
      </trkpt>
      <trkpt lat="49.479327" lon="6.57925">
        <ele>219.0</ele>
        <time>2020-07-09T09:47:20Z</time>
      </trkpt>
      <trkpt lat="49.479214" lon="6.579454">
        <ele>219.0</ele>
        <time>2020-07-09T09:47:24Z</time>
      </trkpt>
      <trkpt lat="49.479154" lon="6.579559">
        <ele>219.0</ele>
        <time>2020-07-09T09:47:26Z</time>
      </trkpt>
      <trkpt lat="49.479101" lon="6.579659">
        <ele>219.0</ele>
        <time>2020-07-09T09:47:28Z</time>
      </trkpt>
      <trkpt lat="49.479049" lon="6.579752">
        <ele>219.0</ele>
        <time>2020-07-09T09:47:30Z</time>
      </trkpt>
      <trkpt lat="49.47899" lon="6.579845">
        <ele>219.0</ele>
        <time>2020-07-09T09:47:32Z</time>
      </trkpt>
      <trkpt lat="49.478964" lon="6.579886">
        <ele>219.0</ele>
        <time>2020-07-09T09:47:33Z</time>
      </trkpt>
      <trkpt lat="49.478879" lon="6.580021">
        <ele>220.0</ele>
        <time>2020-07-09T09:47:36Z</time>
      </trkpt>
      <trkpt lat="49.478823" lon="6.580106">
        <ele>220.0</ele>
        <time>2020-07-09T09:47:38Z</time>
      </trkpt>
      <trkpt lat="49.478767" lon="6.580184">
        <ele>220.0</ele>
        <time>2020-07-09T09:47:40Z</time>
      </trkpt>
      <trkpt lat="49.478706" lon="6.580264">
        <ele>221.0</ele>
        <time>2020-07-09T09:47:42Z</time>
      </trkpt>
      <trkpt lat="49.478642" lon="6.580345">
        <ele>221.0</ele>
        <time>2020-07-09T09:47:44Z</time>
      </trkpt>
      <trkpt lat="49.478591" lon="6.580411">
        <ele>222.0</ele>
        <time>2020-07-09T09:47:46Z</time>
      </trkpt>
      <trkpt lat="49.478572" lon="6.580483">
        <ele>222.0</ele>
        <time>2020-07-09T09:47:48Z</time>
      </trkpt>
      <trkpt lat="49.478602" lon="6.580607">
        <ele>221.0</ele>
        <time>2020-07-09T09:47:51Z</time>
      </trkpt>
      <trkpt lat="49.478624" lon="6.580915">
        <ele>221.0</ele>
        <time>2020-07-09T09:47:55Z</time>
      </trkpt>
      <trkpt lat="49.478581" lon="6.581137">
        <ele>220.0</ele>
        <time>2020-07-09T09:47:57Z</time>
      </trkpt>
      <trkpt lat="49.478527" lon="6.581337">
        <ele>220.0</ele>
        <time>2020-07-09T09:47:59Z</time>
      </trkpt>
      <trkpt lat="49.478537" lon="6.581533">
        <ele>220.0</ele>
        <time>2020-07-09T09:48:01Z</time>
      </trkpt>
      <trkpt lat="49.47855" lon="6.581726">
        <ele>219.0</ele>
        <time>2020-07-09T09:48:03Z</time>
      </trkpt>
      <trkpt lat="49.478521" lon="6.581982">
        <ele>217.0</ele>
        <time>2020-07-09T09:48:06Z</time>
      </trkpt>
      <trkpt lat="49.478504" lon="6.582154">
        <ele>217.0</ele>
        <time>2020-07-09T09:48:08Z</time>
      </trkpt>
      <trkpt lat="49.478485" lon="6.582327">
        <ele>217.0</ele>
        <time>2020-07-09T09:48:10Z</time>
      </trkpt>
      <trkpt lat="49.478464" lon="6.582498">
        <ele>217.0</ele>
        <time>2020-07-09T09:48:12Z</time>
      </trkpt>
      <trkpt lat="49.478441" lon="6.582663">
        <ele>217.0</ele>
        <time>2020-07-09T09:48:14Z</time>
      </trkpt>
      <trkpt lat="49.478417" lon="6.582831">
        <ele>217.0</ele>
        <time>2020-07-09T09:48:16Z</time>
      </trkpt>
      <trkpt lat="49.478392" lon="6.582995">
        <ele>217.0</ele>
        <time>2020-07-09T09:48:18Z</time>
      </trkpt>
      <trkpt lat="49.478372" lon="6.583167">
        <ele>216.0</ele>
        <time>2020-07-09T09:48:20Z</time>
      </trkpt>
      <trkpt lat="49.478339" lon="6.583413">
        <ele>217.0</ele>
        <time>2020-07-09T09:48:23Z</time>
      </trkpt>
      <trkpt lat="49.478319" lon="6.583573">
        <ele>217.0</ele>
        <time>2020-07-09T09:48:25Z</time>
      </trkpt>
      <trkpt lat="49.478304" lon="6.583736">
        <ele>217.0</ele>
        <time>2020-07-09T09:48:27Z</time>
      </trkpt>
      <trkpt lat="49.478283" lon="6.583904">
        <ele>216.0</ele>
        <time>2020-07-09T09:48:29Z</time>
      </trkpt>
      <trkpt lat="49.478261" lon="6.584064">
        <ele>216.0</ele>
        <time>2020-07-09T09:48:31Z</time>
      </trkpt>
      <trkpt lat="49.47824" lon="6.584227">
        <ele>216.0</ele>
        <time>2020-07-09T09:48:33Z</time>
      </trkpt>
      <trkpt lat="49.478217" lon="6.584391">
        <ele>216.0</ele>
        <time>2020-07-09T09:48:35Z</time>
      </trkpt>
      <trkpt lat="49.478185" lon="6.584541">
        <ele>217.0</ele>
        <time>2020-07-09T09:48:37Z</time>
      </trkpt>
      <trkpt lat="49.478124" lon="6.584694">
        <ele>217.0</ele>
        <time>2020-07-09T09:48:39Z</time>
      </trkpt>
      <trkpt lat="49.478106" lon="6.584778">
        <ele>217.0</ele>
        <time>2020-07-09T09:48:40Z</time>
      </trkpt>
      <trkpt lat="49.478085" lon="6.585106">
        <ele>217.0</ele>
        <time>2020-07-09T09:48:44Z</time>
      </trkpt>
      <trkpt lat="49.478097" lon="6.585347">
        <ele>218.0</ele>
        <time>2020-07-09T09:48:47Z</time>
      </trkpt>
      <trkpt lat="49.478098" lon="6.585515">
        <ele>218.0</ele>
        <time>2020-07-09T09:48:49Z</time>
      </trkpt>
      <trkpt lat="49.478099" lon="6.58577">
        <ele>218.0</ele>
        <time>2020-07-09T09:48:52Z</time>
      </trkpt>
      <trkpt lat="49.478103" lon="6.585936">
        <ele>217.0</ele>
        <time>2020-07-09T09:48:54Z</time>
      </trkpt>
      <trkpt lat="49.478117" lon="6.586098">
        <ele>217.0</ele>
        <time>2020-07-09T09:48:56Z</time>
      </trkpt>
      <trkpt lat="49.478141" lon="6.586346">
        <ele>217.0</ele>
        <time>2020-07-09T09:48:59Z</time>
      </trkpt>
      <trkpt lat="49.47816" lon="6.586522">
        <ele>217.0</ele>
        <time>2020-07-09T09:49:01Z</time>
      </trkpt>
      <trkpt lat="49.478185" lon="6.586689">
        <ele>217.0</ele>
        <time>2020-07-09T09:49:03Z</time>
      </trkpt>
      <trkpt lat="49.478218" lon="6.586854">
        <ele>216.0</ele>
        <time>2020-07-09T09:49:05Z</time>
      </trkpt>
      <trkpt lat="49.478236" lon="6.587011">
        <ele>216.0</ele>
        <time>2020-07-09T09:49:07Z</time>
      </trkpt>
      <trkpt lat="49.478264" lon="6.587177">
        <ele>216.0</ele>
        <time>2020-07-09T09:49:09Z</time>
      </trkpt>
      <trkpt lat="49.478288" lon="6.58734">
        <ele>216.0</ele>
        <time>2020-07-09T09:49:11Z</time>
      </trkpt>
      <trkpt lat="49.478313" lon="6.587497">
        <ele>217.0</ele>
        <time>2020-07-09T09:49:13Z</time>
      </trkpt>
      <trkpt lat="49.478334" lon="6.587655">
        <ele>216.0</ele>
        <time>2020-07-09T09:49:15Z</time>
      </trkpt>
      <trkpt lat="49.478348" lon="6.58781">
        <ele>216.0</ele>
        <time>2020-07-09T09:49:17Z</time>
      </trkpt>
      <trkpt lat="49.478365" lon="6.587964">
        <ele>216.0</ele>
        <time>2020-07-09T09:49:19Z</time>
      </trkpt>
      <trkpt lat="49.478395" lon="6.588211">
        <ele>216.0</ele>
        <time>2020-07-09T09:49:22Z</time>
      </trkpt>
      <trkpt lat="49.478403" lon="6.588288">
        <ele>216.0</ele>
        <time>2020-07-09T09:49:23Z</time>
      </trkpt>
      <trkpt lat="49.47843" lon="6.5886">
        <ele>216.0</ele>
        <time>2020-07-09T09:49:27Z</time>
      </trkpt>
      <trkpt lat="49.478443" lon="6.588754">
        <ele>216.0</ele>
        <time>2020-07-09T09:49:29Z</time>
      </trkpt>
      <trkpt lat="49.478454" lon="6.588912">
        <ele>216.0</ele>
        <time>2020-07-09T09:49:31Z</time>
      </trkpt>
      <trkpt lat="49.478456" lon="6.588987">
        <ele>216.0</ele>
        <time>2020-07-09T09:49:32Z</time>
      </trkpt>
      <trkpt lat="49.478466" lon="6.589219">
        <ele>216.0</ele>
        <time>2020-07-09T09:49:35Z</time>
      </trkpt>
      <trkpt lat="49.478476" lon="6.589382">
        <ele>216.0</ele>
        <time>2020-07-09T09:49:37Z</time>
      </trkpt>
      <trkpt lat="49.47849" lon="6.589639">
        <ele>216.0</ele>
        <time>2020-07-09T09:49:40Z</time>
      </trkpt>
      <trkpt lat="49.47849" lon="6.589804">
        <ele>216.0</ele>
        <time>2020-07-09T09:49:42Z</time>
      </trkpt>
      <trkpt lat="49.47849" lon="6.589963">
        <ele>215.0</ele>
        <time>2020-07-09T09:49:44Z</time>
      </trkpt>
      <trkpt lat="49.47849" lon="6.590122">
        <ele>215.0</ele>
        <time>2020-07-09T09:49:46Z</time>
      </trkpt>
      <trkpt lat="49.478492" lon="6.590286">
        <ele>215.0</ele>
        <time>2020-07-09T09:49:48Z</time>
      </trkpt>
      <trkpt lat="49.47849" lon="6.590369">
        <ele>215.0</ele>
        <time>2020-07-09T09:49:49Z</time>
      </trkpt>
      <trkpt lat="49.47849" lon="6.59062">
        <ele>215.0</ele>
        <time>2020-07-09T09:49:52Z</time>
      </trkpt>
      <trkpt lat="49.478471" lon="6.59086">
        <ele>215.0</ele>
        <time>2020-07-09T09:49:55Z</time>
      </trkpt>
      <trkpt lat="49.478461" lon="6.591025">
        <ele>215.0</ele>
        <time>2020-07-09T09:49:57Z</time>
      </trkpt>
      <trkpt lat="49.478444" lon="6.591192">
        <ele>215.0</ele>
        <time>2020-07-09T09:49:59Z</time>
      </trkpt>
      <trkpt lat="49.478422" lon="6.591441">
        <ele>215.0</ele>
        <time>2020-07-09T09:50:02Z</time>
      </trkpt>
      <trkpt lat="49.478406" lon="6.591613">
        <ele>215.0</ele>
        <time>2020-07-09T09:50:04Z</time>
      </trkpt>
      <trkpt lat="49.478387" lon="6.591775">
        <ele>215.0</ele>
        <time>2020-07-09T09:50:06Z</time>
      </trkpt>
      <trkpt lat="49.478368" lon="6.591929">
        <ele>215.0</ele>
        <time>2020-07-09T09:50:08Z</time>
      </trkpt>
      <trkpt lat="49.478349" lon="6.592075">
        <ele>215.0</ele>
        <time>2020-07-09T09:50:10Z</time>
      </trkpt>
      <trkpt lat="49.478323" lon="6.592208">
        <ele>215.0</ele>
        <time>2020-07-09T09:50:12Z</time>
      </trkpt>
      <trkpt lat="49.478292" lon="6.592395">
        <ele>216.0</ele>
        <time>2020-07-09T09:50:15Z</time>
      </trkpt>
      <trkpt lat="49.47828" lon="6.592464">
        <ele>215.0</ele>
        <time>2020-07-09T09:50:16Z</time>
      </trkpt>
      <trkpt lat="49.478229" lon="6.59274">
        <ele>214.0</ele>
        <time>2020-07-09T09:50:20Z</time>
      </trkpt>
      <trkpt lat="49.478215" lon="6.592808">
        <ele>214.0</ele>
        <time>2020-07-09T09:50:21Z</time>
      </trkpt>
      <trkpt lat="49.478174" lon="6.593027">
        <ele>215.0</ele>
        <time>2020-07-09T09:50:24Z</time>
      </trkpt>
      <trkpt lat="49.478161" lon="6.593103">
        <ele>215.0</ele>
        <time>2020-07-09T09:50:25Z</time>
      </trkpt>
      <trkpt lat="49.478119" lon="6.593336">
        <ele>215.0</ele>
        <time>2020-07-09T09:50:28Z</time>
      </trkpt>
      <trkpt lat="49.478086" lon="6.593485">
        <ele>215.0</ele>
        <time>2020-07-09T09:50:30Z</time>
      </trkpt>
      <trkpt lat="49.478056" lon="6.593643">
        <ele>215.0</ele>
        <time>2020-07-09T09:50:32Z</time>
      </trkpt>
      <trkpt lat="49.478018" lon="6.593797">
        <ele>215.0</ele>
        <time>2020-07-09T09:50:34Z</time>
      </trkpt>
      <trkpt lat="49.477982" lon="6.593948">
        <ele>215.0</ele>
        <time>2020-07-09T09:50:36Z</time>
      </trkpt>
      <trkpt lat="49.47794" lon="6.594095">
        <ele>215.0</ele>
        <time>2020-07-09T09:50:38Z</time>
      </trkpt>
      <trkpt lat="49.477874" lon="6.594322">
        <ele>215.0</ele>
        <time>2020-07-09T09:50:41Z</time>
      </trkpt>
      <trkpt lat="49.477824" lon="6.594465">
        <ele>215.0</ele>
        <time>2020-07-09T09:50:43Z</time>
      </trkpt>
      <trkpt lat="49.477788" lon="6.594615">
        <ele>216.0</ele>
        <time>2020-07-09T09:50:45Z</time>
      </trkpt>
      <trkpt lat="49.477746" lon="6.594761">
        <ele>216.0</ele>
        <time>2020-07-09T09:50:47Z</time>
      </trkpt>
      <trkpt lat="49.477704" lon="6.594911">
        <ele>216.0</ele>
        <time>2020-07-09T09:50:49Z</time>
      </trkpt>
      <trkpt lat="49.477661" lon="6.595056">
        <ele>216.0</ele>
        <time>2020-07-09T09:50:51Z</time>
      </trkpt>
      <trkpt lat="49.477612" lon="6.595209">
        <ele>216.0</ele>
        <time>2020-07-09T09:50:53Z</time>
      </trkpt>
      <trkpt lat="49.477537" lon="6.595423">
        <ele>216.0</ele>
        <time>2020-07-09T09:50:56Z</time>
      </trkpt>
      <trkpt lat="49.477483" lon="6.595566">
        <ele>215.0</ele>
        <time>2020-07-09T09:50:58Z</time>
      </trkpt>
      <trkpt lat="49.477432" lon="6.59571">
        <ele>215.0</ele>
        <time>2020-07-09T09:51:00Z</time>
      </trkpt>
      <trkpt lat="49.477378" lon="6.595849">
        <ele>215.0</ele>
        <time>2020-07-09T09:51:02Z</time>
      </trkpt>
      <trkpt lat="49.477291" lon="6.596048">
        <ele>215.0</ele>
        <time>2020-07-09T09:51:05Z</time>
      </trkpt>
      <trkpt lat="49.477234" lon="6.596163">
        <ele>216.0</ele>
        <time>2020-07-09T09:51:07Z</time>
      </trkpt>
      <trkpt lat="49.477209" lon="6.596216">
        <ele>216.0</ele>
        <time>2020-07-09T09:51:08Z</time>
      </trkpt>
      <trkpt lat="49.477127" lon="6.596362">
        <ele>217.0</ele>
        <time>2020-07-09T09:51:11Z</time>
      </trkpt>
      <trkpt lat="49.477053" lon="6.596485">
        <ele>217.0</ele>
        <time>2020-07-09T09:51:14Z</time>
      </trkpt>
      <trkpt lat="49.476969" lon="6.596519">
        <ele>216.0</ele>
        <time>2020-07-09T09:51:16Z</time>
      </trkpt>
      <trkpt lat="49.476921" lon="6.596474">
        <ele>216.0</ele>
        <time>2020-07-09T09:51:18Z</time>
      </trkpt>
      <trkpt lat="49.476884" lon="6.596345">
        <ele>215.0</ele>
        <time>2020-07-09T09:51:21Z</time>
      </trkpt>
      <trkpt lat="49.476832" lon="6.596352">
        <ele>215.0</ele>
        <time>2020-07-09T09:51:23Z</time>
      </trkpt>
      <trkpt lat="49.476763" lon="6.5964">
        <ele>216.0</ele>
        <time>2020-07-09T09:51:25Z</time>
      </trkpt>
      <trkpt lat="49.476673" lon="6.596428">
        <ele>216.0</ele>
        <time>2020-07-09T09:51:27Z</time>
      </trkpt>
      <trkpt lat="49.476586" lon="6.596436">
        <ele>217.0</ele>
        <time>2020-07-09T09:51:29Z</time>
      </trkpt>
      <trkpt lat="49.476498" lon="6.596392">
        <ele>218.0</ele>
        <time>2020-07-09T09:51:31Z</time>
      </trkpt>
      <trkpt lat="49.476433" lon="6.596291">
        <ele>218.0</ele>
        <time>2020-07-09T09:51:33Z</time>
      </trkpt>
      <trkpt lat="49.476378" lon="6.596158">
        <ele>216.0</ele>
        <time>2020-07-09T09:51:35Z</time>
      </trkpt>
      <trkpt lat="49.476321" lon="6.596031">
        <ele>216.0</ele>
        <time>2020-07-09T09:51:37Z</time>
      </trkpt>
      <trkpt lat="49.47626" lon="6.595905">
        <ele>216.0</ele>
        <time>2020-07-09T09:51:39Z</time>
      </trkpt>
      <trkpt lat="49.476168" lon="6.595706">
        <ele>215.0</ele>
        <time>2020-07-09T09:51:42Z</time>
      </trkpt>
      <trkpt lat="49.476137" lon="6.595637">
        <ele>215.0</ele>
        <time>2020-07-09T09:51:43Z</time>
      </trkpt>
      <trkpt lat="49.476034" lon="6.595448">
        <ele>215.0</ele>
        <time>2020-07-09T09:51:46Z</time>
      </trkpt>
      <trkpt lat="49.47597" lon="6.595321">
        <ele>215.0</ele>
        <time>2020-07-09T09:51:48Z</time>
      </trkpt>
      <trkpt lat="49.475908" lon="6.595203">
        <ele>215.0</ele>
        <time>2020-07-09T09:51:50Z</time>
      </trkpt>
      <trkpt lat="49.475842" lon="6.595092">
        <ele>215.0</ele>
        <time>2020-07-09T09:51:52Z</time>
      </trkpt>
      <trkpt lat="49.475748" lon="6.594937">
        <ele>216.0</ele>
        <time>2020-07-09T09:51:55Z</time>
      </trkpt>
      <trkpt lat="49.475686" lon="6.594831">
        <ele>216.0</ele>
        <time>2020-07-09T09:51:57Z</time>
      </trkpt>
      <trkpt lat="49.475623" lon="6.594736">
        <ele>215.0</ele>
        <time>2020-07-09T09:51:59Z</time>
      </trkpt>
      <trkpt lat="49.475559" lon="6.59465">
        <ele>216.0</ele>
        <time>2020-07-09T09:52:01Z</time>
      </trkpt>
      <trkpt lat="49.475504" lon="6.594568">
        <ele>216.0</ele>
        <time>2020-07-09T09:52:03Z</time>
      </trkpt>
      <trkpt lat="49.475398" lon="6.594425">
        <ele>216.0</ele>
        <time>2020-07-09T09:52:06Z</time>
      </trkpt>
      <trkpt lat="49.475318" lon="6.594323">
        <ele>216.0</ele>
        <time>2020-07-09T09:52:08Z</time>
      </trkpt>
      <trkpt lat="49.475233" lon="6.59423">
        <ele>216.0</ele>
        <time>2020-07-09T09:52:10Z</time>
      </trkpt>
      <trkpt lat="49.475126" lon="6.594099">
        <ele>216.0</ele>
        <time>2020-07-09T09:52:13Z</time>
      </trkpt>
      <trkpt lat="49.47512" lon="6.593999">
        <ele>215.0</ele>
        <time>2020-07-09T09:52:15Z</time>
      </trkpt>
      <trkpt lat="49.475133" lon="6.593973">
        <ele>216.0</ele>
        <time>2020-07-09T09:52:16Z</time>
      </trkpt>
      <trkpt lat="49.475188" lon="6.593918">
        <ele>215.0</ele>
        <time>2020-07-09T09:52:19Z</time>
      </trkpt>
      <trkpt lat="49.475233" lon="6.593927">
        <ele>215.0</ele>
        <time>2020-07-09T09:52:21Z</time>
      </trkpt>
      <trkpt lat="49.475294" lon="6.593932">
        <ele>215.0</ele>
        <time>2020-07-09T09:52:23Z</time>
      </trkpt>
      <trkpt lat="49.475353" lon="6.593971">
        <ele>216.0</ele>
        <time>2020-07-09T09:52:25Z</time>
      </trkpt>
      <trkpt lat="49.475408" lon="6.594031">
        <ele>216.0</ele>
        <time>2020-07-09T09:52:27Z</time>
      </trkpt>
      <trkpt lat="49.475473" lon="6.594086">
        <ele>217.0</ele>
        <time>2020-07-09T09:52:29Z</time>
      </trkpt>
      <trkpt lat="49.475503" lon="6.594125">
        <ele>217.0</ele>
        <time>2020-07-09T09:52:30Z</time>
      </trkpt>
      <trkpt lat="49.475591" lon="6.594241">
        <ele>217.0</ele>
        <time>2020-07-09T09:52:33Z</time>
      </trkpt>
      <trkpt lat="49.475652" lon="6.594329">
        <ele>217.0</ele>
        <time>2020-07-09T09:52:35Z</time>
      </trkpt>
      <trkpt lat="49.475708" lon="6.594412">
        <ele>217.0</ele>
        <time>2020-07-09T09:52:37Z</time>
      </trkpt>
      <trkpt lat="49.475797" lon="6.594543">
        <ele>218.0</ele>
        <time>2020-07-09T09:52:40Z</time>
      </trkpt>
      <trkpt lat="49.475849" lon="6.594631">
        <ele>218.0</ele>
        <time>2020-07-09T09:52:42Z</time>
      </trkpt>
      <trkpt lat="49.475898" lon="6.594715">
        <ele>218.0</ele>
        <time>2020-07-09T09:52:44Z</time>
      </trkpt>
      <trkpt lat="49.475947" lon="6.594796">
        <ele>218.0</ele>
        <time>2020-07-09T09:52:46Z</time>
      </trkpt>
      <trkpt lat="49.476029" lon="6.594926">
        <ele>219.0</ele>
        <time>2020-07-09T09:52:49Z</time>
      </trkpt>
      <trkpt lat="49.476081" lon="6.595017">
        <ele>219.0</ele>
        <time>2020-07-09T09:52:51Z</time>
      </trkpt>
      <trkpt lat="49.476106" lon="6.595059">
        <ele>219.0</ele>
        <time>2020-07-09T09:52:52Z</time>
      </trkpt>
      <trkpt lat="49.476182" lon="6.595178">
        <ele>220.0</ele>
        <time>2020-07-09T09:52:55Z</time>
      </trkpt>
      <trkpt lat="49.476266" lon="6.595293">
        <ele>220.0</ele>
        <time>2020-07-09T09:52:58Z</time>
      </trkpt>
      <trkpt lat="49.476291" lon="6.595336">
        <ele>220.0</ele>
        <time>2020-07-09T09:52:59Z</time>
      </trkpt>
      <trkpt lat="49.47637" lon="6.59547">
        <ele>219.0</ele>
        <time>2020-07-09T09:53:02Z</time>
      </trkpt>
      <trkpt lat="49.476416" lon="6.595557">
        <ele>220.0</ele>
        <time>2020-07-09T09:53:04Z</time>
      </trkpt>
      <trkpt lat="49.476471" lon="6.595634">
        <ele>221.0</ele>
        <time>2020-07-09T09:53:06Z</time>
      </trkpt>
      <trkpt lat="49.47655" lon="6.595748">
        <ele>221.0</ele>
        <time>2020-07-09T09:53:09Z</time>
      </trkpt>
      <trkpt lat="49.476594" lon="6.595835">
        <ele>221.0</ele>
        <time>2020-07-09T09:53:11Z</time>
      </trkpt>
      <trkpt lat="49.476644" lon="6.595915">
        <ele>221.0</ele>
        <time>2020-07-09T09:53:13Z</time>
      </trkpt>
      <trkpt lat="49.476691" lon="6.595988">
        <ele>221.0</ele>
        <time>2020-07-09T09:53:15Z</time>
      </trkpt>
      <trkpt lat="49.476741" lon="6.596059">
        <ele>221.0</ele>
        <time>2020-07-09T09:53:17Z</time>
      </trkpt>
      <trkpt lat="49.476792" lon="6.596141">
        <ele>221.0</ele>
        <time>2020-07-09T09:53:19Z</time>
      </trkpt>
      <trkpt lat="49.476846" lon="6.596232">
        <ele>222.0</ele>
        <time>2020-07-09T09:53:21Z</time>
      </trkpt>
      <trkpt lat="49.476895" lon="6.596323">
        <ele>222.0</ele>
        <time>2020-07-09T09:53:23Z</time>
      </trkpt>
      <trkpt lat="49.47698" lon="6.596449">
        <ele>222.0</ele>
        <time>2020-07-09T09:53:26Z</time>
      </trkpt>
      <trkpt lat="49.477007" lon="6.596487">
        <ele>222.0</ele>
        <time>2020-07-09T09:53:27Z</time>
      </trkpt>
      <trkpt lat="49.477084" lon="6.596616">
        <ele>223.0</ele>
        <time>2020-07-09T09:53:30Z</time>
      </trkpt>
      <trkpt lat="49.477137" lon="6.596706">
        <ele>223.0</ele>
        <time>2020-07-09T09:53:32Z</time>
      </trkpt>
      <trkpt lat="49.477189" lon="6.596789">
        <ele>224.0</ele>
        <time>2020-07-09T09:53:34Z</time>
      </trkpt>
      <trkpt lat="49.477282" lon="6.596949">
        <ele>223.0</ele>
        <time>2020-07-09T09:53:37Z</time>
      </trkpt>
      <trkpt lat="49.477343" lon="6.597054">
        <ele>224.0</ele>
        <time>2020-07-09T09:53:39Z</time>
      </trkpt>
      <trkpt lat="49.477409" lon="6.597168">
        <ele>224.0</ele>
        <time>2020-07-09T09:53:41Z</time>
      </trkpt>
      <trkpt lat="49.477513" lon="6.597326">
        <ele>224.0</ele>
        <time>2020-07-09T09:53:44Z</time>
      </trkpt>
      <trkpt lat="49.477579" lon="6.597438">
        <ele>225.0</ele>
        <time>2020-07-09T09:53:46Z</time>
      </trkpt>
      <trkpt lat="49.477647" lon="6.597542">
        <ele>224.0</ele>
        <time>2020-07-09T09:53:48Z</time>
      </trkpt>
      <trkpt lat="49.477716" lon="6.597644">
        <ele>224.0</ele>
        <time>2020-07-09T09:53:50Z</time>
      </trkpt>
      <trkpt lat="49.477747" lon="6.597695">
        <ele>224.0</ele>
        <time>2020-07-09T09:53:51Z</time>
      </trkpt>
      <trkpt lat="49.477846" lon="6.597871">
        <ele>223.0</ele>
        <time>2020-07-09T09:53:54Z</time>
      </trkpt>
      <trkpt lat="49.477923" lon="6.597986">
        <ele>223.0</ele>
        <time>2020-07-09T09:53:56Z</time>
      </trkpt>
      <trkpt lat="49.477999" lon="6.598115">
        <ele>223.0</ele>
        <time>2020-07-09T09:53:58Z</time>
      </trkpt>
      <trkpt lat="49.478082" lon="6.598258">
        <ele>223.0</ele>
        <time>2020-07-09T09:54:00Z</time>
      </trkpt>
      <trkpt lat="49.478173" lon="6.598404">
        <ele>223.0</ele>
        <time>2020-07-09T09:54:02Z</time>
      </trkpt>
      <trkpt lat="49.478264" lon="6.598559">
        <ele>222.0</ele>
        <time>2020-07-09T09:54:04Z</time>
      </trkpt>
      <trkpt lat="49.478364" lon="6.598718">
        <ele>221.0</ele>
        <time>2020-07-09T09:54:06Z</time>
      </trkpt>
      <trkpt lat="49.478459" lon="6.598854">
        <ele>222.0</ele>
        <time>2020-07-09T09:54:08Z</time>
      </trkpt>
      <trkpt lat="49.47854" lon="6.59895">
        <ele>223.0</ele>
        <time>2020-07-09T09:54:10Z</time>
      </trkpt>
      <trkpt lat="49.478619" lon="6.598993">
        <ele>223.0</ele>
        <time>2020-07-09T09:54:13Z</time>
      </trkpt>
      <trkpt lat="49.478659" lon="6.598932">
        <ele>223.0</ele>
        <time>2020-07-09T09:54:15Z</time>
      </trkpt>
      <trkpt lat="49.47872" lon="6.598807">
        <ele>223.0</ele>
        <time>2020-07-09T09:54:18Z</time>
      </trkpt>
      <trkpt lat="49.478761" lon="6.598705">
        <ele>223.0</ele>
        <time>2020-07-09T09:54:20Z</time>
      </trkpt>
      <trkpt lat="49.478811" lon="6.598618">
        <ele>223.0</ele>
        <time>2020-07-09T09:54:22Z</time>
      </trkpt>
      <trkpt lat="49.478852" lon="6.598549">
        <ele>223.0</ele>
        <time>2020-07-09T09:54:24Z</time>
      </trkpt>
      <trkpt lat="49.478895" lon="6.59844">
        <ele>223.0</ele>
        <time>2020-07-09T09:54:27Z</time>
      </trkpt>
      <trkpt lat="49.478912" lon="6.59836">
        <ele>223.0</ele>
        <time>2020-07-09T09:54:29Z</time>
      </trkpt>
      <trkpt lat="49.478921" lon="6.598311">
        <ele>223.0</ele>
        <time>2020-07-09T09:54:30Z</time>
      </trkpt>
      <trkpt lat="49.478926" lon="6.598171">
        <ele>223.0</ele>
        <time>2020-07-09T09:54:33Z</time>
      </trkpt>
      <trkpt lat="49.47893" lon="6.598069">
        <ele>223.0</ele>
        <time>2020-07-09T09:54:35Z</time>
      </trkpt>
      <trkpt lat="49.478925" lon="6.597958">
        <ele>223.0</ele>
        <time>2020-07-09T09:54:37Z</time>
      </trkpt>
      <trkpt lat="49.478911" lon="6.597841">
        <ele>223.0</ele>
        <time>2020-07-09T09:54:39Z</time>
      </trkpt>
      <trkpt lat="49.478893" lon="6.597612">
        <ele>223.0</ele>
        <time>2020-07-09T09:54:42Z</time>
      </trkpt>
      <trkpt lat="49.478867" lon="6.59743">
        <ele>222.0</ele>
        <time>2020-07-09T09:54:44Z</time>
      </trkpt>
      <trkpt lat="49.478844" lon="6.59724">
        <ele>221.0</ele>
        <time>2020-07-09T09:54:46Z</time>
      </trkpt>
      <trkpt lat="49.478824" lon="6.597105">
        <ele>220.0</ele>
        <time>2020-07-09T09:54:48Z</time>
      </trkpt>
      <trkpt lat="49.478813" lon="6.597014">
        <ele>220.0</ele>
        <time>2020-07-09T09:54:50Z</time>
      </trkpt>
      <trkpt lat="49.478813" lon="6.596926">
        <ele>220.0</ele>
        <time>2020-07-09T09:54:52Z</time>
      </trkpt>
      <trkpt lat="49.478837" lon="6.596806">
        <ele>220.0</ele>
        <time>2020-07-09T09:54:54Z</time>
      </trkpt>
      <trkpt lat="49.478872" lon="6.596676">
        <ele>219.0</ele>
        <time>2020-07-09T09:54:56Z</time>
      </trkpt>
      <trkpt lat="49.478888" lon="6.596532">
        <ele>219.0</ele>
        <time>2020-07-09T09:54:58Z</time>
      </trkpt>
      <trkpt lat="49.478828" lon="6.59645">
        <ele>220.0</ele>
        <time>2020-07-09T09:55:00Z</time>
      </trkpt>
      <trkpt lat="49.478722" lon="6.596331">
        <ele>221.0</ele>
        <time>2020-07-09T09:55:03Z</time>
      </trkpt>
      <trkpt lat="49.478603" lon="6.596257">
        <ele>220.0</ele>
        <time>2020-07-09T09:55:06Z</time>
      </trkpt>
      <trkpt lat="49.478521" lon="6.596342">
        <ele>220.0</ele>
        <time>2020-07-09T09:55:08Z</time>
      </trkpt>
      <trkpt lat="49.478446" lon="6.596438">
        <ele>220.0</ele>
        <time>2020-07-09T09:55:10Z</time>
      </trkpt>
      <trkpt lat="49.478387" lon="6.596525">
        <ele>219.0</ele>
        <time>2020-07-09T09:55:12Z</time>
      </trkpt>
      <trkpt lat="49.47828" lon="6.596661">
        <ele>219.0</ele>
        <time>2020-07-09T09:55:15Z</time>
      </trkpt>
      <trkpt lat="49.478243" lon="6.596705">
        <ele>219.0</ele>
        <time>2020-07-09T09:55:16Z</time>
      </trkpt>
      <trkpt lat="49.478045" lon="6.596923">
        <ele>219.0</ele>
        <time>2020-07-09T09:55:20Z</time>
      </trkpt>
      <trkpt lat="49.477936" lon="6.597046">
        <ele>218.0</ele>
        <time>2020-07-09T09:55:22Z</time>
      </trkpt>
      <trkpt lat="49.477833" lon="6.597185">
        <ele>218.0</ele>
        <time>2020-07-09T09:55:24Z</time>
      </trkpt>
      <trkpt lat="49.477732" lon="6.597324">
        <ele>217.0</ele>
        <time>2020-07-09T09:55:26Z</time>
      </trkpt>
      <trkpt lat="49.477649" lon="6.597467">
        <ele>218.0</ele>
        <time>2020-07-09T09:55:28Z</time>
      </trkpt>
      <trkpt lat="49.477571" lon="6.597601">
        <ele>218.0</ele>
        <time>2020-07-09T09:55:30Z</time>
      </trkpt>
      <trkpt lat="49.477495" lon="6.597738">
        <ele>218.0</ele>
        <time>2020-07-09T09:55:32Z</time>
      </trkpt>
      <trkpt lat="49.477424" lon="6.59787">
        <ele>218.0</ele>
        <time>2020-07-09T09:55:34Z</time>
      </trkpt>
      <trkpt lat="49.477315" lon="6.598072">
        <ele>218.0</ele>
        <time>2020-07-09T09:55:37Z</time>
      </trkpt>
      <trkpt lat="49.47728" lon="6.598143">
        <ele>219.0</ele>
        <time>2020-07-09T09:55:38Z</time>
      </trkpt>
      <trkpt lat="49.477174" lon="6.598345">
        <ele>219.0</ele>
        <time>2020-07-09T09:55:41Z</time>
      </trkpt>
      <trkpt lat="49.477101" lon="6.598479">
        <ele>218.0</ele>
        <time>2020-07-09T09:55:43Z</time>
      </trkpt>
      <trkpt lat="49.477028" lon="6.59863">
        <ele>218.0</ele>
        <time>2020-07-09T09:55:45Z</time>
      </trkpt>
      <trkpt lat="49.476961" lon="6.598765">
        <ele>217.0</ele>
        <time>2020-07-09T09:55:47Z</time>
      </trkpt>
      <trkpt lat="49.476888" lon="6.598904">
        <ele>217.0</ele>
        <time>2020-07-09T09:55:49Z</time>
      </trkpt>
      <trkpt lat="49.476818" lon="6.599033">
        <ele>217.0</ele>
        <time>2020-07-09T09:55:51Z</time>
      </trkpt>
      <trkpt lat="49.476717" lon="6.599231">
        <ele>216.0</ele>
        <time>2020-07-09T09:55:54Z</time>
      </trkpt>
      <trkpt lat="49.476649" lon="6.599371">
        <ele>216.0</ele>
        <time>2020-07-09T09:55:56Z</time>
      </trkpt>
      <trkpt lat="49.47654" lon="6.599576">
        <ele>216.0</ele>
        <time>2020-07-09T09:55:59Z</time>
      </trkpt>
      <trkpt lat="49.476473" lon="6.59971">
        <ele>217.0</ele>
        <time>2020-07-09T09:56:01Z</time>
      </trkpt>
      <trkpt lat="49.476404" lon="6.599843">
        <ele>217.0</ele>
        <time>2020-07-09T09:56:03Z</time>
      </trkpt>
      <trkpt lat="49.476332" lon="6.599976">
        <ele>217.0</ele>
        <time>2020-07-09T09:56:05Z</time>
      </trkpt>
      <trkpt lat="49.476222" lon="6.600174">
        <ele>216.0</ele>
        <time>2020-07-09T09:56:08Z</time>
      </trkpt>
      <trkpt lat="49.476146" lon="6.600302">
        <ele>217.0</ele>
        <time>2020-07-09T09:56:10Z</time>
      </trkpt>
      <trkpt lat="49.476071" lon="6.600427">
        <ele>216.0</ele>
        <time>2020-07-09T09:56:12Z</time>
      </trkpt>
      <trkpt lat="49.476001" lon="6.600557">
        <ele>216.0</ele>
        <time>2020-07-09T09:56:14Z</time>
      </trkpt>
      <trkpt lat="49.475936" lon="6.600683">
        <ele>216.0</ele>
        <time>2020-07-09T09:56:16Z</time>
      </trkpt>
      <trkpt lat="49.475862" lon="6.600803">
        <ele>217.0</ele>
        <time>2020-07-09T09:56:18Z</time>
      </trkpt>
      <trkpt lat="49.475787" lon="6.600929">
        <ele>217.0</ele>
        <time>2020-07-09T09:56:20Z</time>
      </trkpt>
      <trkpt lat="49.475678" lon="6.601109">
        <ele>217.0</ele>
        <time>2020-07-09T09:56:23Z</time>
      </trkpt>
      <trkpt lat="49.475605" lon="6.601226">
        <ele>217.0</ele>
        <time>2020-07-09T09:56:25Z</time>
      </trkpt>
      <trkpt lat="49.475528" lon="6.60135">
        <ele>217.0</ele>
        <time>2020-07-09T09:56:27Z</time>
      </trkpt>
      <trkpt lat="49.47545" lon="6.601472">
        <ele>217.0</ele>
        <time>2020-07-09T09:56:29Z</time>
      </trkpt>
      <trkpt lat="49.475371" lon="6.601593">
        <ele>217.0</ele>
        <time>2020-07-09T09:56:31Z</time>
      </trkpt>
      <trkpt lat="49.475293" lon="6.601703">
        <ele>217.0</ele>
        <time>2020-07-09T09:56:33Z</time>
      </trkpt>
      <trkpt lat="49.475213" lon="6.601823">
        <ele>217.0</ele>
        <time>2020-07-09T09:56:35Z</time>
      </trkpt>
      <trkpt lat="49.475134" lon="6.601944">
        <ele>217.0</ele>
        <time>2020-07-09T09:56:37Z</time>
      </trkpt>
      <trkpt lat="49.475051" lon="6.602055">
        <ele>217.0</ele>
        <time>2020-07-09T09:56:39Z</time>
      </trkpt>
      <trkpt lat="49.474969" lon="6.602162">
        <ele>217.0</ele>
        <time>2020-07-09T09:56:41Z</time>
      </trkpt>
      <trkpt lat="49.474848" lon="6.60234">
        <ele>217.0</ele>
        <time>2020-07-09T09:56:44Z</time>
      </trkpt>
      <trkpt lat="49.474763" lon="6.602437">
        <ele>217.0</ele>
        <time>2020-07-09T09:56:46Z</time>
      </trkpt>
      <trkpt lat="49.47468" lon="6.602532">
        <ele>217.0</ele>
        <time>2020-07-09T09:56:48Z</time>
      </trkpt>
      <trkpt lat="49.474599" lon="6.602633">
        <ele>217.0</ele>
        <time>2020-07-09T09:56:50Z</time>
      </trkpt>
      <trkpt lat="49.474505" lon="6.602728">
        <ele>218.0</ele>
        <time>2020-07-09T09:56:52Z</time>
      </trkpt>
      <trkpt lat="49.474416" lon="6.602835">
        <ele>217.0</ele>
        <time>2020-07-09T09:56:54Z</time>
      </trkpt>
      <trkpt lat="49.474322" lon="6.602931">
        <ele>218.0</ele>
        <time>2020-07-09T09:56:56Z</time>
      </trkpt>
      <trkpt lat="49.47418" lon="6.603063">
        <ele>218.0</ele>
        <time>2020-07-09T09:56:59Z</time>
      </trkpt>
      <trkpt lat="49.474084" lon="6.603151">
        <ele>218.0</ele>
        <time>2020-07-09T09:57:01Z</time>
      </trkpt>
      <trkpt lat="49.473984" lon="6.603235">
        <ele>218.0</ele>
        <time>2020-07-09T09:57:03Z</time>
      </trkpt>
      <trkpt lat="49.473877" lon="6.603315">
        <ele>218.0</ele>
        <time>2020-07-09T09:57:05Z</time>
      </trkpt>
      <trkpt lat="49.473776" lon="6.603395">
        <ele>217.0</ele>
        <time>2020-07-09T09:57:07Z</time>
      </trkpt>
      <trkpt lat="49.473676" lon="6.603474">
        <ele>218.0</ele>
        <time>2020-07-09T09:57:09Z</time>
      </trkpt>
      <trkpt lat="49.473579" lon="6.603555">
        <ele>218.0</ele>
        <time>2020-07-09T09:57:11Z</time>
      </trkpt>
      <trkpt lat="49.473481" lon="6.603626">
        <ele>218.0</ele>
        <time>2020-07-09T09:57:13Z</time>
      </trkpt>
      <trkpt lat="49.473379" lon="6.603688">
        <ele>218.0</ele>
        <time>2020-07-09T09:57:15Z</time>
      </trkpt>
      <trkpt lat="49.473228" lon="6.603784">
        <ele>218.0</ele>
        <time>2020-07-09T09:57:18Z</time>
      </trkpt>
      <trkpt lat="49.473125" lon="6.603839">
        <ele>218.0</ele>
        <time>2020-07-09T09:57:20Z</time>
      </trkpt>
      <trkpt lat="49.473019" lon="6.603894">
        <ele>217.0</ele>
        <time>2020-07-09T09:57:22Z</time>
      </trkpt>
      <trkpt lat="49.472917" lon="6.603943">
        <ele>217.0</ele>
        <time>2020-07-09T09:57:24Z</time>
      </trkpt>
      <trkpt lat="49.472814" lon="6.604">
        <ele>217.0</ele>
        <time>2020-07-09T09:57:26Z</time>
      </trkpt>
      <trkpt lat="49.472652" lon="6.604063">
        <ele>216.0</ele>
        <time>2020-07-09T09:57:29Z</time>
      </trkpt>
      <trkpt lat="49.472543" lon="6.604105">
        <ele>216.0</ele>
        <time>2020-07-09T09:57:31Z</time>
      </trkpt>
      <trkpt lat="49.472428" lon="6.604151">
        <ele>216.0</ele>
        <time>2020-07-09T09:57:33Z</time>
      </trkpt>
      <trkpt lat="49.472324" lon="6.604184">
        <ele>216.0</ele>
        <time>2020-07-09T09:57:35Z</time>
      </trkpt>
      <trkpt lat="49.472159" lon="6.604236">
        <ele>216.0</ele>
        <time>2020-07-09T09:57:38Z</time>
      </trkpt>
      <trkpt lat="49.472053" lon="6.604278">
        <ele>216.0</ele>
        <time>2020-07-09T09:57:40Z</time>
      </trkpt>
      <trkpt lat="49.471947" lon="6.604318">
        <ele>216.0</ele>
        <time>2020-07-09T09:57:42Z</time>
      </trkpt>
      <trkpt lat="49.47189" lon="6.604347">
        <ele>216.0</ele>
        <time>2020-07-09T09:57:43Z</time>
      </trkpt>
      <trkpt lat="49.471677" lon="6.604447">
        <ele>216.0</ele>
        <time>2020-07-09T09:57:47Z</time>
      </trkpt>
      <trkpt lat="49.471575" lon="6.6045">
        <ele>216.0</ele>
        <time>2020-07-09T09:57:49Z</time>
      </trkpt>
      <trkpt lat="49.471472" lon="6.604553">
        <ele>217.0</ele>
        <time>2020-07-09T09:57:51Z</time>
      </trkpt>
      <trkpt lat="49.471365" lon="6.604614">
        <ele>216.0</ele>
        <time>2020-07-09T09:57:53Z</time>
      </trkpt>
      <trkpt lat="49.471262" lon="6.604686">
        <ele>216.0</ele>
        <time>2020-07-09T09:57:55Z</time>
      </trkpt>
      <trkpt lat="49.471163" lon="6.604754">
        <ele>216.0</ele>
        <time>2020-07-09T09:57:57Z</time>
      </trkpt>
      <trkpt lat="49.471062" lon="6.60482">
        <ele>216.0</ele>
        <time>2020-07-09T09:57:59Z</time>
      </trkpt>
      <trkpt lat="49.470963" lon="6.604881">
        <ele>216.0</ele>
        <time>2020-07-09T09:58:01Z</time>
      </trkpt>
      <trkpt lat="49.470871" lon="6.60495">
        <ele>216.0</ele>
        <time>2020-07-09T09:58:03Z</time>
      </trkpt>
      <trkpt lat="49.470783" lon="6.605012">
        <ele>217.0</ele>
        <time>2020-07-09T09:58:05Z</time>
      </trkpt>
      <trkpt lat="49.470653" lon="6.605111">
        <ele>217.0</ele>
        <time>2020-07-09T09:58:08Z</time>
      </trkpt>
      <trkpt lat="49.470573" lon="6.605166">
        <ele>217.0</ele>
        <time>2020-07-09T09:58:10Z</time>
      </trkpt>
      <trkpt lat="49.470535" lon="6.605195">
        <ele>217.0</ele>
        <time>2020-07-09T09:58:11Z</time>
      </trkpt>
      <trkpt lat="49.470373" lon="6.60532">
        <ele>217.0</ele>
        <time>2020-07-09T09:58:15Z</time>
      </trkpt>
      <trkpt lat="49.470286" lon="6.605391">
        <ele>217.0</ele>
        <time>2020-07-09T09:58:17Z</time>
      </trkpt>
      <trkpt lat="49.470196" lon="6.605459">
        <ele>217.0</ele>
        <time>2020-07-09T09:58:19Z</time>
      </trkpt>
      <trkpt lat="49.470066" lon="6.605563">
        <ele>217.0</ele>
        <time>2020-07-09T09:58:22Z</time>
      </trkpt>
      <trkpt lat="49.469979" lon="6.605639">
        <ele>217.0</ele>
        <time>2020-07-09T09:58:24Z</time>
      </trkpt>
      <trkpt lat="49.469933" lon="6.605678">
        <ele>216.0</ele>
        <time>2020-07-09T09:58:25Z</time>
      </trkpt>
      <trkpt lat="49.469802" lon="6.605822">
        <ele>217.0</ele>
        <time>2020-07-09T09:58:28Z</time>
      </trkpt>
      <trkpt lat="49.469678" lon="6.605946">
        <ele>216.0</ele>
        <time>2020-07-09T09:58:31Z</time>
      </trkpt>
      <trkpt lat="49.46955" lon="6.606077">
        <ele>216.0</ele>
        <time>2020-07-09T09:58:34Z</time>
      </trkpt>
      <trkpt lat="49.469508" lon="6.606122">
        <ele>216.0</ele>
        <time>2020-07-09T09:58:35Z</time>
      </trkpt>
      <trkpt lat="49.469424" lon="6.606214">
        <ele>216.0</ele>
        <time>2020-07-09T09:58:37Z</time>
      </trkpt>
      <trkpt lat="49.469334" lon="6.606299">
        <ele>216.0</ele>
        <time>2020-07-09T09:58:39Z</time>
      </trkpt>
      <trkpt lat="49.469246" lon="6.606394">
        <ele>215.0</ele>
        <time>2020-07-09T09:58:41Z</time>
      </trkpt>
      <trkpt lat="49.469112" lon="6.60652">
        <ele>215.0</ele>
        <time>2020-07-09T09:58:44Z</time>
      </trkpt>
      <trkpt lat="49.469021" lon="6.606615">
        <ele>215.0</ele>
        <time>2020-07-09T09:58:46Z</time>
      </trkpt>
      <trkpt lat="49.468927" lon="6.60672">
        <ele>215.0</ele>
        <time>2020-07-09T09:58:48Z</time>
      </trkpt>
      <trkpt lat="49.468885" lon="6.606768">
        <ele>215.0</ele>
        <time>2020-07-09T09:58:49Z</time>
      </trkpt>
      <trkpt lat="49.468753" lon="6.606924">
        <ele>215.0</ele>
        <time>2020-07-09T09:58:52Z</time>
      </trkpt>
      <trkpt lat="49.468673" lon="6.607025">
        <ele>215.0</ele>
        <time>2020-07-09T09:58:54Z</time>
      </trkpt>
      <trkpt lat="49.468596" lon="6.607133">
        <ele>216.0</ele>
        <time>2020-07-09T09:58:56Z</time>
      </trkpt>
      <trkpt lat="49.468521" lon="6.607233">
        <ele>215.0</ele>
        <time>2020-07-09T09:58:58Z</time>
      </trkpt>
      <trkpt lat="49.468445" lon="6.607412">
        <ele>215.0</ele>
        <time>2020-07-09T09:59:01Z</time>
      </trkpt>
      <trkpt lat="49.468475" lon="6.607528">
        <ele>216.0</ele>
        <time>2020-07-09T09:59:03Z</time>
      </trkpt>
      <trkpt lat="49.468522" lon="6.607614">
        <ele>217.0</ele>
        <time>2020-07-09T09:59:05Z</time>
      </trkpt>
      <trkpt lat="49.46857" lon="6.6077">
        <ele>217.0</ele>
        <time>2020-07-09T09:59:07Z</time>
      </trkpt>
      <trkpt lat="49.468636" lon="6.607816">
        <ele>219.0</ele>
        <time>2020-07-09T09:59:10Z</time>
      </trkpt>
      <trkpt lat="49.468659" lon="6.607851">
        <ele>219.0</ele>
        <time>2020-07-09T09:59:11Z</time>
      </trkpt>
      <trkpt lat="49.468726" lon="6.607943">
        <ele>219.0</ele>
        <time>2020-07-09T09:59:14Z</time>
      </trkpt>
      <trkpt lat="49.468777" lon="6.607995">
        <ele>219.0</ele>
        <time>2020-07-09T09:59:16Z</time>
      </trkpt>
      <trkpt lat="49.468861" lon="6.608043">
        <ele>219.0</ele>
        <time>2020-07-09T09:59:19Z</time>
      </trkpt>
      <trkpt lat="49.468917" lon="6.608076">
        <ele>219.0</ele>
        <time>2020-07-09T09:59:21Z</time>
      </trkpt>
      <trkpt lat="49.468984" lon="6.608115">
        <ele>219.0</ele>
        <time>2020-07-09T09:59:23Z</time>
      </trkpt>
      <trkpt lat="49.469086" lon="6.608169">
        <ele>219.0</ele>
        <time>2020-07-09T09:59:26Z</time>
      </trkpt>
      <trkpt lat="49.469161" lon="6.608208">
        <ele>221.0</ele>
        <time>2020-07-09T09:59:28Z</time>
      </trkpt>
      <trkpt lat="49.469293" lon="6.60828">
        <ele>221.0</ele>
        <time>2020-07-09T09:59:31Z</time>
      </trkpt>
      <trkpt lat="49.469378" lon="6.60833">
        <ele>221.0</ele>
        <time>2020-07-09T09:59:33Z</time>
      </trkpt>
      <trkpt lat="49.469454" lon="6.60837">
        <ele>221.0</ele>
        <time>2020-07-09T09:59:35Z</time>
      </trkpt>
      <trkpt lat="49.469513" lon="6.608408">
        <ele>221.0</ele>
        <time>2020-07-09T09:59:37Z</time>
      </trkpt>
      <trkpt lat="49.469552" lon="6.60844">
        <ele>221.0</ele>
        <time>2020-07-09T09:59:39Z</time>
      </trkpt>
      <trkpt lat="49.469549" lon="6.60849">
        <ele>221.0</ele>
        <time>2020-07-09T09:59:41Z</time>
      </trkpt>
      <trkpt lat="49.469528" lon="6.608551">
        <ele>221.0</ele>
        <time>2020-07-09T09:59:43Z</time>
      </trkpt>
      <trkpt lat="49.469495" lon="6.608617">
        <ele>221.0</ele>
        <time>2020-07-09T09:59:45Z</time>
      </trkpt>
      <trkpt lat="49.469456" lon="6.608688">
        <ele>220.0</ele>
        <time>2020-07-09T09:59:47Z</time>
      </trkpt>
      <trkpt lat="49.469414" lon="6.608769">
        <ele>220.0</ele>
        <time>2020-07-09T09:59:49Z</time>
      </trkpt>
      <trkpt lat="49.469374" lon="6.608858">
        <ele>220.0</ele>
        <time>2020-07-09T09:59:51Z</time>
      </trkpt>
      <trkpt lat="49.469337" lon="6.608938">
        <ele>220.0</ele>
        <time>2020-07-09T09:59:53Z</time>
      </trkpt>
      <trkpt lat="49.46926" lon="6.609062">
        <ele>220.0</ele>
        <time>2020-07-09T09:59:56Z</time>
      </trkpt>
      <trkpt lat="49.4692" lon="6.609152">
        <ele>220.0</ele>
        <time>2020-07-09T09:59:58Z</time>
      </trkpt>
      <trkpt lat="49.469121" lon="6.609307">
        <ele>222.0</ele>
        <time>2020-07-09T10:00:01Z</time>
      </trkpt>
      <trkpt lat="49.469096" lon="6.609356">
        <ele>221.0</ele>
        <time>2020-07-09T10:00:02Z</time>
      </trkpt>
      <trkpt lat="49.469009" lon="6.609503">
        <ele>222.0</ele>
        <time>2020-07-09T10:00:05Z</time>
      </trkpt>
      <trkpt lat="49.46893" lon="6.609653">
        <ele>221.0</ele>
        <time>2020-07-09T10:00:08Z</time>
      </trkpt>
      <trkpt lat="49.468886" lon="6.609746">
        <ele>220.0</ele>
        <time>2020-07-09T10:00:10Z</time>
      </trkpt>
      <trkpt lat="49.468844" lon="6.609846">
        <ele>220.0</ele>
        <time>2020-07-09T10:00:12Z</time>
      </trkpt>
      <trkpt lat="49.468768" lon="6.609997">
        <ele>221.0</ele>
        <time>2020-07-09T10:00:15Z</time>
      </trkpt>
      <trkpt lat="49.468725" lon="6.610093">
        <ele>222.0</ele>
        <time>2020-07-09T10:00:17Z</time>
      </trkpt>
      <trkpt lat="49.46868" lon="6.610188">
        <ele>222.0</ele>
        <time>2020-07-09T10:00:19Z</time>
      </trkpt>
      <trkpt lat="49.468636" lon="6.610287">
        <ele>222.0</ele>
        <time>2020-07-09T10:00:21Z</time>
      </trkpt>
      <trkpt lat="49.468587" lon="6.610379">
        <ele>222.0</ele>
        <time>2020-07-09T10:00:23Z</time>
      </trkpt>
      <trkpt lat="49.468541" lon="6.610472">
        <ele>222.0</ele>
        <time>2020-07-09T10:00:25Z</time>
      </trkpt>
      <trkpt lat="49.468487" lon="6.610566">
        <ele>221.0</ele>
        <time>2020-07-09T10:00:27Z</time>
      </trkpt>
      <trkpt lat="49.468431" lon="6.610663">
        <ele>221.0</ele>
        <time>2020-07-09T10:00:29Z</time>
      </trkpt>
      <trkpt lat="49.468383" lon="6.610761">
        <ele>221.0</ele>
        <time>2020-07-09T10:00:31Z</time>
      </trkpt>
      <trkpt lat="49.468305" lon="6.610897">
        <ele>221.0</ele>
        <time>2020-07-09T10:00:34Z</time>
      </trkpt>
      <trkpt lat="49.468283" lon="6.610943">
        <ele>221.0</ele>
        <time>2020-07-09T10:00:35Z</time>
      </trkpt>
      <trkpt lat="49.468192" lon="6.611106">
        <ele>221.0</ele>
        <time>2020-07-09T10:00:38Z</time>
      </trkpt>
      <trkpt lat="49.468124" lon="6.611224">
        <ele>221.0</ele>
        <time>2020-07-09T10:00:40Z</time>
      </trkpt>
      <trkpt lat="49.468054" lon="6.611331">
        <ele>222.0</ele>
        <time>2020-07-09T10:00:42Z</time>
      </trkpt>
      <trkpt lat="49.46799" lon="6.61144">
        <ele>222.0</ele>
        <time>2020-07-09T10:00:44Z</time>
      </trkpt>
      <trkpt lat="49.467927" lon="6.611546">
        <ele>222.0</ele>
        <time>2020-07-09T10:00:46Z</time>
      </trkpt>
      <trkpt lat="49.467867" lon="6.611653">
        <ele>222.0</ele>
        <time>2020-07-09T10:00:48Z</time>
      </trkpt>
      <trkpt lat="49.467764" lon="6.611806">
        <ele>223.0</ele>
        <time>2020-07-09T10:00:51Z</time>
      </trkpt>
      <trkpt lat="49.467688" lon="6.611896">
        <ele>223.0</ele>
        <time>2020-07-09T10:00:53Z</time>
      </trkpt>
      <trkpt lat="49.467621" lon="6.611987">
        <ele>222.0</ele>
        <time>2020-07-09T10:00:55Z</time>
      </trkpt>
      <trkpt lat="49.467547" lon="6.612087">
        <ele>222.0</ele>
        <time>2020-07-09T10:00:57Z</time>
      </trkpt>
      <trkpt lat="49.467439" lon="6.612241">
        <ele>222.0</ele>
        <time>2020-07-09T10:01:00Z</time>
      </trkpt>
      <trkpt lat="49.4674" lon="6.612288">
        <ele>222.0</ele>
        <time>2020-07-09T10:01:01Z</time>
      </trkpt>
      <trkpt lat="49.467289" lon="6.612415">
        <ele>221.0</ele>
        <time>2020-07-09T10:01:04Z</time>
      </trkpt>
      <trkpt lat="49.467212" lon="6.612502">
        <ele>221.0</ele>
        <time>2020-07-09T10:01:06Z</time>
      </trkpt>
      <trkpt lat="49.467136" lon="6.612586">
        <ele>221.0</ele>
        <time>2020-07-09T10:01:08Z</time>
      </trkpt>
      <trkpt lat="49.467055" lon="6.612664">
        <ele>220.0</ele>
        <time>2020-07-09T10:01:10Z</time>
      </trkpt>
      <trkpt lat="49.466948" lon="6.612751">
        <ele>220.0</ele>
        <time>2020-07-09T10:01:13Z</time>
      </trkpt>
      <trkpt lat="49.466875" lon="6.612705">
        <ele>220.0</ele>
        <time>2020-07-09T10:01:15Z</time>
      </trkpt>
      <trkpt lat="49.466824" lon="6.612621">
        <ele>220.0</ele>
        <time>2020-07-09T10:01:17Z</time>
      </trkpt>
      <trkpt lat="49.466776" lon="6.612537">
        <ele>220.0</ele>
        <time>2020-07-09T10:01:19Z</time>
      </trkpt>
      <trkpt lat="49.466724" lon="6.61246">
        <ele>220.0</ele>
        <time>2020-07-09T10:01:21Z</time>
      </trkpt>
      <trkpt lat="49.466664" lon="6.612358">
        <ele>220.0</ele>
        <time>2020-07-09T10:01:23Z</time>
      </trkpt>
      <trkpt lat="49.466602" lon="6.612257">
        <ele>219.0</ele>
        <time>2020-07-09T10:01:25Z</time>
      </trkpt>
      <trkpt lat="49.466512" lon="6.612099">
        <ele>219.0</ele>
        <time>2020-07-09T10:01:28Z</time>
      </trkpt>
      <trkpt lat="49.466442" lon="6.611983">
        <ele>219.0</ele>
        <time>2020-07-09T10:01:30Z</time>
      </trkpt>
      <trkpt lat="49.466381" lon="6.611882">
        <ele>219.0</ele>
        <time>2020-07-09T10:01:32Z</time>
      </trkpt>
      <trkpt lat="49.466311" lon="6.611783">
        <ele>219.0</ele>
        <time>2020-07-09T10:01:34Z</time>
      </trkpt>
      <trkpt lat="49.466211" lon="6.611725">
        <ele>220.0</ele>
        <time>2020-07-09T10:01:36Z</time>
      </trkpt>
      <trkpt lat="49.466074" lon="6.61166">
        <ele>219.0</ele>
        <time>2020-07-09T10:01:38Z</time>
      </trkpt>
      <trkpt lat="49.465953" lon="6.611643">
        <ele>219.0</ele>
        <time>2020-07-09T10:01:40Z</time>
      </trkpt>
      <trkpt lat="49.465819" lon="6.611834">
        <ele>218.0</ele>
        <time>2020-07-09T10:01:43Z</time>
      </trkpt>
      <trkpt lat="49.465732" lon="6.611944">
        <ele>218.0</ele>
        <time>2020-07-09T10:01:45Z</time>
      </trkpt>
      <trkpt lat="49.465685" lon="6.612001">
        <ele>217.0</ele>
        <time>2020-07-09T10:01:46Z</time>
      </trkpt>
      <trkpt lat="49.465548" lon="6.612144">
        <ele>218.0</ele>
        <time>2020-07-09T10:01:49Z</time>
      </trkpt>
      <trkpt lat="49.465456" lon="6.612241">
        <ele>217.0</ele>
        <time>2020-07-09T10:01:51Z</time>
      </trkpt>
      <trkpt lat="49.465368" lon="6.612339">
        <ele>217.0</ele>
        <time>2020-07-09T10:01:53Z</time>
      </trkpt>
      <trkpt lat="49.465283" lon="6.612436">
        <ele>216.0</ele>
        <time>2020-07-09T10:01:55Z</time>
      </trkpt>
      <trkpt lat="49.465147" lon="6.612581">
        <ele>217.0</ele>
        <time>2020-07-09T10:01:58Z</time>
      </trkpt>
      <trkpt lat="49.465102" lon="6.612631">
        <ele>217.0</ele>
        <time>2020-07-09T10:01:59Z</time>
      </trkpt>
      <trkpt lat="49.46501" lon="6.612727">
        <ele>216.0</ele>
        <time>2020-07-09T10:02:01Z</time>
      </trkpt>
      <trkpt lat="49.464887" lon="6.612885">
        <ele>216.0</ele>
        <time>2020-07-09T10:02:04Z</time>
      </trkpt>
      <trkpt lat="49.464803" lon="6.61298">
        <ele>216.0</ele>
        <time>2020-07-09T10:02:06Z</time>
      </trkpt>
      <trkpt lat="49.464712" lon="6.613056">
        <ele>216.0</ele>
        <time>2020-07-09T10:02:08Z</time>
      </trkpt>
      <trkpt lat="49.464629" lon="6.61314">
        <ele>216.0</ele>
        <time>2020-07-09T10:02:10Z</time>
      </trkpt>
      <trkpt lat="49.464549" lon="6.613235">
        <ele>216.0</ele>
        <time>2020-07-09T10:02:12Z</time>
      </trkpt>
      <trkpt lat="49.464471" lon="6.61332">
        <ele>216.0</ele>
        <time>2020-07-09T10:02:14Z</time>
      </trkpt>
      <trkpt lat="49.464388" lon="6.613402">
        <ele>216.0</ele>
        <time>2020-07-09T10:02:16Z</time>
      </trkpt>
      <trkpt lat="49.464307" lon="6.61348">
        <ele>216.0</ele>
        <time>2020-07-09T10:02:18Z</time>
      </trkpt>
      <trkpt lat="49.46418" lon="6.613586">
        <ele>216.0</ele>
        <time>2020-07-09T10:02:21Z</time>
      </trkpt>
      <trkpt lat="49.464092" lon="6.613662">
        <ele>216.0</ele>
        <time>2020-07-09T10:02:23Z</time>
      </trkpt>
      <trkpt lat="49.464005" lon="6.613744">
        <ele>216.0</ele>
        <time>2020-07-09T10:02:25Z</time>
      </trkpt>
      <trkpt lat="49.463872" lon="6.61386">
        <ele>215.0</ele>
        <time>2020-07-09T10:02:28Z</time>
      </trkpt>
      <trkpt lat="49.46378" lon="6.613921">
        <ele>215.0</ele>
        <time>2020-07-09T10:02:30Z</time>
      </trkpt>
      <trkpt lat="49.463639" lon="6.614028">
        <ele>215.0</ele>
        <time>2020-07-09T10:02:33Z</time>
      </trkpt>
      <trkpt lat="49.463551" lon="6.614093">
        <ele>214.0</ele>
        <time>2020-07-09T10:02:35Z</time>
      </trkpt>
      <trkpt lat="49.463467" lon="6.614171">
        <ele>214.0</ele>
        <time>2020-07-09T10:02:37Z</time>
      </trkpt>
      <trkpt lat="49.463373" lon="6.614237">
        <ele>215.0</ele>
        <time>2020-07-09T10:02:39Z</time>
      </trkpt>
      <trkpt lat="49.463278" lon="6.6143">
        <ele>215.0</ele>
        <time>2020-07-09T10:02:41Z</time>
      </trkpt>
      <trkpt lat="49.463181" lon="6.614353">
        <ele>215.0</ele>
        <time>2020-07-09T10:02:43Z</time>
      </trkpt>
      <trkpt lat="49.463094" lon="6.614408">
        <ele>215.0</ele>
        <time>2020-07-09T10:02:45Z</time>
      </trkpt>
      <trkpt lat="49.463007" lon="6.61447">
        <ele>215.0</ele>
        <time>2020-07-09T10:02:47Z</time>
      </trkpt>
      <trkpt lat="49.462966" lon="6.614502">
        <ele>215.0</ele>
        <time>2020-07-09T10:02:48Z</time>
      </trkpt>
      <trkpt lat="49.462842" lon="6.614585">
        <ele>214.0</ele>
        <time>2020-07-09T10:02:51Z</time>
      </trkpt>
      <trkpt lat="49.462722" lon="6.614687">
        <ele>214.0</ele>
        <time>2020-07-09T10:02:54Z</time>
      </trkpt>
      <trkpt lat="49.462649" lon="6.614753">
        <ele>213.0</ele>
        <time>2020-07-09T10:02:56Z</time>
      </trkpt>
      <trkpt lat="49.462584" lon="6.614807">
        <ele>214.0</ele>
        <time>2020-07-09T10:02:58Z</time>
      </trkpt>
      <trkpt lat="49.462557" lon="6.614828">
        <ele>214.0</ele>
        <time>2020-07-09T10:03:00Z</time>
      </trkpt>
      <trkpt lat="49.46256" lon="6.614837">
        <ele>214.0</ele>
        <time>2020-07-09T10:03:02Z</time>
      </trkpt>
      <trkpt lat="49.462561" lon="6.614839">
        <ele>214.0</ele>
        <time>2020-07-09T10:03:04Z</time>
      </trkpt>
      <trkpt lat="49.462574" lon="6.614837">
        <ele>214.0</ele>
        <time>2020-07-09T10:03:06Z</time>
      </trkpt>
      <trkpt lat="49.462545" lon="6.614783">
        <ele>216.0</ele>
        <time>2020-07-09T10:50:45Z</time>
      </trkpt>
      <trkpt lat="49.462545" lon="6.614783">
        <ele>216.0</ele>
        <time>2020-07-09T10:50:48Z</time>
      </trkpt>
      <trkpt lat="49.462539" lon="6.614797">
        <ele>216.0</ele>
        <time>2020-07-09T10:50:50Z</time>
      </trkpt>
      <trkpt lat="49.462532" lon="6.614796">
        <ele>216.0</ele>
        <time>2020-07-09T10:50:53Z</time>
      </trkpt>
      <trkpt lat="49.462529" lon="6.614809">
        <ele>216.0</ele>
        <time>2020-07-09T10:50:55Z</time>
      </trkpt>
      <trkpt lat="49.462532" lon="6.614807">
        <ele>216.0</ele>
        <time>2020-07-09T10:50:57Z</time>
      </trkpt>
      <trkpt lat="49.462534" lon="6.614833">
        <ele>217.0</ele>
        <time>2020-07-09T10:50:59Z</time>
      </trkpt>
      <trkpt lat="49.462534" lon="6.614833">
        <ele>217.0</ele>
        <time>2020-07-09T10:51:01Z</time>
      </trkpt>
      <trkpt lat="49.462534" lon="6.614833">
        <ele>217.0</ele>
        <time>2020-07-09T10:51:03Z</time>
      </trkpt>
      <trkpt lat="49.462534" lon="6.614833">
        <ele>217.0</ele>
        <time>2020-07-09T10:51:05Z</time>
      </trkpt>
      <trkpt lat="49.462534" lon="6.614833">
        <ele>217.0</ele>
        <time>2020-07-09T10:51:06Z</time>
      </trkpt>
      <trkpt lat="49.462525" lon="6.614841">
        <ele>215.0</ele>
        <time>2020-07-09T10:51:09Z</time>
      </trkpt>
      <trkpt lat="49.462502" lon="6.614846">
        <ele>215.0</ele>
        <time>2020-07-09T10:51:11Z</time>
      </trkpt>
      <trkpt lat="49.462456" lon="6.614866">
        <ele>216.0</ele>
        <time>2020-07-09T10:51:13Z</time>
      </trkpt>
      <trkpt lat="49.462372" lon="6.614929">
        <ele>216.0</ele>
        <time>2020-07-09T10:51:16Z</time>
      </trkpt>
      <trkpt lat="49.462302" lon="6.614964">
        <ele>216.0</ele>
        <time>2020-07-09T10:51:18Z</time>
      </trkpt>
      <trkpt lat="49.462233" lon="6.615017">
        <ele>217.0</ele>
        <time>2020-07-09T10:51:20Z</time>
      </trkpt>
      <trkpt lat="49.462152" lon="6.615077">
        <ele>218.0</ele>
        <time>2020-07-09T10:51:22Z</time>
      </trkpt>
      <trkpt lat="49.462059" lon="6.615136">
        <ele>220.0</ele>
        <time>2020-07-09T10:51:24Z</time>
      </trkpt>
      <trkpt lat="49.461973" lon="6.615188">
        <ele>220.0</ele>
        <time>2020-07-09T10:51:26Z</time>
      </trkpt>
      <trkpt lat="49.461892" lon="6.61525">
        <ele>219.0</ele>
        <time>2020-07-09T10:51:28Z</time>
      </trkpt>
      <trkpt lat="49.461771" lon="6.615343">
        <ele>218.0</ele>
        <time>2020-07-09T10:51:31Z</time>
      </trkpt>
      <trkpt lat="49.46173" lon="6.615376">
        <ele>218.0</ele>
        <time>2020-07-09T10:51:32Z</time>
      </trkpt>
      <trkpt lat="49.461643" lon="6.615443">
        <ele>219.0</ele>
        <time>2020-07-09T10:51:34Z</time>
      </trkpt>
      <trkpt lat="49.461514" lon="6.615537">
        <ele>219.0</ele>
        <time>2020-07-09T10:51:37Z</time>
      </trkpt>
      <trkpt lat="49.461428" lon="6.615599">
        <ele>218.0</ele>
        <time>2020-07-09T10:51:39Z</time>
      </trkpt>
      <trkpt lat="49.461338" lon="6.615656">
        <ele>218.0</ele>
        <time>2020-07-09T10:51:41Z</time>
      </trkpt>
      <trkpt lat="49.461209" lon="6.615753">
        <ele>218.0</ele>
        <time>2020-07-09T10:51:44Z</time>
      </trkpt>
      <trkpt lat="49.461164" lon="6.615786">
        <ele>218.0</ele>
        <time>2020-07-09T10:51:45Z</time>
      </trkpt>
      <trkpt lat="49.461028" lon="6.61588">
        <ele>218.0</ele>
        <time>2020-07-09T10:51:48Z</time>
      </trkpt>
      <trkpt lat="49.460937" lon="6.615948">
        <ele>217.0</ele>
        <time>2020-07-09T10:51:50Z</time>
      </trkpt>
      <trkpt lat="49.460851" lon="6.616017">
        <ele>218.0</ele>
        <time>2020-07-09T10:51:52Z</time>
      </trkpt>
      <trkpt lat="49.460719" lon="6.616117">
        <ele>218.0</ele>
        <time>2020-07-09T10:51:55Z</time>
      </trkpt>
      <trkpt lat="49.460675" lon="6.616146">
        <ele>218.0</ele>
        <time>2020-07-09T10:51:56Z</time>
      </trkpt>
      <trkpt lat="49.460587" lon="6.616211">
        <ele>218.0</ele>
        <time>2020-07-09T10:51:58Z</time>
      </trkpt>
      <trkpt lat="49.460498" lon="6.616267">
        <ele>218.0</ele>
        <time>2020-07-09T10:52:00Z</time>
      </trkpt>
      <trkpt lat="49.460408" lon="6.616315">
        <ele>218.0</ele>
        <time>2020-07-09T10:52:02Z</time>
      </trkpt>
      <trkpt lat="49.460275" lon="6.616413">
        <ele>217.0</ele>
        <time>2020-07-09T10:52:05Z</time>
      </trkpt>
      <trkpt lat="49.460182" lon="6.616475">
        <ele>216.0</ele>
        <time>2020-07-09T10:52:07Z</time>
      </trkpt>
      <trkpt lat="49.460086" lon="6.616538">
        <ele>216.0</ele>
        <time>2020-07-09T10:52:09Z</time>
      </trkpt>
      <trkpt lat="49.459937" lon="6.616636">
        <ele>215.0</ele>
        <time>2020-07-09T10:52:12Z</time>
      </trkpt>
      <trkpt lat="49.459846" lon="6.616702">
        <ele>214.0</ele>
        <time>2020-07-09T10:52:14Z</time>
      </trkpt>
      <trkpt lat="49.459756" lon="6.616763">
        <ele>214.0</ele>
        <time>2020-07-09T10:52:16Z</time>
      </trkpt>
      <trkpt lat="49.459665" lon="6.616832">
        <ele>213.0</ele>
        <time>2020-07-09T10:52:18Z</time>
      </trkpt>
      <trkpt lat="49.459515" lon="6.616942">
        <ele>213.0</ele>
        <time>2020-07-09T10:52:21Z</time>
      </trkpt>
      <trkpt lat="49.459421" lon="6.61703">
        <ele>214.0</ele>
        <time>2020-07-09T10:52:23Z</time>
      </trkpt>
      <trkpt lat="49.459373" lon="6.617076">
        <ele>214.0</ele>
        <time>2020-07-09T10:52:24Z</time>
      </trkpt>
      <trkpt lat="49.459238" lon="6.617216">
        <ele>215.0</ele>
        <time>2020-07-09T10:52:27Z</time>
      </trkpt>
      <trkpt lat="49.459153" lon="6.617313">
        <ele>214.0</ele>
        <time>2020-07-09T10:52:29Z</time>
      </trkpt>
      <trkpt lat="49.459074" lon="6.617423">
        <ele>214.0</ele>
        <time>2020-07-09T10:52:31Z</time>
      </trkpt>
      <trkpt lat="49.458992" lon="6.617541">
        <ele>215.0</ele>
        <time>2020-07-09T10:52:33Z</time>
      </trkpt>
      <trkpt lat="49.458915" lon="6.617663">
        <ele>216.0</ele>
        <time>2020-07-09T10:52:35Z</time>
      </trkpt>
      <trkpt lat="49.45884" lon="6.61778">
        <ele>216.0</ele>
        <time>2020-07-09T10:52:37Z</time>
      </trkpt>
      <trkpt lat="49.458719" lon="6.617957">
        <ele>216.0</ele>
        <time>2020-07-09T10:52:40Z</time>
      </trkpt>
      <trkpt lat="49.458636" lon="6.618064">
        <ele>217.0</ele>
        <time>2020-07-09T10:52:42Z</time>
      </trkpt>
      <trkpt lat="49.458555" lon="6.618174">
        <ele>217.0</ele>
        <time>2020-07-09T10:52:44Z</time>
      </trkpt>
      <trkpt lat="49.458512" lon="6.618227">
        <ele>218.0</ele>
        <time>2020-07-09T10:52:45Z</time>
      </trkpt>
      <trkpt lat="49.458394" lon="6.618403">
        <ele>217.0</ele>
        <time>2020-07-09T10:52:48Z</time>
      </trkpt>
      <trkpt lat="49.45831" lon="6.618519">
        <ele>217.0</ele>
        <time>2020-07-09T10:52:50Z</time>
      </trkpt>
      <trkpt lat="49.458235" lon="6.618637">
        <ele>217.0</ele>
        <time>2020-07-09T10:52:52Z</time>
      </trkpt>
      <trkpt lat="49.458118" lon="6.618807">
        <ele>216.0</ele>
        <time>2020-07-09T10:52:55Z</time>
      </trkpt>
      <trkpt lat="49.458038" lon="6.618912">
        <ele>217.0</ele>
        <time>2020-07-09T10:52:57Z</time>
      </trkpt>
      <trkpt lat="49.457964" lon="6.619032">
        <ele>217.0</ele>
        <time>2020-07-09T10:52:59Z</time>
      </trkpt>
      <trkpt lat="49.457852" lon="6.619222">
        <ele>217.0</ele>
        <time>2020-07-09T10:53:02Z</time>
      </trkpt>
      <trkpt lat="49.457811" lon="6.619285">
        <ele>217.0</ele>
        <time>2020-07-09T10:53:03Z</time>
      </trkpt>
      <trkpt lat="49.457668" lon="6.619537">
        <ele>217.0</ele>
        <time>2020-07-09T10:53:07Z</time>
      </trkpt>
      <trkpt lat="49.457638" lon="6.619604">
        <ele>216.0</ele>
        <time>2020-07-09T10:53:08Z</time>
      </trkpt>
      <trkpt lat="49.457516" lon="6.619869">
        <ele>215.0</ele>
        <time>2020-07-09T10:53:12Z</time>
      </trkpt>
      <trkpt lat="49.457454" lon="6.620005">
        <ele>216.0</ele>
        <time>2020-07-09T10:53:14Z</time>
      </trkpt>
      <trkpt lat="49.457425" lon="6.620074">
        <ele>216.0</ele>
        <time>2020-07-09T10:53:15Z</time>
      </trkpt>
      <trkpt lat="49.457347" lon="6.620288">
        <ele>216.0</ele>
        <time>2020-07-09T10:53:18Z</time>
      </trkpt>
      <trkpt lat="49.457295" lon="6.620429">
        <ele>216.0</ele>
        <time>2020-07-09T10:53:20Z</time>
      </trkpt>
      <trkpt lat="49.457236" lon="6.620573">
        <ele>216.0</ele>
        <time>2020-07-09T10:53:22Z</time>
      </trkpt>
      <trkpt lat="49.457181" lon="6.62071">
        <ele>217.0</ele>
        <time>2020-07-09T10:53:24Z</time>
      </trkpt>
      <trkpt lat="49.457094" lon="6.620919">
        <ele>217.0</ele>
        <time>2020-07-09T10:53:27Z</time>
      </trkpt>
      <trkpt lat="49.457043" lon="6.621062">
        <ele>217.0</ele>
        <time>2020-07-09T10:53:29Z</time>
      </trkpt>
      <trkpt lat="49.456985" lon="6.621206">
        <ele>217.0</ele>
        <time>2020-07-09T10:53:31Z</time>
      </trkpt>
      <trkpt lat="49.456922" lon="6.621339">
        <ele>217.0</ele>
        <time>2020-07-09T10:53:33Z</time>
      </trkpt>
      <trkpt lat="49.456859" lon="6.621473">
        <ele>217.0</ele>
        <time>2020-07-09T10:53:35Z</time>
      </trkpt>
      <trkpt lat="49.456795" lon="6.621612">
        <ele>217.0</ele>
        <time>2020-07-09T10:53:37Z</time>
      </trkpt>
      <trkpt lat="49.456734" lon="6.62174">
        <ele>217.0</ele>
        <time>2020-07-09T10:53:39Z</time>
      </trkpt>
      <trkpt lat="49.456644" lon="6.621941">
        <ele>216.0</ele>
        <time>2020-07-09T10:53:42Z</time>
      </trkpt>
      <trkpt lat="49.456589" lon="6.622074">
        <ele>216.0</ele>
        <time>2020-07-09T10:53:44Z</time>
      </trkpt>
      <trkpt lat="49.456532" lon="6.622206">
        <ele>216.0</ele>
        <time>2020-07-09T10:53:46Z</time>
      </trkpt>
      <trkpt lat="49.456482" lon="6.622341">
        <ele>217.0</ele>
        <time>2020-07-09T10:53:48Z</time>
      </trkpt>
      <trkpt lat="49.45644" lon="6.622472">
        <ele>217.0</ele>
        <time>2020-07-09T10:53:50Z</time>
      </trkpt>
      <trkpt lat="49.45641" lon="6.622598">
        <ele>217.0</ele>
        <time>2020-07-09T10:53:52Z</time>
      </trkpt>
      <trkpt lat="49.456359" lon="6.622789">
        <ele>217.0</ele>
        <time>2020-07-09T10:53:55Z</time>
      </trkpt>
      <trkpt lat="49.456289" lon="6.622977">
        <ele>217.0</ele>
        <time>2020-07-09T10:53:58Z</time>
      </trkpt>
      <trkpt lat="49.456242" lon="6.623112">
        <ele>216.0</ele>
        <time>2020-07-09T10:54:00Z</time>
      </trkpt>
      <trkpt lat="49.456224" lon="6.623189">
        <ele>216.0</ele>
        <time>2020-07-09T10:54:01Z</time>
      </trkpt>
      <trkpt lat="49.456162" lon="6.62341">
        <ele>217.0</ele>
        <time>2020-07-09T10:54:04Z</time>
      </trkpt>
      <trkpt lat="49.456126" lon="6.623554">
        <ele>217.0</ele>
        <time>2020-07-09T10:54:06Z</time>
      </trkpt>
      <trkpt lat="49.456087" lon="6.623702">
        <ele>216.0</ele>
        <time>2020-07-09T10:54:08Z</time>
      </trkpt>
      <trkpt lat="49.456023" lon="6.623919">
        <ele>217.0</ele>
        <time>2020-07-09T10:54:11Z</time>
      </trkpt>
      <trkpt lat="49.455986" lon="6.624072">
        <ele>216.0</ele>
        <time>2020-07-09T10:54:13Z</time>
      </trkpt>
      <trkpt lat="49.455946" lon="6.624223">
        <ele>217.0</ele>
        <time>2020-07-09T10:54:15Z</time>
      </trkpt>
      <trkpt lat="49.455911" lon="6.624371">
        <ele>218.0</ele>
        <time>2020-07-09T10:54:17Z</time>
      </trkpt>
      <trkpt lat="49.455873" lon="6.624516">
        <ele>218.0</ele>
        <time>2020-07-09T10:54:19Z</time>
      </trkpt>
      <trkpt lat="49.455832" lon="6.624664">
        <ele>218.0</ele>
        <time>2020-07-09T10:54:21Z</time>
      </trkpt>
      <trkpt lat="49.455767" lon="6.624889">
        <ele>218.0</ele>
        <time>2020-07-09T10:54:24Z</time>
      </trkpt>
      <trkpt lat="49.455725" lon="6.625038">
        <ele>217.0</ele>
        <time>2020-07-09T10:54:26Z</time>
      </trkpt>
      <trkpt lat="49.455701" lon="6.625113">
        <ele>217.0</ele>
        <time>2020-07-09T10:54:27Z</time>
      </trkpt>
      <trkpt lat="49.455648" lon="6.625255">
        <ele>216.0</ele>
        <time>2020-07-09T10:54:29Z</time>
      </trkpt>
      <trkpt lat="49.455597" lon="6.625398">
        <ele>216.0</ele>
        <time>2020-07-09T10:54:31Z</time>
      </trkpt>
      <trkpt lat="49.455512" lon="6.625608">
        <ele>215.0</ele>
        <time>2020-07-09T10:54:34Z</time>
      </trkpt>
      <trkpt lat="49.455454" lon="6.625746">
        <ele>215.0</ele>
        <time>2020-07-09T10:54:36Z</time>
      </trkpt>
      <trkpt lat="49.455385" lon="6.625881">
        <ele>215.0</ele>
        <time>2020-07-09T10:54:38Z</time>
      </trkpt>
      <trkpt lat="49.455318" lon="6.626013">
        <ele>215.0</ele>
        <time>2020-07-09T10:54:40Z</time>
      </trkpt>
      <trkpt lat="49.455252" lon="6.62615">
        <ele>215.0</ele>
        <time>2020-07-09T10:54:42Z</time>
      </trkpt>
      <trkpt lat="49.455189" lon="6.626286">
        <ele>215.0</ele>
        <time>2020-07-09T10:54:44Z</time>
      </trkpt>
      <trkpt lat="49.455128" lon="6.626409">
        <ele>215.0</ele>
        <time>2020-07-09T10:54:46Z</time>
      </trkpt>
      <trkpt lat="49.455096" lon="6.626471">
        <ele>216.0</ele>
        <time>2020-07-09T10:54:47Z</time>
      </trkpt>
      <trkpt lat="49.455002" lon="6.626654">
        <ele>216.0</ele>
        <time>2020-07-09T10:54:50Z</time>
      </trkpt>
      <trkpt lat="49.454938" lon="6.626782">
        <ele>216.0</ele>
        <time>2020-07-09T10:54:52Z</time>
      </trkpt>
      <trkpt lat="49.454874" lon="6.626905">
        <ele>216.0</ele>
        <time>2020-07-09T10:54:54Z</time>
      </trkpt>
      <trkpt lat="49.454806" lon="6.627022">
        <ele>215.0</ele>
        <time>2020-07-09T10:54:56Z</time>
      </trkpt>
      <trkpt lat="49.454703" lon="6.627203">
        <ele>215.0</ele>
        <time>2020-07-09T10:54:59Z</time>
      </trkpt>
      <trkpt lat="49.45463" lon="6.627323">
        <ele>215.0</ele>
        <time>2020-07-09T10:55:01Z</time>
      </trkpt>
      <trkpt lat="49.454524" lon="6.627502">
        <ele>215.0</ele>
        <time>2020-07-09T10:55:04Z</time>
      </trkpt>
      <trkpt lat="49.454451" lon="6.627614">
        <ele>215.0</ele>
        <time>2020-07-09T10:55:06Z</time>
      </trkpt>
      <trkpt lat="49.454341" lon="6.627804">
        <ele>215.0</ele>
        <time>2020-07-09T10:55:09Z</time>
      </trkpt>
      <trkpt lat="49.454267" lon="6.627933">
        <ele>215.0</ele>
        <time>2020-07-09T10:55:11Z</time>
      </trkpt>
      <trkpt lat="49.454192" lon="6.628049">
        <ele>215.0</ele>
        <time>2020-07-09T10:55:13Z</time>
      </trkpt>
      <trkpt lat="49.454085" lon="6.628221">
        <ele>214.0</ele>
        <time>2020-07-09T10:55:16Z</time>
      </trkpt>
      <trkpt lat="49.454012" lon="6.62834">
        <ele>214.0</ele>
        <time>2020-07-09T10:55:18Z</time>
      </trkpt>
      <trkpt lat="49.453937" lon="6.628459">
        <ele>215.0</ele>
        <time>2020-07-09T10:55:20Z</time>
      </trkpt>
      <trkpt lat="49.453858" lon="6.628574">
        <ele>215.0</ele>
        <time>2020-07-09T10:55:22Z</time>
      </trkpt>
      <trkpt lat="49.453778" lon="6.628671">
        <ele>215.0</ele>
        <time>2020-07-09T10:55:24Z</time>
      </trkpt>
      <trkpt lat="49.453735" lon="6.628717">
        <ele>215.0</ele>
        <time>2020-07-09T10:55:25Z</time>
      </trkpt>
      <trkpt lat="49.453604" lon="6.628844">
        <ele>216.0</ele>
        <time>2020-07-09T10:55:28Z</time>
      </trkpt>
      <trkpt lat="49.453512" lon="6.628923">
        <ele>216.0</ele>
        <time>2020-07-09T10:55:30Z</time>
      </trkpt>
      <trkpt lat="49.453417" lon="6.628994">
        <ele>216.0</ele>
        <time>2020-07-09T10:55:32Z</time>
      </trkpt>
      <trkpt lat="49.453322" lon="6.629056">
        <ele>215.0</ele>
        <time>2020-07-09T10:55:34Z</time>
      </trkpt>
      <trkpt lat="49.453175" lon="6.62916">
        <ele>216.0</ele>
        <time>2020-07-09T10:55:37Z</time>
      </trkpt>
      <trkpt lat="49.453082" lon="6.629239">
        <ele>216.0</ele>
        <time>2020-07-09T10:55:39Z</time>
      </trkpt>
      <trkpt lat="49.452995" lon="6.629326">
        <ele>216.0</ele>
        <time>2020-07-09T10:55:41Z</time>
      </trkpt>
      <trkpt lat="49.452904" lon="6.629417">
        <ele>216.0</ele>
        <time>2020-07-09T10:55:43Z</time>
      </trkpt>
      <trkpt lat="49.452819" lon="6.629515">
        <ele>216.0</ele>
        <time>2020-07-09T10:55:45Z</time>
      </trkpt>
      <trkpt lat="49.452731" lon="6.62961">
        <ele>217.0</ele>
        <time>2020-07-09T10:55:47Z</time>
      </trkpt>
      <trkpt lat="49.452601" lon="6.629742">
        <ele>217.0</ele>
        <time>2020-07-09T10:55:50Z</time>
      </trkpt>
      <trkpt lat="49.452511" lon="6.629829">
        <ele>217.0</ele>
        <time>2020-07-09T10:55:52Z</time>
      </trkpt>
      <trkpt lat="49.45243" lon="6.629918">
        <ele>217.0</ele>
        <time>2020-07-09T10:55:54Z</time>
      </trkpt>
      <trkpt lat="49.452318" lon="6.630059">
        <ele>216.0</ele>
        <time>2020-07-09T10:55:57Z</time>
      </trkpt>
      <trkpt lat="49.45224" lon="6.630165">
        <ele>216.0</ele>
        <time>2020-07-09T10:55:59Z</time>
      </trkpt>
      <trkpt lat="49.452158" lon="6.630288">
        <ele>216.0</ele>
        <time>2020-07-09T10:56:01Z</time>
      </trkpt>
      <trkpt lat="49.45208" lon="6.630401">
        <ele>216.0</ele>
        <time>2020-07-09T10:56:03Z</time>
      </trkpt>
      <trkpt lat="49.45196" lon="6.630558">
        <ele>215.0</ele>
        <time>2020-07-09T10:56:06Z</time>
      </trkpt>
      <trkpt lat="49.451873" lon="6.630642">
        <ele>216.0</ele>
        <time>2020-07-09T10:56:08Z</time>
      </trkpt>
      <trkpt lat="49.451786" lon="6.630731">
        <ele>216.0</ele>
        <time>2020-07-09T10:56:10Z</time>
      </trkpt>
      <trkpt lat="49.451697" lon="6.630814">
        <ele>217.0</ele>
        <time>2020-07-09T10:56:12Z</time>
      </trkpt>
      <trkpt lat="49.451596" lon="6.630885">
        <ele>217.0</ele>
        <time>2020-07-09T10:56:14Z</time>
      </trkpt>
      <trkpt lat="49.451491" lon="6.630936">
        <ele>218.0</ele>
        <time>2020-07-09T10:56:16Z</time>
      </trkpt>
      <trkpt lat="49.451384" lon="6.630982">
        <ele>217.0</ele>
        <time>2020-07-09T10:56:18Z</time>
      </trkpt>
      <trkpt lat="49.451331" lon="6.631001">
        <ele>217.0</ele>
        <time>2020-07-09T10:56:19Z</time>
      </trkpt>
      <trkpt lat="49.451177" lon="6.631066">
        <ele>217.0</ele>
        <time>2020-07-09T10:56:22Z</time>
      </trkpt>
      <trkpt lat="49.451076" lon="6.631125">
        <ele>217.0</ele>
        <time>2020-07-09T10:56:24Z</time>
      </trkpt>
      <trkpt lat="49.450988" lon="6.631198">
        <ele>216.0</ele>
        <time>2020-07-09T10:56:26Z</time>
      </trkpt>
      <trkpt lat="49.450842" lon="6.631311">
        <ele>216.0</ele>
        <time>2020-07-09T10:56:29Z</time>
      </trkpt>
      <trkpt lat="49.450751" lon="6.631378">
        <ele>216.0</ele>
        <time>2020-07-09T10:56:31Z</time>
      </trkpt>
      <trkpt lat="49.450617" lon="6.631468">
        <ele>216.0</ele>
        <time>2020-07-09T10:56:34Z</time>
      </trkpt>
      <trkpt lat="49.450566" lon="6.631502">
        <ele>216.0</ele>
        <time>2020-07-09T10:56:35Z</time>
      </trkpt>
      <trkpt lat="49.45042" lon="6.631606">
        <ele>216.0</ele>
        <time>2020-07-09T10:56:38Z</time>
      </trkpt>
      <trkpt lat="49.450324" lon="6.631675">
        <ele>216.0</ele>
        <time>2020-07-09T10:56:40Z</time>
      </trkpt>
      <trkpt lat="49.450185" lon="6.631782">
        <ele>216.0</ele>
        <time>2020-07-09T10:56:43Z</time>
      </trkpt>
      <trkpt lat="49.450092" lon="6.631854">
        <ele>215.0</ele>
        <time>2020-07-09T10:56:45Z</time>
      </trkpt>
      <trkpt lat="49.450007" lon="6.631932">
        <ele>215.0</ele>
        <time>2020-07-09T10:56:47Z</time>
      </trkpt>
      <trkpt lat="49.44991" lon="6.632011">
        <ele>215.0</ele>
        <time>2020-07-09T10:56:49Z</time>
      </trkpt>
      <trkpt lat="49.449822" lon="6.632088">
        <ele>216.0</ele>
        <time>2020-07-09T10:56:51Z</time>
      </trkpt>
      <trkpt lat="49.44969" lon="6.632191">
        <ele>216.0</ele>
        <time>2020-07-09T10:56:54Z</time>
      </trkpt>
      <trkpt lat="49.449593" lon="6.632242">
        <ele>216.0</ele>
        <time>2020-07-09T10:56:56Z</time>
      </trkpt>
      <trkpt lat="49.449499" lon="6.63229">
        <ele>216.0</ele>
        <time>2020-07-09T10:56:58Z</time>
      </trkpt>
      <trkpt lat="49.449407" lon="6.632339">
        <ele>217.0</ele>
        <time>2020-07-09T10:57:00Z</time>
      </trkpt>
      <trkpt lat="49.449306" lon="6.632386">
        <ele>216.0</ele>
        <time>2020-07-09T10:57:02Z</time>
      </trkpt>
      <trkpt lat="49.449212" lon="6.632407">
        <ele>215.0</ele>
        <time>2020-07-09T10:57:04Z</time>
      </trkpt>
      <trkpt lat="49.44911" lon="6.6324">
        <ele>215.0</ele>
        <time>2020-07-09T10:57:06Z</time>
      </trkpt>
      <trkpt lat="49.449057" lon="6.632395">
        <ele>215.0</ele>
        <time>2020-07-09T10:57:07Z</time>
      </trkpt>
      <trkpt lat="49.44887" lon="6.632411">
        <ele>216.0</ele>
        <time>2020-07-09T10:57:11Z</time>
      </trkpt>
      <trkpt lat="49.44877" lon="6.632434">
        <ele>217.0</ele>
        <time>2020-07-09T10:57:13Z</time>
      </trkpt>
      <trkpt lat="49.448671" lon="6.632469">
        <ele>217.0</ele>
        <time>2020-07-09T10:57:15Z</time>
      </trkpt>
      <trkpt lat="49.448573" lon="6.632498">
        <ele>217.0</ele>
        <time>2020-07-09T10:57:17Z</time>
      </trkpt>
      <trkpt lat="49.448485" lon="6.632514">
        <ele>217.0</ele>
        <time>2020-07-09T10:57:19Z</time>
      </trkpt>
      <trkpt lat="49.448401" lon="6.63253">
        <ele>218.0</ele>
        <time>2020-07-09T10:57:21Z</time>
      </trkpt>
      <trkpt lat="49.448315" lon="6.632559">
        <ele>217.0</ele>
        <time>2020-07-09T10:57:23Z</time>
      </trkpt>
      <trkpt lat="49.448229" lon="6.632591">
        <ele>217.0</ele>
        <time>2020-07-09T10:57:25Z</time>
      </trkpt>
      <trkpt lat="49.448135" lon="6.632617">
        <ele>217.0</ele>
        <time>2020-07-09T10:57:27Z</time>
      </trkpt>
      <trkpt lat="49.448041" lon="6.63264">
        <ele>217.0</ele>
        <time>2020-07-09T10:57:29Z</time>
      </trkpt>
      <trkpt lat="49.447859" lon="6.632689">
        <ele>217.0</ele>
        <time>2020-07-09T10:57:33Z</time>
      </trkpt>
      <trkpt lat="49.447771" lon="6.632715">
        <ele>217.0</ele>
        <time>2020-07-09T10:57:35Z</time>
      </trkpt>
      <trkpt lat="49.447682" lon="6.632739">
        <ele>217.0</ele>
        <time>2020-07-09T10:57:37Z</time>
      </trkpt>
      <trkpt lat="49.447591" lon="6.632763">
        <ele>217.0</ele>
        <time>2020-07-09T10:57:39Z</time>
      </trkpt>
      <trkpt lat="49.447494" lon="6.632789">
        <ele>217.0</ele>
        <time>2020-07-09T10:57:41Z</time>
      </trkpt>
      <trkpt lat="49.447401" lon="6.632815">
        <ele>216.0</ele>
        <time>2020-07-09T10:57:43Z</time>
      </trkpt>
      <trkpt lat="49.447313" lon="6.632831">
        <ele>216.0</ele>
        <time>2020-07-09T10:57:45Z</time>
      </trkpt>
      <trkpt lat="49.447182" lon="6.632866">
        <ele>217.0</ele>
        <time>2020-07-09T10:57:48Z</time>
      </trkpt>
      <trkpt lat="49.447092" lon="6.632893">
        <ele>216.0</ele>
        <time>2020-07-09T10:57:50Z</time>
      </trkpt>
      <trkpt lat="49.446999" lon="6.632913">
        <ele>217.0</ele>
        <time>2020-07-09T10:57:52Z</time>
      </trkpt>
      <trkpt lat="49.44691" lon="6.632897">
        <ele>216.0</ele>
        <time>2020-07-09T10:57:54Z</time>
      </trkpt>
      <trkpt lat="49.446819" lon="6.632877">
        <ele>216.0</ele>
        <time>2020-07-09T10:57:56Z</time>
      </trkpt>
      <trkpt lat="49.446731" lon="6.632865">
        <ele>217.0</ele>
        <time>2020-07-09T10:57:58Z</time>
      </trkpt>
      <trkpt lat="49.446644" lon="6.632856">
        <ele>218.0</ele>
        <time>2020-07-09T10:58:00Z</time>
      </trkpt>
      <trkpt lat="49.446556" lon="6.632836">
        <ele>218.0</ele>
        <time>2020-07-09T10:58:02Z</time>
      </trkpt>
      <trkpt lat="49.44646" lon="6.632815">
        <ele>218.0</ele>
        <time>2020-07-09T10:58:04Z</time>
      </trkpt>
      <trkpt lat="49.44637" lon="6.632787">
        <ele>218.0</ele>
        <time>2020-07-09T10:58:06Z</time>
      </trkpt>
      <trkpt lat="49.446234" lon="6.632756">
        <ele>217.0</ele>
        <time>2020-07-09T10:58:09Z</time>
      </trkpt>
      <trkpt lat="49.446146" lon="6.632731">
        <ele>217.0</ele>
        <time>2020-07-09T10:58:11Z</time>
      </trkpt>
      <trkpt lat="49.446056" lon="6.632715">
        <ele>217.0</ele>
        <time>2020-07-09T10:58:13Z</time>
      </trkpt>
      <trkpt lat="49.445918" lon="6.632691">
        <ele>217.0</ele>
        <time>2020-07-09T10:58:16Z</time>
      </trkpt>
      <trkpt lat="49.44582" lon="6.632669">
        <ele>217.0</ele>
        <time>2020-07-09T10:58:18Z</time>
      </trkpt>
      <trkpt lat="49.445726" lon="6.632646">
        <ele>217.0</ele>
        <time>2020-07-09T10:58:20Z</time>
      </trkpt>
      <trkpt lat="49.445587" lon="6.632621">
        <ele>217.0</ele>
        <time>2020-07-09T10:58:23Z</time>
      </trkpt>
      <trkpt lat="49.445494" lon="6.632603">
        <ele>217.0</ele>
        <time>2020-07-09T10:58:25Z</time>
      </trkpt>
      <trkpt lat="49.445399" lon="6.632589">
        <ele>216.0</ele>
        <time>2020-07-09T10:58:27Z</time>
      </trkpt>
      <trkpt lat="49.445303" lon="6.632581">
        <ele>216.0</ele>
        <time>2020-07-09T10:58:29Z</time>
      </trkpt>
      <trkpt lat="49.445208" lon="6.632564">
        <ele>216.0</ele>
        <time>2020-07-09T10:58:31Z</time>
      </trkpt>
      <trkpt lat="49.445111" lon="6.632549">
        <ele>216.0</ele>
        <time>2020-07-09T10:58:33Z</time>
      </trkpt>
      <trkpt lat="49.445022" lon="6.632561">
        <ele>217.0</ele>
        <time>2020-07-09T10:58:35Z</time>
      </trkpt>
      <trkpt lat="49.44493" lon="6.632585">
        <ele>217.0</ele>
        <time>2020-07-09T10:58:37Z</time>
      </trkpt>
      <trkpt lat="49.444841" lon="6.632595">
        <ele>218.0</ele>
        <time>2020-07-09T10:58:39Z</time>
      </trkpt>
      <trkpt lat="49.444752" lon="6.632597">
        <ele>218.0</ele>
        <time>2020-07-09T10:58:41Z</time>
      </trkpt>
      <trkpt lat="49.444624" lon="6.632577">
        <ele>217.0</ele>
        <time>2020-07-09T10:58:44Z</time>
      </trkpt>
      <trkpt lat="49.444538" lon="6.632534">
        <ele>217.0</ele>
        <time>2020-07-09T10:58:46Z</time>
      </trkpt>
      <trkpt lat="49.444446" lon="6.632484">
        <ele>217.0</ele>
        <time>2020-07-09T10:58:48Z</time>
      </trkpt>
      <trkpt lat="49.444402" lon="6.632466">
        <ele>217.0</ele>
        <time>2020-07-09T10:58:49Z</time>
      </trkpt>
      <trkpt lat="49.444273" lon="6.632404">
        <ele>218.0</ele>
        <time>2020-07-09T10:58:52Z</time>
      </trkpt>
      <trkpt lat="49.444189" lon="6.632362">
        <ele>218.0</ele>
        <time>2020-07-09T10:58:54Z</time>
      </trkpt>
      <trkpt lat="49.444102" lon="6.632307">
        <ele>219.0</ele>
        <time>2020-07-09T10:58:56Z</time>
      </trkpt>
      <trkpt lat="49.444015" lon="6.632263">
        <ele>219.0</ele>
        <time>2020-07-09T10:58:58Z</time>
      </trkpt>
      <trkpt lat="49.44389" lon="6.632202">
        <ele>219.0</ele>
        <time>2020-07-09T10:59:01Z</time>
      </trkpt>
      <trkpt lat="49.443814" lon="6.632162">
        <ele>219.0</ele>
        <time>2020-07-09T10:59:03Z</time>
      </trkpt>
      <trkpt lat="49.443731" lon="6.632127">
        <ele>218.0</ele>
        <time>2020-07-09T10:59:05Z</time>
      </trkpt>
      <trkpt lat="49.443643" lon="6.63209">
        <ele>218.0</ele>
        <time>2020-07-09T10:59:07Z</time>
      </trkpt>
      <trkpt lat="49.44356" lon="6.632056">
        <ele>218.0</ele>
        <time>2020-07-09T10:59:09Z</time>
      </trkpt>
      <trkpt lat="49.44348" lon="6.632019">
        <ele>217.0</ele>
        <time>2020-07-09T10:59:11Z</time>
      </trkpt>
      <trkpt lat="49.443358" lon="6.63197">
        <ele>217.0</ele>
        <time>2020-07-09T10:59:14Z</time>
      </trkpt>
      <trkpt lat="49.443276" lon="6.63194">
        <ele>216.0</ele>
        <time>2020-07-09T10:59:16Z</time>
      </trkpt>
      <trkpt lat="49.443193" lon="6.631909">
        <ele>217.0</ele>
        <time>2020-07-09T10:59:18Z</time>
      </trkpt>
      <trkpt lat="49.44315" lon="6.631891">
        <ele>217.0</ele>
        <time>2020-07-09T10:59:19Z</time>
      </trkpt>
      <trkpt lat="49.443017" lon="6.63184">
        <ele>218.0</ele>
        <time>2020-07-09T10:59:22Z</time>
      </trkpt>
      <trkpt lat="49.442933" lon="6.631801">
        <ele>217.0</ele>
        <time>2020-07-09T10:59:24Z</time>
      </trkpt>
      <trkpt lat="49.442847" lon="6.631756">
        <ele>217.0</ele>
        <time>2020-07-09T10:59:26Z</time>
      </trkpt>
      <trkpt lat="49.442721" lon="6.631674">
        <ele>218.0</ele>
        <time>2020-07-09T10:59:29Z</time>
      </trkpt>
      <trkpt lat="49.442645" lon="6.631629">
        <ele>217.0</ele>
        <time>2020-07-09T10:59:31Z</time>
      </trkpt>
      <trkpt lat="49.442566" lon="6.631577">
        <ele>217.0</ele>
        <time>2020-07-09T10:59:33Z</time>
      </trkpt>
      <trkpt lat="49.442489" lon="6.631522">
        <ele>217.0</ele>
        <time>2020-07-09T10:59:35Z</time>
      </trkpt>
      <trkpt lat="49.442447" lon="6.631493">
        <ele>217.0</ele>
        <time>2020-07-09T10:59:36Z</time>
      </trkpt>
      <trkpt lat="49.442325" lon="6.631414">
        <ele>217.0</ele>
        <time>2020-07-09T10:59:39Z</time>
      </trkpt>
      <trkpt lat="49.442203" lon="6.631342">
        <ele>218.0</ele>
        <time>2020-07-09T10:59:42Z</time>
      </trkpt>
      <trkpt lat="49.442125" lon="6.631287">
        <ele>218.0</ele>
        <time>2020-07-09T10:59:44Z</time>
      </trkpt>
      <trkpt lat="49.442047" lon="6.63125">
        <ele>218.0</ele>
        <time>2020-07-09T10:59:46Z</time>
      </trkpt>
      <trkpt lat="49.441933" lon="6.631184">
        <ele>218.0</ele>
        <time>2020-07-09T10:59:49Z</time>
      </trkpt>
      <trkpt lat="49.441853" lon="6.631124">
        <ele>219.0</ele>
        <time>2020-07-09T10:59:51Z</time>
      </trkpt>
      <trkpt lat="49.44177" lon="6.631063">
        <ele>219.0</ele>
        <time>2020-07-09T10:59:53Z</time>
      </trkpt>
      <trkpt lat="49.441652" lon="6.630979">
        <ele>219.0</ele>
        <time>2020-07-09T10:59:56Z</time>
      </trkpt>
      <trkpt lat="49.441575" lon="6.630931">
        <ele>219.0</ele>
        <time>2020-07-09T10:59:58Z</time>
      </trkpt>
      <trkpt lat="49.441527" lon="6.630908">
        <ele>219.0</ele>
        <time>2020-07-09T10:59:59Z</time>
      </trkpt>
      <trkpt lat="49.441392" lon="6.630848">
        <ele>219.0</ele>
        <time>2020-07-09T11:00:02Z</time>
      </trkpt>
      <trkpt lat="49.441297" lon="6.630817">
        <ele>218.0</ele>
        <time>2020-07-09T11:00:04Z</time>
      </trkpt>
      <trkpt lat="49.441195" lon="6.630777">
        <ele>217.0</ele>
        <time>2020-07-09T11:00:06Z</time>
      </trkpt>
      <trkpt lat="49.441039" lon="6.630725">
        <ele>217.0</ele>
        <time>2020-07-09T11:00:09Z</time>
      </trkpt>
      <trkpt lat="49.440943" lon="6.630687">
        <ele>218.0</ele>
        <time>2020-07-09T11:00:11Z</time>
      </trkpt>
      <trkpt lat="49.440845" lon="6.630636">
        <ele>217.0</ele>
        <time>2020-07-09T11:00:13Z</time>
      </trkpt>
      <trkpt lat="49.440754" lon="6.630596">
        <ele>217.0</ele>
        <time>2020-07-09T11:00:15Z</time>
      </trkpt>
      <trkpt lat="49.440663" lon="6.630549">
        <ele>217.0</ele>
        <time>2020-07-09T11:00:17Z</time>
      </trkpt>
      <trkpt lat="49.440573" lon="6.630515">
        <ele>217.0</ele>
        <time>2020-07-09T11:00:19Z</time>
      </trkpt>
      <trkpt lat="49.440477" lon="6.630487">
        <ele>217.0</ele>
        <time>2020-07-09T11:00:21Z</time>
      </trkpt>
      <trkpt lat="49.440335" lon="6.630427">
        <ele>216.0</ele>
        <time>2020-07-09T11:00:24Z</time>
      </trkpt>
      <trkpt lat="49.440242" lon="6.630383">
        <ele>217.0</ele>
        <time>2020-07-09T11:00:26Z</time>
      </trkpt>
      <trkpt lat="49.440089" lon="6.630336">
        <ele>217.0</ele>
        <time>2020-07-09T11:00:29Z</time>
      </trkpt>
      <trkpt lat="49.43999" lon="6.630311">
        <ele>217.0</ele>
        <time>2020-07-09T11:00:31Z</time>
      </trkpt>
      <trkpt lat="49.439854" lon="6.630263">
        <ele>217.0</ele>
        <time>2020-07-09T11:00:34Z</time>
      </trkpt>
      <trkpt lat="49.439762" lon="6.630233">
        <ele>217.0</ele>
        <time>2020-07-09T11:00:36Z</time>
      </trkpt>
      <trkpt lat="49.439714" lon="6.630216">
        <ele>217.0</ele>
        <time>2020-07-09T11:00:37Z</time>
      </trkpt>
      <trkpt lat="49.439526" lon="6.630163">
        <ele>217.0</ele>
        <time>2020-07-09T11:00:41Z</time>
      </trkpt>
      <trkpt lat="49.439438" lon="6.630137">
        <ele>217.0</ele>
        <time>2020-07-09T11:00:43Z</time>
      </trkpt>
      <trkpt lat="49.439306" lon="6.630107">
        <ele>217.0</ele>
        <time>2020-07-09T11:00:46Z</time>
      </trkpt>
      <trkpt lat="49.439216" lon="6.630082">
        <ele>217.0</ele>
        <time>2020-07-09T11:00:48Z</time>
      </trkpt>
      <trkpt lat="49.439124" lon="6.630062">
        <ele>217.0</ele>
        <time>2020-07-09T11:00:50Z</time>
      </trkpt>
      <trkpt lat="49.439028" lon="6.630046">
        <ele>217.0</ele>
        <time>2020-07-09T11:00:52Z</time>
      </trkpt>
      <trkpt lat="49.438885" lon="6.630021">
        <ele>217.0</ele>
        <time>2020-07-09T11:00:55Z</time>
      </trkpt>
      <trkpt lat="49.438787" lon="6.630004">
        <ele>217.0</ele>
        <time>2020-07-09T11:00:57Z</time>
      </trkpt>
      <trkpt lat="49.438694" lon="6.629971">
        <ele>218.0</ele>
        <time>2020-07-09T11:00:59Z</time>
      </trkpt>
      <trkpt lat="49.438602" lon="6.629954">
        <ele>217.0</ele>
        <time>2020-07-09T11:01:01Z</time>
      </trkpt>
      <trkpt lat="49.4385" lon="6.629943">
        <ele>217.0</ele>
        <time>2020-07-09T11:01:03Z</time>
      </trkpt>
      <trkpt lat="49.438404" lon="6.629928">
        <ele>217.0</ele>
        <time>2020-07-09T11:01:05Z</time>
      </trkpt>
      <trkpt lat="49.438306" lon="6.629909">
        <ele>217.0</ele>
        <time>2020-07-09T11:01:07Z</time>
      </trkpt>
      <trkpt lat="49.438213" lon="6.629898">
        <ele>217.0</ele>
        <time>2020-07-09T11:01:09Z</time>
      </trkpt>
      <trkpt lat="49.438118" lon="6.629887">
        <ele>218.0</ele>
        <time>2020-07-09T11:01:11Z</time>
      </trkpt>
      <trkpt lat="49.43798" lon="6.62987">
        <ele>217.0</ele>
        <time>2020-07-09T11:01:14Z</time>
      </trkpt>
      <trkpt lat="49.43789" lon="6.629859">
        <ele>217.0</ele>
        <time>2020-07-09T11:01:16Z</time>
      </trkpt>
      <trkpt lat="49.437801" lon="6.629855">
        <ele>217.0</ele>
        <time>2020-07-09T11:01:18Z</time>
      </trkpt>
      <trkpt lat="49.437706" lon="6.62984">
        <ele>217.0</ele>
        <time>2020-07-09T11:01:20Z</time>
      </trkpt>
      <trkpt lat="49.437609" lon="6.629835">
        <ele>217.0</ele>
        <time>2020-07-09T11:01:22Z</time>
      </trkpt>
      <trkpt lat="49.437569" lon="6.629829">
        <ele>217.0</ele>
        <time>2020-07-09T11:01:23Z</time>
      </trkpt>
      <trkpt lat="49.437394" lon="6.629812">
        <ele>217.0</ele>
        <time>2020-07-09T11:01:27Z</time>
      </trkpt>
      <trkpt lat="49.437304" lon="6.629801">
        <ele>218.0</ele>
        <time>2020-07-09T11:01:29Z</time>
      </trkpt>
      <trkpt lat="49.437169" lon="6.629794">
        <ele>218.0</ele>
        <time>2020-07-09T11:01:32Z</time>
      </trkpt>
      <trkpt lat="49.437074" lon="6.629781">
        <ele>218.0</ele>
        <time>2020-07-09T11:01:34Z</time>
      </trkpt>
      <trkpt lat="49.436976" lon="6.629775">
        <ele>218.0</ele>
        <time>2020-07-09T11:01:36Z</time>
      </trkpt>
      <trkpt lat="49.436885" lon="6.629769">
        <ele>218.0</ele>
        <time>2020-07-09T11:01:38Z</time>
      </trkpt>
      <trkpt lat="49.436747" lon="6.629743">
        <ele>218.0</ele>
        <time>2020-07-09T11:01:41Z</time>
      </trkpt>
      <trkpt lat="49.436612" lon="6.62974">
        <ele>218.0</ele>
        <time>2020-07-09T11:01:44Z</time>
      </trkpt>
      <trkpt lat="49.436564" lon="6.629738">
        <ele>218.0</ele>
        <time>2020-07-09T11:01:45Z</time>
      </trkpt>
      <trkpt lat="49.436422" lon="6.629738">
        <ele>219.0</ele>
        <time>2020-07-09T11:01:48Z</time>
      </trkpt>
      <trkpt lat="49.436334" lon="6.629737">
        <ele>219.0</ele>
        <time>2020-07-09T11:01:50Z</time>
      </trkpt>
      <trkpt lat="49.436254" lon="6.629737">
        <ele>219.0</ele>
        <time>2020-07-09T11:01:52Z</time>
      </trkpt>
      <trkpt lat="49.436171" lon="6.629751">
        <ele>218.0</ele>
        <time>2020-07-09T11:01:54Z</time>
      </trkpt>
      <trkpt lat="49.436083" lon="6.629746">
        <ele>218.0</ele>
        <time>2020-07-09T11:01:56Z</time>
      </trkpt>
      <trkpt lat="49.435993" lon="6.629752">
        <ele>218.0</ele>
        <time>2020-07-09T11:01:58Z</time>
      </trkpt>
      <trkpt lat="49.435853" lon="6.62975">
        <ele>218.0</ele>
        <time>2020-07-09T11:02:01Z</time>
      </trkpt>
      <trkpt lat="49.435809" lon="6.62975">
        <ele>218.0</ele>
        <time>2020-07-09T11:02:02Z</time>
      </trkpt>
      <trkpt lat="49.435673" lon="6.629768">
        <ele>217.0</ele>
        <time>2020-07-09T11:02:05Z</time>
      </trkpt>
      <trkpt lat="49.43558" lon="6.629775">
        <ele>218.0</ele>
        <time>2020-07-09T11:02:07Z</time>
      </trkpt>
      <trkpt lat="49.43549" lon="6.629782">
        <ele>218.0</ele>
        <time>2020-07-09T11:02:09Z</time>
      </trkpt>
      <trkpt lat="49.43536" lon="6.629795">
        <ele>218.0</ele>
        <time>2020-07-09T11:02:12Z</time>
      </trkpt>
      <trkpt lat="49.435266" lon="6.629809">
        <ele>218.0</ele>
        <time>2020-07-09T11:02:14Z</time>
      </trkpt>
      <trkpt lat="49.435169" lon="6.629832">
        <ele>218.0</ele>
        <time>2020-07-09T11:02:16Z</time>
      </trkpt>
      <trkpt lat="49.435031" lon="6.629853">
        <ele>218.0</ele>
        <time>2020-07-09T11:02:19Z</time>
      </trkpt>
      <trkpt lat="49.434933" lon="6.629872">
        <ele>219.0</ele>
        <time>2020-07-09T11:02:21Z</time>
      </trkpt>
      <trkpt lat="49.434832" lon="6.629897">
        <ele>219.0</ele>
        <time>2020-07-09T11:02:23Z</time>
      </trkpt>
      <trkpt lat="49.434736" lon="6.629913">
        <ele>220.0</ele>
        <time>2020-07-09T11:02:25Z</time>
      </trkpt>
      <trkpt lat="49.434598" lon="6.629939">
        <ele>220.0</ele>
        <time>2020-07-09T11:02:28Z</time>
      </trkpt>
      <trkpt lat="49.434504" lon="6.629965">
        <ele>220.0</ele>
        <time>2020-07-09T11:02:30Z</time>
      </trkpt>
      <trkpt lat="49.434355" lon="6.629996">
        <ele>220.0</ele>
        <time>2020-07-09T11:02:33Z</time>
      </trkpt>
      <trkpt lat="49.434308" lon="6.630006">
        <ele>220.0</ele>
        <time>2020-07-09T11:02:34Z</time>
      </trkpt>
      <trkpt lat="49.434163" lon="6.630043">
        <ele>219.0</ele>
        <time>2020-07-09T11:02:37Z</time>
      </trkpt>
      <trkpt lat="49.434071" lon="6.630066">
        <ele>219.0</ele>
        <time>2020-07-09T11:02:39Z</time>
      </trkpt>
      <trkpt lat="49.433981" lon="6.630089">
        <ele>218.0</ele>
        <time>2020-07-09T11:02:41Z</time>
      </trkpt>
      <trkpt lat="49.433885" lon="6.630116">
        <ele>218.0</ele>
        <time>2020-07-09T11:02:43Z</time>
      </trkpt>
      <trkpt lat="49.43379" lon="6.630141">
        <ele>218.0</ele>
        <time>2020-07-09T11:02:45Z</time>
      </trkpt>
      <trkpt lat="49.433694" lon="6.630163">
        <ele>218.0</ele>
        <time>2020-07-09T11:02:47Z</time>
      </trkpt>
      <trkpt lat="49.433557" lon="6.630204">
        <ele>218.0</ele>
        <time>2020-07-09T11:02:50Z</time>
      </trkpt>
      <trkpt lat="49.433467" lon="6.630235">
        <ele>217.0</ele>
        <time>2020-07-09T11:02:52Z</time>
      </trkpt>
      <trkpt lat="49.433373" lon="6.630257">
        <ele>217.0</ele>
        <time>2020-07-09T11:02:54Z</time>
      </trkpt>
      <trkpt lat="49.433325" lon="6.630268">
        <ele>217.0</ele>
        <time>2020-07-09T11:02:55Z</time>
      </trkpt>
      <trkpt lat="49.433195" lon="6.630295">
        <ele>216.0</ele>
        <time>2020-07-09T11:02:58Z</time>
      </trkpt>
      <trkpt lat="49.433104" lon="6.630311">
        <ele>217.0</ele>
        <time>2020-07-09T11:03:00Z</time>
      </trkpt>
      <trkpt lat="49.433015" lon="6.630331">
        <ele>218.0</ele>
        <time>2020-07-09T11:03:02Z</time>
      </trkpt>
      <trkpt lat="49.43287" lon="6.630375">
        <ele>218.0</ele>
        <time>2020-07-09T11:03:05Z</time>
      </trkpt>
      <trkpt lat="49.43277" lon="6.630414">
        <ele>218.0</ele>
        <time>2020-07-09T11:03:07Z</time>
      </trkpt>
      <trkpt lat="49.432667" lon="6.630449">
        <ele>218.0</ele>
        <time>2020-07-09T11:03:09Z</time>
      </trkpt>
      <trkpt lat="49.432523" lon="6.630503">
        <ele>217.0</ele>
        <time>2020-07-09T11:03:12Z</time>
      </trkpt>
      <trkpt lat="49.432473" lon="6.630512">
        <ele>217.0</ele>
        <time>2020-07-09T11:03:13Z</time>
      </trkpt>
      <trkpt lat="49.43233" lon="6.630564">
        <ele>217.0</ele>
        <time>2020-07-09T11:03:16Z</time>
      </trkpt>
      <trkpt lat="49.432184" lon="6.630609">
        <ele>217.0</ele>
        <time>2020-07-09T11:03:19Z</time>
      </trkpt>
      <trkpt lat="49.432086" lon="6.630644">
        <ele>217.0</ele>
        <time>2020-07-09T11:03:21Z</time>
      </trkpt>
      <trkpt lat="49.431994" lon="6.630679">
        <ele>216.0</ele>
        <time>2020-07-09T11:03:23Z</time>
      </trkpt>
      <trkpt lat="49.431896" lon="6.63072">
        <ele>217.0</ele>
        <time>2020-07-09T11:03:25Z</time>
      </trkpt>
      <trkpt lat="49.431789" lon="6.630762">
        <ele>217.0</ele>
        <time>2020-07-09T11:03:27Z</time>
      </trkpt>
      <trkpt lat="49.431692" lon="6.630808">
        <ele>218.0</ele>
        <time>2020-07-09T11:03:29Z</time>
      </trkpt>
      <trkpt lat="49.431593" lon="6.630856">
        <ele>218.0</ele>
        <time>2020-07-09T11:03:31Z</time>
      </trkpt>
      <trkpt lat="49.43145" lon="6.630924">
        <ele>218.0</ele>
        <time>2020-07-09T11:03:34Z</time>
      </trkpt>
      <trkpt lat="49.431357" lon="6.630975">
        <ele>218.0</ele>
        <time>2020-07-09T11:03:36Z</time>
      </trkpt>
      <trkpt lat="49.431257" lon="6.631023">
        <ele>218.0</ele>
        <time>2020-07-09T11:03:38Z</time>
      </trkpt>
      <trkpt lat="49.43116" lon="6.631073">
        <ele>218.0</ele>
        <time>2020-07-09T11:03:40Z</time>
      </trkpt>
      <trkpt lat="49.43107" lon="6.631125">
        <ele>218.0</ele>
        <time>2020-07-09T11:03:42Z</time>
      </trkpt>
      <trkpt lat="49.430973" lon="6.631175">
        <ele>218.0</ele>
        <time>2020-07-09T11:03:44Z</time>
      </trkpt>
      <trkpt lat="49.430878" lon="6.631226">
        <ele>217.0</ele>
        <time>2020-07-09T11:03:46Z</time>
      </trkpt>
      <trkpt lat="49.430788" lon="6.631286">
        <ele>217.0</ele>
        <time>2020-07-09T11:03:48Z</time>
      </trkpt>
      <trkpt lat="49.430657" lon="6.631375">
        <ele>217.0</ele>
        <time>2020-07-09T11:03:51Z</time>
      </trkpt>
      <trkpt lat="49.430571" lon="6.631437">
        <ele>217.0</ele>
        <time>2020-07-09T11:03:53Z</time>
      </trkpt>
      <trkpt lat="49.430482" lon="6.631496">
        <ele>217.0</ele>
        <time>2020-07-09T11:03:55Z</time>
      </trkpt>
      <trkpt lat="49.430342" lon="6.63157">
        <ele>216.0</ele>
        <time>2020-07-09T11:03:58Z</time>
      </trkpt>
      <trkpt lat="49.430249" lon="6.631615">
        <ele>217.0</ele>
        <time>2020-07-09T11:04:00Z</time>
      </trkpt>
      <trkpt lat="49.430153" lon="6.631659">
        <ele>217.0</ele>
        <time>2020-07-09T11:04:02Z</time>
      </trkpt>
      <trkpt lat="49.429999" lon="6.631716">
        <ele>217.0</ele>
        <time>2020-07-09T11:04:05Z</time>
      </trkpt>
      <trkpt lat="49.429897" lon="6.631756">
        <ele>217.0</ele>
        <time>2020-07-09T11:04:07Z</time>
      </trkpt>
      <trkpt lat="49.429796" lon="6.631799">
        <ele>217.0</ele>
        <time>2020-07-09T11:04:09Z</time>
      </trkpt>
      <trkpt lat="49.429744" lon="6.63182">
        <ele>217.0</ele>
        <time>2020-07-09T11:04:10Z</time>
      </trkpt>
      <trkpt lat="49.429595" lon="6.631883">
        <ele>218.0</ele>
        <time>2020-07-09T11:04:13Z</time>
      </trkpt>
      <trkpt lat="49.429503" lon="6.631927">
        <ele>218.0</ele>
        <time>2020-07-09T11:04:15Z</time>
      </trkpt>
      <trkpt lat="49.429412" lon="6.631966">
        <ele>218.0</ele>
        <time>2020-07-09T11:04:17Z</time>
      </trkpt>
      <trkpt lat="49.429332" lon="6.632005">
        <ele>218.0</ele>
        <time>2020-07-09T11:04:19Z</time>
      </trkpt>
      <trkpt lat="49.429238" lon="6.632045">
        <ele>217.0</ele>
        <time>2020-07-09T11:04:21Z</time>
      </trkpt>
      <trkpt lat="49.429135" lon="6.632078">
        <ele>217.0</ele>
        <time>2020-07-09T11:04:23Z</time>
      </trkpt>
      <trkpt lat="49.429035" lon="6.632113">
        <ele>217.0</ele>
        <time>2020-07-09T11:04:25Z</time>
      </trkpt>
      <trkpt lat="49.428936" lon="6.632145">
        <ele>217.0</ele>
        <time>2020-07-09T11:04:27Z</time>
      </trkpt>
      <trkpt lat="49.4288" lon="6.63218">
        <ele>217.0</ele>
        <time>2020-07-09T11:04:30Z</time>
      </trkpt>
      <trkpt lat="49.428708" lon="6.632206">
        <ele>217.0</ele>
        <time>2020-07-09T11:04:32Z</time>
      </trkpt>
      <trkpt lat="49.428617" lon="6.632239">
        <ele>217.0</ele>
        <time>2020-07-09T11:04:34Z</time>
      </trkpt>
      <trkpt lat="49.428472" lon="6.632277">
        <ele>217.0</ele>
        <time>2020-07-09T11:04:37Z</time>
      </trkpt>
      <trkpt lat="49.428378" lon="6.632308">
        <ele>218.0</ele>
        <time>2020-07-09T11:04:39Z</time>
      </trkpt>
      <trkpt lat="49.428291" lon="6.63233">
        <ele>217.0</ele>
        <time>2020-07-09T11:04:41Z</time>
      </trkpt>
      <trkpt lat="49.428148" lon="6.632368">
        <ele>218.0</ele>
        <time>2020-07-09T11:04:44Z</time>
      </trkpt>
      <trkpt lat="49.42806" lon="6.632394">
        <ele>218.0</ele>
        <time>2020-07-09T11:04:46Z</time>
      </trkpt>
      <trkpt lat="49.427925" lon="6.632426">
        <ele>219.0</ele>
        <time>2020-07-09T11:04:49Z</time>
      </trkpt>
      <trkpt lat="49.427835" lon="6.632448">
        <ele>220.0</ele>
        <time>2020-07-09T11:04:51Z</time>
      </trkpt>
      <trkpt lat="49.427747" lon="6.632467">
        <ele>220.0</ele>
        <time>2020-07-09T11:04:53Z</time>
      </trkpt>
      <trkpt lat="49.427656" lon="6.632485">
        <ele>219.0</ele>
        <time>2020-07-09T11:04:55Z</time>
      </trkpt>
      <trkpt lat="49.427517" lon="6.632525">
        <ele>219.0</ele>
        <time>2020-07-09T11:04:58Z</time>
      </trkpt>
      <trkpt lat="49.427422" lon="6.632547">
        <ele>218.0</ele>
        <time>2020-07-09T11:05:00Z</time>
      </trkpt>
      <trkpt lat="49.427371" lon="6.632553">
        <ele>219.0</ele>
        <time>2020-07-09T11:05:01Z</time>
      </trkpt>
      <trkpt lat="49.427225" lon="6.632574">
        <ele>219.0</ele>
        <time>2020-07-09T11:05:04Z</time>
      </trkpt>
      <trkpt lat="49.427123" lon="6.632581">
        <ele>219.0</ele>
        <time>2020-07-09T11:05:06Z</time>
      </trkpt>
      <trkpt lat="49.42702" lon="6.632597">
        <ele>218.0</ele>
        <time>2020-07-09T11:05:08Z</time>
      </trkpt>
      <trkpt lat="49.426871" lon="6.632613">
        <ele>218.0</ele>
        <time>2020-07-09T11:05:11Z</time>
      </trkpt>
      <trkpt lat="49.42677" lon="6.632626">
        <ele>217.0</ele>
        <time>2020-07-09T11:05:13Z</time>
      </trkpt>
      <trkpt lat="49.426675" lon="6.63264">
        <ele>217.0</ele>
        <time>2020-07-09T11:05:15Z</time>
      </trkpt>
      <trkpt lat="49.42663" lon="6.632651">
        <ele>217.0</ele>
        <time>2020-07-09T11:05:16Z</time>
      </trkpt>
      <trkpt lat="49.426492" lon="6.632677">
        <ele>217.0</ele>
        <time>2020-07-09T11:05:19Z</time>
      </trkpt>
      <trkpt lat="49.426403" lon="6.632697">
        <ele>217.0</ele>
        <time>2020-07-09T11:05:21Z</time>
      </trkpt>
      <trkpt lat="49.426314" lon="6.632719">
        <ele>217.0</ele>
        <time>2020-07-09T11:05:23Z</time>
      </trkpt>
      <trkpt lat="49.426225" lon="6.632738">
        <ele>217.0</ele>
        <time>2020-07-09T11:05:25Z</time>
      </trkpt>
      <trkpt lat="49.426132" lon="6.63277">
        <ele>217.0</ele>
        <time>2020-07-09T11:05:27Z</time>
      </trkpt>
      <trkpt lat="49.425989" lon="6.632804">
        <ele>218.0</ele>
        <time>2020-07-09T11:05:30Z</time>
      </trkpt>
      <trkpt lat="49.425945" lon="6.632817">
        <ele>218.0</ele>
        <time>2020-07-09T11:05:31Z</time>
      </trkpt>
      <trkpt lat="49.425799" lon="6.63287">
        <ele>218.0</ele>
        <time>2020-07-09T11:05:34Z</time>
      </trkpt>
      <trkpt lat="49.425657" lon="6.632931">
        <ele>218.0</ele>
        <time>2020-07-09T11:05:37Z</time>
      </trkpt>
      <trkpt lat="49.425559" lon="6.63297">
        <ele>218.0</ele>
        <time>2020-07-09T11:05:39Z</time>
      </trkpt>
      <trkpt lat="49.42551" lon="6.632994">
        <ele>217.0</ele>
        <time>2020-07-09T11:05:40Z</time>
      </trkpt>
      <trkpt lat="49.425325" lon="6.633089">
        <ele>218.0</ele>
        <time>2020-07-09T11:05:44Z</time>
      </trkpt>
      <trkpt lat="49.425276" lon="6.633108">
        <ele>218.0</ele>
        <time>2020-07-09T11:05:45Z</time>
      </trkpt>
      <trkpt lat="49.425127" lon="6.633154">
        <ele>219.0</ele>
        <time>2020-07-09T11:05:48Z</time>
      </trkpt>
      <trkpt lat="49.42503" lon="6.633194">
        <ele>219.0</ele>
        <time>2020-07-09T11:05:50Z</time>
      </trkpt>
      <trkpt lat="49.424937" lon="6.633246">
        <ele>219.0</ele>
        <time>2020-07-09T11:05:52Z</time>
      </trkpt>
      <trkpt lat="49.424846" lon="6.633297">
        <ele>219.0</ele>
        <time>2020-07-09T11:05:54Z</time>
      </trkpt>
      <trkpt lat="49.424705" lon="6.633371">
        <ele>218.0</ele>
        <time>2020-07-09T11:05:57Z</time>
      </trkpt>
      <trkpt lat="49.424613" lon="6.633424">
        <ele>217.0</ele>
        <time>2020-07-09T11:05:59Z</time>
      </trkpt>
      <trkpt lat="49.424524" lon="6.633473">
        <ele>217.0</ele>
        <time>2020-07-09T11:06:01Z</time>
      </trkpt>
      <trkpt lat="49.424434" lon="6.633524">
        <ele>216.0</ele>
        <time>2020-07-09T11:06:03Z</time>
      </trkpt>
      <trkpt lat="49.42439" lon="6.633548">
        <ele>216.0</ele>
        <time>2020-07-09T11:06:04Z</time>
      </trkpt>
      <trkpt lat="49.424259" lon="6.633613">
        <ele>217.0</ele>
        <time>2020-07-09T11:06:07Z</time>
      </trkpt>
      <trkpt lat="49.424161" lon="6.633654">
        <ele>217.0</ele>
        <time>2020-07-09T11:06:09Z</time>
      </trkpt>
      <trkpt lat="49.424059" lon="6.633705">
        <ele>217.0</ele>
        <time>2020-07-09T11:06:11Z</time>
      </trkpt>
      <trkpt lat="49.423958" lon="6.633754">
        <ele>217.0</ele>
        <time>2020-07-09T11:06:13Z</time>
      </trkpt>
      <trkpt lat="49.42382" lon="6.633835">
        <ele>217.0</ele>
        <time>2020-07-09T11:06:16Z</time>
      </trkpt>
      <trkpt lat="49.423729" lon="6.633887">
        <ele>217.0</ele>
        <time>2020-07-09T11:06:18Z</time>
      </trkpt>
      <trkpt lat="49.423594" lon="6.633962">
        <ele>218.0</ele>
        <time>2020-07-09T11:06:21Z</time>
      </trkpt>
      <trkpt lat="49.423498" lon="6.634024">
        <ele>218.0</ele>
        <time>2020-07-09T11:06:23Z</time>
      </trkpt>
      <trkpt lat="49.423404" lon="6.634083">
        <ele>218.0</ele>
        <time>2020-07-09T11:06:25Z</time>
      </trkpt>
      <trkpt lat="49.42331" lon="6.634137">
        <ele>218.0</ele>
        <time>2020-07-09T11:06:27Z</time>
      </trkpt>
      <trkpt lat="49.423163" lon="6.634221">
        <ele>219.0</ele>
        <time>2020-07-09T11:06:30Z</time>
      </trkpt>
      <trkpt lat="49.423065" lon="6.634279">
        <ele>219.0</ele>
        <time>2020-07-09T11:06:32Z</time>
      </trkpt>
      <trkpt lat="49.423014" lon="6.634305">
        <ele>219.0</ele>
        <time>2020-07-09T11:06:33Z</time>
      </trkpt>
      <trkpt lat="49.422872" lon="6.634395">
        <ele>219.0</ele>
        <time>2020-07-09T11:06:36Z</time>
      </trkpt>
      <trkpt lat="49.422776" lon="6.634449">
        <ele>219.0</ele>
        <time>2020-07-09T11:06:38Z</time>
      </trkpt>
      <trkpt lat="49.422686" lon="6.634495">
        <ele>219.0</ele>
        <time>2020-07-09T11:06:40Z</time>
      </trkpt>
      <trkpt lat="49.422604" lon="6.634554">
        <ele>218.0</ele>
        <time>2020-07-09T11:06:42Z</time>
      </trkpt>
      <trkpt lat="49.422475" lon="6.634639">
        <ele>218.0</ele>
        <time>2020-07-09T11:06:45Z</time>
      </trkpt>
      <trkpt lat="49.422383" lon="6.634706">
        <ele>218.0</ele>
        <time>2020-07-09T11:06:47Z</time>
      </trkpt>
      <trkpt lat="49.422281" lon="6.634781">
        <ele>219.0</ele>
        <time>2020-07-09T11:06:49Z</time>
      </trkpt>
      <trkpt lat="49.422182" lon="6.634848">
        <ele>218.0</ele>
        <time>2020-07-09T11:06:51Z</time>
      </trkpt>
      <trkpt lat="49.422084" lon="6.634913">
        <ele>219.0</ele>
        <time>2020-07-09T11:06:53Z</time>
      </trkpt>
      <trkpt lat="49.421996" lon="6.634983">
        <ele>220.0</ele>
        <time>2020-07-09T11:06:55Z</time>
      </trkpt>
      <trkpt lat="49.421908" lon="6.635045">
        <ele>220.0</ele>
        <time>2020-07-09T11:06:57Z</time>
      </trkpt>
      <trkpt lat="49.421779" lon="6.635133">
        <ele>219.0</ele>
        <time>2020-07-09T11:07:00Z</time>
      </trkpt>
      <trkpt lat="49.421689" lon="6.635185">
        <ele>219.0</ele>
        <time>2020-07-09T11:07:02Z</time>
      </trkpt>
      <trkpt lat="49.421606" lon="6.635241">
        <ele>219.0</ele>
        <time>2020-07-09T11:07:04Z</time>
      </trkpt>
      <trkpt lat="49.421518" lon="6.635296">
        <ele>220.0</ele>
        <time>2020-07-09T11:07:06Z</time>
      </trkpt>
      <trkpt lat="49.421401" lon="6.635384">
        <ele>220.0</ele>
        <time>2020-07-09T11:07:09Z</time>
      </trkpt>
      <trkpt lat="49.421323" lon="6.635443">
        <ele>220.0</ele>
        <time>2020-07-09T11:07:11Z</time>
      </trkpt>
      <trkpt lat="49.42124" lon="6.635508">
        <ele>220.0</ele>
        <time>2020-07-09T11:07:13Z</time>
      </trkpt>
      <trkpt lat="49.421157" lon="6.635578">
        <ele>220.0</ele>
        <time>2020-07-09T11:07:15Z</time>
      </trkpt>
      <trkpt lat="49.421036" lon="6.635676">
        <ele>220.0</ele>
        <time>2020-07-09T11:07:18Z</time>
      </trkpt>
      <trkpt lat="49.420997" lon="6.635705">
        <ele>220.0</ele>
        <time>2020-07-09T11:07:19Z</time>
      </trkpt>
      <trkpt lat="49.42088" lon="6.635804">
        <ele>220.0</ele>
        <time>2020-07-09T11:07:22Z</time>
      </trkpt>
      <trkpt lat="49.420794" lon="6.635869">
        <ele>219.0</ele>
        <time>2020-07-09T11:07:24Z</time>
      </trkpt>
      <trkpt lat="49.420702" lon="6.635922">
        <ele>220.0</ele>
        <time>2020-07-09T11:07:26Z</time>
      </trkpt>
      <trkpt lat="49.420607" lon="6.635978">
        <ele>220.0</ele>
        <time>2020-07-09T11:07:28Z</time>
      </trkpt>
      <trkpt lat="49.420471" lon="6.636074">
        <ele>219.0</ele>
        <time>2020-07-09T11:07:31Z</time>
      </trkpt>
      <trkpt lat="49.420378" lon="6.636142">
        <ele>220.0</ele>
        <time>2020-07-09T11:07:33Z</time>
      </trkpt>
      <trkpt lat="49.420279" lon="6.636216">
        <ele>220.0</ele>
        <time>2020-07-09T11:07:35Z</time>
      </trkpt>
      <trkpt lat="49.420188" lon="6.636284">
        <ele>220.0</ele>
        <time>2020-07-09T11:07:37Z</time>
      </trkpt>
      <trkpt lat="49.420099" lon="6.636351">
        <ele>220.0</ele>
        <time>2020-07-09T11:07:39Z</time>
      </trkpt>
      <trkpt lat="49.420012" lon="6.636427">
        <ele>219.0</ele>
        <time>2020-07-09T11:07:41Z</time>
      </trkpt>
      <trkpt lat="49.419911" lon="6.636512">
        <ele>219.0</ele>
        <time>2020-07-09T11:07:43Z</time>
      </trkpt>
      <trkpt lat="49.419769" lon="6.63662">
        <ele>218.0</ele>
        <time>2020-07-09T11:07:46Z</time>
      </trkpt>
      <trkpt lat="49.419684" lon="6.63669">
        <ele>218.0</ele>
        <time>2020-07-09T11:07:48Z</time>
      </trkpt>
      <trkpt lat="49.419594" lon="6.636756">
        <ele>219.0</ele>
        <time>2020-07-09T11:07:50Z</time>
      </trkpt>
      <trkpt lat="49.419452" lon="6.636846">
        <ele>219.0</ele>
        <time>2020-07-09T11:07:53Z</time>
      </trkpt>
      <trkpt lat="49.419352" lon="6.636902">
        <ele>219.0</ele>
        <time>2020-07-09T11:07:55Z</time>
      </trkpt>
      <trkpt lat="49.419302" lon="6.63694">
        <ele>219.0</ele>
        <time>2020-07-09T11:07:56Z</time>
      </trkpt>
      <trkpt lat="49.419165" lon="6.637039">
        <ele>220.0</ele>
        <time>2020-07-09T11:07:59Z</time>
      </trkpt>
      <trkpt lat="49.419032" lon="6.637141">
        <ele>219.0</ele>
        <time>2020-07-09T11:08:02Z</time>
      </trkpt>
      <trkpt lat="49.418945" lon="6.637211">
        <ele>219.0</ele>
        <time>2020-07-09T11:08:04Z</time>
      </trkpt>
      <trkpt lat="49.418855" lon="6.637283">
        <ele>219.0</ele>
        <time>2020-07-09T11:08:06Z</time>
      </trkpt>
      <trkpt lat="49.418762" lon="6.637347">
        <ele>219.0</ele>
        <time>2020-07-09T11:08:08Z</time>
      </trkpt>
      <trkpt lat="49.418672" lon="6.63741">
        <ele>219.0</ele>
        <time>2020-07-09T11:08:10Z</time>
      </trkpt>
      <trkpt lat="49.41858" lon="6.637478">
        <ele>219.0</ele>
        <time>2020-07-09T11:08:12Z</time>
      </trkpt>
      <trkpt lat="49.418438" lon="6.637577">
        <ele>219.0</ele>
        <time>2020-07-09T11:08:15Z</time>
      </trkpt>
      <trkpt lat="49.41834" lon="6.637649">
        <ele>219.0</ele>
        <time>2020-07-09T11:08:17Z</time>
      </trkpt>
      <trkpt lat="49.418251" lon="6.637715">
        <ele>219.0</ele>
        <time>2020-07-09T11:08:19Z</time>
      </trkpt>
      <trkpt lat="49.41816" lon="6.637783">
        <ele>219.0</ele>
        <time>2020-07-09T11:08:21Z</time>
      </trkpt>
      <trkpt lat="49.418025" lon="6.637885">
        <ele>219.0</ele>
        <time>2020-07-09T11:08:24Z</time>
      </trkpt>
      <trkpt lat="49.417932" lon="6.637949">
        <ele>219.0</ele>
        <time>2020-07-09T11:08:26Z</time>
      </trkpt>
      <trkpt lat="49.41784" lon="6.63801">
        <ele>220.0</ele>
        <time>2020-07-09T11:08:28Z</time>
      </trkpt>
      <trkpt lat="49.417752" lon="6.638081">
        <ele>220.0</ele>
        <time>2020-07-09T11:08:30Z</time>
      </trkpt>
      <trkpt lat="49.417658" lon="6.638151">
        <ele>220.0</ele>
        <time>2020-07-09T11:08:32Z</time>
      </trkpt>
      <trkpt lat="49.417512" lon="6.638256">
        <ele>220.0</ele>
        <time>2020-07-09T11:08:35Z</time>
      </trkpt>
      <trkpt lat="49.417411" lon="6.638326">
        <ele>220.0</ele>
        <time>2020-07-09T11:08:37Z</time>
      </trkpt>
      <trkpt lat="49.417317" lon="6.638399">
        <ele>220.0</ele>
        <time>2020-07-09T11:08:39Z</time>
      </trkpt>
      <trkpt lat="49.417177" lon="6.638515">
        <ele>220.0</ele>
        <time>2020-07-09T11:08:42Z</time>
      </trkpt>
      <trkpt lat="49.417129" lon="6.638555">
        <ele>220.0</ele>
        <time>2020-07-09T11:08:43Z</time>
      </trkpt>
      <trkpt lat="49.416986" lon="6.638651">
        <ele>220.0</ele>
        <time>2020-07-09T11:08:46Z</time>
      </trkpt>
      <trkpt lat="49.416895" lon="6.638722">
        <ele>220.0</ele>
        <time>2020-07-09T11:08:48Z</time>
      </trkpt>
      <trkpt lat="49.416757" lon="6.638825">
        <ele>220.0</ele>
        <time>2020-07-09T11:08:51Z</time>
      </trkpt>
      <trkpt lat="49.416662" lon="6.638905">
        <ele>219.0</ele>
        <time>2020-07-09T11:08:53Z</time>
      </trkpt>
      <trkpt lat="49.416572" lon="6.638983">
        <ele>219.0</ele>
        <time>2020-07-09T11:08:55Z</time>
      </trkpt>
      <trkpt lat="49.416481" lon="6.639051">
        <ele>219.0</ele>
        <time>2020-07-09T11:08:57Z</time>
      </trkpt>
      <trkpt lat="49.416387" lon="6.63911">
        <ele>219.0</ele>
        <time>2020-07-09T11:08:59Z</time>
      </trkpt>
      <trkpt lat="49.416247" lon="6.639222">
        <ele>219.0</ele>
        <time>2020-07-09T11:09:02Z</time>
      </trkpt>
      <trkpt lat="49.416156" lon="6.639286">
        <ele>219.0</ele>
        <time>2020-07-09T11:09:04Z</time>
      </trkpt>
      <trkpt lat="49.416065" lon="6.639354">
        <ele>219.0</ele>
        <time>2020-07-09T11:09:06Z</time>
      </trkpt>
      <trkpt lat="49.415972" lon="6.639418">
        <ele>220.0</ele>
        <time>2020-07-09T11:09:08Z</time>
      </trkpt>
      <trkpt lat="49.415873" lon="6.639474">
        <ele>219.0</ele>
        <time>2020-07-09T11:09:10Z</time>
      </trkpt>
      <trkpt lat="49.415775" lon="6.639527">
        <ele>220.0</ele>
        <time>2020-07-09T11:09:12Z</time>
      </trkpt>
      <trkpt lat="49.415687" lon="6.6396">
        <ele>219.0</ele>
        <time>2020-07-09T11:09:14Z</time>
      </trkpt>
      <trkpt lat="49.415595" lon="6.639673">
        <ele>219.0</ele>
        <time>2020-07-09T11:09:16Z</time>
      </trkpt>
      <trkpt lat="49.4155" lon="6.639747">
        <ele>219.0</ele>
        <time>2020-07-09T11:09:18Z</time>
      </trkpt>
      <trkpt lat="49.415404" lon="6.639812">
        <ele>219.0</ele>
        <time>2020-07-09T11:09:20Z</time>
      </trkpt>
      <trkpt lat="49.415313" lon="6.639877">
        <ele>219.0</ele>
        <time>2020-07-09T11:09:22Z</time>
      </trkpt>
      <trkpt lat="49.415215" lon="6.639939">
        <ele>220.0</ele>
        <time>2020-07-09T11:09:24Z</time>
      </trkpt>
      <trkpt lat="49.415126" lon="6.640002">
        <ele>220.0</ele>
        <time>2020-07-09T11:09:26Z</time>
      </trkpt>
      <trkpt lat="49.414984" lon="6.640107">
        <ele>220.0</ele>
        <time>2020-07-09T11:09:29Z</time>
      </trkpt>
      <trkpt lat="49.414894" lon="6.640176">
        <ele>220.0</ele>
        <time>2020-07-09T11:09:31Z</time>
      </trkpt>
      <trkpt lat="49.414803" lon="6.640246">
        <ele>219.0</ele>
        <time>2020-07-09T11:09:33Z</time>
      </trkpt>
      <trkpt lat="49.414658" lon="6.640358">
        <ele>220.0</ele>
        <time>2020-07-09T11:09:36Z</time>
      </trkpt>
      <trkpt lat="49.414558" lon="6.640427">
        <ele>219.0</ele>
        <time>2020-07-09T11:09:38Z</time>
      </trkpt>
      <trkpt lat="49.414465" lon="6.640497">
        <ele>219.0</ele>
        <time>2020-07-09T11:09:40Z</time>
      </trkpt>
      <trkpt lat="49.414366" lon="6.640565">
        <ele>219.0</ele>
        <time>2020-07-09T11:09:42Z</time>
      </trkpt>
      <trkpt lat="49.414222" lon="6.640669">
        <ele>219.0</ele>
        <time>2020-07-09T11:09:45Z</time>
      </trkpt>
      <trkpt lat="49.414127" lon="6.640745">
        <ele>219.0</ele>
        <time>2020-07-09T11:09:47Z</time>
      </trkpt>
      <trkpt lat="49.414033" lon="6.640824">
        <ele>219.0</ele>
        <time>2020-07-09T11:09:49Z</time>
      </trkpt>
      <trkpt lat="49.41394" lon="6.640888">
        <ele>219.0</ele>
        <time>2020-07-09T11:09:51Z</time>
      </trkpt>
      <trkpt lat="49.413847" lon="6.640967">
        <ele>220.0</ele>
        <time>2020-07-09T11:09:53Z</time>
      </trkpt>
      <trkpt lat="49.41376" lon="6.641034">
        <ele>220.0</ele>
        <time>2020-07-09T11:09:55Z</time>
      </trkpt>
      <trkpt lat="49.413669" lon="6.64111">
        <ele>220.0</ele>
        <time>2020-07-09T11:09:57Z</time>
      </trkpt>
      <trkpt lat="49.413531" lon="6.641223">
        <ele>220.0</ele>
        <time>2020-07-09T11:10:00Z</time>
      </trkpt>
      <trkpt lat="49.413442" lon="6.641306">
        <ele>220.0</ele>
        <time>2020-07-09T11:10:02Z</time>
      </trkpt>
      <trkpt lat="49.413352" lon="6.641386">
        <ele>219.0</ele>
        <time>2020-07-09T11:10:04Z</time>
      </trkpt>
      <trkpt lat="49.413258" lon="6.64148">
        <ele>220.0</ele>
        <time>2020-07-09T11:10:06Z</time>
      </trkpt>
      <trkpt lat="49.413124" lon="6.641603">
        <ele>220.0</ele>
        <time>2020-07-09T11:10:09Z</time>
      </trkpt>
      <trkpt lat="49.413028" lon="6.641698">
        <ele>220.0</ele>
        <time>2020-07-09T11:10:11Z</time>
      </trkpt>
      <trkpt lat="49.412933" lon="6.641783">
        <ele>221.0</ele>
        <time>2020-07-09T11:10:13Z</time>
      </trkpt>
      <trkpt lat="49.412842" lon="6.641869">
        <ele>220.0</ele>
        <time>2020-07-09T11:10:15Z</time>
      </trkpt>
      <trkpt lat="49.412752" lon="6.641954">
        <ele>220.0</ele>
        <time>2020-07-09T11:10:17Z</time>
      </trkpt>
      <trkpt lat="49.41266" lon="6.64205">
        <ele>220.0</ele>
        <time>2020-07-09T11:10:19Z</time>
      </trkpt>
      <trkpt lat="49.412528" lon="6.642187">
        <ele>220.0</ele>
        <time>2020-07-09T11:10:22Z</time>
      </trkpt>
      <trkpt lat="49.412441" lon="6.642279">
        <ele>220.0</ele>
        <time>2020-07-09T11:10:24Z</time>
      </trkpt>
      <trkpt lat="49.412366" lon="6.642374">
        <ele>220.0</ele>
        <time>2020-07-09T11:10:26Z</time>
      </trkpt>
      <trkpt lat="49.412239" lon="6.64252">
        <ele>220.0</ele>
        <time>2020-07-09T11:10:29Z</time>
      </trkpt>
      <trkpt lat="49.412153" lon="6.642624">
        <ele>219.0</ele>
        <time>2020-07-09T11:10:31Z</time>
      </trkpt>
      <trkpt lat="49.412071" lon="6.64273">
        <ele>220.0</ele>
        <time>2020-07-09T11:10:33Z</time>
      </trkpt>
      <trkpt lat="49.411985" lon="6.642828">
        <ele>219.0</ele>
        <time>2020-07-09T11:10:35Z</time>
      </trkpt>
      <trkpt lat="49.411904" lon="6.642928">
        <ele>219.0</ele>
        <time>2020-07-09T11:10:37Z</time>
      </trkpt>
      <trkpt lat="49.41182" lon="6.643028">
        <ele>219.0</ele>
        <time>2020-07-09T11:10:39Z</time>
      </trkpt>
      <trkpt lat="49.411744" lon="6.643139">
        <ele>219.0</ele>
        <time>2020-07-09T11:10:41Z</time>
      </trkpt>
      <trkpt lat="49.411663" lon="6.643244">
        <ele>219.0</ele>
        <time>2020-07-09T11:10:43Z</time>
      </trkpt>
      <trkpt lat="49.411541" lon="6.643417">
        <ele>218.0</ele>
        <time>2020-07-09T11:10:46Z</time>
      </trkpt>
      <trkpt lat="49.411466" lon="6.643528">
        <ele>219.0</ele>
        <time>2020-07-09T11:10:48Z</time>
      </trkpt>
      <trkpt lat="49.41139" lon="6.64364">
        <ele>219.0</ele>
        <time>2020-07-09T11:10:50Z</time>
      </trkpt>
      <trkpt lat="49.411312" lon="6.643748">
        <ele>218.0</ele>
        <time>2020-07-09T11:10:52Z</time>
      </trkpt>
      <trkpt lat="49.411236" lon="6.64386">
        <ele>219.0</ele>
        <time>2020-07-09T11:10:54Z</time>
      </trkpt>
      <trkpt lat="49.411159" lon="6.64397">
        <ele>219.0</ele>
        <time>2020-07-09T11:10:56Z</time>
      </trkpt>
      <trkpt lat="49.411086" lon="6.644076">
        <ele>219.0</ele>
        <time>2020-07-09T11:10:58Z</time>
      </trkpt>
      <trkpt lat="49.410979" lon="6.644256">
        <ele>220.0</ele>
        <time>2020-07-09T11:11:01Z</time>
      </trkpt>
      <trkpt lat="49.410901" lon="6.644377">
        <ele>220.0</ele>
        <time>2020-07-09T11:11:03Z</time>
      </trkpt>
      <trkpt lat="49.410831" lon="6.644489">
        <ele>220.0</ele>
        <time>2020-07-09T11:11:05Z</time>
      </trkpt>
      <trkpt lat="49.410766" lon="6.644607">
        <ele>219.0</ele>
        <time>2020-07-09T11:11:07Z</time>
      </trkpt>
      <trkpt lat="49.410699" lon="6.644729">
        <ele>219.0</ele>
        <time>2020-07-09T11:11:09Z</time>
      </trkpt>
      <trkpt lat="49.410666" lon="6.644786">
        <ele>218.0</ele>
        <time>2020-07-09T11:11:10Z</time>
      </trkpt>
      <trkpt lat="49.410565" lon="6.64496">
        <ele>218.0</ele>
        <time>2020-07-09T11:11:13Z</time>
      </trkpt>
      <trkpt lat="49.410465" lon="6.645146">
        <ele>217.0</ele>
        <time>2020-07-09T11:11:16Z</time>
      </trkpt>
      <trkpt lat="49.4104" lon="6.645271">
        <ele>217.0</ele>
        <time>2020-07-09T11:11:18Z</time>
      </trkpt>
      <trkpt lat="49.410337" lon="6.6454">
        <ele>217.0</ele>
        <time>2020-07-09T11:11:20Z</time>
      </trkpt>
      <trkpt lat="49.410308" lon="6.64546">
        <ele>217.0</ele>
        <time>2020-07-09T11:11:21Z</time>
      </trkpt>
      <trkpt lat="49.410216" lon="6.645642">
        <ele>216.0</ele>
        <time>2020-07-09T11:11:24Z</time>
      </trkpt>
      <trkpt lat="49.410157" lon="6.645763">
        <ele>216.0</ele>
        <time>2020-07-09T11:11:26Z</time>
      </trkpt>
      <trkpt lat="49.410065" lon="6.645943">
        <ele>216.0</ele>
        <time>2020-07-09T11:11:29Z</time>
      </trkpt>
      <trkpt lat="49.41001" lon="6.646074">
        <ele>216.0</ele>
        <time>2020-07-09T11:11:31Z</time>
      </trkpt>
      <trkpt lat="49.409959" lon="6.646205">
        <ele>217.0</ele>
        <time>2020-07-09T11:11:33Z</time>
      </trkpt>
      <trkpt lat="49.409913" lon="6.646321">
        <ele>217.0</ele>
        <time>2020-07-09T11:11:35Z</time>
      </trkpt>
      <trkpt lat="49.409877" lon="6.646443">
        <ele>218.0</ele>
        <time>2020-07-09T11:11:37Z</time>
      </trkpt>
      <trkpt lat="49.409864" lon="6.646507">
        <ele>218.0</ele>
        <time>2020-07-09T11:11:38Z</time>
      </trkpt>
      <trkpt lat="49.409837" lon="6.646657">
        <ele>218.0</ele>
        <time>2020-07-09T11:11:41Z</time>
      </trkpt>
      <trkpt lat="49.409821" lon="6.646739">
        <ele>219.0</ele>
        <time>2020-07-09T11:11:43Z</time>
      </trkpt>
      <trkpt lat="49.409804" lon="6.646869">
        <ele>218.0</ele>
        <time>2020-07-09T11:11:46Z</time>
      </trkpt>
      <trkpt lat="49.409791" lon="6.646942">
        <ele>219.0</ele>
        <time>2020-07-09T11:11:48Z</time>
      </trkpt>
      <trkpt lat="49.409784" lon="6.647026">
        <ele>219.0</ele>
        <time>2020-07-09T11:11:50Z</time>
      </trkpt>
      <trkpt lat="49.409791" lon="6.64711">
        <ele>220.0</ele>
        <time>2020-07-09T11:11:52Z</time>
      </trkpt>
      <trkpt lat="49.4098" lon="6.64718">
        <ele>220.0</ele>
        <time>2020-07-09T11:11:54Z</time>
      </trkpt>
      <trkpt lat="49.409801" lon="6.647286">
        <ele>220.0</ele>
        <time>2020-07-09T11:11:57Z</time>
      </trkpt>
      <trkpt lat="49.40978" lon="6.647356">
        <ele>220.0</ele>
        <time>2020-07-09T11:11:59Z</time>
      </trkpt>
      <trkpt lat="49.409738" lon="6.647429">
        <ele>220.0</ele>
        <time>2020-07-09T11:12:01Z</time>
      </trkpt>
      <trkpt lat="49.409665" lon="6.647555">
        <ele>219.0</ele>
        <time>2020-07-09T11:12:04Z</time>
      </trkpt>
      <trkpt lat="49.409604" lon="6.647649">
        <ele>220.0</ele>
        <time>2020-07-09T11:12:06Z</time>
      </trkpt>
      <trkpt lat="49.409547" lon="6.647745">
        <ele>220.0</ele>
        <time>2020-07-09T11:12:08Z</time>
      </trkpt>
      <trkpt lat="49.409495" lon="6.647833">
        <ele>220.0</ele>
        <time>2020-07-09T11:12:10Z</time>
      </trkpt>
      <trkpt lat="49.409437" lon="6.647919">
        <ele>220.0</ele>
        <time>2020-07-09T11:12:12Z</time>
      </trkpt>
      <trkpt lat="49.409357" lon="6.648056">
        <ele>220.0</ele>
        <time>2020-07-09T11:12:15Z</time>
      </trkpt>
      <trkpt lat="49.409306" lon="6.648161">
        <ele>219.0</ele>
        <time>2020-07-09T11:12:17Z</time>
      </trkpt>
      <trkpt lat="49.409247" lon="6.648258">
        <ele>220.0</ele>
        <time>2020-07-09T11:12:19Z</time>
      </trkpt>
      <trkpt lat="49.409194" lon="6.648365">
        <ele>220.0</ele>
        <time>2020-07-09T11:12:21Z</time>
      </trkpt>
      <trkpt lat="49.409147" lon="6.648478">
        <ele>221.0</ele>
        <time>2020-07-09T11:12:23Z</time>
      </trkpt>
      <trkpt lat="49.409076" lon="6.648651">
        <ele>222.0</ele>
        <time>2020-07-09T11:12:26Z</time>
      </trkpt>
      <trkpt lat="49.40902" lon="6.64876">
        <ele>222.0</ele>
        <time>2020-07-09T11:12:28Z</time>
      </trkpt>
      <trkpt lat="49.408973" lon="6.648886">
        <ele>222.0</ele>
        <time>2020-07-09T11:12:30Z</time>
      </trkpt>
      <trkpt lat="49.408953" lon="6.648945">
        <ele>221.0</ele>
        <time>2020-07-09T11:12:31Z</time>
      </trkpt>
      <trkpt lat="49.408879" lon="6.64912">
        <ele>222.0</ele>
        <time>2020-07-09T11:12:34Z</time>
      </trkpt>
      <trkpt lat="49.408855" lon="6.649181">
        <ele>222.0</ele>
        <time>2020-07-09T11:12:35Z</time>
      </trkpt>
      <trkpt lat="49.40876" lon="6.649438">
        <ele>222.0</ele>
        <time>2020-07-09T11:12:39Z</time>
      </trkpt>
      <trkpt lat="49.408693" lon="6.649627">
        <ele>223.0</ele>
        <time>2020-07-09T11:12:42Z</time>
      </trkpt>
      <trkpt lat="49.40867" lon="6.649695">
        <ele>223.0</ele>
        <time>2020-07-09T11:12:43Z</time>
      </trkpt>
      <trkpt lat="49.408594" lon="6.649904">
        <ele>222.0</ele>
        <time>2020-07-09T11:12:46Z</time>
      </trkpt>
      <trkpt lat="49.408547" lon="6.650037">
        <ele>221.0</ele>
        <time>2020-07-09T11:12:48Z</time>
      </trkpt>
      <trkpt lat="49.408477" lon="6.650229">
        <ele>221.0</ele>
        <time>2020-07-09T11:12:51Z</time>
      </trkpt>
      <trkpt lat="49.4084" lon="6.650431">
        <ele>221.0</ele>
        <time>2020-07-09T11:12:54Z</time>
      </trkpt>
      <trkpt lat="49.408379" lon="6.650496">
        <ele>221.0</ele>
        <time>2020-07-09T11:12:55Z</time>
      </trkpt>
      <trkpt lat="49.408307" lon="6.650676">
        <ele>221.0</ele>
        <time>2020-07-09T11:12:58Z</time>
      </trkpt>
      <trkpt lat="49.408256" lon="6.650788">
        <ele>220.0</ele>
        <time>2020-07-09T11:13:00Z</time>
      </trkpt>
      <trkpt lat="49.408198" lon="6.650916">
        <ele>220.0</ele>
        <time>2020-07-09T11:13:03Z</time>
      </trkpt>
      <trkpt lat="49.408182" lon="6.650951">
        <ele>221.0</ele>
        <time>2020-07-09T11:13:04Z</time>
      </trkpt>
      <trkpt lat="49.40814" lon="6.651047">
        <ele>221.0</ele>
        <time>2020-07-09T11:13:07Z</time>
      </trkpt>
      <trkpt lat="49.408131" lon="6.651126">
        <ele>221.0</ele>
        <time>2020-07-09T11:13:09Z</time>
      </trkpt>
      <trkpt lat="49.408153" lon="6.651206">
        <ele>221.0</ele>
        <time>2020-07-09T11:13:11Z</time>
      </trkpt>
      <trkpt lat="49.408162" lon="6.651244">
        <ele>221.0</ele>
        <time>2020-07-09T11:13:12Z</time>
      </trkpt>
      <trkpt lat="49.408121" lon="6.651365">
        <ele>221.0</ele>
        <time>2020-07-09T11:13:15Z</time>
      </trkpt>
      <trkpt lat="49.408065" lon="6.651453">
        <ele>221.0</ele>
        <time>2020-07-09T11:13:17Z</time>
      </trkpt>
      <trkpt lat="49.408029" lon="6.65153">
        <ele>221.0</ele>
        <time>2020-07-09T11:13:19Z</time>
      </trkpt>
      <trkpt lat="49.408008" lon="6.651546">
        <ele>221.0</ele>
        <time>2020-07-09T11:13:21Z</time>
      </trkpt>
      <trkpt lat="49.407947" lon="6.651541">
        <ele>220.0</ele>
        <time>2020-07-09T11:13:24Z</time>
      </trkpt>
      <trkpt lat="49.407887" lon="6.651574">
        <ele>220.0</ele>
        <time>2020-07-09T11:13:26Z</time>
      </trkpt>
      <trkpt lat="49.407817" lon="6.651673">
        <ele>221.0</ele>
        <time>2020-07-09T11:13:28Z</time>
      </trkpt>
      <trkpt lat="49.407722" lon="6.651829">
        <ele>220.0</ele>
        <time>2020-07-09T11:13:31Z</time>
      </trkpt>
      <trkpt lat="49.407656" lon="6.651927">
        <ele>220.0</ele>
        <time>2020-07-09T11:13:33Z</time>
      </trkpt>
      <trkpt lat="49.407552" lon="6.652089">
        <ele>219.0</ele>
        <time>2020-07-09T11:13:36Z</time>
      </trkpt>
      <trkpt lat="49.407518" lon="6.652144">
        <ele>219.0</ele>
        <time>2020-07-09T11:13:37Z</time>
      </trkpt>
      <trkpt lat="49.407404" lon="6.652302">
        <ele>219.0</ele>
        <time>2020-07-09T11:13:40Z</time>
      </trkpt>
      <trkpt lat="49.407288" lon="6.652461">
        <ele>219.0</ele>
        <time>2020-07-09T11:13:43Z</time>
      </trkpt>
      <trkpt lat="49.407209" lon="6.65257">
        <ele>219.0</ele>
        <time>2020-07-09T11:13:45Z</time>
      </trkpt>
      <trkpt lat="49.407173" lon="6.652622">
        <ele>219.0</ele>
        <time>2020-07-09T11:13:46Z</time>
      </trkpt>
      <trkpt lat="49.407061" lon="6.652781">
        <ele>219.0</ele>
        <time>2020-07-09T11:13:49Z</time>
      </trkpt>
      <trkpt lat="49.406945" lon="6.652945">
        <ele>219.0</ele>
        <time>2020-07-09T11:13:52Z</time>
      </trkpt>
      <trkpt lat="49.406872" lon="6.653052">
        <ele>219.0</ele>
        <time>2020-07-09T11:13:54Z</time>
      </trkpt>
      <trkpt lat="49.406795" lon="6.653156">
        <ele>220.0</ele>
        <time>2020-07-09T11:13:56Z</time>
      </trkpt>
      <trkpt lat="49.406722" lon="6.653264">
        <ele>219.0</ele>
        <time>2020-07-09T11:13:58Z</time>
      </trkpt>
      <trkpt lat="49.406648" lon="6.653367">
        <ele>220.0</ele>
        <time>2020-07-09T11:14:00Z</time>
      </trkpt>
      <trkpt lat="49.40657" lon="6.653477">
        <ele>220.0</ele>
        <time>2020-07-09T11:14:02Z</time>
      </trkpt>
      <trkpt lat="49.4065" lon="6.653595">
        <ele>220.0</ele>
        <time>2020-07-09T11:14:04Z</time>
      </trkpt>
      <trkpt lat="49.406394" lon="6.653761">
        <ele>219.0</ele>
        <time>2020-07-09T11:14:07Z</time>
      </trkpt>
      <trkpt lat="49.406319" lon="6.653859">
        <ele>219.0</ele>
        <time>2020-07-09T11:14:09Z</time>
      </trkpt>
      <trkpt lat="49.406246" lon="6.653961">
        <ele>219.0</ele>
        <time>2020-07-09T11:14:11Z</time>
      </trkpt>
      <trkpt lat="49.40617" lon="6.654079">
        <ele>220.0</ele>
        <time>2020-07-09T11:14:13Z</time>
      </trkpt>
      <trkpt lat="49.406092" lon="6.654211">
        <ele>220.0</ele>
        <time>2020-07-09T11:14:15Z</time>
      </trkpt>
      <trkpt lat="49.40597" lon="6.654387">
        <ele>220.0</ele>
        <time>2020-07-09T11:14:18Z</time>
      </trkpt>
      <trkpt lat="49.405886" lon="6.654506">
        <ele>221.0</ele>
        <time>2020-07-09T11:14:20Z</time>
      </trkpt>
      <trkpt lat="49.405807" lon="6.654625">
        <ele>221.0</ele>
        <time>2020-07-09T11:14:22Z</time>
      </trkpt>
      <trkpt lat="49.40569" lon="6.654795">
        <ele>221.0</ele>
        <time>2020-07-09T11:14:25Z</time>
      </trkpt>
      <trkpt lat="49.405649" lon="6.654848">
        <ele>221.0</ele>
        <time>2020-07-09T11:14:26Z</time>
      </trkpt>
      <trkpt lat="49.405524" lon="6.655037">
        <ele>220.0</ele>
        <time>2020-07-09T11:14:29Z</time>
      </trkpt>
      <trkpt lat="49.405395" lon="6.655218">
        <ele>221.0</ele>
        <time>2020-07-09T11:14:32Z</time>
      </trkpt>
      <trkpt lat="49.405302" lon="6.655339">
        <ele>222.0</ele>
        <time>2020-07-09T11:14:34Z</time>
      </trkpt>
      <trkpt lat="49.405256" lon="6.655398">
        <ele>221.0</ele>
        <time>2020-07-09T11:14:35Z</time>
      </trkpt>
      <trkpt lat="49.405133" lon="6.655563">
        <ele>221.0</ele>
        <time>2020-07-09T11:14:38Z</time>
      </trkpt>
      <trkpt lat="49.405053" lon="6.655673">
        <ele>221.0</ele>
        <time>2020-07-09T11:14:40Z</time>
      </trkpt>
      <trkpt lat="49.404978" lon="6.655792">
        <ele>221.0</ele>
        <time>2020-07-09T11:14:42Z</time>
      </trkpt>
      <trkpt lat="49.404901" lon="6.655915">
        <ele>221.0</ele>
        <time>2020-07-09T11:14:44Z</time>
      </trkpt>
      <trkpt lat="49.404788" lon="6.656083">
        <ele>222.0</ele>
        <time>2020-07-09T11:14:47Z</time>
      </trkpt>
      <trkpt lat="49.404714" lon="6.656191">
        <ele>221.0</ele>
        <time>2020-07-09T11:14:49Z</time>
      </trkpt>
      <trkpt lat="49.404635" lon="6.656304">
        <ele>222.0</ele>
        <time>2020-07-09T11:14:51Z</time>
      </trkpt>
      <trkpt lat="49.404557" lon="6.65642">
        <ele>221.0</ele>
        <time>2020-07-09T11:14:53Z</time>
      </trkpt>
      <trkpt lat="49.40448" lon="6.656538">
        <ele>221.0</ele>
        <time>2020-07-09T11:14:55Z</time>
      </trkpt>
      <trkpt lat="49.404397" lon="6.656657">
        <ele>221.0</ele>
        <time>2020-07-09T11:14:57Z</time>
      </trkpt>
      <trkpt lat="49.404321" lon="6.656772">
        <ele>222.0</ele>
        <time>2020-07-09T11:14:59Z</time>
      </trkpt>
      <trkpt lat="49.404208" lon="6.656939">
        <ele>221.0</ele>
        <time>2020-07-09T11:15:02Z</time>
      </trkpt>
      <trkpt lat="49.404129" lon="6.657059">
        <ele>222.0</ele>
        <time>2020-07-09T11:15:04Z</time>
      </trkpt>
      <trkpt lat="49.404054" lon="6.657181">
        <ele>222.0</ele>
        <time>2020-07-09T11:15:06Z</time>
      </trkpt>
      <trkpt lat="49.40398" lon="6.657297">
        <ele>222.0</ele>
        <time>2020-07-09T11:15:08Z</time>
      </trkpt>
      <trkpt lat="49.403896" lon="6.657406">
        <ele>222.0</ele>
        <time>2020-07-09T11:15:10Z</time>
      </trkpt>
      <trkpt lat="49.403815" lon="6.657524">
        <ele>223.0</ele>
        <time>2020-07-09T11:15:12Z</time>
      </trkpt>
      <trkpt lat="49.403735" lon="6.657633">
        <ele>222.0</ele>
        <time>2020-07-09T11:15:14Z</time>
      </trkpt>
      <trkpt lat="49.403652" lon="6.657751">
        <ele>222.0</ele>
        <time>2020-07-09T11:15:16Z</time>
      </trkpt>
      <trkpt lat="49.40357" lon="6.657872">
        <ele>222.0</ele>
        <time>2020-07-09T11:15:18Z</time>
      </trkpt>
      <trkpt lat="49.40349" lon="6.657985">
        <ele>222.0</ele>
        <time>2020-07-09T11:15:20Z</time>
      </trkpt>
      <trkpt lat="49.403408" lon="6.658104">
        <ele>221.0</ele>
        <time>2020-07-09T11:15:22Z</time>
      </trkpt>
      <trkpt lat="49.403323" lon="6.658219">
        <ele>221.0</ele>
        <time>2020-07-09T11:15:24Z</time>
      </trkpt>
      <trkpt lat="49.403239" lon="6.658321">
        <ele>221.0</ele>
        <time>2020-07-09T11:15:26Z</time>
      </trkpt>
      <trkpt lat="49.403156" lon="6.658429">
        <ele>222.0</ele>
        <time>2020-07-09T11:15:28Z</time>
      </trkpt>
      <trkpt lat="49.403079" lon="6.658535">
        <ele>222.0</ele>
        <time>2020-07-09T11:15:30Z</time>
      </trkpt>
      <trkpt lat="49.402996" lon="6.658647">
        <ele>222.0</ele>
        <time>2020-07-09T11:15:32Z</time>
      </trkpt>
      <trkpt lat="49.402914" lon="6.658758">
        <ele>223.0</ele>
        <time>2020-07-09T11:15:34Z</time>
      </trkpt>
      <trkpt lat="49.402833" lon="6.658872">
        <ele>222.0</ele>
        <time>2020-07-09T11:15:36Z</time>
      </trkpt>
      <trkpt lat="49.402746" lon="6.658978">
        <ele>222.0</ele>
        <time>2020-07-09T11:15:38Z</time>
      </trkpt>
      <trkpt lat="49.402623" lon="6.659138">
        <ele>222.0</ele>
        <time>2020-07-09T11:15:41Z</time>
      </trkpt>
      <trkpt lat="49.402541" lon="6.659243">
        <ele>222.0</ele>
        <time>2020-07-09T11:15:43Z</time>
      </trkpt>
      <trkpt lat="49.402462" lon="6.65935">
        <ele>223.0</ele>
        <time>2020-07-09T11:15:45Z</time>
      </trkpt>
      <trkpt lat="49.402382" lon="6.659463">
        <ele>222.0</ele>
        <time>2020-07-09T11:15:47Z</time>
      </trkpt>
      <trkpt lat="49.402298" lon="6.659567">
        <ele>222.0</ele>
        <time>2020-07-09T11:15:49Z</time>
      </trkpt>
      <trkpt lat="49.402219" lon="6.659673">
        <ele>223.0</ele>
        <time>2020-07-09T11:15:51Z</time>
      </trkpt>
      <trkpt lat="49.402101" lon="6.659835">
        <ele>223.0</ele>
        <time>2020-07-09T11:15:54Z</time>
      </trkpt>
      <trkpt lat="49.402018" lon="6.659933">
        <ele>223.0</ele>
        <time>2020-07-09T11:15:56Z</time>
      </trkpt>
      <trkpt lat="49.401974" lon="6.659988">
        <ele>223.0</ele>
        <time>2020-07-09T11:15:57Z</time>
      </trkpt>
      <trkpt lat="49.401804" lon="6.660185">
        <ele>224.0</ele>
        <time>2020-07-09T11:16:01Z</time>
      </trkpt>
      <trkpt lat="49.401764" lon="6.66024">
        <ele>224.0</ele>
        <time>2020-07-09T11:16:02Z</time>
      </trkpt>
      <trkpt lat="49.401639" lon="6.660397">
        <ele>224.0</ele>
        <time>2020-07-09T11:16:05Z</time>
      </trkpt>
      <trkpt lat="49.40151" lon="6.660551">
        <ele>224.0</ele>
        <time>2020-07-09T11:16:08Z</time>
      </trkpt>
      <trkpt lat="49.401425" lon="6.660648">
        <ele>224.0</ele>
        <time>2020-07-09T11:16:10Z</time>
      </trkpt>
      <trkpt lat="49.401384" lon="6.660699">
        <ele>223.0</ele>
        <time>2020-07-09T11:16:11Z</time>
      </trkpt>
      <trkpt lat="49.401264" lon="6.660851">
        <ele>223.0</ele>
        <time>2020-07-09T11:16:14Z</time>
      </trkpt>
      <trkpt lat="49.401173" lon="6.660946">
        <ele>222.0</ele>
        <time>2020-07-09T11:16:16Z</time>
      </trkpt>
      <trkpt lat="49.401049" lon="6.661086">
        <ele>222.0</ele>
        <time>2020-07-09T11:16:19Z</time>
      </trkpt>
      <trkpt lat="49.401007" lon="6.661137">
        <ele>223.0</ele>
        <time>2020-07-09T11:16:20Z</time>
      </trkpt>
      <trkpt lat="49.400877" lon="6.661282">
        <ele>222.0</ele>
        <time>2020-07-09T11:16:23Z</time>
      </trkpt>
      <trkpt lat="49.400791" lon="6.661375">
        <ele>223.0</ele>
        <time>2020-07-09T11:16:25Z</time>
      </trkpt>
      <trkpt lat="49.400709" lon="6.661473">
        <ele>223.0</ele>
        <time>2020-07-09T11:16:27Z</time>
      </trkpt>
      <trkpt lat="49.400667" lon="6.66152">
        <ele>223.0</ele>
        <time>2020-07-09T11:16:28Z</time>
      </trkpt>
      <trkpt lat="49.40054" lon="6.661671">
        <ele>223.0</ele>
        <time>2020-07-09T11:16:31Z</time>
      </trkpt>
      <trkpt lat="49.400449" lon="6.661773">
        <ele>224.0</ele>
        <time>2020-07-09T11:16:33Z</time>
      </trkpt>
      <trkpt lat="49.400358" lon="6.661859">
        <ele>223.0</ele>
        <time>2020-07-09T11:16:35Z</time>
      </trkpt>
      <trkpt lat="49.400271" lon="6.661957">
        <ele>223.0</ele>
        <time>2020-07-09T11:16:37Z</time>
      </trkpt>
      <trkpt lat="49.400192" lon="6.662056">
        <ele>224.0</ele>
        <time>2020-07-09T11:16:39Z</time>
      </trkpt>
      <trkpt lat="49.40018" lon="6.66208">
        <ele>224.0</ele>
        <time>2020-07-09T11:16:41Z</time>
      </trkpt>
      <trkpt lat="49.400087" lon="6.662175">
        <ele>224.0</ele>
        <time>2020-07-09T11:16:43Z</time>
      </trkpt>
      <trkpt lat="49.399932" lon="6.662331">
        <ele>224.0</ele>
        <time>2020-07-09T11:16:46Z</time>
      </trkpt>
      <trkpt lat="49.399834" lon="6.662432">
        <ele>224.0</ele>
        <time>2020-07-09T11:16:48Z</time>
      </trkpt>
      <trkpt lat="49.399785" lon="6.662482">
        <ele>224.0</ele>
        <time>2020-07-09T11:16:49Z</time>
      </trkpt>
      <trkpt lat="49.399605" lon="6.662667">
        <ele>223.0</ele>
        <time>2020-07-09T11:16:53Z</time>
      </trkpt>
      <trkpt lat="49.399516" lon="6.662763">
        <ele>223.0</ele>
        <time>2020-07-09T11:16:55Z</time>
      </trkpt>
      <trkpt lat="49.399424" lon="6.662856">
        <ele>223.0</ele>
        <time>2020-07-09T11:16:57Z</time>
      </trkpt>
      <trkpt lat="49.39933" lon="6.662953">
        <ele>223.0</ele>
        <time>2020-07-09T11:16:59Z</time>
      </trkpt>
      <trkpt lat="49.399244" lon="6.663034">
        <ele>224.0</ele>
        <time>2020-07-09T11:17:01Z</time>
      </trkpt>
      <trkpt lat="49.399165" lon="6.663119">
        <ele>223.0</ele>
        <time>2020-07-09T11:17:03Z</time>
      </trkpt>
      <trkpt lat="49.399049" lon="6.663246">
        <ele>223.0</ele>
        <time>2020-07-09T11:17:06Z</time>
      </trkpt>
      <trkpt lat="49.398971" lon="6.663324">
        <ele>222.0</ele>
        <time>2020-07-09T11:17:08Z</time>
      </trkpt>
      <trkpt lat="49.398892" lon="6.663402">
        <ele>222.0</ele>
        <time>2020-07-09T11:17:10Z</time>
      </trkpt>
      <trkpt lat="49.398811" lon="6.663472">
        <ele>223.0</ele>
        <time>2020-07-09T11:17:12Z</time>
      </trkpt>
      <trkpt lat="49.39873" lon="6.663545">
        <ele>222.0</ele>
        <time>2020-07-09T11:17:14Z</time>
      </trkpt>
      <trkpt lat="49.39869" lon="6.663582">
        <ele>222.0</ele>
        <time>2020-07-09T11:17:15Z</time>
      </trkpt>
      <trkpt lat="49.398581" lon="6.663692">
        <ele>221.0</ele>
        <time>2020-07-09T11:17:18Z</time>
      </trkpt>
      <trkpt lat="49.398511" lon="6.663774">
        <ele>221.0</ele>
        <time>2020-07-09T11:17:20Z</time>
      </trkpt>
      <trkpt lat="49.398394" lon="6.66387">
        <ele>222.0</ele>
        <time>2020-07-09T11:17:23Z</time>
      </trkpt>
      <trkpt lat="49.398321" lon="6.663949">
        <ele>222.0</ele>
        <time>2020-07-09T11:17:25Z</time>
      </trkpt>
      <trkpt lat="49.398284" lon="6.663989">
        <ele>223.0</ele>
        <time>2020-07-09T11:17:26Z</time>
      </trkpt>
      <trkpt lat="49.398143" lon="6.664124">
        <ele>223.0</ele>
        <time>2020-07-09T11:17:30Z</time>
      </trkpt>
      <trkpt lat="49.398078" lon="6.664188">
        <ele>222.0</ele>
        <time>2020-07-09T11:17:32Z</time>
      </trkpt>
      <trkpt lat="49.398044" lon="6.664219">
        <ele>223.0</ele>
        <time>2020-07-09T11:17:33Z</time>
      </trkpt>
      <trkpt lat="49.39791" lon="6.664363">
        <ele>222.0</ele>
        <time>2020-07-09T11:17:37Z</time>
      </trkpt>
      <trkpt lat="49.397841" lon="6.664422">
        <ele>222.0</ele>
        <time>2020-07-09T11:17:39Z</time>
      </trkpt>
      <trkpt lat="49.39777" lon="6.664492">
        <ele>222.0</ele>
        <time>2020-07-09T11:17:41Z</time>
      </trkpt>
      <trkpt lat="49.397701" lon="6.664559">
        <ele>223.0</ele>
        <time>2020-07-09T11:17:43Z</time>
      </trkpt>
      <trkpt lat="49.397626" lon="6.664628">
        <ele>223.0</ele>
        <time>2020-07-09T11:17:45Z</time>
      </trkpt>
      <trkpt lat="49.397552" lon="6.664709">
        <ele>224.0</ele>
        <time>2020-07-09T11:17:47Z</time>
      </trkpt>
      <trkpt lat="49.397442" lon="6.664825">
        <ele>225.0</ele>
        <time>2020-07-09T11:17:50Z</time>
      </trkpt>
      <trkpt lat="49.397364" lon="6.664896">
        <ele>226.0</ele>
        <time>2020-07-09T11:17:52Z</time>
      </trkpt>
      <trkpt lat="49.397291" lon="6.664962">
        <ele>225.0</ele>
        <time>2020-07-09T11:17:54Z</time>
      </trkpt>
      <trkpt lat="49.397229" lon="6.665033">
        <ele>225.0</ele>
        <time>2020-07-09T11:17:56Z</time>
      </trkpt>
      <trkpt lat="49.397172" lon="6.665093">
        <ele>225.0</ele>
        <time>2020-07-09T11:17:58Z</time>
      </trkpt>
      <trkpt lat="49.39714" lon="6.665124">
        <ele>224.0</ele>
        <time>2020-07-09T11:18:00Z</time>
      </trkpt>
      <trkpt lat="49.397103" lon="6.665159">
        <ele>224.0</ele>
        <time>2020-07-09T11:18:02Z</time>
      </trkpt>
      <trkpt lat="49.397046" lon="6.66521">
        <ele>224.0</ele>
        <time>2020-07-09T11:18:04Z</time>
      </trkpt>
      <trkpt lat="49.396964" lon="6.665291">
        <ele>224.0</ele>
        <time>2020-07-09T11:18:06Z</time>
      </trkpt>
      <trkpt lat="49.396869" lon="6.665376">
        <ele>224.0</ele>
        <time>2020-07-09T11:18:08Z</time>
      </trkpt>
      <trkpt lat="49.396771" lon="6.665468">
        <ele>224.0</ele>
        <time>2020-07-09T11:18:10Z</time>
      </trkpt>
      <trkpt lat="49.396684" lon="6.665551">
        <ele>224.0</ele>
        <time>2020-07-09T11:18:12Z</time>
      </trkpt>
      <trkpt lat="49.396594" lon="6.665637">
        <ele>224.0</ele>
        <time>2020-07-09T11:18:14Z</time>
      </trkpt>
      <trkpt lat="49.396501" lon="6.665721">
        <ele>224.0</ele>
        <time>2020-07-09T11:18:16Z</time>
      </trkpt>
      <trkpt lat="49.396416" lon="6.665805">
        <ele>224.0</ele>
        <time>2020-07-09T11:18:18Z</time>
      </trkpt>
      <trkpt lat="49.396328" lon="6.665887">
        <ele>224.0</ele>
        <time>2020-07-09T11:18:20Z</time>
      </trkpt>
      <trkpt lat="49.39624" lon="6.665965">
        <ele>224.0</ele>
        <time>2020-07-09T11:18:22Z</time>
      </trkpt>
      <trkpt lat="49.396141" lon="6.666053">
        <ele>224.0</ele>
        <time>2020-07-09T11:18:24Z</time>
      </trkpt>
      <trkpt lat="49.396017" lon="6.666173">
        <ele>222.0</ele>
        <time>2020-07-09T11:18:27Z</time>
      </trkpt>
      <trkpt lat="49.39593" lon="6.666258">
        <ele>222.0</ele>
        <time>2020-07-09T11:18:29Z</time>
      </trkpt>
      <trkpt lat="49.395791" lon="6.666383">
        <ele>222.0</ele>
        <time>2020-07-09T11:18:32Z</time>
      </trkpt>
      <trkpt lat="49.39575" lon="6.66642">
        <ele>221.0</ele>
        <time>2020-07-09T11:18:33Z</time>
      </trkpt>
      <trkpt lat="49.395621" lon="6.666542">
        <ele>222.0</ele>
        <time>2020-07-09T11:18:36Z</time>
      </trkpt>
      <trkpt lat="49.395579" lon="6.666579">
        <ele>222.0</ele>
        <time>2020-07-09T11:18:37Z</time>
      </trkpt>
      <trkpt lat="49.39545" lon="6.666711">
        <ele>221.0</ele>
        <time>2020-07-09T11:18:40Z</time>
      </trkpt>
      <trkpt lat="49.395363" lon="6.666809">
        <ele>221.0</ele>
        <time>2020-07-09T11:18:42Z</time>
      </trkpt>
      <trkpt lat="49.395224" lon="6.666958">
        <ele>222.0</ele>
        <time>2020-07-09T11:18:45Z</time>
      </trkpt>
      <trkpt lat="49.39513" lon="6.667041">
        <ele>222.0</ele>
        <time>2020-07-09T11:18:47Z</time>
      </trkpt>
      <trkpt lat="49.395035" lon="6.667136">
        <ele>222.0</ele>
        <time>2020-07-09T11:18:49Z</time>
      </trkpt>
      <trkpt lat="49.39493" lon="6.667235">
        <ele>223.0</ele>
        <time>2020-07-09T11:18:51Z</time>
      </trkpt>
      <trkpt lat="49.394879" lon="6.667282">
        <ele>223.0</ele>
        <time>2020-07-09T11:18:52Z</time>
      </trkpt>
      <trkpt lat="49.394688" lon="6.667453">
        <ele>222.0</ele>
        <time>2020-07-09T11:18:56Z</time>
      </trkpt>
      <trkpt lat="49.394596" lon="6.667551">
        <ele>222.0</ele>
        <time>2020-07-09T11:18:58Z</time>
      </trkpt>
      <trkpt lat="49.3945" lon="6.667641">
        <ele>222.0</ele>
        <time>2020-07-09T11:19:00Z</time>
      </trkpt>
      <trkpt lat="49.394405" lon="6.667741">
        <ele>222.0</ele>
        <time>2020-07-09T11:19:02Z</time>
      </trkpt>
      <trkpt lat="49.394313" lon="6.667831">
        <ele>221.0</ele>
        <time>2020-07-09T11:19:04Z</time>
      </trkpt>
      <trkpt lat="49.394214" lon="6.667923">
        <ele>221.0</ele>
        <time>2020-07-09T11:19:06Z</time>
      </trkpt>
      <trkpt lat="49.394169" lon="6.667964">
        <ele>221.0</ele>
        <time>2020-07-09T11:19:07Z</time>
      </trkpt>
      <trkpt lat="49.394022" lon="6.668103">
        <ele>222.0</ele>
        <time>2020-07-09T11:19:10Z</time>
      </trkpt>
      <trkpt lat="49.393926" lon="6.668193">
        <ele>222.0</ele>
        <time>2020-07-09T11:19:12Z</time>
      </trkpt>
      <trkpt lat="49.393781" lon="6.668349">
        <ele>222.0</ele>
        <time>2020-07-09T11:19:15Z</time>
      </trkpt>
      <trkpt lat="49.39368" lon="6.668449">
        <ele>221.0</ele>
        <time>2020-07-09T11:19:17Z</time>
      </trkpt>
      <trkpt lat="49.393537" lon="6.668604">
        <ele>221.0</ele>
        <time>2020-07-09T11:19:20Z</time>
      </trkpt>
      <trkpt lat="49.393435" lon="6.668708">
        <ele>221.0</ele>
        <time>2020-07-09T11:19:22Z</time>
      </trkpt>
      <trkpt lat="49.393386" lon="6.668766">
        <ele>222.0</ele>
        <time>2020-07-09T11:19:23Z</time>
      </trkpt>
      <trkpt lat="49.393237" lon="6.668932">
        <ele>221.0</ele>
        <time>2020-07-09T11:19:26Z</time>
      </trkpt>
      <trkpt lat="49.393134" lon="6.669038">
        <ele>222.0</ele>
        <time>2020-07-09T11:19:28Z</time>
      </trkpt>
      <trkpt lat="49.392988" lon="6.669211">
        <ele>222.0</ele>
        <time>2020-07-09T11:19:31Z</time>
      </trkpt>
      <trkpt lat="49.392893" lon="6.669338">
        <ele>222.0</ele>
        <time>2020-07-09T11:19:33Z</time>
      </trkpt>
      <trkpt lat="49.392798" lon="6.669464">
        <ele>222.0</ele>
        <time>2020-07-09T11:19:35Z</time>
      </trkpt>
      <trkpt lat="49.392696" lon="6.669588">
        <ele>223.0</ele>
        <time>2020-07-09T11:19:37Z</time>
      </trkpt>
      <trkpt lat="49.392594" lon="6.669713">
        <ele>223.0</ele>
        <time>2020-07-09T11:19:39Z</time>
      </trkpt>
      <trkpt lat="49.392497" lon="6.669834">
        <ele>223.0</ele>
        <time>2020-07-09T11:19:41Z</time>
      </trkpt>
      <trkpt lat="49.392404" lon="6.669948">
        <ele>223.0</ele>
        <time>2020-07-09T11:19:43Z</time>
      </trkpt>
      <trkpt lat="49.392318" lon="6.670073">
        <ele>223.0</ele>
        <time>2020-07-09T11:19:45Z</time>
      </trkpt>
      <trkpt lat="49.392234" lon="6.670195">
        <ele>223.0</ele>
        <time>2020-07-09T11:19:47Z</time>
      </trkpt>
      <trkpt lat="49.392151" lon="6.670312">
        <ele>223.0</ele>
        <time>2020-07-09T11:19:49Z</time>
      </trkpt>
      <trkpt lat="49.392032" lon="6.670481">
        <ele>223.0</ele>
        <time>2020-07-09T11:19:52Z</time>
      </trkpt>
      <trkpt lat="49.391951" lon="6.670601">
        <ele>223.0</ele>
        <time>2020-07-09T11:19:54Z</time>
      </trkpt>
      <trkpt lat="49.391873" lon="6.670714">
        <ele>222.0</ele>
        <time>2020-07-09T11:19:56Z</time>
      </trkpt>
      <trkpt lat="49.391767" lon="6.670903">
        <ele>221.0</ele>
        <time>2020-07-09T11:19:59Z</time>
      </trkpt>
      <trkpt lat="49.3917" lon="6.671037">
        <ele>222.0</ele>
        <time>2020-07-09T11:20:01Z</time>
      </trkpt>
      <trkpt lat="49.391622" lon="6.671175">
        <ele>221.0</ele>
        <time>2020-07-09T11:20:03Z</time>
      </trkpt>
      <trkpt lat="49.39151" lon="6.67136">
        <ele>220.0</ele>
        <time>2020-07-09T11:20:06Z</time>
      </trkpt>
      <trkpt lat="49.391441" lon="6.671478">
        <ele>219.0</ele>
        <time>2020-07-09T11:20:08Z</time>
      </trkpt>
      <trkpt lat="49.391377" lon="6.671594">
        <ele>219.0</ele>
        <time>2020-07-09T11:20:10Z</time>
      </trkpt>
      <trkpt lat="49.391326" lon="6.671683">
        <ele>219.0</ele>
        <time>2020-07-09T11:20:13Z</time>
      </trkpt>
      <trkpt lat="49.391318" lon="6.671702">
        <ele>219.0</ele>
        <time>2020-07-09T11:20:15Z</time>
      </trkpt>
      <trkpt lat="49.391319" lon="6.671702">
        <ele>219.0</ele>
        <time>2020-07-09T11:20:17Z</time>
      </trkpt>
      <trkpt lat="49.391318" lon="6.671702">
        <ele>219.0</ele>
        <time>2020-07-09T11:20:18Z</time>
      </trkpt>
      <trkpt lat="49.391318" lon="6.671702">
        <ele>219.0</ele>
        <time>2020-07-09T11:20:21Z</time>
      </trkpt>
      <trkpt lat="49.391299" lon="6.671741">
        <ele>227.0</ele>
        <time>2020-07-09T11:21:55Z</time>
      </trkpt>
      <trkpt lat="49.391299" lon="6.671741">
        <ele>227.0</ele>
        <time>2020-07-09T11:21:57Z</time>
      </trkpt>
      <trkpt lat="49.391299" lon="6.671741">
        <ele>227.0</ele>
        <time>2020-07-09T11:22:00Z</time>
      </trkpt>
      <trkpt lat="49.391301" lon="6.67173">
        <ele>227.0</ele>
        <time>2020-07-09T11:22:02Z</time>
      </trkpt>
      <trkpt lat="49.391301" lon="6.671729">
        <ele>227.0</ele>
        <time>2020-07-09T11:22:04Z</time>
      </trkpt>
      <trkpt lat="49.391301" lon="6.671729">
        <ele>227.0</ele>
        <time>2020-07-09T11:22:05Z</time>
      </trkpt>
      <trkpt lat="49.391317" lon="6.671722">
        <ele>226.0</ele>
        <time>2020-07-09T11:22:09Z</time>
      </trkpt>
      <trkpt lat="49.391315" lon="6.671704">
        <ele>226.0</ele>
        <time>2020-07-09T11:22:11Z</time>
      </trkpt>
      <trkpt lat="49.391311" lon="6.6717">
        <ele>225.0</ele>
        <time>2020-07-09T11:22:13Z</time>
      </trkpt>
      <trkpt lat="49.391311" lon="6.6717">
        <ele>225.0</ele>
        <time>2020-07-09T11:22:15Z</time>
      </trkpt>
      <trkpt lat="49.391309" lon="6.671698">
        <ele>225.0</ele>
        <time>2020-07-09T11:22:17Z</time>
      </trkpt>
      <trkpt lat="49.391322" lon="6.671706">
        <ele>225.0</ele>
        <time>2020-07-09T11:22:19Z</time>
      </trkpt>
      <trkpt lat="49.391355" lon="6.671693">
        <ele>225.0</ele>
        <time>2020-07-09T11:22:21Z</time>
      </trkpt>
      <trkpt lat="49.391411" lon="6.671774">
        <ele>226.0</ele>
        <time>2020-07-09T11:22:24Z</time>
      </trkpt>
      <trkpt lat="49.391378" lon="6.671864">
        <ele>225.0</ele>
        <time>2020-07-09T11:22:26Z</time>
      </trkpt>
      <trkpt lat="49.391347" lon="6.671952">
        <ele>224.0</ele>
        <time>2020-07-09T11:22:28Z</time>
      </trkpt>
      <trkpt lat="49.391322" lon="6.672042">
        <ele>225.0</ele>
        <time>2020-07-09T11:22:30Z</time>
      </trkpt>
      <trkpt lat="49.391295" lon="6.672134">
        <ele>225.0</ele>
        <time>2020-07-09T11:22:32Z</time>
      </trkpt>
      <trkpt lat="49.391279" lon="6.672199">
        <ele>224.0</ele>
        <time>2020-07-09T11:22:34Z</time>
      </trkpt>
      <trkpt lat="49.391265" lon="6.67225">
        <ele>224.0</ele>
        <time>2020-07-09T11:22:36Z</time>
      </trkpt>
      <trkpt lat="49.391243" lon="6.672297">
        <ele>224.0</ele>
        <time>2020-07-09T11:22:38Z</time>
      </trkpt>
      <trkpt lat="49.391226" lon="6.672337">
        <ele>224.0</ele>
        <time>2020-07-09T11:22:40Z</time>
      </trkpt>
      <trkpt lat="49.391224" lon="6.672358">
        <ele>224.0</ele>
        <time>2020-07-09T11:22:42Z</time>
      </trkpt>
      <trkpt lat="49.391223" lon="6.672328">
        <ele>224.0</ele>
        <time>2020-07-09T11:22:44Z</time>
      </trkpt>
      <trkpt lat="49.391248" lon="6.672264">
        <ele>224.0</ele>
        <time>2020-07-09T11:22:47Z</time>
      </trkpt>
      <trkpt lat="49.391262" lon="6.672181">
        <ele>223.0</ele>
        <time>2020-07-09T11:22:49Z</time>
      </trkpt>
      <trkpt lat="49.391322" lon="6.672041">
        <ele>223.0</ele>
        <time>2020-07-09T11:22:52Z</time>
      </trkpt>
      <trkpt lat="49.39137" lon="6.671931">
        <ele>223.0</ele>
        <time>2020-07-09T11:22:54Z</time>
      </trkpt>
      <trkpt lat="49.391412" lon="6.671836">
        <ele>222.0</ele>
        <time>2020-07-09T11:22:56Z</time>
      </trkpt>
      <trkpt lat="49.391409" lon="6.671798">
        <ele>222.0</ele>
        <time>2020-07-09T11:22:59Z</time>
      </trkpt>
      <trkpt lat="49.391413" lon="6.671803">
        <ele>222.0</ele>
        <time>2020-07-09T11:23:01Z</time>
      </trkpt>
      <trkpt lat="49.391413" lon="6.671804">
        <ele>222.0</ele>
        <time>2020-07-09T11:23:03Z</time>
      </trkpt>
      <trkpt lat="49.391413" lon="6.671804">
        <ele>222.0</ele>
        <time>2020-07-09T11:23:05Z</time>
      </trkpt>
      <trkpt lat="49.391413" lon="6.671804">
        <ele>222.0</ele>
        <time>2020-07-09T11:23:07Z</time>
      </trkpt>
      <trkpt lat="49.391413" lon="6.671804">
        <ele>222.0</ele>
        <time>2020-07-09T11:23:09Z</time>
      </trkpt>
      <trkpt lat="49.391413" lon="6.671804">
        <ele>222.0</ele>
        <time>2020-07-09T11:23:11Z</time>
      </trkpt>
      <trkpt lat="49.391413" lon="6.671804">
        <ele>222.0</ele>
        <time>2020-07-09T11:23:13Z</time>
      </trkpt>
      <trkpt lat="49.391413" lon="6.671804">
        <ele>222.0</ele>
        <time>2020-07-09T11:23:15Z</time>
      </trkpt>
      <trkpt lat="49.391413" lon="6.671804">
        <ele>222.0</ele>
        <time>2020-07-09T11:23:17Z</time>
      </trkpt>
      <trkpt lat="49.391413" lon="6.671804">
        <ele>222.0</ele>
        <time>2020-07-09T11:23:19Z</time>
      </trkpt>
      <trkpt lat="49.391413" lon="6.671804">
        <ele>222.0</ele>
        <time>2020-07-09T11:23:21Z</time>
      </trkpt>
      <trkpt lat="49.39141" lon="6.671792">
        <ele>222.0</ele>
        <time>2020-07-09T11:23:23Z</time>
      </trkpt>
      <trkpt lat="49.391398" lon="6.671766">
        <ele>223.0</ele>
        <time>2020-07-09T11:23:25Z</time>
      </trkpt>
      <trkpt lat="49.391366" lon="6.671731">
        <ele>223.0</ele>
        <time>2020-07-09T11:23:27Z</time>
      </trkpt>
      <trkpt lat="49.39133" lon="6.671716">
        <ele>223.0</ele>
        <time>2020-07-09T11:23:29Z</time>
      </trkpt>
      <trkpt lat="49.391312" lon="6.671777">
        <ele>223.0</ele>
        <time>2020-07-09T11:23:31Z</time>
      </trkpt>
      <trkpt lat="49.391288" lon="6.671846">
        <ele>223.0</ele>
        <time>2020-07-09T11:23:33Z</time>
      </trkpt>
      <trkpt lat="49.39126" lon="6.671921">
        <ele>223.0</ele>
        <time>2020-07-09T11:23:35Z</time>
      </trkpt>
      <trkpt lat="49.391226" lon="6.671997">
        <ele>223.0</ele>
        <time>2020-07-09T11:23:37Z</time>
      </trkpt>
      <trkpt lat="49.391166" lon="6.67201">
        <ele>223.0</ele>
        <time>2020-07-09T11:23:39Z</time>
      </trkpt>
      <trkpt lat="49.391092" lon="6.672058">
        <ele>224.0</ele>
        <time>2020-07-09T11:23:42Z</time>
      </trkpt>
      <trkpt lat="49.391076" lon="6.672084">
        <ele>224.0</ele>
        <time>2020-07-09T11:23:43Z</time>
      </trkpt>
      <trkpt lat="49.391016" lon="6.672217">
        <ele>224.0</ele>
        <time>2020-07-09T11:23:46Z</time>
      </trkpt>
      <trkpt lat="49.390992" lon="6.672265">
        <ele>224.0</ele>
        <time>2020-07-09T11:23:47Z</time>
      </trkpt>
      <trkpt lat="49.390929" lon="6.67242">
        <ele>223.0</ele>
        <time>2020-07-09T11:23:50Z</time>
      </trkpt>
      <trkpt lat="49.390874" lon="6.672522">
        <ele>223.0</ele>
        <time>2020-07-09T11:23:52Z</time>
      </trkpt>
      <trkpt lat="49.390825" lon="6.672619">
        <ele>223.0</ele>
        <time>2020-07-09T11:23:54Z</time>
      </trkpt>
      <trkpt lat="49.390763" lon="6.672781">
        <ele>222.0</ele>
        <time>2020-07-09T11:23:57Z</time>
      </trkpt>
      <trkpt lat="49.390733" lon="6.672889">
        <ele>221.0</ele>
        <time>2020-07-09T11:23:59Z</time>
      </trkpt>
      <trkpt lat="49.390682" lon="6.672997">
        <ele>221.0</ele>
        <time>2020-07-09T11:24:01Z</time>
      </trkpt>
      <trkpt lat="49.39064" lon="6.673098">
        <ele>220.0</ele>
        <time>2020-07-09T11:24:03Z</time>
      </trkpt>
      <trkpt lat="49.390616" lon="6.673159">
        <ele>220.0</ele>
        <time>2020-07-09T11:24:04Z</time>
      </trkpt>
      <trkpt lat="49.390561" lon="6.673328">
        <ele>221.0</ele>
        <time>2020-07-09T11:24:07Z</time>
      </trkpt>
      <trkpt lat="49.390518" lon="6.673422">
        <ele>222.0</ele>
        <time>2020-07-09T11:24:09Z</time>
      </trkpt>
      <trkpt lat="49.390478" lon="6.673528">
        <ele>222.0</ele>
        <time>2020-07-09T11:24:11Z</time>
      </trkpt>
      <trkpt lat="49.390426" lon="6.67363">
        <ele>222.0</ele>
        <time>2020-07-09T11:24:13Z</time>
      </trkpt>
      <trkpt lat="49.390402" lon="6.673688">
        <ele>222.0</ele>
        <time>2020-07-09T11:24:14Z</time>
      </trkpt>
      <trkpt lat="49.390308" lon="6.673942">
        <ele>222.0</ele>
        <time>2020-07-09T11:24:18Z</time>
      </trkpt>
      <trkpt lat="49.390257" lon="6.674064">
        <ele>222.0</ele>
        <time>2020-07-09T11:24:20Z</time>
      </trkpt>
      <trkpt lat="49.390209" lon="6.674182">
        <ele>222.0</ele>
        <time>2020-07-09T11:24:22Z</time>
      </trkpt>
      <trkpt lat="49.390153" lon="6.674312">
        <ele>222.0</ele>
        <time>2020-07-09T11:24:24Z</time>
      </trkpt>
      <trkpt lat="49.39004" lon="6.674515">
        <ele>221.0</ele>
        <time>2020-07-09T11:24:27Z</time>
      </trkpt>
      <trkpt lat="49.390001" lon="6.674581">
        <ele>221.0</ele>
        <time>2020-07-09T11:24:28Z</time>
      </trkpt>
      <trkpt lat="49.389859" lon="6.674858">
        <ele>221.0</ele>
        <time>2020-07-09T11:24:32Z</time>
      </trkpt>
      <trkpt lat="49.389807" lon="6.675001">
        <ele>221.0</ele>
        <time>2020-07-09T11:24:34Z</time>
      </trkpt>
      <trkpt lat="49.389748" lon="6.675148">
        <ele>222.0</ele>
        <time>2020-07-09T11:24:36Z</time>
      </trkpt>
      <trkpt lat="49.389685" lon="6.675291">
        <ele>223.0</ele>
        <time>2020-07-09T11:24:38Z</time>
      </trkpt>
      <trkpt lat="49.389625" lon="6.675419">
        <ele>223.0</ele>
        <time>2020-07-09T11:24:40Z</time>
      </trkpt>
      <trkpt lat="49.389533" lon="6.675612">
        <ele>223.0</ele>
        <time>2020-07-09T11:24:43Z</time>
      </trkpt>
      <trkpt lat="49.389481" lon="6.675741">
        <ele>223.0</ele>
        <time>2020-07-09T11:24:45Z</time>
      </trkpt>
      <trkpt lat="49.389421" lon="6.675874">
        <ele>224.0</ele>
        <time>2020-07-09T11:24:47Z</time>
      </trkpt>
      <trkpt lat="49.38939" lon="6.67594">
        <ele>224.0</ele>
        <time>2020-07-09T11:24:48Z</time>
      </trkpt>
      <trkpt lat="49.389303" lon="6.676125">
        <ele>224.0</ele>
        <time>2020-07-09T11:24:51Z</time>
      </trkpt>
      <trkpt lat="49.389251" lon="6.676252">
        <ele>224.0</ele>
        <time>2020-07-09T11:24:53Z</time>
      </trkpt>
      <trkpt lat="49.389223" lon="6.676347">
        <ele>225.0</ele>
        <time>2020-07-09T11:24:55Z</time>
      </trkpt>
      <trkpt lat="49.389212" lon="6.676382">
        <ele>225.0</ele>
        <time>2020-07-09T11:24:57Z</time>
      </trkpt>
      <trkpt lat="49.389214" lon="6.676406">
        <ele>225.0</ele>
        <time>2020-07-09T11:24:59Z</time>
      </trkpt>
      <trkpt lat="49.389216" lon="6.676407">
        <ele>225.0</ele>
        <time>2020-07-09T11:25:01Z</time>
      </trkpt>
      <trkpt lat="49.389223" lon="6.676398">
        <ele>225.0</ele>
        <time>2020-07-09T11:25:04Z</time>
      </trkpt>
      <trkpt lat="49.389232" lon="6.676378">
        <ele>226.0</ele>
        <time>2020-07-09T11:25:06Z</time>
      </trkpt>
      <trkpt lat="49.389241" lon="6.676358">
        <ele>225.0</ele>
        <time>2020-07-09T11:25:08Z</time>
      </trkpt>
      <trkpt lat="49.389273" lon="6.676295">
        <ele>225.0</ele>
        <time>2020-07-09T11:25:11Z</time>
      </trkpt>
      <trkpt lat="49.38926" lon="6.676245">
        <ele>225.0</ele>
        <time>2020-07-09T11:25:13Z</time>
      </trkpt>
      <trkpt lat="49.389274" lon="6.676186">
        <ele>226.0</ele>
        <time>2020-07-09T11:25:15Z</time>
      </trkpt>
      <trkpt lat="49.389309" lon="6.676103">
        <ele>226.0</ele>
        <time>2020-07-09T11:25:18Z</time>
      </trkpt>
      <trkpt lat="49.389338" lon="6.676043">
        <ele>225.0</ele>
        <time>2020-07-09T11:25:20Z</time>
      </trkpt>
      <trkpt lat="49.389395" lon="6.675936">
        <ele>225.0</ele>
        <time>2020-07-09T11:25:23Z</time>
      </trkpt>
      <trkpt lat="49.389422" lon="6.675857">
        <ele>225.0</ele>
        <time>2020-07-09T11:25:25Z</time>
      </trkpt>
      <trkpt lat="49.389436" lon="6.675814">
        <ele>225.0</ele>
        <time>2020-07-09T11:25:26Z</time>
      </trkpt>
      <trkpt lat="49.389481" lon="6.675707">
        <ele>226.0</ele>
        <time>2020-07-09T11:25:30Z</time>
      </trkpt>
      <trkpt lat="49.389497" lon="6.675665">
        <ele>225.0</ele>
        <time>2020-07-09T11:25:32Z</time>
      </trkpt>
      <trkpt lat="49.389505" lon="6.675644">
        <ele>225.0</ele>
        <time>2020-07-09T11:25:33Z</time>
      </trkpt>
      <trkpt lat="49.389505" lon="6.675622">
        <ele>225.0</ele>
        <time>2020-07-09T11:25:36Z</time>
      </trkpt>
      <trkpt lat="49.389526" lon="6.675638">
        <ele>225.0</ele>
        <time>2020-07-09T11:25:38Z</time>
      </trkpt>
      <trkpt lat="49.38956" lon="6.675684">
        <ele>225.0</ele>
        <time>2020-07-09T11:25:40Z</time>
      </trkpt>
      <trkpt lat="49.389557" lon="6.675758">
        <ele>225.0</ele>
        <time>2020-07-09T11:25:42Z</time>
      </trkpt>
      <trkpt lat="49.389534" lon="6.675856">
        <ele>224.0</ele>
        <time>2020-07-09T11:25:44Z</time>
      </trkpt>
      <trkpt lat="49.3895" lon="6.675957">
        <ele>224.0</ele>
        <time>2020-07-09T11:25:46Z</time>
      </trkpt>
      <trkpt lat="49.38943" lon="6.676127">
        <ele>223.0</ele>
        <time>2020-07-09T11:25:49Z</time>
      </trkpt>
      <trkpt lat="49.389391" lon="6.676248">
        <ele>223.0</ele>
        <time>2020-07-09T11:25:51Z</time>
      </trkpt>
      <trkpt lat="49.38936" lon="6.676369">
        <ele>224.0</ele>
        <time>2020-07-09T11:25:53Z</time>
      </trkpt>
      <trkpt lat="49.389336" lon="6.676488">
        <ele>223.0</ele>
        <time>2020-07-09T11:25:55Z</time>
      </trkpt>
      <trkpt lat="49.389313" lon="6.676596">
        <ele>223.0</ele>
        <time>2020-07-09T11:25:57Z</time>
      </trkpt>
      <trkpt lat="49.389278" lon="6.676695">
        <ele>223.0</ele>
        <time>2020-07-09T11:25:59Z</time>
      </trkpt>
      <trkpt lat="49.389226" lon="6.676804">
        <ele>223.0</ele>
        <time>2020-07-09T11:26:01Z</time>
      </trkpt>
      <trkpt lat="49.389134" lon="6.676989">
        <ele>223.0</ele>
        <time>2020-07-09T11:26:04Z</time>
      </trkpt>
      <trkpt lat="49.38904" lon="6.677161">
        <ele>223.0</ele>
        <time>2020-07-09T11:26:07Z</time>
      </trkpt>
      <trkpt lat="49.389009" lon="6.677218">
        <ele>223.0</ele>
        <time>2020-07-09T11:26:08Z</time>
      </trkpt>
      <trkpt lat="49.388932" lon="6.677387">
        <ele>223.0</ele>
        <time>2020-07-09T11:26:11Z</time>
      </trkpt>
      <trkpt lat="49.388886" lon="6.677503">
        <ele>223.0</ele>
        <time>2020-07-09T11:26:13Z</time>
      </trkpt>
      <trkpt lat="49.388794" lon="6.677682">
        <ele>222.0</ele>
        <time>2020-07-09T11:26:16Z</time>
      </trkpt>
      <trkpt lat="49.388688" lon="6.677915">
        <ele>223.0</ele>
        <time>2020-07-09T11:26:19Z</time>
      </trkpt>
      <trkpt lat="49.388629" lon="6.678057">
        <ele>222.0</ele>
        <time>2020-07-09T11:26:21Z</time>
      </trkpt>
      <trkpt lat="49.388604" lon="6.678126">
        <ele>222.0</ele>
        <time>2020-07-09T11:26:22Z</time>
      </trkpt>
      <trkpt lat="49.388515" lon="6.678335">
        <ele>222.0</ele>
        <time>2020-07-09T11:26:25Z</time>
      </trkpt>
      <trkpt lat="49.38843" lon="6.678436">
        <ele>222.0</ele>
        <time>2020-07-09T11:26:27Z</time>
      </trkpt>
      <trkpt lat="49.388332" lon="6.678575">
        <ele>222.0</ele>
        <time>2020-07-09T11:26:29Z</time>
      </trkpt>
      <trkpt lat="49.388264" lon="6.678716">
        <ele>222.0</ele>
        <time>2020-07-09T11:26:31Z</time>
      </trkpt>
      <trkpt lat="49.388232" lon="6.678785">
        <ele>222.0</ele>
        <time>2020-07-09T11:26:32Z</time>
      </trkpt>
      <trkpt lat="49.388119" lon="6.67898">
        <ele>223.0</ele>
        <time>2020-07-09T11:26:35Z</time>
      </trkpt>
      <trkpt lat="49.388046" lon="6.679106">
        <ele>222.0</ele>
        <time>2020-07-09T11:26:37Z</time>
      </trkpt>
      <trkpt lat="49.387968" lon="6.679244">
        <ele>223.0</ele>
        <time>2020-07-09T11:26:39Z</time>
      </trkpt>
      <trkpt lat="49.387907" lon="6.679376">
        <ele>223.0</ele>
        <time>2020-07-09T11:26:41Z</time>
      </trkpt>
      <trkpt lat="49.387824" lon="6.67958">
        <ele>222.0</ele>
        <time>2020-07-09T11:26:44Z</time>
      </trkpt>
      <trkpt lat="49.387767" lon="6.679717">
        <ele>222.0</ele>
        <time>2020-07-09T11:26:46Z</time>
      </trkpt>
      <trkpt lat="49.387679" lon="6.679928">
        <ele>222.0</ele>
        <time>2020-07-09T11:26:49Z</time>
      </trkpt>
      <trkpt lat="49.387651" lon="6.679992">
        <ele>222.0</ele>
        <time>2020-07-09T11:26:50Z</time>
      </trkpt>
      <trkpt lat="49.387541" lon="6.680252">
        <ele>222.0</ele>
        <time>2020-07-09T11:26:54Z</time>
      </trkpt>
      <trkpt lat="49.387493" lon="6.680386">
        <ele>222.0</ele>
        <time>2020-07-09T11:26:56Z</time>
      </trkpt>
      <trkpt lat="49.387448" lon="6.680524">
        <ele>221.0</ele>
        <time>2020-07-09T11:26:58Z</time>
      </trkpt>
      <trkpt lat="49.387402" lon="6.680677">
        <ele>221.0</ele>
        <time>2020-07-09T11:27:00Z</time>
      </trkpt>
      <trkpt lat="49.387328" lon="6.680887">
        <ele>221.0</ele>
        <time>2020-07-09T11:27:03Z</time>
      </trkpt>
      <trkpt lat="49.387281" lon="6.681042">
        <ele>221.0</ele>
        <time>2020-07-09T11:27:05Z</time>
      </trkpt>
      <trkpt lat="49.387243" lon="6.681185">
        <ele>221.0</ele>
        <time>2020-07-09T11:27:07Z</time>
      </trkpt>
      <trkpt lat="49.387209" lon="6.681331">
        <ele>221.0</ele>
        <time>2020-07-09T11:27:09Z</time>
      </trkpt>
      <trkpt lat="49.387169" lon="6.681476">
        <ele>222.0</ele>
        <time>2020-07-09T11:27:11Z</time>
      </trkpt>
      <trkpt lat="49.38714" lon="6.681623">
        <ele>222.0</ele>
        <time>2020-07-09T11:27:13Z</time>
      </trkpt>
      <trkpt lat="49.387107" lon="6.681767">
        <ele>222.0</ele>
        <time>2020-07-09T11:27:15Z</time>
      </trkpt>
      <trkpt lat="49.387072" lon="6.681907">
        <ele>221.0</ele>
        <time>2020-07-09T11:27:17Z</time>
      </trkpt>
      <trkpt lat="49.387031" lon="6.682048">
        <ele>221.0</ele>
        <time>2020-07-09T11:27:19Z</time>
      </trkpt>
      <trkpt lat="49.386976" lon="6.68227">
        <ele>221.0</ele>
        <time>2020-07-09T11:27:22Z</time>
      </trkpt>
      <trkpt lat="49.38695" lon="6.682417">
        <ele>221.0</ele>
        <time>2020-07-09T11:27:24Z</time>
      </trkpt>
      <trkpt lat="49.386937" lon="6.682573">
        <ele>222.0</ele>
        <time>2020-07-09T11:27:26Z</time>
      </trkpt>
      <trkpt lat="49.38692" lon="6.682731">
        <ele>223.0</ele>
        <time>2020-07-09T11:27:28Z</time>
      </trkpt>
      <trkpt lat="49.386901" lon="6.682896">
        <ele>223.0</ele>
        <time>2020-07-09T11:27:30Z</time>
      </trkpt>
      <trkpt lat="49.386894" lon="6.683045">
        <ele>223.0</ele>
        <time>2020-07-09T11:27:32Z</time>
      </trkpt>
      <trkpt lat="49.386859" lon="6.683287">
        <ele>222.0</ele>
        <time>2020-07-09T11:27:35Z</time>
      </trkpt>
      <trkpt lat="49.386848" lon="6.68352">
        <ele>222.0</ele>
        <time>2020-07-09T11:27:38Z</time>
      </trkpt>
      <trkpt lat="49.386836" lon="6.683664">
        <ele>222.0</ele>
        <time>2020-07-09T11:27:40Z</time>
      </trkpt>
      <trkpt lat="49.386814" lon="6.683813">
        <ele>222.0</ele>
        <time>2020-07-09T11:27:42Z</time>
      </trkpt>
      <trkpt lat="49.386784" lon="6.68405">
        <ele>221.0</ele>
        <time>2020-07-09T11:27:45Z</time>
      </trkpt>
      <trkpt lat="49.386776" lon="6.684126">
        <ele>221.0</ele>
        <time>2020-07-09T11:27:46Z</time>
      </trkpt>
      <trkpt lat="49.386755" lon="6.684364">
        <ele>222.0</ele>
        <time>2020-07-09T11:27:49Z</time>
      </trkpt>
      <trkpt lat="49.386734" lon="6.684527">
        <ele>222.0</ele>
        <time>2020-07-09T11:27:51Z</time>
      </trkpt>
      <trkpt lat="49.386721" lon="6.684697">
        <ele>222.0</ele>
        <time>2020-07-09T11:27:53Z</time>
      </trkpt>
      <trkpt lat="49.386703" lon="6.684867">
        <ele>222.0</ele>
        <time>2020-07-09T11:27:55Z</time>
      </trkpt>
      <trkpt lat="49.386689" lon="6.685128">
        <ele>222.0</ele>
        <time>2020-07-09T11:27:58Z</time>
      </trkpt>
      <trkpt lat="49.386679" lon="6.685304">
        <ele>221.0</ele>
        <time>2020-07-09T11:28:00Z</time>
      </trkpt>
      <trkpt lat="49.386662" lon="6.685475">
        <ele>221.0</ele>
        <time>2020-07-09T11:28:02Z</time>
      </trkpt>
      <trkpt lat="49.386654" lon="6.685646">
        <ele>221.0</ele>
        <time>2020-07-09T11:28:04Z</time>
      </trkpt>
      <trkpt lat="49.386649" lon="6.685814">
        <ele>221.0</ele>
        <time>2020-07-09T11:28:06Z</time>
      </trkpt>
      <trkpt lat="49.386639" lon="6.685981">
        <ele>220.0</ele>
        <time>2020-07-09T11:28:08Z</time>
      </trkpt>
      <trkpt lat="49.386635" lon="6.686144">
        <ele>220.0</ele>
        <time>2020-07-09T11:28:10Z</time>
      </trkpt>
      <trkpt lat="49.386634" lon="6.686308">
        <ele>220.0</ele>
        <time>2020-07-09T11:28:12Z</time>
      </trkpt>
      <trkpt lat="49.386635" lon="6.686455">
        <ele>219.0</ele>
        <time>2020-07-09T11:28:14Z</time>
      </trkpt>
      <trkpt lat="49.386656" lon="6.686567">
        <ele>219.0</ele>
        <time>2020-07-09T11:28:16Z</time>
      </trkpt>
      <trkpt lat="49.386663" lon="6.686634">
        <ele>218.0</ele>
        <time>2020-07-09T11:28:18Z</time>
      </trkpt>
      <trkpt lat="49.386665" lon="6.686664">
        <ele>218.0</ele>
        <time>2020-07-09T11:28:20Z</time>
      </trkpt>
      <trkpt lat="49.386664" lon="6.686693">
        <ele>218.0</ele>
        <time>2020-07-09T11:28:22Z</time>
      </trkpt>
      <trkpt lat="49.386657" lon="6.686701">
        <ele>219.0</ele>
        <time>2020-07-09T11:28:25Z</time>
      </trkpt>
      <trkpt lat="49.386654" lon="6.686707">
        <ele>219.0</ele>
        <time>2020-07-09T11:28:27Z</time>
      </trkpt>
      <trkpt lat="49.386654" lon="6.686707">
        <ele>219.0</ele>
        <time>2020-07-09T11:28:29Z</time>
      </trkpt>
      <trkpt lat="49.386654" lon="6.686707">
        <ele>219.0</ele>
        <time>2020-07-09T11:29:07Z</time>
      </trkpt>
      <trkpt lat="49.386654" lon="6.686707">
        <ele>219.0</ele>
        <time>2020-07-09T11:29:09Z</time>
      </trkpt>
      <trkpt lat="49.386654" lon="6.686707">
        <ele>219.0</ele>
        <time>2020-07-09T11:29:11Z</time>
      </trkpt>
      <trkpt lat="49.386654" lon="6.686707">
        <ele>219.0</ele>
        <time>2020-07-09T11:29:13Z</time>
      </trkpt>
      <trkpt lat="49.386654" lon="6.686707">
        <ele>219.0</ele>
        <time>2020-07-09T11:29:15Z</time>
      </trkpt>
      <trkpt lat="49.38665" lon="6.686701">
        <ele>220.0</ele>
        <time>2020-07-09T11:29:17Z</time>
      </trkpt>
      <trkpt lat="49.386658" lon="6.68671">
        <ele>220.0</ele>
        <time>2020-07-09T11:29:19Z</time>
      </trkpt>
      <trkpt lat="49.38666" lon="6.686699">
        <ele>220.0</ele>
        <time>2020-07-09T11:29:21Z</time>
      </trkpt>
      <trkpt lat="49.386659" lon="6.686699">
        <ele>220.0</ele>
        <time>2020-07-09T11:29:23Z</time>
      </trkpt>
      <trkpt lat="49.386659" lon="6.686709">
        <ele>221.0</ele>
        <time>2020-07-09T11:29:25Z</time>
      </trkpt>
      <trkpt lat="49.386659" lon="6.686709">
        <ele>221.0</ele>
        <time>2020-07-09T11:29:27Z</time>
      </trkpt>
      <trkpt lat="49.386659" lon="6.686709">
        <ele>221.0</ele>
        <time>2020-07-09T11:29:29Z</time>
      </trkpt>
      <trkpt lat="49.386641" lon="6.686698">
        <ele>220.0</ele>
        <time>2020-07-09T11:29:31Z</time>
      </trkpt>
      <trkpt lat="49.386641" lon="6.686665">
        <ele>220.0</ele>
        <time>2020-07-09T11:29:33Z</time>
      </trkpt>
      <trkpt lat="49.386629" lon="6.686603">
        <ele>220.0</ele>
        <time>2020-07-09T11:29:35Z</time>
      </trkpt>
      <trkpt lat="49.386624" lon="6.686516">
        <ele>220.0</ele>
        <time>2020-07-09T11:29:37Z</time>
      </trkpt>
      <trkpt lat="49.386633" lon="6.686426">
        <ele>220.0</ele>
        <time>2020-07-09T11:29:39Z</time>
      </trkpt>
      <trkpt lat="49.386642" lon="6.686329">
        <ele>220.0</ele>
        <time>2020-07-09T11:29:41Z</time>
      </trkpt>
      <trkpt lat="49.386641" lon="6.686214">
        <ele>220.0</ele>
        <time>2020-07-09T11:29:43Z</time>
      </trkpt>
      <trkpt lat="49.386639" lon="6.686093">
        <ele>220.0</ele>
        <time>2020-07-09T11:29:45Z</time>
      </trkpt>
      <trkpt lat="49.386635" lon="6.685979">
        <ele>220.0</ele>
        <time>2020-07-09T11:29:47Z</time>
      </trkpt>
      <trkpt lat="49.386619" lon="6.685844">
        <ele>221.0</ele>
        <time>2020-07-09T11:29:49Z</time>
      </trkpt>
      <trkpt lat="49.386618" lon="6.685724">
        <ele>221.0</ele>
        <time>2020-07-09T11:29:51Z</time>
      </trkpt>
      <trkpt lat="49.38663" lon="6.685583">
        <ele>222.0</ele>
        <time>2020-07-09T11:29:53Z</time>
      </trkpt>
      <trkpt lat="49.38664" lon="6.685464">
        <ele>222.0</ele>
        <time>2020-07-09T11:29:55Z</time>
      </trkpt>
      <trkpt lat="49.386641" lon="6.685337">
        <ele>222.0</ele>
        <time>2020-07-09T11:29:57Z</time>
      </trkpt>
      <trkpt lat="49.386652" lon="6.685226">
        <ele>223.0</ele>
        <time>2020-07-09T11:29:59Z</time>
      </trkpt>
      <trkpt lat="49.386663" lon="6.685122">
        <ele>223.0</ele>
        <time>2020-07-09T11:30:01Z</time>
      </trkpt>
      <trkpt lat="49.386676" lon="6.685019">
        <ele>223.0</ele>
        <time>2020-07-09T11:30:03Z</time>
      </trkpt>
      <trkpt lat="49.386681" lon="6.684916">
        <ele>222.0</ele>
        <time>2020-07-09T11:30:05Z</time>
      </trkpt>
      <trkpt lat="49.386692" lon="6.684806">
        <ele>222.0</ele>
        <time>2020-07-09T11:30:07Z</time>
      </trkpt>
      <trkpt lat="49.386709" lon="6.684699">
        <ele>223.0</ele>
        <time>2020-07-09T11:30:09Z</time>
      </trkpt>
      <trkpt lat="49.386724" lon="6.684536">
        <ele>223.0</ele>
        <time>2020-07-09T11:30:12Z</time>
      </trkpt>
      <trkpt lat="49.386732" lon="6.684425">
        <ele>223.0</ele>
        <time>2020-07-09T11:30:14Z</time>
      </trkpt>
      <trkpt lat="49.386742" lon="6.684316">
        <ele>223.0</ele>
        <time>2020-07-09T11:30:16Z</time>
      </trkpt>
      <trkpt lat="49.386754" lon="6.684205">
        <ele>223.0</ele>
        <time>2020-07-09T11:30:18Z</time>
      </trkpt>
      <trkpt lat="49.386762" lon="6.684087">
        <ele>223.0</ele>
        <time>2020-07-09T11:30:20Z</time>
      </trkpt>
      <trkpt lat="49.386771" lon="6.683977">
        <ele>224.0</ele>
        <time>2020-07-09T11:30:22Z</time>
      </trkpt>
      <trkpt lat="49.386782" lon="6.683875">
        <ele>224.0</ele>
        <time>2020-07-09T11:30:24Z</time>
      </trkpt>
      <trkpt lat="49.386788" lon="6.683785">
        <ele>224.0</ele>
        <time>2020-07-09T11:30:26Z</time>
      </trkpt>
      <trkpt lat="49.386797" lon="6.683703">
        <ele>223.0</ele>
        <time>2020-07-09T11:30:28Z</time>
      </trkpt>
      <trkpt lat="49.386801" lon="6.683616">
        <ele>223.0</ele>
        <time>2020-07-09T11:30:30Z</time>
      </trkpt>
      <trkpt lat="49.386805" lon="6.683525">
        <ele>222.0</ele>
        <time>2020-07-09T11:30:32Z</time>
      </trkpt>
      <trkpt lat="49.386813" lon="6.683435">
        <ele>222.0</ele>
        <time>2020-07-09T11:30:34Z</time>
      </trkpt>
      <trkpt lat="49.386822" lon="6.683337">
        <ele>222.0</ele>
        <time>2020-07-09T11:30:36Z</time>
      </trkpt>
      <trkpt lat="49.386833" lon="6.683237">
        <ele>222.0</ele>
        <time>2020-07-09T11:30:38Z</time>
      </trkpt>
      <trkpt lat="49.386837" lon="6.683145">
        <ele>223.0</ele>
        <time>2020-07-09T11:30:40Z</time>
      </trkpt>
      <trkpt lat="49.386837" lon="6.683101">
        <ele>223.0</ele>
        <time>2020-07-09T11:30:42Z</time>
      </trkpt>
      <trkpt lat="49.386855" lon="6.683061">
        <ele>223.0</ele>
        <time>2020-07-09T11:30:44Z</time>
      </trkpt>
      <trkpt lat="49.386865" lon="6.682989">
        <ele>223.0</ele>
        <time>2020-07-09T11:30:46Z</time>
      </trkpt>
      <trkpt lat="49.386875" lon="6.682902">
        <ele>223.0</ele>
        <time>2020-07-09T11:30:48Z</time>
      </trkpt>
      <trkpt lat="49.386887" lon="6.682822">
        <ele>224.0</ele>
        <time>2020-07-09T11:30:50Z</time>
      </trkpt>
      <trkpt lat="49.386897" lon="6.682727">
        <ele>224.0</ele>
        <time>2020-07-09T11:30:52Z</time>
      </trkpt>
      <trkpt lat="49.386902" lon="6.682641">
        <ele>224.0</ele>
        <time>2020-07-09T11:30:54Z</time>
      </trkpt>
      <trkpt lat="49.386909" lon="6.682564">
        <ele>224.0</ele>
        <time>2020-07-09T11:30:56Z</time>
      </trkpt>
      <trkpt lat="49.386917" lon="6.682496">
        <ele>224.0</ele>
        <time>2020-07-09T11:30:58Z</time>
      </trkpt>
      <trkpt lat="49.386911" lon="6.682442">
        <ele>224.0</ele>
        <time>2020-07-09T11:31:00Z</time>
      </trkpt>
      <trkpt lat="49.386908" lon="6.682414">
        <ele>224.0</ele>
        <time>2020-07-09T11:31:02Z</time>
      </trkpt>
      <trkpt lat="49.386907" lon="6.682416">
        <ele>223.0</ele>
        <time>2020-07-09T11:31:04Z</time>
      </trkpt>
      <trkpt lat="49.386907" lon="6.682416">
        <ele>223.0</ele>
        <time>2020-07-09T11:31:06Z</time>
      </trkpt>
      <trkpt lat="49.386907" lon="6.682416">
        <ele>223.0</ele>
        <time>2020-07-09T11:31:08Z</time>
      </trkpt>
      <trkpt lat="49.386907" lon="6.682416">
        <ele>223.0</ele>
        <time>2020-07-09T11:31:10Z</time>
      </trkpt>
      <trkpt lat="49.386907" lon="6.682416">
        <ele>223.0</ele>
        <time>2020-07-09T11:31:12Z</time>
      </trkpt>
      <trkpt lat="49.386907" lon="6.682416">
        <ele>223.0</ele>
        <time>2020-07-09T11:31:14Z</time>
      </trkpt>
      <trkpt lat="49.386907" lon="6.682416">
        <ele>223.0</ele>
        <time>2020-07-09T11:31:16Z</time>
      </trkpt>
      <trkpt lat="49.386907" lon="6.682416">
        <ele>223.0</ele>
        <time>2020-07-09T11:31:18Z</time>
      </trkpt>
      <trkpt lat="49.386907" lon="6.682416">
        <ele>223.0</ele>
        <time>2020-07-09T11:31:20Z</time>
      </trkpt>
      <trkpt lat="49.386916" lon="6.682396">
        <ele>223.0</ele>
        <time>2020-07-09T11:31:22Z</time>
      </trkpt>
      <trkpt lat="49.386922" lon="6.682418">
        <ele>224.0</ele>
        <time>2020-07-09T11:31:24Z</time>
      </trkpt>
      <trkpt lat="49.386916" lon="6.682453">
        <ele>224.0</ele>
        <time>2020-07-09T11:31:26Z</time>
      </trkpt>
      <trkpt lat="49.386908" lon="6.682511">
        <ele>224.0</ele>
        <time>2020-07-09T11:31:28Z</time>
      </trkpt>
      <trkpt lat="49.386903" lon="6.682591">
        <ele>224.0</ele>
        <time>2020-07-09T11:31:30Z</time>
      </trkpt>
      <trkpt lat="49.386907" lon="6.682685">
        <ele>224.0</ele>
        <time>2020-07-09T11:31:32Z</time>
      </trkpt>
      <trkpt lat="49.386893" lon="6.682783">
        <ele>224.0</ele>
        <time>2020-07-09T11:31:34Z</time>
      </trkpt>
      <trkpt lat="49.38688" lon="6.682889">
        <ele>224.0</ele>
        <time>2020-07-09T11:31:36Z</time>
      </trkpt>
      <trkpt lat="49.386873" lon="6.682999">
        <ele>223.0</ele>
        <time>2020-07-09T11:31:38Z</time>
      </trkpt>
      <trkpt lat="49.386861" lon="6.683109">
        <ele>223.0</ele>
        <time>2020-07-09T11:31:40Z</time>
      </trkpt>
      <trkpt lat="49.386849" lon="6.683215">
        <ele>223.0</ele>
        <time>2020-07-09T11:31:42Z</time>
      </trkpt>
      <trkpt lat="49.386833" lon="6.683323">
        <ele>223.0</ele>
        <time>2020-07-09T11:31:44Z</time>
      </trkpt>
      <trkpt lat="49.38682" lon="6.683414">
        <ele>223.0</ele>
        <time>2020-07-09T11:31:46Z</time>
      </trkpt>
      <trkpt lat="49.38681" lon="6.683507">
        <ele>224.0</ele>
        <time>2020-07-09T11:31:48Z</time>
      </trkpt>
      <trkpt lat="49.386798" lon="6.683588">
        <ele>224.0</ele>
        <time>2020-07-09T11:31:50Z</time>
      </trkpt>
      <trkpt lat="49.386789" lon="6.683677">
        <ele>224.0</ele>
        <time>2020-07-09T11:31:52Z</time>
      </trkpt>
      <trkpt lat="49.386781" lon="6.68377">
        <ele>225.0</ele>
        <time>2020-07-09T11:31:54Z</time>
      </trkpt>
      <trkpt lat="49.386775" lon="6.683865">
        <ele>224.0</ele>
        <time>2020-07-09T11:31:56Z</time>
      </trkpt>
      <trkpt lat="49.386765" lon="6.683958">
        <ele>225.0</ele>
        <time>2020-07-09T11:31:58Z</time>
      </trkpt>
      <trkpt lat="49.386753" lon="6.684054">
        <ele>225.0</ele>
        <time>2020-07-09T11:32:00Z</time>
      </trkpt>
      <trkpt lat="49.386748" lon="6.684127">
        <ele>224.0</ele>
        <time>2020-07-09T11:32:02Z</time>
      </trkpt>
      <trkpt lat="49.386718" lon="6.684134">
        <ele>223.0</ele>
        <time>2020-07-09T11:32:04Z</time>
      </trkpt>
      <trkpt lat="49.386704" lon="6.684073">
        <ele>223.0</ele>
        <time>2020-07-09T11:32:06Z</time>
      </trkpt>
      <trkpt lat="49.386698" lon="6.684012">
        <ele>223.0</ele>
        <time>2020-07-09T11:32:08Z</time>
      </trkpt>
      <trkpt lat="49.38668" lon="6.683943">
        <ele>224.0</ele>
        <time>2020-07-09T11:32:10Z</time>
      </trkpt>
      <trkpt lat="49.38666" lon="6.683887">
        <ele>224.0</ele>
        <time>2020-07-09T11:32:12Z</time>
      </trkpt>
      <trkpt lat="49.386652" lon="6.683829">
        <ele>224.0</ele>
        <time>2020-07-09T11:32:14Z</time>
      </trkpt>
      <trkpt lat="49.386653" lon="6.683772">
        <ele>223.0</ele>
        <time>2020-07-09T11:32:16Z</time>
      </trkpt>
      <trkpt lat="49.386646" lon="6.683744">
        <ele>222.0</ele>
        <time>2020-07-09T11:32:18Z</time>
      </trkpt>
      <trkpt lat="49.386643" lon="6.683743">
        <ele>222.0</ele>
        <time>2020-07-09T11:32:20Z</time>
      </trkpt>
      <trkpt lat="49.386643" lon="6.683743">
        <ele>222.0</ele>
        <time>2020-07-09T11:32:22Z</time>
      </trkpt>
      <trkpt lat="49.386643" lon="6.683711">
        <ele>222.0</ele>
        <time>2020-07-09T11:32:24Z</time>
      </trkpt>
      <trkpt lat="49.386646" lon="6.683641">
        <ele>221.0</ele>
        <time>2020-07-09T11:32:26Z</time>
      </trkpt>
      <trkpt lat="49.386634" lon="6.68355">
        <ele>221.0</ele>
        <time>2020-07-09T11:32:28Z</time>
      </trkpt>
      <trkpt lat="49.38659" lon="6.683486">
        <ele>221.0</ele>
        <time>2020-07-09T11:32:30Z</time>
      </trkpt>
      <trkpt lat="49.386523" lon="6.683461">
        <ele>221.0</ele>
        <time>2020-07-09T11:32:32Z</time>
      </trkpt>
      <trkpt lat="49.386464" lon="6.683479">
        <ele>221.0</ele>
        <time>2020-07-09T11:32:34Z</time>
      </trkpt>
      <trkpt lat="49.386414" lon="6.683506">
        <ele>221.0</ele>
        <time>2020-07-09T11:32:36Z</time>
      </trkpt>
      <trkpt lat="49.386373" lon="6.683544">
        <ele>220.0</ele>
        <time>2020-07-09T11:32:38Z</time>
      </trkpt>
      <trkpt lat="49.386316" lon="6.683577">
        <ele>220.0</ele>
        <time>2020-07-09T11:32:40Z</time>
      </trkpt>
      <trkpt lat="49.386243" lon="6.683604">
        <ele>220.0</ele>
        <time>2020-07-09T11:32:42Z</time>
      </trkpt>
      <trkpt lat="49.386152" lon="6.68364">
        <ele>219.0</ele>
        <time>2020-07-09T11:32:44Z</time>
      </trkpt>
      <trkpt lat="49.386062" lon="6.683707">
        <ele>220.0</ele>
        <time>2020-07-09T11:32:46Z</time>
      </trkpt>
      <trkpt lat="49.385977" lon="6.68378">
        <ele>219.0</ele>
        <time>2020-07-09T11:32:48Z</time>
      </trkpt>
      <trkpt lat="49.385889" lon="6.683858">
        <ele>219.0</ele>
        <time>2020-07-09T11:32:50Z</time>
      </trkpt>
      <trkpt lat="49.385789" lon="6.683923">
        <ele>218.0</ele>
        <time>2020-07-09T11:32:52Z</time>
      </trkpt>
      <trkpt lat="49.385673" lon="6.683974">
        <ele>218.0</ele>
        <time>2020-07-09T11:32:54Z</time>
      </trkpt>
      <trkpt lat="49.385548" lon="6.684026">
        <ele>217.0</ele>
        <time>2020-07-09T11:32:56Z</time>
      </trkpt>
      <trkpt lat="49.385423" lon="6.684087">
        <ele>216.0</ele>
        <time>2020-07-09T11:32:58Z</time>
      </trkpt>
      <trkpt lat="49.385313" lon="6.684202">
        <ele>217.0</ele>
        <time>2020-07-09T11:33:00Z</time>
      </trkpt>
      <trkpt lat="49.38524" lon="6.684376">
        <ele>217.0</ele>
        <time>2020-07-09T11:33:02Z</time>
      </trkpt>
      <trkpt lat="49.385193" lon="6.684557">
        <ele>217.0</ele>
        <time>2020-07-09T11:33:04Z</time>
      </trkpt>
      <trkpt lat="49.385144" lon="6.68473">
        <ele>217.0</ele>
        <time>2020-07-09T11:33:06Z</time>
      </trkpt>
      <trkpt lat="49.385074" lon="6.684982">
        <ele>216.0</ele>
        <time>2020-07-09T11:33:09Z</time>
      </trkpt>
      <trkpt lat="49.385036" lon="6.685147">
        <ele>216.0</ele>
        <time>2020-07-09T11:33:11Z</time>
      </trkpt>
      <trkpt lat="49.384995" lon="6.685308">
        <ele>216.0</ele>
        <time>2020-07-09T11:33:13Z</time>
      </trkpt>
      <trkpt lat="49.384964" lon="6.685476">
        <ele>216.0</ele>
        <time>2020-07-09T11:33:15Z</time>
      </trkpt>
      <trkpt lat="49.384937" lon="6.685655">
        <ele>217.0</ele>
        <time>2020-07-09T11:33:17Z</time>
      </trkpt>
      <trkpt lat="49.384913" lon="6.685826">
        <ele>217.0</ele>
        <time>2020-07-09T11:33:19Z</time>
      </trkpt>
      <trkpt lat="49.384892" lon="6.685994">
        <ele>217.0</ele>
        <time>2020-07-09T11:33:21Z</time>
      </trkpt>
      <trkpt lat="49.384872" lon="6.686152">
        <ele>217.0</ele>
        <time>2020-07-09T11:33:23Z</time>
      </trkpt>
      <trkpt lat="49.384856" lon="6.686311">
        <ele>217.0</ele>
        <time>2020-07-09T11:33:25Z</time>
      </trkpt>
      <trkpt lat="49.384847" lon="6.686463">
        <ele>217.0</ele>
        <time>2020-07-09T11:33:27Z</time>
      </trkpt>
      <trkpt lat="49.384829" lon="6.686608">
        <ele>217.0</ele>
        <time>2020-07-09T11:33:29Z</time>
      </trkpt>
      <trkpt lat="49.384801" lon="6.686755">
        <ele>217.0</ele>
        <time>2020-07-09T11:33:31Z</time>
      </trkpt>
      <trkpt lat="49.38477" lon="6.686892">
        <ele>217.0</ele>
        <time>2020-07-09T11:33:33Z</time>
      </trkpt>
      <trkpt lat="49.384737" lon="6.687029">
        <ele>218.0</ele>
        <time>2020-07-09T11:33:35Z</time>
      </trkpt>
      <trkpt lat="49.384706" lon="6.687172">
        <ele>217.0</ele>
        <time>2020-07-09T11:33:37Z</time>
      </trkpt>
      <trkpt lat="49.384667" lon="6.68731">
        <ele>217.0</ele>
        <time>2020-07-09T11:33:39Z</time>
      </trkpt>
      <trkpt lat="49.384618" lon="6.687447">
        <ele>217.0</ele>
        <time>2020-07-09T11:33:41Z</time>
      </trkpt>
      <trkpt lat="49.384581" lon="6.687585">
        <ele>217.0</ele>
        <time>2020-07-09T11:33:43Z</time>
      </trkpt>
      <trkpt lat="49.384544" lon="6.68773">
        <ele>218.0</ele>
        <time>2020-07-09T11:33:45Z</time>
      </trkpt>
      <trkpt lat="49.384496" lon="6.687866">
        <ele>218.0</ele>
        <time>2020-07-09T11:33:47Z</time>
      </trkpt>
      <trkpt lat="49.384429" lon="6.687989">
        <ele>218.0</ele>
        <time>2020-07-09T11:33:49Z</time>
      </trkpt>
      <trkpt lat="49.384369" lon="6.688119">
        <ele>217.0</ele>
        <time>2020-07-09T11:33:51Z</time>
      </trkpt>
      <trkpt lat="49.384306" lon="6.688254">
        <ele>217.0</ele>
        <time>2020-07-09T11:33:53Z</time>
      </trkpt>
      <trkpt lat="49.384241" lon="6.688384">
        <ele>218.0</ele>
        <time>2020-07-09T11:33:55Z</time>
      </trkpt>
      <trkpt lat="49.384177" lon="6.688526">
        <ele>217.0</ele>
        <time>2020-07-09T11:33:57Z</time>
      </trkpt>
      <trkpt lat="49.384117" lon="6.688677">
        <ele>217.0</ele>
        <time>2020-07-09T11:33:59Z</time>
      </trkpt>
      <trkpt lat="49.384062" lon="6.688822">
        <ele>216.0</ele>
        <time>2020-07-09T11:34:01Z</time>
      </trkpt>
      <trkpt lat="49.38402" lon="6.688976">
        <ele>216.0</ele>
        <time>2020-07-09T11:34:03Z</time>
      </trkpt>
      <trkpt lat="49.383987" lon="6.689139">
        <ele>216.0</ele>
        <time>2020-07-09T11:34:05Z</time>
      </trkpt>
      <trkpt lat="49.383946" lon="6.689302">
        <ele>215.0</ele>
        <time>2020-07-09T11:34:07Z</time>
      </trkpt>
      <trkpt lat="49.383914" lon="6.689463">
        <ele>216.0</ele>
        <time>2020-07-09T11:34:09Z</time>
      </trkpt>
      <trkpt lat="49.383894" lon="6.689609">
        <ele>216.0</ele>
        <time>2020-07-09T11:34:11Z</time>
      </trkpt>
      <trkpt lat="49.383868" lon="6.689726">
        <ele>217.0</ele>
        <time>2020-07-09T11:34:13Z</time>
      </trkpt>
      <trkpt lat="49.383849" lon="6.689856">
        <ele>217.0</ele>
        <time>2020-07-09T11:34:15Z</time>
      </trkpt>
      <trkpt lat="49.383837" lon="6.689976">
        <ele>218.0</ele>
        <time>2020-07-09T11:34:17Z</time>
      </trkpt>
      <trkpt lat="49.383821" lon="6.690078">
        <ele>218.0</ele>
        <time>2020-07-09T11:34:19Z</time>
      </trkpt>
      <trkpt lat="49.383802" lon="6.690186">
        <ele>217.0</ele>
        <time>2020-07-09T11:34:21Z</time>
      </trkpt>
      <trkpt lat="49.383771" lon="6.690292">
        <ele>218.0</ele>
        <time>2020-07-09T11:34:23Z</time>
      </trkpt>
      <trkpt lat="49.383728" lon="6.690423">
        <ele>218.0</ele>
        <time>2020-07-09T11:34:25Z</time>
      </trkpt>
      <trkpt lat="49.38369" lon="6.690559">
        <ele>217.0</ele>
        <time>2020-07-09T11:34:27Z</time>
      </trkpt>
      <trkpt lat="49.383657" lon="6.690688">
        <ele>218.0</ele>
        <time>2020-07-09T11:34:29Z</time>
      </trkpt>
      <trkpt lat="49.383617" lon="6.690824">
        <ele>218.0</ele>
        <time>2020-07-09T11:34:31Z</time>
      </trkpt>
      <trkpt lat="49.383578" lon="6.690963">
        <ele>218.0</ele>
        <time>2020-07-09T11:34:33Z</time>
      </trkpt>
      <trkpt lat="49.383545" lon="6.691102">
        <ele>218.0</ele>
        <time>2020-07-09T11:34:35Z</time>
      </trkpt>
      <trkpt lat="49.383506" lon="6.691247">
        <ele>219.0</ele>
        <time>2020-07-09T11:34:37Z</time>
      </trkpt>
      <trkpt lat="49.383465" lon="6.691394">
        <ele>219.0</ele>
        <time>2020-07-09T11:34:39Z</time>
      </trkpt>
      <trkpt lat="49.383429" lon="6.691538">
        <ele>220.0</ele>
        <time>2020-07-09T11:34:41Z</time>
      </trkpt>
      <trkpt lat="49.383392" lon="6.691683">
        <ele>220.0</ele>
        <time>2020-07-09T11:34:43Z</time>
      </trkpt>
      <trkpt lat="49.383352" lon="6.691818">
        <ele>219.0</ele>
        <time>2020-07-09T11:34:45Z</time>
      </trkpt>
      <trkpt lat="49.383308" lon="6.691952">
        <ele>219.0</ele>
        <time>2020-07-09T11:34:47Z</time>
      </trkpt>
      <trkpt lat="49.383268" lon="6.692097">
        <ele>220.0</ele>
        <time>2020-07-09T11:34:49Z</time>
      </trkpt>
      <trkpt lat="49.38323" lon="6.692236">
        <ele>220.0</ele>
        <time>2020-07-09T11:34:51Z</time>
      </trkpt>
      <trkpt lat="49.383206" lon="6.692389">
        <ele>220.0</ele>
        <time>2020-07-09T11:34:53Z</time>
      </trkpt>
      <trkpt lat="49.383177" lon="6.692531">
        <ele>220.0</ele>
        <time>2020-07-09T11:34:55Z</time>
      </trkpt>
      <trkpt lat="49.383138" lon="6.692682">
        <ele>221.0</ele>
        <time>2020-07-09T11:34:57Z</time>
      </trkpt>
      <trkpt lat="49.383098" lon="6.692823">
        <ele>221.0</ele>
        <time>2020-07-09T11:34:59Z</time>
      </trkpt>
      <trkpt lat="49.383053" lon="6.692967">
        <ele>221.0</ele>
        <time>2020-07-09T11:35:01Z</time>
      </trkpt>
      <trkpt lat="49.382992" lon="6.693121">
        <ele>220.0</ele>
        <time>2020-07-09T11:35:03Z</time>
      </trkpt>
      <trkpt lat="49.382918" lon="6.693273">
        <ele>219.0</ele>
        <time>2020-07-09T11:35:05Z</time>
      </trkpt>
      <trkpt lat="49.382841" lon="6.693452">
        <ele>219.0</ele>
        <time>2020-07-09T11:35:07Z</time>
      </trkpt>
      <trkpt lat="49.38278" lon="6.693637">
        <ele>220.0</ele>
        <time>2020-07-09T11:35:09Z</time>
      </trkpt>
      <trkpt lat="49.382718" lon="6.693812">
        <ele>220.0</ele>
        <time>2020-07-09T11:35:11Z</time>
      </trkpt>
      <trkpt lat="49.382655" lon="6.693978">
        <ele>221.0</ele>
        <time>2020-07-09T11:35:13Z</time>
      </trkpt>
      <trkpt lat="49.382591" lon="6.694145">
        <ele>221.0</ele>
        <time>2020-07-09T11:35:15Z</time>
      </trkpt>
      <trkpt lat="49.382524" lon="6.694305">
        <ele>221.0</ele>
        <time>2020-07-09T11:35:17Z</time>
      </trkpt>
      <trkpt lat="49.382455" lon="6.694463">
        <ele>220.0</ele>
        <time>2020-07-09T11:35:19Z</time>
      </trkpt>
      <trkpt lat="49.382384" lon="6.694616">
        <ele>221.0</ele>
        <time>2020-07-09T11:35:21Z</time>
      </trkpt>
      <trkpt lat="49.382326" lon="6.694766">
        <ele>221.0</ele>
        <time>2020-07-09T11:35:23Z</time>
      </trkpt>
      <trkpt lat="49.382264" lon="6.694905">
        <ele>220.0</ele>
        <time>2020-07-09T11:35:25Z</time>
      </trkpt>
      <trkpt lat="49.382198" lon="6.695042">
        <ele>220.0</ele>
        <time>2020-07-09T11:35:27Z</time>
      </trkpt>
      <trkpt lat="49.382122" lon="6.695174">
        <ele>219.0</ele>
        <time>2020-07-09T11:35:29Z</time>
      </trkpt>
      <trkpt lat="49.382045" lon="6.695301">
        <ele>218.0</ele>
        <time>2020-07-09T11:35:31Z</time>
      </trkpt>
      <trkpt lat="49.381974" lon="6.695431">
        <ele>218.0</ele>
        <time>2020-07-09T11:35:33Z</time>
      </trkpt>
      <trkpt lat="49.381896" lon="6.695554">
        <ele>218.0</ele>
        <time>2020-07-09T11:35:35Z</time>
      </trkpt>
      <trkpt lat="49.381824" lon="6.695685">
        <ele>217.0</ele>
        <time>2020-07-09T11:35:37Z</time>
      </trkpt>
      <trkpt lat="49.381752" lon="6.695803">
        <ele>218.0</ele>
        <time>2020-07-09T11:35:39Z</time>
      </trkpt>
      <trkpt lat="49.381681" lon="6.695926">
        <ele>217.0</ele>
        <time>2020-07-09T11:35:41Z</time>
      </trkpt>
      <trkpt lat="49.381606" lon="6.696047">
        <ele>217.0</ele>
        <time>2020-07-09T11:35:43Z</time>
      </trkpt>
      <trkpt lat="49.381525" lon="6.696168">
        <ele>218.0</ele>
        <time>2020-07-09T11:35:45Z</time>
      </trkpt>
      <trkpt lat="49.381441" lon="6.696283">
        <ele>218.0</ele>
        <time>2020-07-09T11:35:47Z</time>
      </trkpt>
      <trkpt lat="49.38136" lon="6.696393">
        <ele>218.0</ele>
        <time>2020-07-09T11:35:49Z</time>
      </trkpt>
      <trkpt lat="49.381281" lon="6.696501">
        <ele>219.0</ele>
        <time>2020-07-09T11:35:51Z</time>
      </trkpt>
      <trkpt lat="49.381202" lon="6.696607">
        <ele>218.0</ele>
        <time>2020-07-09T11:35:53Z</time>
      </trkpt>
      <trkpt lat="49.381126" lon="6.696711">
        <ele>218.0</ele>
        <time>2020-07-09T11:35:55Z</time>
      </trkpt>
      <trkpt lat="49.38104" lon="6.696816">
        <ele>218.0</ele>
        <time>2020-07-09T11:35:57Z</time>
      </trkpt>
      <trkpt lat="49.380954" lon="6.696923">
        <ele>217.0</ele>
        <time>2020-07-09T11:35:59Z</time>
      </trkpt>
      <trkpt lat="49.380866" lon="6.697021">
        <ele>217.0</ele>
        <time>2020-07-09T11:36:01Z</time>
      </trkpt>
      <trkpt lat="49.380783" lon="6.697116">
        <ele>217.0</ele>
        <time>2020-07-09T11:36:03Z</time>
      </trkpt>
      <trkpt lat="49.380694" lon="6.697206">
        <ele>216.0</ele>
        <time>2020-07-09T11:36:05Z</time>
      </trkpt>
      <trkpt lat="49.380604" lon="6.697295">
        <ele>216.0</ele>
        <time>2020-07-09T11:36:07Z</time>
      </trkpt>
      <trkpt lat="49.380513" lon="6.69738">
        <ele>216.0</ele>
        <time>2020-07-09T11:36:09Z</time>
      </trkpt>
      <trkpt lat="49.380417" lon="6.697468">
        <ele>215.0</ele>
        <time>2020-07-09T11:36:11Z</time>
      </trkpt>
      <trkpt lat="49.38028" lon="6.697591">
        <ele>215.0</ele>
        <time>2020-07-09T11:36:14Z</time>
      </trkpt>
      <trkpt lat="49.38023" lon="6.697626">
        <ele>215.0</ele>
        <time>2020-07-09T11:36:15Z</time>
      </trkpt>
      <trkpt lat="49.380087" lon="6.697738">
        <ele>216.0</ele>
        <time>2020-07-09T11:36:18Z</time>
      </trkpt>
      <trkpt lat="49.379999" lon="6.697805">
        <ele>216.0</ele>
        <time>2020-07-09T11:36:20Z</time>
      </trkpt>
      <trkpt lat="49.379908" lon="6.697876">
        <ele>216.0</ele>
        <time>2020-07-09T11:36:22Z</time>
      </trkpt>
      <trkpt lat="49.379816" lon="6.697948">
        <ele>215.0</ele>
        <time>2020-07-09T11:36:24Z</time>
      </trkpt>
      <trkpt lat="49.37972" lon="6.698016">
        <ele>215.0</ele>
        <time>2020-07-09T11:36:26Z</time>
      </trkpt>
      <trkpt lat="49.379625" lon="6.69808">
        <ele>214.0</ele>
        <time>2020-07-09T11:36:28Z</time>
      </trkpt>
      <trkpt lat="49.379525" lon="6.698143">
        <ele>215.0</ele>
        <time>2020-07-09T11:36:30Z</time>
      </trkpt>
      <trkpt lat="49.379421" lon="6.698206">
        <ele>216.0</ele>
        <time>2020-07-09T11:36:32Z</time>
      </trkpt>
      <trkpt lat="49.379323" lon="6.698277">
        <ele>216.0</ele>
        <time>2020-07-09T11:36:34Z</time>
      </trkpt>
      <trkpt lat="49.379228" lon="6.698334">
        <ele>216.0</ele>
        <time>2020-07-09T11:36:36Z</time>
      </trkpt>
      <trkpt lat="49.37913" lon="6.698395">
        <ele>215.0</ele>
        <time>2020-07-09T11:36:38Z</time>
      </trkpt>
      <trkpt lat="49.379026" lon="6.698447">
        <ele>215.0</ele>
        <time>2020-07-09T11:36:40Z</time>
      </trkpt>
      <trkpt lat="49.378935" lon="6.698497">
        <ele>215.0</ele>
        <time>2020-07-09T11:36:42Z</time>
      </trkpt>
      <trkpt lat="49.378837" lon="6.698547">
        <ele>215.0</ele>
        <time>2020-07-09T11:36:44Z</time>
      </trkpt>
      <trkpt lat="49.378736" lon="6.698604">
        <ele>215.0</ele>
        <time>2020-07-09T11:36:46Z</time>
      </trkpt>
      <trkpt lat="49.378638" lon="6.698657">
        <ele>215.0</ele>
        <time>2020-07-09T11:36:48Z</time>
      </trkpt>
      <trkpt lat="49.378535" lon="6.698699">
        <ele>215.0</ele>
        <time>2020-07-09T11:36:50Z</time>
      </trkpt>
      <trkpt lat="49.378432" lon="6.698747">
        <ele>215.0</ele>
        <time>2020-07-09T11:36:52Z</time>
      </trkpt>
      <trkpt lat="49.378325" lon="6.698801">
        <ele>215.0</ele>
        <time>2020-07-09T11:36:54Z</time>
      </trkpt>
      <trkpt lat="49.378222" lon="6.698851">
        <ele>215.0</ele>
        <time>2020-07-09T11:36:56Z</time>
      </trkpt>
      <trkpt lat="49.37812" lon="6.698886">
        <ele>215.0</ele>
        <time>2020-07-09T11:36:58Z</time>
      </trkpt>
      <trkpt lat="49.378016" lon="6.698928">
        <ele>215.0</ele>
        <time>2020-07-09T11:37:00Z</time>
      </trkpt>
      <trkpt lat="49.377912" lon="6.698966">
        <ele>216.0</ele>
        <time>2020-07-09T11:37:02Z</time>
      </trkpt>
      <trkpt lat="49.377812" lon="6.698995">
        <ele>217.0</ele>
        <time>2020-07-09T11:37:04Z</time>
      </trkpt>
      <trkpt lat="49.377714" lon="6.699024">
        <ele>216.0</ele>
        <time>2020-07-09T11:37:06Z</time>
      </trkpt>
      <trkpt lat="49.377615" lon="6.699044">
        <ele>217.0</ele>
        <time>2020-07-09T11:37:08Z</time>
      </trkpt>
      <trkpt lat="49.377518" lon="6.699066">
        <ele>217.0</ele>
        <time>2020-07-09T11:37:10Z</time>
      </trkpt>
      <trkpt lat="49.37742" lon="6.699084">
        <ele>217.0</ele>
        <time>2020-07-09T11:37:12Z</time>
      </trkpt>
      <trkpt lat="49.377321" lon="6.699111">
        <ele>218.0</ele>
        <time>2020-07-09T11:37:14Z</time>
      </trkpt>
      <trkpt lat="49.377223" lon="6.699142">
        <ele>218.0</ele>
        <time>2020-07-09T11:37:16Z</time>
      </trkpt>
      <trkpt lat="49.377117" lon="6.699162">
        <ele>218.0</ele>
        <time>2020-07-09T11:37:18Z</time>
      </trkpt>
      <trkpt lat="49.377017" lon="6.699172">
        <ele>218.0</ele>
        <time>2020-07-09T11:37:20Z</time>
      </trkpt>
      <trkpt lat="49.376915" lon="6.699193">
        <ele>218.0</ele>
        <time>2020-07-09T11:37:22Z</time>
      </trkpt>
      <trkpt lat="49.376809" lon="6.699207">
        <ele>219.0</ele>
        <time>2020-07-09T11:37:24Z</time>
      </trkpt>
      <trkpt lat="49.376704" lon="6.69922">
        <ele>218.0</ele>
        <time>2020-07-09T11:37:26Z</time>
      </trkpt>
      <trkpt lat="49.376596" lon="6.699231">
        <ele>219.0</ele>
        <time>2020-07-09T11:37:28Z</time>
      </trkpt>
      <trkpt lat="49.376498" lon="6.699254">
        <ele>219.0</ele>
        <time>2020-07-09T11:37:30Z</time>
      </trkpt>
      <trkpt lat="49.376398" lon="6.699258">
        <ele>219.0</ele>
        <time>2020-07-09T11:37:32Z</time>
      </trkpt>
      <trkpt lat="49.376292" lon="6.69927">
        <ele>219.0</ele>
        <time>2020-07-09T11:37:34Z</time>
      </trkpt>
      <trkpt lat="49.376192" lon="6.699284">
        <ele>218.0</ele>
        <time>2020-07-09T11:37:36Z</time>
      </trkpt>
      <trkpt lat="49.376091" lon="6.699298">
        <ele>218.0</ele>
        <time>2020-07-09T11:37:38Z</time>
      </trkpt>
      <trkpt lat="49.375989" lon="6.699319">
        <ele>219.0</ele>
        <time>2020-07-09T11:37:40Z</time>
      </trkpt>
      <trkpt lat="49.375886" lon="6.699344">
        <ele>219.0</ele>
        <time>2020-07-09T11:37:42Z</time>
      </trkpt>
      <trkpt lat="49.375784" lon="6.699369">
        <ele>220.0</ele>
        <time>2020-07-09T11:37:44Z</time>
      </trkpt>
      <trkpt lat="49.375686" lon="6.699389">
        <ele>220.0</ele>
        <time>2020-07-09T11:37:46Z</time>
      </trkpt>
      <trkpt lat="49.375592" lon="6.699404">
        <ele>220.0</ele>
        <time>2020-07-09T11:37:48Z</time>
      </trkpt>
      <trkpt lat="49.375496" lon="6.699422">
        <ele>220.0</ele>
        <time>2020-07-09T11:37:50Z</time>
      </trkpt>
      <trkpt lat="49.375399" lon="6.699449">
        <ele>220.0</ele>
        <time>2020-07-09T11:37:52Z</time>
      </trkpt>
      <trkpt lat="49.375309" lon="6.69947">
        <ele>220.0</ele>
        <time>2020-07-09T11:37:54Z</time>
      </trkpt>
      <trkpt lat="49.375227" lon="6.699499">
        <ele>220.0</ele>
        <time>2020-07-09T11:37:56Z</time>
      </trkpt>
      <trkpt lat="49.375149" lon="6.699541">
        <ele>220.0</ele>
        <time>2020-07-09T11:37:58Z</time>
      </trkpt>
      <trkpt lat="49.375076" lon="6.699588">
        <ele>220.0</ele>
        <time>2020-07-09T11:38:00Z</time>
      </trkpt>
      <trkpt lat="49.375012" lon="6.699642">
        <ele>221.0</ele>
        <time>2020-07-09T11:38:02Z</time>
      </trkpt>
      <trkpt lat="49.374951" lon="6.699704">
        <ele>221.0</ele>
        <time>2020-07-09T11:38:04Z</time>
      </trkpt>
      <trkpt lat="49.374889" lon="6.699767">
        <ele>221.0</ele>
        <time>2020-07-09T11:38:06Z</time>
      </trkpt>
      <trkpt lat="49.37483" lon="6.699837">
        <ele>221.0</ele>
        <time>2020-07-09T11:38:08Z</time>
      </trkpt>
      <trkpt lat="49.374774" lon="6.699897">
        <ele>222.0</ele>
        <time>2020-07-09T11:38:10Z</time>
      </trkpt>
      <trkpt lat="49.37472" lon="6.699954">
        <ele>222.0</ele>
        <time>2020-07-09T11:38:12Z</time>
      </trkpt>
      <trkpt lat="49.374666" lon="6.700011">
        <ele>221.0</ele>
        <time>2020-07-09T11:38:14Z</time>
      </trkpt>
      <trkpt lat="49.374609" lon="6.700064">
        <ele>221.0</ele>
        <time>2020-07-09T11:38:16Z</time>
      </trkpt>
      <trkpt lat="49.374555" lon="6.700123">
        <ele>221.0</ele>
        <time>2020-07-09T11:38:18Z</time>
      </trkpt>
      <trkpt lat="49.374502" lon="6.700188">
        <ele>221.0</ele>
        <time>2020-07-09T11:38:20Z</time>
      </trkpt>
      <trkpt lat="49.374448" lon="6.700239">
        <ele>221.0</ele>
        <time>2020-07-09T11:38:22Z</time>
      </trkpt>
      <trkpt lat="49.374387" lon="6.700291">
        <ele>221.0</ele>
        <time>2020-07-09T11:38:24Z</time>
      </trkpt>
      <trkpt lat="49.37433" lon="6.70034">
        <ele>221.0</ele>
        <time>2020-07-09T11:38:26Z</time>
      </trkpt>
      <trkpt lat="49.374266" lon="6.700393">
        <ele>222.0</ele>
        <time>2020-07-09T11:38:28Z</time>
      </trkpt>
      <trkpt lat="49.374201" lon="6.700444">
        <ele>222.0</ele>
        <time>2020-07-09T11:38:30Z</time>
      </trkpt>
      <trkpt lat="49.374139" lon="6.700493">
        <ele>222.0</ele>
        <time>2020-07-09T11:38:32Z</time>
      </trkpt>
      <trkpt lat="49.374075" lon="6.700536">
        <ele>221.0</ele>
        <time>2020-07-09T11:38:34Z</time>
      </trkpt>
      <trkpt lat="49.374012" lon="6.700577">
        <ele>221.0</ele>
        <time>2020-07-09T11:38:36Z</time>
      </trkpt>
      <trkpt lat="49.373947" lon="6.700609">
        <ele>221.0</ele>
        <time>2020-07-09T11:38:38Z</time>
      </trkpt>
      <trkpt lat="49.373879" lon="6.700617">
        <ele>222.0</ele>
        <time>2020-07-09T11:38:40Z</time>
      </trkpt>
      <trkpt lat="49.373821" lon="6.7006">
        <ele>222.0</ele>
        <time>2020-07-09T11:38:42Z</time>
      </trkpt>
      <trkpt lat="49.37382" lon="6.700531">
        <ele>222.0</ele>
        <time>2020-07-09T11:38:44Z</time>
      </trkpt>
      <trkpt lat="49.373803" lon="6.700486">
        <ele>223.0</ele>
        <time>2020-07-09T11:38:46Z</time>
      </trkpt>
      <trkpt lat="49.373778" lon="6.700424">
        <ele>222.0</ele>
        <time>2020-07-09T11:38:48Z</time>
      </trkpt>
      <trkpt lat="49.373783" lon="6.700355">
        <ele>222.0</ele>
        <time>2020-07-09T11:38:50Z</time>
      </trkpt>
      <trkpt lat="49.373787" lon="6.700281">
        <ele>221.0</ele>
        <time>2020-07-09T11:38:52Z</time>
      </trkpt>
      <trkpt lat="49.373796" lon="6.700195">
        <ele>221.0</ele>
        <time>2020-07-09T11:38:54Z</time>
      </trkpt>
      <trkpt lat="49.373794" lon="6.70011">
        <ele>221.0</ele>
        <time>2020-07-09T11:38:56Z</time>
      </trkpt>
      <trkpt lat="49.373791" lon="6.70002">
        <ele>222.0</ele>
        <time>2020-07-09T11:38:58Z</time>
      </trkpt>
      <trkpt lat="49.373797" lon="6.699924">
        <ele>222.0</ele>
        <time>2020-07-09T11:39:00Z</time>
      </trkpt>
      <trkpt lat="49.373804" lon="6.699815">
        <ele>222.0</ele>
        <time>2020-07-09T11:39:02Z</time>
      </trkpt>
      <trkpt lat="49.373808" lon="6.699708">
        <ele>222.0</ele>
        <time>2020-07-09T11:39:04Z</time>
      </trkpt>
      <trkpt lat="49.37381" lon="6.699609">
        <ele>222.0</ele>
        <time>2020-07-09T11:39:06Z</time>
      </trkpt>
      <trkpt lat="49.37381" lon="6.6995">
        <ele>222.0</ele>
        <time>2020-07-09T11:39:08Z</time>
      </trkpt>
      <trkpt lat="49.373812" lon="6.699343">
        <ele>222.0</ele>
        <time>2020-07-09T11:39:11Z</time>
      </trkpt>
      <trkpt lat="49.373812" lon="6.699233">
        <ele>222.0</ele>
        <time>2020-07-09T11:39:13Z</time>
      </trkpt>
      <trkpt lat="49.373813" lon="6.69918">
        <ele>222.0</ele>
        <time>2020-07-09T11:39:14Z</time>
      </trkpt>
      <trkpt lat="49.373804" lon="6.699012">
        <ele>222.0</ele>
        <time>2020-07-09T11:39:17Z</time>
      </trkpt>
      <trkpt lat="49.373803" lon="6.698899">
        <ele>222.0</ele>
        <time>2020-07-09T11:39:19Z</time>
      </trkpt>
      <trkpt lat="49.373807" lon="6.69879">
        <ele>223.0</ele>
        <time>2020-07-09T11:39:21Z</time>
      </trkpt>
      <trkpt lat="49.373813" lon="6.698679">
        <ele>223.0</ele>
        <time>2020-07-09T11:39:23Z</time>
      </trkpt>
      <trkpt lat="49.373818" lon="6.698568">
        <ele>223.0</ele>
        <time>2020-07-09T11:39:25Z</time>
      </trkpt>
      <trkpt lat="49.373818" lon="6.698461">
        <ele>223.0</ele>
        <time>2020-07-09T11:39:27Z</time>
      </trkpt>
      <trkpt lat="49.373819" lon="6.698351">
        <ele>223.0</ele>
        <time>2020-07-09T11:39:29Z</time>
      </trkpt>
      <trkpt lat="49.37382" lon="6.698247">
        <ele>223.0</ele>
        <time>2020-07-09T11:39:31Z</time>
      </trkpt>
      <trkpt lat="49.37382" lon="6.698145">
        <ele>223.0</ele>
        <time>2020-07-09T11:39:33Z</time>
      </trkpt>
      <trkpt lat="49.373819" lon="6.698042">
        <ele>224.0</ele>
        <time>2020-07-09T11:39:35Z</time>
      </trkpt>
      <trkpt lat="49.373826" lon="6.697944">
        <ele>224.0</ele>
        <time>2020-07-09T11:39:37Z</time>
      </trkpt>
      <trkpt lat="49.37383" lon="6.697839">
        <ele>223.0</ele>
        <time>2020-07-09T11:39:39Z</time>
      </trkpt>
      <trkpt lat="49.373832" lon="6.697719">
        <ele>223.0</ele>
        <time>2020-07-09T11:39:41Z</time>
      </trkpt>
      <trkpt lat="49.373832" lon="6.697603">
        <ele>222.0</ele>
        <time>2020-07-09T11:39:43Z</time>
      </trkpt>
      <trkpt lat="49.373822" lon="6.697488">
        <ele>221.0</ele>
        <time>2020-07-09T11:39:45Z</time>
      </trkpt>
      <trkpt lat="49.373788" lon="6.697402">
        <ele>221.0</ele>
        <time>2020-07-09T11:39:47Z</time>
      </trkpt>
      <trkpt lat="49.373719" lon="6.697352">
        <ele>221.0</ele>
        <time>2020-07-09T11:39:49Z</time>
      </trkpt>
      <trkpt lat="49.373638" lon="6.697334">
        <ele>222.0</ele>
        <time>2020-07-09T11:39:51Z</time>
      </trkpt>
      <trkpt lat="49.373554" lon="6.697336">
        <ele>222.0</ele>
        <time>2020-07-09T11:39:53Z</time>
      </trkpt>
      <trkpt lat="49.373474" lon="6.697338">
        <ele>223.0</ele>
        <time>2020-07-09T11:39:55Z</time>
      </trkpt>
      <trkpt lat="49.373382" lon="6.697332">
        <ele>223.0</ele>
        <time>2020-07-09T11:39:57Z</time>
      </trkpt>
      <trkpt lat="49.373292" lon="6.697333">
        <ele>224.0</ele>
        <time>2020-07-09T11:39:59Z</time>
      </trkpt>
      <trkpt lat="49.373196" lon="6.697326">
        <ele>224.0</ele>
        <time>2020-07-09T11:40:01Z</time>
      </trkpt>
      <trkpt lat="49.373105" lon="6.697316">
        <ele>224.0</ele>
        <time>2020-07-09T11:40:03Z</time>
      </trkpt>
      <trkpt lat="49.373005" lon="6.697309">
        <ele>224.0</ele>
        <time>2020-07-09T11:40:05Z</time>
      </trkpt>
      <trkpt lat="49.372909" lon="6.697293">
        <ele>225.0</ele>
        <time>2020-07-09T11:40:07Z</time>
      </trkpt>
      <trkpt lat="49.372819" lon="6.697287">
        <ele>225.0</ele>
        <time>2020-07-09T11:40:09Z</time>
      </trkpt>
      <trkpt lat="49.372729" lon="6.69729">
        <ele>225.0</ele>
        <time>2020-07-09T11:40:11Z</time>
      </trkpt>
      <trkpt lat="49.372637" lon="6.697285">
        <ele>225.0</ele>
        <time>2020-07-09T11:40:13Z</time>
      </trkpt>
      <trkpt lat="49.37254" lon="6.697282">
        <ele>225.0</ele>
        <time>2020-07-09T11:40:15Z</time>
      </trkpt>
      <trkpt lat="49.372445" lon="6.697281">
        <ele>225.0</ele>
        <time>2020-07-09T11:40:17Z</time>
      </trkpt>
      <trkpt lat="49.372345" lon="6.697269">
        <ele>224.0</ele>
        <time>2020-07-09T11:40:19Z</time>
      </trkpt>
      <trkpt lat="49.37225" lon="6.697261">
        <ele>224.0</ele>
        <time>2020-07-09T11:40:21Z</time>
      </trkpt>
      <trkpt lat="49.372153" lon="6.69725">
        <ele>225.0</ele>
        <time>2020-07-09T11:40:23Z</time>
      </trkpt>
      <trkpt lat="49.372055" lon="6.697246">
        <ele>224.0</ele>
        <time>2020-07-09T11:40:25Z</time>
      </trkpt>
      <trkpt lat="49.371961" lon="6.697242">
        <ele>225.0</ele>
        <time>2020-07-09T11:40:27Z</time>
      </trkpt>
      <trkpt lat="49.37186" lon="6.697234">
        <ele>225.0</ele>
        <time>2020-07-09T11:40:29Z</time>
      </trkpt>
      <trkpt lat="49.371761" lon="6.69723">
        <ele>225.0</ele>
        <time>2020-07-09T11:40:31Z</time>
      </trkpt>
      <trkpt lat="49.371671" lon="6.697226">
        <ele>225.0</ele>
        <time>2020-07-09T11:40:33Z</time>
      </trkpt>
      <trkpt lat="49.37158" lon="6.697213">
        <ele>225.0</ele>
        <time>2020-07-09T11:40:35Z</time>
      </trkpt>
      <trkpt lat="49.371486" lon="6.697205">
        <ele>226.0</ele>
        <time>2020-07-09T11:40:37Z</time>
      </trkpt>
      <trkpt lat="49.371396" lon="6.697194">
        <ele>226.0</ele>
        <time>2020-07-09T11:40:39Z</time>
      </trkpt>
      <trkpt lat="49.371304" lon="6.69719">
        <ele>227.0</ele>
        <time>2020-07-09T11:40:41Z</time>
      </trkpt>
      <trkpt lat="49.371208" lon="6.697185">
        <ele>227.0</ele>
        <time>2020-07-09T11:40:43Z</time>
      </trkpt>
      <trkpt lat="49.371114" lon="6.697185">
        <ele>227.0</ele>
        <time>2020-07-09T11:40:45Z</time>
      </trkpt>
      <trkpt lat="49.371017" lon="6.697176">
        <ele>227.0</ele>
        <time>2020-07-09T11:40:47Z</time>
      </trkpt>
      <trkpt lat="49.370916" lon="6.697165">
        <ele>227.0</ele>
        <time>2020-07-09T11:40:49Z</time>
      </trkpt>
      <trkpt lat="49.370818" lon="6.69716">
        <ele>227.0</ele>
        <time>2020-07-09T11:40:51Z</time>
      </trkpt>
      <trkpt lat="49.370716" lon="6.697148">
        <ele>227.0</ele>
        <time>2020-07-09T11:40:53Z</time>
      </trkpt>
      <trkpt lat="49.370613" lon="6.697142">
        <ele>226.0</ele>
        <time>2020-07-09T11:40:55Z</time>
      </trkpt>
      <trkpt lat="49.370512" lon="6.697134">
        <ele>226.0</ele>
        <time>2020-07-09T11:40:57Z</time>
      </trkpt>
      <trkpt lat="49.370414" lon="6.697122">
        <ele>225.0</ele>
        <time>2020-07-09T11:40:59Z</time>
      </trkpt>
      <trkpt lat="49.370316" lon="6.697123">
        <ele>225.0</ele>
        <time>2020-07-09T11:41:01Z</time>
      </trkpt>
      <trkpt lat="49.370217" lon="6.697133">
        <ele>226.0</ele>
        <time>2020-07-09T11:41:03Z</time>
      </trkpt>
      <trkpt lat="49.370118" lon="6.697126">
        <ele>226.0</ele>
        <time>2020-07-09T11:41:05Z</time>
      </trkpt>
      <trkpt lat="49.37002" lon="6.697121">
        <ele>225.0</ele>
        <time>2020-07-09T11:41:07Z</time>
      </trkpt>
      <trkpt lat="49.369922" lon="6.697112">
        <ele>225.0</ele>
        <time>2020-07-09T11:41:09Z</time>
      </trkpt>
      <trkpt lat="49.369824" lon="6.697107">
        <ele>226.0</ele>
        <time>2020-07-09T11:41:11Z</time>
      </trkpt>
      <trkpt lat="49.369726" lon="6.697094">
        <ele>226.0</ele>
        <time>2020-07-09T11:41:13Z</time>
      </trkpt>
      <trkpt lat="49.369629" lon="6.69709">
        <ele>226.0</ele>
        <time>2020-07-09T11:41:15Z</time>
      </trkpt>
      <trkpt lat="49.369529" lon="6.697088">
        <ele>226.0</ele>
        <time>2020-07-09T11:41:17Z</time>
      </trkpt>
      <trkpt lat="49.369431" lon="6.697087">
        <ele>226.0</ele>
        <time>2020-07-09T11:41:19Z</time>
      </trkpt>
      <trkpt lat="49.369339" lon="6.697087">
        <ele>227.0</ele>
        <time>2020-07-09T11:41:21Z</time>
      </trkpt>
      <trkpt lat="49.369243" lon="6.69708">
        <ele>226.0</ele>
        <time>2020-07-09T11:41:23Z</time>
      </trkpt>
      <trkpt lat="49.369148" lon="6.69708">
        <ele>227.0</ele>
        <time>2020-07-09T11:41:25Z</time>
      </trkpt>
      <trkpt lat="49.369049" lon="6.69709">
        <ele>227.0</ele>
        <time>2020-07-09T11:41:27Z</time>
      </trkpt>
      <trkpt lat="49.368951" lon="6.697092">
        <ele>227.0</ele>
        <time>2020-07-09T11:41:29Z</time>
      </trkpt>
      <trkpt lat="49.368854" lon="6.697089">
        <ele>227.0</ele>
        <time>2020-07-09T11:41:31Z</time>
      </trkpt>
      <trkpt lat="49.368757" lon="6.697094">
        <ele>226.0</ele>
        <time>2020-07-09T11:41:33Z</time>
      </trkpt>
      <trkpt lat="49.368665" lon="6.697093">
        <ele>227.0</ele>
        <time>2020-07-09T11:41:35Z</time>
      </trkpt>
      <trkpt lat="49.36856" lon="6.697091">
        <ele>226.0</ele>
        <time>2020-07-09T11:41:37Z</time>
      </trkpt>
      <trkpt lat="49.368462" lon="6.697084">
        <ele>226.0</ele>
        <time>2020-07-09T11:41:39Z</time>
      </trkpt>
      <trkpt lat="49.368363" lon="6.697072">
        <ele>226.0</ele>
        <time>2020-07-09T11:41:41Z</time>
      </trkpt>
      <trkpt lat="49.368265" lon="6.697066">
        <ele>226.0</ele>
        <time>2020-07-09T11:41:43Z</time>
      </trkpt>
      <trkpt lat="49.368166" lon="6.69706">
        <ele>226.0</ele>
        <time>2020-07-09T11:41:45Z</time>
      </trkpt>
      <trkpt lat="49.368067" lon="6.697053">
        <ele>226.0</ele>
        <time>2020-07-09T11:41:47Z</time>
      </trkpt>
      <trkpt lat="49.367966" lon="6.697044">
        <ele>226.0</ele>
        <time>2020-07-09T11:41:49Z</time>
      </trkpt>
      <trkpt lat="49.367864" lon="6.697034">
        <ele>225.0</ele>
        <time>2020-07-09T11:41:51Z</time>
      </trkpt>
      <trkpt lat="49.367766" lon="6.697032">
        <ele>225.0</ele>
        <time>2020-07-09T11:41:53Z</time>
      </trkpt>
      <trkpt lat="49.367668" lon="6.697027">
        <ele>225.0</ele>
        <time>2020-07-09T11:41:55Z</time>
      </trkpt>
      <trkpt lat="49.367523" lon="6.697023">
        <ele>225.0</ele>
        <time>2020-07-09T11:41:58Z</time>
      </trkpt>
      <trkpt lat="49.367425" lon="6.697024">
        <ele>225.0</ele>
        <time>2020-07-09T11:42:00Z</time>
      </trkpt>
      <trkpt lat="49.367329" lon="6.697019">
        <ele>225.0</ele>
        <time>2020-07-09T11:42:02Z</time>
      </trkpt>
      <trkpt lat="49.367238" lon="6.697018">
        <ele>225.0</ele>
        <time>2020-07-09T11:42:04Z</time>
      </trkpt>
      <trkpt lat="49.36713" lon="6.697007">
        <ele>226.0</ele>
        <time>2020-07-09T11:42:06Z</time>
      </trkpt>
      <trkpt lat="49.367023" lon="6.697002">
        <ele>226.0</ele>
        <time>2020-07-09T11:42:08Z</time>
      </trkpt>
      <trkpt lat="49.366922" lon="6.697002">
        <ele>226.0</ele>
        <time>2020-07-09T11:42:10Z</time>
      </trkpt>
      <trkpt lat="49.366823" lon="6.696994">
        <ele>227.0</ele>
        <time>2020-07-09T11:42:12Z</time>
      </trkpt>
      <trkpt lat="49.366731" lon="6.696988">
        <ele>227.0</ele>
        <time>2020-07-09T11:42:14Z</time>
      </trkpt>
      <trkpt lat="49.366627" lon="6.696977">
        <ele>226.0</ele>
        <time>2020-07-09T11:42:16Z</time>
      </trkpt>
      <trkpt lat="49.366525" lon="6.696972">
        <ele>226.0</ele>
        <time>2020-07-09T11:42:18Z</time>
      </trkpt>
      <trkpt lat="49.366425" lon="6.696967">
        <ele>227.0</ele>
        <time>2020-07-09T11:42:20Z</time>
      </trkpt>
      <trkpt lat="49.366324" lon="6.696963">
        <ele>227.0</ele>
        <time>2020-07-09T11:42:22Z</time>
      </trkpt>
      <trkpt lat="49.366222" lon="6.696967">
        <ele>227.0</ele>
        <time>2020-07-09T11:42:24Z</time>
      </trkpt>
      <trkpt lat="49.36612" lon="6.696961">
        <ele>227.0</ele>
        <time>2020-07-09T11:42:26Z</time>
      </trkpt>
      <trkpt lat="49.366022" lon="6.696951">
        <ele>227.0</ele>
        <time>2020-07-09T11:42:28Z</time>
      </trkpt>
      <trkpt lat="49.365923" lon="6.696949">
        <ele>227.0</ele>
        <time>2020-07-09T11:42:30Z</time>
      </trkpt>
      <trkpt lat="49.36582" lon="6.696945">
        <ele>227.0</ele>
        <time>2020-07-09T11:42:32Z</time>
      </trkpt>
      <trkpt lat="49.365714" lon="6.696946">
        <ele>227.0</ele>
        <time>2020-07-09T11:42:34Z</time>
      </trkpt>
      <trkpt lat="49.365612" lon="6.696938">
        <ele>226.0</ele>
        <time>2020-07-09T11:42:36Z</time>
      </trkpt>
      <trkpt lat="49.365508" lon="6.696929">
        <ele>225.0</ele>
        <time>2020-07-09T11:42:38Z</time>
      </trkpt>
      <trkpt lat="49.365414" lon="6.696926">
        <ele>226.0</ele>
        <time>2020-07-09T11:42:40Z</time>
      </trkpt>
      <trkpt lat="49.365321" lon="6.696923">
        <ele>226.0</ele>
        <time>2020-07-09T11:42:42Z</time>
      </trkpt>
      <trkpt lat="49.365219" lon="6.696917">
        <ele>226.0</ele>
        <time>2020-07-09T11:42:44Z</time>
      </trkpt>
      <trkpt lat="49.365119" lon="6.696911">
        <ele>227.0</ele>
        <time>2020-07-09T11:42:46Z</time>
      </trkpt>
      <trkpt lat="49.365014" lon="6.696902">
        <ele>227.0</ele>
        <time>2020-07-09T11:42:48Z</time>
      </trkpt>
      <trkpt lat="49.364914" lon="6.696892">
        <ele>227.0</ele>
        <time>2020-07-09T11:42:50Z</time>
      </trkpt>
      <trkpt lat="49.364814" lon="6.696879">
        <ele>227.0</ele>
        <time>2020-07-09T11:42:52Z</time>
      </trkpt>
      <trkpt lat="49.364726" lon="6.696883">
        <ele>226.0</ele>
        <time>2020-07-09T11:42:54Z</time>
      </trkpt>
      <trkpt lat="49.364622" lon="6.696877">
        <ele>226.0</ele>
        <time>2020-07-09T11:42:56Z</time>
      </trkpt>
      <trkpt lat="49.364524" lon="6.696873">
        <ele>226.0</ele>
        <time>2020-07-09T11:42:58Z</time>
      </trkpt>
      <trkpt lat="49.364427" lon="6.696871">
        <ele>226.0</ele>
        <time>2020-07-09T11:43:00Z</time>
      </trkpt>
      <trkpt lat="49.364334" lon="6.69687">
        <ele>226.0</ele>
        <time>2020-07-09T11:43:02Z</time>
      </trkpt>
      <trkpt lat="49.364252" lon="6.696865">
        <ele>225.0</ele>
        <time>2020-07-09T11:43:04Z</time>
      </trkpt>
      <trkpt lat="49.364183" lon="6.696857">
        <ele>225.0</ele>
        <time>2020-07-09T11:43:06Z</time>
      </trkpt>
      <trkpt lat="49.364152" lon="6.696787">
        <ele>225.0</ele>
        <time>2020-07-09T11:43:08Z</time>
      </trkpt>
      <trkpt lat="49.364125" lon="6.696692">
        <ele>225.0</ele>
        <time>2020-07-09T11:43:10Z</time>
      </trkpt>
      <trkpt lat="49.364083" lon="6.696581">
        <ele>224.0</ele>
        <time>2020-07-09T11:43:12Z</time>
      </trkpt>
      <trkpt lat="49.364026" lon="6.696479">
        <ele>225.0</ele>
        <time>2020-07-09T11:43:14Z</time>
      </trkpt>
      <trkpt lat="49.36396" lon="6.69639">
        <ele>225.0</ele>
        <time>2020-07-09T11:43:16Z</time>
      </trkpt>
      <trkpt lat="49.363887" lon="6.696321">
        <ele>225.0</ele>
        <time>2020-07-09T11:43:18Z</time>
      </trkpt>
      <trkpt lat="49.363803" lon="6.696271">
        <ele>225.0</ele>
        <time>2020-07-09T11:43:20Z</time>
      </trkpt>
      <trkpt lat="49.363725" lon="6.696233">
        <ele>225.0</ele>
        <time>2020-07-09T11:43:22Z</time>
      </trkpt>
      <trkpt lat="49.363643" lon="6.696212">
        <ele>225.0</ele>
        <time>2020-07-09T11:43:24Z</time>
      </trkpt>
      <trkpt lat="49.363554" lon="6.696185">
        <ele>226.0</ele>
        <time>2020-07-09T11:43:26Z</time>
      </trkpt>
      <trkpt lat="49.363472" lon="6.696164">
        <ele>226.0</ele>
        <time>2020-07-09T11:43:28Z</time>
      </trkpt>
      <trkpt lat="49.363386" lon="6.696142">
        <ele>226.0</ele>
        <time>2020-07-09T11:43:30Z</time>
      </trkpt>
      <trkpt lat="49.363304" lon="6.69611">
        <ele>226.0</ele>
        <time>2020-07-09T11:43:32Z</time>
      </trkpt>
      <trkpt lat="49.363221" lon="6.696077">
        <ele>226.0</ele>
        <time>2020-07-09T11:43:34Z</time>
      </trkpt>
      <trkpt lat="49.363136" lon="6.696038">
        <ele>226.0</ele>
        <time>2020-07-09T11:43:36Z</time>
      </trkpt>
      <trkpt lat="49.363054" lon="6.695991">
        <ele>226.0</ele>
        <time>2020-07-09T11:43:38Z</time>
      </trkpt>
      <trkpt lat="49.362967" lon="6.695943">
        <ele>227.0</ele>
        <time>2020-07-09T11:43:40Z</time>
      </trkpt>
      <trkpt lat="49.36289" lon="6.695881">
        <ele>227.0</ele>
        <time>2020-07-09T11:43:42Z</time>
      </trkpt>
      <trkpt lat="49.362813" lon="6.695802">
        <ele>227.0</ele>
        <time>2020-07-09T11:43:44Z</time>
      </trkpt>
      <trkpt lat="49.36274" lon="6.695722">
        <ele>226.0</ele>
        <time>2020-07-09T11:43:46Z</time>
      </trkpt>
      <trkpt lat="49.362668" lon="6.69564">
        <ele>226.0</ele>
        <time>2020-07-09T11:43:48Z</time>
      </trkpt>
      <trkpt lat="49.36259" lon="6.695552">
        <ele>227.0</ele>
        <time>2020-07-09T11:43:50Z</time>
      </trkpt>
      <trkpt lat="49.36252" lon="6.695468">
        <ele>227.0</ele>
        <time>2020-07-09T11:43:52Z</time>
      </trkpt>
      <trkpt lat="49.362454" lon="6.695404">
        <ele>228.0</ele>
        <time>2020-07-09T11:43:54Z</time>
      </trkpt>
      <trkpt lat="49.362386" lon="6.695341">
        <ele>227.0</ele>
        <time>2020-07-09T11:43:56Z</time>
      </trkpt>
      <trkpt lat="49.362323" lon="6.69529">
        <ele>228.0</ele>
        <time>2020-07-09T11:43:58Z</time>
      </trkpt>
      <trkpt lat="49.362266" lon="6.695249">
        <ele>228.0</ele>
        <time>2020-07-09T11:44:00Z</time>
      </trkpt>
      <trkpt lat="49.36221" lon="6.695218">
        <ele>228.0</ele>
        <time>2020-07-09T11:44:02Z</time>
      </trkpt>
      <trkpt lat="49.36215" lon="6.695202">
        <ele>228.0</ele>
        <time>2020-07-09T11:44:04Z</time>
      </trkpt>
      <trkpt lat="49.362091" lon="6.695179">
        <ele>228.0</ele>
        <time>2020-07-09T11:44:06Z</time>
      </trkpt>
      <trkpt lat="49.362038" lon="6.695176">
        <ele>228.0</ele>
        <time>2020-07-09T11:44:08Z</time>
      </trkpt>
      <trkpt lat="49.361992" lon="6.695161">
        <ele>229.0</ele>
        <time>2020-07-09T11:44:10Z</time>
      </trkpt>
      <trkpt lat="49.361941" lon="6.695154">
        <ele>229.0</ele>
        <time>2020-07-09T11:44:12Z</time>
      </trkpt>
      <trkpt lat="49.3619" lon="6.695144">
        <ele>229.0</ele>
        <time>2020-07-09T11:44:14Z</time>
      </trkpt>
      <trkpt lat="49.361855" lon="6.695141">
        <ele>229.0</ele>
        <time>2020-07-09T11:44:16Z</time>
      </trkpt>
      <trkpt lat="49.361805" lon="6.695143">
        <ele>228.0</ele>
        <time>2020-07-09T11:44:18Z</time>
      </trkpt>
      <trkpt lat="49.361765" lon="6.695144">
        <ele>228.0</ele>
        <time>2020-07-09T11:44:20Z</time>
      </trkpt>
      <trkpt lat="49.361718" lon="6.69514">
        <ele>228.0</ele>
        <time>2020-07-09T11:44:22Z</time>
      </trkpt>
      <trkpt lat="49.361663" lon="6.695141">
        <ele>228.0</ele>
        <time>2020-07-09T11:44:24Z</time>
      </trkpt>
      <trkpt lat="49.361599" lon="6.695153">
        <ele>228.0</ele>
        <time>2020-07-09T11:44:26Z</time>
      </trkpt>
      <trkpt lat="49.361542" lon="6.69516">
        <ele>228.0</ele>
        <time>2020-07-09T11:44:28Z</time>
      </trkpt>
      <trkpt lat="49.361485" lon="6.695187">
        <ele>228.0</ele>
        <time>2020-07-09T11:44:30Z</time>
      </trkpt>
      <trkpt lat="49.361436" lon="6.695215">
        <ele>228.0</ele>
        <time>2020-07-09T11:44:32Z</time>
      </trkpt>
      <trkpt lat="49.361392" lon="6.695249">
        <ele>228.0</ele>
        <time>2020-07-09T11:44:34Z</time>
      </trkpt>
      <trkpt lat="49.361354" lon="6.695288">
        <ele>228.0</ele>
        <time>2020-07-09T11:44:36Z</time>
      </trkpt>
      <trkpt lat="49.36132" lon="6.695327">
        <ele>228.0</ele>
        <time>2020-07-09T11:44:38Z</time>
      </trkpt>
      <trkpt lat="49.361272" lon="6.695369">
        <ele>229.0</ele>
        <time>2020-07-09T11:44:41Z</time>
      </trkpt>
      <trkpt lat="49.361238" lon="6.695394">
        <ele>228.0</ele>
        <time>2020-07-09T11:44:43Z</time>
      </trkpt>
      <trkpt lat="49.361199" lon="6.69543">
        <ele>228.0</ele>
        <time>2020-07-09T11:44:45Z</time>
      </trkpt>
      <trkpt lat="49.361146" lon="6.695466">
        <ele>228.0</ele>
        <time>2020-07-09T11:44:47Z</time>
      </trkpt>
      <trkpt lat="49.361097" lon="6.695506">
        <ele>228.0</ele>
        <time>2020-07-09T11:44:49Z</time>
      </trkpt>
      <trkpt lat="49.361051" lon="6.695538">
        <ele>228.0</ele>
        <time>2020-07-09T11:44:51Z</time>
      </trkpt>
      <trkpt lat="49.361009" lon="6.695562">
        <ele>227.0</ele>
        <time>2020-07-09T11:44:53Z</time>
      </trkpt>
      <trkpt lat="49.360968" lon="6.695603">
        <ele>227.0</ele>
        <time>2020-07-09T11:44:55Z</time>
      </trkpt>
      <trkpt lat="49.360922" lon="6.695624">
        <ele>227.0</ele>
        <time>2020-07-09T11:44:57Z</time>
      </trkpt>
      <trkpt lat="49.360856" lon="6.695629">
        <ele>226.0</ele>
        <time>2020-07-09T11:45:00Z</time>
      </trkpt>
      <trkpt lat="49.360818" lon="6.69564">
        <ele>225.0</ele>
        <time>2020-07-09T11:45:02Z</time>
      </trkpt>
      <trkpt lat="49.360792" lon="6.695656">
        <ele>223.0</ele>
        <time>2020-07-09T11:45:04Z</time>
      </trkpt>
      <trkpt lat="49.360753" lon="6.695673">
        <ele>223.0</ele>
        <time>2020-07-09T11:45:06Z</time>
      </trkpt>
      <trkpt lat="49.360695" lon="6.695685">
        <ele>223.0</ele>
        <time>2020-07-09T11:45:08Z</time>
      </trkpt>
      <trkpt lat="49.360638" lon="6.695706">
        <ele>223.0</ele>
        <time>2020-07-09T11:45:10Z</time>
      </trkpt>
      <trkpt lat="49.360585" lon="6.695715">
        <ele>222.0</ele>
        <time>2020-07-09T11:45:12Z</time>
      </trkpt>
      <trkpt lat="49.360505" lon="6.695738">
        <ele>222.0</ele>
        <time>2020-07-09T11:45:15Z</time>
      </trkpt>
      <trkpt lat="49.360456" lon="6.695757">
        <ele>223.0</ele>
        <time>2020-07-09T11:45:17Z</time>
      </trkpt>
      <trkpt lat="49.360402" lon="6.695776">
        <ele>223.0</ele>
        <time>2020-07-09T11:45:19Z</time>
      </trkpt>
      <trkpt lat="49.360355" lon="6.695801">
        <ele>223.0</ele>
        <time>2020-07-09T11:45:21Z</time>
      </trkpt>
      <trkpt lat="49.360341" lon="6.695818">
        <ele>222.0</ele>
        <time>2020-07-09T11:45:22Z</time>
      </trkpt>
      <trkpt lat="49.360312" lon="6.695829">
        <ele>221.0</ele>
        <time>2020-07-09T11:45:25Z</time>
      </trkpt>
      <trkpt lat="49.360293" lon="6.69584">
        <ele>221.0</ele>
        <time>2020-07-09T11:45:27Z</time>
      </trkpt>
      <trkpt lat="49.360276" lon="6.69586">
        <ele>220.0</ele>
        <time>2020-07-09T11:45:29Z</time>
      </trkpt>
      <trkpt lat="49.36028" lon="6.695861">
        <ele>220.0</ele>
        <time>2020-07-09T11:45:31Z</time>
      </trkpt>
      <trkpt lat="49.360296" lon="6.695912">
        <ele>220.0</ele>
        <time>2020-07-09T11:45:33Z</time>
      </trkpt>
      <trkpt lat="49.360291" lon="6.695974">
        <ele>219.0</ele>
        <time>2020-07-09T11:45:35Z</time>
      </trkpt>
      <trkpt lat="49.360287" lon="6.696008">
        <ele>217.0</ele>
        <time>2020-07-09T11:45:37Z</time>
      </trkpt>
      <trkpt lat="49.360277" lon="6.696042">
        <ele>217.0</ele>
        <time>2020-07-09T11:45:39Z</time>
      </trkpt>
      <trkpt lat="49.360261" lon="6.696052">
        <ele>217.0</ele>
        <time>2020-07-09T11:45:41Z</time>
      </trkpt>
      <trkpt lat="49.360261" lon="6.696052">
        <ele>217.0</ele>
        <time>2020-07-09T11:45:43Z</time>
      </trkpt>
      <trkpt lat="49.360261" lon="6.696052">
        <ele>217.0</ele>
        <time>2020-07-09T11:45:45Z</time>
      </trkpt>
      <trkpt lat="49.360187" lon="6.696">
        <ele>226.0</ele>
        <time>2020-07-09T11:54:14Z</time>
      </trkpt>
      <trkpt lat="49.360187" lon="6.696">
        <ele>226.0</ele>
        <time>2020-07-09T11:54:16Z</time>
      </trkpt>
      <trkpt lat="49.360187" lon="6.695995">
        <ele>226.0</ele>
        <time>2020-07-09T11:54:18Z</time>
      </trkpt>
      <trkpt lat="49.360189" lon="6.695996">
        <ele>226.0</ele>
        <time>2020-07-09T11:54:20Z</time>
      </trkpt>
      <trkpt lat="49.360186" lon="6.695994">
        <ele>225.0</ele>
        <time>2020-07-09T11:54:22Z</time>
      </trkpt>
      <trkpt lat="49.360186" lon="6.695995">
        <ele>225.0</ele>
        <time>2020-07-09T11:54:24Z</time>
      </trkpt>
      <trkpt lat="49.360185" lon="6.695995">
        <ele>225.0</ele>
        <time>2020-07-09T11:54:26Z</time>
      </trkpt>
      <trkpt lat="49.360185" lon="6.695995">
        <ele>225.0</ele>
        <time>2020-07-09T11:54:28Z</time>
      </trkpt>
      <trkpt lat="49.360185" lon="6.695995">
        <ele>225.0</ele>
        <time>2020-07-09T11:54:30Z</time>
      </trkpt>
      <trkpt lat="49.360185" lon="6.695995">
        <ele>225.0</ele>
        <time>2020-07-09T11:54:32Z</time>
      </trkpt>
      <trkpt lat="49.360185" lon="6.695995">
        <ele>225.0</ele>
        <time>2020-07-09T11:54:34Z</time>
      </trkpt>
      <trkpt lat="49.360185" lon="6.695995">
        <ele>225.0</ele>
        <time>2020-07-09T11:54:36Z</time>
      </trkpt>
      <trkpt lat="49.360177" lon="6.695996">
        <ele>225.0</ele>
        <time>2020-07-09T11:54:38Z</time>
      </trkpt>
      <trkpt lat="49.360149" lon="6.695992">
        <ele>225.0</ele>
        <time>2020-07-09T11:54:40Z</time>
      </trkpt>
      <trkpt lat="49.360118" lon="6.696011">
        <ele>225.0</ele>
        <time>2020-07-09T11:54:42Z</time>
      </trkpt>
      <trkpt lat="49.360072" lon="6.696025">
        <ele>224.0</ele>
        <time>2020-07-09T11:54:44Z</time>
      </trkpt>
      <trkpt lat="49.360005" lon="6.696051">
        <ele>224.0</ele>
        <time>2020-07-09T11:54:46Z</time>
      </trkpt>
      <trkpt lat="49.359938" lon="6.696081">
        <ele>224.0</ele>
        <time>2020-07-09T11:54:48Z</time>
      </trkpt>
      <trkpt lat="49.359859" lon="6.696122">
        <ele>224.0</ele>
        <time>2020-07-09T11:54:50Z</time>
      </trkpt>
      <trkpt lat="49.359778" lon="6.696161">
        <ele>223.0</ele>
        <time>2020-07-09T11:54:52Z</time>
      </trkpt>
      <trkpt lat="49.359703" lon="6.696213">
        <ele>223.0</ele>
        <time>2020-07-09T11:54:54Z</time>
      </trkpt>
      <trkpt lat="49.359634" lon="6.696276">
        <ele>222.0</ele>
        <time>2020-07-09T11:54:56Z</time>
      </trkpt>
      <trkpt lat="49.359549" lon="6.696333">
        <ele>222.0</ele>
        <time>2020-07-09T11:54:58Z</time>
      </trkpt>
      <trkpt lat="49.359456" lon="6.696386">
        <ele>222.0</ele>
        <time>2020-07-09T11:55:00Z</time>
      </trkpt>
      <trkpt lat="49.359364" lon="6.696441">
        <ele>222.0</ele>
        <time>2020-07-09T11:55:02Z</time>
      </trkpt>
      <trkpt lat="49.359273" lon="6.696509">
        <ele>222.0</ele>
        <time>2020-07-09T11:55:04Z</time>
      </trkpt>
      <trkpt lat="49.359187" lon="6.69657">
        <ele>222.0</ele>
        <time>2020-07-09T11:55:06Z</time>
      </trkpt>
      <trkpt lat="49.359101" lon="6.696635">
        <ele>222.0</ele>
        <time>2020-07-09T11:55:08Z</time>
      </trkpt>
      <trkpt lat="49.359024" lon="6.696698">
        <ele>221.0</ele>
        <time>2020-07-09T11:55:10Z</time>
      </trkpt>
      <trkpt lat="49.358943" lon="6.696768">
        <ele>222.0</ele>
        <time>2020-07-09T11:55:12Z</time>
      </trkpt>
      <trkpt lat="49.358861" lon="6.696828">
        <ele>222.0</ele>
        <time>2020-07-09T11:55:14Z</time>
      </trkpt>
      <trkpt lat="49.358782" lon="6.696906">
        <ele>222.0</ele>
        <time>2020-07-09T11:55:16Z</time>
      </trkpt>
      <trkpt lat="49.358696" lon="6.696976">
        <ele>222.0</ele>
        <time>2020-07-09T11:55:18Z</time>
      </trkpt>
      <trkpt lat="49.358608" lon="6.697048">
        <ele>222.0</ele>
        <time>2020-07-09T11:55:20Z</time>
      </trkpt>
      <trkpt lat="49.358521" lon="6.697125">
        <ele>223.0</ele>
        <time>2020-07-09T11:55:22Z</time>
      </trkpt>
      <trkpt lat="49.358431" lon="6.697204">
        <ele>222.0</ele>
        <time>2020-07-09T11:55:24Z</time>
      </trkpt>
      <trkpt lat="49.358338" lon="6.697283">
        <ele>222.0</ele>
        <time>2020-07-09T11:55:26Z</time>
      </trkpt>
      <trkpt lat="49.358249" lon="6.697362">
        <ele>223.0</ele>
        <time>2020-07-09T11:55:28Z</time>
      </trkpt>
      <trkpt lat="49.358156" lon="6.697443">
        <ele>223.0</ele>
        <time>2020-07-09T11:55:30Z</time>
      </trkpt>
      <trkpt lat="49.358066" lon="6.697535">
        <ele>224.0</ele>
        <time>2020-07-09T11:55:32Z</time>
      </trkpt>
      <trkpt lat="49.357978" lon="6.697625">
        <ele>224.0</ele>
        <time>2020-07-09T11:55:34Z</time>
      </trkpt>
      <trkpt lat="49.3579" lon="6.697715">
        <ele>224.0</ele>
        <time>2020-07-09T11:55:36Z</time>
      </trkpt>
      <trkpt lat="49.357776" lon="6.697856">
        <ele>224.0</ele>
        <time>2020-07-09T11:55:39Z</time>
      </trkpt>
      <trkpt lat="49.357697" lon="6.697955">
        <ele>224.0</ele>
        <time>2020-07-09T11:55:41Z</time>
      </trkpt>
      <trkpt lat="49.35762" lon="6.698053">
        <ele>225.0</ele>
        <time>2020-07-09T11:55:43Z</time>
      </trkpt>
      <trkpt lat="49.357551" lon="6.698152">
        <ele>225.0</ele>
        <time>2020-07-09T11:55:45Z</time>
      </trkpt>
      <trkpt lat="49.357475" lon="6.698258">
        <ele>224.0</ele>
        <time>2020-07-09T11:55:47Z</time>
      </trkpt>
      <trkpt lat="49.357395" lon="6.698372">
        <ele>224.0</ele>
        <time>2020-07-09T11:55:49Z</time>
      </trkpt>
      <trkpt lat="49.357325" lon="6.698491">
        <ele>224.0</ele>
        <time>2020-07-09T11:55:51Z</time>
      </trkpt>
      <trkpt lat="49.357264" lon="6.698623">
        <ele>224.0</ele>
        <time>2020-07-09T11:55:53Z</time>
      </trkpt>
      <trkpt lat="49.357205" lon="6.698752">
        <ele>224.0</ele>
        <time>2020-07-09T11:55:55Z</time>
      </trkpt>
      <trkpt lat="49.357139" lon="6.698867">
        <ele>225.0</ele>
        <time>2020-07-09T11:55:57Z</time>
      </trkpt>
      <trkpt lat="49.357081" lon="6.698983">
        <ele>224.0</ele>
        <time>2020-07-09T11:55:59Z</time>
      </trkpt>
      <trkpt lat="49.357017" lon="6.69909">
        <ele>225.0</ele>
        <time>2020-07-09T11:56:01Z</time>
      </trkpt>
      <trkpt lat="49.35698" lon="6.69914">
        <ele>225.0</ele>
        <time>2020-07-09T11:56:02Z</time>
      </trkpt>
      <trkpt lat="49.356862" lon="6.699292">
        <ele>225.0</ele>
        <time>2020-07-09T11:56:05Z</time>
      </trkpt>
      <trkpt lat="49.356785" lon="6.699387">
        <ele>226.0</ele>
        <time>2020-07-09T11:56:07Z</time>
      </trkpt>
      <trkpt lat="49.356702" lon="6.699492">
        <ele>225.0</ele>
        <time>2020-07-09T11:56:09Z</time>
      </trkpt>
      <trkpt lat="49.356606" lon="6.699596">
        <ele>225.0</ele>
        <time>2020-07-09T11:56:11Z</time>
      </trkpt>
      <trkpt lat="49.356509" lon="6.699694">
        <ele>224.0</ele>
        <time>2020-07-09T11:56:13Z</time>
      </trkpt>
      <trkpt lat="49.356416" lon="6.699778">
        <ele>224.0</ele>
        <time>2020-07-09T11:56:15Z</time>
      </trkpt>
      <trkpt lat="49.356333" lon="6.699859">
        <ele>225.0</ele>
        <time>2020-07-09T11:56:17Z</time>
      </trkpt>
      <trkpt lat="49.35624" lon="6.699924">
        <ele>224.0</ele>
        <time>2020-07-09T11:56:19Z</time>
      </trkpt>
      <trkpt lat="49.356141" lon="6.699977">
        <ele>224.0</ele>
        <time>2020-07-09T11:56:21Z</time>
      </trkpt>
      <trkpt lat="49.356044" lon="6.700019">
        <ele>225.0</ele>
        <time>2020-07-09T11:56:23Z</time>
      </trkpt>
      <trkpt lat="49.355951" lon="6.700098">
        <ele>225.0</ele>
        <time>2020-07-09T11:56:25Z</time>
      </trkpt>
      <trkpt lat="49.355857" lon="6.700176">
        <ele>225.0</ele>
        <time>2020-07-09T11:56:27Z</time>
      </trkpt>
      <trkpt lat="49.355765" lon="6.700249">
        <ele>225.0</ele>
        <time>2020-07-09T11:56:29Z</time>
      </trkpt>
      <trkpt lat="49.355673" lon="6.700304">
        <ele>225.0</ele>
        <time>2020-07-09T11:56:31Z</time>
      </trkpt>
      <trkpt lat="49.355574" lon="6.700352">
        <ele>225.0</ele>
        <time>2020-07-09T11:56:33Z</time>
      </trkpt>
      <trkpt lat="49.35548" lon="6.700401">
        <ele>226.0</ele>
        <time>2020-07-09T11:56:35Z</time>
      </trkpt>
      <trkpt lat="49.355385" lon="6.700443">
        <ele>225.0</ele>
        <time>2020-07-09T11:56:37Z</time>
      </trkpt>
      <trkpt lat="49.355298" lon="6.700483">
        <ele>225.0</ele>
        <time>2020-07-09T11:56:39Z</time>
      </trkpt>
      <trkpt lat="49.355133" lon="6.700587">
        <ele>224.0</ele>
        <time>2020-07-09T11:56:43Z</time>
      </trkpt>
      <trkpt lat="49.355026" lon="6.700663">
        <ele>224.0</ele>
        <time>2020-07-09T11:56:45Z</time>
      </trkpt>
      <trkpt lat="49.354926" lon="6.700717">
        <ele>224.0</ele>
        <time>2020-07-09T11:56:47Z</time>
      </trkpt>
      <trkpt lat="49.354827" lon="6.700767">
        <ele>224.0</ele>
        <time>2020-07-09T11:56:49Z</time>
      </trkpt>
      <trkpt lat="49.354729" lon="6.700809">
        <ele>224.0</ele>
        <time>2020-07-09T11:56:51Z</time>
      </trkpt>
      <trkpt lat="49.354632" lon="6.700869">
        <ele>223.0</ele>
        <time>2020-07-09T11:56:53Z</time>
      </trkpt>
      <trkpt lat="49.354538" lon="6.700912">
        <ele>223.0</ele>
        <time>2020-07-09T11:56:55Z</time>
      </trkpt>
      <trkpt lat="49.354434" lon="6.700954">
        <ele>223.0</ele>
        <time>2020-07-09T11:56:57Z</time>
      </trkpt>
      <trkpt lat="49.354335" lon="6.700989">
        <ele>223.0</ele>
        <time>2020-07-09T11:56:59Z</time>
      </trkpt>
      <trkpt lat="49.354234" lon="6.701035">
        <ele>223.0</ele>
        <time>2020-07-09T11:57:01Z</time>
      </trkpt>
      <trkpt lat="49.354141" lon="6.70108">
        <ele>223.0</ele>
        <time>2020-07-09T11:57:03Z</time>
      </trkpt>
      <trkpt lat="49.354036" lon="6.701122">
        <ele>223.0</ele>
        <time>2020-07-09T11:57:05Z</time>
      </trkpt>
      <trkpt lat="49.353898" lon="6.701209">
        <ele>223.0</ele>
        <time>2020-07-09T11:57:08Z</time>
      </trkpt>
      <trkpt lat="49.353792" lon="6.701245">
        <ele>224.0</ele>
        <time>2020-07-09T11:57:10Z</time>
      </trkpt>
      <trkpt lat="49.353695" lon="6.701281">
        <ele>225.0</ele>
        <time>2020-07-09T11:57:12Z</time>
      </trkpt>
      <trkpt lat="49.35359" lon="6.701317">
        <ele>225.0</ele>
        <time>2020-07-09T11:57:14Z</time>
      </trkpt>
      <trkpt lat="49.353491" lon="6.701349">
        <ele>225.0</ele>
        <time>2020-07-09T11:57:16Z</time>
      </trkpt>
      <trkpt lat="49.353389" lon="6.70139">
        <ele>225.0</ele>
        <time>2020-07-09T11:57:18Z</time>
      </trkpt>
      <trkpt lat="49.353288" lon="6.701427">
        <ele>225.0</ele>
        <time>2020-07-09T11:57:20Z</time>
      </trkpt>
      <trkpt lat="49.353192" lon="6.701477">
        <ele>225.0</ele>
        <time>2020-07-09T11:57:22Z</time>
      </trkpt>
      <trkpt lat="49.353053" lon="6.701526">
        <ele>224.0</ele>
        <time>2020-07-09T11:57:25Z</time>
      </trkpt>
      <trkpt lat="49.352926" lon="6.701558">
        <ele>224.0</ele>
        <time>2020-07-09T11:57:28Z</time>
      </trkpt>
      <trkpt lat="49.352793" lon="6.701597">
        <ele>223.0</ele>
        <time>2020-07-09T11:57:31Z</time>
      </trkpt>
      <trkpt lat="49.35271" lon="6.701612">
        <ele>223.0</ele>
        <time>2020-07-09T11:57:33Z</time>
      </trkpt>
      <trkpt lat="49.352629" lon="6.701628">
        <ele>224.0</ele>
        <time>2020-07-09T11:57:35Z</time>
      </trkpt>
      <trkpt lat="49.352551" lon="6.701635">
        <ele>223.0</ele>
        <time>2020-07-09T11:57:37Z</time>
      </trkpt>
      <trkpt lat="49.352469" lon="6.701652">
        <ele>223.0</ele>
        <time>2020-07-09T11:57:39Z</time>
      </trkpt>
      <trkpt lat="49.352335" lon="6.70169">
        <ele>224.0</ele>
        <time>2020-07-09T11:57:42Z</time>
      </trkpt>
      <trkpt lat="49.352239" lon="6.701718">
        <ele>224.0</ele>
        <time>2020-07-09T11:57:44Z</time>
      </trkpt>
      <trkpt lat="49.352136" lon="6.701738">
        <ele>224.0</ele>
        <time>2020-07-09T11:57:46Z</time>
      </trkpt>
      <trkpt lat="49.352038" lon="6.701755">
        <ele>225.0</ele>
        <time>2020-07-09T11:57:48Z</time>
      </trkpt>
      <trkpt lat="49.351937" lon="6.70178">
        <ele>224.0</ele>
        <time>2020-07-09T11:57:50Z</time>
      </trkpt>
      <trkpt lat="49.351828" lon="6.701795">
        <ele>225.0</ele>
        <time>2020-07-09T11:57:52Z</time>
      </trkpt>
      <trkpt lat="49.351718" lon="6.701811">
        <ele>225.0</ele>
        <time>2020-07-09T11:57:54Z</time>
      </trkpt>
      <trkpt lat="49.35156" lon="6.701839">
        <ele>224.0</ele>
        <time>2020-07-09T11:57:57Z</time>
      </trkpt>
      <trkpt lat="49.35146" lon="6.701846">
        <ele>223.0</ele>
        <time>2020-07-09T11:57:59Z</time>
      </trkpt>
      <trkpt lat="49.351356" lon="6.701858">
        <ele>223.0</ele>
        <time>2020-07-09T11:58:01Z</time>
      </trkpt>
      <trkpt lat="49.35125" lon="6.701873">
        <ele>224.0</ele>
        <time>2020-07-09T11:58:03Z</time>
      </trkpt>
      <trkpt lat="49.351145" lon="6.701883">
        <ele>224.0</ele>
        <time>2020-07-09T11:58:05Z</time>
      </trkpt>
      <trkpt lat="49.350988" lon="6.701891">
        <ele>223.0</ele>
        <time>2020-07-09T11:58:08Z</time>
      </trkpt>
      <trkpt lat="49.350891" lon="6.701902">
        <ele>224.0</ele>
        <time>2020-07-09T11:58:10Z</time>
      </trkpt>
      <trkpt lat="49.350739" lon="6.701899">
        <ele>223.0</ele>
        <time>2020-07-09T11:58:13Z</time>
      </trkpt>
      <trkpt lat="49.350634" lon="6.701907">
        <ele>223.0</ele>
        <time>2020-07-09T11:58:15Z</time>
      </trkpt>
      <trkpt lat="49.350523" lon="6.701897">
        <ele>224.0</ele>
        <time>2020-07-09T11:58:17Z</time>
      </trkpt>
      <trkpt lat="49.350369" lon="6.701901">
        <ele>224.0</ele>
        <time>2020-07-09T11:58:20Z</time>
      </trkpt>
      <trkpt lat="49.350267" lon="6.70189">
        <ele>224.0</ele>
        <time>2020-07-09T11:58:22Z</time>
      </trkpt>
      <trkpt lat="49.350211" lon="6.701881">
        <ele>223.0</ele>
        <time>2020-07-09T11:58:23Z</time>
      </trkpt>
      <trkpt lat="49.35006" lon="6.701873">
        <ele>224.0</ele>
        <time>2020-07-09T11:58:26Z</time>
      </trkpt>
      <trkpt lat="49.349967" lon="6.70187">
        <ele>224.0</ele>
        <time>2020-07-09T11:58:28Z</time>
      </trkpt>
      <trkpt lat="49.349868" lon="6.701862">
        <ele>224.0</ele>
        <time>2020-07-09T11:58:30Z</time>
      </trkpt>
      <trkpt lat="49.349773" lon="6.701866">
        <ele>224.0</ele>
        <time>2020-07-09T11:58:32Z</time>
      </trkpt>
      <trkpt lat="49.349627" lon="6.701852">
        <ele>225.0</ele>
        <time>2020-07-09T11:58:35Z</time>
      </trkpt>
      <trkpt lat="49.349523" lon="6.701847">
        <ele>225.0</ele>
        <time>2020-07-09T11:58:37Z</time>
      </trkpt>
      <trkpt lat="49.349417" lon="6.701846">
        <ele>224.0</ele>
        <time>2020-07-09T11:58:39Z</time>
      </trkpt>
      <trkpt lat="49.349365" lon="6.701844">
        <ele>224.0</ele>
        <time>2020-07-09T11:58:40Z</time>
      </trkpt>
      <trkpt lat="49.349164" lon="6.701843">
        <ele>224.0</ele>
        <time>2020-07-09T11:58:44Z</time>
      </trkpt>
      <trkpt lat="49.349064" lon="6.70183">
        <ele>224.0</ele>
        <time>2020-07-09T11:58:46Z</time>
      </trkpt>
      <trkpt lat="49.348976" lon="6.701829">
        <ele>223.0</ele>
        <time>2020-07-09T11:58:48Z</time>
      </trkpt>
      <trkpt lat="49.348885" lon="6.701827">
        <ele>224.0</ele>
        <time>2020-07-09T11:58:50Z</time>
      </trkpt>
      <trkpt lat="49.348793" lon="6.701832">
        <ele>224.0</ele>
        <time>2020-07-09T11:58:52Z</time>
      </trkpt>
      <trkpt lat="49.348702" lon="6.70184">
        <ele>224.0</ele>
        <time>2020-07-09T11:58:54Z</time>
      </trkpt>
      <trkpt lat="49.348607" lon="6.701853">
        <ele>224.0</ele>
        <time>2020-07-09T11:58:56Z</time>
      </trkpt>
      <trkpt lat="49.348515" lon="6.701857">
        <ele>224.0</ele>
        <time>2020-07-09T11:58:58Z</time>
      </trkpt>
      <trkpt lat="49.348425" lon="6.701869">
        <ele>224.0</ele>
        <time>2020-07-09T11:59:00Z</time>
      </trkpt>
      <trkpt lat="49.348333" lon="6.701882">
        <ele>224.0</ele>
        <time>2020-07-09T11:59:02Z</time>
      </trkpt>
      <trkpt lat="49.348193" lon="6.701915">
        <ele>224.0</ele>
        <time>2020-07-09T11:59:05Z</time>
      </trkpt>
      <trkpt lat="49.348098" lon="6.701938">
        <ele>224.0</ele>
        <time>2020-07-09T11:59:07Z</time>
      </trkpt>
      <trkpt lat="49.348004" lon="6.701947">
        <ele>224.0</ele>
        <time>2020-07-09T11:59:09Z</time>
      </trkpt>
      <trkpt lat="49.347913" lon="6.701957">
        <ele>225.0</ele>
        <time>2020-07-09T11:59:11Z</time>
      </trkpt>
      <trkpt lat="49.347821" lon="6.701973">
        <ele>225.0</ele>
        <time>2020-07-09T11:59:13Z</time>
      </trkpt>
      <trkpt lat="49.347728" lon="6.701995">
        <ele>224.0</ele>
        <time>2020-07-09T11:59:15Z</time>
      </trkpt>
      <trkpt lat="49.347639" lon="6.702019">
        <ele>224.0</ele>
        <time>2020-07-09T11:59:17Z</time>
      </trkpt>
      <trkpt lat="49.347545" lon="6.702045">
        <ele>224.0</ele>
        <time>2020-07-09T11:59:19Z</time>
      </trkpt>
      <trkpt lat="49.34741" lon="6.702092">
        <ele>224.0</ele>
        <time>2020-07-09T11:59:22Z</time>
      </trkpt>
      <trkpt lat="49.347316" lon="6.702132">
        <ele>224.0</ele>
        <time>2020-07-09T11:59:24Z</time>
      </trkpt>
      <trkpt lat="49.347271" lon="6.702155">
        <ele>225.0</ele>
        <time>2020-07-09T11:59:25Z</time>
      </trkpt>
      <trkpt lat="49.34713" lon="6.702211">
        <ele>225.0</ele>
        <time>2020-07-09T11:59:28Z</time>
      </trkpt>
      <trkpt lat="49.346997" lon="6.702257">
        <ele>226.0</ele>
        <time>2020-07-09T11:59:31Z</time>
      </trkpt>
      <trkpt lat="49.346905" lon="6.702281">
        <ele>225.0</ele>
        <time>2020-07-09T11:59:33Z</time>
      </trkpt>
      <trkpt lat="49.346767" lon="6.702334">
        <ele>225.0</ele>
        <time>2020-07-09T11:59:36Z</time>
      </trkpt>
      <trkpt lat="49.346674" lon="6.702385">
        <ele>225.0</ele>
        <time>2020-07-09T11:59:38Z</time>
      </trkpt>
      <trkpt lat="49.346583" lon="6.702428">
        <ele>225.0</ele>
        <time>2020-07-09T11:59:40Z</time>
      </trkpt>
      <trkpt lat="49.346488" lon="6.702472">
        <ele>225.0</ele>
        <time>2020-07-09T11:59:42Z</time>
      </trkpt>
      <trkpt lat="49.346349" lon="6.702561">
        <ele>225.0</ele>
        <time>2020-07-09T11:59:45Z</time>
      </trkpt>
      <trkpt lat="49.346257" lon="6.702617">
        <ele>225.0</ele>
        <time>2020-07-09T11:59:47Z</time>
      </trkpt>
      <trkpt lat="49.346162" lon="6.702671">
        <ele>225.0</ele>
        <time>2020-07-09T11:59:49Z</time>
      </trkpt>
      <trkpt lat="49.346073" lon="6.702733">
        <ele>225.0</ele>
        <time>2020-07-09T11:59:51Z</time>
      </trkpt>
      <trkpt lat="49.345984" lon="6.702788">
        <ele>225.0</ele>
        <time>2020-07-09T11:59:53Z</time>
      </trkpt>
      <trkpt lat="49.345887" lon="6.702827">
        <ele>225.0</ele>
        <time>2020-07-09T11:59:55Z</time>
      </trkpt>
      <trkpt lat="49.345795" lon="6.702898">
        <ele>225.0</ele>
        <time>2020-07-09T11:59:57Z</time>
      </trkpt>
      <trkpt lat="49.3457" lon="6.702952">
        <ele>225.0</ele>
        <time>2020-07-09T11:59:59Z</time>
      </trkpt>
      <trkpt lat="49.345616" lon="6.703025">
        <ele>226.0</ele>
        <time>2020-07-09T12:00:01Z</time>
      </trkpt>
      <trkpt lat="49.345478" lon="6.703133">
        <ele>227.0</ele>
        <time>2020-07-09T12:00:04Z</time>
      </trkpt>
      <trkpt lat="49.345388" lon="6.703193">
        <ele>226.0</ele>
        <time>2020-07-09T12:00:06Z</time>
      </trkpt>
      <trkpt lat="49.3453" lon="6.703265">
        <ele>226.0</ele>
        <time>2020-07-09T12:00:08Z</time>
      </trkpt>
      <trkpt lat="49.345172" lon="6.703411">
        <ele>225.0</ele>
        <time>2020-07-09T12:00:11Z</time>
      </trkpt>
      <trkpt lat="49.345086" lon="6.703504">
        <ele>225.0</ele>
        <time>2020-07-09T12:00:13Z</time>
      </trkpt>
      <trkpt lat="49.345" lon="6.703579">
        <ele>226.0</ele>
        <time>2020-07-09T12:00:15Z</time>
      </trkpt>
      <trkpt lat="49.344863" lon="6.703686">
        <ele>226.0</ele>
        <time>2020-07-09T12:00:18Z</time>
      </trkpt>
      <trkpt lat="49.344776" lon="6.703769">
        <ele>225.0</ele>
        <time>2020-07-09T12:00:20Z</time>
      </trkpt>
      <trkpt lat="49.344691" lon="6.703851">
        <ele>225.0</ele>
        <time>2020-07-09T12:00:22Z</time>
      </trkpt>
      <trkpt lat="49.344604" lon="6.703934">
        <ele>225.0</ele>
        <time>2020-07-09T12:00:24Z</time>
      </trkpt>
      <trkpt lat="49.344526" lon="6.704015">
        <ele>224.0</ele>
        <time>2020-07-09T12:00:26Z</time>
      </trkpt>
      <trkpt lat="49.344446" lon="6.704101">
        <ele>223.0</ele>
        <time>2020-07-09T12:00:28Z</time>
      </trkpt>
      <trkpt lat="49.344406" lon="6.704148">
        <ele>223.0</ele>
        <time>2020-07-09T12:00:29Z</time>
      </trkpt>
      <trkpt lat="49.34428" lon="6.704277">
        <ele>223.0</ele>
        <time>2020-07-09T12:00:32Z</time>
      </trkpt>
      <trkpt lat="49.344199" lon="6.704372">
        <ele>223.0</ele>
        <time>2020-07-09T12:00:34Z</time>
      </trkpt>
      <trkpt lat="49.344123" lon="6.704473">
        <ele>223.0</ele>
        <time>2020-07-09T12:00:36Z</time>
      </trkpt>
      <trkpt lat="49.344041" lon="6.70457">
        <ele>223.0</ele>
        <time>2020-07-09T12:00:38Z</time>
      </trkpt>
      <trkpt lat="49.343967" lon="6.704665">
        <ele>223.0</ele>
        <time>2020-07-09T12:00:40Z</time>
      </trkpt>
      <trkpt lat="49.34389" lon="6.704764">
        <ele>223.0</ele>
        <time>2020-07-09T12:00:42Z</time>
      </trkpt>
      <trkpt lat="49.343819" lon="6.704873">
        <ele>223.0</ele>
        <time>2020-07-09T12:00:44Z</time>
      </trkpt>
      <trkpt lat="49.34371" lon="6.705028">
        <ele>223.0</ele>
        <time>2020-07-09T12:00:47Z</time>
      </trkpt>
      <trkpt lat="49.343635" lon="6.705125">
        <ele>223.0</ele>
        <time>2020-07-09T12:00:49Z</time>
      </trkpt>
      <trkpt lat="49.343563" lon="6.705222">
        <ele>222.0</ele>
        <time>2020-07-09T12:00:51Z</time>
      </trkpt>
      <trkpt lat="49.34349" lon="6.70533">
        <ele>222.0</ele>
        <time>2020-07-09T12:00:53Z</time>
      </trkpt>
      <trkpt lat="49.343387" lon="6.705487">
        <ele>222.0</ele>
        <time>2020-07-09T12:00:56Z</time>
      </trkpt>
      <trkpt lat="49.343317" lon="6.705601">
        <ele>222.0</ele>
        <time>2020-07-09T12:00:58Z</time>
      </trkpt>
      <trkpt lat="49.343283" lon="6.705656">
        <ele>222.0</ele>
        <time>2020-07-09T12:00:59Z</time>
      </trkpt>
      <trkpt lat="49.343182" lon="6.705831">
        <ele>222.0</ele>
        <time>2020-07-09T12:01:02Z</time>
      </trkpt>
      <trkpt lat="49.343116" lon="6.705945">
        <ele>222.0</ele>
        <time>2020-07-09T12:01:04Z</time>
      </trkpt>
      <trkpt lat="49.34301" lon="6.706108">
        <ele>222.0</ele>
        <time>2020-07-09T12:01:07Z</time>
      </trkpt>
      <trkpt lat="49.342975" lon="6.706165">
        <ele>222.0</ele>
        <time>2020-07-09T12:01:08Z</time>
      </trkpt>
      <trkpt lat="49.342872" lon="6.706327">
        <ele>222.0</ele>
        <time>2020-07-09T12:01:11Z</time>
      </trkpt>
      <trkpt lat="49.342803" lon="6.706438">
        <ele>222.0</ele>
        <time>2020-07-09T12:01:13Z</time>
      </trkpt>
      <trkpt lat="49.342736" lon="6.706547">
        <ele>222.0</ele>
        <time>2020-07-09T12:01:15Z</time>
      </trkpt>
      <trkpt lat="49.342702" lon="6.706604">
        <ele>222.0</ele>
        <time>2020-07-09T12:01:16Z</time>
      </trkpt>
      <trkpt lat="49.34261" lon="6.706776">
        <ele>222.0</ele>
        <time>2020-07-09T12:01:19Z</time>
      </trkpt>
      <trkpt lat="49.342543" lon="6.706893">
        <ele>222.0</ele>
        <time>2020-07-09T12:01:21Z</time>
      </trkpt>
      <trkpt lat="49.342476" lon="6.707009">
        <ele>222.0</ele>
        <time>2020-07-09T12:01:23Z</time>
      </trkpt>
      <trkpt lat="49.342378" lon="6.707189">
        <ele>222.0</ele>
        <time>2020-07-09T12:01:26Z</time>
      </trkpt>
      <trkpt lat="49.342309" lon="6.707303">
        <ele>221.0</ele>
        <time>2020-07-09T12:01:28Z</time>
      </trkpt>
      <trkpt lat="49.342238" lon="6.707419">
        <ele>221.0</ele>
        <time>2020-07-09T12:01:30Z</time>
      </trkpt>
      <trkpt lat="49.342174" lon="6.707534">
        <ele>221.0</ele>
        <time>2020-07-09T12:01:32Z</time>
      </trkpt>
      <trkpt lat="49.342085" lon="6.707709">
        <ele>221.0</ele>
        <time>2020-07-09T12:01:35Z</time>
      </trkpt>
      <trkpt lat="49.342024" lon="6.707835">
        <ele>221.0</ele>
        <time>2020-07-09T12:01:37Z</time>
      </trkpt>
      <trkpt lat="49.341943" lon="6.708028">
        <ele>220.0</ele>
        <time>2020-07-09T12:01:40Z</time>
      </trkpt>
      <trkpt lat="49.34188" lon="6.708154">
        <ele>220.0</ele>
        <time>2020-07-09T12:01:42Z</time>
      </trkpt>
      <trkpt lat="49.341788" lon="6.708352">
        <ele>221.0</ele>
        <time>2020-07-09T12:01:45Z</time>
      </trkpt>
      <trkpt lat="49.341723" lon="6.708471">
        <ele>221.0</ele>
        <time>2020-07-09T12:01:47Z</time>
      </trkpt>
      <trkpt lat="49.341666" lon="6.708588">
        <ele>221.0</ele>
        <time>2020-07-09T12:01:49Z</time>
      </trkpt>
      <trkpt lat="49.341603" lon="6.70871">
        <ele>221.0</ele>
        <time>2020-07-09T12:01:51Z</time>
      </trkpt>
      <trkpt lat="49.341519" lon="6.7089">
        <ele>220.0</ele>
        <time>2020-07-09T12:01:54Z</time>
      </trkpt>
      <trkpt lat="49.341457" lon="6.709021">
        <ele>219.0</ele>
        <time>2020-07-09T12:01:56Z</time>
      </trkpt>
      <trkpt lat="49.341401" lon="6.70915">
        <ele>220.0</ele>
        <time>2020-07-09T12:01:58Z</time>
      </trkpt>
      <trkpt lat="49.341347" lon="6.709289">
        <ele>221.0</ele>
        <time>2020-07-09T12:02:00Z</time>
      </trkpt>
      <trkpt lat="49.34126" lon="6.709475">
        <ele>221.0</ele>
        <time>2020-07-09T12:02:03Z</time>
      </trkpt>
      <trkpt lat="49.341208" lon="6.709595">
        <ele>221.0</ele>
        <time>2020-07-09T12:02:05Z</time>
      </trkpt>
      <trkpt lat="49.341147" lon="6.709716">
        <ele>222.0</ele>
        <time>2020-07-09T12:02:07Z</time>
      </trkpt>
      <trkpt lat="49.341054" lon="6.709907">
        <ele>222.0</ele>
        <time>2020-07-09T12:02:10Z</time>
      </trkpt>
      <trkpt lat="49.340994" lon="6.710028">
        <ele>222.0</ele>
        <time>2020-07-09T12:02:12Z</time>
      </trkpt>
      <trkpt lat="49.340908" lon="6.710225">
        <ele>222.0</ele>
        <time>2020-07-09T12:02:15Z</time>
      </trkpt>
      <trkpt lat="49.340852" lon="6.71036">
        <ele>223.0</ele>
        <time>2020-07-09T12:02:17Z</time>
      </trkpt>
      <trkpt lat="49.3408" lon="6.710488">
        <ele>223.0</ele>
        <time>2020-07-09T12:02:19Z</time>
      </trkpt>
      <trkpt lat="49.340743" lon="6.710619">
        <ele>223.0</ele>
        <time>2020-07-09T12:02:21Z</time>
      </trkpt>
      <trkpt lat="49.340671" lon="6.710824">
        <ele>223.0</ele>
        <time>2020-07-09T12:02:24Z</time>
      </trkpt>
      <trkpt lat="49.340623" lon="6.710968">
        <ele>224.0</ele>
        <time>2020-07-09T12:02:26Z</time>
      </trkpt>
      <trkpt lat="49.340566" lon="6.711111">
        <ele>224.0</ele>
        <time>2020-07-09T12:02:28Z</time>
      </trkpt>
      <trkpt lat="49.340512" lon="6.711248">
        <ele>224.0</ele>
        <time>2020-07-09T12:02:30Z</time>
      </trkpt>
      <trkpt lat="49.340461" lon="6.71138">
        <ele>224.0</ele>
        <time>2020-07-09T12:02:32Z</time>
      </trkpt>
      <trkpt lat="49.340404" lon="6.711521">
        <ele>224.0</ele>
        <time>2020-07-09T12:02:34Z</time>
      </trkpt>
      <trkpt lat="49.340348" lon="6.711665">
        <ele>223.0</ele>
        <time>2020-07-09T12:02:36Z</time>
      </trkpt>
      <trkpt lat="49.340298" lon="6.711806">
        <ele>223.0</ele>
        <time>2020-07-09T12:02:38Z</time>
      </trkpt>
      <trkpt lat="49.340248" lon="6.711946">
        <ele>223.0</ele>
        <time>2020-07-09T12:02:40Z</time>
      </trkpt>
      <trkpt lat="49.340192" lon="6.712085">
        <ele>224.0</ele>
        <time>2020-07-09T12:02:42Z</time>
      </trkpt>
      <trkpt lat="49.340143" lon="6.712231">
        <ele>224.0</ele>
        <time>2020-07-09T12:02:44Z</time>
      </trkpt>
      <trkpt lat="49.340093" lon="6.712373">
        <ele>224.0</ele>
        <time>2020-07-09T12:02:46Z</time>
      </trkpt>
      <trkpt lat="49.340018" lon="6.712597">
        <ele>223.0</ele>
        <time>2020-07-09T12:02:49Z</time>
      </trkpt>
      <trkpt lat="49.339979" lon="6.712762">
        <ele>223.0</ele>
        <time>2020-07-09T12:02:51Z</time>
      </trkpt>
      <trkpt lat="49.339903" lon="6.712969">
        <ele>224.0</ele>
        <time>2020-07-09T12:02:54Z</time>
      </trkpt>
      <trkpt lat="49.339855" lon="6.713111">
        <ele>224.0</ele>
        <time>2020-07-09T12:02:56Z</time>
      </trkpt>
      <trkpt lat="49.339809" lon="6.713262">
        <ele>224.0</ele>
        <time>2020-07-09T12:02:58Z</time>
      </trkpt>
      <trkpt lat="49.339762" lon="6.71341">
        <ele>224.0</ele>
        <time>2020-07-09T12:03:00Z</time>
      </trkpt>
      <trkpt lat="49.339692" lon="6.713625">
        <ele>224.0</ele>
        <time>2020-07-09T12:03:03Z</time>
      </trkpt>
      <trkpt lat="49.339643" lon="6.713778">
        <ele>224.0</ele>
        <time>2020-07-09T12:03:05Z</time>
      </trkpt>
      <trkpt lat="49.339601" lon="6.713922">
        <ele>223.0</ele>
        <time>2020-07-09T12:03:07Z</time>
      </trkpt>
      <trkpt lat="49.339561" lon="6.71406">
        <ele>223.0</ele>
        <time>2020-07-09T12:03:09Z</time>
      </trkpt>
      <trkpt lat="49.339518" lon="6.714202">
        <ele>223.0</ele>
        <time>2020-07-09T12:03:11Z</time>
      </trkpt>
      <trkpt lat="49.339477" lon="6.714341">
        <ele>223.0</ele>
        <time>2020-07-09T12:03:13Z</time>
      </trkpt>
      <trkpt lat="49.339438" lon="6.71448">
        <ele>223.0</ele>
        <time>2020-07-09T12:03:15Z</time>
      </trkpt>
      <trkpt lat="49.339405" lon="6.714613">
        <ele>223.0</ele>
        <time>2020-07-09T12:03:17Z</time>
      </trkpt>
      <trkpt lat="49.339378" lon="6.714754">
        <ele>224.0</ele>
        <time>2020-07-09T12:03:19Z</time>
      </trkpt>
      <trkpt lat="49.33936" lon="6.714905">
        <ele>224.0</ele>
        <time>2020-07-09T12:03:21Z</time>
      </trkpt>
      <trkpt lat="49.339339" lon="6.715115">
        <ele>224.0</ele>
        <time>2020-07-09T12:03:24Z</time>
      </trkpt>
      <trkpt lat="49.339299" lon="6.715249">
        <ele>224.0</ele>
        <time>2020-07-09T12:03:26Z</time>
      </trkpt>
      <trkpt lat="49.339251" lon="6.715386">
        <ele>223.0</ele>
        <time>2020-07-09T12:03:28Z</time>
      </trkpt>
      <trkpt lat="49.339187" lon="6.715507">
        <ele>223.0</ele>
        <time>2020-07-09T12:03:30Z</time>
      </trkpt>
      <trkpt lat="49.339096" lon="6.715693">
        <ele>223.0</ele>
        <time>2020-07-09T12:03:33Z</time>
      </trkpt>
      <trkpt lat="49.339038" lon="6.71583">
        <ele>223.0</ele>
        <time>2020-07-09T12:03:35Z</time>
      </trkpt>
      <trkpt lat="49.338985" lon="6.715968">
        <ele>223.0</ele>
        <time>2020-07-09T12:03:37Z</time>
      </trkpt>
      <trkpt lat="49.338939" lon="6.716108">
        <ele>223.0</ele>
        <time>2020-07-09T12:03:39Z</time>
      </trkpt>
      <trkpt lat="49.338917" lon="6.716182">
        <ele>223.0</ele>
        <time>2020-07-09T12:03:40Z</time>
      </trkpt>
      <trkpt lat="49.338855" lon="6.71647">
        <ele>223.0</ele>
        <time>2020-07-09T12:03:44Z</time>
      </trkpt>
      <trkpt lat="49.338816" lon="6.716597">
        <ele>223.0</ele>
        <time>2020-07-09T12:03:46Z</time>
      </trkpt>
      <trkpt lat="49.338779" lon="6.716722">
        <ele>223.0</ele>
        <time>2020-07-09T12:03:48Z</time>
      </trkpt>
      <trkpt lat="49.33874" lon="6.716837">
        <ele>224.0</ele>
        <time>2020-07-09T12:03:50Z</time>
      </trkpt>
      <trkpt lat="49.338701" lon="6.716968">
        <ele>223.0</ele>
        <time>2020-07-09T12:03:52Z</time>
      </trkpt>
      <trkpt lat="49.338666" lon="6.71709">
        <ele>224.0</ele>
        <time>2020-07-09T12:03:54Z</time>
      </trkpt>
      <trkpt lat="49.338624" lon="6.717222">
        <ele>224.0</ele>
        <time>2020-07-09T12:03:56Z</time>
      </trkpt>
      <trkpt lat="49.338573" lon="6.717345">
        <ele>223.0</ele>
        <time>2020-07-09T12:03:58Z</time>
      </trkpt>
      <trkpt lat="49.338531" lon="6.717473">
        <ele>223.0</ele>
        <time>2020-07-09T12:04:00Z</time>
      </trkpt>
      <trkpt lat="49.338481" lon="6.71762">
        <ele>223.0</ele>
        <time>2020-07-09T12:04:02Z</time>
      </trkpt>
      <trkpt lat="49.338412" lon="6.717836">
        <ele>223.0</ele>
        <time>2020-07-09T12:04:05Z</time>
      </trkpt>
      <trkpt lat="49.338365" lon="6.717984">
        <ele>223.0</ele>
        <time>2020-07-09T12:04:07Z</time>
      </trkpt>
      <trkpt lat="49.338319" lon="6.718137">
        <ele>223.0</ele>
        <time>2020-07-09T12:04:09Z</time>
      </trkpt>
      <trkpt lat="49.338278" lon="6.718288">
        <ele>223.0</ele>
        <time>2020-07-09T12:04:11Z</time>
      </trkpt>
      <trkpt lat="49.33823" lon="6.718436">
        <ele>223.0</ele>
        <time>2020-07-09T12:04:13Z</time>
      </trkpt>
      <trkpt lat="49.338154" lon="6.718654">
        <ele>223.0</ele>
        <time>2020-07-09T12:04:16Z</time>
      </trkpt>
      <trkpt lat="49.338106" lon="6.718814">
        <ele>223.0</ele>
        <time>2020-07-09T12:04:18Z</time>
      </trkpt>
      <trkpt lat="49.338038" lon="6.719024">
        <ele>223.0</ele>
        <time>2020-07-09T12:04:21Z</time>
      </trkpt>
      <trkpt lat="49.337996" lon="6.719158">
        <ele>223.0</ele>
        <time>2020-07-09T12:04:23Z</time>
      </trkpt>
      <trkpt lat="49.337948" lon="6.719299">
        <ele>223.0</ele>
        <time>2020-07-09T12:04:25Z</time>
      </trkpt>
      <trkpt lat="49.337876" lon="6.719505">
        <ele>223.0</ele>
        <time>2020-07-09T12:04:28Z</time>
      </trkpt>
      <trkpt lat="49.337851" lon="6.719572">
        <ele>223.0</ele>
        <time>2020-07-09T12:04:29Z</time>
      </trkpt>
      <trkpt lat="49.337786" lon="6.719771">
        <ele>223.0</ele>
        <time>2020-07-09T12:04:32Z</time>
      </trkpt>
      <trkpt lat="49.33773" lon="6.719901">
        <ele>223.0</ele>
        <time>2020-07-09T12:04:34Z</time>
      </trkpt>
      <trkpt lat="49.337682" lon="6.720033">
        <ele>222.0</ele>
        <time>2020-07-09T12:04:36Z</time>
      </trkpt>
      <trkpt lat="49.337626" lon="6.720171">
        <ele>222.0</ele>
        <time>2020-07-09T12:04:38Z</time>
      </trkpt>
      <trkpt lat="49.337576" lon="6.72031">
        <ele>223.0</ele>
        <time>2020-07-09T12:04:40Z</time>
      </trkpt>
      <trkpt lat="49.337528" lon="6.720451">
        <ele>223.0</ele>
        <time>2020-07-09T12:04:42Z</time>
      </trkpt>
      <trkpt lat="49.33748" lon="6.720582">
        <ele>223.0</ele>
        <time>2020-07-09T12:04:44Z</time>
      </trkpt>
      <trkpt lat="49.337433" lon="6.720712">
        <ele>223.0</ele>
        <time>2020-07-09T12:04:46Z</time>
      </trkpt>
      <trkpt lat="49.337383" lon="6.720855">
        <ele>222.0</ele>
        <time>2020-07-09T12:04:48Z</time>
      </trkpt>
      <trkpt lat="49.337302" lon="6.721057">
        <ele>223.0</ele>
        <time>2020-07-09T12:04:51Z</time>
      </trkpt>
      <trkpt lat="49.337243" lon="6.721199">
        <ele>222.0</ele>
        <time>2020-07-09T12:04:53Z</time>
      </trkpt>
      <trkpt lat="49.33719" lon="6.721342">
        <ele>222.0</ele>
        <time>2020-07-09T12:04:55Z</time>
      </trkpt>
      <trkpt lat="49.337163" lon="6.721413">
        <ele>223.0</ele>
        <time>2020-07-09T12:04:56Z</time>
      </trkpt>
      <trkpt lat="49.33708" lon="6.721623">
        <ele>222.0</ele>
        <time>2020-07-09T12:04:59Z</time>
      </trkpt>
      <trkpt lat="49.337028" lon="6.721765">
        <ele>223.0</ele>
        <time>2020-07-09T12:05:01Z</time>
      </trkpt>
      <trkpt lat="49.336969" lon="6.721906">
        <ele>222.0</ele>
        <time>2020-07-09T12:05:03Z</time>
      </trkpt>
      <trkpt lat="49.336914" lon="6.722049">
        <ele>222.0</ele>
        <time>2020-07-09T12:05:05Z</time>
      </trkpt>
      <trkpt lat="49.336858" lon="6.722182">
        <ele>222.0</ele>
        <time>2020-07-09T12:05:07Z</time>
      </trkpt>
      <trkpt lat="49.336772" lon="6.722386">
        <ele>223.0</ele>
        <time>2020-07-09T12:05:10Z</time>
      </trkpt>
      <trkpt lat="49.336721" lon="6.722523">
        <ele>223.0</ele>
        <time>2020-07-09T12:05:12Z</time>
      </trkpt>
      <trkpt lat="49.336665" lon="6.722664">
        <ele>223.0</ele>
        <time>2020-07-09T12:05:14Z</time>
      </trkpt>
      <trkpt lat="49.336617" lon="6.722796">
        <ele>224.0</ele>
        <time>2020-07-09T12:05:16Z</time>
      </trkpt>
      <trkpt lat="49.33657" lon="6.722932">
        <ele>224.0</ele>
        <time>2020-07-09T12:05:18Z</time>
      </trkpt>
      <trkpt lat="49.33648" lon="6.723135">
        <ele>224.0</ele>
        <time>2020-07-09T12:05:21Z</time>
      </trkpt>
      <trkpt lat="49.336417" lon="6.723267">
        <ele>224.0</ele>
        <time>2020-07-09T12:05:23Z</time>
      </trkpt>
      <trkpt lat="49.336352" lon="6.723397">
        <ele>224.0</ele>
        <time>2020-07-09T12:05:25Z</time>
      </trkpt>
      <trkpt lat="49.33629" lon="6.723521">
        <ele>224.0</ele>
        <time>2020-07-09T12:05:27Z</time>
      </trkpt>
      <trkpt lat="49.336225" lon="6.723648">
        <ele>224.0</ele>
        <time>2020-07-09T12:05:29Z</time>
      </trkpt>
      <trkpt lat="49.336165" lon="6.723782">
        <ele>224.0</ele>
        <time>2020-07-09T12:05:31Z</time>
      </trkpt>
      <trkpt lat="49.33608" lon="6.723983">
        <ele>224.0</ele>
        <time>2020-07-09T12:05:34Z</time>
      </trkpt>
      <trkpt lat="49.336025" lon="6.724119">
        <ele>224.0</ele>
        <time>2020-07-09T12:05:36Z</time>
      </trkpt>
      <trkpt lat="49.335963" lon="6.724245">
        <ele>224.0</ele>
        <time>2020-07-09T12:05:38Z</time>
      </trkpt>
      <trkpt lat="49.335908" lon="6.72436">
        <ele>225.0</ele>
        <time>2020-07-09T12:05:40Z</time>
      </trkpt>
      <trkpt lat="49.33585" lon="6.724486">
        <ele>225.0</ele>
        <time>2020-07-09T12:05:42Z</time>
      </trkpt>
      <trkpt lat="49.335764" lon="6.724683">
        <ele>225.0</ele>
        <time>2020-07-09T12:05:45Z</time>
      </trkpt>
      <trkpt lat="49.335695" lon="6.724808">
        <ele>225.0</ele>
        <time>2020-07-09T12:05:47Z</time>
      </trkpt>
      <trkpt lat="49.335663" lon="6.724871">
        <ele>225.0</ele>
        <time>2020-07-09T12:05:48Z</time>
      </trkpt>
      <trkpt lat="49.335543" lon="6.725124">
        <ele>225.0</ele>
        <time>2020-07-09T12:05:52Z</time>
      </trkpt>
      <trkpt lat="49.335481" lon="6.72525">
        <ele>225.0</ele>
        <time>2020-07-09T12:05:54Z</time>
      </trkpt>
      <trkpt lat="49.335414" lon="6.725374">
        <ele>226.0</ele>
        <time>2020-07-09T12:05:56Z</time>
      </trkpt>
      <trkpt lat="49.335325" lon="6.725572">
        <ele>225.0</ele>
        <time>2020-07-09T12:05:59Z</time>
      </trkpt>
      <trkpt lat="49.335264" lon="6.725704">
        <ele>225.0</ele>
        <time>2020-07-09T12:06:01Z</time>
      </trkpt>
      <trkpt lat="49.335232" lon="6.725774">
        <ele>225.0</ele>
        <time>2020-07-09T12:06:02Z</time>
      </trkpt>
      <trkpt lat="49.335103" lon="6.72604">
        <ele>225.0</ele>
        <time>2020-07-09T12:06:06Z</time>
      </trkpt>
      <trkpt lat="49.335046" lon="6.726159">
        <ele>225.0</ele>
        <time>2020-07-09T12:06:08Z</time>
      </trkpt>
      <trkpt lat="49.334978" lon="6.726272">
        <ele>225.0</ele>
        <time>2020-07-09T12:06:10Z</time>
      </trkpt>
      <trkpt lat="49.334914" lon="6.726383">
        <ele>225.0</ele>
        <time>2020-07-09T12:06:12Z</time>
      </trkpt>
      <trkpt lat="49.334853" lon="6.726492">
        <ele>225.0</ele>
        <time>2020-07-09T12:06:14Z</time>
      </trkpt>
      <trkpt lat="49.334789" lon="6.726604">
        <ele>225.0</ele>
        <time>2020-07-09T12:06:16Z</time>
      </trkpt>
      <trkpt lat="49.334733" lon="6.726708">
        <ele>225.0</ele>
        <time>2020-07-09T12:06:18Z</time>
      </trkpt>
      <trkpt lat="49.334664" lon="6.726858">
        <ele>225.0</ele>
        <time>2020-07-09T12:06:21Z</time>
      </trkpt>
      <trkpt lat="49.334638" lon="6.726907">
        <ele>225.0</ele>
        <time>2020-07-09T12:06:22Z</time>
      </trkpt>
      <trkpt lat="49.334556" lon="6.727035">
        <ele>225.0</ele>
        <time>2020-07-09T12:06:25Z</time>
      </trkpt>
      <trkpt lat="49.334507" lon="6.727089">
        <ele>225.0</ele>
        <time>2020-07-09T12:06:27Z</time>
      </trkpt>
      <trkpt lat="49.334455" lon="6.727098">
        <ele>225.0</ele>
        <time>2020-07-09T12:06:29Z</time>
      </trkpt>
      <trkpt lat="49.33441" lon="6.727084">
        <ele>226.0</ele>
        <time>2020-07-09T12:06:32Z</time>
      </trkpt>
      <trkpt lat="49.334405" lon="6.727063">
        <ele>226.0</ele>
        <time>2020-07-09T12:06:34Z</time>
      </trkpt>
      <trkpt lat="49.33443" lon="6.72705">
        <ele>226.0</ele>
        <time>2020-07-09T12:06:36Z</time>
      </trkpt>
      <trkpt lat="49.334479" lon="6.727095">
        <ele>226.0</ele>
        <time>2020-07-09T12:06:39Z</time>
      </trkpt>
      <trkpt lat="49.334499" lon="6.727101">
        <ele>225.0</ele>
        <time>2020-07-09T12:06:40Z</time>
      </trkpt>
      <trkpt lat="49.33455" lon="6.727065">
        <ele>225.0</ele>
        <time>2020-07-09T12:06:43Z</time>
      </trkpt>
      <trkpt lat="49.334591" lon="6.72699">
        <ele>225.0</ele>
        <time>2020-07-09T12:06:46Z</time>
      </trkpt>
      <trkpt lat="49.334642" lon="6.726932">
        <ele>225.0</ele>
        <time>2020-07-09T12:06:50Z</time>
      </trkpt>
      <trkpt lat="49.334633" lon="6.72693">
        <ele>225.0</ele>
        <time>2020-07-09T12:06:52Z</time>
      </trkpt>
      <trkpt lat="49.33463" lon="6.72693">
        <ele>226.0</ele>
        <time>2020-07-09T12:06:54Z</time>
      </trkpt>
      <trkpt lat="49.33463" lon="6.72693">
        <ele>226.0</ele>
        <time>2020-07-09T12:06:55Z</time>
      </trkpt>
      <trkpt lat="49.33463" lon="6.72693">
        <ele>226.0</ele>
        <time>2020-07-09T12:06:58Z</time>
      </trkpt>
      <trkpt lat="49.334632" lon="6.726916">
        <ele>226.0</ele>
        <time>2020-07-09T12:07:44Z</time>
      </trkpt>
      <trkpt lat="49.334632" lon="6.726916">
        <ele>226.0</ele>
        <time>2020-07-09T12:07:47Z</time>
      </trkpt>
      <trkpt lat="49.334632" lon="6.726916">
        <ele>226.0</ele>
        <time>2020-07-09T12:07:49Z</time>
      </trkpt>
      <trkpt lat="49.334632" lon="6.726916">
        <ele>226.0</ele>
        <time>2020-07-09T12:07:51Z</time>
      </trkpt>
      <trkpt lat="49.334632" lon="6.726916">
        <ele>226.0</ele>
        <time>2020-07-09T12:07:53Z</time>
      </trkpt>
      <trkpt lat="49.334632" lon="6.726916">
        <ele>226.0</ele>
        <time>2020-07-09T12:07:55Z</time>
      </trkpt>
      <trkpt lat="49.334632" lon="6.726916">
        <ele>226.0</ele>
        <time>2020-07-09T12:07:57Z</time>
      </trkpt>
      <trkpt lat="49.334632" lon="6.726916">
        <ele>226.0</ele>
        <time>2020-07-09T12:07:59Z</time>
      </trkpt>
      <trkpt lat="49.334632" lon="6.726916">
        <ele>226.0</ele>
        <time>2020-07-09T12:08:01Z</time>
      </trkpt>
      <trkpt lat="49.334632" lon="6.726916">
        <ele>226.0</ele>
        <time>2020-07-09T12:08:03Z</time>
      </trkpt>
      <trkpt lat="49.334632" lon="6.726916">
        <ele>226.0</ele>
        <time>2020-07-09T12:08:05Z</time>
      </trkpt>
      <trkpt lat="49.334632" lon="6.726916">
        <ele>226.0</ele>
        <time>2020-07-09T12:08:07Z</time>
      </trkpt>
      <trkpt lat="49.334645" lon="6.726901">
        <ele>225.0</ele>
        <time>2020-07-09T12:08:09Z</time>
      </trkpt>
      <trkpt lat="49.33467" lon="6.726861">
        <ele>226.0</ele>
        <time>2020-07-09T12:08:11Z</time>
      </trkpt>
      <trkpt lat="49.334703" lon="6.726792">
        <ele>227.0</ele>
        <time>2020-07-09T12:08:13Z</time>
      </trkpt>
      <trkpt lat="49.334749" lon="6.726713">
        <ele>228.0</ele>
        <time>2020-07-09T12:08:15Z</time>
      </trkpt>
      <trkpt lat="49.334791" lon="6.726627">
        <ele>228.0</ele>
        <time>2020-07-09T12:08:17Z</time>
      </trkpt>
      <trkpt lat="49.334845" lon="6.726543">
        <ele>228.0</ele>
        <time>2020-07-09T12:08:19Z</time>
      </trkpt>
      <trkpt lat="49.334889" lon="6.726453">
        <ele>228.0</ele>
        <time>2020-07-09T12:08:21Z</time>
      </trkpt>
      <trkpt lat="49.334943" lon="6.726353">
        <ele>228.0</ele>
        <time>2020-07-09T12:08:23Z</time>
      </trkpt>
      <trkpt lat="49.335" lon="6.726254">
        <ele>227.0</ele>
        <time>2020-07-09T12:08:25Z</time>
      </trkpt>
      <trkpt lat="49.335052" lon="6.72615">
        <ele>226.0</ele>
        <time>2020-07-09T12:08:27Z</time>
      </trkpt>
      <trkpt lat="49.335101" lon="6.726045">
        <ele>227.0</ele>
        <time>2020-07-09T12:08:29Z</time>
      </trkpt>
      <trkpt lat="49.335154" lon="6.725942">
        <ele>227.0</ele>
        <time>2020-07-09T12:08:31Z</time>
      </trkpt>
      <trkpt lat="49.335203" lon="6.725833">
        <ele>227.0</ele>
        <time>2020-07-09T12:08:33Z</time>
      </trkpt>
      <trkpt lat="49.335293" lon="6.725676">
        <ele>227.0</ele>
        <time>2020-07-09T12:08:36Z</time>
      </trkpt>
      <trkpt lat="49.335375" lon="6.725513">
        <ele>227.0</ele>
        <time>2020-07-09T12:08:39Z</time>
      </trkpt>
      <trkpt lat="49.335432" lon="6.725406">
        <ele>227.0</ele>
        <time>2020-07-09T12:08:41Z</time>
      </trkpt>
      <trkpt lat="49.335485" lon="6.7253">
        <ele>227.0</ele>
        <time>2020-07-09T12:08:43Z</time>
      </trkpt>
      <trkpt lat="49.335534" lon="6.725197">
        <ele>227.0</ele>
        <time>2020-07-09T12:08:45Z</time>
      </trkpt>
      <trkpt lat="49.335584" lon="6.725089">
        <ele>227.0</ele>
        <time>2020-07-09T12:08:47Z</time>
      </trkpt>
      <trkpt lat="49.335639" lon="6.724976">
        <ele>227.0</ele>
        <time>2020-07-09T12:08:49Z</time>
      </trkpt>
      <trkpt lat="49.33573" lon="6.724804">
        <ele>227.0</ele>
        <time>2020-07-09T12:08:52Z</time>
      </trkpt>
      <trkpt lat="49.335786" lon="6.72468">
        <ele>227.0</ele>
        <time>2020-07-09T12:08:54Z</time>
      </trkpt>
      <trkpt lat="49.335842" lon="6.724561">
        <ele>227.0</ele>
        <time>2020-07-09T12:08:56Z</time>
      </trkpt>
      <trkpt lat="49.335892" lon="6.724438">
        <ele>227.0</ele>
        <time>2020-07-09T12:08:58Z</time>
      </trkpt>
      <trkpt lat="49.335945" lon="6.724317">
        <ele>227.0</ele>
        <time>2020-07-09T12:09:00Z</time>
      </trkpt>
      <trkpt lat="49.336001" lon="6.724194">
        <ele>227.0</ele>
        <time>2020-07-09T12:09:02Z</time>
      </trkpt>
      <trkpt lat="49.336062" lon="6.724075">
        <ele>228.0</ele>
        <time>2020-07-09T12:09:04Z</time>
      </trkpt>
      <trkpt lat="49.336122" lon="6.723954">
        <ele>228.0</ele>
        <time>2020-07-09T12:09:06Z</time>
      </trkpt>
      <trkpt lat="49.336181" lon="6.723834">
        <ele>228.0</ele>
        <time>2020-07-09T12:09:08Z</time>
      </trkpt>
      <trkpt lat="49.336264" lon="6.723644">
        <ele>228.0</ele>
        <time>2020-07-09T12:09:11Z</time>
      </trkpt>
      <trkpt lat="49.33635" lon="6.723447">
        <ele>228.0</ele>
        <time>2020-07-09T12:09:14Z</time>
      </trkpt>
      <trkpt lat="49.336413" lon="6.723311">
        <ele>228.0</ele>
        <time>2020-07-09T12:09:16Z</time>
      </trkpt>
      <trkpt lat="49.336467" lon="6.723185">
        <ele>228.0</ele>
        <time>2020-07-09T12:09:18Z</time>
      </trkpt>
      <trkpt lat="49.336551" lon="6.722994">
        <ele>227.0</ele>
        <time>2020-07-09T12:09:21Z</time>
      </trkpt>
      <trkpt lat="49.336603" lon="6.722858">
        <ele>227.0</ele>
        <time>2020-07-09T12:09:23Z</time>
      </trkpt>
      <trkpt lat="49.33666" lon="6.722722">
        <ele>227.0</ele>
        <time>2020-07-09T12:09:25Z</time>
      </trkpt>
      <trkpt lat="49.336717" lon="6.722589">
        <ele>227.0</ele>
        <time>2020-07-09T12:09:27Z</time>
      </trkpt>
      <trkpt lat="49.336804" lon="6.722392">
        <ele>227.0</ele>
        <time>2020-07-09T12:09:30Z</time>
      </trkpt>
      <trkpt lat="49.336858" lon="6.722262">
        <ele>227.0</ele>
        <time>2020-07-09T12:09:32Z</time>
      </trkpt>
      <trkpt lat="49.336911" lon="6.722129">
        <ele>227.0</ele>
        <time>2020-07-09T12:09:34Z</time>
      </trkpt>
      <trkpt lat="49.336966" lon="6.722">
        <ele>227.0</ele>
        <time>2020-07-09T12:09:36Z</time>
      </trkpt>
      <trkpt lat="49.337044" lon="6.721802">
        <ele>228.0</ele>
        <time>2020-07-09T12:09:39Z</time>
      </trkpt>
      <trkpt lat="49.337098" lon="6.721673">
        <ele>228.0</ele>
        <time>2020-07-09T12:09:41Z</time>
      </trkpt>
      <trkpt lat="49.337145" lon="6.721539">
        <ele>228.0</ele>
        <time>2020-07-09T12:09:43Z</time>
      </trkpt>
      <trkpt lat="49.337195" lon="6.721412">
        <ele>228.0</ele>
        <time>2020-07-09T12:09:45Z</time>
      </trkpt>
      <trkpt lat="49.337245" lon="6.72128">
        <ele>228.0</ele>
        <time>2020-07-09T12:09:47Z</time>
      </trkpt>
      <trkpt lat="49.337292" lon="6.721139">
        <ele>228.0</ele>
        <time>2020-07-09T12:09:49Z</time>
      </trkpt>
      <trkpt lat="49.337341" lon="6.721001">
        <ele>228.0</ele>
        <time>2020-07-09T12:09:51Z</time>
      </trkpt>
      <trkpt lat="49.337421" lon="6.720804">
        <ele>228.0</ele>
        <time>2020-07-09T12:09:54Z</time>
      </trkpt>
      <trkpt lat="49.337478" lon="6.720676">
        <ele>228.0</ele>
        <time>2020-07-09T12:09:56Z</time>
      </trkpt>
      <trkpt lat="49.33755" lon="6.720462">
        <ele>228.0</ele>
        <time>2020-07-09T12:09:59Z</time>
      </trkpt>
      <trkpt lat="49.337597" lon="6.720327">
        <ele>229.0</ele>
        <time>2020-07-09T12:10:01Z</time>
      </trkpt>
      <trkpt lat="49.337648" lon="6.720194">
        <ele>229.0</ele>
        <time>2020-07-09T12:10:03Z</time>
      </trkpt>
      <trkpt lat="49.337697" lon="6.720054">
        <ele>228.0</ele>
        <time>2020-07-09T12:10:05Z</time>
      </trkpt>
      <trkpt lat="49.337769" lon="6.719835">
        <ele>228.0</ele>
        <time>2020-07-09T12:10:08Z</time>
      </trkpt>
      <trkpt lat="49.337821" lon="6.719692">
        <ele>227.0</ele>
        <time>2020-07-09T12:10:10Z</time>
      </trkpt>
      <trkpt lat="49.337872" lon="6.719549">
        <ele>227.0</ele>
        <time>2020-07-09T12:10:12Z</time>
      </trkpt>
      <trkpt lat="49.33792" lon="6.719409">
        <ele>227.0</ele>
        <time>2020-07-09T12:10:14Z</time>
      </trkpt>
      <trkpt lat="49.337968" lon="6.719267">
        <ele>227.0</ele>
        <time>2020-07-09T12:10:16Z</time>
      </trkpt>
      <trkpt lat="49.33804" lon="6.719053">
        <ele>227.0</ele>
        <time>2020-07-09T12:10:19Z</time>
      </trkpt>
      <trkpt lat="49.33809" lon="6.718904">
        <ele>227.0</ele>
        <time>2020-07-09T12:10:21Z</time>
      </trkpt>
      <trkpt lat="49.338136" lon="6.718761">
        <ele>227.0</ele>
        <time>2020-07-09T12:10:23Z</time>
      </trkpt>
      <trkpt lat="49.338182" lon="6.718618">
        <ele>227.0</ele>
        <time>2020-07-09T12:10:25Z</time>
      </trkpt>
      <trkpt lat="49.338233" lon="6.718472">
        <ele>227.0</ele>
        <time>2020-07-09T12:10:27Z</time>
      </trkpt>
      <trkpt lat="49.338277" lon="6.718333">
        <ele>227.0</ele>
        <time>2020-07-09T12:10:29Z</time>
      </trkpt>
      <trkpt lat="49.33832" lon="6.718203">
        <ele>227.0</ele>
        <time>2020-07-09T12:10:31Z</time>
      </trkpt>
      <trkpt lat="49.338352" lon="6.718083">
        <ele>227.0</ele>
        <time>2020-07-09T12:10:33Z</time>
      </trkpt>
      <trkpt lat="49.33839" lon="6.717964">
        <ele>227.0</ele>
        <time>2020-07-09T12:10:35Z</time>
      </trkpt>
      <trkpt lat="49.338427" lon="6.717841">
        <ele>227.0</ele>
        <time>2020-07-09T12:10:37Z</time>
      </trkpt>
      <trkpt lat="49.338464" lon="6.717716">
        <ele>227.0</ele>
        <time>2020-07-09T12:10:39Z</time>
      </trkpt>
      <trkpt lat="49.338482" lon="6.717653">
        <ele>228.0</ele>
        <time>2020-07-09T12:10:40Z</time>
      </trkpt>
      <trkpt lat="49.338555" lon="6.717406">
        <ele>227.0</ele>
        <time>2020-07-09T12:10:44Z</time>
      </trkpt>
      <trkpt lat="49.338588" lon="6.7173">
        <ele>227.0</ele>
        <time>2020-07-09T12:10:46Z</time>
      </trkpt>
      <trkpt lat="49.338622" lon="6.717198">
        <ele>227.0</ele>
        <time>2020-07-09T12:10:48Z</time>
      </trkpt>
      <trkpt lat="49.338637" lon="6.717095">
        <ele>227.0</ele>
        <time>2020-07-09T12:10:50Z</time>
      </trkpt>
      <trkpt lat="49.338626" lon="6.717043">
        <ele>227.0</ele>
        <time>2020-07-09T12:10:51Z</time>
      </trkpt>
      <trkpt lat="49.338598" lon="6.716936">
        <ele>227.0</ele>
        <time>2020-07-09T12:10:54Z</time>
      </trkpt>
      <trkpt lat="49.33859" lon="6.71687">
        <ele>227.0</ele>
        <time>2020-07-09T12:10:56Z</time>
      </trkpt>
      <trkpt lat="49.338585" lon="6.716801">
        <ele>227.0</ele>
        <time>2020-07-09T12:10:58Z</time>
      </trkpt>
      <trkpt lat="49.338584" lon="6.716703">
        <ele>227.0</ele>
        <time>2020-07-09T12:11:01Z</time>
      </trkpt>
      <trkpt lat="49.338606" lon="6.716626">
        <ele>227.0</ele>
        <time>2020-07-09T12:11:03Z</time>
      </trkpt>
      <trkpt lat="49.338644" lon="6.716572">
        <ele>227.0</ele>
        <time>2020-07-09T12:11:05Z</time>
      </trkpt>
      <trkpt lat="49.338663" lon="6.716537">
        <ele>227.0</ele>
        <time>2020-07-09T12:11:06Z</time>
      </trkpt>
      <trkpt lat="49.338714" lon="6.716414">
        <ele>227.0</ele>
        <time>2020-07-09T12:11:09Z</time>
      </trkpt>
      <trkpt lat="49.338741" lon="6.716335">
        <ele>227.0</ele>
        <time>2020-07-09T12:11:11Z</time>
      </trkpt>
      <trkpt lat="49.338771" lon="6.716256">
        <ele>228.0</ele>
        <time>2020-07-09T12:11:13Z</time>
      </trkpt>
      <trkpt lat="49.338799" lon="6.716175">
        <ele>228.0</ele>
        <time>2020-07-09T12:11:15Z</time>
      </trkpt>
      <trkpt lat="49.338835" lon="6.716051">
        <ele>229.0</ele>
        <time>2020-07-09T12:11:18Z</time>
      </trkpt>
      <trkpt lat="49.33886" lon="6.715963">
        <ele>229.0</ele>
        <time>2020-07-09T12:11:20Z</time>
      </trkpt>
      <trkpt lat="49.338889" lon="6.715885">
        <ele>229.0</ele>
        <time>2020-07-09T12:11:22Z</time>
      </trkpt>
      <trkpt lat="49.338915" lon="6.715798">
        <ele>229.0</ele>
        <time>2020-07-09T12:11:24Z</time>
      </trkpt>
      <trkpt lat="49.338945" lon="6.715717">
        <ele>230.0</ele>
        <time>2020-07-09T12:11:26Z</time>
      </trkpt>
      <trkpt lat="49.338971" lon="6.715628">
        <ele>230.0</ele>
        <time>2020-07-09T12:11:28Z</time>
      </trkpt>
      <trkpt lat="49.339011" lon="6.715506">
        <ele>230.0</ele>
        <time>2020-07-09T12:11:31Z</time>
      </trkpt>
      <trkpt lat="49.339035" lon="6.715423">
        <ele>231.0</ele>
        <time>2020-07-09T12:11:33Z</time>
      </trkpt>
      <trkpt lat="49.339069" lon="6.715317">
        <ele>231.0</ele>
        <time>2020-07-09T12:11:36Z</time>
      </trkpt>
      <trkpt lat="49.339087" lon="6.715261">
        <ele>231.0</ele>
        <time>2020-07-09T12:11:38Z</time>
      </trkpt>
      <trkpt lat="49.339097" lon="6.715197">
        <ele>231.0</ele>
        <time>2020-07-09T12:11:40Z</time>
      </trkpt>
      <trkpt lat="49.339055" lon="6.715112">
        <ele>232.0</ele>
        <time>2020-07-09T12:11:43Z</time>
      </trkpt>
      <trkpt lat="49.339033" lon="6.715086">
        <ele>232.0</ele>
        <time>2020-07-09T12:11:44Z</time>
      </trkpt>
      <trkpt lat="49.338948" lon="6.715018">
        <ele>232.0</ele>
        <time>2020-07-09T12:11:47Z</time>
      </trkpt>
      <trkpt lat="49.338886" lon="6.714985">
        <ele>233.0</ele>
        <time>2020-07-09T12:11:49Z</time>
      </trkpt>
      <trkpt lat="49.338819" lon="6.714977">
        <ele>233.0</ele>
        <time>2020-07-09T12:11:51Z</time>
      </trkpt>
      <trkpt lat="49.338755" lon="6.715014">
        <ele>233.0</ele>
        <time>2020-07-09T12:11:53Z</time>
      </trkpt>
      <trkpt lat="49.338705" lon="6.7151">
        <ele>233.0</ele>
        <time>2020-07-09T12:11:55Z</time>
      </trkpt>
      <trkpt lat="49.338657" lon="6.715198">
        <ele>233.0</ele>
        <time>2020-07-09T12:11:57Z</time>
      </trkpt>
      <trkpt lat="49.338602" lon="6.715305">
        <ele>233.0</ele>
        <time>2020-07-09T12:11:59Z</time>
      </trkpt>
      <trkpt lat="49.338546" lon="6.7154">
        <ele>233.0</ele>
        <time>2020-07-09T12:12:01Z</time>
      </trkpt>
      <trkpt lat="49.338465" lon="6.715548">
        <ele>232.0</ele>
        <time>2020-07-09T12:12:04Z</time>
      </trkpt>
      <trkpt lat="49.338415" lon="6.715639">
        <ele>233.0</ele>
        <time>2020-07-09T12:12:06Z</time>
      </trkpt>
      <trkpt lat="49.338352" lon="6.715736">
        <ele>232.0</ele>
        <time>2020-07-09T12:12:08Z</time>
      </trkpt>
      <trkpt lat="49.338317" lon="6.715784">
        <ele>232.0</ele>
        <time>2020-07-09T12:12:09Z</time>
      </trkpt>
      <trkpt lat="49.338208" lon="6.715937">
        <ele>232.0</ele>
        <time>2020-07-09T12:12:12Z</time>
      </trkpt>
      <trkpt lat="49.338174" lon="6.715987">
        <ele>232.0</ele>
        <time>2020-07-09T12:12:13Z</time>
      </trkpt>
      <trkpt lat="49.338061" lon="6.716137">
        <ele>232.0</ele>
        <time>2020-07-09T12:12:16Z</time>
      </trkpt>
      <trkpt lat="49.337992" lon="6.716232">
        <ele>231.0</ele>
        <time>2020-07-09T12:12:18Z</time>
      </trkpt>
      <trkpt lat="49.337913" lon="6.716359">
        <ele>231.0</ele>
        <time>2020-07-09T12:12:21Z</time>
      </trkpt>
      <trkpt lat="49.337873" lon="6.716442">
        <ele>231.0</ele>
        <time>2020-07-09T12:12:23Z</time>
      </trkpt>
      <trkpt lat="49.337894" lon="6.716495">
        <ele>230.0</ele>
        <time>2020-07-09T12:12:25Z</time>
      </trkpt>
      <trkpt lat="49.337947" lon="6.71653">
        <ele>231.0</ele>
        <time>2020-07-09T12:12:27Z</time>
      </trkpt>
      <trkpt lat="49.338006" lon="6.716598">
        <ele>231.0</ele>
        <time>2020-07-09T12:12:29Z</time>
      </trkpt>
      <trkpt lat="49.338059" lon="6.7167">
        <ele>230.0</ele>
        <time>2020-07-09T12:12:31Z</time>
      </trkpt>
      <trkpt lat="49.338071" lon="6.71684">
        <ele>229.0</ele>
        <time>2020-07-09T12:12:33Z</time>
      </trkpt>
      <trkpt lat="49.338016" lon="6.717004">
        <ele>228.0</ele>
        <time>2020-07-09T12:12:35Z</time>
      </trkpt>
      <trkpt lat="49.337956" lon="6.717176">
        <ele>228.0</ele>
        <time>2020-07-09T12:12:37Z</time>
      </trkpt>
      <trkpt lat="49.337875" lon="6.717406">
        <ele>228.0</ele>
        <time>2020-07-09T12:12:40Z</time>
      </trkpt>
      <trkpt lat="49.337817" lon="6.717571">
        <ele>228.0</ele>
        <time>2020-07-09T12:12:42Z</time>
      </trkpt>
      <trkpt lat="49.337788" lon="6.717644">
        <ele>229.0</ele>
        <time>2020-07-09T12:12:43Z</time>
      </trkpt>
      <trkpt lat="49.3377" lon="6.717855">
        <ele>229.0</ele>
        <time>2020-07-09T12:12:46Z</time>
      </trkpt>
      <trkpt lat="49.337641" lon="6.717988">
        <ele>229.0</ele>
        <time>2020-07-09T12:12:48Z</time>
      </trkpt>
      <trkpt lat="49.337575" lon="6.718117">
        <ele>229.0</ele>
        <time>2020-07-09T12:12:50Z</time>
      </trkpt>
      <trkpt lat="49.337505" lon="6.718268">
        <ele>229.0</ele>
        <time>2020-07-09T12:12:52Z</time>
      </trkpt>
      <trkpt lat="49.337433" lon="6.718432">
        <ele>229.0</ele>
        <time>2020-07-09T12:12:54Z</time>
      </trkpt>
      <trkpt lat="49.337363" lon="6.718583">
        <ele>229.0</ele>
        <time>2020-07-09T12:12:56Z</time>
      </trkpt>
      <trkpt lat="49.337295" lon="6.71873">
        <ele>228.0</ele>
        <time>2020-07-09T12:12:58Z</time>
      </trkpt>
      <trkpt lat="49.337232" lon="6.718882">
        <ele>228.0</ele>
        <time>2020-07-09T12:13:00Z</time>
      </trkpt>
      <trkpt lat="49.337169" lon="6.719019">
        <ele>228.0</ele>
        <time>2020-07-09T12:13:02Z</time>
      </trkpt>
      <trkpt lat="49.337078" lon="6.719253">
        <ele>228.0</ele>
        <time>2020-07-09T12:13:05Z</time>
      </trkpt>
      <trkpt lat="49.33702" lon="6.719386">
        <ele>228.0</ele>
        <time>2020-07-09T12:13:07Z</time>
      </trkpt>
      <trkpt lat="49.336964" lon="6.719513">
        <ele>228.0</ele>
        <time>2020-07-09T12:13:09Z</time>
      </trkpt>
      <trkpt lat="49.33689" lon="6.719637">
        <ele>228.0</ele>
        <time>2020-07-09T12:13:11Z</time>
      </trkpt>
      <trkpt lat="49.336796" lon="6.719759">
        <ele>227.0</ele>
        <time>2020-07-09T12:13:13Z</time>
      </trkpt>
      <trkpt lat="49.336713" lon="6.719869">
        <ele>227.0</ele>
        <time>2020-07-09T12:13:15Z</time>
      </trkpt>
      <trkpt lat="49.336622" lon="6.71997">
        <ele>227.0</ele>
        <time>2020-07-09T12:13:17Z</time>
      </trkpt>
      <trkpt lat="49.33652" lon="6.720058">
        <ele>226.0</ele>
        <time>2020-07-09T12:13:19Z</time>
      </trkpt>
      <trkpt lat="49.336409" lon="6.720132">
        <ele>226.0</ele>
        <time>2020-07-09T12:13:21Z</time>
      </trkpt>
      <trkpt lat="49.336299" lon="6.720208">
        <ele>226.0</ele>
        <time>2020-07-09T12:13:23Z</time>
      </trkpt>
      <trkpt lat="49.336197" lon="6.720262">
        <ele>226.0</ele>
        <time>2020-07-09T12:13:25Z</time>
      </trkpt>
      <trkpt lat="49.336082" lon="6.720297">
        <ele>227.0</ele>
        <time>2020-07-09T12:13:27Z</time>
      </trkpt>
      <trkpt lat="49.335964" lon="6.720337">
        <ele>227.0</ele>
        <time>2020-07-09T12:13:29Z</time>
      </trkpt>
      <trkpt lat="49.335852" lon="6.720354">
        <ele>227.0</ele>
        <time>2020-07-09T12:13:31Z</time>
      </trkpt>
      <trkpt lat="49.335738" lon="6.720373">
        <ele>227.0</ele>
        <time>2020-07-09T12:13:33Z</time>
      </trkpt>
      <trkpt lat="49.335627" lon="6.720381">
        <ele>228.0</ele>
        <time>2020-07-09T12:13:35Z</time>
      </trkpt>
      <trkpt lat="49.335517" lon="6.720393">
        <ele>228.0</ele>
        <time>2020-07-09T12:13:37Z</time>
      </trkpt>
      <trkpt lat="49.335345" lon="6.720402">
        <ele>228.0</ele>
        <time>2020-07-09T12:13:40Z</time>
      </trkpt>
      <trkpt lat="49.335232" lon="6.72041">
        <ele>228.0</ele>
        <time>2020-07-09T12:13:42Z</time>
      </trkpt>
      <trkpt lat="49.33512" lon="6.720413">
        <ele>227.0</ele>
        <time>2020-07-09T12:13:44Z</time>
      </trkpt>
      <trkpt lat="49.334953" lon="6.720412">
        <ele>228.0</ele>
        <time>2020-07-09T12:13:47Z</time>
      </trkpt>
      <trkpt lat="49.334839" lon="6.720416">
        <ele>228.0</ele>
        <time>2020-07-09T12:13:49Z</time>
      </trkpt>
      <trkpt lat="49.334673" lon="6.720442">
        <ele>228.0</ele>
        <time>2020-07-09T12:13:52Z</time>
      </trkpt>
      <trkpt lat="49.334621" lon="6.720454">
        <ele>228.0</ele>
        <time>2020-07-09T12:13:53Z</time>
      </trkpt>
      <trkpt lat="49.33446" lon="6.720504">
        <ele>228.0</ele>
        <time>2020-07-09T12:13:56Z</time>
      </trkpt>
      <trkpt lat="49.334357" lon="6.720533">
        <ele>228.0</ele>
        <time>2020-07-09T12:13:58Z</time>
      </trkpt>
      <trkpt lat="49.334262" lon="6.72056">
        <ele>229.0</ele>
        <time>2020-07-09T12:14:00Z</time>
      </trkpt>
      <trkpt lat="49.334165" lon="6.720597">
        <ele>229.0</ele>
        <time>2020-07-09T12:14:02Z</time>
      </trkpt>
      <trkpt lat="49.334071" lon="6.72064">
        <ele>229.0</ele>
        <time>2020-07-09T12:14:04Z</time>
      </trkpt>
      <trkpt lat="49.333982" lon="6.720697">
        <ele>229.0</ele>
        <time>2020-07-09T12:14:06Z</time>
      </trkpt>
      <trkpt lat="49.333894" lon="6.72076">
        <ele>229.0</ele>
        <time>2020-07-09T12:14:08Z</time>
      </trkpt>
      <trkpt lat="49.333766" lon="6.72086">
        <ele>229.0</ele>
        <time>2020-07-09T12:14:11Z</time>
      </trkpt>
      <trkpt lat="49.33368" lon="6.720942">
        <ele>228.0</ele>
        <time>2020-07-09T12:14:13Z</time>
      </trkpt>
      <trkpt lat="49.333595" lon="6.721019">
        <ele>228.0</ele>
        <time>2020-07-09T12:14:15Z</time>
      </trkpt>
      <trkpt lat="49.333517" lon="6.721105">
        <ele>227.0</ele>
        <time>2020-07-09T12:14:17Z</time>
      </trkpt>
      <trkpt lat="49.333448" lon="6.721207">
        <ele>227.0</ele>
        <time>2020-07-09T12:14:19Z</time>
      </trkpt>
      <trkpt lat="49.333382" lon="6.721327">
        <ele>227.0</ele>
        <time>2020-07-09T12:14:21Z</time>
      </trkpt>
      <trkpt lat="49.333285" lon="6.721488">
        <ele>227.0</ele>
        <time>2020-07-09T12:14:24Z</time>
      </trkpt>
      <trkpt lat="49.333215" lon="6.721609">
        <ele>227.0</ele>
        <time>2020-07-09T12:14:26Z</time>
      </trkpt>
      <trkpt lat="49.333146" lon="6.72173">
        <ele>227.0</ele>
        <time>2020-07-09T12:14:28Z</time>
      </trkpt>
      <trkpt lat="49.333086" lon="6.721851">
        <ele>227.0</ele>
        <time>2020-07-09T12:14:30Z</time>
      </trkpt>
      <trkpt lat="49.333023" lon="6.722057">
        <ele>228.0</ele>
        <time>2020-07-09T12:14:33Z</time>
      </trkpt>
      <trkpt lat="49.33298" lon="6.722189">
        <ele>228.0</ele>
        <time>2020-07-09T12:14:35Z</time>
      </trkpt>
      <trkpt lat="49.332935" lon="6.722331">
        <ele>228.0</ele>
        <time>2020-07-09T12:14:37Z</time>
      </trkpt>
      <trkpt lat="49.332872" lon="6.722552">
        <ele>228.0</ele>
        <time>2020-07-09T12:14:40Z</time>
      </trkpt>
      <trkpt lat="49.33285" lon="6.722626">
        <ele>227.0</ele>
        <time>2020-07-09T12:14:41Z</time>
      </trkpt>
      <trkpt lat="49.332803" lon="6.722853">
        <ele>227.0</ele>
        <time>2020-07-09T12:14:44Z</time>
      </trkpt>
      <trkpt lat="49.332783" lon="6.722997">
        <ele>228.0</ele>
        <time>2020-07-09T12:14:46Z</time>
      </trkpt>
      <trkpt lat="49.332762" lon="6.723155">
        <ele>227.0</ele>
        <time>2020-07-09T12:14:48Z</time>
      </trkpt>
      <trkpt lat="49.332746" lon="6.723305">
        <ele>228.0</ele>
        <time>2020-07-09T12:14:50Z</time>
      </trkpt>
      <trkpt lat="49.332732" lon="6.72346">
        <ele>229.0</ele>
        <time>2020-07-09T12:14:52Z</time>
      </trkpt>
      <trkpt lat="49.332718" lon="6.723632">
        <ele>229.0</ele>
        <time>2020-07-09T12:14:54Z</time>
      </trkpt>
      <trkpt lat="49.332716" lon="6.7238">
        <ele>229.0</ele>
        <time>2020-07-09T12:14:56Z</time>
      </trkpt>
      <trkpt lat="49.332717" lon="6.724051">
        <ele>229.0</ele>
        <time>2020-07-09T12:14:59Z</time>
      </trkpt>
      <trkpt lat="49.332717" lon="6.724218">
        <ele>230.0</ele>
        <time>2020-07-09T12:15:01Z</time>
      </trkpt>
      <trkpt lat="49.332721" lon="6.72439">
        <ele>229.0</ele>
        <time>2020-07-09T12:15:03Z</time>
      </trkpt>
      <trkpt lat="49.332732" lon="6.724553">
        <ele>229.0</ele>
        <time>2020-07-09T12:15:05Z</time>
      </trkpt>
      <trkpt lat="49.332748" lon="6.7248">
        <ele>229.0</ele>
        <time>2020-07-09T12:15:08Z</time>
      </trkpt>
      <trkpt lat="49.332757" lon="6.72488">
        <ele>230.0</ele>
        <time>2020-07-09T12:15:09Z</time>
      </trkpt>
      <trkpt lat="49.33277" lon="6.725046">
        <ele>229.0</ele>
        <time>2020-07-09T12:15:11Z</time>
      </trkpt>
      <trkpt lat="49.332792" lon="6.725213">
        <ele>229.0</ele>
        <time>2020-07-09T12:15:13Z</time>
      </trkpt>
      <trkpt lat="49.332824" lon="6.725453">
        <ele>229.0</ele>
        <time>2020-07-09T12:15:16Z</time>
      </trkpt>
      <trkpt lat="49.332855" lon="6.72568">
        <ele>230.0</ele>
        <time>2020-07-09T12:15:19Z</time>
      </trkpt>
      <trkpt lat="49.332885" lon="6.725831">
        <ele>229.0</ele>
        <time>2020-07-09T12:15:21Z</time>
      </trkpt>
      <trkpt lat="49.332933" lon="6.725971">
        <ele>229.0</ele>
        <time>2020-07-09T12:15:23Z</time>
      </trkpt>
      <trkpt lat="49.333001" lon="6.726172">
        <ele>229.0</ele>
        <time>2020-07-09T12:15:26Z</time>
      </trkpt>
      <trkpt lat="49.333037" lon="6.726306">
        <ele>229.0</ele>
        <time>2020-07-09T12:15:28Z</time>
      </trkpt>
      <trkpt lat="49.332993" lon="6.726417">
        <ele>229.0</ele>
        <time>2020-07-09T12:15:30Z</time>
      </trkpt>
      <trkpt lat="49.332924" lon="6.7265">
        <ele>229.0</ele>
        <time>2020-07-09T12:15:32Z</time>
      </trkpt>
      <trkpt lat="49.332843" lon="6.726583">
        <ele>229.0</ele>
        <time>2020-07-09T12:15:34Z</time>
      </trkpt>
      <trkpt lat="49.332774" lon="6.726663">
        <ele>229.0</ele>
        <time>2020-07-09T12:15:36Z</time>
      </trkpt>
      <trkpt lat="49.332709" lon="6.726738">
        <ele>229.0</ele>
        <time>2020-07-09T12:15:38Z</time>
      </trkpt>
      <trkpt lat="49.332672" lon="6.726778">
        <ele>229.0</ele>
        <time>2020-07-09T12:15:40Z</time>
      </trkpt>
      <trkpt lat="49.332663" lon="6.726782">
        <ele>229.0</ele>
        <time>2020-07-09T12:15:42Z</time>
      </trkpt>
      <trkpt lat="49.332662" lon="6.726781">
        <ele>229.0</ele>
        <time>2020-07-09T12:15:44Z</time>
      </trkpt>
      <trkpt lat="49.332662" lon="6.726779">
        <ele>229.0</ele>
        <time>2020-07-09T12:15:47Z</time>
      </trkpt>
      <trkpt lat="49.332662" lon="6.726779">
        <ele>229.0</ele>
        <time>2020-07-09T12:15:49Z</time>
      </trkpt>
      <trkpt lat="49.332662" lon="6.726779">
        <ele>229.0</ele>
        <time>2020-07-09T12:16:23Z</time>
      </trkpt>
      <trkpt lat="49.332662" lon="6.726779">
        <ele>229.0</ele>
        <time>2020-07-09T12:16:25Z</time>
      </trkpt>
      <trkpt lat="49.332662" lon="6.726779">
        <ele>229.0</ele>
        <time>2020-07-09T12:16:27Z</time>
      </trkpt>
      <trkpt lat="49.332662" lon="6.726779">
        <ele>229.0</ele>
        <time>2020-07-09T12:16:29Z</time>
      </trkpt>
      <trkpt lat="49.332662" lon="6.726779">
        <ele>229.0</ele>
        <time>2020-07-09T12:16:31Z</time>
      </trkpt>
      <trkpt lat="49.332662" lon="6.726779">
        <ele>229.0</ele>
        <time>2020-07-09T12:16:33Z</time>
      </trkpt>
      <trkpt lat="49.332662" lon="6.726779">
        <ele>229.0</ele>
        <time>2020-07-09T12:16:35Z</time>
      </trkpt>
      <trkpt lat="49.332662" lon="6.726779">
        <ele>229.0</ele>
        <time>2020-07-09T12:16:37Z</time>
      </trkpt>
      <trkpt lat="49.332662" lon="6.726779">
        <ele>229.0</ele>
        <time>2020-07-09T12:16:39Z</time>
      </trkpt>
      <trkpt lat="49.332663" lon="6.72678">
        <ele>229.0</ele>
        <time>2020-07-09T12:16:41Z</time>
      </trkpt>
      <trkpt lat="49.332664" lon="6.726781">
        <ele>229.0</ele>
        <time>2020-07-09T12:16:43Z</time>
      </trkpt>
      <trkpt lat="49.332664" lon="6.726781">
        <ele>229.0</ele>
        <time>2020-07-09T12:16:45Z</time>
      </trkpt>
      <trkpt lat="49.332664" lon="6.726781">
        <ele>229.0</ele>
        <time>2020-07-09T12:16:47Z</time>
      </trkpt>
      <trkpt lat="49.332644" lon="6.726808">
        <ele>228.0</ele>
        <time>2020-07-09T12:16:49Z</time>
      </trkpt>
      <trkpt lat="49.332604" lon="6.726854">
        <ele>228.0</ele>
        <time>2020-07-09T12:16:51Z</time>
      </trkpt>
      <trkpt lat="49.332553" lon="6.726909">
        <ele>227.0</ele>
        <time>2020-07-09T12:16:53Z</time>
      </trkpt>
      <trkpt lat="49.332495" lon="6.726968">
        <ele>226.0</ele>
        <time>2020-07-09T12:16:55Z</time>
      </trkpt>
      <trkpt lat="49.332388" lon="6.72712">
        <ele>226.0</ele>
        <time>2020-07-09T12:16:58Z</time>
      </trkpt>
      <trkpt lat="49.332302" lon="6.727225">
        <ele>226.0</ele>
        <time>2020-07-09T12:17:00Z</time>
      </trkpt>
      <trkpt lat="49.33221" lon="6.72733">
        <ele>225.0</ele>
        <time>2020-07-09T12:17:02Z</time>
      </trkpt>
      <trkpt lat="49.332133" lon="6.727428">
        <ele>226.0</ele>
        <time>2020-07-09T12:17:04Z</time>
      </trkpt>
      <trkpt lat="49.332051" lon="6.727525">
        <ele>225.0</ele>
        <time>2020-07-09T12:17:06Z</time>
      </trkpt>
      <trkpt lat="49.331967" lon="6.72762">
        <ele>224.0</ele>
        <time>2020-07-09T12:17:08Z</time>
      </trkpt>
      <trkpt lat="49.331888" lon="6.727722">
        <ele>224.0</ele>
        <time>2020-07-09T12:17:10Z</time>
      </trkpt>
      <trkpt lat="49.331751" lon="6.72786">
        <ele>224.0</ele>
        <time>2020-07-09T12:17:13Z</time>
      </trkpt>
      <trkpt lat="49.331655" lon="6.727962">
        <ele>224.0</ele>
        <time>2020-07-09T12:17:15Z</time>
      </trkpt>
      <trkpt lat="49.33156" lon="6.728064">
        <ele>224.0</ele>
        <time>2020-07-09T12:17:17Z</time>
      </trkpt>
      <trkpt lat="49.331466" lon="6.728156">
        <ele>224.0</ele>
        <time>2020-07-09T12:17:19Z</time>
      </trkpt>
      <trkpt lat="49.331415" lon="6.728196">
        <ele>225.0</ele>
        <time>2020-07-09T12:17:20Z</time>
      </trkpt>
      <trkpt lat="49.331243" lon="6.728315">
        <ele>224.0</ele>
        <time>2020-07-09T12:17:23Z</time>
      </trkpt>
      <trkpt lat="49.331142" lon="6.728385">
        <ele>224.0</ele>
        <time>2020-07-09T12:17:25Z</time>
      </trkpt>
      <trkpt lat="49.331103" lon="6.728549">
        <ele>224.0</ele>
        <time>2020-07-09T12:17:28Z</time>
      </trkpt>
      <trkpt lat="49.331135" lon="6.728656">
        <ele>223.0</ele>
        <time>2020-07-09T12:17:30Z</time>
      </trkpt>
      <trkpt lat="49.331187" lon="6.728765">
        <ele>223.0</ele>
        <time>2020-07-09T12:17:32Z</time>
      </trkpt>
      <trkpt lat="49.331245" lon="6.728872">
        <ele>223.0</ele>
        <time>2020-07-09T12:17:34Z</time>
      </trkpt>
      <trkpt lat="49.331285" lon="6.729009">
        <ele>222.0</ele>
        <time>2020-07-09T12:17:37Z</time>
      </trkpt>
      <trkpt lat="49.331245" lon="6.729109">
        <ele>222.0</ele>
        <time>2020-07-09T12:17:39Z</time>
      </trkpt>
      <trkpt lat="49.33116" lon="6.729198">
        <ele>223.0</ele>
        <time>2020-07-09T12:17:42Z</time>
      </trkpt>
      <trkpt lat="49.331127" lon="6.729231">
        <ele>223.0</ele>
        <time>2020-07-09T12:17:43Z</time>
      </trkpt>
      <trkpt lat="49.331004" lon="6.729338">
        <ele>224.0</ele>
        <time>2020-07-09T12:17:47Z</time>
      </trkpt>
      <trkpt lat="49.330937" lon="6.729393">
        <ele>225.0</ele>
        <time>2020-07-09T12:17:49Z</time>
      </trkpt>
      <trkpt lat="49.330872" lon="6.729438">
        <ele>225.0</ele>
        <time>2020-07-09T12:17:51Z</time>
      </trkpt>
      <trkpt lat="49.330816" lon="6.729485">
        <ele>225.0</ele>
        <time>2020-07-09T12:17:53Z</time>
      </trkpt>
      <trkpt lat="49.33076" lon="6.729537">
        <ele>225.0</ele>
        <time>2020-07-09T12:17:55Z</time>
      </trkpt>
      <trkpt lat="49.330704" lon="6.729592">
        <ele>226.0</ele>
        <time>2020-07-09T12:17:57Z</time>
      </trkpt>
      <trkpt lat="49.330638" lon="6.729658">
        <ele>226.0</ele>
        <time>2020-07-09T12:17:59Z</time>
      </trkpt>
      <trkpt lat="49.330564" lon="6.729723">
        <ele>226.0</ele>
        <time>2020-07-09T12:18:01Z</time>
      </trkpt>
      <trkpt lat="49.330491" lon="6.729784">
        <ele>226.0</ele>
        <time>2020-07-09T12:18:03Z</time>
      </trkpt>
      <trkpt lat="49.330411" lon="6.729859">
        <ele>226.0</ele>
        <time>2020-07-09T12:18:05Z</time>
      </trkpt>
      <trkpt lat="49.330322" lon="6.729943">
        <ele>226.0</ele>
        <time>2020-07-09T12:18:07Z</time>
      </trkpt>
      <trkpt lat="49.330231" lon="6.730022">
        <ele>226.0</ele>
        <time>2020-07-09T12:18:09Z</time>
      </trkpt>
      <trkpt lat="49.330133" lon="6.730101">
        <ele>226.0</ele>
        <time>2020-07-09T12:18:11Z</time>
      </trkpt>
      <trkpt lat="49.330038" lon="6.730182">
        <ele>226.0</ele>
        <time>2020-07-09T12:18:13Z</time>
      </trkpt>
      <trkpt lat="49.329941" lon="6.730264">
        <ele>226.0</ele>
        <time>2020-07-09T12:18:15Z</time>
      </trkpt>
      <trkpt lat="49.329843" lon="6.730345">
        <ele>226.0</ele>
        <time>2020-07-09T12:18:17Z</time>
      </trkpt>
      <trkpt lat="49.32975" lon="6.730428">
        <ele>226.0</ele>
        <time>2020-07-09T12:18:19Z</time>
      </trkpt>
      <trkpt lat="49.329657" lon="6.730515">
        <ele>226.0</ele>
        <time>2020-07-09T12:18:21Z</time>
      </trkpt>
      <trkpt lat="49.329515" lon="6.730643">
        <ele>225.0</ele>
        <time>2020-07-09T12:18:24Z</time>
      </trkpt>
      <trkpt lat="49.329466" lon="6.730685">
        <ele>225.0</ele>
        <time>2020-07-09T12:18:25Z</time>
      </trkpt>
      <trkpt lat="49.329321" lon="6.730801">
        <ele>224.0</ele>
        <time>2020-07-09T12:18:28Z</time>
      </trkpt>
      <trkpt lat="49.329278" lon="6.730841">
        <ele>224.0</ele>
        <time>2020-07-09T12:18:29Z</time>
      </trkpt>
      <trkpt lat="49.329102" lon="6.730977">
        <ele>225.0</ele>
        <time>2020-07-09T12:18:33Z</time>
      </trkpt>
      <trkpt lat="49.329059" lon="6.731007">
        <ele>225.0</ele>
        <time>2020-07-09T12:18:34Z</time>
      </trkpt>
      <trkpt lat="49.328933" lon="6.731099">
        <ele>226.0</ele>
        <time>2020-07-09T12:18:37Z</time>
      </trkpt>
      <trkpt lat="49.32885" lon="6.731153">
        <ele>226.0</ele>
        <time>2020-07-09T12:18:39Z</time>
      </trkpt>
      <trkpt lat="49.328764" lon="6.731213">
        <ele>227.0</ele>
        <time>2020-07-09T12:18:41Z</time>
      </trkpt>
      <trkpt lat="49.328635" lon="6.731314">
        <ele>227.0</ele>
        <time>2020-07-09T12:18:44Z</time>
      </trkpt>
      <trkpt lat="49.32859" lon="6.731347">
        <ele>227.0</ele>
        <time>2020-07-09T12:18:45Z</time>
      </trkpt>
      <trkpt lat="49.328457" lon="6.731447">
        <ele>227.0</ele>
        <time>2020-07-09T12:18:48Z</time>
      </trkpt>
      <trkpt lat="49.328363" lon="6.731518">
        <ele>227.0</ele>
        <time>2020-07-09T12:18:50Z</time>
      </trkpt>
      <trkpt lat="49.328275" lon="6.731587">
        <ele>227.0</ele>
        <time>2020-07-09T12:18:52Z</time>
      </trkpt>
      <trkpt lat="49.328186" lon="6.731651">
        <ele>227.0</ele>
        <time>2020-07-09T12:18:54Z</time>
      </trkpt>
      <trkpt lat="49.32806" lon="6.731742">
        <ele>227.0</ele>
        <time>2020-07-09T12:18:57Z</time>
      </trkpt>
      <trkpt lat="49.327973" lon="6.731798">
        <ele>228.0</ele>
        <time>2020-07-09T12:18:59Z</time>
      </trkpt>
      <trkpt lat="49.327887" lon="6.731843">
        <ele>228.0</ele>
        <time>2020-07-09T12:19:01Z</time>
      </trkpt>
      <trkpt lat="49.32781" lon="6.731893">
        <ele>227.0</ele>
        <time>2020-07-09T12:19:03Z</time>
      </trkpt>
      <trkpt lat="49.327769" lon="6.731917">
        <ele>227.0</ele>
        <time>2020-07-09T12:19:04Z</time>
      </trkpt>
      <trkpt lat="49.32766" lon="6.732002">
        <ele>227.0</ele>
        <time>2020-07-09T12:19:07Z</time>
      </trkpt>
      <trkpt lat="49.327551" lon="6.732083">
        <ele>227.0</ele>
        <time>2020-07-09T12:19:10Z</time>
      </trkpt>
      <trkpt lat="49.327475" lon="6.732134">
        <ele>227.0</ele>
        <time>2020-07-09T12:19:12Z</time>
      </trkpt>
      <trkpt lat="49.32743" lon="6.732163">
        <ele>227.0</ele>
        <time>2020-07-09T12:19:13Z</time>
      </trkpt>
      <trkpt lat="49.32722" lon="6.732326">
        <ele>227.0</ele>
        <time>2020-07-09T12:19:17Z</time>
      </trkpt>
      <trkpt lat="49.327102" lon="6.732399">
        <ele>227.0</ele>
        <time>2020-07-09T12:19:19Z</time>
      </trkpt>
      <trkpt lat="49.326997" lon="6.732463">
        <ele>227.0</ele>
        <time>2020-07-09T12:19:21Z</time>
      </trkpt>
      <trkpt lat="49.326898" lon="6.732533">
        <ele>227.0</ele>
        <time>2020-07-09T12:19:23Z</time>
      </trkpt>
      <trkpt lat="49.326791" lon="6.732573">
        <ele>227.0</ele>
        <time>2020-07-09T12:19:25Z</time>
      </trkpt>
      <trkpt lat="49.326691" lon="6.732622">
        <ele>227.0</ele>
        <time>2020-07-09T12:19:27Z</time>
      </trkpt>
      <trkpt lat="49.326552" lon="6.732709">
        <ele>228.0</ele>
        <time>2020-07-09T12:19:30Z</time>
      </trkpt>
      <trkpt lat="49.326506" lon="6.732738">
        <ele>228.0</ele>
        <time>2020-07-09T12:19:31Z</time>
      </trkpt>
      <trkpt lat="49.326373" lon="6.732814">
        <ele>228.0</ele>
        <time>2020-07-09T12:19:34Z</time>
      </trkpt>
      <trkpt lat="49.326291" lon="6.732853">
        <ele>227.0</ele>
        <time>2020-07-09T12:19:36Z</time>
      </trkpt>
      <trkpt lat="49.326205" lon="6.732896">
        <ele>227.0</ele>
        <time>2020-07-09T12:19:38Z</time>
      </trkpt>
      <trkpt lat="49.326124" lon="6.732939">
        <ele>227.0</ele>
        <time>2020-07-09T12:19:40Z</time>
      </trkpt>
      <trkpt lat="49.326046" lon="6.732983">
        <ele>228.0</ele>
        <time>2020-07-09T12:19:42Z</time>
      </trkpt>
      <trkpt lat="49.32597" lon="6.733022">
        <ele>228.0</ele>
        <time>2020-07-09T12:19:44Z</time>
      </trkpt>
      <trkpt lat="49.325894" lon="6.733062">
        <ele>228.0</ele>
        <time>2020-07-09T12:19:46Z</time>
      </trkpt>
      <trkpt lat="49.325831" lon="6.733096">
        <ele>228.0</ele>
        <time>2020-07-09T12:19:48Z</time>
      </trkpt>
      <trkpt lat="49.325778" lon="6.733116">
        <ele>228.0</ele>
        <time>2020-07-09T12:19:50Z</time>
      </trkpt>
      <trkpt lat="49.325744" lon="6.733123">
        <ele>228.0</ele>
        <time>2020-07-09T12:19:52Z</time>
      </trkpt>
      <trkpt lat="49.325729" lon="6.733134">
        <ele>228.0</ele>
        <time>2020-07-09T12:19:54Z</time>
      </trkpt>
      <trkpt lat="49.325719" lon="6.733141">
        <ele>228.0</ele>
        <time>2020-07-09T12:19:56Z</time>
      </trkpt>
      <trkpt lat="49.32572" lon="6.733134">
        <ele>228.0</ele>
        <time>2020-07-09T12:19:58Z</time>
      </trkpt>
      <trkpt lat="49.325717" lon="6.733135">
        <ele>228.0</ele>
        <time>2020-07-09T12:20:00Z</time>
      </trkpt>
      <trkpt lat="49.325717" lon="6.733135">
        <ele>228.0</ele>
        <time>2020-07-09T12:20:02Z</time>
      </trkpt>
      <trkpt lat="49.325717" lon="6.733135">
        <ele>228.0</ele>
        <time>2020-07-09T12:20:04Z</time>
      </trkpt>
      <trkpt lat="49.325717" lon="6.733135">
        <ele>228.0</ele>
        <time>2020-07-09T12:20:06Z</time>
      </trkpt>
      <trkpt lat="49.325717" lon="6.733135">
        <ele>228.0</ele>
        <time>2020-07-09T12:20:09Z</time>
      </trkpt>
      <trkpt lat="49.325717" lon="6.733135">
        <ele>228.0</ele>
        <time>2020-07-09T12:20:11Z</time>
      </trkpt>
      <trkpt lat="49.325717" lon="6.733135">
        <ele>228.0</ele>
        <time>2020-07-09T12:20:13Z</time>
      </trkpt>
      <trkpt lat="49.325717" lon="6.733135">
        <ele>228.0</ele>
        <time>2020-07-09T12:20:15Z</time>
      </trkpt>
      <trkpt lat="49.325717" lon="6.733135">
        <ele>228.0</ele>
        <time>2020-07-09T12:20:17Z</time>
      </trkpt>
      <trkpt lat="49.325717" lon="6.733135">
        <ele>228.0</ele>
        <time>2020-07-09T12:20:19Z</time>
      </trkpt>
      <trkpt lat="49.325716" lon="6.733128">
        <ele>229.0</ele>
        <time>2020-07-09T12:20:21Z</time>
      </trkpt>
      <trkpt lat="49.325716" lon="6.733129">
        <ele>228.0</ele>
        <time>2020-07-09T12:20:23Z</time>
      </trkpt>
      <trkpt lat="49.325714" lon="6.733131">
        <ele>228.0</ele>
        <time>2020-07-09T12:20:24Z</time>
      </trkpt>
      <trkpt lat="49.32572" lon="6.73319">
        <ele>228.0</ele>
        <time>2020-07-09T12:20:27Z</time>
      </trkpt>
      <trkpt lat="49.325763" lon="6.733243">
        <ele>228.0</ele>
        <time>2020-07-09T12:20:29Z</time>
      </trkpt>
      <trkpt lat="49.325798" lon="6.733322">
        <ele>228.0</ele>
        <time>2020-07-09T12:20:31Z</time>
      </trkpt>
      <trkpt lat="49.325805" lon="6.733371">
        <ele>227.0</ele>
        <time>2020-07-09T12:20:32Z</time>
      </trkpt>
      <trkpt lat="49.325793" lon="6.733475">
        <ele>227.0</ele>
        <time>2020-07-09T12:20:34Z</time>
      </trkpt>
      <trkpt lat="49.32578" lon="6.733656">
        <ele>226.0</ele>
        <time>2020-07-09T12:20:37Z</time>
      </trkpt>
      <trkpt lat="49.325773" lon="6.733713">
        <ele>225.0</ele>
        <time>2020-07-09T12:20:38Z</time>
      </trkpt>
      <trkpt lat="49.325759" lon="6.733895">
        <ele>224.0</ele>
        <time>2020-07-09T12:20:41Z</time>
      </trkpt>
      <trkpt lat="49.325748" lon="6.734037">
        <ele>224.0</ele>
        <time>2020-07-09T12:20:43Z</time>
      </trkpt>
      <trkpt lat="49.325737" lon="6.734169">
        <ele>225.0</ele>
        <time>2020-07-09T12:20:45Z</time>
      </trkpt>
      <trkpt lat="49.325733" lon="6.734233">
        <ele>225.0</ele>
        <time>2020-07-09T12:20:46Z</time>
      </trkpt>
      <trkpt lat="49.325718" lon="6.734485">
        <ele>225.0</ele>
        <time>2020-07-09T12:20:50Z</time>
      </trkpt>
      <trkpt lat="49.325712" lon="6.734545">
        <ele>225.0</ele>
        <time>2020-07-09T12:20:51Z</time>
      </trkpt>
      <trkpt lat="49.32571" lon="6.734718">
        <ele>225.0</ele>
        <time>2020-07-09T12:20:54Z</time>
      </trkpt>
      <trkpt lat="49.325714" lon="6.734826">
        <ele>226.0</ele>
        <time>2020-07-09T12:20:56Z</time>
      </trkpt>
      <trkpt lat="49.325685" lon="6.734914">
        <ele>226.0</ele>
        <time>2020-07-09T12:20:58Z</time>
      </trkpt>
      <trkpt lat="49.325637" lon="6.734982">
        <ele>226.0</ele>
        <time>2020-07-09T12:21:00Z</time>
      </trkpt>
      <trkpt lat="49.325611" lon="6.735136">
        <ele>226.0</ele>
        <time>2020-07-09T12:21:03Z</time>
      </trkpt>
      <trkpt lat="49.325612" lon="6.735271">
        <ele>226.0</ele>
        <time>2020-07-09T12:21:05Z</time>
      </trkpt>
      <trkpt lat="49.32562" lon="6.735409">
        <ele>226.0</ele>
        <time>2020-07-09T12:21:07Z</time>
      </trkpt>
      <trkpt lat="49.325616" lon="6.735474">
        <ele>226.0</ele>
        <time>2020-07-09T12:21:08Z</time>
      </trkpt>
      <trkpt lat="49.325535" lon="6.735639">
        <ele>226.0</ele>
        <time>2020-07-09T12:21:11Z</time>
      </trkpt>
      <trkpt lat="49.325494" lon="6.735764">
        <ele>226.0</ele>
        <time>2020-07-09T12:21:13Z</time>
      </trkpt>
      <trkpt lat="49.32546" lon="6.735896">
        <ele>226.0</ele>
        <time>2020-07-09T12:21:15Z</time>
      </trkpt>
      <trkpt lat="49.325438" lon="6.736028">
        <ele>225.0</ele>
        <time>2020-07-09T12:21:17Z</time>
      </trkpt>
      <trkpt lat="49.325384" lon="6.73622">
        <ele>224.0</ele>
        <time>2020-07-09T12:21:20Z</time>
      </trkpt>
      <trkpt lat="49.325363" lon="6.736337">
        <ele>224.0</ele>
        <time>2020-07-09T12:21:22Z</time>
      </trkpt>
      <trkpt lat="49.325332" lon="6.736462">
        <ele>224.0</ele>
        <time>2020-07-09T12:21:24Z</time>
      </trkpt>
      <trkpt lat="49.325313" lon="6.736582">
        <ele>224.0</ele>
        <time>2020-07-09T12:21:26Z</time>
      </trkpt>
      <trkpt lat="49.325332" lon="6.736732">
        <ele>225.0</ele>
        <time>2020-07-09T12:21:29Z</time>
      </trkpt>
      <trkpt lat="49.325345" lon="6.736768">
        <ele>225.0</ele>
        <time>2020-07-09T12:21:30Z</time>
      </trkpt>
      <trkpt lat="49.325391" lon="6.736859">
        <ele>225.0</ele>
        <time>2020-07-09T12:21:33Z</time>
      </trkpt>
      <trkpt lat="49.325416" lon="6.736896">
        <ele>225.0</ele>
        <time>2020-07-09T12:21:35Z</time>
      </trkpt>
      <trkpt lat="49.325428" lon="6.736947">
        <ele>225.0</ele>
        <time>2020-07-09T12:21:37Z</time>
      </trkpt>
      <trkpt lat="49.32546" lon="6.737039">
        <ele>224.0</ele>
        <time>2020-07-09T12:21:40Z</time>
      </trkpt>
      <trkpt lat="49.325459" lon="6.737125">
        <ele>224.0</ele>
        <time>2020-07-09T12:21:42Z</time>
      </trkpt>
      <trkpt lat="49.325448" lon="6.737222">
        <ele>224.0</ele>
        <time>2020-07-09T12:21:44Z</time>
      </trkpt>
      <trkpt lat="49.325437" lon="6.737272">
        <ele>224.0</ele>
        <time>2020-07-09T12:21:45Z</time>
      </trkpt>
      <trkpt lat="49.32532" lon="6.737408">
        <ele>225.0</ele>
        <time>2020-07-09T12:21:48Z</time>
      </trkpt>
      <trkpt lat="49.325196" lon="6.737441">
        <ele>225.0</ele>
        <time>2020-07-09T12:21:50Z</time>
      </trkpt>
      <trkpt lat="49.325065" lon="6.737472">
        <ele>225.0</ele>
        <time>2020-07-09T12:21:52Z</time>
      </trkpt>
      <trkpt lat="49.324938" lon="6.737493">
        <ele>227.0</ele>
        <time>2020-07-09T12:21:54Z</time>
      </trkpt>
      <trkpt lat="49.324771" lon="6.737499">
        <ele>227.0</ele>
        <time>2020-07-09T12:21:57Z</time>
      </trkpt>
      <trkpt lat="49.32466" lon="6.737501">
        <ele>226.0</ele>
        <time>2020-07-09T12:21:59Z</time>
      </trkpt>
      <trkpt lat="49.324556" lon="6.737504">
        <ele>226.0</ele>
        <time>2020-07-09T12:22:01Z</time>
      </trkpt>
      <trkpt lat="49.324407" lon="6.737509">
        <ele>227.0</ele>
        <time>2020-07-09T12:22:04Z</time>
      </trkpt>
      <trkpt lat="49.324304" lon="6.737505">
        <ele>226.0</ele>
        <time>2020-07-09T12:22:06Z</time>
      </trkpt>
      <trkpt lat="49.324143" lon="6.7375">
        <ele>227.0</ele>
        <time>2020-07-09T12:22:09Z</time>
      </trkpt>
      <trkpt lat="49.324037" lon="6.737492">
        <ele>227.0</ele>
        <time>2020-07-09T12:22:11Z</time>
      </trkpt>
      <trkpt lat="49.323988" lon="6.737489">
        <ele>227.0</ele>
        <time>2020-07-09T12:22:12Z</time>
      </trkpt>
      <trkpt lat="49.32383" lon="6.737478">
        <ele>228.0</ele>
        <time>2020-07-09T12:22:15Z</time>
      </trkpt>
      <trkpt lat="49.323732" lon="6.737465">
        <ele>228.0</ele>
        <time>2020-07-09T12:22:17Z</time>
      </trkpt>
      <trkpt lat="49.323583" lon="6.737458">
        <ele>229.0</ele>
        <time>2020-07-09T12:22:20Z</time>
      </trkpt>
      <trkpt lat="49.323536" lon="6.737459">
        <ele>229.0</ele>
        <time>2020-07-09T12:22:21Z</time>
      </trkpt>
      <trkpt lat="49.323397" lon="6.737453">
        <ele>228.0</ele>
        <time>2020-07-09T12:22:24Z</time>
      </trkpt>
      <trkpt lat="49.323248" lon="6.737443">
        <ele>228.0</ele>
        <time>2020-07-09T12:22:27Z</time>
      </trkpt>
      <trkpt lat="49.323094" lon="6.73744">
        <ele>228.0</ele>
        <time>2020-07-09T12:22:30Z</time>
      </trkpt>
      <trkpt lat="49.322941" lon="6.73742">
        <ele>228.0</ele>
        <time>2020-07-09T12:22:33Z</time>
      </trkpt>
      <trkpt lat="49.322797" lon="6.737409">
        <ele>228.0</ele>
        <time>2020-07-09T12:22:36Z</time>
      </trkpt>
      <trkpt lat="49.322703" lon="6.737401">
        <ele>228.0</ele>
        <time>2020-07-09T12:22:38Z</time>
      </trkpt>
      <trkpt lat="49.322606" lon="6.737407">
        <ele>228.0</ele>
        <time>2020-07-09T12:22:40Z</time>
      </trkpt>
      <trkpt lat="49.32251" lon="6.737407">
        <ele>228.0</ele>
        <time>2020-07-09T12:22:42Z</time>
      </trkpt>
      <trkpt lat="49.32241" lon="6.737404">
        <ele>228.0</ele>
        <time>2020-07-09T12:22:44Z</time>
      </trkpt>
      <trkpt lat="49.32231" lon="6.737407">
        <ele>228.0</ele>
        <time>2020-07-09T12:22:46Z</time>
      </trkpt>
      <trkpt lat="49.322203" lon="6.73739">
        <ele>228.0</ele>
        <time>2020-07-09T12:22:48Z</time>
      </trkpt>
      <trkpt lat="49.322097" lon="6.737375">
        <ele>228.0</ele>
        <time>2020-07-09T12:22:50Z</time>
      </trkpt>
      <trkpt lat="49.321942" lon="6.737373">
        <ele>228.0</ele>
        <time>2020-07-09T12:22:53Z</time>
      </trkpt>
      <trkpt lat="49.321835" lon="6.737373">
        <ele>228.0</ele>
        <time>2020-07-09T12:22:55Z</time>
      </trkpt>
      <trkpt lat="49.321732" lon="6.737384">
        <ele>228.0</ele>
        <time>2020-07-09T12:22:57Z</time>
      </trkpt>
      <trkpt lat="49.321641" lon="6.737401">
        <ele>228.0</ele>
        <time>2020-07-09T12:22:59Z</time>
      </trkpt>
      <trkpt lat="49.321553" lon="6.737419">
        <ele>227.0</ele>
        <time>2020-07-09T12:23:01Z</time>
      </trkpt>
      <trkpt lat="49.32147" lon="6.737442">
        <ele>227.0</ele>
        <time>2020-07-09T12:23:03Z</time>
      </trkpt>
      <trkpt lat="49.321355" lon="6.737461">
        <ele>227.0</ele>
        <time>2020-07-09T12:23:06Z</time>
      </trkpt>
      <trkpt lat="49.321286" lon="6.737479">
        <ele>227.0</ele>
        <time>2020-07-09T12:23:08Z</time>
      </trkpt>
      <trkpt lat="49.321224" lon="6.737483">
        <ele>227.0</ele>
        <time>2020-07-09T12:23:10Z</time>
      </trkpt>
      <trkpt lat="49.321097" lon="6.737518">
        <ele>227.0</ele>
        <time>2020-07-09T12:23:13Z</time>
      </trkpt>
      <trkpt lat="49.321" lon="6.737547">
        <ele>226.0</ele>
        <time>2020-07-09T12:23:15Z</time>
      </trkpt>
      <trkpt lat="49.320927" lon="6.737556">
        <ele>226.0</ele>
        <time>2020-07-09T12:23:17Z</time>
      </trkpt>
      <trkpt lat="49.320855" lon="6.737576">
        <ele>226.0</ele>
        <time>2020-07-09T12:23:19Z</time>
      </trkpt>
      <trkpt lat="49.32077" lon="6.737634">
        <ele>227.0</ele>
        <time>2020-07-09T12:23:21Z</time>
      </trkpt>
      <trkpt lat="49.320651" lon="6.737694">
        <ele>226.0</ele>
        <time>2020-07-09T12:23:24Z</time>
      </trkpt>
      <trkpt lat="49.320558" lon="6.737734">
        <ele>225.0</ele>
        <time>2020-07-09T12:23:26Z</time>
      </trkpt>
      <trkpt lat="49.320457" lon="6.737756">
        <ele>225.0</ele>
        <time>2020-07-09T12:23:28Z</time>
      </trkpt>
      <trkpt lat="49.320361" lon="6.737807">
        <ele>225.0</ele>
        <time>2020-07-09T12:23:30Z</time>
      </trkpt>
      <trkpt lat="49.320266" lon="6.737854">
        <ele>224.0</ele>
        <time>2020-07-09T12:23:32Z</time>
      </trkpt>
      <trkpt lat="49.320171" lon="6.73791">
        <ele>223.0</ele>
        <time>2020-07-09T12:23:34Z</time>
      </trkpt>
      <trkpt lat="49.320078" lon="6.737942">
        <ele>224.0</ele>
        <time>2020-07-09T12:23:36Z</time>
      </trkpt>
      <trkpt lat="49.319983" lon="6.737976">
        <ele>223.0</ele>
        <time>2020-07-09T12:23:38Z</time>
      </trkpt>
      <trkpt lat="49.319893" lon="6.738012">
        <ele>223.0</ele>
        <time>2020-07-09T12:23:40Z</time>
      </trkpt>
      <trkpt lat="49.319819" lon="6.738062">
        <ele>223.0</ele>
        <time>2020-07-09T12:23:42Z</time>
      </trkpt>
      <trkpt lat="49.319754" lon="6.738107">
        <ele>223.0</ele>
        <time>2020-07-09T12:23:44Z</time>
      </trkpt>
      <trkpt lat="49.319691" lon="6.738146">
        <ele>223.0</ele>
        <time>2020-07-09T12:23:46Z</time>
      </trkpt>
      <trkpt lat="49.319623" lon="6.738213">
        <ele>222.0</ele>
        <time>2020-07-09T12:23:48Z</time>
      </trkpt>
      <trkpt lat="49.319546" lon="6.738293">
        <ele>222.0</ele>
        <time>2020-07-09T12:23:50Z</time>
      </trkpt>
      <trkpt lat="49.319475" lon="6.738358">
        <ele>221.0</ele>
        <time>2020-07-09T12:23:52Z</time>
      </trkpt>
      <trkpt lat="49.319408" lon="6.738412">
        <ele>221.0</ele>
        <time>2020-07-09T12:23:54Z</time>
      </trkpt>
      <trkpt lat="49.31926" lon="6.738518">
        <ele>222.0</ele>
        <time>2020-07-09T12:23:57Z</time>
      </trkpt>
      <trkpt lat="49.319153" lon="6.738587">
        <ele>221.0</ele>
        <time>2020-07-09T12:23:59Z</time>
      </trkpt>
      <trkpt lat="49.319051" lon="6.738661">
        <ele>220.0</ele>
        <time>2020-07-09T12:24:01Z</time>
      </trkpt>
      <trkpt lat="49.318952" lon="6.738746">
        <ele>220.0</ele>
        <time>2020-07-09T12:24:03Z</time>
      </trkpt>
      <trkpt lat="49.318882" lon="6.738858">
        <ele>220.0</ele>
        <time>2020-07-09T12:24:06Z</time>
      </trkpt>
      <trkpt lat="49.318845" lon="6.738944">
        <ele>220.0</ele>
        <time>2020-07-09T12:24:09Z</time>
      </trkpt>
      <trkpt lat="49.318828" lon="6.739">
        <ele>221.0</ele>
        <time>2020-07-09T12:24:11Z</time>
      </trkpt>
      <trkpt lat="49.3188" lon="6.739064">
        <ele>222.0</ele>
        <time>2020-07-09T12:24:13Z</time>
      </trkpt>
      <trkpt lat="49.318764" lon="6.739126">
        <ele>223.0</ele>
        <time>2020-07-09T12:24:15Z</time>
      </trkpt>
      <trkpt lat="49.318737" lon="6.73918">
        <ele>223.0</ele>
        <time>2020-07-09T12:24:17Z</time>
      </trkpt>
      <trkpt lat="49.318708" lon="6.739219">
        <ele>224.0</ele>
        <time>2020-07-09T12:24:19Z</time>
      </trkpt>
      <trkpt lat="49.318684" lon="6.739253">
        <ele>224.0</ele>
        <time>2020-07-09T12:24:21Z</time>
      </trkpt>
      <trkpt lat="49.318671" lon="6.739273">
        <ele>224.0</ele>
        <time>2020-07-09T12:24:24Z</time>
      </trkpt>
      <trkpt lat="49.318671" lon="6.739273">
        <ele>224.0</ele>
        <time>2020-07-09T12:24:26Z</time>
      </trkpt>
      <trkpt lat="49.318671" lon="6.739273">
        <ele>224.0</ele>
        <time>2020-07-09T12:24:28Z</time>
      </trkpt>
      <trkpt lat="49.318671" lon="6.739273">
        <ele>224.0</ele>
        <time>2020-07-09T12:24:29Z</time>
      </trkpt>
      <trkpt lat="49.318671" lon="6.739273">
        <ele>224.0</ele>
        <time>2020-07-09T12:24:32Z</time>
      </trkpt>
      <trkpt lat="49.318671" lon="6.739273">
        <ele>224.0</ele>
        <time>2020-07-09T12:24:34Z</time>
      </trkpt>
      <trkpt lat="49.318671" lon="6.739273">
        <ele>224.0</ele>
        <time>2020-07-09T12:24:36Z</time>
      </trkpt>
      <trkpt lat="49.318656" lon="6.739309">
        <ele>224.0</ele>
        <time>2020-07-09T12:24:39Z</time>
      </trkpt>
      <trkpt lat="49.318642" lon="6.73936">
        <ele>225.0</ele>
        <time>2020-07-09T12:24:41Z</time>
      </trkpt>
      <trkpt lat="49.318629" lon="6.739432">
        <ele>225.0</ele>
        <time>2020-07-09T12:24:43Z</time>
      </trkpt>
      <trkpt lat="49.318613" lon="6.73952">
        <ele>225.0</ele>
        <time>2020-07-09T12:24:45Z</time>
      </trkpt>
      <trkpt lat="49.318549" lon="6.739628">
        <ele>226.0</ele>
        <time>2020-07-09T12:24:48Z</time>
      </trkpt>
      <trkpt lat="49.318503" lon="6.739689">
        <ele>226.0</ele>
        <time>2020-07-09T12:24:50Z</time>
      </trkpt>
      <trkpt lat="49.318455" lon="6.73975">
        <ele>226.0</ele>
        <time>2020-07-09T12:24:53Z</time>
      </trkpt>
      <trkpt lat="49.318414" lon="6.739736">
        <ele>226.0</ele>
        <time>2020-07-09T12:24:55Z</time>
      </trkpt>
      <trkpt lat="49.318376" lon="6.739713">
        <ele>226.0</ele>
        <time>2020-07-09T12:24:57Z</time>
      </trkpt>
      <trkpt lat="49.318338" lon="6.739692">
        <ele>227.0</ele>
        <time>2020-07-09T12:24:59Z</time>
      </trkpt>
      <trkpt lat="49.318328" lon="6.73967">
        <ele>228.0</ele>
        <time>2020-07-09T12:25:01Z</time>
      </trkpt>
      <trkpt lat="49.318331" lon="6.73965">
        <ele>228.0</ele>
        <time>2020-07-09T12:25:03Z</time>
      </trkpt>
      <trkpt lat="49.318329" lon="6.739656">
        <ele>228.0</ele>
        <time>2020-07-09T12:25:05Z</time>
      </trkpt>
      <trkpt lat="49.318328" lon="6.73967">
        <ele>228.0</ele>
        <time>2020-07-09T12:25:07Z</time>
      </trkpt>
      <trkpt lat="49.318261" lon="6.739711">
        <ele>222.0</ele>
        <time>2020-07-09T12:25:49Z</time>
      </trkpt>
      <trkpt lat="49.318261" lon="6.739711">
        <ele>222.0</ele>
        <time>2020-07-09T12:25:51Z</time>
      </trkpt>
      <trkpt lat="49.318261" lon="6.739711">
        <ele>222.0</ele>
        <time>2020-07-09T12:25:53Z</time>
      </trkpt>
      <trkpt lat="49.318261" lon="6.739711">
        <ele>222.0</ele>
        <time>2020-07-09T12:25:55Z</time>
      </trkpt>
      <trkpt lat="49.318261" lon="6.739711">
        <ele>222.0</ele>
        <time>2020-07-09T12:25:57Z</time>
      </trkpt>
      <trkpt lat="49.318261" lon="6.739711">
        <ele>222.0</ele>
        <time>2020-07-09T12:25:59Z</time>
      </trkpt>
      <trkpt lat="49.318261" lon="6.739711">
        <ele>222.0</ele>
        <time>2020-07-09T12:26:01Z</time>
      </trkpt>
      <trkpt lat="49.31825" lon="6.739708">
        <ele>223.0</ele>
        <time>2020-07-09T12:26:04Z</time>
      </trkpt>
      <trkpt lat="49.318254" lon="6.739695">
        <ele>223.0</ele>
        <time>2020-07-09T12:26:06Z</time>
      </trkpt>
      <trkpt lat="49.31828" lon="6.739675">
        <ele>223.0</ele>
        <time>2020-07-09T12:26:08Z</time>
      </trkpt>
      <trkpt lat="49.318321" lon="6.739659">
        <ele>223.0</ele>
        <time>2020-07-09T12:26:10Z</time>
      </trkpt>
      <trkpt lat="49.318329" lon="6.739684">
        <ele>223.0</ele>
        <time>2020-07-09T12:26:13Z</time>
      </trkpt>
      <trkpt lat="49.318236" lon="6.739708">
        <ele>223.0</ele>
        <time>2020-07-09T12:26:15Z</time>
      </trkpt>
      <trkpt lat="49.318211" lon="6.739723">
        <ele>224.0</ele>
        <time>2020-07-09T12:26:16Z</time>
      </trkpt>
      <trkpt lat="49.318183" lon="6.739759">
        <ele>224.0</ele>
        <time>2020-07-09T12:26:20Z</time>
      </trkpt>
      <trkpt lat="49.318188" lon="6.739742">
        <ele>224.0</ele>
        <time>2020-07-09T12:26:22Z</time>
      </trkpt>
      <trkpt lat="49.318205" lon="6.739726">
        <ele>224.0</ele>
        <time>2020-07-09T12:26:24Z</time>
      </trkpt>
      <trkpt lat="49.318202" lon="6.739712">
        <ele>224.0</ele>
        <time>2020-07-09T12:26:25Z</time>
      </trkpt>
      <trkpt lat="49.318164" lon="6.739671">
        <ele>224.0</ele>
        <time>2020-07-09T12:26:29Z</time>
      </trkpt>
      <trkpt lat="49.318145" lon="6.739786">
        <ele>224.0</ele>
        <time>2020-07-09T12:26:31Z</time>
      </trkpt>
      <trkpt lat="49.318221" lon="6.739814">
        <ele>223.0</ele>
        <time>2020-07-09T12:26:33Z</time>
      </trkpt>
      <trkpt lat="49.318224" lon="6.739788">
        <ele>223.0</ele>
        <time>2020-07-09T12:26:35Z</time>
      </trkpt>
      <trkpt lat="49.318224" lon="6.739788">
        <ele>223.0</ele>
        <time>2020-07-09T12:26:38Z</time>
      </trkpt>
      <trkpt lat="49.318225" lon="6.73976">
        <ele>223.0</ele>
        <time>2020-07-09T12:26:40Z</time>
      </trkpt>
      <trkpt lat="49.318237" lon="6.739659">
        <ele>222.0</ele>
        <time>2020-07-09T12:26:42Z</time>
      </trkpt>
      <trkpt lat="49.31823" lon="6.739614">
        <ele>222.0</ele>
        <time>2020-07-09T12:26:44Z</time>
      </trkpt>
      <trkpt lat="49.318206" lon="6.739586">
        <ele>221.0</ele>
        <time>2020-07-09T12:26:46Z</time>
      </trkpt>
      <trkpt lat="49.318134" lon="6.739576">
        <ele>221.0</ele>
        <time>2020-07-09T12:26:49Z</time>
      </trkpt>
      <trkpt lat="49.318083" lon="6.739594">
        <ele>221.0</ele>
        <time>2020-07-09T12:26:51Z</time>
      </trkpt>
      <trkpt lat="49.318073" lon="6.73959">
        <ele>221.0</ele>
        <time>2020-07-09T12:26:54Z</time>
      </trkpt>
      <trkpt lat="49.318079" lon="6.739596">
        <ele>221.0</ele>
        <time>2020-07-09T12:26:56Z</time>
      </trkpt>
      <trkpt lat="49.318081" lon="6.739568">
        <ele>221.0</ele>
        <time>2020-07-09T12:26:57Z</time>
      </trkpt>
      <trkpt lat="49.318183" lon="6.739541">
        <ele>221.0</ele>
        <time>2020-07-09T12:27:01Z</time>
      </trkpt>
      <trkpt lat="49.318209" lon="6.739539">
        <ele>221.0</ele>
        <time>2020-07-09T12:27:03Z</time>
      </trkpt>
      <trkpt lat="49.318223" lon="6.739565">
        <ele>221.0</ele>
        <time>2020-07-09T12:27:05Z</time>
      </trkpt>
      <trkpt lat="49.318123" lon="6.739613">
        <ele>221.0</ele>
        <time>2020-07-09T12:27:07Z</time>
      </trkpt>
      <trkpt lat="49.318055" lon="6.739639">
        <ele>221.0</ele>
        <time>2020-07-09T12:27:09Z</time>
      </trkpt>
      <trkpt lat="49.318218" lon="6.739053">
        <ele>207.0</ele>
        <time>2020-07-09T12:29:15Z</time>
      </trkpt>
      <trkpt lat="49.318278" lon="6.738875">
        <ele>194.0</ele>
        <time>2020-07-09T12:29:21Z</time>
      </trkpt>
      <trkpt lat="49.318242" lon="6.738854">
        <ele>193.0</ele>
        <time>2020-07-09T12:29:23Z</time>
      </trkpt>
      <trkpt lat="49.318235" lon="6.738813">
        <ele>191.0</ele>
        <time>2020-07-09T12:29:24Z</time>
      </trkpt>
      <trkpt lat="49.318209" lon="6.738746">
        <ele>192.0</ele>
        <time>2020-07-09T12:29:27Z</time>
      </trkpt>
      <trkpt lat="49.318209" lon="6.738729">
        <ele>192.0</ele>
        <time>2020-07-09T12:29:29Z</time>
      </trkpt>
      <trkpt lat="49.318212" lon="6.738673">
        <ele>200.0</ele>
        <time>2020-07-09T12:29:32Z</time>
      </trkpt>
      <trkpt lat="49.31821" lon="6.738658">
        <ele>202.0</ele>
        <time>2020-07-09T12:29:34Z</time>
      </trkpt>
      <trkpt lat="49.318203" lon="6.738637">
        <ele>201.0</ele>
        <time>2020-07-09T12:29:36Z</time>
      </trkpt>
      <trkpt lat="49.318203" lon="6.738746">
        <ele>201.0</ele>
        <time>2020-07-09T12:29:39Z</time>
      </trkpt>
      <trkpt lat="49.318206" lon="6.73883">
        <ele>204.0</ele>
        <time>2020-07-09T12:29:41Z</time>
      </trkpt>
      <trkpt lat="49.31823" lon="6.738993">
        <ele>204.0</ele>
        <time>2020-07-09T12:29:44Z</time>
      </trkpt>
      <trkpt lat="49.31824" lon="6.739327">
        <ele>203.0</ele>
        <time>2020-07-09T12:29:51Z</time>
      </trkpt>
      <trkpt lat="49.31823" lon="6.739302">
        <ele>203.0</ele>
        <time>2020-07-09T12:29:53Z</time>
      </trkpt>
      <trkpt lat="49.318211" lon="6.73933">
        <ele>203.0</ele>
        <time>2020-07-09T12:29:55Z</time>
      </trkpt>
      <trkpt lat="49.318234" lon="6.739354">
        <ele>205.0</ele>
        <time>2020-07-09T12:29:57Z</time>
      </trkpt>
      <trkpt lat="49.318248" lon="6.739435">
        <ele>206.0</ele>
        <time>2020-07-09T12:29:59Z</time>
      </trkpt>
      <trkpt lat="49.318251" lon="6.73951">
        <ele>206.0</ele>
        <time>2020-07-09T12:30:01Z</time>
      </trkpt>
      <trkpt lat="49.31822" lon="6.739645">
        <ele>208.0</ele>
        <time>2020-07-09T12:30:03Z</time>
      </trkpt>
      <trkpt lat="49.318201" lon="6.739695">
        <ele>210.0</ele>
        <time>2020-07-09T12:30:06Z</time>
      </trkpt>
      <trkpt lat="49.318203" lon="6.739703">
        <ele>211.0</ele>
        <time>2020-07-09T12:30:08Z</time>
      </trkpt>
      <trkpt lat="49.318211" lon="6.73973">
        <ele>211.0</ele>
        <time>2020-07-09T12:30:10Z</time>
      </trkpt>
      <trkpt lat="49.318224" lon="6.739785">
        <ele>212.0</ele>
        <time>2020-07-09T12:30:12Z</time>
      </trkpt>
      <trkpt lat="49.318227" lon="6.739812">
        <ele>214.0</ele>
        <time>2020-07-09T12:30:14Z</time>
      </trkpt>
      <trkpt lat="49.318216" lon="6.73984">
        <ele>216.0</ele>
        <time>2020-07-09T12:30:16Z</time>
      </trkpt>
      <trkpt lat="49.318175" lon="6.739898">
        <ele>217.0</ele>
        <time>2020-07-09T12:30:19Z</time>
      </trkpt>
      <trkpt lat="49.318122" lon="6.739927">
        <ele>217.0</ele>
        <time>2020-07-09T12:30:21Z</time>
      </trkpt>
      <trkpt lat="49.318057" lon="6.739939">
        <ele>218.0</ele>
        <time>2020-07-09T12:30:23Z</time>
      </trkpt>
      <trkpt lat="49.318004" lon="6.739967">
        <ele>219.0</ele>
        <time>2020-07-09T12:30:25Z</time>
      </trkpt>
      <trkpt lat="49.317952" lon="6.740017">
        <ele>220.0</ele>
        <time>2020-07-09T12:30:27Z</time>
      </trkpt>
      <trkpt lat="49.317882" lon="6.74006">
        <ele>221.0</ele>
        <time>2020-07-09T12:30:29Z</time>
      </trkpt>
      <trkpt lat="49.317851" lon="6.740082">
        <ele>221.0</ele>
        <time>2020-07-09T12:30:30Z</time>
      </trkpt>
      <trkpt lat="49.317731" lon="6.740129">
        <ele>220.0</ele>
        <time>2020-07-09T12:30:33Z</time>
      </trkpt>
      <trkpt lat="49.317596" lon="6.740228">
        <ele>223.0</ele>
        <time>2020-07-09T12:30:36Z</time>
      </trkpt>
      <trkpt lat="49.317504" lon="6.74029">
        <ele>223.0</ele>
        <time>2020-07-09T12:30:38Z</time>
      </trkpt>
      <trkpt lat="49.317422" lon="6.740355">
        <ele>224.0</ele>
        <time>2020-07-09T12:30:40Z</time>
      </trkpt>
      <trkpt lat="49.317381" lon="6.740378">
        <ele>224.0</ele>
        <time>2020-07-09T12:30:41Z</time>
      </trkpt>
      <trkpt lat="49.317276" lon="6.740455">
        <ele>223.0</ele>
        <time>2020-07-09T12:30:44Z</time>
      </trkpt>
      <trkpt lat="49.317215" lon="6.740503">
        <ele>222.0</ele>
        <time>2020-07-09T12:30:46Z</time>
      </trkpt>
      <trkpt lat="49.317151" lon="6.740553">
        <ele>223.0</ele>
        <time>2020-07-09T12:30:48Z</time>
      </trkpt>
      <trkpt lat="49.317083" lon="6.740621">
        <ele>223.0</ele>
        <time>2020-07-09T12:30:50Z</time>
      </trkpt>
      <trkpt lat="49.317012" lon="6.74068">
        <ele>223.0</ele>
        <time>2020-07-09T12:30:52Z</time>
      </trkpt>
      <trkpt lat="49.316896" lon="6.740767">
        <ele>224.0</ele>
        <time>2020-07-09T12:30:55Z</time>
      </trkpt>
      <trkpt lat="49.316778" lon="6.740856">
        <ele>226.0</ele>
        <time>2020-07-09T12:30:58Z</time>
      </trkpt>
      <trkpt lat="49.316704" lon="6.740909">
        <ele>227.0</ele>
        <time>2020-07-09T12:31:00Z</time>
      </trkpt>
      <trkpt lat="49.316642" lon="6.740948">
        <ele>227.0</ele>
        <time>2020-07-09T12:31:02Z</time>
      </trkpt>
      <trkpt lat="49.316583" lon="6.74098">
        <ele>227.0</ele>
        <time>2020-07-09T12:31:04Z</time>
      </trkpt>
      <trkpt lat="49.316524" lon="6.741028">
        <ele>227.0</ele>
        <time>2020-07-09T12:31:07Z</time>
      </trkpt>
      <trkpt lat="49.316512" lon="6.741069">
        <ele>227.0</ele>
        <time>2020-07-09T12:31:09Z</time>
      </trkpt>
      <trkpt lat="49.316514" lon="6.741112">
        <ele>227.0</ele>
        <time>2020-07-09T12:31:11Z</time>
      </trkpt>
      <trkpt lat="49.316517" lon="6.741151">
        <ele>228.0</ele>
        <time>2020-07-09T12:31:13Z</time>
      </trkpt>
      <trkpt lat="49.316504" lon="6.741173">
        <ele>228.0</ele>
        <time>2020-07-09T12:31:15Z</time>
      </trkpt>
      <trkpt lat="49.316481" lon="6.741173">
        <ele>228.0</ele>
        <time>2020-07-09T12:31:17Z</time>
      </trkpt>
      <trkpt lat="49.316458" lon="6.741151">
        <ele>228.0</ele>
        <time>2020-07-09T12:31:19Z</time>
      </trkpt>
      <trkpt lat="49.316453" lon="6.741143">
        <ele>228.0</ele>
        <time>2020-07-09T12:31:21Z</time>
      </trkpt>
      <trkpt lat="49.316447" lon="6.741145">
        <ele>229.0</ele>
        <time>2020-07-09T12:31:23Z</time>
      </trkpt>
      <trkpt lat="49.316445" lon="6.741142">
        <ele>228.0</ele>
        <time>2020-07-09T12:31:25Z</time>
      </trkpt>
      <trkpt lat="49.316442" lon="6.741138">
        <ele>228.0</ele>
        <time>2020-07-09T12:31:27Z</time>
      </trkpt>
      <trkpt lat="49.316493" lon="6.741308">
        <ele>227.0</ele>
        <time>2020-07-09T12:38:07Z</time>
      </trkpt>
      <trkpt lat="49.316493" lon="6.741308">
        <ele>227.0</ele>
        <time>2020-07-09T12:38:09Z</time>
      </trkpt>
      <trkpt lat="49.316495" lon="6.741304">
        <ele>227.0</ele>
        <time>2020-07-09T12:38:11Z</time>
      </trkpt>
      <trkpt lat="49.316495" lon="6.741295">
        <ele>227.0</ele>
        <time>2020-07-09T12:38:14Z</time>
      </trkpt>
      <trkpt lat="49.31649" lon="6.741286">
        <ele>225.0</ele>
        <time>2020-07-09T12:38:17Z</time>
      </trkpt>
      <trkpt lat="49.316476" lon="6.741272">
        <ele>225.0</ele>
        <time>2020-07-09T12:38:19Z</time>
      </trkpt>
      <trkpt lat="49.316471" lon="6.741259">
        <ele>226.0</ele>
        <time>2020-07-09T12:38:20Z</time>
      </trkpt>
      <trkpt lat="49.316455" lon="6.741197">
        <ele>226.0</ele>
        <time>2020-07-09T12:38:23Z</time>
      </trkpt>
      <trkpt lat="49.316442" lon="6.741175">
        <ele>227.0</ele>
        <time>2020-07-09T12:38:25Z</time>
      </trkpt>
      <trkpt lat="49.316429" lon="6.741156">
        <ele>227.0</ele>
        <time>2020-07-09T12:38:27Z</time>
      </trkpt>
      <trkpt lat="49.316436" lon="6.741162">
        <ele>226.0</ele>
        <time>2020-07-09T12:38:29Z</time>
      </trkpt>
      <trkpt lat="49.316442" lon="6.741165">
        <ele>227.0</ele>
        <time>2020-07-09T12:38:31Z</time>
      </trkpt>
      <trkpt lat="49.316456" lon="6.741191">
        <ele>228.0</ele>
        <time>2020-07-09T12:38:33Z</time>
      </trkpt>
      <trkpt lat="49.316465" lon="6.741205">
        <ele>228.0</ele>
        <time>2020-07-09T12:38:34Z</time>
      </trkpt>
      <trkpt lat="49.316488" lon="6.741252">
        <ele>227.0</ele>
        <time>2020-07-09T12:38:37Z</time>
      </trkpt>
      <trkpt lat="49.316494" lon="6.741258">
        <ele>226.0</ele>
        <time>2020-07-09T12:38:38Z</time>
      </trkpt>
      <trkpt lat="49.316493" lon="6.741261">
        <ele>227.0</ele>
        <time>2020-07-09T12:38:42Z</time>
      </trkpt>
      <trkpt lat="49.316488" lon="6.741264">
        <ele>226.0</ele>
        <time>2020-07-09T12:38:44Z</time>
      </trkpt>
    </trkseg>
  </trk>
</gpx>
